<?xml version="1.0" encoding="UTF-8" standalone="no" ?>
<gpx xmlns="http://www.topografix.com/GPX/1/1" xmlns:xsi="http://www.w3.org/2001/XMLSchema-instance" xsi:schemaLocation="http://www.topografix.com/GPX/1/1 http://www.topografix.com/GPX/1/1/gpx.xsd" version="1.1" creator="VisuGPX - https://www.visugpx.com">
  <metadata>
    <name>Grande traversée du VERCORS - Partie 2</name>
    <desc><![CDATA[Itinéraire des chemins du soleil, empruntant la grande traversée du Vercors, que j\'ai effectué début septembre 2014 - Deuxième journée.]]></desc>
  </metadata>
  <trk>
    <name><![CDATA[Tracé actuel: 05 SEP 2014 08:36]]></name>
    <trkseg>
      <trkpt lat="44.96721" lon="5.41818">
        <ele>889.84</ele>
        <time>2014-09-05T06:36:48Z</time>
      </trkpt>
      <trkpt lat="44.96721" lon="5.41817">
        <ele>889.36</ele>
        <time>2014-09-05T06:36:49Z</time>
      </trkpt>
      <trkpt lat="44.9668" lon="5.41803">
        <ele>890.32</ele>
        <time>2014-09-05T06:37:09Z</time>
      </trkpt>
      <trkpt lat="44.96672" lon="5.41799">
        <ele>892.24</ele>
        <time>2014-09-05T06:37:27Z</time>
      </trkpt>
      <trkpt lat="44.96671" lon="5.41798">
        <ele>892.24</ele>
        <time>2014-09-05T06:37:49Z</time>
      </trkpt>
      <trkpt lat="44.96672" lon="5.41798">
        <ele>892.72</ele>
        <time>2014-09-05T06:38:08Z</time>
      </trkpt>
      <trkpt lat="44.96671" lon="5.41799">
        <ele>892.72</ele>
        <time>2014-09-05T06:38:25Z</time>
      </trkpt>
      <trkpt lat="44.96671" lon="5.41799">
        <ele>892.24</ele>
        <time>2014-09-05T06:38:46Z</time>
      </trkpt>
      <trkpt lat="44.96671" lon="5.41799">
        <ele>888.88</ele>
        <time>2014-09-05T06:39:02Z</time>
      </trkpt>
      <trkpt lat="44.96671" lon="5.41799">
        <ele>892.72</ele>
        <time>2014-09-05T06:39:03Z</time>
      </trkpt>
      <trkpt lat="44.96671" lon="5.41799">
        <ele>888.88</ele>
        <time>2014-09-05T06:39:06Z</time>
      </trkpt>
      <trkpt lat="44.96671" lon="5.41799">
        <ele>892.72</ele>
        <time>2014-09-05T06:39:07Z</time>
      </trkpt>
      <trkpt lat="44.96671" lon="5.41799">
        <ele>892.72</ele>
        <time>2014-09-05T06:39:32Z</time>
      </trkpt>
      <trkpt lat="44.96671" lon="5.41798">
        <ele>892.72</ele>
        <time>2014-09-05T06:39:57Z</time>
      </trkpt>
      <trkpt lat="44.96671" lon="5.41798">
        <ele>892.24</ele>
        <time>2014-09-05T06:40:14Z</time>
      </trkpt>
      <trkpt lat="44.96672" lon="5.41798">
        <ele>892.72</ele>
        <time>2014-09-05T06:40:33Z</time>
      </trkpt>
      <trkpt lat="44.96672" lon="5.41798">
        <ele>892.24</ele>
        <time>2014-09-05T06:40:44Z</time>
      </trkpt>
      <trkpt lat="44.96672" lon="5.41798">
        <ele>892.24</ele>
        <time>2014-09-05T06:40:52Z</time>
      </trkpt>
      <trkpt lat="44.96674" lon="5.41791">
        <ele>892.24</ele>
        <time>2014-09-05T06:40:56Z</time>
      </trkpt>
      <trkpt lat="44.96689" lon="5.41759">
        <ele>891.76</ele>
        <time>2014-09-05T06:41:06Z</time>
      </trkpt>
      <trkpt lat="44.96702" lon="5.41716">
        <ele>890.32</ele>
        <time>2014-09-05T06:41:14Z</time>
      </trkpt>
      <trkpt lat="44.96704" lon="5.4171">
        <ele>890.8</ele>
        <time>2014-09-05T06:41:15Z</time>
      </trkpt>
      <trkpt lat="44.96732" lon="5.41621">
        <ele>889.84</ele>
        <time>2014-09-05T06:41:29Z</time>
      </trkpt>
      <trkpt lat="44.96739" lon="5.41591">
        <ele>889.36</ele>
        <time>2014-09-05T06:41:34Z</time>
      </trkpt>
      <trkpt lat="44.9674" lon="5.41585">
        <ele>890.32</ele>
        <time>2014-09-05T06:41:35Z</time>
      </trkpt>
      <trkpt lat="44.96756" lon="5.41534">
        <ele>889.36</ele>
        <time>2014-09-05T06:41:45Z</time>
      </trkpt>
      <trkpt lat="44.96758" lon="5.41529">
        <ele>889.36</ele>
        <time>2014-09-05T06:41:46Z</time>
      </trkpt>
      <trkpt lat="44.96762" lon="5.41519">
        <ele>889.36</ele>
        <time>2014-09-05T06:41:48Z</time>
      </trkpt>
      <trkpt lat="44.96763" lon="5.41513">
        <ele>889.84</ele>
        <time>2014-09-05T06:41:49Z</time>
      </trkpt>
      <trkpt lat="44.96767" lon="5.41496">
        <ele>888.88</ele>
        <time>2014-09-05T06:41:52Z</time>
      </trkpt>
      <trkpt lat="44.96769" lon="5.4149">
        <ele>889.36</ele>
        <time>2014-09-05T06:41:53Z</time>
      </trkpt>
      <trkpt lat="44.96771" lon="5.41484">
        <ele>889.84</ele>
        <time>2014-09-05T06:41:54Z</time>
      </trkpt>
      <trkpt lat="44.96795" lon="5.41406">
        <ele>888.4</ele>
        <time>2014-09-05T06:42:06Z</time>
      </trkpt>
      <trkpt lat="44.96801" lon="5.41388">
        <ele>888.4</ele>
        <time>2014-09-05T06:42:12Z</time>
      </trkpt>
      <trkpt lat="44.96801" lon="5.41388">
        <ele>887.91</ele>
        <time>2014-09-05T06:42:29Z</time>
      </trkpt>
      <trkpt lat="44.96801" lon="5.41388">
        <ele>887.43</ele>
        <time>2014-09-05T06:42:49Z</time>
      </trkpt>
      <trkpt lat="44.96801" lon="5.41388">
        <ele>887.91</ele>
        <time>2014-09-05T06:43:04Z</time>
      </trkpt>
      <trkpt lat="44.96802" lon="5.41386">
        <ele>888.4</ele>
        <time>2014-09-05T06:43:05Z</time>
      </trkpt>
      <trkpt lat="44.96802" lon="5.41383">
        <ele>887.91</ele>
        <time>2014-09-05T06:43:06Z</time>
      </trkpt>
      <trkpt lat="44.96803" lon="5.41379">
        <ele>887.91</ele>
        <time>2014-09-05T06:43:07Z</time>
      </trkpt>
      <trkpt lat="44.96804" lon="5.41375">
        <ele>887.91</ele>
        <time>2014-09-05T06:43:08Z</time>
      </trkpt>
      <trkpt lat="44.96808" lon="5.41355">
        <ele>886.95</ele>
        <time>2014-09-05T06:43:12Z</time>
      </trkpt>
      <trkpt lat="44.96823" lon="5.41276">
        <ele>884.55</ele>
        <time>2014-09-05T06:43:23Z</time>
      </trkpt>
      <trkpt lat="44.9683" lon="5.41244">
        <ele>882.63</ele>
        <time>2014-09-05T06:43:27Z</time>
      </trkpt>
      <trkpt lat="44.96832" lon="5.41236">
        <ele>882.15</ele>
        <time>2014-09-05T06:43:28Z</time>
      </trkpt>
      <trkpt lat="44.96836" lon="5.41228">
        <ele>881.67</ele>
        <time>2014-09-05T06:43:29Z</time>
      </trkpt>
      <trkpt lat="44.9684" lon="5.4122">
        <ele>881.67</ele>
        <time>2014-09-05T06:43:30Z</time>
      </trkpt>
      <trkpt lat="44.96844" lon="5.41213">
        <ele>881.19</ele>
        <time>2014-09-05T06:43:31Z</time>
      </trkpt>
      <trkpt lat="44.96849" lon="5.41206">
        <ele>880.22</ele>
        <time>2014-09-05T06:43:32Z</time>
      </trkpt>
      <trkpt lat="44.96854" lon="5.41199">
        <ele>880.22</ele>
        <time>2014-09-05T06:43:33Z</time>
      </trkpt>
      <trkpt lat="44.9686" lon="5.41193">
        <ele>880.22</ele>
        <time>2014-09-05T06:43:34Z</time>
      </trkpt>
      <trkpt lat="44.96918" lon="5.41143">
        <ele>876.86</ele>
        <time>2014-09-05T06:43:44Z</time>
      </trkpt>
      <trkpt lat="44.96929" lon="5.41133">
        <ele>875.9</ele>
        <time>2014-09-05T06:43:46Z</time>
      </trkpt>
      <trkpt lat="44.9694" lon="5.41125">
        <ele>875.9</ele>
        <time>2014-09-05T06:43:48Z</time>
      </trkpt>
      <trkpt lat="44.96946" lon="5.41123">
        <ele>875.42</ele>
        <time>2014-09-05T06:43:49Z</time>
      </trkpt>
      <trkpt lat="44.96958" lon="5.41119">
        <ele>874.94</ele>
        <time>2014-09-05T06:43:51Z</time>
      </trkpt>
      <trkpt lat="44.96964" lon="5.41119">
        <ele>873.98</ele>
        <time>2014-09-05T06:43:52Z</time>
      </trkpt>
      <trkpt lat="44.96976" lon="5.41119">
        <ele>873.5</ele>
        <time>2014-09-05T06:43:54Z</time>
      </trkpt>
      <trkpt lat="44.96981" lon="5.41116">
        <ele>872.53</ele>
        <time>2014-09-05T06:43:55Z</time>
      </trkpt>
      <trkpt lat="44.96986" lon="5.41112">
        <ele>872.53</ele>
        <time>2014-09-05T06:43:56Z</time>
      </trkpt>
      <trkpt lat="44.9699" lon="5.41106">
        <ele>872.53</ele>
        <time>2014-09-05T06:43:57Z</time>
      </trkpt>
      <trkpt lat="44.96993" lon="5.41099">
        <ele>872.05</ele>
        <time>2014-09-05T06:43:58Z</time>
      </trkpt>
      <trkpt lat="44.96996" lon="5.41091">
        <ele>871.57</ele>
        <time>2014-09-05T06:43:59Z</time>
      </trkpt>
      <trkpt lat="44.96998" lon="5.41084">
        <ele>871.09</ele>
        <time>2014-09-05T06:44:00Z</time>
      </trkpt>
      <trkpt lat="44.96997" lon="5.41076">
        <ele>871.09</ele>
        <time>2014-09-05T06:44:01Z</time>
      </trkpt>
      <trkpt lat="44.96996" lon="5.41069">
        <ele>871.09</ele>
        <time>2014-09-05T06:44:02Z</time>
      </trkpt>
      <trkpt lat="44.96994" lon="5.41061">
        <ele>870.61</ele>
        <time>2014-09-05T06:44:03Z</time>
      </trkpt>
      <trkpt lat="44.96988" lon="5.41035">
        <ele>869.17</ele>
        <time>2014-09-05T06:44:07Z</time>
      </trkpt>
      <trkpt lat="44.96985" lon="5.41021">
        <ele>869.17</ele>
        <time>2014-09-05T06:44:09Z</time>
      </trkpt>
      <trkpt lat="44.96983" lon="5.41014">
        <ele>868.69</ele>
        <time>2014-09-05T06:44:10Z</time>
      </trkpt>
      <trkpt lat="44.96981" lon="5.41006">
        <ele>868.69</ele>
        <time>2014-09-05T06:44:11Z</time>
      </trkpt>
      <trkpt lat="44.96973" lon="5.40975">
        <ele>867.25</ele>
        <time>2014-09-05T06:44:16Z</time>
      </trkpt>
      <trkpt lat="44.9697" lon="5.40972">
        <ele>867.25</ele>
        <time>2014-09-05T06:44:17Z</time>
      </trkpt>
      <trkpt lat="44.96969" lon="5.40969">
        <ele>867.25</ele>
        <time>2014-09-05T06:44:18Z</time>
      </trkpt>
      <trkpt lat="44.96968" lon="5.40964">
        <ele>866.77</ele>
        <time>2014-09-05T06:44:19Z</time>
      </trkpt>
      <trkpt lat="44.96967" lon="5.40959">
        <ele>866.77</ele>
        <time>2014-09-05T06:44:20Z</time>
      </trkpt>
      <trkpt lat="44.96957" lon="5.4091">
        <ele>864.84</ele>
        <time>2014-09-05T06:44:29Z</time>
      </trkpt>
      <trkpt lat="44.96957" lon="5.40861">
        <ele>862.92</ele>
        <time>2014-09-05T06:44:36Z</time>
      </trkpt>
      <trkpt lat="44.96958" lon="5.40855">
        <ele>862.92</ele>
        <time>2014-09-05T06:44:37Z</time>
      </trkpt>
      <trkpt lat="44.9696" lon="5.40849">
        <ele>862.92</ele>
        <time>2014-09-05T06:44:38Z</time>
      </trkpt>
      <trkpt lat="44.96961" lon="5.40843">
        <ele>862.44</ele>
        <time>2014-09-05T06:44:39Z</time>
      </trkpt>
      <trkpt lat="44.96963" lon="5.40839">
        <ele>862.44</ele>
        <time>2014-09-05T06:44:40Z</time>
      </trkpt>
      <trkpt lat="44.96965" lon="5.40834">
        <ele>862.44</ele>
        <time>2014-09-05T06:44:41Z</time>
      </trkpt>
      <trkpt lat="44.96967" lon="5.40824">
        <ele>861.48</ele>
        <time>2014-09-05T06:44:44Z</time>
      </trkpt>
      <trkpt lat="44.96966" lon="5.40822">
        <ele>861.96</ele>
        <time>2014-09-05T06:44:45Z</time>
      </trkpt>
      <trkpt lat="44.96962" lon="5.40825">
        <ele>861.48</ele>
        <time>2014-09-05T06:44:47Z</time>
      </trkpt>
      <trkpt lat="44.96954" lon="5.40836">
        <ele>860.04</ele>
        <time>2014-09-05T06:44:50Z</time>
      </trkpt>
      <trkpt lat="44.96951" lon="5.40841">
        <ele>860.04</ele>
        <time>2014-09-05T06:44:51Z</time>
      </trkpt>
      <trkpt lat="44.96944" lon="5.40849">
        <ele>859.08</ele>
        <time>2014-09-05T06:44:53Z</time>
      </trkpt>
      <trkpt lat="44.96934" lon="5.40858">
        <ele>858.59</ele>
        <time>2014-09-05T06:44:57Z</time>
      </trkpt>
      <trkpt lat="44.96932" lon="5.40858">
        <ele>858.59</ele>
        <time>2014-09-05T06:44:58Z</time>
      </trkpt>
      <trkpt lat="44.96929" lon="5.40855">
        <ele>857.63</ele>
        <time>2014-09-05T06:44:59Z</time>
      </trkpt>
      <trkpt lat="44.96927" lon="5.40851">
        <ele>857.63</ele>
        <time>2014-09-05T06:45:00Z</time>
      </trkpt>
      <trkpt lat="44.96926" lon="5.40847">
        <ele>858.11</ele>
        <time>2014-09-05T06:45:01Z</time>
      </trkpt>
      <trkpt lat="44.96925" lon="5.40843">
        <ele>858.11</ele>
        <time>2014-09-05T06:45:02Z</time>
      </trkpt>
      <trkpt lat="44.96925" lon="5.40838">
        <ele>858.11</ele>
        <time>2014-09-05T06:45:03Z</time>
      </trkpt>
      <trkpt lat="44.96925" lon="5.40834">
        <ele>858.11</ele>
        <time>2014-09-05T06:45:04Z</time>
      </trkpt>
      <trkpt lat="44.96922" lon="5.40788">
        <ele>855.71</ele>
        <time>2014-09-05T06:45:13Z</time>
      </trkpt>
      <trkpt lat="44.96921" lon="5.40777">
        <ele>854.75</ele>
        <time>2014-09-05T06:45:15Z</time>
      </trkpt>
      <trkpt lat="44.96922" lon="5.40772">
        <ele>854.27</ele>
        <time>2014-09-05T06:45:16Z</time>
      </trkpt>
      <trkpt lat="44.96922" lon="5.40768">
        <ele>854.27</ele>
        <time>2014-09-05T06:45:17Z</time>
      </trkpt>
      <trkpt lat="44.96929" lon="5.4075">
        <ele>851.87</ele>
        <time>2014-09-05T06:45:24Z</time>
      </trkpt>
      <trkpt lat="44.96931" lon="5.40721">
        <ele>848.98</ele>
        <time>2014-09-05T06:45:30Z</time>
      </trkpt>
      <trkpt lat="44.96928" lon="5.40692">
        <ele>846.58</ele>
        <time>2014-09-05T06:45:36Z</time>
      </trkpt>
      <trkpt lat="44.96928" lon="5.40687">
        <ele>846.58</ele>
        <time>2014-09-05T06:45:37Z</time>
      </trkpt>
      <trkpt lat="44.96928" lon="5.40682">
        <ele>846.1</ele>
        <time>2014-09-05T06:45:38Z</time>
      </trkpt>
      <trkpt lat="44.96928" lon="5.40678">
        <ele>846.1</ele>
        <time>2014-09-05T06:45:39Z</time>
      </trkpt>
      <trkpt lat="44.96928" lon="5.40673">
        <ele>845.14</ele>
        <time>2014-09-05T06:45:40Z</time>
      </trkpt>
      <trkpt lat="44.96927" lon="5.40658">
        <ele>844.66</ele>
        <time>2014-09-05T06:45:43Z</time>
      </trkpt>
      <trkpt lat="44.96927" lon="5.40652">
        <ele>844.18</ele>
        <time>2014-09-05T06:45:44Z</time>
      </trkpt>
      <trkpt lat="44.96927" lon="5.40646">
        <ele>844.18</ele>
        <time>2014-09-05T06:45:45Z</time>
      </trkpt>
      <trkpt lat="44.96927" lon="5.4064">
        <ele>843.69</ele>
        <time>2014-09-05T06:45:46Z</time>
      </trkpt>
      <trkpt lat="44.96927" lon="5.40634">
        <ele>844.18</ele>
        <time>2014-09-05T06:45:47Z</time>
      </trkpt>
      <trkpt lat="44.96927" lon="5.40628">
        <ele>843.69</ele>
        <time>2014-09-05T06:45:48Z</time>
      </trkpt>
      <trkpt lat="44.96928" lon="5.40592">
        <ele>842.25</ele>
        <time>2014-09-05T06:45:54Z</time>
      </trkpt>
      <trkpt lat="44.96928" lon="5.40586">
        <ele>842.73</ele>
        <time>2014-09-05T06:45:55Z</time>
      </trkpt>
      <trkpt lat="44.96928" lon="5.4058">
        <ele>842.73</ele>
        <time>2014-09-05T06:45:56Z</time>
      </trkpt>
      <trkpt lat="44.96928" lon="5.40573">
        <ele>842.73</ele>
        <time>2014-09-05T06:45:57Z</time>
      </trkpt>
      <trkpt lat="44.96928" lon="5.40567">
        <ele>842.73</ele>
        <time>2014-09-05T06:45:58Z</time>
      </trkpt>
      <trkpt lat="44.96928" lon="5.4056">
        <ele>842.73</ele>
        <time>2014-09-05T06:45:59Z</time>
      </trkpt>
      <trkpt lat="44.96928" lon="5.40535">
        <ele>841.77</ele>
        <time>2014-09-05T06:46:03Z</time>
      </trkpt>
      <trkpt lat="44.96928" lon="5.4053">
        <ele>841.77</ele>
        <time>2014-09-05T06:46:04Z</time>
      </trkpt>
      <trkpt lat="44.9693" lon="5.40491">
        <ele>841.29</ele>
        <time>2014-09-05T06:46:12Z</time>
      </trkpt>
      <trkpt lat="44.9693" lon="5.40491">
        <ele>840.81</ele>
        <time>2014-09-05T06:46:26Z</time>
      </trkpt>
      <trkpt lat="44.9693" lon="5.40491">
        <ele>840.81</ele>
        <time>2014-09-05T06:46:47Z</time>
      </trkpt>
      <trkpt lat="44.9693" lon="5.40491">
        <ele>841.29</ele>
        <time>2014-09-05T06:46:50Z</time>
      </trkpt>
      <trkpt lat="44.9693" lon="5.40489">
        <ele>840.81</ele>
        <time>2014-09-05T06:46:51Z</time>
      </trkpt>
      <trkpt lat="44.9693" lon="5.40487">
        <ele>840.33</ele>
        <time>2014-09-05T06:46:52Z</time>
      </trkpt>
      <trkpt lat="44.9693" lon="5.40483">
        <ele>840.33</ele>
        <time>2014-09-05T06:46:53Z</time>
      </trkpt>
      <trkpt lat="44.96931" lon="5.40479">
        <ele>839.85</ele>
        <time>2014-09-05T06:46:54Z</time>
      </trkpt>
      <trkpt lat="44.96932" lon="5.40474">
        <ele>839.85</ele>
        <time>2014-09-05T06:46:55Z</time>
      </trkpt>
      <trkpt lat="44.96932" lon="5.4047">
        <ele>839.85</ele>
        <time>2014-09-05T06:46:56Z</time>
      </trkpt>
      <trkpt lat="44.96933" lon="5.40465">
        <ele>839.85</ele>
        <time>2014-09-05T06:46:57Z</time>
      </trkpt>
      <trkpt lat="44.96934" lon="5.4046">
        <ele>839.37</ele>
        <time>2014-09-05T06:46:58Z</time>
      </trkpt>
      <trkpt lat="44.96936" lon="5.40455">
        <ele>839.37</ele>
        <time>2014-09-05T06:46:59Z</time>
      </trkpt>
      <trkpt lat="44.96956" lon="5.40435">
        <ele>838.89</ele>
        <time>2014-09-05T06:47:06Z</time>
      </trkpt>
      <trkpt lat="44.96967" lon="5.40428">
        <ele>837.93</ele>
        <time>2014-09-05T06:47:09Z</time>
      </trkpt>
      <trkpt lat="44.96971" lon="5.40425">
        <ele>838.41</ele>
        <time>2014-09-05T06:47:10Z</time>
      </trkpt>
      <trkpt lat="44.96975" lon="5.40422">
        <ele>837.93</ele>
        <time>2014-09-05T06:47:11Z</time>
      </trkpt>
      <trkpt lat="44.96978" lon="5.40419">
        <ele>837.45</ele>
        <time>2014-09-05T06:47:12Z</time>
      </trkpt>
      <trkpt lat="44.96982" lon="5.40416">
        <ele>836.96</ele>
        <time>2014-09-05T06:47:13Z</time>
      </trkpt>
      <trkpt lat="44.96986" lon="5.40412">
        <ele>837.45</ele>
        <time>2014-09-05T06:47:14Z</time>
      </trkpt>
      <trkpt lat="44.96989" lon="5.4041">
        <ele>836.96</ele>
        <time>2014-09-05T06:47:15Z</time>
      </trkpt>
      <trkpt lat="44.96992" lon="5.40407">
        <ele>836.96</ele>
        <time>2014-09-05T06:47:16Z</time>
      </trkpt>
      <trkpt lat="44.96995" lon="5.40405">
        <ele>836.96</ele>
        <time>2014-09-05T06:47:17Z</time>
      </trkpt>
      <trkpt lat="44.96998" lon="5.40404">
        <ele>836.48</ele>
        <time>2014-09-05T06:47:18Z</time>
      </trkpt>
      <trkpt lat="44.97002" lon="5.40401">
        <ele>836.48</ele>
        <time>2014-09-05T06:47:19Z</time>
      </trkpt>
      <trkpt lat="44.97004" lon="5.40397">
        <ele>836</ele>
        <time>2014-09-05T06:47:20Z</time>
      </trkpt>
      <trkpt lat="44.97007" lon="5.40394">
        <ele>836</ele>
        <time>2014-09-05T06:47:21Z</time>
      </trkpt>
      <trkpt lat="44.97009" lon="5.40391">
        <ele>835.52</ele>
        <time>2014-09-05T06:47:22Z</time>
      </trkpt>
      <trkpt lat="44.97011" lon="5.40388">
        <ele>835.04</ele>
        <time>2014-09-05T06:47:23Z</time>
      </trkpt>
      <trkpt lat="44.97012" lon="5.40384">
        <ele>835.04</ele>
        <time>2014-09-05T06:47:24Z</time>
      </trkpt>
      <trkpt lat="44.97019" lon="5.40354">
        <ele>834.08</ele>
        <time>2014-09-05T06:47:32Z</time>
      </trkpt>
      <trkpt lat="44.9702" lon="5.4035">
        <ele>833.6</ele>
        <time>2014-09-05T06:47:33Z</time>
      </trkpt>
      <trkpt lat="44.97022" lon="5.40346">
        <ele>834.08</ele>
        <time>2014-09-05T06:47:34Z</time>
      </trkpt>
      <trkpt lat="44.97023" lon="5.40342">
        <ele>833.12</ele>
        <time>2014-09-05T06:47:35Z</time>
      </trkpt>
      <trkpt lat="44.97024" lon="5.40338">
        <ele>833.6</ele>
        <time>2014-09-05T06:47:36Z</time>
      </trkpt>
      <trkpt lat="44.97025" lon="5.40333">
        <ele>833.6</ele>
        <time>2014-09-05T06:47:37Z</time>
      </trkpt>
      <trkpt lat="44.97033" lon="5.40297">
        <ele>832.64</ele>
        <time>2014-09-05T06:47:44Z</time>
      </trkpt>
      <trkpt lat="44.97034" lon="5.40291">
        <ele>831.68</ele>
        <time>2014-09-05T06:47:45Z</time>
      </trkpt>
      <trkpt lat="44.97035" lon="5.40286">
        <ele>831.68</ele>
        <time>2014-09-05T06:47:46Z</time>
      </trkpt>
      <trkpt lat="44.97035" lon="5.40282">
        <ele>832.16</ele>
        <time>2014-09-05T06:47:47Z</time>
      </trkpt>
      <trkpt lat="44.97036" lon="5.40278">
        <ele>832.16</ele>
        <time>2014-09-05T06:47:48Z</time>
      </trkpt>
      <trkpt lat="44.97038" lon="5.40274">
        <ele>832.16</ele>
        <time>2014-09-05T06:47:49Z</time>
      </trkpt>
      <trkpt lat="44.97039" lon="5.4027">
        <ele>831.68</ele>
        <time>2014-09-05T06:47:50Z</time>
      </trkpt>
      <trkpt lat="44.97057" lon="5.4022">
        <ele>832.16</ele>
        <time>2014-09-05T06:48:01Z</time>
      </trkpt>
      <trkpt lat="44.97067" lon="5.40178">
        <ele>833.12</ele>
        <time>2014-09-05T06:48:11Z</time>
      </trkpt>
      <trkpt lat="44.97075" lon="5.40155">
        <ele>834.08</ele>
        <time>2014-09-05T06:48:18Z</time>
      </trkpt>
      <trkpt lat="44.97075" lon="5.40152">
        <ele>834.08</ele>
        <time>2014-09-05T06:48:19Z</time>
      </trkpt>
      <trkpt lat="44.97075" lon="5.40149">
        <ele>833.6</ele>
        <time>2014-09-05T06:48:20Z</time>
      </trkpt>
      <trkpt lat="44.97076" lon="5.40146">
        <ele>833.12</ele>
        <time>2014-09-05T06:48:21Z</time>
      </trkpt>
      <trkpt lat="44.97078" lon="5.40144">
        <ele>833.6</ele>
        <time>2014-09-05T06:48:22Z</time>
      </trkpt>
      <trkpt lat="44.97081" lon="5.40138">
        <ele>833.12</ele>
        <time>2014-09-05T06:48:24Z</time>
      </trkpt>
      <trkpt lat="44.9708" lon="5.40135">
        <ele>833.12</ele>
        <time>2014-09-05T06:48:25Z</time>
      </trkpt>
      <trkpt lat="44.97079" lon="5.40133">
        <ele>833.12</ele>
        <time>2014-09-05T06:48:26Z</time>
      </trkpt>
      <trkpt lat="44.97076" lon="5.40131">
        <ele>832.64</ele>
        <time>2014-09-05T06:48:27Z</time>
      </trkpt>
      <trkpt lat="44.97073" lon="5.4013">
        <ele>832.64</ele>
        <time>2014-09-05T06:48:28Z</time>
      </trkpt>
      <trkpt lat="44.9707" lon="5.40128">
        <ele>833.12</ele>
        <time>2014-09-05T06:48:29Z</time>
      </trkpt>
      <trkpt lat="44.97066" lon="5.40126">
        <ele>832.64</ele>
        <time>2014-09-05T06:48:30Z</time>
      </trkpt>
      <trkpt lat="44.97062" lon="5.40124">
        <ele>833.12</ele>
        <time>2014-09-05T06:48:31Z</time>
      </trkpt>
      <trkpt lat="44.97027" lon="5.40116">
        <ele>832.64</ele>
        <time>2014-09-05T06:48:40Z</time>
      </trkpt>
      <trkpt lat="44.9697" lon="5.40103">
        <ele>834.08</ele>
        <time>2014-09-05T06:48:54Z</time>
      </trkpt>
      <trkpt lat="44.96925" lon="5.40098">
        <ele>835.52</ele>
        <time>2014-09-05T06:49:06Z</time>
      </trkpt>
      <trkpt lat="44.96916" lon="5.40098">
        <ele>835.52</ele>
        <time>2014-09-05T06:49:12Z</time>
      </trkpt>
      <trkpt lat="44.96915" lon="5.40098">
        <ele>835.52</ele>
        <time>2014-09-05T06:49:29Z</time>
      </trkpt>
      <trkpt lat="44.96914" lon="5.40098">
        <ele>835.52</ele>
        <time>2014-09-05T06:49:30Z</time>
      </trkpt>
      <trkpt lat="44.96912" lon="5.40098">
        <ele>835.04</ele>
        <time>2014-09-05T06:49:31Z</time>
      </trkpt>
      <trkpt lat="44.96889" lon="5.40095">
        <ele>835.52</ele>
        <time>2014-09-05T06:49:39Z</time>
      </trkpt>
      <trkpt lat="44.9686" lon="5.40096">
        <ele>836.48</ele>
        <time>2014-09-05T06:49:48Z</time>
      </trkpt>
      <trkpt lat="44.96828" lon="5.40104">
        <ele>836.96</ele>
        <time>2014-09-05T06:49:58Z</time>
      </trkpt>
      <trkpt lat="44.96801" lon="5.40105">
        <ele>837.93</ele>
        <time>2014-09-05T06:50:07Z</time>
      </trkpt>
      <trkpt lat="44.96767" lon="5.40111">
        <ele>838.89</ele>
        <time>2014-09-05T06:50:17Z</time>
      </trkpt>
      <trkpt lat="44.9673" lon="5.4012">
        <ele>838.41</ele>
        <time>2014-09-05T06:50:28Z</time>
      </trkpt>
      <trkpt lat="44.96704" lon="5.40124">
        <ele>838.41</ele>
        <time>2014-09-05T06:50:37Z</time>
      </trkpt>
      <trkpt lat="44.96672" lon="5.40126">
        <ele>838.89</ele>
        <time>2014-09-05T06:50:46Z</time>
      </trkpt>
      <trkpt lat="44.96638" lon="5.40127">
        <ele>840.33</ele>
        <time>2014-09-05T06:50:56Z</time>
      </trkpt>
      <trkpt lat="44.96615" lon="5.40124">
        <ele>840.33</ele>
        <time>2014-09-05T06:51:02Z</time>
      </trkpt>
      <trkpt lat="44.96611" lon="5.40125">
        <ele>840.33</ele>
        <time>2014-09-05T06:51:03Z</time>
      </trkpt>
      <trkpt lat="44.96607" lon="5.40124">
        <ele>840.33</ele>
        <time>2014-09-05T06:51:04Z</time>
      </trkpt>
      <trkpt lat="44.96603" lon="5.40124">
        <ele>839.85</ele>
        <time>2014-09-05T06:51:05Z</time>
      </trkpt>
      <trkpt lat="44.966" lon="5.40123">
        <ele>840.33</ele>
        <time>2014-09-05T06:51:06Z</time>
      </trkpt>
      <trkpt lat="44.96563" lon="5.40106">
        <ele>841.29</ele>
        <time>2014-09-05T06:51:17Z</time>
      </trkpt>
      <trkpt lat="44.9655" lon="5.401">
        <ele>840.81</ele>
        <time>2014-09-05T06:51:21Z</time>
      </trkpt>
      <trkpt lat="44.9651" lon="5.40102">
        <ele>841.29</ele>
        <time>2014-09-05T06:51:32Z</time>
      </trkpt>
      <trkpt lat="44.96481" lon="5.40116">
        <ele>842.25</ele>
        <time>2014-09-05T06:51:41Z</time>
      </trkpt>
      <trkpt lat="44.96457" lon="5.4014">
        <ele>843.69</ele>
        <time>2014-09-05T06:51:50Z</time>
      </trkpt>
      <trkpt lat="44.96425" lon="5.40173">
        <ele>845.14</ele>
        <time>2014-09-05T06:52:03Z</time>
      </trkpt>
      <trkpt lat="44.96394" lon="5.40182">
        <ele>843.69</ele>
        <time>2014-09-05T06:52:11Z</time>
      </trkpt>
      <trkpt lat="44.96389" lon="5.40183">
        <ele>843.69</ele>
        <time>2014-09-05T06:52:12Z</time>
      </trkpt>
      <trkpt lat="44.96381" lon="5.40184">
        <ele>844.18</ele>
        <time>2014-09-05T06:52:14Z</time>
      </trkpt>
      <trkpt lat="44.96347" lon="5.40184">
        <ele>844.18</ele>
        <time>2014-09-05T06:52:23Z</time>
      </trkpt>
      <trkpt lat="44.96307" lon="5.40175">
        <ele>845.62</ele>
        <time>2014-09-05T06:52:35Z</time>
      </trkpt>
      <trkpt lat="44.96273" lon="5.40162">
        <ele>846.58</ele>
        <time>2014-09-05T06:52:46Z</time>
      </trkpt>
      <trkpt lat="44.96235" lon="5.40145">
        <ele>847.54</ele>
        <time>2014-09-05T06:52:58Z</time>
      </trkpt>
      <trkpt lat="44.96204" lon="5.40134">
        <ele>848.5</ele>
        <time>2014-09-05T06:53:08Z</time>
      </trkpt>
      <trkpt lat="44.96174" lon="5.40132">
        <ele>848.98</ele>
        <time>2014-09-05T06:53:17Z</time>
      </trkpt>
      <trkpt lat="44.96135" lon="5.4013">
        <ele>849.46</ele>
        <time>2014-09-05T06:53:28Z</time>
      </trkpt>
      <trkpt lat="44.96103" lon="5.40131">
        <ele>850.9</ele>
        <time>2014-09-05T06:53:38Z</time>
      </trkpt>
      <trkpt lat="44.96063" lon="5.40139">
        <ele>850.9</ele>
        <time>2014-09-05T06:53:50Z</time>
      </trkpt>
      <trkpt lat="44.96026" lon="5.40141">
        <ele>851.38</ele>
        <time>2014-09-05T06:54:01Z</time>
      </trkpt>
      <trkpt lat="44.96" lon="5.40138">
        <ele>852.35</ele>
        <time>2014-09-05T06:54:10Z</time>
      </trkpt>
      <trkpt lat="44.95967" lon="5.40136">
        <ele>853.31</ele>
        <time>2014-09-05T06:54:20Z</time>
      </trkpt>
      <trkpt lat="44.95934" lon="5.40136">
        <ele>853.79</ele>
        <time>2014-09-05T06:54:30Z</time>
      </trkpt>
      <trkpt lat="44.959" lon="5.40135">
        <ele>855.23</ele>
        <time>2014-09-05T06:54:40Z</time>
      </trkpt>
      <trkpt lat="44.95879" lon="5.40137">
        <ele>855.71</ele>
        <time>2014-09-05T06:54:48Z</time>
      </trkpt>
      <trkpt lat="44.95852" lon="5.40139">
        <ele>857.15</ele>
        <time>2014-09-05T06:54:58Z</time>
      </trkpt>
      <trkpt lat="44.9582" lon="5.4014">
        <ele>858.59</ele>
        <time>2014-09-05T06:55:09Z</time>
      </trkpt>
      <trkpt lat="44.95781" lon="5.40141">
        <ele>859.08</ele>
        <time>2014-09-05T06:55:21Z</time>
      </trkpt>
      <trkpt lat="44.95736" lon="5.40141">
        <ele>860.04</ele>
        <time>2014-09-05T06:55:35Z</time>
      </trkpt>
      <trkpt lat="44.95705" lon="5.40137">
        <ele>860.52</ele>
        <time>2014-09-05T06:55:46Z</time>
      </trkpt>
      <trkpt lat="44.9568" lon="5.40135">
        <ele>862.44</ele>
        <time>2014-09-05T06:55:58Z</time>
      </trkpt>
      <trkpt lat="44.95677" lon="5.40134">
        <ele>862.44</ele>
        <time>2014-09-05T06:56:00Z</time>
      </trkpt>
      <trkpt lat="44.95676" lon="5.40132">
        <ele>862.44</ele>
        <time>2014-09-05T06:56:07Z</time>
      </trkpt>
      <trkpt lat="44.95676" lon="5.40132">
        <ele>862.44</ele>
        <time>2014-09-05T06:56:08Z</time>
      </trkpt>
      <trkpt lat="44.95675" lon="5.40131">
        <ele>862.44</ele>
        <time>2014-09-05T06:56:16Z</time>
      </trkpt>
      <trkpt lat="44.95675" lon="5.40131">
        <ele>861.96</ele>
        <time>2014-09-05T06:56:43Z</time>
      </trkpt>
      <trkpt lat="44.95675" lon="5.40131">
        <ele>862.44</ele>
        <time>2014-09-05T06:57:15Z</time>
      </trkpt>
      <trkpt lat="44.95675" lon="5.40131">
        <ele>862.92</ele>
        <time>2014-09-05T06:57:45Z</time>
      </trkpt>
      <trkpt lat="44.95675" lon="5.40131">
        <ele>862.44</ele>
        <time>2014-09-05T06:58:15Z</time>
      </trkpt>
      <trkpt lat="44.95675" lon="5.40133">
        <ele>863.4</ele>
        <time>2014-09-05T06:58:29Z</time>
      </trkpt>
      <trkpt lat="44.95675" lon="5.40135">
        <ele>863.4</ele>
        <time>2014-09-05T06:58:34Z</time>
      </trkpt>
      <trkpt lat="44.95675" lon="5.40136">
        <ele>863.4</ele>
        <time>2014-09-05T06:58:35Z</time>
      </trkpt>
      <trkpt lat="44.95676" lon="5.40137">
        <ele>863.4</ele>
        <time>2014-09-05T06:58:36Z</time>
      </trkpt>
      <trkpt lat="44.95678" lon="5.40135">
        <ele>862.92</ele>
        <time>2014-09-05T06:58:37Z</time>
      </trkpt>
      <trkpt lat="44.95678" lon="5.40133">
        <ele>862.92</ele>
        <time>2014-09-05T06:58:38Z</time>
      </trkpt>
      <trkpt lat="44.95678" lon="5.40131">
        <ele>862.92</ele>
        <time>2014-09-05T06:58:39Z</time>
      </trkpt>
      <trkpt lat="44.95678" lon="5.40117">
        <ele>862.92</ele>
        <time>2014-09-05T06:58:46Z</time>
      </trkpt>
      <trkpt lat="44.9568" lon="5.40083">
        <ele>863.4</ele>
        <time>2014-09-05T06:58:55Z</time>
      </trkpt>
      <trkpt lat="44.95686" lon="5.40044">
        <ele>863.88</ele>
        <time>2014-09-05T06:59:06Z</time>
      </trkpt>
      <trkpt lat="44.95686" lon="5.40037">
        <ele>864.84</ele>
        <time>2014-09-05T06:59:09Z</time>
      </trkpt>
      <trkpt lat="44.9569" lon="5.40017">
        <ele>866.77</ele>
        <time>2014-09-05T06:59:17Z</time>
      </trkpt>
      <trkpt lat="44.95691" lon="5.40014">
        <ele>866.77</ele>
        <time>2014-09-05T06:59:19Z</time>
      </trkpt>
      <trkpt lat="44.95693" lon="5.40003">
        <ele>867.73</ele>
        <time>2014-09-05T06:59:24Z</time>
      </trkpt>
      <trkpt lat="44.95699" lon="5.39992">
        <ele>869.65</ele>
        <time>2014-09-05T06:59:31Z</time>
      </trkpt>
      <trkpt lat="44.95703" lon="5.39988">
        <ele>871.57</ele>
        <time>2014-09-05T06:59:40Z</time>
      </trkpt>
      <trkpt lat="44.95707" lon="5.39984">
        <ele>872.05</ele>
        <time>2014-09-05T06:59:48Z</time>
      </trkpt>
      <trkpt lat="44.95713" lon="5.3998">
        <ele>873.5</ele>
        <time>2014-09-05T06:59:58Z</time>
      </trkpt>
      <trkpt lat="44.95717" lon="5.39976">
        <ele>874.94</ele>
        <time>2014-09-05T07:00:07Z</time>
      </trkpt>
      <trkpt lat="44.95723" lon="5.3997">
        <ele>877.34</ele>
        <time>2014-09-05T07:00:19Z</time>
      </trkpt>
      <trkpt lat="44.95729" lon="5.39965">
        <ele>879.26</ele>
        <time>2014-09-05T07:00:28Z</time>
      </trkpt>
      <trkpt lat="44.95729" lon="5.39964">
        <ele>879.74</ele>
        <time>2014-09-05T07:00:36Z</time>
      </trkpt>
      <trkpt lat="44.95729" lon="5.39964">
        <ele>880.22</ele>
        <time>2014-09-05T07:00:44Z</time>
      </trkpt>
      <trkpt lat="44.95713" lon="5.39963">
        <ele>879.74</ele>
        <time>2014-09-05T07:00:53Z</time>
      </trkpt>
      <trkpt lat="44.95712" lon="5.39963">
        <ele>880.71</ele>
        <time>2014-09-05T07:00:54Z</time>
      </trkpt>
      <trkpt lat="44.95689" lon="5.39957">
        <ele>881.19</ele>
        <time>2014-09-05T07:01:03Z</time>
      </trkpt>
      <trkpt lat="44.95673" lon="5.39954">
        <ele>880.71</ele>
        <time>2014-09-05T07:01:09Z</time>
      </trkpt>
      <trkpt lat="44.95667" lon="5.39951">
        <ele>882.15</ele>
        <time>2014-09-05T07:01:12Z</time>
      </trkpt>
      <trkpt lat="44.95664" lon="5.39951">
        <ele>882.15</ele>
        <time>2014-09-05T07:01:18Z</time>
      </trkpt>
      <trkpt lat="44.95654" lon="5.39953">
        <ele>882.63</ele>
        <time>2014-09-05T07:01:23Z</time>
      </trkpt>
      <trkpt lat="44.95631" lon="5.39951">
        <ele>883.59</ele>
        <time>2014-09-05T07:01:33Z</time>
      </trkpt>
      <trkpt lat="44.95617" lon="5.39947">
        <ele>884.55</ele>
        <time>2014-09-05T07:01:41Z</time>
      </trkpt>
      <trkpt lat="44.95605" lon="5.39941">
        <ele>885.51</ele>
        <time>2014-09-05T07:01:49Z</time>
      </trkpt>
      <trkpt lat="44.95598" lon="5.39937">
        <ele>886.95</ele>
        <time>2014-09-05T07:01:54Z</time>
      </trkpt>
      <trkpt lat="44.95572" lon="5.39933">
        <ele>885.99</ele>
        <time>2014-09-05T07:02:03Z</time>
      </trkpt>
      <trkpt lat="44.95552" lon="5.39924">
        <ele>886.95</ele>
        <time>2014-09-05T07:02:12Z</time>
      </trkpt>
      <trkpt lat="44.95532" lon="5.39912">
        <ele>888.4</ele>
        <time>2014-09-05T07:02:21Z</time>
      </trkpt>
      <trkpt lat="44.95507" lon="5.39898">
        <ele>888.4</ele>
        <time>2014-09-05T07:02:31Z</time>
      </trkpt>
      <trkpt lat="44.95485" lon="5.39881">
        <ele>888.88</ele>
        <time>2014-09-05T07:02:41Z</time>
      </trkpt>
      <trkpt lat="44.95467" lon="5.39866">
        <ele>889.84</ele>
        <time>2014-09-05T07:02:52Z</time>
      </trkpt>
      <trkpt lat="44.95455" lon="5.39858">
        <ele>890.32</ele>
        <time>2014-09-05T07:03:00Z</time>
      </trkpt>
      <trkpt lat="44.95451" lon="5.39857">
        <ele>890.32</ele>
        <time>2014-09-05T07:03:02Z</time>
      </trkpt>
      <trkpt lat="44.95437" lon="5.3985">
        <ele>890.8</ele>
        <time>2014-09-05T07:03:10Z</time>
      </trkpt>
      <trkpt lat="44.95414" lon="5.39847">
        <ele>891.28</ele>
        <time>2014-09-05T07:03:19Z</time>
      </trkpt>
      <trkpt lat="44.95411" lon="5.39846">
        <ele>891.76</ele>
        <time>2014-09-05T07:03:21Z</time>
      </trkpt>
      <trkpt lat="44.95401" lon="5.39847">
        <ele>891.76</ele>
        <time>2014-09-05T07:03:28Z</time>
      </trkpt>
      <trkpt lat="44.95375" lon="5.39847">
        <ele>893.68</ele>
        <time>2014-09-05T07:03:39Z</time>
      </trkpt>
      <trkpt lat="44.95361" lon="5.39846">
        <ele>894.64</ele>
        <time>2014-09-05T07:03:45Z</time>
      </trkpt>
      <trkpt lat="44.95347" lon="5.39843">
        <ele>896.09</ele>
        <time>2014-09-05T07:03:53Z</time>
      </trkpt>
      <trkpt lat="44.95337" lon="5.3984">
        <ele>895.12</ele>
        <time>2014-09-05T07:04:00Z</time>
      </trkpt>
      <trkpt lat="44.95332" lon="5.39837">
        <ele>896.57</ele>
        <time>2014-09-05T07:04:10Z</time>
      </trkpt>
      <trkpt lat="44.95323" lon="5.39834">
        <ele>897.05</ele>
        <time>2014-09-05T07:04:20Z</time>
      </trkpt>
      <trkpt lat="44.95315" lon="5.39828">
        <ele>898.97</ele>
        <time>2014-09-05T07:04:29Z</time>
      </trkpt>
      <trkpt lat="44.95309" lon="5.39827">
        <ele>898.97</ele>
        <time>2014-09-05T07:04:39Z</time>
      </trkpt>
      <trkpt lat="44.95298" lon="5.39824">
        <ele>899.93</ele>
        <time>2014-09-05T07:04:47Z</time>
      </trkpt>
      <trkpt lat="44.95281" lon="5.39822">
        <ele>900.89</ele>
        <time>2014-09-05T07:04:55Z</time>
      </trkpt>
      <trkpt lat="44.9528" lon="5.3982">
        <ele>901.37</ele>
        <time>2014-09-05T07:05:05Z</time>
      </trkpt>
      <trkpt lat="44.95274" lon="5.39818">
        <ele>903.78</ele>
        <time>2014-09-05T07:05:16Z</time>
      </trkpt>
      <trkpt lat="44.95268" lon="5.39817">
        <ele>905.7</ele>
        <time>2014-09-05T07:05:22Z</time>
      </trkpt>
      <trkpt lat="44.95262" lon="5.39817">
        <ele>906.66</ele>
        <time>2014-09-05T07:05:31Z</time>
      </trkpt>
      <trkpt lat="44.9526" lon="5.39818">
        <ele>907.14</ele>
        <time>2014-09-05T07:05:38Z</time>
      </trkpt>
      <trkpt lat="44.95253" lon="5.39821">
        <ele>907.62</ele>
        <time>2014-09-05T07:05:50Z</time>
      </trkpt>
      <trkpt lat="44.95234" lon="5.39831">
        <ele>907.62</ele>
        <time>2014-09-05T07:06:00Z</time>
      </trkpt>
      <trkpt lat="44.95215" lon="5.3984">
        <ele>908.58</ele>
        <time>2014-09-05T07:06:09Z</time>
      </trkpt>
      <trkpt lat="44.95202" lon="5.39843">
        <ele>908.58</ele>
        <time>2014-09-05T07:06:14Z</time>
      </trkpt>
      <trkpt lat="44.95183" lon="5.39846">
        <ele>908.58</ele>
        <time>2014-09-05T07:06:23Z</time>
      </trkpt>
      <trkpt lat="44.95155" lon="5.3984">
        <ele>908.58</ele>
        <time>2014-09-05T07:06:32Z</time>
      </trkpt>
      <trkpt lat="44.95143" lon="5.3984">
        <ele>907.14</ele>
        <time>2014-09-05T07:06:35Z</time>
      </trkpt>
      <trkpt lat="44.95139" lon="5.39838">
        <ele>907.62</ele>
        <time>2014-09-05T07:06:36Z</time>
      </trkpt>
      <trkpt lat="44.95135" lon="5.39835">
        <ele>907.62</ele>
        <time>2014-09-05T07:06:37Z</time>
      </trkpt>
      <trkpt lat="44.95132" lon="5.39831">
        <ele>907.62</ele>
        <time>2014-09-05T07:06:38Z</time>
      </trkpt>
      <trkpt lat="44.95129" lon="5.39827">
        <ele>907.62</ele>
        <time>2014-09-05T07:06:39Z</time>
      </trkpt>
      <trkpt lat="44.95128" lon="5.39824">
        <ele>907.14</ele>
        <time>2014-09-05T07:06:40Z</time>
      </trkpt>
      <trkpt lat="44.95125" lon="5.39821">
        <ele>907.14</ele>
        <time>2014-09-05T07:06:41Z</time>
      </trkpt>
      <trkpt lat="44.95123" lon="5.39818">
        <ele>908.1</ele>
        <time>2014-09-05T07:06:42Z</time>
      </trkpt>
      <trkpt lat="44.95122" lon="5.39817">
        <ele>907.14</ele>
        <time>2014-09-05T07:06:43Z</time>
      </trkpt>
      <trkpt lat="44.9512" lon="5.39815">
        <ele>907.14</ele>
        <time>2014-09-05T07:06:50Z</time>
      </trkpt>
      <trkpt lat="44.9512" lon="5.39813">
        <ele>908.1</ele>
        <time>2014-09-05T07:07:01Z</time>
      </trkpt>
      <trkpt lat="44.95124" lon="5.39813">
        <ele>908.1</ele>
        <time>2014-09-05T07:07:10Z</time>
      </trkpt>
      <trkpt lat="44.95125" lon="5.39807">
        <ele>910.99</ele>
        <time>2014-09-05T07:07:19Z</time>
      </trkpt>
      <trkpt lat="44.95124" lon="5.398">
        <ele>911.95</ele>
        <time>2014-09-05T07:07:25Z</time>
      </trkpt>
      <trkpt lat="44.95124" lon="5.39798">
        <ele>911.95</ele>
        <time>2014-09-05T07:07:26Z</time>
      </trkpt>
      <trkpt lat="44.95121" lon="5.3979">
        <ele>912.43</ele>
        <time>2014-09-05T07:07:34Z</time>
      </trkpt>
      <trkpt lat="44.95121" lon="5.39784">
        <ele>913.39</ele>
        <time>2014-09-05T07:07:42Z</time>
      </trkpt>
      <trkpt lat="44.95121" lon="5.39779">
        <ele>913.87</ele>
        <time>2014-09-05T07:07:46Z</time>
      </trkpt>
      <trkpt lat="44.95118" lon="5.39764">
        <ele>914.83</ele>
        <time>2014-09-05T07:07:56Z</time>
      </trkpt>
      <trkpt lat="44.95117" lon="5.39751">
        <ele>915.79</ele>
        <time>2014-09-05T07:08:05Z</time>
      </trkpt>
      <trkpt lat="44.95115" lon="5.39735">
        <ele>917.24</ele>
        <time>2014-09-05T07:08:17Z</time>
      </trkpt>
      <trkpt lat="44.95114" lon="5.39731">
        <ele>916.27</ele>
        <time>2014-09-05T07:08:24Z</time>
      </trkpt>
      <trkpt lat="44.95113" lon="5.39727">
        <ele>919.64</ele>
        <time>2014-09-05T07:08:30Z</time>
      </trkpt>
      <trkpt lat="44.95113" lon="5.39724">
        <ele>919.16</ele>
        <time>2014-09-05T07:08:33Z</time>
      </trkpt>
      <trkpt lat="44.95111" lon="5.39718">
        <ele>920.6</ele>
        <time>2014-09-05T07:08:40Z</time>
      </trkpt>
      <trkpt lat="44.9511" lon="5.39715">
        <ele>920.12</ele>
        <time>2014-09-05T07:08:50Z</time>
      </trkpt>
      <trkpt lat="44.95109" lon="5.39714">
        <ele>919.64</ele>
        <time>2014-09-05T07:09:06Z</time>
      </trkpt>
      <trkpt lat="44.95109" lon="5.39714">
        <ele>919.64</ele>
        <time>2014-09-05T07:09:08Z</time>
      </trkpt>
      <trkpt lat="44.95108" lon="5.39713">
        <ele>920.12</ele>
        <time>2014-09-05T07:09:09Z</time>
      </trkpt>
      <trkpt lat="44.95107" lon="5.39711">
        <ele>919.64</ele>
        <time>2014-09-05T07:09:10Z</time>
      </trkpt>
      <trkpt lat="44.95106" lon="5.39709">
        <ele>919.64</ele>
        <time>2014-09-05T07:09:11Z</time>
      </trkpt>
      <trkpt lat="44.95104" lon="5.39708">
        <ele>919.64</ele>
        <time>2014-09-05T07:09:12Z</time>
      </trkpt>
      <trkpt lat="44.95102" lon="5.39707">
        <ele>919.64</ele>
        <time>2014-09-05T07:09:13Z</time>
      </trkpt>
      <trkpt lat="44.951" lon="5.39705">
        <ele>919.64</ele>
        <time>2014-09-05T07:09:14Z</time>
      </trkpt>
      <trkpt lat="44.95071" lon="5.39679">
        <ele>917.72</ele>
        <time>2014-09-05T07:09:24Z</time>
      </trkpt>
      <trkpt lat="44.95064" lon="5.39673">
        <ele>917.72</ele>
        <time>2014-09-05T07:09:26Z</time>
      </trkpt>
      <trkpt lat="44.95061" lon="5.3967">
        <ele>917.72</ele>
        <time>2014-09-05T07:09:27Z</time>
      </trkpt>
      <trkpt lat="44.95057" lon="5.39666">
        <ele>917.24</ele>
        <time>2014-09-05T07:09:28Z</time>
      </trkpt>
      <trkpt lat="44.95054" lon="5.39662">
        <ele>917.24</ele>
        <time>2014-09-05T07:09:29Z</time>
      </trkpt>
      <trkpt lat="44.95052" lon="5.39657">
        <ele>917.72</ele>
        <time>2014-09-05T07:09:30Z</time>
      </trkpt>
      <trkpt lat="44.95049" lon="5.39652">
        <ele>916.75</ele>
        <time>2014-09-05T07:09:31Z</time>
      </trkpt>
      <trkpt lat="44.95047" lon="5.39648">
        <ele>916.75</ele>
        <time>2014-09-05T07:09:32Z</time>
      </trkpt>
      <trkpt lat="44.95044" lon="5.39644">
        <ele>916.75</ele>
        <time>2014-09-05T07:09:33Z</time>
      </trkpt>
      <trkpt lat="44.95038" lon="5.39633">
        <ele>915.79</ele>
        <time>2014-09-05T07:09:35Z</time>
      </trkpt>
      <trkpt lat="44.95036" lon="5.39626">
        <ele>915.79</ele>
        <time>2014-09-05T07:09:36Z</time>
      </trkpt>
      <trkpt lat="44.95036" lon="5.3962">
        <ele>915.79</ele>
        <time>2014-09-05T07:09:37Z</time>
      </trkpt>
      <trkpt lat="44.95037" lon="5.39616">
        <ele>916.27</ele>
        <time>2014-09-05T07:09:38Z</time>
      </trkpt>
      <trkpt lat="44.95038" lon="5.39612">
        <ele>916.75</ele>
        <time>2014-09-05T07:09:39Z</time>
      </trkpt>
      <trkpt lat="44.95038" lon="5.39609">
        <ele>917.24</ele>
        <time>2014-09-05T07:09:40Z</time>
      </trkpt>
      <trkpt lat="44.95038" lon="5.39606">
        <ele>917.72</ele>
        <time>2014-09-05T07:09:41Z</time>
      </trkpt>
      <trkpt lat="44.95038" lon="5.39604">
        <ele>917.72</ele>
        <time>2014-09-05T07:09:42Z</time>
      </trkpt>
      <trkpt lat="44.95039" lon="5.39579">
        <ele>919.64</ele>
        <time>2014-09-05T07:09:52Z</time>
      </trkpt>
      <trkpt lat="44.95041" lon="5.39561">
        <ele>920.6</ele>
        <time>2014-09-05T07:10:01Z</time>
      </trkpt>
      <trkpt lat="44.95046" lon="5.39538">
        <ele>922.52</ele>
        <time>2014-09-05T07:10:10Z</time>
      </trkpt>
      <trkpt lat="44.95048" lon="5.39531">
        <ele>922.52</ele>
        <time>2014-09-05T07:10:13Z</time>
      </trkpt>
      <trkpt lat="44.95048" lon="5.39528">
        <ele>923</ele>
        <time>2014-09-05T07:10:14Z</time>
      </trkpt>
      <trkpt lat="44.95049" lon="5.39526">
        <ele>922.52</ele>
        <time>2014-09-05T07:10:15Z</time>
      </trkpt>
      <trkpt lat="44.95049" lon="5.39524">
        <ele>923</ele>
        <time>2014-09-05T07:10:16Z</time>
      </trkpt>
      <trkpt lat="44.9505" lon="5.39521">
        <ele>923</ele>
        <time>2014-09-05T07:10:17Z</time>
      </trkpt>
      <trkpt lat="44.95051" lon="5.39517">
        <ele>923</ele>
        <time>2014-09-05T07:10:19Z</time>
      </trkpt>
      <trkpt lat="44.95051" lon="5.39515">
        <ele>923.96</ele>
        <time>2014-09-05T07:10:20Z</time>
      </trkpt>
      <trkpt lat="44.95051" lon="5.39512">
        <ele>923.96</ele>
        <time>2014-09-05T07:10:21Z</time>
      </trkpt>
      <trkpt lat="44.95052" lon="5.3951">
        <ele>923.48</ele>
        <time>2014-09-05T07:10:22Z</time>
      </trkpt>
      <trkpt lat="44.95052" lon="5.39507">
        <ele>923.48</ele>
        <time>2014-09-05T07:10:23Z</time>
      </trkpt>
      <trkpt lat="44.95053" lon="5.39504">
        <ele>923.96</ele>
        <time>2014-09-05T07:10:24Z</time>
      </trkpt>
      <trkpt lat="44.95054" lon="5.39501">
        <ele>923.96</ele>
        <time>2014-09-05T07:10:25Z</time>
      </trkpt>
      <trkpt lat="44.95055" lon="5.39498">
        <ele>923.96</ele>
        <time>2014-09-05T07:10:26Z</time>
      </trkpt>
      <trkpt lat="44.95056" lon="5.39496">
        <ele>923.96</ele>
        <time>2014-09-05T07:10:27Z</time>
      </trkpt>
      <trkpt lat="44.95058" lon="5.39495">
        <ele>923.96</ele>
        <time>2014-09-05T07:10:28Z</time>
      </trkpt>
      <trkpt lat="44.95059" lon="5.39493">
        <ele>923.96</ele>
        <time>2014-09-05T07:10:29Z</time>
      </trkpt>
      <trkpt lat="44.95061" lon="5.3949">
        <ele>923.96</ele>
        <time>2014-09-05T07:10:30Z</time>
      </trkpt>
      <trkpt lat="44.95062" lon="5.39488">
        <ele>923.96</ele>
        <time>2014-09-05T07:10:31Z</time>
      </trkpt>
      <trkpt lat="44.95063" lon="5.39486">
        <ele>923.96</ele>
        <time>2014-09-05T07:10:32Z</time>
      </trkpt>
      <trkpt lat="44.95074" lon="5.3946">
        <ele>925.89</ele>
        <time>2014-09-05T07:10:43Z</time>
      </trkpt>
      <trkpt lat="44.9508" lon="5.39437">
        <ele>926.85</ele>
        <time>2014-09-05T07:10:53Z</time>
      </trkpt>
      <trkpt lat="44.95084" lon="5.39411">
        <ele>928.29</ele>
        <time>2014-09-05T07:11:04Z</time>
      </trkpt>
      <trkpt lat="44.95088" lon="5.39376">
        <ele>927.81</ele>
        <time>2014-09-05T07:11:14Z</time>
      </trkpt>
      <trkpt lat="44.9509" lon="5.39373">
        <ele>927.81</ele>
        <time>2014-09-05T07:11:15Z</time>
      </trkpt>
      <trkpt lat="44.95092" lon="5.3937">
        <ele>928.29</ele>
        <time>2014-09-05T07:11:16Z</time>
      </trkpt>
      <trkpt lat="44.95105" lon="5.39348">
        <ele>927.81</ele>
        <time>2014-09-05T07:11:24Z</time>
      </trkpt>
      <trkpt lat="44.95106" lon="5.39346">
        <ele>928.29</ele>
        <time>2014-09-05T07:11:25Z</time>
      </trkpt>
      <trkpt lat="44.95107" lon="5.39343">
        <ele>927.81</ele>
        <time>2014-09-05T07:11:26Z</time>
      </trkpt>
      <trkpt lat="44.95108" lon="5.39339">
        <ele>927.81</ele>
        <time>2014-09-05T07:11:27Z</time>
      </trkpt>
      <trkpt lat="44.95109" lon="5.39336">
        <ele>927.81</ele>
        <time>2014-09-05T07:11:28Z</time>
      </trkpt>
      <trkpt lat="44.95111" lon="5.39332">
        <ele>927.81</ele>
        <time>2014-09-05T07:11:29Z</time>
      </trkpt>
      <trkpt lat="44.95111" lon="5.39329">
        <ele>927.81</ele>
        <time>2014-09-05T07:11:30Z</time>
      </trkpt>
      <trkpt lat="44.95112" lon="5.39325">
        <ele>928.29</ele>
        <time>2014-09-05T07:11:31Z</time>
      </trkpt>
      <trkpt lat="44.95113" lon="5.39321">
        <ele>928.29</ele>
        <time>2014-09-05T07:11:32Z</time>
      </trkpt>
      <trkpt lat="44.95114" lon="5.39318">
        <ele>927.81</ele>
        <time>2014-09-05T07:11:33Z</time>
      </trkpt>
      <trkpt lat="44.95115" lon="5.39315">
        <ele>927.81</ele>
        <time>2014-09-05T07:11:34Z</time>
      </trkpt>
      <trkpt lat="44.95115" lon="5.39313">
        <ele>928.29</ele>
        <time>2014-09-05T07:11:35Z</time>
      </trkpt>
      <trkpt lat="44.95115" lon="5.3931">
        <ele>928.29</ele>
        <time>2014-09-05T07:11:36Z</time>
      </trkpt>
      <trkpt lat="44.95117" lon="5.39305">
        <ele>928.29</ele>
        <time>2014-09-05T07:11:38Z</time>
      </trkpt>
      <trkpt lat="44.95118" lon="5.39303">
        <ele>928.29</ele>
        <time>2014-09-05T07:11:39Z</time>
      </trkpt>
      <trkpt lat="44.95119" lon="5.39301">
        <ele>928.29</ele>
        <time>2014-09-05T07:11:40Z</time>
      </trkpt>
      <trkpt lat="44.9512" lon="5.39297">
        <ele>928.29</ele>
        <time>2014-09-05T07:11:41Z</time>
      </trkpt>
      <trkpt lat="44.9512" lon="5.39293">
        <ele>927.81</ele>
        <time>2014-09-05T07:11:42Z</time>
      </trkpt>
      <trkpt lat="44.95121" lon="5.39288">
        <ele>927.33</ele>
        <time>2014-09-05T07:11:43Z</time>
      </trkpt>
      <trkpt lat="44.9512" lon="5.39283">
        <ele>927.33</ele>
        <time>2014-09-05T07:11:44Z</time>
      </trkpt>
      <trkpt lat="44.95122" lon="5.39237">
        <ele>929.25</ele>
        <time>2014-09-05T07:11:54Z</time>
      </trkpt>
      <trkpt lat="44.95118" lon="5.39203">
        <ele>928.77</ele>
        <time>2014-09-05T07:12:02Z</time>
      </trkpt>
      <trkpt lat="44.95112" lon="5.39149">
        <ele>928.77</ele>
        <time>2014-09-05T07:12:12Z</time>
      </trkpt>
      <trkpt lat="44.95102" lon="5.39116">
        <ele>930.69</ele>
        <time>2014-09-05T07:12:22Z</time>
      </trkpt>
      <trkpt lat="44.95087" lon="5.39092">
        <ele>933.1</ele>
        <time>2014-09-05T07:12:34Z</time>
      </trkpt>
      <trkpt lat="44.95078" lon="5.39073">
        <ele>934.06</ele>
        <time>2014-09-05T07:12:43Z</time>
      </trkpt>
      <trkpt lat="44.95077" lon="5.39071">
        <ele>934.06</ele>
        <time>2014-09-05T07:12:44Z</time>
      </trkpt>
      <trkpt lat="44.95075" lon="5.39069">
        <ele>934.54</ele>
        <time>2014-09-05T07:12:46Z</time>
      </trkpt>
      <trkpt lat="44.95073" lon="5.39068">
        <ele>935.02</ele>
        <time>2014-09-05T07:12:47Z</time>
      </trkpt>
      <trkpt lat="44.95067" lon="5.39062">
        <ele>935.98</ele>
        <time>2014-09-05T07:12:52Z</time>
      </trkpt>
      <trkpt lat="44.95066" lon="5.39062">
        <ele>935.98</ele>
        <time>2014-09-05T07:12:53Z</time>
      </trkpt>
      <trkpt lat="44.95065" lon="5.39064">
        <ele>935.98</ele>
        <time>2014-09-05T07:12:54Z</time>
      </trkpt>
      <trkpt lat="44.95054" lon="5.39071">
        <ele>937.42</ele>
        <time>2014-09-05T07:13:03Z</time>
      </trkpt>
      <trkpt lat="44.95046" lon="5.39071">
        <ele>937.42</ele>
        <time>2014-09-05T07:13:07Z</time>
      </trkpt>
      <trkpt lat="44.95044" lon="5.39071">
        <ele>937.42</ele>
        <time>2014-09-05T07:13:08Z</time>
      </trkpt>
      <trkpt lat="44.95028" lon="5.39079">
        <ele>938.38</ele>
        <time>2014-09-05T07:13:16Z</time>
      </trkpt>
      <trkpt lat="44.95012" lon="5.39089">
        <ele>938.86</ele>
        <time>2014-09-05T07:13:25Z</time>
      </trkpt>
      <trkpt lat="44.95" lon="5.39099">
        <ele>939.35</ele>
        <time>2014-09-05T07:13:31Z</time>
      </trkpt>
      <trkpt lat="44.94999" lon="5.391">
        <ele>939.83</ele>
        <time>2014-09-05T07:13:32Z</time>
      </trkpt>
      <trkpt lat="44.94997" lon="5.39101">
        <ele>939.83</ele>
        <time>2014-09-05T07:13:33Z</time>
      </trkpt>
      <trkpt lat="44.94996" lon="5.39102">
        <ele>939.83</ele>
        <time>2014-09-05T07:13:34Z</time>
      </trkpt>
      <trkpt lat="44.94994" lon="5.39102">
        <ele>939.83</ele>
        <time>2014-09-05T07:13:35Z</time>
      </trkpt>
      <trkpt lat="44.94992" lon="5.39103">
        <ele>939.83</ele>
        <time>2014-09-05T07:13:36Z</time>
      </trkpt>
      <trkpt lat="44.94985" lon="5.39103">
        <ele>940.79</ele>
        <time>2014-09-05T07:13:41Z</time>
      </trkpt>
      <trkpt lat="44.94982" lon="5.39105">
        <ele>940.79</ele>
        <time>2014-09-05T07:13:43Z</time>
      </trkpt>
      <trkpt lat="44.9498" lon="5.39105">
        <ele>940.31</ele>
        <time>2014-09-05T07:13:44Z</time>
      </trkpt>
      <trkpt lat="44.94978" lon="5.39105">
        <ele>940.79</ele>
        <time>2014-09-05T07:13:45Z</time>
      </trkpt>
      <trkpt lat="44.94976" lon="5.39106">
        <ele>940.79</ele>
        <time>2014-09-05T07:13:46Z</time>
      </trkpt>
      <trkpt lat="44.94974" lon="5.39107">
        <ele>940.31</ele>
        <time>2014-09-05T07:13:47Z</time>
      </trkpt>
      <trkpt lat="44.94963" lon="5.39125">
        <ele>941.27</ele>
        <time>2014-09-05T07:13:56Z</time>
      </trkpt>
      <trkpt lat="44.94961" lon="5.39131">
        <ele>942.23</ele>
        <time>2014-09-05T07:13:59Z</time>
      </trkpt>
      <trkpt lat="44.94962" lon="5.39135">
        <ele>942.23</ele>
        <time>2014-09-05T07:14:00Z</time>
      </trkpt>
      <trkpt lat="44.94964" lon="5.39141">
        <ele>942.23</ele>
        <time>2014-09-05T07:14:02Z</time>
      </trkpt>
      <trkpt lat="44.94967" lon="5.39157">
        <ele>942.71</ele>
        <time>2014-09-05T07:14:07Z</time>
      </trkpt>
      <trkpt lat="44.94954" lon="5.39175">
        <ele>944.63</ele>
        <time>2014-09-05T07:14:15Z</time>
      </trkpt>
      <trkpt lat="44.94948" lon="5.39185">
        <ele>945.11</ele>
        <time>2014-09-05T07:14:19Z</time>
      </trkpt>
      <trkpt lat="44.94937" lon="5.39197">
        <ele>946.56</ele>
        <time>2014-09-05T07:14:27Z</time>
      </trkpt>
      <trkpt lat="44.94923" lon="5.39211">
        <ele>947.52</ele>
        <time>2014-09-05T07:14:36Z</time>
      </trkpt>
      <trkpt lat="44.94918" lon="5.39243">
        <ele>946.56</ele>
        <time>2014-09-05T07:14:45Z</time>
      </trkpt>
      <trkpt lat="44.94899" lon="5.39291">
        <ele>946.07</ele>
        <time>2014-09-05T07:14:56Z</time>
      </trkpt>
      <trkpt lat="44.94891" lon="5.39321">
        <ele>946.07</ele>
        <time>2014-09-05T07:15:04Z</time>
      </trkpt>
      <trkpt lat="44.94885" lon="5.39333">
        <ele>945.59</ele>
        <time>2014-09-05T07:15:09Z</time>
      </trkpt>
      <trkpt lat="44.94883" lon="5.39338">
        <ele>946.07</ele>
        <time>2014-09-05T07:15:11Z</time>
      </trkpt>
      <trkpt lat="44.94869" lon="5.39366">
        <ele>947.52</ele>
        <time>2014-09-05T07:15:20Z</time>
      </trkpt>
      <trkpt lat="44.94852" lon="5.39407">
        <ele>947.04</ele>
        <time>2014-09-05T07:15:30Z</time>
      </trkpt>
      <trkpt lat="44.94844" lon="5.39424">
        <ele>946.56</ele>
        <time>2014-09-05T07:15:35Z</time>
      </trkpt>
      <trkpt lat="44.94846" lon="5.39426">
        <ele>946.56</ele>
        <time>2014-09-05T07:15:38Z</time>
      </trkpt>
      <trkpt lat="44.94844" lon="5.39424">
        <ele>946.56</ele>
        <time>2014-09-05T07:15:45Z</time>
      </trkpt>
      <trkpt lat="44.94851" lon="5.3945">
        <ele>944.63</ele>
        <time>2014-09-05T07:15:51Z</time>
      </trkpt>
      <trkpt lat="44.94853" lon="5.39464">
        <ele>943.67</ele>
        <time>2014-09-05T07:15:54Z</time>
      </trkpt>
      <trkpt lat="44.94852" lon="5.39467">
        <ele>943.67</ele>
        <time>2014-09-05T07:15:55Z</time>
      </trkpt>
      <trkpt lat="44.94851" lon="5.39467">
        <ele>943.67</ele>
        <time>2014-09-05T07:15:56Z</time>
      </trkpt>
      <trkpt lat="44.94849" lon="5.39468">
        <ele>943.67</ele>
        <time>2014-09-05T07:15:57Z</time>
      </trkpt>
      <trkpt lat="44.94847" lon="5.39467">
        <ele>943.19</ele>
        <time>2014-09-05T07:15:58Z</time>
      </trkpt>
      <trkpt lat="44.94845" lon="5.39466">
        <ele>943.67</ele>
        <time>2014-09-05T07:15:59Z</time>
      </trkpt>
      <trkpt lat="44.94843" lon="5.39465">
        <ele>943.67</ele>
        <time>2014-09-05T07:16:00Z</time>
      </trkpt>
      <trkpt lat="44.94841" lon="5.39464">
        <ele>943.67</ele>
        <time>2014-09-05T07:16:01Z</time>
      </trkpt>
      <trkpt lat="44.94839" lon="5.39464">
        <ele>944.15</ele>
        <time>2014-09-05T07:16:02Z</time>
      </trkpt>
      <trkpt lat="44.94836" lon="5.39465">
        <ele>943.67</ele>
        <time>2014-09-05T07:16:03Z</time>
      </trkpt>
      <trkpt lat="44.94811" lon="5.39484">
        <ele>942.71</ele>
        <time>2014-09-05T07:16:12Z</time>
      </trkpt>
      <trkpt lat="44.94785" lon="5.3951">
        <ele>941.75</ele>
        <time>2014-09-05T07:16:21Z</time>
      </trkpt>
      <trkpt lat="44.94782" lon="5.39511">
        <ele>941.75</ele>
        <time>2014-09-05T07:16:22Z</time>
      </trkpt>
      <trkpt lat="44.9478" lon="5.39511">
        <ele>941.75</ele>
        <time>2014-09-05T07:16:23Z</time>
      </trkpt>
      <trkpt lat="44.94778" lon="5.39509">
        <ele>942.71</ele>
        <time>2014-09-05T07:16:24Z</time>
      </trkpt>
      <trkpt lat="44.94777" lon="5.39507">
        <ele>942.71</ele>
        <time>2014-09-05T07:16:25Z</time>
      </trkpt>
      <trkpt lat="44.94775" lon="5.39505">
        <ele>942.71</ele>
        <time>2014-09-05T07:16:26Z</time>
      </trkpt>
      <trkpt lat="44.94773" lon="5.39503">
        <ele>943.19</ele>
        <time>2014-09-05T07:16:27Z</time>
      </trkpt>
      <trkpt lat="44.94769" lon="5.39502">
        <ele>944.15</ele>
        <time>2014-09-05T07:16:30Z</time>
      </trkpt>
      <trkpt lat="44.94767" lon="5.39502">
        <ele>944.15</ele>
        <time>2014-09-05T07:16:31Z</time>
      </trkpt>
      <trkpt lat="44.9474" lon="5.39513">
        <ele>943.67</ele>
        <time>2014-09-05T07:16:41Z</time>
      </trkpt>
      <trkpt lat="44.94712" lon="5.39519">
        <ele>943.19</ele>
        <time>2014-09-05T07:16:51Z</time>
      </trkpt>
      <trkpt lat="44.94706" lon="5.39523">
        <ele>943.67</ele>
        <time>2014-09-05T07:16:56Z</time>
      </trkpt>
      <trkpt lat="44.94704" lon="5.39523">
        <ele>944.15</ele>
        <time>2014-09-05T07:16:57Z</time>
      </trkpt>
      <trkpt lat="44.94703" lon="5.39523">
        <ele>943.67</ele>
        <time>2014-09-05T07:16:58Z</time>
      </trkpt>
      <trkpt lat="44.94703" lon="5.39524">
        <ele>943.67</ele>
        <time>2014-09-05T07:17:07Z</time>
      </trkpt>
      <trkpt lat="44.94702" lon="5.39524">
        <ele>943.67</ele>
        <time>2014-09-05T07:17:26Z</time>
      </trkpt>
      <trkpt lat="44.94701" lon="5.39525">
        <ele>943.67</ele>
        <time>2014-09-05T07:17:27Z</time>
      </trkpt>
      <trkpt lat="44.94699" lon="5.39525">
        <ele>943.67</ele>
        <time>2014-09-05T07:17:28Z</time>
      </trkpt>
      <trkpt lat="44.94698" lon="5.39527">
        <ele>943.67</ele>
        <time>2014-09-05T07:17:29Z</time>
      </trkpt>
      <trkpt lat="44.94696" lon="5.39528">
        <ele>943.19</ele>
        <time>2014-09-05T07:17:30Z</time>
      </trkpt>
      <trkpt lat="44.94694" lon="5.3953">
        <ele>943.67</ele>
        <time>2014-09-05T07:17:31Z</time>
      </trkpt>
      <trkpt lat="44.94676" lon="5.39549">
        <ele>943.67</ele>
        <time>2014-09-05T07:17:41Z</time>
      </trkpt>
      <trkpt lat="44.94674" lon="5.39548">
        <ele>944.15</ele>
        <time>2014-09-05T07:17:42Z</time>
      </trkpt>
      <trkpt lat="44.94672" lon="5.39546">
        <ele>943.67</ele>
        <time>2014-09-05T07:17:43Z</time>
      </trkpt>
      <trkpt lat="44.9467" lon="5.39545">
        <ele>943.67</ele>
        <time>2014-09-05T07:17:44Z</time>
      </trkpt>
      <trkpt lat="44.94667" lon="5.39543">
        <ele>943.67</ele>
        <time>2014-09-05T07:17:45Z</time>
      </trkpt>
      <trkpt lat="44.94664" lon="5.39541">
        <ele>944.15</ele>
        <time>2014-09-05T07:17:46Z</time>
      </trkpt>
      <trkpt lat="44.94626" lon="5.39507">
        <ele>941.75</ele>
        <time>2014-09-05T07:17:57Z</time>
      </trkpt>
      <trkpt lat="44.94611" lon="5.3949">
        <ele>942.23</ele>
        <time>2014-09-05T07:18:01Z</time>
      </trkpt>
      <trkpt lat="44.94591" lon="5.39457">
        <ele>943.19</ele>
        <time>2014-09-05T07:18:10Z</time>
      </trkpt>
      <trkpt lat="44.94578" lon="5.39444">
        <ele>944.63</ele>
        <time>2014-09-05T07:18:18Z</time>
      </trkpt>
      <trkpt lat="44.94576" lon="5.39442">
        <ele>945.11</ele>
        <time>2014-09-05T07:18:19Z</time>
      </trkpt>
      <trkpt lat="44.94574" lon="5.39441">
        <ele>945.11</ele>
        <time>2014-09-05T07:18:20Z</time>
      </trkpt>
      <trkpt lat="44.94572" lon="5.3944">
        <ele>945.11</ele>
        <time>2014-09-05T07:18:21Z</time>
      </trkpt>
      <trkpt lat="44.94571" lon="5.39438">
        <ele>945.11</ele>
        <time>2014-09-05T07:18:22Z</time>
      </trkpt>
      <trkpt lat="44.94569" lon="5.39437">
        <ele>945.59</ele>
        <time>2014-09-05T07:18:23Z</time>
      </trkpt>
      <trkpt lat="44.94558" lon="5.39427">
        <ele>947.04</ele>
        <time>2014-09-05T07:18:32Z</time>
      </trkpt>
      <trkpt lat="44.94556" lon="5.39426">
        <ele>947.04</ele>
        <time>2014-09-05T07:18:33Z</time>
      </trkpt>
      <trkpt lat="44.94553" lon="5.39422">
        <ele>948</ele>
        <time>2014-09-05T07:18:36Z</time>
      </trkpt>
      <trkpt lat="44.94552" lon="5.39421">
        <ele>947.52</ele>
        <time>2014-09-05T07:18:37Z</time>
      </trkpt>
      <trkpt lat="44.94548" lon="5.39418">
        <ele>948</ele>
        <time>2014-09-05T07:18:41Z</time>
      </trkpt>
      <trkpt lat="44.94547" lon="5.39416">
        <ele>948.48</ele>
        <time>2014-09-05T07:18:42Z</time>
      </trkpt>
      <trkpt lat="44.94537" lon="5.39405">
        <ele>948.48</ele>
        <time>2014-09-05T07:18:49Z</time>
      </trkpt>
      <trkpt lat="44.94535" lon="5.39403">
        <ele>949.44</ele>
        <time>2014-09-05T07:18:50Z</time>
      </trkpt>
      <trkpt lat="44.94515" lon="5.39388">
        <ele>948.48</ele>
        <time>2014-09-05T07:19:00Z</time>
      </trkpt>
      <trkpt lat="44.94493" lon="5.39368">
        <ele>948.48</ele>
        <time>2014-09-05T07:19:10Z</time>
      </trkpt>
      <trkpt lat="44.94462" lon="5.39341">
        <ele>949.44</ele>
        <time>2014-09-05T07:19:22Z</time>
      </trkpt>
      <trkpt lat="44.9444" lon="5.39322">
        <ele>949.92</ele>
        <time>2014-09-05T07:19:32Z</time>
      </trkpt>
      <trkpt lat="44.94421" lon="5.39312">
        <ele>951.36</ele>
        <time>2014-09-05T07:19:41Z</time>
      </trkpt>
      <trkpt lat="44.94408" lon="5.39311">
        <ele>952.32</ele>
        <time>2014-09-05T07:19:51Z</time>
      </trkpt>
      <trkpt lat="44.94405" lon="5.39311">
        <ele>952.32</ele>
        <time>2014-09-05T07:19:53Z</time>
      </trkpt>
      <trkpt lat="44.94404" lon="5.3931">
        <ele>952.32</ele>
        <time>2014-09-05T07:19:54Z</time>
      </trkpt>
      <trkpt lat="44.9439" lon="5.39308">
        <ele>953.77</ele>
        <time>2014-09-05T07:20:04Z</time>
      </trkpt>
      <trkpt lat="44.94373" lon="5.39306">
        <ele>954.73</ele>
        <time>2014-09-05T07:20:14Z</time>
      </trkpt>
      <trkpt lat="44.94364" lon="5.39308">
        <ele>955.69</ele>
        <time>2014-09-05T07:20:19Z</time>
      </trkpt>
      <trkpt lat="44.94362" lon="5.39308">
        <ele>955.69</ele>
        <time>2014-09-05T07:20:21Z</time>
      </trkpt>
      <trkpt lat="44.9436" lon="5.39309">
        <ele>956.17</ele>
        <time>2014-09-05T07:20:22Z</time>
      </trkpt>
      <trkpt lat="44.9435" lon="5.39313">
        <ele>957.13</ele>
        <time>2014-09-05T07:20:31Z</time>
      </trkpt>
      <trkpt lat="44.94349" lon="5.39314">
        <ele>957.13</ele>
        <time>2014-09-05T07:20:32Z</time>
      </trkpt>
      <trkpt lat="44.94347" lon="5.39314">
        <ele>957.13</ele>
        <time>2014-09-05T07:20:33Z</time>
      </trkpt>
      <trkpt lat="44.94345" lon="5.39316">
        <ele>957.13</ele>
        <time>2014-09-05T07:20:34Z</time>
      </trkpt>
      <trkpt lat="44.94343" lon="5.39317">
        <ele>957.61</ele>
        <time>2014-09-05T07:20:35Z</time>
      </trkpt>
      <trkpt lat="44.94341" lon="5.39318">
        <ele>957.13</ele>
        <time>2014-09-05T07:20:36Z</time>
      </trkpt>
      <trkpt lat="44.94339" lon="5.39319">
        <ele>957.13</ele>
        <time>2014-09-05T07:20:37Z</time>
      </trkpt>
      <trkpt lat="44.94338" lon="5.3932">
        <ele>958.09</ele>
        <time>2014-09-05T07:20:38Z</time>
      </trkpt>
      <trkpt lat="44.94325" lon="5.39327">
        <ele>959.05</ele>
        <time>2014-09-05T07:20:47Z</time>
      </trkpt>
      <trkpt lat="44.94322" lon="5.39328">
        <ele>958.57</ele>
        <time>2014-09-05T07:20:49Z</time>
      </trkpt>
      <trkpt lat="44.94321" lon="5.39329">
        <ele>959.05</ele>
        <time>2014-09-05T07:20:50Z</time>
      </trkpt>
      <trkpt lat="44.9432" lon="5.39329">
        <ele>959.05</ele>
        <time>2014-09-05T07:20:51Z</time>
      </trkpt>
      <trkpt lat="44.94318" lon="5.39329">
        <ele>959.53</ele>
        <time>2014-09-05T07:20:52Z</time>
      </trkpt>
      <trkpt lat="44.94317" lon="5.39328">
        <ele>959.53</ele>
        <time>2014-09-05T07:20:53Z</time>
      </trkpt>
      <trkpt lat="44.94315" lon="5.39328">
        <ele>960.01</ele>
        <time>2014-09-05T07:20:54Z</time>
      </trkpt>
      <trkpt lat="44.9431" lon="5.39325">
        <ele>960.49</ele>
        <time>2014-09-05T07:20:59Z</time>
      </trkpt>
      <trkpt lat="44.94308" lon="5.39325">
        <ele>960.49</ele>
        <time>2014-09-05T07:21:00Z</time>
      </trkpt>
      <trkpt lat="44.94288" lon="5.39332">
        <ele>962.42</ele>
        <time>2014-09-05T07:21:10Z</time>
      </trkpt>
      <trkpt lat="44.94287" lon="5.39334">
        <ele>961.46</ele>
        <time>2014-09-05T07:21:11Z</time>
      </trkpt>
      <trkpt lat="44.94286" lon="5.39336">
        <ele>962.42</ele>
        <time>2014-09-05T07:21:12Z</time>
      </trkpt>
      <trkpt lat="44.94284" lon="5.39337">
        <ele>962.9</ele>
        <time>2014-09-05T07:21:13Z</time>
      </trkpt>
      <trkpt lat="44.94283" lon="5.39339">
        <ele>962.9</ele>
        <time>2014-09-05T07:21:14Z</time>
      </trkpt>
      <trkpt lat="44.94282" lon="5.3934">
        <ele>963.38</ele>
        <time>2014-09-05T07:21:15Z</time>
      </trkpt>
      <trkpt lat="44.94275" lon="5.39344">
        <ele>964.34</ele>
        <time>2014-09-05T07:21:21Z</time>
      </trkpt>
      <trkpt lat="44.94274" lon="5.39345">
        <ele>964.34</ele>
        <time>2014-09-05T07:21:22Z</time>
      </trkpt>
      <trkpt lat="44.94268" lon="5.39351">
        <ele>964.82</ele>
        <time>2014-09-05T07:21:26Z</time>
      </trkpt>
      <trkpt lat="44.94267" lon="5.39352">
        <ele>965.3</ele>
        <time>2014-09-05T07:21:27Z</time>
      </trkpt>
      <trkpt lat="44.94266" lon="5.39353">
        <ele>965.3</ele>
        <time>2014-09-05T07:21:28Z</time>
      </trkpt>
      <trkpt lat="44.94264" lon="5.39354">
        <ele>965.3</ele>
        <time>2014-09-05T07:21:29Z</time>
      </trkpt>
      <trkpt lat="44.94263" lon="5.39356">
        <ele>965.3</ele>
        <time>2014-09-05T07:21:30Z</time>
      </trkpt>
      <trkpt lat="44.94262" lon="5.39358">
        <ele>965.78</ele>
        <time>2014-09-05T07:21:31Z</time>
      </trkpt>
      <trkpt lat="44.94259" lon="5.39363">
        <ele>965.78</ele>
        <time>2014-09-05T07:21:34Z</time>
      </trkpt>
      <trkpt lat="44.94258" lon="5.39364">
        <ele>966.74</ele>
        <time>2014-09-05T07:21:35Z</time>
      </trkpt>
      <trkpt lat="44.94257" lon="5.39365">
        <ele>966.74</ele>
        <time>2014-09-05T07:21:36Z</time>
      </trkpt>
      <trkpt lat="44.94255" lon="5.39366">
        <ele>966.74</ele>
        <time>2014-09-05T07:21:37Z</time>
      </trkpt>
      <trkpt lat="44.94254" lon="5.39368">
        <ele>967.22</ele>
        <time>2014-09-05T07:21:38Z</time>
      </trkpt>
      <trkpt lat="44.94252" lon="5.39372">
        <ele>967.7</ele>
        <time>2014-09-05T07:21:47Z</time>
      </trkpt>
      <trkpt lat="44.94248" lon="5.39376">
        <ele>967.7</ele>
        <time>2014-09-05T07:21:55Z</time>
      </trkpt>
      <trkpt lat="44.94244" lon="5.3938">
        <ele>968.67</ele>
        <time>2014-09-05T07:22:02Z</time>
      </trkpt>
      <trkpt lat="44.94239" lon="5.39385">
        <ele>969.15</ele>
        <time>2014-09-05T07:22:08Z</time>
      </trkpt>
      <trkpt lat="44.94238" lon="5.39386">
        <ele>969.15</ele>
        <time>2014-09-05T07:22:09Z</time>
      </trkpt>
      <trkpt lat="44.94228" lon="5.39395">
        <ele>970.59</ele>
        <time>2014-09-05T07:22:20Z</time>
      </trkpt>
      <trkpt lat="44.94223" lon="5.39401">
        <ele>971.55</ele>
        <time>2014-09-05T07:22:28Z</time>
      </trkpt>
      <trkpt lat="44.94218" lon="5.39405">
        <ele>971.55</ele>
        <time>2014-09-05T07:22:35Z</time>
      </trkpt>
      <trkpt lat="44.94212" lon="5.39409">
        <ele>972.51</ele>
        <time>2014-09-05T07:22:45Z</time>
      </trkpt>
      <trkpt lat="44.94204" lon="5.39405">
        <ele>973.95</ele>
        <time>2014-09-05T07:22:55Z</time>
      </trkpt>
      <trkpt lat="44.94198" lon="5.39404">
        <ele>975.39</ele>
        <time>2014-09-05T07:23:05Z</time>
      </trkpt>
      <trkpt lat="44.94198" lon="5.39403">
        <ele>974.91</ele>
        <time>2014-09-05T07:23:21Z</time>
      </trkpt>
      <trkpt lat="44.94196" lon="5.39398">
        <ele>974.91</ele>
        <time>2014-09-05T07:23:24Z</time>
      </trkpt>
      <trkpt lat="44.94196" lon="5.39395">
        <ele>974.91</ele>
        <time>2014-09-05T07:23:25Z</time>
      </trkpt>
      <trkpt lat="44.94195" lon="5.39393">
        <ele>974.43</ele>
        <time>2014-09-05T07:23:26Z</time>
      </trkpt>
      <trkpt lat="44.9419" lon="5.39384">
        <ele>975.39</ele>
        <time>2014-09-05T07:23:36Z</time>
      </trkpt>
      <trkpt lat="44.9419" lon="5.39384">
        <ele>974.91</ele>
        <time>2014-09-05T07:24:00Z</time>
      </trkpt>
      <trkpt lat="44.94188" lon="5.39377">
        <ele>976.36</ele>
        <time>2014-09-05T07:24:15Z</time>
      </trkpt>
      <trkpt lat="44.94185" lon="5.3937">
        <ele>976.36</ele>
        <time>2014-09-05T07:24:19Z</time>
      </trkpt>
      <trkpt lat="44.94185" lon="5.39367">
        <ele>976.84</ele>
        <time>2014-09-05T07:24:22Z</time>
      </trkpt>
      <trkpt lat="44.94184" lon="5.39365">
        <ele>976.84</ele>
        <time>2014-09-05T07:24:23Z</time>
      </trkpt>
      <trkpt lat="44.9418" lon="5.39357">
        <ele>977.8</ele>
        <time>2014-09-05T07:24:34Z</time>
      </trkpt>
      <trkpt lat="44.94179" lon="5.39357">
        <ele>977.8</ele>
        <time>2014-09-05T07:24:47Z</time>
      </trkpt>
      <trkpt lat="44.94179" lon="5.39359">
        <ele>977.32</ele>
        <time>2014-09-05T07:25:07Z</time>
      </trkpt>
      <trkpt lat="44.94178" lon="5.39361">
        <ele>977.8</ele>
        <time>2014-09-05T07:25:08Z</time>
      </trkpt>
      <trkpt lat="44.94178" lon="5.39362">
        <ele>977.8</ele>
        <time>2014-09-05T07:25:09Z</time>
      </trkpt>
      <trkpt lat="44.94178" lon="5.39364">
        <ele>977.8</ele>
        <time>2014-09-05T07:25:10Z</time>
      </trkpt>
      <trkpt lat="44.94178" lon="5.39365">
        <ele>978.28</ele>
        <time>2014-09-05T07:25:11Z</time>
      </trkpt>
      <trkpt lat="44.94178" lon="5.39367">
        <ele>978.28</ele>
        <time>2014-09-05T07:25:12Z</time>
      </trkpt>
      <trkpt lat="44.94178" lon="5.3937">
        <ele>978.76</ele>
        <time>2014-09-05T07:25:13Z</time>
      </trkpt>
      <trkpt lat="44.94177" lon="5.39379">
        <ele>979.72</ele>
        <time>2014-09-05T07:25:17Z</time>
      </trkpt>
      <trkpt lat="44.94176" lon="5.3938">
        <ele>979.24</ele>
        <time>2014-09-05T07:25:18Z</time>
      </trkpt>
      <trkpt lat="44.94176" lon="5.39383">
        <ele>979.72</ele>
        <time>2014-09-05T07:25:19Z</time>
      </trkpt>
      <trkpt lat="44.94175" lon="5.39385">
        <ele>980.2</ele>
        <time>2014-09-05T07:25:20Z</time>
      </trkpt>
      <trkpt lat="44.94175" lon="5.39387">
        <ele>979.72</ele>
        <time>2014-09-05T07:25:21Z</time>
      </trkpt>
      <trkpt lat="44.94174" lon="5.39389">
        <ele>980.2</ele>
        <time>2014-09-05T07:25:22Z</time>
      </trkpt>
      <trkpt lat="44.94171" lon="5.39402">
        <ele>981.16</ele>
        <time>2014-09-05T07:25:28Z</time>
      </trkpt>
      <trkpt lat="44.9417" lon="5.39405">
        <ele>981.16</ele>
        <time>2014-09-05T07:25:29Z</time>
      </trkpt>
      <trkpt lat="44.9417" lon="5.39407">
        <ele>981.16</ele>
        <time>2014-09-05T07:25:30Z</time>
      </trkpt>
      <trkpt lat="44.94169" lon="5.39409">
        <ele>981.64</ele>
        <time>2014-09-05T07:25:31Z</time>
      </trkpt>
      <trkpt lat="44.94169" lon="5.39411">
        <ele>981.64</ele>
        <time>2014-09-05T07:25:32Z</time>
      </trkpt>
      <trkpt lat="44.94169" lon="5.39413">
        <ele>981.64</ele>
        <time>2014-09-05T07:25:33Z</time>
      </trkpt>
      <trkpt lat="44.9417" lon="5.39415">
        <ele>982.12</ele>
        <time>2014-09-05T07:25:34Z</time>
      </trkpt>
      <trkpt lat="44.9417" lon="5.39418">
        <ele>982.12</ele>
        <time>2014-09-05T07:25:35Z</time>
      </trkpt>
      <trkpt lat="44.94171" lon="5.3942">
        <ele>982.6</ele>
        <time>2014-09-05T07:25:36Z</time>
      </trkpt>
      <trkpt lat="44.94171" lon="5.39422">
        <ele>982.6</ele>
        <time>2014-09-05T07:25:37Z</time>
      </trkpt>
      <trkpt lat="44.94171" lon="5.39424">
        <ele>982.6</ele>
        <time>2014-09-05T07:25:38Z</time>
      </trkpt>
      <trkpt lat="44.94171" lon="5.39427">
        <ele>983.09</ele>
        <time>2014-09-05T07:25:39Z</time>
      </trkpt>
      <trkpt lat="44.94172" lon="5.39433">
        <ele>983.57</ele>
        <time>2014-09-05T07:25:43Z</time>
      </trkpt>
      <trkpt lat="44.94173" lon="5.39435">
        <ele>984.05</ele>
        <time>2014-09-05T07:25:44Z</time>
      </trkpt>
      <trkpt lat="44.94173" lon="5.39436">
        <ele>984.05</ele>
        <time>2014-09-05T07:25:45Z</time>
      </trkpt>
      <trkpt lat="44.94177" lon="5.39452">
        <ele>985.49</ele>
        <time>2014-09-05T07:25:55Z</time>
      </trkpt>
      <trkpt lat="44.9418" lon="5.39458">
        <ele>985.97</ele>
        <time>2014-09-05T07:26:06Z</time>
      </trkpt>
      <trkpt lat="44.94182" lon="5.39462">
        <ele>985.97</ele>
        <time>2014-09-05T07:26:19Z</time>
      </trkpt>
      <trkpt lat="44.94184" lon="5.39464">
        <ele>985.97</ele>
        <time>2014-09-05T07:26:20Z</time>
      </trkpt>
      <trkpt lat="44.94186" lon="5.39466">
        <ele>985.97</ele>
        <time>2014-09-05T07:26:21Z</time>
      </trkpt>
      <trkpt lat="44.94187" lon="5.39467">
        <ele>986.45</ele>
        <time>2014-09-05T07:26:22Z</time>
      </trkpt>
      <trkpt lat="44.94193" lon="5.39477">
        <ele>987.89</ele>
        <time>2014-09-05T07:26:27Z</time>
      </trkpt>
      <trkpt lat="44.94194" lon="5.3948">
        <ele>988.37</ele>
        <time>2014-09-05T07:26:28Z</time>
      </trkpt>
      <trkpt lat="44.94194" lon="5.39483">
        <ele>988.37</ele>
        <time>2014-09-05T07:26:29Z</time>
      </trkpt>
      <trkpt lat="44.94194" lon="5.39485">
        <ele>988.37</ele>
        <time>2014-09-05T07:26:30Z</time>
      </trkpt>
      <trkpt lat="44.94193" lon="5.39487">
        <ele>988.85</ele>
        <time>2014-09-05T07:26:31Z</time>
      </trkpt>
      <trkpt lat="44.94191" lon="5.39488">
        <ele>989.33</ele>
        <time>2014-09-05T07:26:32Z</time>
      </trkpt>
      <trkpt lat="44.9419" lon="5.39489">
        <ele>989.33</ele>
        <time>2014-09-05T07:26:33Z</time>
      </trkpt>
      <trkpt lat="44.94189" lon="5.3949">
        <ele>989.33</ele>
        <time>2014-09-05T07:26:34Z</time>
      </trkpt>
      <trkpt lat="44.9418" lon="5.39494">
        <ele>990.3</ele>
        <time>2014-09-05T07:26:40Z</time>
      </trkpt>
      <trkpt lat="44.94179" lon="5.39493">
        <ele>990.3</ele>
        <time>2014-09-05T07:26:41Z</time>
      </trkpt>
      <trkpt lat="44.94178" lon="5.39493">
        <ele>990.3</ele>
        <time>2014-09-05T07:26:42Z</time>
      </trkpt>
      <trkpt lat="44.94177" lon="5.39494">
        <ele>990.3</ele>
        <time>2014-09-05T07:26:43Z</time>
      </trkpt>
      <trkpt lat="44.94177" lon="5.39496">
        <ele>990.3</ele>
        <time>2014-09-05T07:26:44Z</time>
      </trkpt>
      <trkpt lat="44.94177" lon="5.39498">
        <ele>990.78</ele>
        <time>2014-09-05T07:26:45Z</time>
      </trkpt>
      <trkpt lat="44.94176" lon="5.395">
        <ele>990.78</ele>
        <time>2014-09-05T07:26:46Z</time>
      </trkpt>
      <trkpt lat="44.94175" lon="5.39502">
        <ele>990.78</ele>
        <time>2014-09-05T07:26:47Z</time>
      </trkpt>
      <trkpt lat="44.94174" lon="5.39503">
        <ele>990.78</ele>
        <time>2014-09-05T07:26:48Z</time>
      </trkpt>
      <trkpt lat="44.94172" lon="5.39504">
        <ele>991.26</ele>
        <time>2014-09-05T07:26:49Z</time>
      </trkpt>
      <trkpt lat="44.94171" lon="5.39505">
        <ele>991.26</ele>
        <time>2014-09-05T07:26:50Z</time>
      </trkpt>
      <trkpt lat="44.9417" lon="5.39507">
        <ele>991.26</ele>
        <time>2014-09-05T07:26:51Z</time>
      </trkpt>
      <trkpt lat="44.94169" lon="5.39508">
        <ele>991.74</ele>
        <time>2014-09-05T07:26:52Z</time>
      </trkpt>
      <trkpt lat="44.94168" lon="5.39508">
        <ele>991.74</ele>
        <time>2014-09-05T07:26:53Z</time>
      </trkpt>
      <trkpt lat="44.94167" lon="5.3951">
        <ele>992.22</ele>
        <time>2014-09-05T07:27:01Z</time>
      </trkpt>
      <trkpt lat="44.94163" lon="5.39511">
        <ele>992.7</ele>
        <time>2014-09-05T07:27:14Z</time>
      </trkpt>
      <trkpt lat="44.94161" lon="5.39511">
        <ele>992.7</ele>
        <time>2014-09-05T07:27:15Z</time>
      </trkpt>
      <trkpt lat="44.94159" lon="5.39512">
        <ele>992.7</ele>
        <time>2014-09-05T07:27:16Z</time>
      </trkpt>
      <trkpt lat="44.94157" lon="5.39513">
        <ele>992.7</ele>
        <time>2014-09-05T07:27:17Z</time>
      </trkpt>
      <trkpt lat="44.94156" lon="5.39514">
        <ele>992.7</ele>
        <time>2014-09-05T07:27:18Z</time>
      </trkpt>
      <trkpt lat="44.94154" lon="5.39514">
        <ele>993.66</ele>
        <time>2014-09-05T07:27:19Z</time>
      </trkpt>
      <trkpt lat="44.94153" lon="5.39515">
        <ele>993.18</ele>
        <time>2014-09-05T07:27:20Z</time>
      </trkpt>
      <trkpt lat="44.94152" lon="5.39516">
        <ele>992.7</ele>
        <time>2014-09-05T07:27:21Z</time>
      </trkpt>
      <trkpt lat="44.9415" lon="5.39517">
        <ele>993.66</ele>
        <time>2014-09-05T07:27:22Z</time>
      </trkpt>
      <trkpt lat="44.94148" lon="5.39518">
        <ele>994.14</ele>
        <time>2014-09-05T07:27:23Z</time>
      </trkpt>
      <trkpt lat="44.94147" lon="5.39519">
        <ele>994.14</ele>
        <time>2014-09-05T07:27:24Z</time>
      </trkpt>
      <trkpt lat="44.9414" lon="5.39523">
        <ele>995.1</ele>
        <time>2014-09-05T07:27:29Z</time>
      </trkpt>
      <trkpt lat="44.94138" lon="5.39523">
        <ele>995.1</ele>
        <time>2014-09-05T07:27:30Z</time>
      </trkpt>
      <trkpt lat="44.94136" lon="5.39524">
        <ele>995.1</ele>
        <time>2014-09-05T07:27:31Z</time>
      </trkpt>
      <trkpt lat="44.94135" lon="5.39524">
        <ele>995.58</ele>
        <time>2014-09-05T07:27:32Z</time>
      </trkpt>
      <trkpt lat="44.94133" lon="5.39525">
        <ele>995.1</ele>
        <time>2014-09-05T07:27:33Z</time>
      </trkpt>
      <trkpt lat="44.94132" lon="5.39526">
        <ele>995.58</ele>
        <time>2014-09-05T07:27:34Z</time>
      </trkpt>
      <trkpt lat="44.94125" lon="5.39528">
        <ele>996.06</ele>
        <time>2014-09-05T07:27:39Z</time>
      </trkpt>
      <trkpt lat="44.94124" lon="5.39529">
        <ele>996.06</ele>
        <time>2014-09-05T07:27:40Z</time>
      </trkpt>
      <trkpt lat="44.94122" lon="5.3953">
        <ele>996.54</ele>
        <time>2014-09-05T07:27:41Z</time>
      </trkpt>
      <trkpt lat="44.9412" lon="5.39532">
        <ele>996.06</ele>
        <time>2014-09-05T07:27:43Z</time>
      </trkpt>
      <trkpt lat="44.94119" lon="5.39533">
        <ele>996.54</ele>
        <time>2014-09-05T07:27:44Z</time>
      </trkpt>
      <trkpt lat="44.94118" lon="5.39534">
        <ele>996.54</ele>
        <time>2014-09-05T07:27:45Z</time>
      </trkpt>
      <trkpt lat="44.94117" lon="5.39535">
        <ele>996.54</ele>
        <time>2014-09-05T07:27:46Z</time>
      </trkpt>
      <trkpt lat="44.94115" lon="5.39536">
        <ele>997.02</ele>
        <time>2014-09-05T07:27:47Z</time>
      </trkpt>
      <trkpt lat="44.94114" lon="5.39538">
        <ele>997.02</ele>
        <time>2014-09-05T07:27:48Z</time>
      </trkpt>
      <trkpt lat="44.94113" lon="5.39539">
        <ele>996.54</ele>
        <time>2014-09-05T07:27:49Z</time>
      </trkpt>
      <trkpt lat="44.94111" lon="5.3954">
        <ele>997.02</ele>
        <time>2014-09-05T07:27:50Z</time>
      </trkpt>
      <trkpt lat="44.9411" lon="5.39541">
        <ele>997.51</ele>
        <time>2014-09-05T07:27:51Z</time>
      </trkpt>
      <trkpt lat="44.94108" lon="5.39542">
        <ele>997.02</ele>
        <time>2014-09-05T07:27:52Z</time>
      </trkpt>
      <trkpt lat="44.94106" lon="5.39543">
        <ele>997.51</ele>
        <time>2014-09-05T07:27:53Z</time>
      </trkpt>
      <trkpt lat="44.94105" lon="5.39543">
        <ele>997.51</ele>
        <time>2014-09-05T07:27:54Z</time>
      </trkpt>
      <trkpt lat="44.94104" lon="5.39543">
        <ele>997.51</ele>
        <time>2014-09-05T07:27:55Z</time>
      </trkpt>
      <trkpt lat="44.94103" lon="5.39543">
        <ele>997.99</ele>
        <time>2014-09-05T07:27:56Z</time>
      </trkpt>
      <trkpt lat="44.94101" lon="5.39544">
        <ele>997.51</ele>
        <time>2014-09-05T07:27:57Z</time>
      </trkpt>
      <trkpt lat="44.941" lon="5.39544">
        <ele>998.47</ele>
        <time>2014-09-05T07:27:58Z</time>
      </trkpt>
      <trkpt lat="44.94099" lon="5.39545">
        <ele>998.47</ele>
        <time>2014-09-05T07:27:59Z</time>
      </trkpt>
      <trkpt lat="44.94097" lon="5.39546">
        <ele>997.99</ele>
        <time>2014-09-05T07:28:00Z</time>
      </trkpt>
      <trkpt lat="44.94096" lon="5.39547">
        <ele>998.47</ele>
        <time>2014-09-05T07:28:01Z</time>
      </trkpt>
      <trkpt lat="44.94095" lon="5.39548">
        <ele>998.47</ele>
        <time>2014-09-05T07:28:02Z</time>
      </trkpt>
      <trkpt lat="44.94093" lon="5.3955">
        <ele>998.95</ele>
        <time>2014-09-05T07:28:03Z</time>
      </trkpt>
      <trkpt lat="44.94092" lon="5.39551">
        <ele>998.95</ele>
        <time>2014-09-05T07:28:04Z</time>
      </trkpt>
      <trkpt lat="44.94088" lon="5.39556">
        <ele>998.95</ele>
        <time>2014-09-05T07:28:07Z</time>
      </trkpt>
      <trkpt lat="44.94067" lon="5.39561">
        <ele>999.43</ele>
        <time>2014-09-05T07:28:17Z</time>
      </trkpt>
      <trkpt lat="44.94043" lon="5.3957">
        <ele>999.43</ele>
        <time>2014-09-05T07:28:26Z</time>
      </trkpt>
      <trkpt lat="44.9402" lon="5.39579">
        <ele>998.95</ele>
        <time>2014-09-05T07:28:34Z</time>
      </trkpt>
      <trkpt lat="44.94014" lon="5.39585">
        <ele>998.47</ele>
        <time>2014-09-05T07:28:41Z</time>
      </trkpt>
      <trkpt lat="44.94013" lon="5.39588">
        <ele>999.43</ele>
        <time>2014-09-05T07:28:58Z</time>
      </trkpt>
      <trkpt lat="44.94005" lon="5.39611">
        <ele>999.43</ele>
        <time>2014-09-05T07:29:07Z</time>
      </trkpt>
      <trkpt lat="44.94004" lon="5.39614">
        <ele>998.95</ele>
        <time>2014-09-05T07:29:19Z</time>
      </trkpt>
      <trkpt lat="44.94001" lon="5.3962">
        <ele>999.43</ele>
        <time>2014-09-05T07:29:35Z</time>
      </trkpt>
      <trkpt lat="44.93996" lon="5.39647">
        <ele>1000.39</ele>
        <time>2014-09-05T07:29:42Z</time>
      </trkpt>
      <trkpt lat="44.93995" lon="5.39651">
        <ele>1000.87</ele>
        <time>2014-09-05T07:29:43Z</time>
      </trkpt>
      <trkpt lat="44.93994" lon="5.39654">
        <ele>1001.35</ele>
        <time>2014-09-05T07:29:44Z</time>
      </trkpt>
      <trkpt lat="44.93987" lon="5.39665">
        <ele>1001.83</ele>
        <time>2014-09-05T07:29:48Z</time>
      </trkpt>
      <trkpt lat="44.93984" lon="5.39666">
        <ele>1001.83</ele>
        <time>2014-09-05T07:29:49Z</time>
      </trkpt>
      <trkpt lat="44.93969" lon="5.39692">
        <ele>1002.31</ele>
        <time>2014-09-05T07:29:58Z</time>
      </trkpt>
      <trkpt lat="44.93953" lon="5.3972">
        <ele>1003.75</ele>
        <time>2014-09-05T07:30:09Z</time>
      </trkpt>
      <trkpt lat="44.93951" lon="5.39722">
        <ele>1003.75</ele>
        <time>2014-09-05T07:30:10Z</time>
      </trkpt>
      <trkpt lat="44.9395" lon="5.39722">
        <ele>1003.75</ele>
        <time>2014-09-05T07:30:11Z</time>
      </trkpt>
      <trkpt lat="44.93948" lon="5.39723">
        <ele>1003.75</ele>
        <time>2014-09-05T07:30:12Z</time>
      </trkpt>
      <trkpt lat="44.93946" lon="5.39723">
        <ele>1004.23</ele>
        <time>2014-09-05T07:30:13Z</time>
      </trkpt>
      <trkpt lat="44.93945" lon="5.39725">
        <ele>1004.72</ele>
        <time>2014-09-05T07:30:14Z</time>
      </trkpt>
      <trkpt lat="44.93944" lon="5.39727">
        <ele>1004.23</ele>
        <time>2014-09-05T07:30:15Z</time>
      </trkpt>
      <trkpt lat="44.93931" lon="5.39744">
        <ele>1005.68</ele>
        <time>2014-09-05T07:30:25Z</time>
      </trkpt>
      <trkpt lat="44.93929" lon="5.39745">
        <ele>1006.16</ele>
        <time>2014-09-05T07:30:26Z</time>
      </trkpt>
      <trkpt lat="44.93928" lon="5.39746">
        <ele>1006.16</ele>
        <time>2014-09-05T07:30:27Z</time>
      </trkpt>
      <trkpt lat="44.93919" lon="5.39752">
        <ele>1007.6</ele>
        <time>2014-09-05T07:30:34Z</time>
      </trkpt>
      <trkpt lat="44.93919" lon="5.39754">
        <ele>1007.6</ele>
        <time>2014-09-05T07:30:35Z</time>
      </trkpt>
      <trkpt lat="44.93919" lon="5.39757">
        <ele>1008.08</ele>
        <time>2014-09-05T07:30:36Z</time>
      </trkpt>
      <trkpt lat="44.93919" lon="5.39759">
        <ele>1008.08</ele>
        <time>2014-09-05T07:30:37Z</time>
      </trkpt>
      <trkpt lat="44.93919" lon="5.39761">
        <ele>1008.08</ele>
        <time>2014-09-05T07:30:38Z</time>
      </trkpt>
      <trkpt lat="44.9392" lon="5.39766">
        <ele>1008.56</ele>
        <time>2014-09-05T07:30:41Z</time>
      </trkpt>
      <trkpt lat="44.93916" lon="5.39771">
        <ele>1010</ele>
        <time>2014-09-05T07:30:46Z</time>
      </trkpt>
      <trkpt lat="44.93912" lon="5.39773">
        <ele>1010.48</ele>
        <time>2014-09-05T07:30:52Z</time>
      </trkpt>
      <trkpt lat="44.93905" lon="5.39776">
        <ele>1011.93</ele>
        <time>2014-09-05T07:31:02Z</time>
      </trkpt>
      <trkpt lat="44.93897" lon="5.39782">
        <ele>1013.85</ele>
        <time>2014-09-05T07:31:12Z</time>
      </trkpt>
      <trkpt lat="44.93889" lon="5.39787">
        <ele>1014.33</ele>
        <time>2014-09-05T07:31:22Z</time>
      </trkpt>
      <trkpt lat="44.93882" lon="5.39788">
        <ele>1015.29</ele>
        <time>2014-09-05T07:31:31Z</time>
      </trkpt>
      <trkpt lat="44.93882" lon="5.39788">
        <ele>1015.29</ele>
        <time>2014-09-05T07:31:52Z</time>
      </trkpt>
      <trkpt lat="44.93882" lon="5.39788">
        <ele>1015.29</ele>
        <time>2014-09-05T07:32:18Z</time>
      </trkpt>
      <trkpt lat="44.93883" lon="5.39787">
        <ele>1015.77</ele>
        <time>2014-09-05T07:32:40Z</time>
      </trkpt>
      <trkpt lat="44.93884" lon="5.39788">
        <ele>1015.77</ele>
        <time>2014-09-05T07:32:49Z</time>
      </trkpt>
      <trkpt lat="44.93884" lon="5.39788">
        <ele>1015.77</ele>
        <time>2014-09-05T07:32:50Z</time>
      </trkpt>
      <trkpt lat="44.93883" lon="5.3979">
        <ele>1015.77</ele>
        <time>2014-09-05T07:32:52Z</time>
      </trkpt>
      <trkpt lat="44.93874" lon="5.39798">
        <ele>1017.69</ele>
        <time>2014-09-05T07:33:01Z</time>
      </trkpt>
      <trkpt lat="44.93872" lon="5.39799">
        <ele>1018.17</ele>
        <time>2014-09-05T07:33:02Z</time>
      </trkpt>
      <trkpt lat="44.93868" lon="5.39802">
        <ele>1018.17</ele>
        <time>2014-09-05T07:33:06Z</time>
      </trkpt>
      <trkpt lat="44.9386" lon="5.398">
        <ele>1020.58</ele>
        <time>2014-09-05T07:33:12Z</time>
      </trkpt>
      <trkpt lat="44.93852" lon="5.39796">
        <ele>1020.1</ele>
        <time>2014-09-05T07:33:17Z</time>
      </trkpt>
      <trkpt lat="44.9384" lon="5.39787">
        <ele>1021.54</ele>
        <time>2014-09-05T07:33:26Z</time>
      </trkpt>
      <trkpt lat="44.93835" lon="5.39784">
        <ele>1022.5</ele>
        <time>2014-09-05T07:33:30Z</time>
      </trkpt>
      <trkpt lat="44.93833" lon="5.39782">
        <ele>1022.98</ele>
        <time>2014-09-05T07:33:32Z</time>
      </trkpt>
      <trkpt lat="44.93821" lon="5.39772">
        <ele>1024.42</ele>
        <time>2014-09-05T07:33:42Z</time>
      </trkpt>
      <trkpt lat="44.93811" lon="5.39773">
        <ele>1026.34</ele>
        <time>2014-09-05T07:33:52Z</time>
      </trkpt>
      <trkpt lat="44.93804" lon="5.39778">
        <ele>1027.79</ele>
        <time>2014-09-05T07:33:59Z</time>
      </trkpt>
      <trkpt lat="44.93798" lon="5.39779">
        <ele>1028.27</ele>
        <time>2014-09-05T07:34:04Z</time>
      </trkpt>
      <trkpt lat="44.93788" lon="5.39777">
        <ele>1029.71</ele>
        <time>2014-09-05T07:34:15Z</time>
      </trkpt>
      <trkpt lat="44.93783" lon="5.39776">
        <ele>1030.19</ele>
        <time>2014-09-05T07:34:34Z</time>
      </trkpt>
      <trkpt lat="44.93775" lon="5.39777">
        <ele>1030.19</ele>
        <time>2014-09-05T07:34:39Z</time>
      </trkpt>
      <trkpt lat="44.93761" lon="5.39781">
        <ele>1031.63</ele>
        <time>2014-09-05T07:34:47Z</time>
      </trkpt>
      <trkpt lat="44.93754" lon="5.39783">
        <ele>1032.59</ele>
        <time>2014-09-05T07:34:52Z</time>
      </trkpt>
      <trkpt lat="44.93744" lon="5.39783">
        <ele>1033.07</ele>
        <time>2014-09-05T07:34:58Z</time>
      </trkpt>
      <trkpt lat="44.93727" lon="5.39784">
        <ele>1034.52</ele>
        <time>2014-09-05T07:35:08Z</time>
      </trkpt>
      <trkpt lat="44.93707" lon="5.39786">
        <ele>1035.48</ele>
        <time>2014-09-05T07:35:20Z</time>
      </trkpt>
      <trkpt lat="44.93692" lon="5.39785">
        <ele>1036.92</ele>
        <time>2014-09-05T07:35:30Z</time>
      </trkpt>
      <trkpt lat="44.93688" lon="5.39788">
        <ele>1037.4</ele>
        <time>2014-09-05T07:35:34Z</time>
      </trkpt>
      <trkpt lat="44.93673" lon="5.39799">
        <ele>1039.8</ele>
        <time>2014-09-05T07:35:46Z</time>
      </trkpt>
      <trkpt lat="44.93665" lon="5.39801">
        <ele>1041.73</ele>
        <time>2014-09-05T07:35:51Z</time>
      </trkpt>
      <trkpt lat="44.93653" lon="5.39805">
        <ele>1044.13</ele>
        <time>2014-09-05T07:36:02Z</time>
      </trkpt>
      <trkpt lat="44.9365" lon="5.39805">
        <ele>1045.09</ele>
        <time>2014-09-05T07:36:05Z</time>
      </trkpt>
      <trkpt lat="44.93643" lon="5.39804">
        <ele>1046.53</ele>
        <time>2014-09-05T07:36:12Z</time>
      </trkpt>
      <trkpt lat="44.9364" lon="5.39806">
        <ele>1047.49</ele>
        <time>2014-09-05T07:36:15Z</time>
      </trkpt>
      <trkpt lat="44.93627" lon="5.39805">
        <ele>1049.42</ele>
        <time>2014-09-05T07:36:27Z</time>
      </trkpt>
      <trkpt lat="44.93624" lon="5.39805">
        <ele>1049.9</ele>
        <time>2014-09-05T07:36:30Z</time>
      </trkpt>
      <trkpt lat="44.93621" lon="5.39807">
        <ele>1050.38</ele>
        <time>2014-09-05T07:36:38Z</time>
      </trkpt>
      <trkpt lat="44.93621" lon="5.39807">
        <ele>1050.86</ele>
        <time>2014-09-05T07:36:58Z</time>
      </trkpt>
      <trkpt lat="44.93621" lon="5.39807">
        <ele>1050.38</ele>
        <time>2014-09-05T07:37:01Z</time>
      </trkpt>
      <trkpt lat="44.93615" lon="5.3981">
        <ele>1050.86</ele>
        <time>2014-09-05T07:37:09Z</time>
      </trkpt>
      <trkpt lat="44.93611" lon="5.39805">
        <ele>1051.34</ele>
        <time>2014-09-05T07:37:13Z</time>
      </trkpt>
      <trkpt lat="44.93593" lon="5.39805">
        <ele>1052.78</ele>
        <time>2014-09-05T07:37:25Z</time>
      </trkpt>
      <trkpt lat="44.93585" lon="5.39806">
        <ele>1053.74</ele>
        <time>2014-09-05T07:37:30Z</time>
      </trkpt>
      <trkpt lat="44.93565" lon="5.39811">
        <ele>1055.67</ele>
        <time>2014-09-05T07:37:43Z</time>
      </trkpt>
      <trkpt lat="44.93559" lon="5.39813">
        <ele>1056.15</ele>
        <time>2014-09-05T07:37:53Z</time>
      </trkpt>
      <trkpt lat="44.93559" lon="5.39813">
        <ele>1055.67</ele>
        <time>2014-09-05T07:38:21Z</time>
      </trkpt>
      <trkpt lat="44.93559" lon="5.39813">
        <ele>1056.15</ele>
        <time>2014-09-05T07:38:49Z</time>
      </trkpt>
      <trkpt lat="44.93552" lon="5.39817">
        <ele>1056.15</ele>
        <time>2014-09-05T07:38:59Z</time>
      </trkpt>
      <trkpt lat="44.93533" lon="5.3982">
        <ele>1057.59</ele>
        <time>2014-09-05T07:39:10Z</time>
      </trkpt>
      <trkpt lat="44.93505" lon="5.39823">
        <ele>1059.03</ele>
        <time>2014-09-05T07:39:21Z</time>
      </trkpt>
      <trkpt lat="44.93472" lon="5.39825">
        <ele>1059.99</ele>
        <time>2014-09-05T07:39:33Z</time>
      </trkpt>
      <trkpt lat="44.93438" lon="5.39826">
        <ele>1058.55</ele>
        <time>2014-09-05T07:39:44Z</time>
      </trkpt>
      <trkpt lat="44.93435" lon="5.39825">
        <ele>1058.07</ele>
        <time>2014-09-05T07:39:45Z</time>
      </trkpt>
      <trkpt lat="44.93432" lon="5.39822">
        <ele>1058.07</ele>
        <time>2014-09-05T07:39:46Z</time>
      </trkpt>
      <trkpt lat="44.93429" lon="5.3982">
        <ele>1058.07</ele>
        <time>2014-09-05T07:39:47Z</time>
      </trkpt>
      <trkpt lat="44.93427" lon="5.39818">
        <ele>1057.59</ele>
        <time>2014-09-05T07:39:48Z</time>
      </trkpt>
      <trkpt lat="44.93426" lon="5.39817">
        <ele>1057.11</ele>
        <time>2014-09-05T07:39:49Z</time>
      </trkpt>
      <trkpt lat="44.93425" lon="5.39815">
        <ele>1057.11</ele>
        <time>2014-09-05T07:39:50Z</time>
      </trkpt>
      <trkpt lat="44.93423" lon="5.39813">
        <ele>1057.11</ele>
        <time>2014-09-05T07:39:51Z</time>
      </trkpt>
      <trkpt lat="44.93421" lon="5.39812">
        <ele>1056.63</ele>
        <time>2014-09-05T07:39:52Z</time>
      </trkpt>
      <trkpt lat="44.93419" lon="5.39809">
        <ele>1056.63</ele>
        <time>2014-09-05T07:39:53Z</time>
      </trkpt>
      <trkpt lat="44.93417" lon="5.39806">
        <ele>1056.15</ele>
        <time>2014-09-05T07:39:54Z</time>
      </trkpt>
      <trkpt lat="44.93414" lon="5.39803">
        <ele>1054.7</ele>
        <time>2014-09-05T07:39:55Z</time>
      </trkpt>
      <trkpt lat="44.93412" lon="5.39801">
        <ele>1055.18</ele>
        <time>2014-09-05T07:39:56Z</time>
      </trkpt>
      <trkpt lat="44.9341" lon="5.398">
        <ele>1054.7</ele>
        <time>2014-09-05T07:39:57Z</time>
      </trkpt>
      <trkpt lat="44.93408" lon="5.39798">
        <ele>1053.74</ele>
        <time>2014-09-05T07:39:58Z</time>
      </trkpt>
      <trkpt lat="44.93402" lon="5.39794">
        <ele>1053.26</ele>
        <time>2014-09-05T07:40:00Z</time>
      </trkpt>
      <trkpt lat="44.934" lon="5.39792">
        <ele>1052.78</ele>
        <time>2014-09-05T07:40:01Z</time>
      </trkpt>
      <trkpt lat="44.93398" lon="5.3979">
        <ele>1052.3</ele>
        <time>2014-09-05T07:40:02Z</time>
      </trkpt>
      <trkpt lat="44.93388" lon="5.39783">
        <ele>1050.86</ele>
        <time>2014-09-05T07:40:07Z</time>
      </trkpt>
      <trkpt lat="44.93386" lon="5.39783">
        <ele>1050.86</ele>
        <time>2014-09-05T07:40:08Z</time>
      </trkpt>
      <trkpt lat="44.93384" lon="5.39783">
        <ele>1050.86</ele>
        <time>2014-09-05T07:40:09Z</time>
      </trkpt>
      <trkpt lat="44.93364" lon="5.39781">
        <ele>1047.97</ele>
        <time>2014-09-05T07:40:17Z</time>
      </trkpt>
      <trkpt lat="44.93344" lon="5.39787">
        <ele>1046.05</ele>
        <time>2014-09-05T07:40:25Z</time>
      </trkpt>
      <trkpt lat="44.93333" lon="5.398">
        <ele>1044.61</ele>
        <time>2014-09-05T07:40:32Z</time>
      </trkpt>
      <trkpt lat="44.93333" lon="5.398">
        <ele>1044.13</ele>
        <time>2014-09-05T07:40:47Z</time>
      </trkpt>
      <trkpt lat="44.93326" lon="5.39815">
        <ele>1043.17</ele>
        <time>2014-09-05T07:40:54Z</time>
      </trkpt>
      <trkpt lat="44.93308" lon="5.39847">
        <ele>1044.13</ele>
        <time>2014-09-05T07:41:05Z</time>
      </trkpt>
      <trkpt lat="44.93306" lon="5.39846">
        <ele>1045.09</ele>
        <time>2014-09-05T07:41:06Z</time>
      </trkpt>
      <trkpt lat="44.93304" lon="5.39845">
        <ele>1045.09</ele>
        <time>2014-09-05T07:41:07Z</time>
      </trkpt>
      <trkpt lat="44.93303" lon="5.39844">
        <ele>1044.61</ele>
        <time>2014-09-05T07:41:08Z</time>
      </trkpt>
      <trkpt lat="44.933" lon="5.39843">
        <ele>1045.09</ele>
        <time>2014-09-05T07:41:09Z</time>
      </trkpt>
      <trkpt lat="44.9329" lon="5.39838">
        <ele>1045.57</ele>
        <time>2014-09-05T07:41:15Z</time>
      </trkpt>
      <trkpt lat="44.93289" lon="5.39838">
        <ele>1045.57</ele>
        <time>2014-09-05T07:41:16Z</time>
      </trkpt>
      <trkpt lat="44.93287" lon="5.39838">
        <ele>1046.05</ele>
        <time>2014-09-05T07:41:17Z</time>
      </trkpt>
      <trkpt lat="44.93285" lon="5.39839">
        <ele>1046.05</ele>
        <time>2014-09-05T07:41:18Z</time>
      </trkpt>
      <trkpt lat="44.93284" lon="5.3984">
        <ele>1046.05</ele>
        <time>2014-09-05T07:41:19Z</time>
      </trkpt>
      <trkpt lat="44.93282" lon="5.39841">
        <ele>1046.53</ele>
        <time>2014-09-05T07:41:20Z</time>
      </trkpt>
      <trkpt lat="44.93281" lon="5.39842">
        <ele>1046.53</ele>
        <time>2014-09-05T07:41:21Z</time>
      </trkpt>
      <trkpt lat="44.9328" lon="5.39843">
        <ele>1047.01</ele>
        <time>2014-09-05T07:41:22Z</time>
      </trkpt>
      <trkpt lat="44.93278" lon="5.39845">
        <ele>1046.53</ele>
        <time>2014-09-05T07:41:23Z</time>
      </trkpt>
      <trkpt lat="44.93277" lon="5.39845">
        <ele>1047.01</ele>
        <time>2014-09-05T07:41:24Z</time>
      </trkpt>
      <trkpt lat="44.93275" lon="5.39845">
        <ele>1047.01</ele>
        <time>2014-09-05T07:41:25Z</time>
      </trkpt>
      <trkpt lat="44.93273" lon="5.39845">
        <ele>1047.49</ele>
        <time>2014-09-05T07:41:26Z</time>
      </trkpt>
      <trkpt lat="44.93272" lon="5.39846">
        <ele>1047.49</ele>
        <time>2014-09-05T07:41:27Z</time>
      </trkpt>
      <trkpt lat="44.9327" lon="5.39846">
        <ele>1047.97</ele>
        <time>2014-09-05T07:41:28Z</time>
      </trkpt>
      <trkpt lat="44.93269" lon="5.39845">
        <ele>1048.45</ele>
        <time>2014-09-05T07:41:29Z</time>
      </trkpt>
      <trkpt lat="44.93267" lon="5.39844">
        <ele>1048.45</ele>
        <time>2014-09-05T07:41:30Z</time>
      </trkpt>
      <trkpt lat="44.93266" lon="5.39843">
        <ele>1048.45</ele>
        <time>2014-09-05T07:41:31Z</time>
      </trkpt>
      <trkpt lat="44.93265" lon="5.39844">
        <ele>1048.94</ele>
        <time>2014-09-05T07:41:32Z</time>
      </trkpt>
      <trkpt lat="44.93264" lon="5.39844">
        <ele>1048.94</ele>
        <time>2014-09-05T07:41:33Z</time>
      </trkpt>
      <trkpt lat="44.93263" lon="5.39845">
        <ele>1049.42</ele>
        <time>2014-09-05T07:41:34Z</time>
      </trkpt>
      <trkpt lat="44.93261" lon="5.39845">
        <ele>1049.9</ele>
        <time>2014-09-05T07:41:35Z</time>
      </trkpt>
      <trkpt lat="44.9326" lon="5.39844">
        <ele>1050.38</ele>
        <time>2014-09-05T07:41:36Z</time>
      </trkpt>
      <trkpt lat="44.93258" lon="5.39844">
        <ele>1049.9</ele>
        <time>2014-09-05T07:41:37Z</time>
      </trkpt>
      <trkpt lat="44.93256" lon="5.39844">
        <ele>1050.86</ele>
        <time>2014-09-05T07:41:38Z</time>
      </trkpt>
      <trkpt lat="44.93255" lon="5.39845">
        <ele>1050.86</ele>
        <time>2014-09-05T07:41:39Z</time>
      </trkpt>
      <trkpt lat="44.93254" lon="5.39844">
        <ele>1051.34</ele>
        <time>2014-09-05T07:41:40Z</time>
      </trkpt>
      <trkpt lat="44.93253" lon="5.39844">
        <ele>1051.34</ele>
        <time>2014-09-05T07:41:41Z</time>
      </trkpt>
      <trkpt lat="44.93251" lon="5.39843">
        <ele>1051.82</ele>
        <time>2014-09-05T07:41:42Z</time>
      </trkpt>
      <trkpt lat="44.9325" lon="5.39842">
        <ele>1051.82</ele>
        <time>2014-09-05T07:41:43Z</time>
      </trkpt>
      <trkpt lat="44.93248" lon="5.39841">
        <ele>1051.82</ele>
        <time>2014-09-05T07:41:44Z</time>
      </trkpt>
      <trkpt lat="44.93247" lon="5.39842">
        <ele>1052.3</ele>
        <time>2014-09-05T07:41:45Z</time>
      </trkpt>
      <trkpt lat="44.93246" lon="5.39842">
        <ele>1052.3</ele>
        <time>2014-09-05T07:41:46Z</time>
      </trkpt>
      <trkpt lat="44.93245" lon="5.39841">
        <ele>1052.78</ele>
        <time>2014-09-05T07:41:47Z</time>
      </trkpt>
      <trkpt lat="44.93244" lon="5.3984">
        <ele>1052.78</ele>
        <time>2014-09-05T07:41:48Z</time>
      </trkpt>
      <trkpt lat="44.93243" lon="5.3984">
        <ele>1053.26</ele>
        <time>2014-09-05T07:41:49Z</time>
      </trkpt>
      <trkpt lat="44.93242" lon="5.39839">
        <ele>1053.26</ele>
        <time>2014-09-05T07:41:50Z</time>
      </trkpt>
      <trkpt lat="44.9324" lon="5.39839">
        <ele>1053.26</ele>
        <time>2014-09-05T07:41:51Z</time>
      </trkpt>
      <trkpt lat="44.93239" lon="5.39838">
        <ele>1053.74</ele>
        <time>2014-09-05T07:41:52Z</time>
      </trkpt>
      <trkpt lat="44.93226" lon="5.3983">
        <ele>1054.7</ele>
        <time>2014-09-05T07:42:01Z</time>
      </trkpt>
      <trkpt lat="44.93214" lon="5.39829">
        <ele>1055.67</ele>
        <time>2014-09-05T07:42:09Z</time>
      </trkpt>
      <trkpt lat="44.93213" lon="5.3983">
        <ele>1056.15</ele>
        <time>2014-09-05T07:42:10Z</time>
      </trkpt>
      <trkpt lat="44.93211" lon="5.39831">
        <ele>1056.63</ele>
        <time>2014-09-05T07:42:11Z</time>
      </trkpt>
      <trkpt lat="44.9321" lon="5.39832">
        <ele>1056.15</ele>
        <time>2014-09-05T07:42:12Z</time>
      </trkpt>
      <trkpt lat="44.93208" lon="5.39832">
        <ele>1056.63</ele>
        <time>2014-09-05T07:42:13Z</time>
      </trkpt>
      <trkpt lat="44.93201" lon="5.39834">
        <ele>1056.63</ele>
        <time>2014-09-05T07:42:17Z</time>
      </trkpt>
      <trkpt lat="44.93199" lon="5.39834">
        <ele>1057.59</ele>
        <time>2014-09-05T07:42:18Z</time>
      </trkpt>
      <trkpt lat="44.93197" lon="5.39833">
        <ele>1057.11</ele>
        <time>2014-09-05T07:42:19Z</time>
      </trkpt>
      <trkpt lat="44.93195" lon="5.39833">
        <ele>1057.59</ele>
        <time>2014-09-05T07:42:20Z</time>
      </trkpt>
      <trkpt lat="44.93194" lon="5.39832">
        <ele>1057.59</ele>
        <time>2014-09-05T07:42:21Z</time>
      </trkpt>
      <trkpt lat="44.93192" lon="5.39833">
        <ele>1057.59</ele>
        <time>2014-09-05T07:42:22Z</time>
      </trkpt>
      <trkpt lat="44.93191" lon="5.39833">
        <ele>1057.59</ele>
        <time>2014-09-05T07:42:23Z</time>
      </trkpt>
      <trkpt lat="44.9319" lon="5.39833">
        <ele>1058.07</ele>
        <time>2014-09-05T07:42:24Z</time>
      </trkpt>
      <trkpt lat="44.93188" lon="5.39833">
        <ele>1057.59</ele>
        <time>2014-09-05T07:42:25Z</time>
      </trkpt>
      <trkpt lat="44.93186" lon="5.39832">
        <ele>1057.59</ele>
        <time>2014-09-05T07:42:26Z</time>
      </trkpt>
      <trkpt lat="44.93159" lon="5.39826">
        <ele>1056.63</ele>
        <time>2014-09-05T07:42:37Z</time>
      </trkpt>
      <trkpt lat="44.9314" lon="5.39827">
        <ele>1054.7</ele>
        <time>2014-09-05T07:42:45Z</time>
      </trkpt>
      <trkpt lat="44.93137" lon="5.39827">
        <ele>1054.7</ele>
        <time>2014-09-05T07:42:47Z</time>
      </trkpt>
      <trkpt lat="44.93134" lon="5.39826">
        <ele>1053.74</ele>
        <time>2014-09-05T07:42:48Z</time>
      </trkpt>
      <trkpt lat="44.93132" lon="5.39826">
        <ele>1053.74</ele>
        <time>2014-09-05T07:42:49Z</time>
      </trkpt>
      <trkpt lat="44.93128" lon="5.39827">
        <ele>1052.78</ele>
        <time>2014-09-05T07:42:51Z</time>
      </trkpt>
      <trkpt lat="44.93126" lon="5.39827">
        <ele>1052.78</ele>
        <time>2014-09-05T07:42:52Z</time>
      </trkpt>
      <trkpt lat="44.93124" lon="5.39827">
        <ele>1052.78</ele>
        <time>2014-09-05T07:42:53Z</time>
      </trkpt>
      <trkpt lat="44.93121" lon="5.39828">
        <ele>1052.78</ele>
        <time>2014-09-05T07:42:54Z</time>
      </trkpt>
      <trkpt lat="44.93118" lon="5.39829">
        <ele>1052.3</ele>
        <time>2014-09-05T07:42:55Z</time>
      </trkpt>
      <trkpt lat="44.93115" lon="5.3983">
        <ele>1051.82</ele>
        <time>2014-09-05T07:42:56Z</time>
      </trkpt>
      <trkpt lat="44.93112" lon="5.39831">
        <ele>1051.82</ele>
        <time>2014-09-05T07:42:57Z</time>
      </trkpt>
      <trkpt lat="44.93109" lon="5.39834">
        <ele>1051.82</ele>
        <time>2014-09-05T07:42:58Z</time>
      </trkpt>
      <trkpt lat="44.93101" lon="5.39842">
        <ele>1051.82</ele>
        <time>2014-09-05T07:43:02Z</time>
      </trkpt>
      <trkpt lat="44.93098" lon="5.39843">
        <ele>1051.34</ele>
        <time>2014-09-05T07:43:03Z</time>
      </trkpt>
      <trkpt lat="44.93095" lon="5.39844">
        <ele>1051.34</ele>
        <time>2014-09-05T07:43:04Z</time>
      </trkpt>
      <trkpt lat="44.93092" lon="5.39845">
        <ele>1050.38</ele>
        <time>2014-09-05T07:43:05Z</time>
      </trkpt>
      <trkpt lat="44.9309" lon="5.39847">
        <ele>1049.9</ele>
        <time>2014-09-05T07:43:06Z</time>
      </trkpt>
      <trkpt lat="44.93063" lon="5.39863">
        <ele>1050.86</ele>
        <time>2014-09-05T07:43:15Z</time>
      </trkpt>
      <trkpt lat="44.93037" lon="5.39878">
        <ele>1051.82</ele>
        <time>2014-09-05T07:43:25Z</time>
      </trkpt>
      <trkpt lat="44.93023" lon="5.39889">
        <ele>1054.22</ele>
        <time>2014-09-05T07:43:34Z</time>
      </trkpt>
      <trkpt lat="44.9302" lon="5.39891">
        <ele>1054.7</ele>
        <time>2014-09-05T07:43:40Z</time>
      </trkpt>
      <trkpt lat="44.93016" lon="5.39896">
        <ele>1055.67</ele>
        <time>2014-09-05T07:43:47Z</time>
      </trkpt>
      <trkpt lat="44.93015" lon="5.39897">
        <ele>1055.67</ele>
        <time>2014-09-05T07:43:48Z</time>
      </trkpt>
      <trkpt lat="44.93011" lon="5.39909">
        <ele>1057.11</ele>
        <time>2014-09-05T07:43:58Z</time>
      </trkpt>
      <trkpt lat="44.93005" lon="5.3992">
        <ele>1059.51</ele>
        <time>2014-09-05T07:44:09Z</time>
      </trkpt>
      <trkpt lat="44.93004" lon="5.3992">
        <ele>1059.51</ele>
        <time>2014-09-05T07:44:10Z</time>
      </trkpt>
      <trkpt lat="44.93" lon="5.39922">
        <ele>1059.51</ele>
        <time>2014-09-05T07:44:16Z</time>
      </trkpt>
      <trkpt lat="44.92999" lon="5.39923">
        <ele>1060.47</ele>
        <time>2014-09-05T07:44:17Z</time>
      </trkpt>
      <trkpt lat="44.92997" lon="5.39923">
        <ele>1059.99</ele>
        <time>2014-09-05T07:44:18Z</time>
      </trkpt>
      <trkpt lat="44.92995" lon="5.39923">
        <ele>1059.51</ele>
        <time>2014-09-05T07:44:19Z</time>
      </trkpt>
      <trkpt lat="44.92993" lon="5.39923">
        <ele>1059.99</ele>
        <time>2014-09-05T07:44:20Z</time>
      </trkpt>
      <trkpt lat="44.92991" lon="5.39924">
        <ele>1059.51</ele>
        <time>2014-09-05T07:44:21Z</time>
      </trkpt>
      <trkpt lat="44.9299" lon="5.39925">
        <ele>1059.99</ele>
        <time>2014-09-05T07:44:22Z</time>
      </trkpt>
      <trkpt lat="44.92988" lon="5.39926">
        <ele>1059.51</ele>
        <time>2014-09-05T07:44:23Z</time>
      </trkpt>
      <trkpt lat="44.92987" lon="5.39928">
        <ele>1059.99</ele>
        <time>2014-09-05T07:44:24Z</time>
      </trkpt>
      <trkpt lat="44.92984" lon="5.39931">
        <ele>1060.47</ele>
        <time>2014-09-05T07:44:32Z</time>
      </trkpt>
      <trkpt lat="44.92983" lon="5.39931">
        <ele>1060.47</ele>
        <time>2014-09-05T07:44:33Z</time>
      </trkpt>
      <trkpt lat="44.9298" lon="5.39931">
        <ele>1060.47</ele>
        <time>2014-09-05T07:44:35Z</time>
      </trkpt>
      <trkpt lat="44.92976" lon="5.39933">
        <ele>1061.43</ele>
        <time>2014-09-05T07:44:40Z</time>
      </trkpt>
      <trkpt lat="44.92974" lon="5.39934">
        <ele>1061.91</ele>
        <time>2014-09-05T07:44:41Z</time>
      </trkpt>
      <trkpt lat="44.92973" lon="5.39934">
        <ele>1061.91</ele>
        <time>2014-09-05T07:44:42Z</time>
      </trkpt>
      <trkpt lat="44.92971" lon="5.39936">
        <ele>1062.39</ele>
        <time>2014-09-05T07:44:44Z</time>
      </trkpt>
      <trkpt lat="44.92965" lon="5.3994">
        <ele>1062.39</ele>
        <time>2014-09-05T07:44:52Z</time>
      </trkpt>
      <trkpt lat="44.92964" lon="5.3994">
        <ele>1062.87</ele>
        <time>2014-09-05T07:44:53Z</time>
      </trkpt>
      <trkpt lat="44.92963" lon="5.3994">
        <ele>1062.87</ele>
        <time>2014-09-05T07:44:54Z</time>
      </trkpt>
      <trkpt lat="44.92962" lon="5.3994">
        <ele>1062.39</ele>
        <time>2014-09-05T07:44:55Z</time>
      </trkpt>
      <trkpt lat="44.9296" lon="5.3994">
        <ele>1062.39</ele>
        <time>2014-09-05T07:44:56Z</time>
      </trkpt>
      <trkpt lat="44.92956" lon="5.39945">
        <ele>1061.91</ele>
        <time>2014-09-05T07:45:05Z</time>
      </trkpt>
      <trkpt lat="44.92954" lon="5.39948">
        <ele>1062.87</ele>
        <time>2014-09-05T07:45:29Z</time>
      </trkpt>
      <trkpt lat="44.92953" lon="5.39949">
        <ele>1062.39</ele>
        <time>2014-09-05T07:45:30Z</time>
      </trkpt>
      <trkpt lat="44.92952" lon="5.39949">
        <ele>1062.39</ele>
        <time>2014-09-05T07:45:31Z</time>
      </trkpt>
      <trkpt lat="44.92951" lon="5.3995">
        <ele>1062.39</ele>
        <time>2014-09-05T07:45:32Z</time>
      </trkpt>
      <trkpt lat="44.9295" lon="5.39951">
        <ele>1062.87</ele>
        <time>2014-09-05T07:45:33Z</time>
      </trkpt>
      <trkpt lat="44.92949" lon="5.39952">
        <ele>1062.39</ele>
        <time>2014-09-05T07:45:34Z</time>
      </trkpt>
      <trkpt lat="44.92948" lon="5.39953">
        <ele>1062.39</ele>
        <time>2014-09-05T07:45:35Z</time>
      </trkpt>
      <trkpt lat="44.92947" lon="5.39953">
        <ele>1061.91</ele>
        <time>2014-09-05T07:45:36Z</time>
      </trkpt>
      <trkpt lat="44.92944" lon="5.39955">
        <ele>1061.91</ele>
        <time>2014-09-05T07:45:45Z</time>
      </trkpt>
      <trkpt lat="44.9294" lon="5.39954">
        <ele>1060.95</ele>
        <time>2014-09-05T07:45:54Z</time>
      </trkpt>
      <trkpt lat="44.92934" lon="5.3995">
        <ele>1059.51</ele>
        <time>2014-09-05T07:46:04Z</time>
      </trkpt>
      <trkpt lat="44.92934" lon="5.39949">
        <ele>1059.51</ele>
        <time>2014-09-05T07:46:07Z</time>
      </trkpt>
      <trkpt lat="44.9293" lon="5.39947">
        <ele>1057.11</ele>
        <time>2014-09-05T07:46:15Z</time>
      </trkpt>
      <trkpt lat="44.92926" lon="5.39945">
        <ele>1057.11</ele>
        <time>2014-09-05T07:46:23Z</time>
      </trkpt>
      <trkpt lat="44.92925" lon="5.39944">
        <ele>1056.63</ele>
        <time>2014-09-05T07:46:24Z</time>
      </trkpt>
      <trkpt lat="44.92914" lon="5.3993">
        <ele>1056.15</ele>
        <time>2014-09-05T07:46:32Z</time>
      </trkpt>
      <trkpt lat="44.92914" lon="5.39928">
        <ele>1055.67</ele>
        <time>2014-09-05T07:46:40Z</time>
      </trkpt>
      <trkpt lat="44.92913" lon="5.39924">
        <ele>1055.67</ele>
        <time>2014-09-05T07:46:54Z</time>
      </trkpt>
      <trkpt lat="44.92913" lon="5.39921">
        <ele>1055.67</ele>
        <time>2014-09-05T07:46:55Z</time>
      </trkpt>
      <trkpt lat="44.92913" lon="5.39918">
        <ele>1055.18</ele>
        <time>2014-09-05T07:46:56Z</time>
      </trkpt>
      <trkpt lat="44.92912" lon="5.39916">
        <ele>1055.18</ele>
        <time>2014-09-05T07:46:57Z</time>
      </trkpt>
      <trkpt lat="44.9291" lon="5.39914">
        <ele>1055.18</ele>
        <time>2014-09-05T07:46:58Z</time>
      </trkpt>
      <trkpt lat="44.92908" lon="5.39913">
        <ele>1055.18</ele>
        <time>2014-09-05T07:46:59Z</time>
      </trkpt>
      <trkpt lat="44.92907" lon="5.39912">
        <ele>1054.7</ele>
        <time>2014-09-05T07:47:00Z</time>
      </trkpt>
      <trkpt lat="44.92905" lon="5.39911">
        <ele>1054.7</ele>
        <time>2014-09-05T07:47:07Z</time>
      </trkpt>
      <trkpt lat="44.92904" lon="5.39912">
        <ele>1055.18</ele>
        <time>2014-09-05T07:47:19Z</time>
      </trkpt>
      <trkpt lat="44.92901" lon="5.3991">
        <ele>1054.7</ele>
        <time>2014-09-05T07:47:24Z</time>
      </trkpt>
      <trkpt lat="44.92899" lon="5.39909">
        <ele>1054.7</ele>
        <time>2014-09-05T07:47:25Z</time>
      </trkpt>
      <trkpt lat="44.92897" lon="5.39907">
        <ele>1054.22</ele>
        <time>2014-09-05T07:47:26Z</time>
      </trkpt>
      <trkpt lat="44.92892" lon="5.39905">
        <ele>1053.74</ele>
        <time>2014-09-05T07:47:32Z</time>
      </trkpt>
      <trkpt lat="44.9289" lon="5.39903">
        <ele>1052.78</ele>
        <time>2014-09-05T07:47:34Z</time>
      </trkpt>
      <trkpt lat="44.92888" lon="5.39902">
        <ele>1053.26</ele>
        <time>2014-09-05T07:47:35Z</time>
      </trkpt>
      <trkpt lat="44.92887" lon="5.39901">
        <ele>1053.26</ele>
        <time>2014-09-05T07:47:36Z</time>
      </trkpt>
      <trkpt lat="44.92886" lon="5.39899">
        <ele>1053.26</ele>
        <time>2014-09-05T07:47:37Z</time>
      </trkpt>
      <trkpt lat="44.92885" lon="5.39895">
        <ele>1052.78</ele>
        <time>2014-09-05T07:47:38Z</time>
      </trkpt>
      <trkpt lat="44.92884" lon="5.39892">
        <ele>1053.26</ele>
        <time>2014-09-05T07:47:39Z</time>
      </trkpt>
      <trkpt lat="44.92883" lon="5.39888">
        <ele>1052.78</ele>
        <time>2014-09-05T07:47:40Z</time>
      </trkpt>
      <trkpt lat="44.92882" lon="5.39885">
        <ele>1053.26</ele>
        <time>2014-09-05T07:47:41Z</time>
      </trkpt>
      <trkpt lat="44.92879" lon="5.39882">
        <ele>1052.78</ele>
        <time>2014-09-05T07:47:42Z</time>
      </trkpt>
      <trkpt lat="44.92864" lon="5.39876">
        <ele>1051.34</ele>
        <time>2014-09-05T07:47:46Z</time>
      </trkpt>
      <trkpt lat="44.92843" lon="5.39876">
        <ele>1049.9</ele>
        <time>2014-09-05T07:47:50Z</time>
      </trkpt>
      <trkpt lat="44.92838" lon="5.39878">
        <ele>1049.42</ele>
        <time>2014-09-05T07:47:51Z</time>
      </trkpt>
      <trkpt lat="44.92834" lon="5.39881">
        <ele>1049.42</ele>
        <time>2014-09-05T07:47:52Z</time>
      </trkpt>
      <trkpt lat="44.92831" lon="5.39884">
        <ele>1049.42</ele>
        <time>2014-09-05T07:47:53Z</time>
      </trkpt>
      <trkpt lat="44.9283" lon="5.39886">
        <ele>1048.94</ele>
        <time>2014-09-05T07:47:54Z</time>
      </trkpt>
      <trkpt lat="44.92828" lon="5.39887">
        <ele>1049.9</ele>
        <time>2014-09-05T07:47:59Z</time>
      </trkpt>
      <trkpt lat="44.92827" lon="5.39888">
        <ele>1049.9</ele>
        <time>2014-09-05T07:48:00Z</time>
      </trkpt>
      <trkpt lat="44.92827" lon="5.39888">
        <ele>1049.9</ele>
        <time>2014-09-05T07:48:01Z</time>
      </trkpt>
      <trkpt lat="44.92825" lon="5.39889">
        <ele>1050.38</ele>
        <time>2014-09-05T07:48:02Z</time>
      </trkpt>
      <trkpt lat="44.92824" lon="5.39889">
        <ele>1050.86</ele>
        <time>2014-09-05T07:48:03Z</time>
      </trkpt>
      <trkpt lat="44.92821" lon="5.39888">
        <ele>1050.86</ele>
        <time>2014-09-05T07:48:13Z</time>
      </trkpt>
      <trkpt lat="44.9282" lon="5.39887">
        <ele>1050.86</ele>
        <time>2014-09-05T07:48:27Z</time>
      </trkpt>
      <trkpt lat="44.92819" lon="5.39887">
        <ele>1050.86</ele>
        <time>2014-09-05T07:48:28Z</time>
      </trkpt>
      <trkpt lat="44.92818" lon="5.39886">
        <ele>1050.86</ele>
        <time>2014-09-05T07:48:29Z</time>
      </trkpt>
      <trkpt lat="44.92807" lon="5.39887">
        <ele>1050.38</ele>
        <time>2014-09-05T07:48:40Z</time>
      </trkpt>
      <trkpt lat="44.92802" lon="5.39888">
        <ele>1049.42</ele>
        <time>2014-09-05T07:48:49Z</time>
      </trkpt>
      <trkpt lat="44.928" lon="5.39889">
        <ele>1049.9</ele>
        <time>2014-09-05T07:48:50Z</time>
      </trkpt>
      <trkpt lat="44.92798" lon="5.39891">
        <ele>1048.94</ele>
        <time>2014-09-05T07:48:51Z</time>
      </trkpt>
      <trkpt lat="44.92789" lon="5.39916">
        <ele>1049.9</ele>
        <time>2014-09-05T07:49:00Z</time>
      </trkpt>
      <trkpt lat="44.92788" lon="5.39927">
        <ele>1051.34</ele>
        <time>2014-09-05T07:49:08Z</time>
      </trkpt>
      <trkpt lat="44.92786" lon="5.39937">
        <ele>1052.78</ele>
        <time>2014-09-05T07:49:16Z</time>
      </trkpt>
      <trkpt lat="44.92786" lon="5.39938">
        <ele>1052.78</ele>
        <time>2014-09-05T07:49:17Z</time>
      </trkpt>
      <trkpt lat="44.92785" lon="5.39941">
        <ele>1053.26</ele>
        <time>2014-09-05T07:49:19Z</time>
      </trkpt>
      <trkpt lat="44.92775" lon="5.39949">
        <ele>1054.22</ele>
        <time>2014-09-05T07:49:28Z</time>
      </trkpt>
      <trkpt lat="44.9277" lon="5.39953">
        <ele>1054.7</ele>
        <time>2014-09-05T07:49:35Z</time>
      </trkpt>
      <trkpt lat="44.92766" lon="5.3996">
        <ele>1056.15</ele>
        <time>2014-09-05T07:49:42Z</time>
      </trkpt>
      <trkpt lat="44.92764" lon="5.39966">
        <ele>1055.67</ele>
        <time>2014-09-05T07:49:50Z</time>
      </trkpt>
      <trkpt lat="44.92757" lon="5.39972">
        <ele>1056.15</ele>
        <time>2014-09-05T07:49:55Z</time>
      </trkpt>
      <trkpt lat="44.92756" lon="5.39974">
        <ele>1056.15</ele>
        <time>2014-09-05T07:49:56Z</time>
      </trkpt>
      <trkpt lat="44.92755" lon="5.39976">
        <ele>1056.15</ele>
        <time>2014-09-05T07:49:57Z</time>
      </trkpt>
      <trkpt lat="44.92754" lon="5.39978">
        <ele>1056.15</ele>
        <time>2014-09-05T07:49:58Z</time>
      </trkpt>
      <trkpt lat="44.92753" lon="5.3998">
        <ele>1056.15</ele>
        <time>2014-09-05T07:49:59Z</time>
      </trkpt>
      <trkpt lat="44.92752" lon="5.39981">
        <ele>1055.67</ele>
        <time>2014-09-05T07:50:04Z</time>
      </trkpt>
      <trkpt lat="44.92751" lon="5.39982">
        <ele>1055.67</ele>
        <time>2014-09-05T07:50:05Z</time>
      </trkpt>
      <trkpt lat="44.92749" lon="5.39983">
        <ele>1055.67</ele>
        <time>2014-09-05T07:50:06Z</time>
      </trkpt>
      <trkpt lat="44.92745" lon="5.3999">
        <ele>1054.22</ele>
        <time>2014-09-05T07:50:15Z</time>
      </trkpt>
      <trkpt lat="44.92741" lon="5.39996">
        <ele>1053.26</ele>
        <time>2014-09-05T07:50:23Z</time>
      </trkpt>
      <trkpt lat="44.92737" lon="5.39997">
        <ele>1052.78</ele>
        <time>2014-09-05T07:50:28Z</time>
      </trkpt>
      <trkpt lat="44.92728" lon="5.40006">
        <ele>1050.38</ele>
        <time>2014-09-05T07:50:40Z</time>
      </trkpt>
      <trkpt lat="44.92723" lon="5.40012">
        <ele>1049.9</ele>
        <time>2014-09-05T07:50:50Z</time>
      </trkpt>
      <trkpt lat="44.92722" lon="5.40013">
        <ele>1049.42</ele>
        <time>2014-09-05T07:50:51Z</time>
      </trkpt>
      <trkpt lat="44.92721" lon="5.40014">
        <ele>1049.42</ele>
        <time>2014-09-05T07:50:52Z</time>
      </trkpt>
      <trkpt lat="44.9272" lon="5.40015">
        <ele>1048.94</ele>
        <time>2014-09-05T07:50:53Z</time>
      </trkpt>
      <trkpt lat="44.92719" lon="5.40017">
        <ele>1048.94</ele>
        <time>2014-09-05T07:50:54Z</time>
      </trkpt>
      <trkpt lat="44.92718" lon="5.40019">
        <ele>1048.94</ele>
        <time>2014-09-05T07:51:02Z</time>
      </trkpt>
      <trkpt lat="44.92712" lon="5.40033">
        <ele>1048.45</ele>
        <time>2014-09-05T07:51:10Z</time>
      </trkpt>
      <trkpt lat="44.92708" lon="5.4004">
        <ele>1048.94</ele>
        <time>2014-09-05T07:51:13Z</time>
      </trkpt>
      <trkpt lat="44.92706" lon="5.40045">
        <ele>1049.42</ele>
        <time>2014-09-05T07:51:19Z</time>
      </trkpt>
      <trkpt lat="44.92706" lon="5.40046">
        <ele>1049.42</ele>
        <time>2014-09-05T07:51:20Z</time>
      </trkpt>
      <trkpt lat="44.92695" lon="5.40055">
        <ele>1049.42</ele>
        <time>2014-09-05T07:51:31Z</time>
      </trkpt>
      <trkpt lat="44.92689" lon="5.40054">
        <ele>1048.94</ele>
        <time>2014-09-05T07:51:37Z</time>
      </trkpt>
      <trkpt lat="44.92688" lon="5.40053">
        <ele>1048.94</ele>
        <time>2014-09-05T07:51:38Z</time>
      </trkpt>
      <trkpt lat="44.92687" lon="5.40052">
        <ele>1048.94</ele>
        <time>2014-09-05T07:51:39Z</time>
      </trkpt>
      <trkpt lat="44.92686" lon="5.4005">
        <ele>1048.94</ele>
        <time>2014-09-05T07:51:40Z</time>
      </trkpt>
      <trkpt lat="44.9268" lon="5.40042">
        <ele>1049.9</ele>
        <time>2014-09-05T07:51:47Z</time>
      </trkpt>
      <trkpt lat="44.92679" lon="5.4004">
        <ele>1049.42</ele>
        <time>2014-09-05T07:51:48Z</time>
      </trkpt>
      <trkpt lat="44.92678" lon="5.40039">
        <ele>1049.9</ele>
        <time>2014-09-05T07:51:49Z</time>
      </trkpt>
      <trkpt lat="44.92675" lon="5.40038">
        <ele>1049.9</ele>
        <time>2014-09-05T07:51:52Z</time>
      </trkpt>
      <trkpt lat="44.92674" lon="5.40038">
        <ele>1049.9</ele>
        <time>2014-09-05T07:51:53Z</time>
      </trkpt>
      <trkpt lat="44.92674" lon="5.40039">
        <ele>1049.9</ele>
        <time>2014-09-05T07:51:54Z</time>
      </trkpt>
      <trkpt lat="44.92666" lon="5.40038">
        <ele>1049.42</ele>
        <time>2014-09-05T07:52:01Z</time>
      </trkpt>
      <trkpt lat="44.92664" lon="5.40039">
        <ele>1049.9</ele>
        <time>2014-09-05T07:52:02Z</time>
      </trkpt>
      <trkpt lat="44.92663" lon="5.4004">
        <ele>1049.9</ele>
        <time>2014-09-05T07:52:03Z</time>
      </trkpt>
      <trkpt lat="44.92662" lon="5.40041">
        <ele>1049.42</ele>
        <time>2014-09-05T07:52:04Z</time>
      </trkpt>
      <trkpt lat="44.92661" lon="5.40043">
        <ele>1049.42</ele>
        <time>2014-09-05T07:52:05Z</time>
      </trkpt>
      <trkpt lat="44.92661" lon="5.40044">
        <ele>1049.42</ele>
        <time>2014-09-05T07:52:06Z</time>
      </trkpt>
      <trkpt lat="44.92655" lon="5.40057">
        <ele>1048.45</ele>
        <time>2014-09-05T07:52:17Z</time>
      </trkpt>
      <trkpt lat="44.92649" lon="5.40053">
        <ele>1047.49</ele>
        <time>2014-09-05T07:52:26Z</time>
      </trkpt>
      <trkpt lat="44.92644" lon="5.40058">
        <ele>1046.05</ele>
        <time>2014-09-05T07:52:35Z</time>
      </trkpt>
      <trkpt lat="44.92643" lon="5.40059">
        <ele>1045.57</ele>
        <time>2014-09-05T07:52:36Z</time>
      </trkpt>
      <trkpt lat="44.92642" lon="5.4006">
        <ele>1045.09</ele>
        <time>2014-09-05T07:52:37Z</time>
      </trkpt>
      <trkpt lat="44.92641" lon="5.40061">
        <ele>1045.09</ele>
        <time>2014-09-05T07:52:38Z</time>
      </trkpt>
      <trkpt lat="44.9264" lon="5.40063">
        <ele>1045.09</ele>
        <time>2014-09-05T07:52:39Z</time>
      </trkpt>
      <trkpt lat="44.9264" lon="5.40064">
        <ele>1045.09</ele>
        <time>2014-09-05T07:52:40Z</time>
      </trkpt>
      <trkpt lat="44.92638" lon="5.40066">
        <ele>1044.61</ele>
        <time>2014-09-05T07:52:48Z</time>
      </trkpt>
      <trkpt lat="44.92638" lon="5.40066">
        <ele>1044.61</ele>
        <time>2014-09-05T07:53:23Z</time>
      </trkpt>
      <trkpt lat="44.92638" lon="5.40066">
        <ele>1044.13</ele>
        <time>2014-09-05T07:53:53Z</time>
      </trkpt>
      <trkpt lat="44.92637" lon="5.40066">
        <ele>1044.13</ele>
        <time>2014-09-05T07:54:15Z</time>
      </trkpt>
      <trkpt lat="44.92635" lon="5.40065">
        <ele>1044.13</ele>
        <time>2014-09-05T07:54:16Z</time>
      </trkpt>
      <trkpt lat="44.92635" lon="5.40064">
        <ele>1044.13</ele>
        <time>2014-09-05T07:54:17Z</time>
      </trkpt>
      <trkpt lat="44.92634" lon="5.40062">
        <ele>1044.13</ele>
        <time>2014-09-05T07:54:18Z</time>
      </trkpt>
      <trkpt lat="44.92633" lon="5.4006">
        <ele>1044.13</ele>
        <time>2014-09-05T07:54:19Z</time>
      </trkpt>
      <trkpt lat="44.92633" lon="5.40058">
        <ele>1044.61</ele>
        <time>2014-09-05T07:54:20Z</time>
      </trkpt>
      <trkpt lat="44.92633" lon="5.40056">
        <ele>1044.13</ele>
        <time>2014-09-05T07:54:21Z</time>
      </trkpt>
      <trkpt lat="44.92633" lon="5.40054">
        <ele>1044.61</ele>
        <time>2014-09-05T07:54:22Z</time>
      </trkpt>
      <trkpt lat="44.92633" lon="5.40052">
        <ele>1045.09</ele>
        <time>2014-09-05T07:54:23Z</time>
      </trkpt>
      <trkpt lat="44.92626" lon="5.40045">
        <ele>1046.05</ele>
        <time>2014-09-05T07:54:33Z</time>
      </trkpt>
      <trkpt lat="44.92619" lon="5.40037">
        <ele>1047.97</ele>
        <time>2014-09-05T07:54:41Z</time>
      </trkpt>
      <trkpt lat="44.92618" lon="5.40035">
        <ele>1047.97</ele>
        <time>2014-09-05T07:54:42Z</time>
      </trkpt>
      <trkpt lat="44.92617" lon="5.40034">
        <ele>1048.45</ele>
        <time>2014-09-05T07:54:43Z</time>
      </trkpt>
      <trkpt lat="44.92611" lon="5.4003">
        <ele>1049.42</ele>
        <time>2014-09-05T07:54:50Z</time>
      </trkpt>
      <trkpt lat="44.92603" lon="5.4002">
        <ele>1050.38</ele>
        <time>2014-09-05T07:55:00Z</time>
      </trkpt>
      <trkpt lat="44.92601" lon="5.40017">
        <ele>1050.86</ele>
        <time>2014-09-05T07:55:08Z</time>
      </trkpt>
      <trkpt lat="44.92596" lon="5.40011">
        <ele>1050.86</ele>
        <time>2014-09-05T07:55:12Z</time>
      </trkpt>
      <trkpt lat="44.92595" lon="5.40009">
        <ele>1050.86</ele>
        <time>2014-09-05T07:55:13Z</time>
      </trkpt>
      <trkpt lat="44.9258" lon="5.39982">
        <ele>1050.38</ele>
        <time>2014-09-05T07:55:22Z</time>
      </trkpt>
      <trkpt lat="44.92569" lon="5.39947">
        <ele>1051.82</ele>
        <time>2014-09-05T07:55:32Z</time>
      </trkpt>
      <trkpt lat="44.92558" lon="5.39933">
        <ele>1053.26</ele>
        <time>2014-09-05T07:55:39Z</time>
      </trkpt>
      <trkpt lat="44.92558" lon="5.39931">
        <ele>1053.74</ele>
        <time>2014-09-05T07:55:40Z</time>
      </trkpt>
      <trkpt lat="44.92556" lon="5.39929">
        <ele>1053.26</ele>
        <time>2014-09-05T07:55:41Z</time>
      </trkpt>
      <trkpt lat="44.92555" lon="5.39926">
        <ele>1053.74</ele>
        <time>2014-09-05T07:55:42Z</time>
      </trkpt>
      <trkpt lat="44.92554" lon="5.39925">
        <ele>1053.26</ele>
        <time>2014-09-05T07:55:43Z</time>
      </trkpt>
      <trkpt lat="44.92553" lon="5.39924">
        <ele>1053.74</ele>
        <time>2014-09-05T07:55:44Z</time>
      </trkpt>
      <trkpt lat="44.92551" lon="5.39924">
        <ele>1053.74</ele>
        <time>2014-09-05T07:55:45Z</time>
      </trkpt>
      <trkpt lat="44.9255" lon="5.39923">
        <ele>1053.74</ele>
        <time>2014-09-05T07:55:46Z</time>
      </trkpt>
      <trkpt lat="44.92548" lon="5.39922">
        <ele>1053.74</ele>
        <time>2014-09-05T07:55:47Z</time>
      </trkpt>
      <trkpt lat="44.92547" lon="5.39921">
        <ele>1053.74</ele>
        <time>2014-09-05T07:55:48Z</time>
      </trkpt>
      <trkpt lat="44.92545" lon="5.39919">
        <ele>1053.74</ele>
        <time>2014-09-05T07:55:49Z</time>
      </trkpt>
      <trkpt lat="44.92543" lon="5.39918">
        <ele>1053.74</ele>
        <time>2014-09-05T07:55:50Z</time>
      </trkpt>
      <trkpt lat="44.9254" lon="5.39916">
        <ele>1054.7</ele>
        <time>2014-09-05T07:55:52Z</time>
      </trkpt>
      <trkpt lat="44.92526" lon="5.39903">
        <ele>1055.18</ele>
        <time>2014-09-05T07:56:01Z</time>
      </trkpt>
      <trkpt lat="44.92508" lon="5.39883">
        <ele>1056.15</ele>
        <time>2014-09-05T07:56:11Z</time>
      </trkpt>
      <trkpt lat="44.92479" lon="5.3987">
        <ele>1054.7</ele>
        <time>2014-09-05T07:56:21Z</time>
      </trkpt>
      <trkpt lat="44.92475" lon="5.39867">
        <ele>1053.74</ele>
        <time>2014-09-05T07:56:22Z</time>
      </trkpt>
      <trkpt lat="44.92466" lon="5.39858">
        <ele>1052.78</ele>
        <time>2014-09-05T07:56:24Z</time>
      </trkpt>
      <trkpt lat="44.92458" lon="5.3985">
        <ele>1053.26</ele>
        <time>2014-09-05T07:56:26Z</time>
      </trkpt>
      <trkpt lat="44.92434" lon="5.39839">
        <ele>1053.74</ele>
        <time>2014-09-05T07:56:34Z</time>
      </trkpt>
      <trkpt lat="44.92407" lon="5.39834">
        <ele>1052.78</ele>
        <time>2014-09-05T07:56:42Z</time>
      </trkpt>
      <trkpt lat="44.92393" lon="5.3983">
        <ele>1051.34</ele>
        <time>2014-09-05T07:56:47Z</time>
      </trkpt>
      <trkpt lat="44.9239" lon="5.3983">
        <ele>1050.86</ele>
        <time>2014-09-05T07:56:48Z</time>
      </trkpt>
      <trkpt lat="44.92387" lon="5.39831">
        <ele>1050.86</ele>
        <time>2014-09-05T07:56:49Z</time>
      </trkpt>
      <trkpt lat="44.92384" lon="5.39832">
        <ele>1050.86</ele>
        <time>2014-09-05T07:56:50Z</time>
      </trkpt>
      <trkpt lat="44.92382" lon="5.39835">
        <ele>1050.86</ele>
        <time>2014-09-05T07:56:51Z</time>
      </trkpt>
      <trkpt lat="44.9238" lon="5.39838">
        <ele>1050.86</ele>
        <time>2014-09-05T07:56:52Z</time>
      </trkpt>
      <trkpt lat="44.92379" lon="5.39842">
        <ele>1050.86</ele>
        <time>2014-09-05T07:56:53Z</time>
      </trkpt>
      <trkpt lat="44.92378" lon="5.39845">
        <ele>1050.86</ele>
        <time>2014-09-05T07:56:54Z</time>
      </trkpt>
      <trkpt lat="44.9237" lon="5.39871">
        <ele>1051.34</ele>
        <time>2014-09-05T07:57:01Z</time>
      </trkpt>
      <trkpt lat="44.9236" lon="5.39896">
        <ele>1051.82</ele>
        <time>2014-09-05T07:57:07Z</time>
      </trkpt>
      <trkpt lat="44.92359" lon="5.39899">
        <ele>1051.82</ele>
        <time>2014-09-05T07:57:08Z</time>
      </trkpt>
      <trkpt lat="44.92358" lon="5.39902">
        <ele>1051.82</ele>
        <time>2014-09-05T07:57:09Z</time>
      </trkpt>
      <trkpt lat="44.92356" lon="5.39905">
        <ele>1052.78</ele>
        <time>2014-09-05T07:57:10Z</time>
      </trkpt>
      <trkpt lat="44.92354" lon="5.39907">
        <ele>1052.3</ele>
        <time>2014-09-05T07:57:11Z</time>
      </trkpt>
      <trkpt lat="44.92353" lon="5.39909">
        <ele>1052.78</ele>
        <time>2014-09-05T07:57:12Z</time>
      </trkpt>
      <trkpt lat="44.92352" lon="5.39911">
        <ele>1053.26</ele>
        <time>2014-09-05T07:57:13Z</time>
      </trkpt>
      <trkpt lat="44.92351" lon="5.39913">
        <ele>1052.78</ele>
        <time>2014-09-05T07:57:14Z</time>
      </trkpt>
      <trkpt lat="44.9235" lon="5.39916">
        <ele>1052.78</ele>
        <time>2014-09-05T07:57:15Z</time>
      </trkpt>
      <trkpt lat="44.92347" lon="5.39918">
        <ele>1052.3</ele>
        <time>2014-09-05T07:57:16Z</time>
      </trkpt>
      <trkpt lat="44.92344" lon="5.39919">
        <ele>1052.78</ele>
        <time>2014-09-05T07:57:17Z</time>
      </trkpt>
      <trkpt lat="44.92341" lon="5.3992">
        <ele>1052.3</ele>
        <time>2014-09-05T07:57:18Z</time>
      </trkpt>
      <trkpt lat="44.92338" lon="5.39922">
        <ele>1052.3</ele>
        <time>2014-09-05T07:57:19Z</time>
      </trkpt>
      <trkpt lat="44.92335" lon="5.39925">
        <ele>1052.78</ele>
        <time>2014-09-05T07:57:20Z</time>
      </trkpt>
      <trkpt lat="44.92333" lon="5.39929">
        <ele>1052.3</ele>
        <time>2014-09-05T07:57:21Z</time>
      </trkpt>
      <trkpt lat="44.92331" lon="5.39933">
        <ele>1052.78</ele>
        <time>2014-09-05T07:57:22Z</time>
      </trkpt>
      <trkpt lat="44.9233" lon="5.39936">
        <ele>1052.78</ele>
        <time>2014-09-05T07:57:23Z</time>
      </trkpt>
      <trkpt lat="44.92329" lon="5.39938">
        <ele>1053.26</ele>
        <time>2014-09-05T07:57:24Z</time>
      </trkpt>
      <trkpt lat="44.92327" lon="5.39941">
        <ele>1053.26</ele>
        <time>2014-09-05T07:57:25Z</time>
      </trkpt>
      <trkpt lat="44.92326" lon="5.39944">
        <ele>1053.26</ele>
        <time>2014-09-05T07:57:26Z</time>
      </trkpt>
      <trkpt lat="44.92325" lon="5.39946">
        <ele>1053.74</ele>
        <time>2014-09-05T07:57:27Z</time>
      </trkpt>
      <trkpt lat="44.92324" lon="5.39949">
        <ele>1053.74</ele>
        <time>2014-09-05T07:57:28Z</time>
      </trkpt>
      <trkpt lat="44.92322" lon="5.39951">
        <ele>1053.26</ele>
        <time>2014-09-05T07:57:29Z</time>
      </trkpt>
      <trkpt lat="44.92321" lon="5.39954">
        <ele>1053.74</ele>
        <time>2014-09-05T07:57:30Z</time>
      </trkpt>
      <trkpt lat="44.92318" lon="5.39957">
        <ele>1053.26</ele>
        <time>2014-09-05T07:57:31Z</time>
      </trkpt>
      <trkpt lat="44.92316" lon="5.39959">
        <ele>1052.78</ele>
        <time>2014-09-05T07:57:32Z</time>
      </trkpt>
      <trkpt lat="44.923" lon="5.39982">
        <ele>1052.3</ele>
        <time>2014-09-05T07:57:39Z</time>
      </trkpt>
      <trkpt lat="44.92295" lon="5.40018">
        <ele>1052.3</ele>
        <time>2014-09-05T07:57:47Z</time>
      </trkpt>
      <trkpt lat="44.92289" lon="5.40055">
        <ele>1052.78</ele>
        <time>2014-09-05T07:57:56Z</time>
      </trkpt>
      <trkpt lat="44.92274" lon="5.40083">
        <ele>1052.3</ele>
        <time>2014-09-05T07:58:04Z</time>
      </trkpt>
      <trkpt lat="44.92248" lon="5.40092">
        <ele>1052.78</ele>
        <time>2014-09-05T07:58:13Z</time>
      </trkpt>
      <trkpt lat="44.92234" lon="5.40093">
        <ele>1055.18</ele>
        <time>2014-09-05T07:58:20Z</time>
      </trkpt>
      <trkpt lat="44.92225" lon="5.40095">
        <ele>1055.18</ele>
        <time>2014-09-05T07:58:24Z</time>
      </trkpt>
      <trkpt lat="44.92223" lon="5.40095">
        <ele>1055.18</ele>
        <time>2014-09-05T07:58:25Z</time>
      </trkpt>
      <trkpt lat="44.92221" lon="5.40094">
        <ele>1055.67</ele>
        <time>2014-09-05T07:58:26Z</time>
      </trkpt>
      <trkpt lat="44.92218" lon="5.40093">
        <ele>1055.18</ele>
        <time>2014-09-05T07:58:27Z</time>
      </trkpt>
      <trkpt lat="44.92216" lon="5.40093">
        <ele>1055.18</ele>
        <time>2014-09-05T07:58:28Z</time>
      </trkpt>
      <trkpt lat="44.92214" lon="5.40092">
        <ele>1055.18</ele>
        <time>2014-09-05T07:58:29Z</time>
      </trkpt>
      <trkpt lat="44.92193" lon="5.4008">
        <ele>1056.15</ele>
        <time>2014-09-05T07:58:39Z</time>
      </trkpt>
      <trkpt lat="44.92181" lon="5.40064">
        <ele>1057.59</ele>
        <time>2014-09-05T07:58:49Z</time>
      </trkpt>
      <trkpt lat="44.92173" lon="5.40041">
        <ele>1058.55</ele>
        <time>2014-09-05T07:58:58Z</time>
      </trkpt>
      <trkpt lat="44.92172" lon="5.40039">
        <ele>1058.07</ele>
        <time>2014-09-05T07:58:59Z</time>
      </trkpt>
      <trkpt lat="44.9217" lon="5.40037">
        <ele>1058.07</ele>
        <time>2014-09-05T07:59:00Z</time>
      </trkpt>
      <trkpt lat="44.92169" lon="5.40034">
        <ele>1058.07</ele>
        <time>2014-09-05T07:59:01Z</time>
      </trkpt>
      <trkpt lat="44.92167" lon="5.40032">
        <ele>1058.07</ele>
        <time>2014-09-05T07:59:02Z</time>
      </trkpt>
      <trkpt lat="44.92165" lon="5.4003">
        <ele>1058.07</ele>
        <time>2014-09-05T07:59:03Z</time>
      </trkpt>
      <trkpt lat="44.92164" lon="5.40028">
        <ele>1058.07</ele>
        <time>2014-09-05T07:59:04Z</time>
      </trkpt>
      <trkpt lat="44.92162" lon="5.40027">
        <ele>1058.55</ele>
        <time>2014-09-05T07:59:05Z</time>
      </trkpt>
      <trkpt lat="44.92154" lon="5.40021">
        <ele>1059.03</ele>
        <time>2014-09-05T07:59:10Z</time>
      </trkpt>
      <trkpt lat="44.92152" lon="5.4002">
        <ele>1059.51</ele>
        <time>2014-09-05T07:59:11Z</time>
      </trkpt>
      <trkpt lat="44.92136" lon="5.4002">
        <ele>1060.95</ele>
        <time>2014-09-05T07:59:21Z</time>
      </trkpt>
      <trkpt lat="44.92117" lon="5.40006">
        <ele>1062.87</ele>
        <time>2014-09-05T07:59:32Z</time>
      </trkpt>
      <trkpt lat="44.92097" lon="5.39992">
        <ele>1063.84</ele>
        <time>2014-09-05T07:59:43Z</time>
      </trkpt>
      <trkpt lat="44.92077" lon="5.3998">
        <ele>1064.8</ele>
        <time>2014-09-05T07:59:54Z</time>
      </trkpt>
      <trkpt lat="44.92058" lon="5.39973">
        <ele>1065.28</ele>
        <time>2014-09-05T08:00:03Z</time>
      </trkpt>
      <trkpt lat="44.92043" lon="5.39969">
        <ele>1063.84</ele>
        <time>2014-09-05T08:00:08Z</time>
      </trkpt>
      <trkpt lat="44.92039" lon="5.39966">
        <ele>1063.84</ele>
        <time>2014-09-05T08:00:09Z</time>
      </trkpt>
      <trkpt lat="44.92012" lon="5.39945">
        <ele>1063.84</ele>
        <time>2014-09-05T08:00:18Z</time>
      </trkpt>
      <trkpt lat="44.91992" lon="5.3994">
        <ele>1065.76</ele>
        <time>2014-09-05T08:00:28Z</time>
      </trkpt>
      <trkpt lat="44.91974" lon="5.39932">
        <ele>1067.68</ele>
        <time>2014-09-05T08:00:38Z</time>
      </trkpt>
      <trkpt lat="44.91974" lon="5.39932">
        <ele>1067.68</ele>
        <time>2014-09-05T08:00:46Z</time>
      </trkpt>
      <trkpt lat="44.9197" lon="5.39931">
        <ele>1068.16</ele>
        <time>2014-09-05T08:01:07Z</time>
      </trkpt>
      <trkpt lat="44.91963" lon="5.39929">
        <ele>1067.68</ele>
        <time>2014-09-05T08:01:10Z</time>
      </trkpt>
      <trkpt lat="44.91936" lon="5.39931">
        <ele>1066.24</ele>
        <time>2014-09-05T08:01:18Z</time>
      </trkpt>
      <trkpt lat="44.91907" lon="5.39919">
        <ele>1065.76</ele>
        <time>2014-09-05T08:01:26Z</time>
      </trkpt>
      <trkpt lat="44.91881" lon="5.39922">
        <ele>1065.76</ele>
        <time>2014-09-05T08:01:35Z</time>
      </trkpt>
      <trkpt lat="44.91858" lon="5.39926">
        <ele>1065.76</ele>
        <time>2014-09-05T08:01:43Z</time>
      </trkpt>
      <trkpt lat="44.91843" lon="5.3993">
        <ele>1065.28</ele>
        <time>2014-09-05T08:01:52Z</time>
      </trkpt>
      <trkpt lat="44.91843" lon="5.3993">
        <ele>1065.28</ele>
        <time>2014-09-05T08:02:14Z</time>
      </trkpt>
      <trkpt lat="44.91841" lon="5.39932">
        <ele>1065.28</ele>
        <time>2014-09-05T08:02:16Z</time>
      </trkpt>
      <trkpt lat="44.91839" lon="5.39932">
        <ele>1065.28</ele>
        <time>2014-09-05T08:02:17Z</time>
      </trkpt>
      <trkpt lat="44.91837" lon="5.39932">
        <ele>1065.28</ele>
        <time>2014-09-05T08:02:18Z</time>
      </trkpt>
      <trkpt lat="44.91835" lon="5.39933">
        <ele>1065.28</ele>
        <time>2014-09-05T08:02:19Z</time>
      </trkpt>
      <trkpt lat="44.91832" lon="5.39934">
        <ele>1065.28</ele>
        <time>2014-09-05T08:02:20Z</time>
      </trkpt>
      <trkpt lat="44.91828" lon="5.39934">
        <ele>1065.28</ele>
        <time>2014-09-05T08:02:21Z</time>
      </trkpt>
      <trkpt lat="44.91825" lon="5.39933">
        <ele>1064.32</ele>
        <time>2014-09-05T08:02:22Z</time>
      </trkpt>
      <trkpt lat="44.91821" lon="5.39933">
        <ele>1064.8</ele>
        <time>2014-09-05T08:02:23Z</time>
      </trkpt>
      <trkpt lat="44.91818" lon="5.39933">
        <ele>1064.32</ele>
        <time>2014-09-05T08:02:24Z</time>
      </trkpt>
      <trkpt lat="44.91814" lon="5.39932">
        <ele>1064.8</ele>
        <time>2014-09-05T08:02:25Z</time>
      </trkpt>
      <trkpt lat="44.91784" lon="5.39936">
        <ele>1064.32</ele>
        <time>2014-09-05T08:02:35Z</time>
      </trkpt>
      <trkpt lat="44.91773" lon="5.39952">
        <ele>1062.87</ele>
        <time>2014-09-05T08:02:43Z</time>
      </trkpt>
      <trkpt lat="44.91765" lon="5.39975">
        <ele>1059.99</ele>
        <time>2014-09-05T08:02:48Z</time>
      </trkpt>
      <trkpt lat="44.9176" lon="5.39991">
        <ele>1058.55</ele>
        <time>2014-09-05T08:02:51Z</time>
      </trkpt>
      <trkpt lat="44.91757" lon="5.39997">
        <ele>1058.55</ele>
        <time>2014-09-05T08:02:52Z</time>
      </trkpt>
      <trkpt lat="44.91754" lon="5.40002">
        <ele>1058.07</ele>
        <time>2014-09-05T08:02:53Z</time>
      </trkpt>
      <trkpt lat="44.91752" lon="5.40006">
        <ele>1058.07</ele>
        <time>2014-09-05T08:02:54Z</time>
      </trkpt>
      <trkpt lat="44.91748" lon="5.4001">
        <ele>1057.11</ele>
        <time>2014-09-05T08:02:55Z</time>
      </trkpt>
      <trkpt lat="44.91744" lon="5.40015">
        <ele>1056.15</ele>
        <time>2014-09-05T08:02:56Z</time>
      </trkpt>
      <trkpt lat="44.91738" lon="5.4002">
        <ele>1056.15</ele>
        <time>2014-09-05T08:02:57Z</time>
      </trkpt>
      <trkpt lat="44.91733" lon="5.40023">
        <ele>1056.63</ele>
        <time>2014-09-05T08:02:58Z</time>
      </trkpt>
      <trkpt lat="44.91709" lon="5.40052">
        <ele>1056.63</ele>
        <time>2014-09-05T08:03:06Z</time>
      </trkpt>
      <trkpt lat="44.91703" lon="5.4006">
        <ele>1055.67</ele>
        <time>2014-09-05T08:03:08Z</time>
      </trkpt>
      <trkpt lat="44.91696" lon="5.40068">
        <ele>1055.67</ele>
        <time>2014-09-05T08:03:10Z</time>
      </trkpt>
      <trkpt lat="44.91688" lon="5.40075">
        <ele>1055.18</ele>
        <time>2014-09-05T08:03:12Z</time>
      </trkpt>
      <trkpt lat="44.91679" lon="5.40082">
        <ele>1054.22</ele>
        <time>2014-09-05T08:03:14Z</time>
      </trkpt>
      <trkpt lat="44.91675" lon="5.40087">
        <ele>1053.74</ele>
        <time>2014-09-05T08:03:15Z</time>
      </trkpt>
      <trkpt lat="44.91671" lon="5.40093">
        <ele>1053.74</ele>
        <time>2014-09-05T08:03:16Z</time>
      </trkpt>
      <trkpt lat="44.91657" lon="5.40114">
        <ele>1054.22</ele>
        <time>2014-09-05T08:03:20Z</time>
      </trkpt>
      <trkpt lat="44.91653" lon="5.40119">
        <ele>1053.74</ele>
        <time>2014-09-05T08:03:21Z</time>
      </trkpt>
      <trkpt lat="44.91634" lon="5.40148">
        <ele>1054.22</ele>
        <time>2014-09-05T08:03:29Z</time>
      </trkpt>
      <trkpt lat="44.91632" lon="5.40151">
        <ele>1054.7</ele>
        <time>2014-09-05T08:03:30Z</time>
      </trkpt>
      <trkpt lat="44.91629" lon="5.40154">
        <ele>1054.7</ele>
        <time>2014-09-05T08:03:31Z</time>
      </trkpt>
      <trkpt lat="44.91626" lon="5.40157">
        <ele>1054.7</ele>
        <time>2014-09-05T08:03:32Z</time>
      </trkpt>
      <trkpt lat="44.91623" lon="5.4016">
        <ele>1055.18</ele>
        <time>2014-09-05T08:03:33Z</time>
      </trkpt>
      <trkpt lat="44.91601" lon="5.4019">
        <ele>1056.15</ele>
        <time>2014-09-05T08:03:43Z</time>
      </trkpt>
      <trkpt lat="44.91592" lon="5.40202">
        <ele>1057.59</ele>
        <time>2014-09-05T08:03:48Z</time>
      </trkpt>
      <trkpt lat="44.91576" lon="5.40215">
        <ele>1059.03</ele>
        <time>2014-09-05T08:03:56Z</time>
      </trkpt>
      <trkpt lat="44.91575" lon="5.40217">
        <ele>1059.03</ele>
        <time>2014-09-05T08:03:57Z</time>
      </trkpt>
      <trkpt lat="44.91575" lon="5.4022">
        <ele>1059.99</ele>
        <time>2014-09-05T08:03:58Z</time>
      </trkpt>
      <trkpt lat="44.91575" lon="5.40223">
        <ele>1059.99</ele>
        <time>2014-09-05T08:03:59Z</time>
      </trkpt>
      <trkpt lat="44.91576" lon="5.40226">
        <ele>1059.99</ele>
        <time>2014-09-05T08:04:00Z</time>
      </trkpt>
      <trkpt lat="44.91577" lon="5.40229">
        <ele>1059.51</ele>
        <time>2014-09-05T08:04:01Z</time>
      </trkpt>
      <trkpt lat="44.91587" lon="5.40261">
        <ele>1059.51</ele>
        <time>2014-09-05T08:04:10Z</time>
      </trkpt>
      <trkpt lat="44.91589" lon="5.40267">
        <ele>1059.51</ele>
        <time>2014-09-05T08:04:11Z</time>
      </trkpt>
      <trkpt lat="44.9159" lon="5.40274">
        <ele>1059.51</ele>
        <time>2014-09-05T08:04:12Z</time>
      </trkpt>
      <trkpt lat="44.91591" lon="5.40287">
        <ele>1059.03</ele>
        <time>2014-09-05T08:04:14Z</time>
      </trkpt>
      <trkpt lat="44.91587" lon="5.40317">
        <ele>1059.99</ele>
        <time>2014-09-05T08:04:21Z</time>
      </trkpt>
      <trkpt lat="44.91579" lon="5.40356">
        <ele>1061.43</ele>
        <time>2014-09-05T08:04:32Z</time>
      </trkpt>
      <trkpt lat="44.91571" lon="5.40381">
        <ele>1063.84</ele>
        <time>2014-09-05T08:04:41Z</time>
      </trkpt>
      <trkpt lat="44.91566" lon="5.4041">
        <ele>1063.84</ele>
        <time>2014-09-05T08:04:50Z</time>
      </trkpt>
      <trkpt lat="44.9156" lon="5.40441">
        <ele>1064.32</ele>
        <time>2014-09-05T08:04:58Z</time>
      </trkpt>
      <trkpt lat="44.91559" lon="5.40467">
        <ele>1065.28</ele>
        <time>2014-09-05T08:05:07Z</time>
      </trkpt>
      <trkpt lat="44.91546" lon="5.40482">
        <ele>1067.68</ele>
        <time>2014-09-05T08:05:17Z</time>
      </trkpt>
      <trkpt lat="44.91534" lon="5.40499">
        <ele>1069.6</ele>
        <time>2014-09-05T08:05:27Z</time>
      </trkpt>
      <trkpt lat="44.91523" lon="5.40507">
        <ele>1071.05</ele>
        <time>2014-09-05T08:05:36Z</time>
      </trkpt>
      <trkpt lat="44.91511" lon="5.40513">
        <ele>1072.01</ele>
        <time>2014-09-05T08:05:45Z</time>
      </trkpt>
      <trkpt lat="44.91501" lon="5.40528">
        <ele>1073.45</ele>
        <time>2014-09-05T08:05:54Z</time>
      </trkpt>
      <trkpt lat="44.91499" lon="5.4053">
        <ele>1072.97</ele>
        <time>2014-09-05T08:05:55Z</time>
      </trkpt>
      <trkpt lat="44.91497" lon="5.40532">
        <ele>1073.45</ele>
        <time>2014-09-05T08:05:56Z</time>
      </trkpt>
      <trkpt lat="44.91489" lon="5.40556">
        <ele>1073.93</ele>
        <time>2014-09-05T08:06:06Z</time>
      </trkpt>
      <trkpt lat="44.91478" lon="5.40575">
        <ele>1075.37</ele>
        <time>2014-09-05T08:06:16Z</time>
      </trkpt>
      <trkpt lat="44.91462" lon="5.40593">
        <ele>1076.81</ele>
        <time>2014-09-05T08:06:27Z</time>
      </trkpt>
      <trkpt lat="44.91452" lon="5.406">
        <ele>1078.26</ele>
        <time>2014-09-05T08:06:35Z</time>
      </trkpt>
      <trkpt lat="44.91444" lon="5.40608">
        <ele>1078.74</ele>
        <time>2014-09-05T08:06:41Z</time>
      </trkpt>
      <trkpt lat="44.91443" lon="5.40609">
        <ele>1079.7</ele>
        <time>2014-09-05T08:06:42Z</time>
      </trkpt>
      <trkpt lat="44.91439" lon="5.40612">
        <ele>1079.7</ele>
        <time>2014-09-05T08:06:46Z</time>
      </trkpt>
      <trkpt lat="44.91426" lon="5.40626">
        <ele>1082.1</ele>
        <time>2014-09-05T08:06:58Z</time>
      </trkpt>
      <trkpt lat="44.91415" lon="5.40637">
        <ele>1084.5</ele>
        <time>2014-09-05T08:07:09Z</time>
      </trkpt>
      <trkpt lat="44.91414" lon="5.40637">
        <ele>1084.5</ele>
        <time>2014-09-05T08:07:10Z</time>
      </trkpt>
      <trkpt lat="44.91404" lon="5.40637">
        <ele>1085.95</ele>
        <time>2014-09-05T08:07:19Z</time>
      </trkpt>
      <trkpt lat="44.91399" lon="5.40638">
        <ele>1085.95</ele>
        <time>2014-09-05T08:07:26Z</time>
      </trkpt>
      <trkpt lat="44.91398" lon="5.4064">
        <ele>1085.95</ele>
        <time>2014-09-05T08:07:31Z</time>
      </trkpt>
      <trkpt lat="44.91391" lon="5.4064">
        <ele>1085.95</ele>
        <time>2014-09-05T08:07:35Z</time>
      </trkpt>
      <trkpt lat="44.91389" lon="5.40641">
        <ele>1086.43</ele>
        <time>2014-09-05T08:07:36Z</time>
      </trkpt>
      <trkpt lat="44.91387" lon="5.40641">
        <ele>1086.91</ele>
        <time>2014-09-05T08:07:37Z</time>
      </trkpt>
      <trkpt lat="44.91385" lon="5.40641">
        <ele>1086.91</ele>
        <time>2014-09-05T08:07:38Z</time>
      </trkpt>
      <trkpt lat="44.91383" lon="5.40641">
        <ele>1087.39</ele>
        <time>2014-09-05T08:07:39Z</time>
      </trkpt>
      <trkpt lat="44.91382" lon="5.40642">
        <ele>1087.39</ele>
        <time>2014-09-05T08:07:40Z</time>
      </trkpt>
      <trkpt lat="44.9138" lon="5.40641">
        <ele>1087.87</ele>
        <time>2014-09-05T08:07:41Z</time>
      </trkpt>
      <trkpt lat="44.91378" lon="5.40641">
        <ele>1087.87</ele>
        <time>2014-09-05T08:07:42Z</time>
      </trkpt>
      <trkpt lat="44.91377" lon="5.40641">
        <ele>1087.87</ele>
        <time>2014-09-05T08:07:43Z</time>
      </trkpt>
      <trkpt lat="44.91375" lon="5.40641">
        <ele>1087.87</ele>
        <time>2014-09-05T08:07:44Z</time>
      </trkpt>
      <trkpt lat="44.91373" lon="5.40641">
        <ele>1088.35</ele>
        <time>2014-09-05T08:07:45Z</time>
      </trkpt>
      <trkpt lat="44.91372" lon="5.40641">
        <ele>1088.35</ele>
        <time>2014-09-05T08:07:46Z</time>
      </trkpt>
      <trkpt lat="44.9137" lon="5.40642">
        <ele>1088.35</ele>
        <time>2014-09-05T08:07:47Z</time>
      </trkpt>
      <trkpt lat="44.91369" lon="5.40642">
        <ele>1088.83</ele>
        <time>2014-09-05T08:07:48Z</time>
      </trkpt>
      <trkpt lat="44.91367" lon="5.40643">
        <ele>1089.31</ele>
        <time>2014-09-05T08:07:49Z</time>
      </trkpt>
      <trkpt lat="44.91366" lon="5.40643">
        <ele>1088.83</ele>
        <time>2014-09-05T08:07:50Z</time>
      </trkpt>
      <trkpt lat="44.91364" lon="5.40643">
        <ele>1089.31</ele>
        <time>2014-09-05T08:07:51Z</time>
      </trkpt>
      <trkpt lat="44.91363" lon="5.40643">
        <ele>1089.79</ele>
        <time>2014-09-05T08:07:52Z</time>
      </trkpt>
      <trkpt lat="44.91348" lon="5.40638">
        <ele>1091.23</ele>
        <time>2014-09-05T08:08:03Z</time>
      </trkpt>
      <trkpt lat="44.91338" lon="5.40635">
        <ele>1092.2</ele>
        <time>2014-09-05T08:08:09Z</time>
      </trkpt>
      <trkpt lat="44.91336" lon="5.40634">
        <ele>1092.2</ele>
        <time>2014-09-05T08:08:10Z</time>
      </trkpt>
      <trkpt lat="44.91335" lon="5.40634">
        <ele>1092.2</ele>
        <time>2014-09-05T08:08:11Z</time>
      </trkpt>
      <trkpt lat="44.91322" lon="5.40624">
        <ele>1095.08</ele>
        <time>2014-09-05T08:08:22Z</time>
      </trkpt>
      <trkpt lat="44.91321" lon="5.40625">
        <ele>1095.08</ele>
        <time>2014-09-05T08:08:23Z</time>
      </trkpt>
      <trkpt lat="44.91319" lon="5.40625">
        <ele>1095.08</ele>
        <time>2014-09-05T08:08:24Z</time>
      </trkpt>
      <trkpt lat="44.91318" lon="5.40625">
        <ele>1096.04</ele>
        <time>2014-09-05T08:08:25Z</time>
      </trkpt>
      <trkpt lat="44.91316" lon="5.40624">
        <ele>1096.04</ele>
        <time>2014-09-05T08:08:26Z</time>
      </trkpt>
      <trkpt lat="44.91315" lon="5.40623">
        <ele>1096.52</ele>
        <time>2014-09-05T08:08:27Z</time>
      </trkpt>
      <trkpt lat="44.91314" lon="5.40622">
        <ele>1096.52</ele>
        <time>2014-09-05T08:08:28Z</time>
      </trkpt>
      <trkpt lat="44.91312" lon="5.40621">
        <ele>1096.04</ele>
        <time>2014-09-05T08:08:29Z</time>
      </trkpt>
      <trkpt lat="44.91311" lon="5.40619">
        <ele>1096.52</ele>
        <time>2014-09-05T08:08:30Z</time>
      </trkpt>
      <trkpt lat="44.91309" lon="5.40618">
        <ele>1096.52</ele>
        <time>2014-09-05T08:08:31Z</time>
      </trkpt>
      <trkpt lat="44.91291" lon="5.40603">
        <ele>1097.48</ele>
        <time>2014-09-05T08:08:42Z</time>
      </trkpt>
      <trkpt lat="44.91272" lon="5.40587">
        <ele>1098.92</ele>
        <time>2014-09-05T08:08:52Z</time>
      </trkpt>
      <trkpt lat="44.91252" lon="5.40584">
        <ele>1100.85</ele>
        <time>2014-09-05T08:09:03Z</time>
      </trkpt>
      <trkpt lat="44.91227" lon="5.40595">
        <ele>1102.77</ele>
        <time>2014-09-05T08:09:15Z</time>
      </trkpt>
      <trkpt lat="44.912" lon="5.40593">
        <ele>1103.73</ele>
        <time>2014-09-05T08:09:27Z</time>
      </trkpt>
      <trkpt lat="44.91179" lon="5.4058">
        <ele>1105.65</ele>
        <time>2014-09-05T08:09:38Z</time>
      </trkpt>
      <trkpt lat="44.91164" lon="5.40566">
        <ele>1107.58</ele>
        <time>2014-09-05T08:09:48Z</time>
      </trkpt>
      <trkpt lat="44.91143" lon="5.40557">
        <ele>1108.54</ele>
        <time>2014-09-05T08:09:59Z</time>
      </trkpt>
      <trkpt lat="44.91125" lon="5.40551">
        <ele>1109.5</ele>
        <time>2014-09-05T08:10:09Z</time>
      </trkpt>
      <trkpt lat="44.91108" lon="5.40537">
        <ele>1111.42</ele>
        <time>2014-09-05T08:10:19Z</time>
      </trkpt>
      <trkpt lat="44.91095" lon="5.40524">
        <ele>1112.86</ele>
        <time>2014-09-05T08:10:27Z</time>
      </trkpt>
      <trkpt lat="44.91093" lon="5.40523">
        <ele>1112.38</ele>
        <time>2014-09-05T08:10:34Z</time>
      </trkpt>
      <trkpt lat="44.91092" lon="5.40524">
        <ele>1112.86</ele>
        <time>2014-09-05T08:10:53Z</time>
      </trkpt>
      <trkpt lat="44.91089" lon="5.40524">
        <ele>1113.82</ele>
        <time>2014-09-05T08:10:57Z</time>
      </trkpt>
      <trkpt lat="44.91087" lon="5.40524">
        <ele>1113.34</ele>
        <time>2014-09-05T08:10:58Z</time>
      </trkpt>
      <trkpt lat="44.91085" lon="5.40523">
        <ele>1113.82</ele>
        <time>2014-09-05T08:10:59Z</time>
      </trkpt>
      <trkpt lat="44.91082" lon="5.40521">
        <ele>1114.31</ele>
        <time>2014-09-05T08:11:00Z</time>
      </trkpt>
      <trkpt lat="44.91081" lon="5.4052">
        <ele>1114.31</ele>
        <time>2014-09-05T08:11:01Z</time>
      </trkpt>
      <trkpt lat="44.91063" lon="5.40515">
        <ele>1116.23</ele>
        <time>2014-09-05T08:11:10Z</time>
      </trkpt>
      <trkpt lat="44.91042" lon="5.40507">
        <ele>1115.75</ele>
        <time>2014-09-05T08:11:19Z</time>
      </trkpt>
      <trkpt lat="44.91023" lon="5.40483">
        <ele>1115.75</ele>
        <time>2014-09-05T08:11:28Z</time>
      </trkpt>
      <trkpt lat="44.91021" lon="5.40474">
        <ele>1115.27</ele>
        <time>2014-09-05T08:11:35Z</time>
      </trkpt>
      <trkpt lat="44.91021" lon="5.40474">
        <ele>1115.27</ele>
        <time>2014-09-05T08:11:59Z</time>
      </trkpt>
      <trkpt lat="44.91021" lon="5.40474">
        <ele>1115.75</ele>
        <time>2014-09-05T08:12:07Z</time>
      </trkpt>
      <trkpt lat="44.91019" lon="5.40476">
        <ele>1115.27</ele>
        <time>2014-09-05T08:12:08Z</time>
      </trkpt>
      <trkpt lat="44.91019" lon="5.40478">
        <ele>1115.75</ele>
        <time>2014-09-05T08:12:09Z</time>
      </trkpt>
      <trkpt lat="44.91018" lon="5.4048">
        <ele>1115.75</ele>
        <time>2014-09-05T08:12:10Z</time>
      </trkpt>
      <trkpt lat="44.91018" lon="5.40483">
        <ele>1115.75</ele>
        <time>2014-09-05T08:12:11Z</time>
      </trkpt>
      <trkpt lat="44.91013" lon="5.405">
        <ele>1115.75</ele>
        <time>2014-09-05T08:12:16Z</time>
      </trkpt>
      <trkpt lat="44.9101" lon="5.40502">
        <ele>1116.23</ele>
        <time>2014-09-05T08:12:17Z</time>
      </trkpt>
      <trkpt lat="44.91008" lon="5.40504">
        <ele>1116.23</ele>
        <time>2014-09-05T08:12:18Z</time>
      </trkpt>
      <trkpt lat="44.91005" lon="5.40506">
        <ele>1116.23</ele>
        <time>2014-09-05T08:12:19Z</time>
      </trkpt>
      <trkpt lat="44.91002" lon="5.40506">
        <ele>1115.75</ele>
        <time>2014-09-05T08:12:20Z</time>
      </trkpt>
      <trkpt lat="44.90992" lon="5.40513">
        <ele>1115.27</ele>
        <time>2014-09-05T08:12:23Z</time>
      </trkpt>
      <trkpt lat="44.90972" lon="5.4053">
        <ele>1112.38</ele>
        <time>2014-09-05T08:12:27Z</time>
      </trkpt>
      <trkpt lat="44.90966" lon="5.40533">
        <ele>1112.38</ele>
        <time>2014-09-05T08:12:28Z</time>
      </trkpt>
      <trkpt lat="44.90959" lon="5.40535">
        <ele>1111.9</ele>
        <time>2014-09-05T08:12:29Z</time>
      </trkpt>
      <trkpt lat="44.90952" lon="5.40535">
        <ele>1111.9</ele>
        <time>2014-09-05T08:12:30Z</time>
      </trkpt>
      <trkpt lat="44.90945" lon="5.40533">
        <ele>1111.9</ele>
        <time>2014-09-05T08:12:31Z</time>
      </trkpt>
      <trkpt lat="44.90939" lon="5.4053">
        <ele>1111.42</ele>
        <time>2014-09-05T08:12:32Z</time>
      </trkpt>
      <trkpt lat="44.90933" lon="5.40525">
        <ele>1111.42</ele>
        <time>2014-09-05T08:12:33Z</time>
      </trkpt>
      <trkpt lat="44.90928" lon="5.40519">
        <ele>1110.94</ele>
        <time>2014-09-05T08:12:34Z</time>
      </trkpt>
      <trkpt lat="44.90923" lon="5.40513">
        <ele>1110.94</ele>
        <time>2014-09-05T08:12:35Z</time>
      </trkpt>
      <trkpt lat="44.90918" lon="5.40506">
        <ele>1109.98</ele>
        <time>2014-09-05T08:12:36Z</time>
      </trkpt>
      <trkpt lat="44.90913" lon="5.40497">
        <ele>1109.02</ele>
        <time>2014-09-05T08:12:37Z</time>
      </trkpt>
      <trkpt lat="44.90908" lon="5.40488">
        <ele>1108.54</ele>
        <time>2014-09-05T08:12:38Z</time>
      </trkpt>
      <trkpt lat="44.90903" lon="5.40479">
        <ele>1107.58</ele>
        <time>2014-09-05T08:12:39Z</time>
      </trkpt>
      <trkpt lat="44.90871" lon="5.40427">
        <ele>1106.61</ele>
        <time>2014-09-05T08:12:46Z</time>
      </trkpt>
      <trkpt lat="44.90862" lon="5.40414">
        <ele>1106.61</ele>
        <time>2014-09-05T08:12:49Z</time>
      </trkpt>
      <trkpt lat="44.9086" lon="5.40408">
        <ele>1106.13</ele>
        <time>2014-09-05T08:12:50Z</time>
      </trkpt>
      <trkpt lat="44.90856" lon="5.40403">
        <ele>1105.65</ele>
        <time>2014-09-05T08:12:51Z</time>
      </trkpt>
      <trkpt lat="44.90852" lon="5.40398">
        <ele>1105.17</ele>
        <time>2014-09-05T08:12:52Z</time>
      </trkpt>
      <trkpt lat="44.90847" lon="5.40393">
        <ele>1104.69</ele>
        <time>2014-09-05T08:12:53Z</time>
      </trkpt>
      <trkpt lat="44.90842" lon="5.4039">
        <ele>1104.69</ele>
        <time>2014-09-05T08:12:54Z</time>
      </trkpt>
      <trkpt lat="44.90836" lon="5.40387">
        <ele>1104.21</ele>
        <time>2014-09-05T08:12:55Z</time>
      </trkpt>
      <trkpt lat="44.90831" lon="5.40385">
        <ele>1104.21</ele>
        <time>2014-09-05T08:12:56Z</time>
      </trkpt>
      <trkpt lat="44.90804" lon="5.40376">
        <ele>1103.25</ele>
        <time>2014-09-05T08:13:00Z</time>
      </trkpt>
      <trkpt lat="44.90797" lon="5.40376">
        <ele>1102.29</ele>
        <time>2014-09-05T08:13:01Z</time>
      </trkpt>
      <trkpt lat="44.90774" lon="5.40378">
        <ele>1100.85</ele>
        <time>2014-09-05T08:13:04Z</time>
      </trkpt>
      <trkpt lat="44.90766" lon="5.40379">
        <ele>1100.85</ele>
        <time>2014-09-05T08:13:05Z</time>
      </trkpt>
      <trkpt lat="44.90757" lon="5.4038">
        <ele>1099.89</ele>
        <time>2014-09-05T08:13:06Z</time>
      </trkpt>
      <trkpt lat="44.90748" lon="5.40379">
        <ele>1099.4</ele>
        <time>2014-09-05T08:13:07Z</time>
      </trkpt>
      <trkpt lat="44.90738" lon="5.40378">
        <ele>1098.92</ele>
        <time>2014-09-05T08:13:08Z</time>
      </trkpt>
      <trkpt lat="44.90708" lon="5.40372">
        <ele>1095.56</ele>
        <time>2014-09-05T08:13:11Z</time>
      </trkpt>
      <trkpt lat="44.90673" lon="5.40365">
        <ele>1091.23</ele>
        <time>2014-09-05T08:13:14Z</time>
      </trkpt>
      <trkpt lat="44.9065" lon="5.4036">
        <ele>1087.87</ele>
        <time>2014-09-05T08:13:16Z</time>
      </trkpt>
      <trkpt lat="44.90609" lon="5.40349">
        <ele>1084.5</ele>
        <time>2014-09-05T08:13:20Z</time>
      </trkpt>
      <trkpt lat="44.90577" lon="5.40343">
        <ele>1081.62</ele>
        <time>2014-09-05T08:13:24Z</time>
      </trkpt>
      <trkpt lat="44.9057" lon="5.40342">
        <ele>1080.66</ele>
        <time>2014-09-05T08:13:25Z</time>
      </trkpt>
      <trkpt lat="44.90565" lon="5.40344">
        <ele>1080.66</ele>
        <time>2014-09-05T08:13:26Z</time>
      </trkpt>
      <trkpt lat="44.90559" lon="5.40347">
        <ele>1079.7</ele>
        <time>2014-09-05T08:13:27Z</time>
      </trkpt>
      <trkpt lat="44.90556" lon="5.40353">
        <ele>1080.18</ele>
        <time>2014-09-05T08:13:28Z</time>
      </trkpt>
      <trkpt lat="44.90553" lon="5.40358">
        <ele>1080.18</ele>
        <time>2014-09-05T08:13:29Z</time>
      </trkpt>
      <trkpt lat="44.90552" lon="5.40363">
        <ele>1080.66</ele>
        <time>2014-09-05T08:13:30Z</time>
      </trkpt>
      <trkpt lat="44.90551" lon="5.40384">
        <ele>1082.58</ele>
        <time>2014-09-05T08:13:37Z</time>
      </trkpt>
      <trkpt lat="44.90546" lon="5.40409">
        <ele>1084.99</ele>
        <time>2014-09-05T08:13:45Z</time>
      </trkpt>
      <trkpt lat="44.90534" lon="5.4043">
        <ele>1086.43</ele>
        <time>2014-09-05T08:13:54Z</time>
      </trkpt>
      <trkpt lat="44.90517" lon="5.40441">
        <ele>1087.87</ele>
        <time>2014-09-05T08:14:03Z</time>
      </trkpt>
      <trkpt lat="44.90494" lon="5.40454">
        <ele>1088.83</ele>
        <time>2014-09-05T08:14:14Z</time>
      </trkpt>
      <trkpt lat="44.90471" lon="5.40466">
        <ele>1090.75</ele>
        <time>2014-09-05T08:14:26Z</time>
      </trkpt>
      <trkpt lat="44.90443" lon="5.40472">
        <ele>1092.68</ele>
        <time>2014-09-05T08:14:38Z</time>
      </trkpt>
      <trkpt lat="44.90418" lon="5.40461">
        <ele>1094.12</ele>
        <time>2014-09-05T08:14:50Z</time>
      </trkpt>
      <trkpt lat="44.90398" lon="5.40453">
        <ele>1096.04</ele>
        <time>2014-09-05T08:15:00Z</time>
      </trkpt>
      <trkpt lat="44.90393" lon="5.40451">
        <ele>1096.52</ele>
        <time>2014-09-05T08:15:03Z</time>
      </trkpt>
      <trkpt lat="44.90386" lon="5.40449">
        <ele>1097</ele>
        <time>2014-09-05T08:15:07Z</time>
      </trkpt>
      <trkpt lat="44.90376" lon="5.40419">
        <ele>1098.92</ele>
        <time>2014-09-05T08:15:18Z</time>
      </trkpt>
      <trkpt lat="44.90374" lon="5.40378">
        <ele>1101.33</ele>
        <time>2014-09-05T08:15:31Z</time>
      </trkpt>
      <trkpt lat="44.90371" lon="5.40345">
        <ele>1103.73</ele>
        <time>2014-09-05T08:15:43Z</time>
      </trkpt>
      <trkpt lat="44.90371" lon="5.40336">
        <ele>1104.69</ele>
        <time>2014-09-05T08:15:47Z</time>
      </trkpt>
      <trkpt lat="44.90366" lon="5.40313">
        <ele>1105.17</ele>
        <time>2014-09-05T08:15:56Z</time>
      </trkpt>
      <trkpt lat="44.90346" lon="5.40299">
        <ele>1107.1</ele>
        <time>2014-09-05T08:16:07Z</time>
      </trkpt>
      <trkpt lat="44.90317" lon="5.40291">
        <ele>1109.02</ele>
        <time>2014-09-05T08:16:20Z</time>
      </trkpt>
      <trkpt lat="44.90305" lon="5.40289">
        <ele>1109.98</ele>
        <time>2014-09-05T08:16:26Z</time>
      </trkpt>
      <trkpt lat="44.90303" lon="5.40288">
        <ele>1109.98</ele>
        <time>2014-09-05T08:16:27Z</time>
      </trkpt>
      <trkpt lat="44.90271" lon="5.40283">
        <ele>1111.9</ele>
        <time>2014-09-05T08:16:42Z</time>
      </trkpt>
      <trkpt lat="44.90246" lon="5.40277">
        <ele>1113.82</ele>
        <time>2014-09-05T08:16:54Z</time>
      </trkpt>
      <trkpt lat="44.90224" lon="5.40272">
        <ele>1115.75</ele>
        <time>2014-09-05T08:17:05Z</time>
      </trkpt>
      <trkpt lat="44.90193" lon="5.40265">
        <ele>1117.67</ele>
        <time>2014-09-05T08:17:20Z</time>
      </trkpt>
      <trkpt lat="44.90192" lon="5.40263">
        <ele>1118.63</ele>
        <time>2014-09-05T08:17:22Z</time>
      </trkpt>
      <trkpt lat="44.90191" lon="5.40262">
        <ele>1118.15</ele>
        <time>2014-09-05T08:17:23Z</time>
      </trkpt>
      <trkpt lat="44.9019" lon="5.40259">
        <ele>1117.67</ele>
        <time>2014-09-05T08:17:24Z</time>
      </trkpt>
      <trkpt lat="44.9019" lon="5.40256">
        <ele>1116.71</ele>
        <time>2014-09-05T08:17:25Z</time>
      </trkpt>
      <trkpt lat="44.90189" lon="5.40252">
        <ele>1117.19</ele>
        <time>2014-09-05T08:17:26Z</time>
      </trkpt>
      <trkpt lat="44.90189" lon="5.40247">
        <ele>1116.23</ele>
        <time>2014-09-05T08:17:27Z</time>
      </trkpt>
      <trkpt lat="44.90187" lon="5.40241">
        <ele>1116.23</ele>
        <time>2014-09-05T08:17:28Z</time>
      </trkpt>
      <trkpt lat="44.90184" lon="5.40236">
        <ele>1115.75</ele>
        <time>2014-09-05T08:17:29Z</time>
      </trkpt>
      <trkpt lat="44.90181" lon="5.40229">
        <ele>1115.27</ele>
        <time>2014-09-05T08:17:30Z</time>
      </trkpt>
      <trkpt lat="44.90177" lon="5.40223">
        <ele>1114.31</ele>
        <time>2014-09-05T08:17:31Z</time>
      </trkpt>
      <trkpt lat="44.90173" lon="5.40216">
        <ele>1114.31</ele>
        <time>2014-09-05T08:17:32Z</time>
      </trkpt>
      <trkpt lat="44.90163" lon="5.40202">
        <ele>1112.38</ele>
        <time>2014-09-05T08:17:34Z</time>
      </trkpt>
      <trkpt lat="44.90159" lon="5.40196">
        <ele>1111.9</ele>
        <time>2014-09-05T08:17:35Z</time>
      </trkpt>
      <trkpt lat="44.90147" lon="5.40184">
        <ele>1110.46</ele>
        <time>2014-09-05T08:17:37Z</time>
      </trkpt>
      <trkpt lat="44.90133" lon="5.40168">
        <ele>1109.02</ele>
        <time>2014-09-05T08:17:40Z</time>
      </trkpt>
      <trkpt lat="44.90127" lon="5.40161">
        <ele>1108.06</ele>
        <time>2014-09-05T08:17:41Z</time>
      </trkpt>
      <trkpt lat="44.90123" lon="5.40154">
        <ele>1107.1</ele>
        <time>2014-09-05T08:17:42Z</time>
      </trkpt>
      <trkpt lat="44.90118" lon="5.40147">
        <ele>1105.65</ele>
        <time>2014-09-05T08:17:43Z</time>
      </trkpt>
      <trkpt lat="44.90115" lon="5.40139">
        <ele>1104.69</ele>
        <time>2014-09-05T08:17:44Z</time>
      </trkpt>
      <trkpt lat="44.9011" lon="5.40131">
        <ele>1103.73</ele>
        <time>2014-09-05T08:17:45Z</time>
      </trkpt>
      <trkpt lat="44.90105" lon="5.40124">
        <ele>1103.73</ele>
        <time>2014-09-05T08:17:46Z</time>
      </trkpt>
      <trkpt lat="44.90099" lon="5.40118">
        <ele>1103.25</ele>
        <time>2014-09-05T08:17:47Z</time>
      </trkpt>
      <trkpt lat="44.90092" lon="5.40112">
        <ele>1102.29</ele>
        <time>2014-09-05T08:17:48Z</time>
      </trkpt>
      <trkpt lat="44.90085" lon="5.40107">
        <ele>1101.81</ele>
        <time>2014-09-05T08:17:49Z</time>
      </trkpt>
      <trkpt lat="44.90078" lon="5.40102">
        <ele>1101.81</ele>
        <time>2014-09-05T08:17:50Z</time>
      </trkpt>
      <trkpt lat="44.90041" lon="5.40085">
        <ele>1098.92</ele>
        <time>2014-09-05T08:17:57Z</time>
      </trkpt>
      <trkpt lat="44.90038" lon="5.40082">
        <ele>1098.44</ele>
        <time>2014-09-05T08:17:58Z</time>
      </trkpt>
      <trkpt lat="44.90037" lon="5.40078">
        <ele>1097.96</ele>
        <time>2014-09-05T08:17:59Z</time>
      </trkpt>
      <trkpt lat="44.90039" lon="5.40074">
        <ele>1097</ele>
        <time>2014-09-05T08:18:00Z</time>
      </trkpt>
      <trkpt lat="44.90043" lon="5.40071">
        <ele>1095.56</ele>
        <time>2014-09-05T08:18:01Z</time>
      </trkpt>
      <trkpt lat="44.90047" lon="5.40068">
        <ele>1095.56</ele>
        <time>2014-09-05T08:18:02Z</time>
      </trkpt>
      <trkpt lat="44.9005" lon="5.40066">
        <ele>1094.6</ele>
        <time>2014-09-05T08:18:03Z</time>
      </trkpt>
      <trkpt lat="44.90059" lon="5.40059">
        <ele>1092.68</ele>
        <time>2014-09-05T08:18:05Z</time>
      </trkpt>
      <trkpt lat="44.90065" lon="5.40054">
        <ele>1092.68</ele>
        <time>2014-09-05T08:18:06Z</time>
      </trkpt>
      <trkpt lat="44.90071" lon="5.40049">
        <ele>1091.23</ele>
        <time>2014-09-05T08:18:07Z</time>
      </trkpt>
      <trkpt lat="44.90087" lon="5.40033">
        <ele>1089.31</ele>
        <time>2014-09-05T08:18:10Z</time>
      </trkpt>
      <trkpt lat="44.90093" lon="5.4003">
        <ele>1089.31</ele>
        <time>2014-09-05T08:18:11Z</time>
      </trkpt>
      <trkpt lat="44.901" lon="5.40028">
        <ele>1088.35</ele>
        <time>2014-09-05T08:18:12Z</time>
      </trkpt>
      <trkpt lat="44.90111" lon="5.40026">
        <ele>1087.39</ele>
        <time>2014-09-05T08:18:14Z</time>
      </trkpt>
      <trkpt lat="44.90119" lon="5.40023">
        <ele>1086.43</ele>
        <time>2014-09-05T08:18:16Z</time>
      </trkpt>
      <trkpt lat="44.90122" lon="5.4002">
        <ele>1085.95</ele>
        <time>2014-09-05T08:18:17Z</time>
      </trkpt>
      <trkpt lat="44.90125" lon="5.40015">
        <ele>1085.47</ele>
        <time>2014-09-05T08:18:18Z</time>
      </trkpt>
      <trkpt lat="44.90126" lon="5.40011">
        <ele>1084.99</ele>
        <time>2014-09-05T08:18:19Z</time>
      </trkpt>
      <trkpt lat="44.90127" lon="5.40005">
        <ele>1084.02</ele>
        <time>2014-09-05T08:18:20Z</time>
      </trkpt>
      <trkpt lat="44.90127" lon="5.39999">
        <ele>1083.54</ele>
        <time>2014-09-05T08:18:21Z</time>
      </trkpt>
      <trkpt lat="44.90125" lon="5.39993">
        <ele>1083.06</ele>
        <time>2014-09-05T08:18:22Z</time>
      </trkpt>
      <trkpt lat="44.90123" lon="5.39987">
        <ele>1082.1</ele>
        <time>2014-09-05T08:18:23Z</time>
      </trkpt>
      <trkpt lat="44.90118" lon="5.39976">
        <ele>1081.14</ele>
        <time>2014-09-05T08:18:25Z</time>
      </trkpt>
      <trkpt lat="44.90115" lon="5.39971">
        <ele>1080.18</ele>
        <time>2014-09-05T08:18:26Z</time>
      </trkpt>
      <trkpt lat="44.90112" lon="5.39965">
        <ele>1080.18</ele>
        <time>2014-09-05T08:18:27Z</time>
      </trkpt>
      <trkpt lat="44.9011" lon="5.3996">
        <ele>1079.22</ele>
        <time>2014-09-05T08:18:28Z</time>
      </trkpt>
      <trkpt lat="44.90108" lon="5.39954">
        <ele>1078.26</ele>
        <time>2014-09-05T08:18:29Z</time>
      </trkpt>
      <trkpt lat="44.90107" lon="5.39949">
        <ele>1078.26</ele>
        <time>2014-09-05T08:18:30Z</time>
      </trkpt>
      <trkpt lat="44.90107" lon="5.39942">
        <ele>1077.78</ele>
        <time>2014-09-05T08:18:31Z</time>
      </trkpt>
      <trkpt lat="44.90108" lon="5.39936">
        <ele>1077.29</ele>
        <time>2014-09-05T08:18:32Z</time>
      </trkpt>
      <trkpt lat="44.9011" lon="5.3993">
        <ele>1077.29</ele>
        <time>2014-09-05T08:18:33Z</time>
      </trkpt>
      <trkpt lat="44.90112" lon="5.39916">
        <ele>1076.33</ele>
        <time>2014-09-05T08:18:39Z</time>
      </trkpt>
      <trkpt lat="44.90114" lon="5.39915">
        <ele>1076.33</ele>
        <time>2014-09-05T08:18:49Z</time>
      </trkpt>
      <trkpt lat="44.90115" lon="5.39914">
        <ele>1076.33</ele>
        <time>2014-09-05T08:18:59Z</time>
      </trkpt>
      <trkpt lat="44.90113" lon="5.39911">
        <ele>1076.81</ele>
        <time>2014-09-05T08:19:09Z</time>
      </trkpt>
      <trkpt lat="44.90113" lon="5.3991">
        <ele>1075.85</ele>
        <time>2014-09-05T08:19:24Z</time>
      </trkpt>
      <trkpt lat="44.90113" lon="5.39909">
        <ele>1075.85</ele>
        <time>2014-09-05T08:19:30Z</time>
      </trkpt>
      <trkpt lat="44.90113" lon="5.39907">
        <ele>1075.85</ele>
        <time>2014-09-05T08:19:31Z</time>
      </trkpt>
      <trkpt lat="44.90113" lon="5.39904">
        <ele>1076.33</ele>
        <time>2014-09-05T08:19:32Z</time>
      </trkpt>
      <trkpt lat="44.90112" lon="5.399">
        <ele>1075.85</ele>
        <time>2014-09-05T08:19:33Z</time>
      </trkpt>
      <trkpt lat="44.90112" lon="5.39896">
        <ele>1075.37</ele>
        <time>2014-09-05T08:19:34Z</time>
      </trkpt>
      <trkpt lat="44.90112" lon="5.39891">
        <ele>1075.85</ele>
        <time>2014-09-05T08:19:35Z</time>
      </trkpt>
      <trkpt lat="44.90103" lon="5.39827">
        <ele>1074.89</ele>
        <time>2014-09-05T08:19:46Z</time>
      </trkpt>
      <trkpt lat="44.90098" lon="5.39801">
        <ele>1073.93</ele>
        <time>2014-09-05T08:19:50Z</time>
      </trkpt>
      <trkpt lat="44.90096" lon="5.39779">
        <ele>1073.45</ele>
        <time>2014-09-05T08:19:53Z</time>
      </trkpt>
      <trkpt lat="44.90094" lon="5.39772">
        <ele>1072.49</ele>
        <time>2014-09-05T08:19:54Z</time>
      </trkpt>
      <trkpt lat="44.90092" lon="5.39764">
        <ele>1072.49</ele>
        <time>2014-09-05T08:19:55Z</time>
      </trkpt>
      <trkpt lat="44.90089" lon="5.39758">
        <ele>1072.49</ele>
        <time>2014-09-05T08:19:56Z</time>
      </trkpt>
      <trkpt lat="44.90085" lon="5.39751">
        <ele>1072.01</ele>
        <time>2014-09-05T08:19:57Z</time>
      </trkpt>
      <trkpt lat="44.9008" lon="5.39745">
        <ele>1071.53</ele>
        <time>2014-09-05T08:19:58Z</time>
      </trkpt>
      <trkpt lat="44.90076" lon="5.39737">
        <ele>1071.53</ele>
        <time>2014-09-05T08:19:59Z</time>
      </trkpt>
      <trkpt lat="44.90074" lon="5.39729">
        <ele>1070.57</ele>
        <time>2014-09-05T08:20:00Z</time>
      </trkpt>
      <trkpt lat="44.90073" lon="5.3972">
        <ele>1070.08</ele>
        <time>2014-09-05T08:20:01Z</time>
      </trkpt>
      <trkpt lat="44.90074" lon="5.3971">
        <ele>1070.08</ele>
        <time>2014-09-05T08:20:02Z</time>
      </trkpt>
      <trkpt lat="44.90075" lon="5.397">
        <ele>1069.6</ele>
        <time>2014-09-05T08:20:03Z</time>
      </trkpt>
      <trkpt lat="44.90077" lon="5.39678">
        <ele>1068.16</ele>
        <time>2014-09-05T08:20:05Z</time>
      </trkpt>
      <trkpt lat="44.90076" lon="5.39655">
        <ele>1066.72</ele>
        <time>2014-09-05T08:20:07Z</time>
      </trkpt>
      <trkpt lat="44.90078" lon="5.39643">
        <ele>1066.72</ele>
        <time>2014-09-05T08:20:08Z</time>
      </trkpt>
      <trkpt lat="44.9008" lon="5.39632">
        <ele>1066.24</ele>
        <time>2014-09-05T08:20:09Z</time>
      </trkpt>
      <trkpt lat="44.90085" lon="5.39622">
        <ele>1066.72</ele>
        <time>2014-09-05T08:20:10Z</time>
      </trkpt>
      <trkpt lat="44.90088" lon="5.39612">
        <ele>1065.76</ele>
        <time>2014-09-05T08:20:11Z</time>
      </trkpt>
      <trkpt lat="44.9009" lon="5.39602">
        <ele>1065.76</ele>
        <time>2014-09-05T08:20:12Z</time>
      </trkpt>
      <trkpt lat="44.90091" lon="5.39591">
        <ele>1065.28</ele>
        <time>2014-09-05T08:20:13Z</time>
      </trkpt>
      <trkpt lat="44.90094" lon="5.3957">
        <ele>1065.28</ele>
        <time>2014-09-05T08:20:15Z</time>
      </trkpt>
      <trkpt lat="44.90097" lon="5.3956">
        <ele>1065.28</ele>
        <time>2014-09-05T08:20:16Z</time>
      </trkpt>
      <trkpt lat="44.901" lon="5.39551">
        <ele>1064.32</ele>
        <time>2014-09-05T08:20:17Z</time>
      </trkpt>
      <trkpt lat="44.90104" lon="5.39542">
        <ele>1064.8</ele>
        <time>2014-09-05T08:20:18Z</time>
      </trkpt>
      <trkpt lat="44.90108" lon="5.39534">
        <ele>1064.32</ele>
        <time>2014-09-05T08:20:19Z</time>
      </trkpt>
      <trkpt lat="44.90112" lon="5.39526">
        <ele>1064.32</ele>
        <time>2014-09-05T08:20:20Z</time>
      </trkpt>
      <trkpt lat="44.90115" lon="5.39517">
        <ele>1063.84</ele>
        <time>2014-09-05T08:20:21Z</time>
      </trkpt>
      <trkpt lat="44.90117" lon="5.39507">
        <ele>1063.36</ele>
        <time>2014-09-05T08:20:22Z</time>
      </trkpt>
      <trkpt lat="44.90119" lon="5.39469">
        <ele>1063.36</ele>
        <time>2014-09-05T08:20:26Z</time>
      </trkpt>
      <trkpt lat="44.90118" lon="5.39462">
        <ele>1063.84</ele>
        <time>2014-09-05T08:20:27Z</time>
      </trkpt>
      <trkpt lat="44.90116" lon="5.39456">
        <ele>1064.32</ele>
        <time>2014-09-05T08:20:28Z</time>
      </trkpt>
      <trkpt lat="44.90114" lon="5.39452">
        <ele>1064.8</ele>
        <time>2014-09-05T08:20:29Z</time>
      </trkpt>
      <trkpt lat="44.90113" lon="5.39449">
        <ele>1064.8</ele>
        <time>2014-09-05T08:20:30Z</time>
      </trkpt>
      <trkpt lat="44.90109" lon="5.39434">
        <ele>1064.8</ele>
        <time>2014-09-05T08:20:37Z</time>
      </trkpt>
      <trkpt lat="44.90109" lon="5.39431">
        <ele>1065.28</ele>
        <time>2014-09-05T08:20:55Z</time>
      </trkpt>
      <trkpt lat="44.90109" lon="5.39429">
        <ele>1065.28</ele>
        <time>2014-09-05T08:20:56Z</time>
      </trkpt>
      <trkpt lat="44.90109" lon="5.39427">
        <ele>1064.8</ele>
        <time>2014-09-05T08:20:57Z</time>
      </trkpt>
      <trkpt lat="44.90109" lon="5.39424">
        <ele>1065.28</ele>
        <time>2014-09-05T08:21:07Z</time>
      </trkpt>
      <trkpt lat="44.90109" lon="5.39421">
        <ele>1065.76</ele>
        <time>2014-09-05T08:21:15Z</time>
      </trkpt>
      <trkpt lat="44.90109" lon="5.3942">
        <ele>1065.28</ele>
        <time>2014-09-05T08:21:24Z</time>
      </trkpt>
      <trkpt lat="44.90107" lon="5.39413">
        <ele>1065.76</ele>
        <time>2014-09-05T08:21:35Z</time>
      </trkpt>
      <trkpt lat="44.90107" lon="5.39413">
        <ele>1070.08</ele>
        <time>2014-09-05T08:21:46Z</time>
      </trkpt>
      <trkpt lat="44.90107" lon="5.39413">
        <ele>1065.28</ele>
        <time>2014-09-05T08:21:48Z</time>
      </trkpt>
      <trkpt lat="44.90107" lon="5.39413">
        <ele>1066.24</ele>
        <time>2014-09-05T08:21:49Z</time>
      </trkpt>
      <trkpt lat="44.90107" lon="5.39413">
        <ele>1061.91</ele>
        <time>2014-09-05T08:21:50Z</time>
      </trkpt>
      <trkpt lat="44.90107" lon="5.39413">
        <ele>1061.91</ele>
        <time>2014-09-05T08:21:51Z</time>
      </trkpt>
      <trkpt lat="44.90107" lon="5.39413">
        <ele>1065.76</ele>
        <time>2014-09-05T08:21:52Z</time>
      </trkpt>
      <trkpt lat="44.90107" lon="5.39413">
        <ele>1061.91</ele>
        <time>2014-09-05T08:21:53Z</time>
      </trkpt>
      <trkpt lat="44.90107" lon="5.39413">
        <ele>1066.72</ele>
        <time>2014-09-05T08:21:55Z</time>
      </trkpt>
      <trkpt lat="44.90107" lon="5.39413">
        <ele>1063.36</ele>
        <time>2014-09-05T08:21:59Z</time>
      </trkpt>
      <trkpt lat="44.90107" lon="5.39413">
        <ele>1063.84</ele>
        <time>2014-09-05T08:22:00Z</time>
      </trkpt>
      <trkpt lat="44.90107" lon="5.39413">
        <ele>1067.68</ele>
        <time>2014-09-05T08:22:02Z</time>
      </trkpt>
      <trkpt lat="44.90107" lon="5.39413">
        <ele>1062.87</ele>
        <time>2014-09-05T08:22:08Z</time>
      </trkpt>
      <trkpt lat="44.90107" lon="5.39413">
        <ele>1062.39</ele>
        <time>2014-09-05T08:22:10Z</time>
      </trkpt>
      <trkpt lat="44.90107" lon="5.39413">
        <ele>1067.2</ele>
        <time>2014-09-05T08:22:11Z</time>
      </trkpt>
      <trkpt lat="44.90107" lon="5.39413">
        <ele>1065.76</ele>
        <time>2014-09-05T08:22:12Z</time>
      </trkpt>
      <trkpt lat="44.90107" lon="5.39413">
        <ele>1065.76</ele>
        <time>2014-09-05T08:22:36Z</time>
      </trkpt>
      <trkpt lat="44.90107" lon="5.39413">
        <ele>1065.28</ele>
        <time>2014-09-05T08:23:00Z</time>
      </trkpt>
      <trkpt lat="44.90108" lon="5.3941">
        <ele>1065.28</ele>
        <time>2014-09-05T08:23:03Z</time>
      </trkpt>
      <trkpt lat="44.90109" lon="5.39408">
        <ele>1065.76</ele>
        <time>2014-09-05T08:23:04Z</time>
      </trkpt>
      <trkpt lat="44.90109" lon="5.39405">
        <ele>1065.76</ele>
        <time>2014-09-05T08:23:05Z</time>
      </trkpt>
      <trkpt lat="44.9011" lon="5.39401">
        <ele>1066.24</ele>
        <time>2014-09-05T08:23:06Z</time>
      </trkpt>
      <trkpt lat="44.9011" lon="5.39396">
        <ele>1065.28</ele>
        <time>2014-09-05T08:23:07Z</time>
      </trkpt>
      <trkpt lat="44.90122" lon="5.39347">
        <ele>1065.28</ele>
        <time>2014-09-05T08:23:16Z</time>
      </trkpt>
      <trkpt lat="44.90124" lon="5.39341">
        <ele>1065.28</ele>
        <time>2014-09-05T08:23:17Z</time>
      </trkpt>
      <trkpt lat="44.90125" lon="5.39335">
        <ele>1064.8</ele>
        <time>2014-09-05T08:23:18Z</time>
      </trkpt>
      <trkpt lat="44.90127" lon="5.39328">
        <ele>1064.8</ele>
        <time>2014-09-05T08:23:19Z</time>
      </trkpt>
      <trkpt lat="44.90128" lon="5.3932">
        <ele>1064.8</ele>
        <time>2014-09-05T08:23:20Z</time>
      </trkpt>
      <trkpt lat="44.90145" lon="5.39228">
        <ele>1063.84</ele>
        <time>2014-09-05T08:23:33Z</time>
      </trkpt>
      <trkpt lat="44.90158" lon="5.39192">
        <ele>1065.28</ele>
        <time>2014-09-05T08:23:41Z</time>
      </trkpt>
      <trkpt lat="44.90172" lon="5.39156">
        <ele>1066.24</ele>
        <time>2014-09-05T08:23:50Z</time>
      </trkpt>
      <trkpt lat="44.90174" lon="5.39134">
        <ele>1066.24</ele>
        <time>2014-09-05T08:23:54Z</time>
      </trkpt>
      <trkpt lat="44.90173" lon="5.39121">
        <ele>1064.8</ele>
        <time>2014-09-05T08:23:56Z</time>
      </trkpt>
      <trkpt lat="44.90173" lon="5.39113">
        <ele>1064.8</ele>
        <time>2014-09-05T08:23:57Z</time>
      </trkpt>
      <trkpt lat="44.90175" lon="5.39054">
        <ele>1062.87</ele>
        <time>2014-09-05T08:24:04Z</time>
      </trkpt>
      <trkpt lat="44.90183" lon="5.39029">
        <ele>1061.91</ele>
        <time>2014-09-05T08:24:10Z</time>
      </trkpt>
      <trkpt lat="44.90183" lon="5.39026">
        <ele>1061.91</ele>
        <time>2014-09-05T08:24:11Z</time>
      </trkpt>
      <trkpt lat="44.90183" lon="5.39023">
        <ele>1061.91</ele>
        <time>2014-09-05T08:24:12Z</time>
      </trkpt>
      <trkpt lat="44.90181" lon="5.39019">
        <ele>1061.43</ele>
        <time>2014-09-05T08:24:19Z</time>
      </trkpt>
      <trkpt lat="44.90178" lon="5.39019">
        <ele>1061.43</ele>
        <time>2014-09-05T08:24:31Z</time>
      </trkpt>
      <trkpt lat="44.90173" lon="5.39022">
        <ele>1061.43</ele>
        <time>2014-09-05T08:24:42Z</time>
      </trkpt>
      <trkpt lat="44.90173" lon="5.39022">
        <ele>1061.91</ele>
        <time>2014-09-05T08:24:44Z</time>
      </trkpt>
      <trkpt lat="44.9016" lon="5.39025">
        <ele>1061.91</ele>
        <time>2014-09-05T08:24:59Z</time>
      </trkpt>
      <trkpt lat="44.90157" lon="5.39027">
        <ele>1061.43</ele>
        <time>2014-09-05T08:25:08Z</time>
      </trkpt>
      <trkpt lat="44.90152" lon="5.39029">
        <ele>1060.95</ele>
        <time>2014-09-05T08:25:17Z</time>
      </trkpt>
      <trkpt lat="44.90136" lon="5.39036">
        <ele>1061.43</ele>
        <time>2014-09-05T08:25:32Z</time>
      </trkpt>
      <trkpt lat="44.90129" lon="5.3904">
        <ele>1062.39</ele>
        <time>2014-09-05T08:25:41Z</time>
      </trkpt>
      <trkpt lat="44.90122" lon="5.39042">
        <ele>1062.87</ele>
        <time>2014-09-05T08:25:52Z</time>
      </trkpt>
      <trkpt lat="44.9011" lon="5.39044">
        <ele>1063.84</ele>
        <time>2014-09-05T08:26:01Z</time>
      </trkpt>
      <trkpt lat="44.90094" lon="5.39043">
        <ele>1063.84</ele>
        <time>2014-09-05T08:26:13Z</time>
      </trkpt>
      <trkpt lat="44.90091" lon="5.39043">
        <ele>1063.84</ele>
        <time>2014-09-05T08:26:19Z</time>
      </trkpt>
      <trkpt lat="44.90067" lon="5.39045">
        <ele>1064.32</ele>
        <time>2014-09-05T08:26:27Z</time>
      </trkpt>
      <trkpt lat="44.90032" lon="5.39067">
        <ele>1066.24</ele>
        <time>2014-09-05T08:26:37Z</time>
      </trkpt>
      <trkpt lat="44.89994" lon="5.3912">
        <ele>1067.2</ele>
        <time>2014-09-05T08:26:50Z</time>
      </trkpt>
      <trkpt lat="44.89959" lon="5.39183">
        <ele>1066.24</ele>
        <time>2014-09-05T08:27:01Z</time>
      </trkpt>
      <trkpt lat="44.89952" lon="5.39193">
        <ele>1065.76</ele>
        <time>2014-09-05T08:27:03Z</time>
      </trkpt>
      <trkpt lat="44.89913" lon="5.39221">
        <ele>1063.84</ele>
        <time>2014-09-05T08:27:12Z</time>
      </trkpt>
      <trkpt lat="44.8991" lon="5.39221">
        <ele>1063.36</ele>
        <time>2014-09-05T08:27:13Z</time>
      </trkpt>
      <trkpt lat="44.89908" lon="5.3922">
        <ele>1063.36</ele>
        <time>2014-09-05T08:27:14Z</time>
      </trkpt>
      <trkpt lat="44.89904" lon="5.39217">
        <ele>1062.87</ele>
        <time>2014-09-05T08:27:15Z</time>
      </trkpt>
      <trkpt lat="44.89901" lon="5.39213">
        <ele>1062.39</ele>
        <time>2014-09-05T08:27:16Z</time>
      </trkpt>
      <trkpt lat="44.89898" lon="5.39209">
        <ele>1061.91</ele>
        <time>2014-09-05T08:27:17Z</time>
      </trkpt>
      <trkpt lat="44.89895" lon="5.39204">
        <ele>1061.91</ele>
        <time>2014-09-05T08:27:18Z</time>
      </trkpt>
      <trkpt lat="44.89891" lon="5.39199">
        <ele>1061.91</ele>
        <time>2014-09-05T08:27:19Z</time>
      </trkpt>
      <trkpt lat="44.89886" lon="5.39195">
        <ele>1060.95</ele>
        <time>2014-09-05T08:27:20Z</time>
      </trkpt>
      <trkpt lat="44.89881" lon="5.3919">
        <ele>1060.47</ele>
        <time>2014-09-05T08:27:21Z</time>
      </trkpt>
      <trkpt lat="44.89875" lon="5.39187">
        <ele>1059.51</ele>
        <time>2014-09-05T08:27:22Z</time>
      </trkpt>
      <trkpt lat="44.89868" lon="5.39184">
        <ele>1058.55</ele>
        <time>2014-09-05T08:27:23Z</time>
      </trkpt>
      <trkpt lat="44.89861" lon="5.39182">
        <ele>1058.55</ele>
        <time>2014-09-05T08:27:24Z</time>
      </trkpt>
      <trkpt lat="44.8981" lon="5.39171">
        <ele>1057.11</ele>
        <time>2014-09-05T08:27:31Z</time>
      </trkpt>
      <trkpt lat="44.89805" lon="5.39168">
        <ele>1057.59</ele>
        <time>2014-09-05T08:27:32Z</time>
      </trkpt>
      <trkpt lat="44.89802" lon="5.39167">
        <ele>1057.11</ele>
        <time>2014-09-05T08:27:33Z</time>
      </trkpt>
      <trkpt lat="44.898" lon="5.39167">
        <ele>1057.11</ele>
        <time>2014-09-05T08:27:39Z</time>
      </trkpt>
      <trkpt lat="44.898" lon="5.39167">
        <ele>1057.11</ele>
        <time>2014-09-05T08:28:07Z</time>
      </trkpt>
      <trkpt lat="44.898" lon="5.39167">
        <ele>1057.11</ele>
        <time>2014-09-05T08:28:36Z</time>
      </trkpt>
      <trkpt lat="44.89799" lon="5.39166">
        <ele>1057.59</ele>
        <time>2014-09-05T08:28:39Z</time>
      </trkpt>
      <trkpt lat="44.89798" lon="5.39165">
        <ele>1057.11</ele>
        <time>2014-09-05T08:28:40Z</time>
      </trkpt>
      <trkpt lat="44.89797" lon="5.39164">
        <ele>1057.11</ele>
        <time>2014-09-05T08:28:41Z</time>
      </trkpt>
      <trkpt lat="44.89795" lon="5.39162">
        <ele>1057.59</ele>
        <time>2014-09-05T08:28:42Z</time>
      </trkpt>
      <trkpt lat="44.89793" lon="5.3916">
        <ele>1057.11</ele>
        <time>2014-09-05T08:28:43Z</time>
      </trkpt>
      <trkpt lat="44.8979" lon="5.39158">
        <ele>1056.63</ele>
        <time>2014-09-05T08:28:44Z</time>
      </trkpt>
      <trkpt lat="44.89788" lon="5.39156">
        <ele>1056.63</ele>
        <time>2014-09-05T08:28:45Z</time>
      </trkpt>
      <trkpt lat="44.89785" lon="5.39154">
        <ele>1056.63</ele>
        <time>2014-09-05T08:28:46Z</time>
      </trkpt>
      <trkpt lat="44.89771" lon="5.39137">
        <ele>1056.63</ele>
        <time>2014-09-05T08:28:52Z</time>
      </trkpt>
      <trkpt lat="44.89764" lon="5.39129">
        <ele>1057.11</ele>
        <time>2014-09-05T08:28:54Z</time>
      </trkpt>
      <trkpt lat="44.89762" lon="5.39124">
        <ele>1056.63</ele>
        <time>2014-09-05T08:28:55Z</time>
      </trkpt>
      <trkpt lat="44.89751" lon="5.39103">
        <ele>1057.11</ele>
        <time>2014-09-05T08:28:59Z</time>
      </trkpt>
      <trkpt lat="44.89747" lon="5.39098">
        <ele>1056.63</ele>
        <time>2014-09-05T08:29:00Z</time>
      </trkpt>
      <trkpt lat="44.89743" lon="5.39093">
        <ele>1056.63</ele>
        <time>2014-09-05T08:29:01Z</time>
      </trkpt>
      <trkpt lat="44.89739" lon="5.39089">
        <ele>1057.11</ele>
        <time>2014-09-05T08:29:02Z</time>
      </trkpt>
      <trkpt lat="44.89735" lon="5.39085">
        <ele>1056.63</ele>
        <time>2014-09-05T08:29:03Z</time>
      </trkpt>
      <trkpt lat="44.89727" lon="5.39078">
        <ele>1057.59</ele>
        <time>2014-09-05T08:29:05Z</time>
      </trkpt>
      <trkpt lat="44.89679" lon="5.39025">
        <ele>1058.55</ele>
        <time>2014-09-05T08:29:18Z</time>
      </trkpt>
      <trkpt lat="44.89619" lon="5.38963">
        <ele>1059.03</ele>
        <time>2014-09-05T08:29:33Z</time>
      </trkpt>
      <trkpt lat="44.8957" lon="5.38907">
        <ele>1059.51</ele>
        <time>2014-09-05T08:29:46Z</time>
      </trkpt>
      <trkpt lat="44.8952" lon="5.38854">
        <ele>1060.47</ele>
        <time>2014-09-05T08:29:59Z</time>
      </trkpt>
      <trkpt lat="44.89512" lon="5.38846">
        <ele>1060.47</ele>
        <time>2014-09-05T08:30:01Z</time>
      </trkpt>
      <trkpt lat="44.89508" lon="5.38843">
        <ele>1060.47</ele>
        <time>2014-09-05T08:30:02Z</time>
      </trkpt>
      <trkpt lat="44.89505" lon="5.38841">
        <ele>1059.51</ele>
        <time>2014-09-05T08:30:03Z</time>
      </trkpt>
      <trkpt lat="44.89502" lon="5.38836">
        <ele>1059.99</ele>
        <time>2014-09-05T08:30:04Z</time>
      </trkpt>
      <trkpt lat="44.89499" lon="5.38831">
        <ele>1059.99</ele>
        <time>2014-09-05T08:30:05Z</time>
      </trkpt>
      <trkpt lat="44.89498" lon="5.38826">
        <ele>1059.99</ele>
        <time>2014-09-05T08:30:06Z</time>
      </trkpt>
      <trkpt lat="44.89498" lon="5.3882">
        <ele>1059.99</ele>
        <time>2014-09-05T08:30:07Z</time>
      </trkpt>
      <trkpt lat="44.895" lon="5.38814">
        <ele>1060.47</ele>
        <time>2014-09-05T08:30:08Z</time>
      </trkpt>
      <trkpt lat="44.89502" lon="5.38808">
        <ele>1059.99</ele>
        <time>2014-09-05T08:30:09Z</time>
      </trkpt>
      <trkpt lat="44.89531" lon="5.38702">
        <ele>1059.99</ele>
        <time>2014-09-05T08:30:24Z</time>
      </trkpt>
      <trkpt lat="44.89541" lon="5.38669">
        <ele>1060.95</ele>
        <time>2014-09-05T08:30:29Z</time>
      </trkpt>
      <trkpt lat="44.89551" lon="5.38631">
        <ele>1062.87</ele>
        <time>2014-09-05T08:30:38Z</time>
      </trkpt>
      <trkpt lat="44.89563" lon="5.38585">
        <ele>1061.43</ele>
        <time>2014-09-05T08:30:46Z</time>
      </trkpt>
      <trkpt lat="44.89572" lon="5.38564">
        <ele>1059.99</ele>
        <time>2014-09-05T08:30:49Z</time>
      </trkpt>
      <trkpt lat="44.89578" lon="5.38548">
        <ele>1059.51</ele>
        <time>2014-09-05T08:30:51Z</time>
      </trkpt>
      <trkpt lat="44.89596" lon="5.38475">
        <ele>1059.03</ele>
        <time>2014-09-05T08:31:00Z</time>
      </trkpt>
      <trkpt lat="44.89605" lon="5.38448">
        <ele>1060.95</ele>
        <time>2014-09-05T08:31:05Z</time>
      </trkpt>
      <trkpt lat="44.89606" lon="5.38443">
        <ele>1060.95</ele>
        <time>2014-09-05T08:31:06Z</time>
      </trkpt>
      <trkpt lat="44.8961" lon="5.38414">
        <ele>1061.91</ele>
        <time>2014-09-05T08:31:11Z</time>
      </trkpt>
      <trkpt lat="44.89621" lon="5.38362">
        <ele>1063.36</ele>
        <time>2014-09-05T08:31:21Z</time>
      </trkpt>
      <trkpt lat="44.89635" lon="5.38292">
        <ele>1061.43</ele>
        <time>2014-09-05T08:31:31Z</time>
      </trkpt>
      <trkpt lat="44.89638" lon="5.38279">
        <ele>1061.91</ele>
        <time>2014-09-05T08:31:33Z</time>
      </trkpt>
      <trkpt lat="44.89644" lon="5.38257">
        <ele>1062.87</ele>
        <time>2014-09-05T08:31:37Z</time>
      </trkpt>
      <trkpt lat="44.89645" lon="5.3825">
        <ele>1062.87</ele>
        <time>2014-09-05T08:31:38Z</time>
      </trkpt>
      <trkpt lat="44.89645" lon="5.38244">
        <ele>1062.87</ele>
        <time>2014-09-05T08:31:39Z</time>
      </trkpt>
      <trkpt lat="44.89652" lon="5.38196">
        <ele>1061.91</ele>
        <time>2014-09-05T08:31:46Z</time>
      </trkpt>
      <trkpt lat="44.89652" lon="5.38189">
        <ele>1061.91</ele>
        <time>2014-09-05T08:31:47Z</time>
      </trkpt>
      <trkpt lat="44.8965" lon="5.38114">
        <ele>1059.99</ele>
        <time>2014-09-05T08:31:56Z</time>
      </trkpt>
      <trkpt lat="44.89645" lon="5.38091">
        <ele>1059.99</ele>
        <time>2014-09-05T08:31:59Z</time>
      </trkpt>
      <trkpt lat="44.89643" lon="5.38076">
        <ele>1059.99</ele>
        <time>2014-09-05T08:32:01Z</time>
      </trkpt>
      <trkpt lat="44.89644" lon="5.38069">
        <ele>1060.47</ele>
        <time>2014-09-05T08:32:02Z</time>
      </trkpt>
      <trkpt lat="44.89645" lon="5.38062">
        <ele>1060.47</ele>
        <time>2014-09-05T08:32:03Z</time>
      </trkpt>
      <trkpt lat="44.89649" lon="5.38044">
        <ele>1061.91</ele>
        <time>2014-09-05T08:32:06Z</time>
      </trkpt>
      <trkpt lat="44.89651" lon="5.38038">
        <ele>1061.43</ele>
        <time>2014-09-05T08:32:07Z</time>
      </trkpt>
      <trkpt lat="44.89655" lon="5.3802">
        <ele>1062.39</ele>
        <time>2014-09-05T08:32:10Z</time>
      </trkpt>
      <trkpt lat="44.89658" lon="5.38009">
        <ele>1061.91</ele>
        <time>2014-09-05T08:32:12Z</time>
      </trkpt>
      <trkpt lat="44.89659" lon="5.38002">
        <ele>1061.91</ele>
        <time>2014-09-05T08:32:13Z</time>
      </trkpt>
      <trkpt lat="44.89659" lon="5.37996">
        <ele>1062.39</ele>
        <time>2014-09-05T08:32:14Z</time>
      </trkpt>
      <trkpt lat="44.89658" lon="5.3799">
        <ele>1062.39</ele>
        <time>2014-09-05T08:32:15Z</time>
      </trkpt>
      <trkpt lat="44.89657" lon="5.37984">
        <ele>1061.91</ele>
        <time>2014-09-05T08:32:16Z</time>
      </trkpt>
      <trkpt lat="44.89655" lon="5.37972">
        <ele>1061.91</ele>
        <time>2014-09-05T08:32:18Z</time>
      </trkpt>
      <trkpt lat="44.89652" lon="5.37959">
        <ele>1061.43</ele>
        <time>2014-09-05T08:32:20Z</time>
      </trkpt>
      <trkpt lat="44.89652" lon="5.37952">
        <ele>1061.43</ele>
        <time>2014-09-05T08:32:21Z</time>
      </trkpt>
      <trkpt lat="44.89652" lon="5.37945">
        <ele>1061.43</ele>
        <time>2014-09-05T08:32:22Z</time>
      </trkpt>
      <trkpt lat="44.89652" lon="5.37931">
        <ele>1059.99</ele>
        <time>2014-09-05T08:32:24Z</time>
      </trkpt>
      <trkpt lat="44.89652" lon="5.37923">
        <ele>1059.99</ele>
        <time>2014-09-05T08:32:25Z</time>
      </trkpt>
      <trkpt lat="44.8965" lon="5.37907">
        <ele>1059.51</ele>
        <time>2014-09-05T08:32:27Z</time>
      </trkpt>
      <trkpt lat="44.89645" lon="5.37879">
        <ele>1059.99</ele>
        <time>2014-09-05T08:32:31Z</time>
      </trkpt>
      <trkpt lat="44.89643" lon="5.37873">
        <ele>1059.99</ele>
        <time>2014-09-05T08:32:32Z</time>
      </trkpt>
      <trkpt lat="44.89641" lon="5.37867">
        <ele>1059.99</ele>
        <time>2014-09-05T08:32:33Z</time>
      </trkpt>
      <trkpt lat="44.89639" lon="5.37861">
        <ele>1059.99</ele>
        <time>2014-09-05T08:32:34Z</time>
      </trkpt>
      <trkpt lat="44.89638" lon="5.37854">
        <ele>1060.47</ele>
        <time>2014-09-05T08:32:35Z</time>
      </trkpt>
      <trkpt lat="44.89633" lon="5.37829">
        <ele>1060.47</ele>
        <time>2014-09-05T08:32:39Z</time>
      </trkpt>
      <trkpt lat="44.89622" lon="5.37796">
        <ele>1060.95</ele>
        <time>2014-09-05T08:32:47Z</time>
      </trkpt>
      <trkpt lat="44.89621" lon="5.37794">
        <ele>1061.43</ele>
        <time>2014-09-05T08:32:55Z</time>
      </trkpt>
      <trkpt lat="44.89621" lon="5.37794">
        <ele>1060.95</ele>
        <time>2014-09-05T08:33:14Z</time>
      </trkpt>
      <trkpt lat="44.89619" lon="5.37793">
        <ele>1061.43</ele>
        <time>2014-09-05T08:33:21Z</time>
      </trkpt>
      <trkpt lat="44.89618" lon="5.37792">
        <ele>1061.43</ele>
        <time>2014-09-05T08:33:22Z</time>
      </trkpt>
      <trkpt lat="44.89609" lon="5.37766">
        <ele>1061.91</ele>
        <time>2014-09-05T08:33:30Z</time>
      </trkpt>
      <trkpt lat="44.89608" lon="5.37755">
        <ele>1062.39</ele>
        <time>2014-09-05T08:33:32Z</time>
      </trkpt>
      <trkpt lat="44.89608" lon="5.37697">
        <ele>1063.84</ele>
        <time>2014-09-05T08:33:43Z</time>
      </trkpt>
      <trkpt lat="44.8962" lon="5.37653">
        <ele>1063.84</ele>
        <time>2014-09-05T08:33:53Z</time>
      </trkpt>
      <trkpt lat="44.89628" lon="5.3761">
        <ele>1063.36</ele>
        <time>2014-09-05T08:34:05Z</time>
      </trkpt>
      <trkpt lat="44.89636" lon="5.37575">
        <ele>1062.39</ele>
        <time>2014-09-05T08:34:13Z</time>
      </trkpt>
      <trkpt lat="44.89642" lon="5.37545">
        <ele>1061.91</ele>
        <time>2014-09-05T08:34:18Z</time>
      </trkpt>
      <trkpt lat="44.89644" lon="5.37539">
        <ele>1061.91</ele>
        <time>2014-09-05T08:34:19Z</time>
      </trkpt>
      <trkpt lat="44.89645" lon="5.37533">
        <ele>1061.43</ele>
        <time>2014-09-05T08:34:20Z</time>
      </trkpt>
      <trkpt lat="44.89646" lon="5.37527">
        <ele>1061.43</ele>
        <time>2014-09-05T08:34:21Z</time>
      </trkpt>
      <trkpt lat="44.89648" lon="5.37521">
        <ele>1061.43</ele>
        <time>2014-09-05T08:34:22Z</time>
      </trkpt>
      <trkpt lat="44.8965" lon="5.37516">
        <ele>1060.95</ele>
        <time>2014-09-05T08:34:23Z</time>
      </trkpt>
      <trkpt lat="44.89661" lon="5.3748">
        <ele>1059.03</ele>
        <time>2014-09-05T08:34:28Z</time>
      </trkpt>
      <trkpt lat="44.89662" lon="5.37472">
        <ele>1059.03</ele>
        <time>2014-09-05T08:34:29Z</time>
      </trkpt>
      <trkpt lat="44.89662" lon="5.37464">
        <ele>1059.03</ele>
        <time>2014-09-05T08:34:30Z</time>
      </trkpt>
      <trkpt lat="44.89662" lon="5.37455">
        <ele>1058.55</ele>
        <time>2014-09-05T08:34:31Z</time>
      </trkpt>
      <trkpt lat="44.89661" lon="5.37447">
        <ele>1058.55</ele>
        <time>2014-09-05T08:34:32Z</time>
      </trkpt>
      <trkpt lat="44.89661" lon="5.37438">
        <ele>1058.07</ele>
        <time>2014-09-05T08:34:33Z</time>
      </trkpt>
      <trkpt lat="44.89661" lon="5.37413">
        <ele>1058.07</ele>
        <time>2014-09-05T08:34:36Z</time>
      </trkpt>
      <trkpt lat="44.8966" lon="5.37405">
        <ele>1057.59</ele>
        <time>2014-09-05T08:34:37Z</time>
      </trkpt>
      <trkpt lat="44.89648" lon="5.37352">
        <ele>1059.51</ele>
        <time>2014-09-05T08:34:46Z</time>
      </trkpt>
      <trkpt lat="44.89645" lon="5.37348">
        <ele>1059.51</ele>
        <time>2014-09-05T08:34:47Z</time>
      </trkpt>
      <trkpt lat="44.89641" lon="5.37344">
        <ele>1059.51</ele>
        <time>2014-09-05T08:34:48Z</time>
      </trkpt>
      <trkpt lat="44.89637" lon="5.3734">
        <ele>1059.51</ele>
        <time>2014-09-05T08:34:49Z</time>
      </trkpt>
      <trkpt lat="44.89634" lon="5.37337">
        <ele>1059.99</ele>
        <time>2014-09-05T08:34:50Z</time>
      </trkpt>
      <trkpt lat="44.8963" lon="5.37334">
        <ele>1059.99</ele>
        <time>2014-09-05T08:34:51Z</time>
      </trkpt>
      <trkpt lat="44.89606" lon="5.37301">
        <ele>1061.43</ele>
        <time>2014-09-05T08:35:00Z</time>
      </trkpt>
      <trkpt lat="44.89591" lon="5.37276">
        <ele>1061.91</ele>
        <time>2014-09-05T08:35:07Z</time>
      </trkpt>
      <trkpt lat="44.8959" lon="5.37273">
        <ele>1061.43</ele>
        <time>2014-09-05T08:35:08Z</time>
      </trkpt>
      <trkpt lat="44.89589" lon="5.37269">
        <ele>1061.43</ele>
        <time>2014-09-05T08:35:09Z</time>
      </trkpt>
      <trkpt lat="44.89579" lon="5.37221">
        <ele>1060.95</ele>
        <time>2014-09-05T08:35:19Z</time>
      </trkpt>
      <trkpt lat="44.89578" lon="5.37216">
        <ele>1060.47</ele>
        <time>2014-09-05T08:35:20Z</time>
      </trkpt>
      <trkpt lat="44.89566" lon="5.37154">
        <ele>1059.99</ele>
        <time>2014-09-05T08:35:32Z</time>
      </trkpt>
      <trkpt lat="44.89556" lon="5.37108">
        <ele>1058.55</ele>
        <time>2014-09-05T08:35:41Z</time>
      </trkpt>
      <trkpt lat="44.89555" lon="5.37105">
        <ele>1058.07</ele>
        <time>2014-09-05T08:35:42Z</time>
      </trkpt>
      <trkpt lat="44.89554" lon="5.37101">
        <ele>1058.55</ele>
        <time>2014-09-05T08:35:43Z</time>
      </trkpt>
      <trkpt lat="44.89553" lon="5.37098">
        <ele>1058.55</ele>
        <time>2014-09-05T08:35:44Z</time>
      </trkpt>
      <trkpt lat="44.89551" lon="5.37095">
        <ele>1058.55</ele>
        <time>2014-09-05T08:35:45Z</time>
      </trkpt>
      <trkpt lat="44.89549" lon="5.37092">
        <ele>1058.07</ele>
        <time>2014-09-05T08:35:46Z</time>
      </trkpt>
      <trkpt lat="44.89548" lon="5.3709">
        <ele>1058.07</ele>
        <time>2014-09-05T08:35:47Z</time>
      </trkpt>
      <trkpt lat="44.89546" lon="5.3709">
        <ele>1058.55</ele>
        <time>2014-09-05T08:35:57Z</time>
      </trkpt>
      <trkpt lat="44.89545" lon="5.37088">
        <ele>1058.07</ele>
        <time>2014-09-05T08:36:08Z</time>
      </trkpt>
      <trkpt lat="44.89545" lon="5.37086">
        <ele>1058.55</ele>
        <time>2014-09-05T08:36:09Z</time>
      </trkpt>
      <trkpt lat="44.89545" lon="5.37084">
        <ele>1058.07</ele>
        <time>2014-09-05T08:36:10Z</time>
      </trkpt>
      <trkpt lat="44.89545" lon="5.37081">
        <ele>1058.55</ele>
        <time>2014-09-05T08:36:11Z</time>
      </trkpt>
      <trkpt lat="44.89545" lon="5.37077">
        <ele>1058.07</ele>
        <time>2014-09-05T08:36:12Z</time>
      </trkpt>
      <trkpt lat="44.89544" lon="5.37074">
        <ele>1058.07</ele>
        <time>2014-09-05T08:36:13Z</time>
      </trkpt>
      <trkpt lat="44.89544" lon="5.3707">
        <ele>1058.55</ele>
        <time>2014-09-05T08:36:14Z</time>
      </trkpt>
      <trkpt lat="44.89543" lon="5.37067">
        <ele>1058.07</ele>
        <time>2014-09-05T08:36:15Z</time>
      </trkpt>
      <trkpt lat="44.89542" lon="5.37064">
        <ele>1058.07</ele>
        <time>2014-09-05T08:36:16Z</time>
      </trkpt>
      <trkpt lat="44.89542" lon="5.3706">
        <ele>1057.59</ele>
        <time>2014-09-05T08:36:17Z</time>
      </trkpt>
      <trkpt lat="44.89542" lon="5.37057">
        <ele>1058.07</ele>
        <time>2014-09-05T08:36:18Z</time>
      </trkpt>
      <trkpt lat="44.89541" lon="5.37054">
        <ele>1057.59</ele>
        <time>2014-09-05T08:36:19Z</time>
      </trkpt>
      <trkpt lat="44.89541" lon="5.37052">
        <ele>1058.07</ele>
        <time>2014-09-05T08:36:20Z</time>
      </trkpt>
      <trkpt lat="44.89541" lon="5.37036">
        <ele>1058.07</ele>
        <time>2014-09-05T08:36:26Z</time>
      </trkpt>
      <trkpt lat="44.8954" lon="5.37034">
        <ele>1058.07</ele>
        <time>2014-09-05T08:36:27Z</time>
      </trkpt>
      <trkpt lat="44.89538" lon="5.3703">
        <ele>1058.07</ele>
        <time>2014-09-05T08:36:29Z</time>
      </trkpt>
      <trkpt lat="44.89538" lon="5.37022">
        <ele>1058.55</ele>
        <time>2014-09-05T08:36:38Z</time>
      </trkpt>
      <trkpt lat="44.89538" lon="5.37012">
        <ele>1058.07</ele>
        <time>2014-09-05T08:36:45Z</time>
      </trkpt>
      <trkpt lat="44.89536" lon="5.36991">
        <ele>1058.55</ele>
        <time>2014-09-05T08:36:55Z</time>
      </trkpt>
      <trkpt lat="44.89536" lon="5.36989">
        <ele>1059.03</ele>
        <time>2014-09-05T08:37:11Z</time>
      </trkpt>
      <trkpt lat="44.89536" lon="5.36987">
        <ele>1059.03</ele>
        <time>2014-09-05T08:37:12Z</time>
      </trkpt>
      <trkpt lat="44.89535" lon="5.36984">
        <ele>1059.03</ele>
        <time>2014-09-05T08:37:13Z</time>
      </trkpt>
      <trkpt lat="44.89535" lon="5.3698">
        <ele>1059.03</ele>
        <time>2014-09-05T08:37:14Z</time>
      </trkpt>
      <trkpt lat="44.89534" lon="5.36975">
        <ele>1059.03</ele>
        <time>2014-09-05T08:37:15Z</time>
      </trkpt>
      <trkpt lat="44.89535" lon="5.3697">
        <ele>1059.51</ele>
        <time>2014-09-05T08:37:16Z</time>
      </trkpt>
      <trkpt lat="44.89533" lon="5.36918">
        <ele>1061.91</ele>
        <time>2014-09-05T08:37:27Z</time>
      </trkpt>
      <trkpt lat="44.89532" lon="5.36876">
        <ele>1062.87</ele>
        <time>2014-09-05T08:37:36Z</time>
      </trkpt>
      <trkpt lat="44.89538" lon="5.36814">
        <ele>1061.91</ele>
        <time>2014-09-05T08:37:46Z</time>
      </trkpt>
      <trkpt lat="44.89543" lon="5.36752">
        <ele>1060.95</ele>
        <time>2014-09-05T08:37:55Z</time>
      </trkpt>
      <trkpt lat="44.89544" lon="5.36745">
        <ele>1060.47</ele>
        <time>2014-09-05T08:37:56Z</time>
      </trkpt>
      <trkpt lat="44.89546" lon="5.36739">
        <ele>1060.47</ele>
        <time>2014-09-05T08:37:57Z</time>
      </trkpt>
      <trkpt lat="44.89557" lon="5.36669">
        <ele>1059.03</ele>
        <time>2014-09-05T08:38:07Z</time>
      </trkpt>
      <trkpt lat="44.89558" lon="5.36607">
        <ele>1059.03</ele>
        <time>2014-09-05T08:38:15Z</time>
      </trkpt>
      <trkpt lat="44.89556" lon="5.36589">
        <ele>1059.51</ele>
        <time>2014-09-05T08:38:19Z</time>
      </trkpt>
      <trkpt lat="44.89554" lon="5.36585">
        <ele>1059.51</ele>
        <time>2014-09-05T08:38:20Z</time>
      </trkpt>
      <trkpt lat="44.89552" lon="5.36577">
        <ele>1059.99</ele>
        <time>2014-09-05T08:38:22Z</time>
      </trkpt>
      <trkpt lat="44.89552" lon="5.36574">
        <ele>1059.99</ele>
        <time>2014-09-05T08:38:23Z</time>
      </trkpt>
      <trkpt lat="44.89552" lon="5.36572">
        <ele>1060.47</ele>
        <time>2014-09-05T08:38:24Z</time>
      </trkpt>
      <trkpt lat="44.89552" lon="5.3657">
        <ele>1060.47</ele>
        <time>2014-09-05T08:38:25Z</time>
      </trkpt>
      <trkpt lat="44.8955" lon="5.36571">
        <ele>1060.47</ele>
        <time>2014-09-05T08:38:26Z</time>
      </trkpt>
      <trkpt lat="44.89549" lon="5.36572">
        <ele>1059.99</ele>
        <time>2014-09-05T08:38:27Z</time>
      </trkpt>
      <trkpt lat="44.89547" lon="5.36574">
        <ele>1059.99</ele>
        <time>2014-09-05T08:38:28Z</time>
      </trkpt>
      <trkpt lat="44.89544" lon="5.36575">
        <ele>1059.51</ele>
        <time>2014-09-05T08:38:29Z</time>
      </trkpt>
      <trkpt lat="44.89541" lon="5.36576">
        <ele>1059.99</ele>
        <time>2014-09-05T08:38:30Z</time>
      </trkpt>
      <trkpt lat="44.89499" lon="5.36583">
        <ele>1059.99</ele>
        <time>2014-09-05T08:38:41Z</time>
      </trkpt>
      <trkpt lat="44.89461" lon="5.36582">
        <ele>1060.95</ele>
        <time>2014-09-05T08:38:51Z</time>
      </trkpt>
      <trkpt lat="44.89449" lon="5.36578">
        <ele>1060.95</ele>
        <time>2014-09-05T08:38:54Z</time>
      </trkpt>
      <trkpt lat="44.8941" lon="5.36562">
        <ele>1059.51</ele>
        <time>2014-09-05T08:39:03Z</time>
      </trkpt>
      <trkpt lat="44.89406" lon="5.36561">
        <ele>1059.99</ele>
        <time>2014-09-05T08:39:04Z</time>
      </trkpt>
      <trkpt lat="44.89352" lon="5.36545">
        <ele>1059.03</ele>
        <time>2014-09-05T08:39:16Z</time>
      </trkpt>
      <trkpt lat="44.89343" lon="5.36544">
        <ele>1059.03</ele>
        <time>2014-09-05T08:39:18Z</time>
      </trkpt>
      <trkpt lat="44.89332" lon="5.36545">
        <ele>1059.03</ele>
        <time>2014-09-05T08:39:20Z</time>
      </trkpt>
      <trkpt lat="44.89327" lon="5.36547">
        <ele>1059.03</ele>
        <time>2014-09-05T08:39:21Z</time>
      </trkpt>
      <trkpt lat="44.89295" lon="5.3656">
        <ele>1058.55</ele>
        <time>2014-09-05T08:39:28Z</time>
      </trkpt>
      <trkpt lat="44.89295" lon="5.36562">
        <ele>1057.59</ele>
        <time>2014-09-05T08:39:35Z</time>
      </trkpt>
      <trkpt lat="44.89295" lon="5.36562">
        <ele>1057.59</ele>
        <time>2014-09-05T08:40:04Z</time>
      </trkpt>
      <trkpt lat="44.89295" lon="5.36562">
        <ele>1057.59</ele>
        <time>2014-09-05T08:40:35Z</time>
      </trkpt>
      <trkpt lat="44.89296" lon="5.36561">
        <ele>1057.59</ele>
        <time>2014-09-05T08:41:07Z</time>
      </trkpt>
      <trkpt lat="44.89296" lon="5.36561">
        <ele>1058.07</ele>
        <time>2014-09-05T08:41:39Z</time>
      </trkpt>
      <trkpt lat="44.89296" lon="5.36561">
        <ele>1057.59</ele>
        <time>2014-09-05T08:42:07Z</time>
      </trkpt>
      <trkpt lat="44.89295" lon="5.3656">
        <ele>1058.07</ele>
        <time>2014-09-05T08:42:10Z</time>
      </trkpt>
      <trkpt lat="44.89293" lon="5.3656">
        <ele>1058.55</ele>
        <time>2014-09-05T08:42:15Z</time>
      </trkpt>
      <trkpt lat="44.89291" lon="5.3656">
        <ele>1058.55</ele>
        <time>2014-09-05T08:42:16Z</time>
      </trkpt>
      <trkpt lat="44.89289" lon="5.36561">
        <ele>1058.55</ele>
        <time>2014-09-05T08:42:17Z</time>
      </trkpt>
      <trkpt lat="44.89287" lon="5.36562">
        <ele>1058.55</ele>
        <time>2014-09-05T08:42:18Z</time>
      </trkpt>
      <trkpt lat="44.89285" lon="5.36563">
        <ele>1058.07</ele>
        <time>2014-09-05T08:42:19Z</time>
      </trkpt>
      <trkpt lat="44.89282" lon="5.36564">
        <ele>1058.07</ele>
        <time>2014-09-05T08:42:20Z</time>
      </trkpt>
      <trkpt lat="44.89246" lon="5.36576">
        <ele>1058.55</ele>
        <time>2014-09-05T08:42:30Z</time>
      </trkpt>
      <trkpt lat="44.89206" lon="5.36588">
        <ele>1059.03</ele>
        <time>2014-09-05T08:42:39Z</time>
      </trkpt>
      <trkpt lat="44.89149" lon="5.36598">
        <ele>1059.03</ele>
        <time>2014-09-05T08:42:51Z</time>
      </trkpt>
      <trkpt lat="44.8909" lon="5.36606">
        <ele>1059.51</ele>
        <time>2014-09-05T08:43:03Z</time>
      </trkpt>
      <trkpt lat="44.89069" lon="5.36606">
        <ele>1060.47</ele>
        <time>2014-09-05T08:43:07Z</time>
      </trkpt>
      <trkpt lat="44.89064" lon="5.36606">
        <ele>1060.47</ele>
        <time>2014-09-05T08:43:08Z</time>
      </trkpt>
      <trkpt lat="44.89026" lon="5.36607">
        <ele>1060.95</ele>
        <time>2014-09-05T08:43:16Z</time>
      </trkpt>
      <trkpt lat="44.88962" lon="5.36621">
        <ele>1060.95</ele>
        <time>2014-09-05T08:43:30Z</time>
      </trkpt>
      <trkpt lat="44.88903" lon="5.36624">
        <ele>1060.95</ele>
        <time>2014-09-05T08:43:42Z</time>
      </trkpt>
      <trkpt lat="44.88859" lon="5.36624">
        <ele>1061.43</ele>
        <time>2014-09-05T08:43:51Z</time>
      </trkpt>
      <trkpt lat="44.888" lon="5.36619">
        <ele>1061.43</ele>
        <time>2014-09-05T08:44:03Z</time>
      </trkpt>
      <trkpt lat="44.88739" lon="5.36604">
        <ele>1061.43</ele>
        <time>2014-09-05T08:44:16Z</time>
      </trkpt>
      <trkpt lat="44.8873" lon="5.36603">
        <ele>1061.43</ele>
        <time>2014-09-05T08:44:18Z</time>
      </trkpt>
      <trkpt lat="44.8868" lon="5.36597">
        <ele>1061.91</ele>
        <time>2014-09-05T08:44:30Z</time>
      </trkpt>
      <trkpt lat="44.88654" lon="5.36584">
        <ele>1061.91</ele>
        <time>2014-09-05T08:44:37Z</time>
      </trkpt>
      <trkpt lat="44.8865" lon="5.36582">
        <ele>1061.91</ele>
        <time>2014-09-05T08:44:38Z</time>
      </trkpt>
      <trkpt lat="44.88639" lon="5.36574">
        <ele>1061.91</ele>
        <time>2014-09-05T08:44:41Z</time>
      </trkpt>
      <trkpt lat="44.88635" lon="5.36571">
        <ele>1061.43</ele>
        <time>2014-09-05T08:44:42Z</time>
      </trkpt>
      <trkpt lat="44.88631" lon="5.36568">
        <ele>1061.91</ele>
        <time>2014-09-05T08:44:43Z</time>
      </trkpt>
      <trkpt lat="44.88627" lon="5.36565">
        <ele>1061.43</ele>
        <time>2014-09-05T08:44:44Z</time>
      </trkpt>
      <trkpt lat="44.88624" lon="5.36562">
        <ele>1061.91</ele>
        <time>2014-09-05T08:44:45Z</time>
      </trkpt>
      <trkpt lat="44.8862" lon="5.36559">
        <ele>1061.91</ele>
        <time>2014-09-05T08:44:46Z</time>
      </trkpt>
      <trkpt lat="44.88616" lon="5.36556">
        <ele>1061.43</ele>
        <time>2014-09-05T08:44:47Z</time>
      </trkpt>
      <trkpt lat="44.88612" lon="5.36553">
        <ele>1062.39</ele>
        <time>2014-09-05T08:44:48Z</time>
      </trkpt>
      <trkpt lat="44.88571" lon="5.36526">
        <ele>1062.87</ele>
        <time>2014-09-05T08:45:00Z</time>
      </trkpt>
      <trkpt lat="44.88521" lon="5.36506">
        <ele>1063.36</ele>
        <time>2014-09-05T08:45:14Z</time>
      </trkpt>
      <trkpt lat="44.88486" lon="5.36492">
        <ele>1064.8</ele>
        <time>2014-09-05T08:45:26Z</time>
      </trkpt>
      <trkpt lat="44.8846" lon="5.3647">
        <ele>1065.76</ele>
        <time>2014-09-05T08:45:37Z</time>
      </trkpt>
      <trkpt lat="44.88435" lon="5.36441">
        <ele>1068.64</ele>
        <time>2014-09-05T08:45:49Z</time>
      </trkpt>
      <trkpt lat="44.88419" lon="5.36433">
        <ele>1070.08</ele>
        <time>2014-09-05T08:45:58Z</time>
      </trkpt>
      <trkpt lat="44.88398" lon="5.36431">
        <ele>1072.01</ele>
        <time>2014-09-05T08:46:08Z</time>
      </trkpt>
      <trkpt lat="44.88389" lon="5.36428">
        <ele>1072.97</ele>
        <time>2014-09-05T08:46:13Z</time>
      </trkpt>
      <trkpt lat="44.88388" lon="5.36428">
        <ele>1073.45</ele>
        <time>2014-09-05T08:46:14Z</time>
      </trkpt>
      <trkpt lat="44.88386" lon="5.36428">
        <ele>1073.45</ele>
        <time>2014-09-05T08:46:15Z</time>
      </trkpt>
      <trkpt lat="44.88385" lon="5.36427">
        <ele>1073.45</ele>
        <time>2014-09-05T08:46:16Z</time>
      </trkpt>
      <trkpt lat="44.88383" lon="5.36426">
        <ele>1073.93</ele>
        <time>2014-09-05T08:46:17Z</time>
      </trkpt>
      <trkpt lat="44.88381" lon="5.36426">
        <ele>1073.93</ele>
        <time>2014-09-05T08:46:18Z</time>
      </trkpt>
      <trkpt lat="44.88378" lon="5.36426">
        <ele>1073.93</ele>
        <time>2014-09-05T08:46:20Z</time>
      </trkpt>
      <trkpt lat="44.88377" lon="5.36426">
        <ele>1074.41</ele>
        <time>2014-09-05T08:46:21Z</time>
      </trkpt>
      <trkpt lat="44.88376" lon="5.36425">
        <ele>1074.89</ele>
        <time>2014-09-05T08:46:22Z</time>
      </trkpt>
      <trkpt lat="44.88374" lon="5.36424">
        <ele>1074.89</ele>
        <time>2014-09-05T08:46:23Z</time>
      </trkpt>
      <trkpt lat="44.88372" lon="5.36424">
        <ele>1074.89</ele>
        <time>2014-09-05T08:46:24Z</time>
      </trkpt>
      <trkpt lat="44.88369" lon="5.36424">
        <ele>1075.37</ele>
        <time>2014-09-05T08:46:26Z</time>
      </trkpt>
      <trkpt lat="44.88367" lon="5.36424">
        <ele>1075.85</ele>
        <time>2014-09-05T08:46:27Z</time>
      </trkpt>
      <trkpt lat="44.88366" lon="5.36424">
        <ele>1075.85</ele>
        <time>2014-09-05T08:46:28Z</time>
      </trkpt>
      <trkpt lat="44.88364" lon="5.36423">
        <ele>1076.33</ele>
        <time>2014-09-05T08:46:29Z</time>
      </trkpt>
      <trkpt lat="44.88363" lon="5.36423">
        <ele>1076.33</ele>
        <time>2014-09-05T08:46:30Z</time>
      </trkpt>
      <trkpt lat="44.88362" lon="5.36423">
        <ele>1076.81</ele>
        <time>2014-09-05T08:46:31Z</time>
      </trkpt>
      <trkpt lat="44.88361" lon="5.36423">
        <ele>1076.81</ele>
        <time>2014-09-05T08:46:32Z</time>
      </trkpt>
      <trkpt lat="44.8836" lon="5.36423">
        <ele>1076.81</ele>
        <time>2014-09-05T08:46:33Z</time>
      </trkpt>
      <trkpt lat="44.88358" lon="5.36423">
        <ele>1076.81</ele>
        <time>2014-09-05T08:46:34Z</time>
      </trkpt>
      <trkpt lat="44.88343" lon="5.3642">
        <ele>1078.74</ele>
        <time>2014-09-05T08:46:44Z</time>
      </trkpt>
      <trkpt lat="44.88325" lon="5.36416">
        <ele>1080.66</ele>
        <time>2014-09-05T08:46:55Z</time>
      </trkpt>
      <trkpt lat="44.8831" lon="5.36412">
        <ele>1081.62</ele>
        <time>2014-09-05T08:47:04Z</time>
      </trkpt>
      <trkpt lat="44.88293" lon="5.36406">
        <ele>1082.58</ele>
        <time>2014-09-05T08:47:14Z</time>
      </trkpt>
      <trkpt lat="44.88266" lon="5.3639">
        <ele>1080.66</ele>
        <time>2014-09-05T08:47:23Z</time>
      </trkpt>
      <trkpt lat="44.88252" lon="5.36375">
        <ele>1079.7</ele>
        <time>2014-09-05T08:47:27Z</time>
      </trkpt>
      <trkpt lat="44.88247" lon="5.36372">
        <ele>1079.7</ele>
        <time>2014-09-05T08:47:28Z</time>
      </trkpt>
      <trkpt lat="44.88243" lon="5.3637">
        <ele>1079.7</ele>
        <time>2014-09-05T08:47:29Z</time>
      </trkpt>
      <trkpt lat="44.88239" lon="5.36369">
        <ele>1079.7</ele>
        <time>2014-09-05T08:47:30Z</time>
      </trkpt>
      <trkpt lat="44.88236" lon="5.36368">
        <ele>1080.18</ele>
        <time>2014-09-05T08:47:31Z</time>
      </trkpt>
      <trkpt lat="44.88232" lon="5.36367">
        <ele>1080.18</ele>
        <time>2014-09-05T08:47:32Z</time>
      </trkpt>
      <trkpt lat="44.88229" lon="5.36366">
        <ele>1080.18</ele>
        <time>2014-09-05T08:47:33Z</time>
      </trkpt>
      <trkpt lat="44.88226" lon="5.36364">
        <ele>1080.18</ele>
        <time>2014-09-05T08:47:34Z</time>
      </trkpt>
      <trkpt lat="44.88223" lon="5.36363">
        <ele>1080.66</ele>
        <time>2014-09-05T08:47:35Z</time>
      </trkpt>
      <trkpt lat="44.88221" lon="5.36362">
        <ele>1080.66</ele>
        <time>2014-09-05T08:47:36Z</time>
      </trkpt>
      <trkpt lat="44.88218" lon="5.36362">
        <ele>1081.62</ele>
        <time>2014-09-05T08:47:37Z</time>
      </trkpt>
      <trkpt lat="44.88215" lon="5.36362">
        <ele>1080.66</ele>
        <time>2014-09-05T08:47:38Z</time>
      </trkpt>
      <trkpt lat="44.88199" lon="5.36365">
        <ele>1083.06</ele>
        <time>2014-09-05T08:47:46Z</time>
      </trkpt>
      <trkpt lat="44.88186" lon="5.36375">
        <ele>1084.02</ele>
        <time>2014-09-05T08:47:54Z</time>
      </trkpt>
      <trkpt lat="44.88167" lon="5.36391">
        <ele>1084.5</ele>
        <time>2014-09-05T08:48:03Z</time>
      </trkpt>
      <trkpt lat="44.88152" lon="5.36392">
        <ele>1086.43</ele>
        <time>2014-09-05T08:48:13Z</time>
      </trkpt>
      <trkpt lat="44.88146" lon="5.36393">
        <ele>1086.91</ele>
        <time>2014-09-05T08:48:16Z</time>
      </trkpt>
      <trkpt lat="44.88144" lon="5.36392">
        <ele>1086.91</ele>
        <time>2014-09-05T08:48:17Z</time>
      </trkpt>
      <trkpt lat="44.88142" lon="5.36393">
        <ele>1086.91</ele>
        <time>2014-09-05T08:48:18Z</time>
      </trkpt>
      <trkpt lat="44.88141" lon="5.36393">
        <ele>1086.91</ele>
        <time>2014-09-05T08:48:19Z</time>
      </trkpt>
      <trkpt lat="44.8814" lon="5.36392">
        <ele>1087.39</ele>
        <time>2014-09-05T08:48:20Z</time>
      </trkpt>
      <trkpt lat="44.88131" lon="5.36392">
        <ele>1088.83</ele>
        <time>2014-09-05T08:48:27Z</time>
      </trkpt>
      <trkpt lat="44.88118" lon="5.36388">
        <ele>1089.31</ele>
        <time>2014-09-05T08:48:33Z</time>
      </trkpt>
      <trkpt lat="44.88117" lon="5.36387">
        <ele>1089.79</ele>
        <time>2014-09-05T08:48:34Z</time>
      </trkpt>
      <trkpt lat="44.88115" lon="5.36387">
        <ele>1090.27</ele>
        <time>2014-09-05T08:48:35Z</time>
      </trkpt>
      <trkpt lat="44.88114" lon="5.36387">
        <ele>1090.27</ele>
        <time>2014-09-05T08:48:36Z</time>
      </trkpt>
      <trkpt lat="44.88112" lon="5.36386">
        <ele>1090.27</ele>
        <time>2014-09-05T08:48:37Z</time>
      </trkpt>
      <trkpt lat="44.88111" lon="5.36385">
        <ele>1090.75</ele>
        <time>2014-09-05T08:48:38Z</time>
      </trkpt>
      <trkpt lat="44.88095" lon="5.36371">
        <ele>1092.68</ele>
        <time>2014-09-05T08:48:49Z</time>
      </trkpt>
      <trkpt lat="44.8809" lon="5.36361">
        <ele>1093.16</ele>
        <time>2014-09-05T08:48:54Z</time>
      </trkpt>
      <trkpt lat="44.88089" lon="5.36359">
        <ele>1093.64</ele>
        <time>2014-09-05T08:48:55Z</time>
      </trkpt>
      <trkpt lat="44.88085" lon="5.36351">
        <ele>1094.12</ele>
        <time>2014-09-05T08:49:00Z</time>
      </trkpt>
      <trkpt lat="44.88083" lon="5.3635">
        <ele>1094.6</ele>
        <time>2014-09-05T08:49:01Z</time>
      </trkpt>
      <trkpt lat="44.88082" lon="5.36349">
        <ele>1094.6</ele>
        <time>2014-09-05T08:49:02Z</time>
      </trkpt>
      <trkpt lat="44.88081" lon="5.36347">
        <ele>1094.6</ele>
        <time>2014-09-05T08:49:03Z</time>
      </trkpt>
      <trkpt lat="44.8808" lon="5.36344">
        <ele>1095.08</ele>
        <time>2014-09-05T08:49:05Z</time>
      </trkpt>
      <trkpt lat="44.88076" lon="5.36339">
        <ele>1096.04</ele>
        <time>2014-09-05T08:49:10Z</time>
      </trkpt>
      <trkpt lat="44.88076" lon="5.36337">
        <ele>1096.04</ele>
        <time>2014-09-05T08:49:11Z</time>
      </trkpt>
      <trkpt lat="44.88075" lon="5.36335">
        <ele>1096.52</ele>
        <time>2014-09-05T08:49:12Z</time>
      </trkpt>
      <trkpt lat="44.88074" lon="5.36334">
        <ele>1096.52</ele>
        <time>2014-09-05T08:49:13Z</time>
      </trkpt>
      <trkpt lat="44.88073" lon="5.36332">
        <ele>1096.52</ele>
        <time>2014-09-05T08:49:14Z</time>
      </trkpt>
      <trkpt lat="44.88072" lon="5.36329">
        <ele>1096.52</ele>
        <time>2014-09-05T08:49:16Z</time>
      </trkpt>
      <trkpt lat="44.88071" lon="5.36327">
        <ele>1097</ele>
        <time>2014-09-05T08:49:17Z</time>
      </trkpt>
      <trkpt lat="44.88064" lon="5.36317">
        <ele>1098.44</ele>
        <time>2014-09-05T08:49:24Z</time>
      </trkpt>
      <trkpt lat="44.88059" lon="5.36311">
        <ele>1098.92</ele>
        <time>2014-09-05T08:49:29Z</time>
      </trkpt>
      <trkpt lat="44.88059" lon="5.36309">
        <ele>1098.92</ele>
        <time>2014-09-05T08:49:30Z</time>
      </trkpt>
      <trkpt lat="44.88059" lon="5.36307">
        <ele>1099.4</ele>
        <time>2014-09-05T08:49:31Z</time>
      </trkpt>
      <trkpt lat="44.88057" lon="5.36306">
        <ele>1099.4</ele>
        <time>2014-09-05T08:49:32Z</time>
      </trkpt>
      <trkpt lat="44.88056" lon="5.36305">
        <ele>1099.4</ele>
        <time>2014-09-05T08:49:33Z</time>
      </trkpt>
      <trkpt lat="44.88054" lon="5.36305">
        <ele>1099.4</ele>
        <time>2014-09-05T08:49:34Z</time>
      </trkpt>
      <trkpt lat="44.88052" lon="5.36303">
        <ele>1099.89</ele>
        <time>2014-09-05T08:49:36Z</time>
      </trkpt>
      <trkpt lat="44.88044" lon="5.36282">
        <ele>1101.33</ele>
        <time>2014-09-05T08:49:47Z</time>
      </trkpt>
      <trkpt lat="44.88043" lon="5.3628">
        <ele>1101.33</ele>
        <time>2014-09-05T08:49:48Z</time>
      </trkpt>
      <trkpt lat="44.88042" lon="5.36278">
        <ele>1101.33</ele>
        <time>2014-09-05T08:49:49Z</time>
      </trkpt>
      <trkpt lat="44.88042" lon="5.36276">
        <ele>1101.81</ele>
        <time>2014-09-05T08:49:50Z</time>
      </trkpt>
      <trkpt lat="44.88041" lon="5.36275">
        <ele>1101.81</ele>
        <time>2014-09-05T08:49:51Z</time>
      </trkpt>
      <trkpt lat="44.88041" lon="5.36272">
        <ele>1101.81</ele>
        <time>2014-09-05T08:49:52Z</time>
      </trkpt>
      <trkpt lat="44.88041" lon="5.36271">
        <ele>1101.81</ele>
        <time>2014-09-05T08:49:53Z</time>
      </trkpt>
      <trkpt lat="44.88041" lon="5.36269">
        <ele>1101.81</ele>
        <time>2014-09-05T08:49:54Z</time>
      </trkpt>
      <trkpt lat="44.8804" lon="5.36265">
        <ele>1102.77</ele>
        <time>2014-09-05T08:49:57Z</time>
      </trkpt>
      <trkpt lat="44.88039" lon="5.36263">
        <ele>1102.77</ele>
        <time>2014-09-05T08:49:58Z</time>
      </trkpt>
      <trkpt lat="44.88038" lon="5.36261">
        <ele>1102.29</ele>
        <time>2014-09-05T08:49:59Z</time>
      </trkpt>
      <trkpt lat="44.88031" lon="5.36246">
        <ele>1104.21</ele>
        <time>2014-09-05T08:50:09Z</time>
      </trkpt>
      <trkpt lat="44.88031" lon="5.36244">
        <ele>1104.21</ele>
        <time>2014-09-05T08:50:10Z</time>
      </trkpt>
      <trkpt lat="44.88031" lon="5.36242">
        <ele>1104.21</ele>
        <time>2014-09-05T08:50:11Z</time>
      </trkpt>
      <trkpt lat="44.8803" lon="5.3624">
        <ele>1104.21</ele>
        <time>2014-09-05T08:50:12Z</time>
      </trkpt>
      <trkpt lat="44.88029" lon="5.36238">
        <ele>1104.21</ele>
        <time>2014-09-05T08:50:13Z</time>
      </trkpt>
      <trkpt lat="44.88028" lon="5.36237">
        <ele>1104.69</ele>
        <time>2014-09-05T08:50:14Z</time>
      </trkpt>
      <trkpt lat="44.88025" lon="5.36225">
        <ele>1105.65</ele>
        <time>2014-09-05T08:50:22Z</time>
      </trkpt>
      <trkpt lat="44.88025" lon="5.36223">
        <ele>1106.61</ele>
        <time>2014-09-05T08:50:23Z</time>
      </trkpt>
      <trkpt lat="44.88023" lon="5.36222">
        <ele>1106.13</ele>
        <time>2014-09-05T08:50:24Z</time>
      </trkpt>
      <trkpt lat="44.88023" lon="5.3622">
        <ele>1106.13</ele>
        <time>2014-09-05T08:50:25Z</time>
      </trkpt>
      <trkpt lat="44.8802" lon="5.36209">
        <ele>1107.1</ele>
        <time>2014-09-05T08:50:31Z</time>
      </trkpt>
      <trkpt lat="44.88018" lon="5.36208">
        <ele>1107.1</ele>
        <time>2014-09-05T08:50:32Z</time>
      </trkpt>
      <trkpt lat="44.88009" lon="5.36207">
        <ele>1107.58</ele>
        <time>2014-09-05T08:50:37Z</time>
      </trkpt>
      <trkpt lat="44.88007" lon="5.36207">
        <ele>1107.58</ele>
        <time>2014-09-05T08:50:38Z</time>
      </trkpt>
      <trkpt lat="44.88005" lon="5.36208">
        <ele>1107.1</ele>
        <time>2014-09-05T08:50:39Z</time>
      </trkpt>
      <trkpt lat="44.88004" lon="5.36209">
        <ele>1107.58</ele>
        <time>2014-09-05T08:50:40Z</time>
      </trkpt>
      <trkpt lat="44.88002" lon="5.36211">
        <ele>1107.58</ele>
        <time>2014-09-05T08:50:41Z</time>
      </trkpt>
      <trkpt lat="44.88" lon="5.36212">
        <ele>1107.58</ele>
        <time>2014-09-05T08:50:42Z</time>
      </trkpt>
      <trkpt lat="44.8797" lon="5.36227">
        <ele>1107.58</ele>
        <time>2014-09-05T08:50:53Z</time>
      </trkpt>
      <trkpt lat="44.87946" lon="5.36223">
        <ele>1109.02</ele>
        <time>2014-09-05T08:51:02Z</time>
      </trkpt>
      <trkpt lat="44.87921" lon="5.36214">
        <ele>1109.5</ele>
        <time>2014-09-05T08:51:12Z</time>
      </trkpt>
      <trkpt lat="44.87897" lon="5.362">
        <ele>1111.9</ele>
        <time>2014-09-05T08:51:22Z</time>
      </trkpt>
      <trkpt lat="44.87872" lon="5.36176">
        <ele>1112.38</ele>
        <time>2014-09-05T08:51:34Z</time>
      </trkpt>
      <trkpt lat="44.87841" lon="5.36164">
        <ele>1113.34</ele>
        <time>2014-09-05T08:51:46Z</time>
      </trkpt>
      <trkpt lat="44.87801" lon="5.36143">
        <ele>1113.82</ele>
        <time>2014-09-05T08:51:59Z</time>
      </trkpt>
      <trkpt lat="44.87774" lon="5.3613">
        <ele>1114.79</ele>
        <time>2014-09-05T08:52:09Z</time>
      </trkpt>
      <trkpt lat="44.87772" lon="5.36128">
        <ele>1115.27</ele>
        <time>2014-09-05T08:52:10Z</time>
      </trkpt>
      <trkpt lat="44.87771" lon="5.36125">
        <ele>1115.75</ele>
        <time>2014-09-05T08:52:11Z</time>
      </trkpt>
      <trkpt lat="44.87771" lon="5.36121">
        <ele>1115.75</ele>
        <time>2014-09-05T08:52:12Z</time>
      </trkpt>
      <trkpt lat="44.87771" lon="5.36117">
        <ele>1116.23</ele>
        <time>2014-09-05T08:52:13Z</time>
      </trkpt>
      <trkpt lat="44.87772" lon="5.36113">
        <ele>1116.23</ele>
        <time>2014-09-05T08:52:14Z</time>
      </trkpt>
      <trkpt lat="44.87771" lon="5.36111">
        <ele>1116.23</ele>
        <time>2014-09-05T08:52:15Z</time>
      </trkpt>
      <trkpt lat="44.8777" lon="5.36108">
        <ele>1116.23</ele>
        <time>2014-09-05T08:52:16Z</time>
      </trkpt>
      <trkpt lat="44.87768" lon="5.36106">
        <ele>1116.23</ele>
        <time>2014-09-05T08:52:17Z</time>
      </trkpt>
      <trkpt lat="44.87766" lon="5.36105">
        <ele>1115.75</ele>
        <time>2014-09-05T08:52:18Z</time>
      </trkpt>
      <trkpt lat="44.87734" lon="5.36087">
        <ele>1117.67</ele>
        <time>2014-09-05T08:52:29Z</time>
      </trkpt>
      <trkpt lat="44.87703" lon="5.36076">
        <ele>1118.63</ele>
        <time>2014-09-05T08:52:40Z</time>
      </trkpt>
      <trkpt lat="44.87674" lon="5.36058">
        <ele>1119.59</ele>
        <time>2014-09-05T08:52:51Z</time>
      </trkpt>
      <trkpt lat="44.87649" lon="5.3604">
        <ele>1121.03</ele>
        <time>2014-09-05T08:53:01Z</time>
      </trkpt>
      <trkpt lat="44.87624" lon="5.36032">
        <ele>1122.96</ele>
        <time>2014-09-05T08:53:10Z</time>
      </trkpt>
      <trkpt lat="44.87597" lon="5.36023">
        <ele>1123.44</ele>
        <time>2014-09-05T08:53:20Z</time>
      </trkpt>
      <trkpt lat="44.87568" lon="5.36013">
        <ele>1125.36</ele>
        <time>2014-09-05T08:53:31Z</time>
      </trkpt>
      <trkpt lat="44.87542" lon="5.35998">
        <ele>1126.8</ele>
        <time>2014-09-05T08:53:42Z</time>
      </trkpt>
      <trkpt lat="44.87524" lon="5.35984">
        <ele>1127.76</ele>
        <time>2014-09-05T08:53:51Z</time>
      </trkpt>
      <trkpt lat="44.87511" lon="5.35966">
        <ele>1129.21</ele>
        <time>2014-09-05T08:53:59Z</time>
      </trkpt>
      <trkpt lat="44.87502" lon="5.3596">
        <ele>1130.17</ele>
        <time>2014-09-05T08:54:04Z</time>
      </trkpt>
      <trkpt lat="44.875" lon="5.35959">
        <ele>1130.17</ele>
        <time>2014-09-05T08:54:05Z</time>
      </trkpt>
      <trkpt lat="44.87498" lon="5.35958">
        <ele>1130.65</ele>
        <time>2014-09-05T08:54:06Z</time>
      </trkpt>
      <trkpt lat="44.87496" lon="5.35958">
        <ele>1131.13</ele>
        <time>2014-09-05T08:54:07Z</time>
      </trkpt>
      <trkpt lat="44.87494" lon="5.35956">
        <ele>1131.13</ele>
        <time>2014-09-05T08:54:08Z</time>
      </trkpt>
      <trkpt lat="44.87491" lon="5.35955">
        <ele>1130.65</ele>
        <time>2014-09-05T08:54:09Z</time>
      </trkpt>
      <trkpt lat="44.87489" lon="5.35954">
        <ele>1130.65</ele>
        <time>2014-09-05T08:54:10Z</time>
      </trkpt>
      <trkpt lat="44.87487" lon="5.35953">
        <ele>1131.13</ele>
        <time>2014-09-05T08:54:11Z</time>
      </trkpt>
      <trkpt lat="44.87471" lon="5.35945">
        <ele>1131.61</ele>
        <time>2014-09-05T08:54:18Z</time>
      </trkpt>
      <trkpt lat="44.8747" lon="5.35944">
        <ele>1131.61</ele>
        <time>2014-09-05T08:54:19Z</time>
      </trkpt>
      <trkpt lat="44.87469" lon="5.35943">
        <ele>1131.61</ele>
        <time>2014-09-05T08:54:20Z</time>
      </trkpt>
      <trkpt lat="44.87466" lon="5.35941">
        <ele>1131.61</ele>
        <time>2014-09-05T08:54:21Z</time>
      </trkpt>
      <trkpt lat="44.87464" lon="5.3594">
        <ele>1131.61</ele>
        <time>2014-09-05T08:54:22Z</time>
      </trkpt>
      <trkpt lat="44.87462" lon="5.35938">
        <ele>1131.61</ele>
        <time>2014-09-05T08:54:23Z</time>
      </trkpt>
      <trkpt lat="44.87461" lon="5.35936">
        <ele>1132.09</ele>
        <time>2014-09-05T08:54:24Z</time>
      </trkpt>
      <trkpt lat="44.87459" lon="5.35935">
        <ele>1132.09</ele>
        <time>2014-09-05T08:54:25Z</time>
      </trkpt>
      <trkpt lat="44.87458" lon="5.35934">
        <ele>1132.09</ele>
        <time>2014-09-05T08:54:26Z</time>
      </trkpt>
      <trkpt lat="44.87456" lon="5.35933">
        <ele>1132.57</ele>
        <time>2014-09-05T08:54:27Z</time>
      </trkpt>
      <trkpt lat="44.87455" lon="5.35932">
        <ele>1133.05</ele>
        <time>2014-09-05T08:54:28Z</time>
      </trkpt>
      <trkpt lat="44.87453" lon="5.35931">
        <ele>1132.57</ele>
        <time>2014-09-05T08:54:29Z</time>
      </trkpt>
      <trkpt lat="44.87451" lon="5.35929">
        <ele>1132.57</ele>
        <time>2014-09-05T08:54:30Z</time>
      </trkpt>
      <trkpt lat="44.87449" lon="5.35927">
        <ele>1133.53</ele>
        <time>2014-09-05T08:54:31Z</time>
      </trkpt>
      <trkpt lat="44.87447" lon="5.35926">
        <ele>1133.05</ele>
        <time>2014-09-05T08:54:32Z</time>
      </trkpt>
      <trkpt lat="44.87445" lon="5.35925">
        <ele>1133.05</ele>
        <time>2014-09-05T08:54:33Z</time>
      </trkpt>
      <trkpt lat="44.87444" lon="5.35923">
        <ele>1134.01</ele>
        <time>2014-09-05T08:54:34Z</time>
      </trkpt>
      <trkpt lat="44.87442" lon="5.35922">
        <ele>1133.53</ele>
        <time>2014-09-05T08:54:35Z</time>
      </trkpt>
      <trkpt lat="44.87441" lon="5.35921">
        <ele>1133.53</ele>
        <time>2014-09-05T08:54:36Z</time>
      </trkpt>
      <trkpt lat="44.87439" lon="5.35919">
        <ele>1134.01</ele>
        <time>2014-09-05T08:54:37Z</time>
      </trkpt>
      <trkpt lat="44.87421" lon="5.35902">
        <ele>1135.45</ele>
        <time>2014-09-05T08:54:48Z</time>
      </trkpt>
      <trkpt lat="44.874" lon="5.35891">
        <ele>1136.42</ele>
        <time>2014-09-05T08:54:58Z</time>
      </trkpt>
      <trkpt lat="44.8737" lon="5.3588">
        <ele>1137.86</ele>
        <time>2014-09-05T08:55:11Z</time>
      </trkpt>
      <trkpt lat="44.87353" lon="5.35872">
        <ele>1138.82</ele>
        <time>2014-09-05T08:55:20Z</time>
      </trkpt>
      <trkpt lat="44.87341" lon="5.35867">
        <ele>1139.3</ele>
        <time>2014-09-05T08:55:28Z</time>
      </trkpt>
      <trkpt lat="44.87317" lon="5.35858">
        <ele>1140.74</ele>
        <time>2014-09-05T08:55:38Z</time>
      </trkpt>
      <trkpt lat="44.87294" lon="5.35849">
        <ele>1141.7</ele>
        <time>2014-09-05T08:55:48Z</time>
      </trkpt>
      <trkpt lat="44.87292" lon="5.35849">
        <ele>1141.7</ele>
        <time>2014-09-05T08:55:49Z</time>
      </trkpt>
      <trkpt lat="44.8729" lon="5.35848">
        <ele>1142.18</ele>
        <time>2014-09-05T08:55:50Z</time>
      </trkpt>
      <trkpt lat="44.87267" lon="5.35837">
        <ele>1143.63</ele>
        <time>2014-09-05T08:56:02Z</time>
      </trkpt>
      <trkpt lat="44.87246" lon="5.35825">
        <ele>1144.59</ele>
        <time>2014-09-05T08:56:13Z</time>
      </trkpt>
      <trkpt lat="44.87227" lon="5.35816">
        <ele>1145.55</ele>
        <time>2014-09-05T08:56:23Z</time>
      </trkpt>
      <trkpt lat="44.87205" lon="5.35801">
        <ele>1146.99</ele>
        <time>2014-09-05T08:56:35Z</time>
      </trkpt>
      <trkpt lat="44.87184" lon="5.35792">
        <ele>1147.95</ele>
        <time>2014-09-05T08:56:44Z</time>
      </trkpt>
      <trkpt lat="44.87183" lon="5.35791">
        <ele>1148.43</ele>
        <time>2014-09-05T08:56:45Z</time>
      </trkpt>
      <trkpt lat="44.87181" lon="5.35789">
        <ele>1147.95</ele>
        <time>2014-09-05T08:56:46Z</time>
      </trkpt>
      <trkpt lat="44.8718" lon="5.35788">
        <ele>1148.43</ele>
        <time>2014-09-05T08:56:47Z</time>
      </trkpt>
      <trkpt lat="44.87178" lon="5.35788">
        <ele>1148.43</ele>
        <time>2014-09-05T08:56:48Z</time>
      </trkpt>
      <trkpt lat="44.87176" lon="5.35788">
        <ele>1148.91</ele>
        <time>2014-09-05T08:56:49Z</time>
      </trkpt>
      <trkpt lat="44.87174" lon="5.35786">
        <ele>1148.91</ele>
        <time>2014-09-05T08:56:50Z</time>
      </trkpt>
      <trkpt lat="44.87172" lon="5.35786">
        <ele>1149.39</ele>
        <time>2014-09-05T08:56:51Z</time>
      </trkpt>
      <trkpt lat="44.87169" lon="5.35786">
        <ele>1149.39</ele>
        <time>2014-09-05T08:56:52Z</time>
      </trkpt>
      <trkpt lat="44.87167" lon="5.35786">
        <ele>1149.39</ele>
        <time>2014-09-05T08:56:53Z</time>
      </trkpt>
      <trkpt lat="44.87166" lon="5.35786">
        <ele>1149.39</ele>
        <time>2014-09-05T08:56:54Z</time>
      </trkpt>
      <trkpt lat="44.87165" lon="5.35785">
        <ele>1149.39</ele>
        <time>2014-09-05T08:57:03Z</time>
      </trkpt>
      <trkpt lat="44.87165" lon="5.35785">
        <ele>1146.03</ele>
        <time>2014-09-05T08:57:22Z</time>
      </trkpt>
      <trkpt lat="44.87165" lon="5.35785">
        <ele>1149.87</ele>
        <time>2014-09-05T08:57:23Z</time>
      </trkpt>
      <trkpt lat="44.87148" lon="5.35775">
        <ele>1150.84</ele>
        <time>2014-09-05T08:57:32Z</time>
      </trkpt>
      <trkpt lat="44.87136" lon="5.35753">
        <ele>1151.32</ele>
        <time>2014-09-05T08:57:41Z</time>
      </trkpt>
      <trkpt lat="44.87119" lon="5.35731">
        <ele>1152.28</ele>
        <time>2014-09-05T08:57:51Z</time>
      </trkpt>
      <trkpt lat="44.87099" lon="5.3571">
        <ele>1155.16</ele>
        <time>2014-09-05T08:58:01Z</time>
      </trkpt>
      <trkpt lat="44.87084" lon="5.35698">
        <ele>1155.64</ele>
        <time>2014-09-05T08:58:10Z</time>
      </trkpt>
      <trkpt lat="44.87064" lon="5.35675">
        <ele>1157.56</ele>
        <time>2014-09-05T08:58:21Z</time>
      </trkpt>
      <trkpt lat="44.87043" lon="5.35657">
        <ele>1159.49</ele>
        <time>2014-09-05T08:58:32Z</time>
      </trkpt>
      <trkpt lat="44.8703" lon="5.35648">
        <ele>1159.97</ele>
        <time>2014-09-05T08:58:41Z</time>
      </trkpt>
      <trkpt lat="44.87029" lon="5.35647">
        <ele>1160.45</ele>
        <time>2014-09-05T08:58:42Z</time>
      </trkpt>
      <trkpt lat="44.87028" lon="5.35646">
        <ele>1160.45</ele>
        <time>2014-09-05T08:58:43Z</time>
      </trkpt>
      <trkpt lat="44.87027" lon="5.35646">
        <ele>1160.45</ele>
        <time>2014-09-05T08:58:44Z</time>
      </trkpt>
      <trkpt lat="44.87024" lon="5.35645">
        <ele>1160.45</ele>
        <time>2014-09-05T08:58:47Z</time>
      </trkpt>
      <trkpt lat="44.87022" lon="5.35645">
        <ele>1160.93</ele>
        <time>2014-09-05T08:58:48Z</time>
      </trkpt>
      <trkpt lat="44.87021" lon="5.35645">
        <ele>1159.97</ele>
        <time>2014-09-05T08:58:49Z</time>
      </trkpt>
      <trkpt lat="44.87009" lon="5.35662">
        <ele>1159.49</ele>
        <time>2014-09-05T08:58:56Z</time>
      </trkpt>
      <trkpt lat="44.87009" lon="5.35668">
        <ele>1159.01</ele>
        <time>2014-09-05T08:58:57Z</time>
      </trkpt>
      <trkpt lat="44.87008" lon="5.35683">
        <ele>1159.01</ele>
        <time>2014-09-05T08:58:59Z</time>
      </trkpt>
      <trkpt lat="44.87008" lon="5.35691">
        <ele>1158.05</ele>
        <time>2014-09-05T08:59:00Z</time>
      </trkpt>
      <trkpt lat="44.87011" lon="5.35719">
        <ele>1156.6</ele>
        <time>2014-09-05T08:59:03Z</time>
      </trkpt>
      <trkpt lat="44.87012" lon="5.35732">
        <ele>1156.12</ele>
        <time>2014-09-05T08:59:06Z</time>
      </trkpt>
      <trkpt lat="44.87011" lon="5.35734">
        <ele>1156.12</ele>
        <time>2014-09-05T08:59:07Z</time>
      </trkpt>
      <trkpt lat="44.87011" lon="5.35736">
        <ele>1156.12</ele>
        <time>2014-09-05T08:59:16Z</time>
      </trkpt>
      <trkpt lat="44.87014" lon="5.35752">
        <ele>1155.16</ele>
        <time>2014-09-05T08:59:28Z</time>
      </trkpt>
      <trkpt lat="44.87023" lon="5.35811">
        <ele>1152.28</ele>
        <time>2014-09-05T08:59:36Z</time>
      </trkpt>
      <trkpt lat="44.87031" lon="5.35865">
        <ele>1148.43</ele>
        <time>2014-09-05T08:59:41Z</time>
      </trkpt>
      <trkpt lat="44.87035" lon="5.3589">
        <ele>1147.95</ele>
        <time>2014-09-05T08:59:43Z</time>
      </trkpt>
      <trkpt lat="44.87043" lon="5.35945">
        <ele>1144.59</ele>
        <time>2014-09-05T08:59:47Z</time>
      </trkpt>
      <trkpt lat="44.87051" lon="5.36006">
        <ele>1140.74</ele>
        <time>2014-09-05T08:59:51Z</time>
      </trkpt>
      <trkpt lat="44.87055" lon="5.36036">
        <ele>1139.78</ele>
        <time>2014-09-05T08:59:53Z</time>
      </trkpt>
      <trkpt lat="44.87061" lon="5.36078">
        <ele>1138.34</ele>
        <time>2014-09-05T08:59:57Z</time>
      </trkpt>
      <trkpt lat="44.8706" lon="5.36086">
        <ele>1137.86</ele>
        <time>2014-09-05T08:59:58Z</time>
      </trkpt>
      <trkpt lat="44.87058" lon="5.36092">
        <ele>1138.34</ele>
        <time>2014-09-05T08:59:59Z</time>
      </trkpt>
      <trkpt lat="44.87054" lon="5.36097">
        <ele>1137.86</ele>
        <time>2014-09-05T09:00:00Z</time>
      </trkpt>
      <trkpt lat="44.87049" lon="5.36099">
        <ele>1137.86</ele>
        <time>2014-09-05T09:00:01Z</time>
      </trkpt>
      <trkpt lat="44.87044" lon="5.36099">
        <ele>1137.86</ele>
        <time>2014-09-05T09:00:02Z</time>
      </trkpt>
      <trkpt lat="44.87039" lon="5.36099">
        <ele>1137.38</ele>
        <time>2014-09-05T09:00:03Z</time>
      </trkpt>
      <trkpt lat="44.86991" lon="5.36087">
        <ele>1137.86</ele>
        <time>2014-09-05T09:00:13Z</time>
      </trkpt>
      <trkpt lat="44.86986" lon="5.36084">
        <ele>1138.34</ele>
        <time>2014-09-05T09:00:14Z</time>
      </trkpt>
      <trkpt lat="44.86982" lon="5.3608">
        <ele>1138.82</ele>
        <time>2014-09-05T09:00:15Z</time>
      </trkpt>
      <trkpt lat="44.86978" lon="5.36075">
        <ele>1138.82</ele>
        <time>2014-09-05T09:00:16Z</time>
      </trkpt>
      <trkpt lat="44.86975" lon="5.3607">
        <ele>1138.34</ele>
        <time>2014-09-05T09:00:17Z</time>
      </trkpt>
      <trkpt lat="44.86971" lon="5.36065">
        <ele>1138.34</ele>
        <time>2014-09-05T09:00:18Z</time>
      </trkpt>
      <trkpt lat="44.86931" lon="5.36001">
        <ele>1139.78</ele>
        <time>2014-09-05T09:00:31Z</time>
      </trkpt>
      <trkpt lat="44.86885" lon="5.35917">
        <ele>1141.7</ele>
        <time>2014-09-05T09:00:47Z</time>
      </trkpt>
      <trkpt lat="44.86864" lon="5.35854">
        <ele>1142.18</ele>
        <time>2014-09-05T09:00:58Z</time>
      </trkpt>
      <trkpt lat="44.86855" lon="5.35832">
        <ele>1142.18</ele>
        <time>2014-09-05T09:01:02Z</time>
      </trkpt>
      <trkpt lat="44.86852" lon="5.35827">
        <ele>1142.18</ele>
        <time>2014-09-05T09:01:03Z</time>
      </trkpt>
      <trkpt lat="44.86812" lon="5.35769">
        <ele>1144.59</ele>
        <time>2014-09-05T09:01:17Z</time>
      </trkpt>
      <trkpt lat="44.86782" lon="5.35762">
        <ele>1146.51</ele>
        <time>2014-09-05T09:01:27Z</time>
      </trkpt>
      <trkpt lat="44.86753" lon="5.35756">
        <ele>1148.91</ele>
        <time>2014-09-05T09:01:38Z</time>
      </trkpt>
      <trkpt lat="44.86734" lon="5.35754">
        <ele>1150.84</ele>
        <time>2014-09-05T09:01:45Z</time>
      </trkpt>
      <trkpt lat="44.86712" lon="5.35754">
        <ele>1152.28</ele>
        <time>2014-09-05T09:01:55Z</time>
      </trkpt>
      <trkpt lat="44.86697" lon="5.35752">
        <ele>1153.24</ele>
        <time>2014-09-05T09:02:02Z</time>
      </trkpt>
      <trkpt lat="44.86688" lon="5.35752">
        <ele>1154.2</ele>
        <time>2014-09-05T09:02:07Z</time>
      </trkpt>
      <trkpt lat="44.86685" lon="5.35752">
        <ele>1154.68</ele>
        <time>2014-09-05T09:02:09Z</time>
      </trkpt>
      <trkpt lat="44.86683" lon="5.35752">
        <ele>1154.68</ele>
        <time>2014-09-05T09:02:10Z</time>
      </trkpt>
      <trkpt lat="44.86665" lon="5.35755">
        <ele>1156.12</ele>
        <time>2014-09-05T09:02:19Z</time>
      </trkpt>
      <trkpt lat="44.86663" lon="5.35755">
        <ele>1156.12</ele>
        <time>2014-09-05T09:02:20Z</time>
      </trkpt>
      <trkpt lat="44.86661" lon="5.35755">
        <ele>1156.12</ele>
        <time>2014-09-05T09:02:21Z</time>
      </trkpt>
      <trkpt lat="44.86658" lon="5.35756">
        <ele>1156.6</ele>
        <time>2014-09-05T09:02:22Z</time>
      </trkpt>
      <trkpt lat="44.86655" lon="5.35756">
        <ele>1156.6</ele>
        <time>2014-09-05T09:02:23Z</time>
      </trkpt>
      <trkpt lat="44.86653" lon="5.35757">
        <ele>1156.6</ele>
        <time>2014-09-05T09:02:24Z</time>
      </trkpt>
      <trkpt lat="44.86651" lon="5.35757">
        <ele>1156.6</ele>
        <time>2014-09-05T09:02:25Z</time>
      </trkpt>
      <trkpt lat="44.86648" lon="5.35758">
        <ele>1157.08</ele>
        <time>2014-09-05T09:02:26Z</time>
      </trkpt>
      <trkpt lat="44.86627" lon="5.35757">
        <ele>1158.53</ele>
        <time>2014-09-05T09:02:36Z</time>
      </trkpt>
      <trkpt lat="44.86622" lon="5.35753">
        <ele>1159.49</ele>
        <time>2014-09-05T09:02:39Z</time>
      </trkpt>
      <trkpt lat="44.86621" lon="5.35752">
        <ele>1159.49</ele>
        <time>2014-09-05T09:02:40Z</time>
      </trkpt>
      <trkpt lat="44.86619" lon="5.3575">
        <ele>1159.97</ele>
        <time>2014-09-05T09:02:41Z</time>
      </trkpt>
      <trkpt lat="44.86617" lon="5.35749">
        <ele>1159.97</ele>
        <time>2014-09-05T09:02:42Z</time>
      </trkpt>
      <trkpt lat="44.86615" lon="5.35747">
        <ele>1159.97</ele>
        <time>2014-09-05T09:02:43Z</time>
      </trkpt>
      <trkpt lat="44.86614" lon="5.35747">
        <ele>1159.97</ele>
        <time>2014-09-05T09:02:44Z</time>
      </trkpt>
      <trkpt lat="44.86592" lon="5.35739">
        <ele>1161.89</ele>
        <time>2014-09-05T09:02:55Z</time>
      </trkpt>
      <trkpt lat="44.8657" lon="5.3574">
        <ele>1163.33</ele>
        <time>2014-09-05T09:03:05Z</time>
      </trkpt>
      <trkpt lat="44.86556" lon="5.35742">
        <ele>1164.29</ele>
        <time>2014-09-05T09:03:13Z</time>
      </trkpt>
      <trkpt lat="44.8654" lon="5.35738">
        <ele>1166.22</ele>
        <time>2014-09-05T09:03:23Z</time>
      </trkpt>
      <trkpt lat="44.86523" lon="5.35732">
        <ele>1167.66</ele>
        <time>2014-09-05T09:03:32Z</time>
      </trkpt>
      <trkpt lat="44.86515" lon="5.35729">
        <ele>1168.62</ele>
        <time>2014-09-05T09:03:38Z</time>
      </trkpt>
      <trkpt lat="44.86513" lon="5.35728">
        <ele>1169.1</ele>
        <time>2014-09-05T09:03:40Z</time>
      </trkpt>
      <trkpt lat="44.86511" lon="5.35728">
        <ele>1169.1</ele>
        <time>2014-09-05T09:03:41Z</time>
      </trkpt>
      <trkpt lat="44.86495" lon="5.35725">
        <ele>1171.02</ele>
        <time>2014-09-05T09:03:51Z</time>
      </trkpt>
      <trkpt lat="44.86489" lon="5.35724">
        <ele>1171.5</ele>
        <time>2014-09-05T09:03:55Z</time>
      </trkpt>
      <trkpt lat="44.86486" lon="5.35722">
        <ele>1171.98</ele>
        <time>2014-09-05T09:03:57Z</time>
      </trkpt>
      <trkpt lat="44.86484" lon="5.35722">
        <ele>1172.47</ele>
        <time>2014-09-05T09:03:58Z</time>
      </trkpt>
      <trkpt lat="44.86482" lon="5.35723">
        <ele>1172.47</ele>
        <time>2014-09-05T09:03:59Z</time>
      </trkpt>
      <trkpt lat="44.8648" lon="5.35723">
        <ele>1172.95</ele>
        <time>2014-09-05T09:04:00Z</time>
      </trkpt>
      <trkpt lat="44.86479" lon="5.35723">
        <ele>1172.95</ele>
        <time>2014-09-05T09:04:01Z</time>
      </trkpt>
      <trkpt lat="44.86477" lon="5.35723">
        <ele>1172.95</ele>
        <time>2014-09-05T09:04:02Z</time>
      </trkpt>
      <trkpt lat="44.86475" lon="5.35722">
        <ele>1173.43</ele>
        <time>2014-09-05T09:04:03Z</time>
      </trkpt>
      <trkpt lat="44.86474" lon="5.35722">
        <ele>1173.91</ele>
        <time>2014-09-05T09:04:04Z</time>
      </trkpt>
      <trkpt lat="44.86472" lon="5.35722">
        <ele>1173.91</ele>
        <time>2014-09-05T09:04:05Z</time>
      </trkpt>
      <trkpt lat="44.86471" lon="5.35722">
        <ele>1173.91</ele>
        <time>2014-09-05T09:04:06Z</time>
      </trkpt>
      <trkpt lat="44.86469" lon="5.35722">
        <ele>1173.91</ele>
        <time>2014-09-05T09:04:07Z</time>
      </trkpt>
      <trkpt lat="44.86468" lon="5.35722">
        <ele>1174.39</ele>
        <time>2014-09-05T09:04:08Z</time>
      </trkpt>
      <trkpt lat="44.86461" lon="5.3572">
        <ele>1175.35</ele>
        <time>2014-09-05T09:04:13Z</time>
      </trkpt>
      <trkpt lat="44.86459" lon="5.3572">
        <ele>1175.83</ele>
        <time>2014-09-05T09:04:14Z</time>
      </trkpt>
      <trkpt lat="44.86458" lon="5.3572">
        <ele>1175.83</ele>
        <time>2014-09-05T09:04:15Z</time>
      </trkpt>
      <trkpt lat="44.86457" lon="5.3572">
        <ele>1175.83</ele>
        <time>2014-09-05T09:04:16Z</time>
      </trkpt>
      <trkpt lat="44.86455" lon="5.3572">
        <ele>1175.83</ele>
        <time>2014-09-05T09:04:17Z</time>
      </trkpt>
      <trkpt lat="44.86454" lon="5.3572">
        <ele>1176.31</ele>
        <time>2014-09-05T09:04:18Z</time>
      </trkpt>
      <trkpt lat="44.86452" lon="5.3572">
        <ele>1176.31</ele>
        <time>2014-09-05T09:04:19Z</time>
      </trkpt>
      <trkpt lat="44.8645" lon="5.3572">
        <ele>1176.31</ele>
        <time>2014-09-05T09:04:20Z</time>
      </trkpt>
      <trkpt lat="44.86449" lon="5.3572">
        <ele>1176.79</ele>
        <time>2014-09-05T09:04:21Z</time>
      </trkpt>
      <trkpt lat="44.86447" lon="5.3572">
        <ele>1176.79</ele>
        <time>2014-09-05T09:04:22Z</time>
      </trkpt>
      <trkpt lat="44.86446" lon="5.35719">
        <ele>1176.79</ele>
        <time>2014-09-05T09:04:23Z</time>
      </trkpt>
      <trkpt lat="44.86431" lon="5.35715">
        <ele>1187.37</ele>
        <time>2014-09-05T09:04:34Z</time>
      </trkpt>
      <trkpt lat="44.8643" lon="5.35716">
        <ele>1185.92</ele>
        <time>2014-09-05T09:04:35Z</time>
      </trkpt>
      <trkpt lat="44.86429" lon="5.35716">
        <ele>1183.04</ele>
        <time>2014-09-05T09:04:36Z</time>
      </trkpt>
      <trkpt lat="44.86428" lon="5.35717">
        <ele>1179.67</ele>
        <time>2014-09-05T09:04:37Z</time>
      </trkpt>
      <trkpt lat="44.86426" lon="5.35717">
        <ele>1179.67</ele>
        <time>2014-09-05T09:04:38Z</time>
      </trkpt>
      <trkpt lat="44.86425" lon="5.35716">
        <ele>1180.16</ele>
        <time>2014-09-05T09:04:39Z</time>
      </trkpt>
      <trkpt lat="44.86424" lon="5.35716">
        <ele>1179.67</ele>
        <time>2014-09-05T09:04:40Z</time>
      </trkpt>
      <trkpt lat="44.86411" lon="5.3571">
        <ele>1181.6</ele>
        <time>2014-09-05T09:04:51Z</time>
      </trkpt>
      <trkpt lat="44.864" lon="5.35707">
        <ele>1183.04</ele>
        <time>2014-09-05T09:04:59Z</time>
      </trkpt>
      <trkpt lat="44.86399" lon="5.35707">
        <ele>1183.04</ele>
        <time>2014-09-05T09:05:00Z</time>
      </trkpt>
      <trkpt lat="44.86395" lon="5.35706">
        <ele>1184</ele>
        <time>2014-09-05T09:05:03Z</time>
      </trkpt>
      <trkpt lat="44.86387" lon="5.35705">
        <ele>1184.96</ele>
        <time>2014-09-05T09:05:11Z</time>
      </trkpt>
      <trkpt lat="44.86385" lon="5.35704">
        <ele>1184.96</ele>
        <time>2014-09-05T09:05:12Z</time>
      </trkpt>
      <trkpt lat="44.86376" lon="5.35701">
        <ele>1186.88</ele>
        <time>2014-09-05T09:05:19Z</time>
      </trkpt>
      <trkpt lat="44.86371" lon="5.357">
        <ele>1187.37</ele>
        <time>2014-09-05T09:05:23Z</time>
      </trkpt>
      <trkpt lat="44.8637" lon="5.35699">
        <ele>1187.37</ele>
        <time>2014-09-05T09:05:24Z</time>
      </trkpt>
      <trkpt lat="44.86369" lon="5.35698">
        <ele>1187.85</ele>
        <time>2014-09-05T09:05:25Z</time>
      </trkpt>
      <trkpt lat="44.86366" lon="5.35697">
        <ele>1187.85</ele>
        <time>2014-09-05T09:05:28Z</time>
      </trkpt>
      <trkpt lat="44.86365" lon="5.35697">
        <ele>1187.85</ele>
        <time>2014-09-05T09:05:29Z</time>
      </trkpt>
      <trkpt lat="44.86364" lon="5.35696">
        <ele>1188.33</ele>
        <time>2014-09-05T09:05:30Z</time>
      </trkpt>
      <trkpt lat="44.86359" lon="5.35693">
        <ele>1188.81</ele>
        <time>2014-09-05T09:05:34Z</time>
      </trkpt>
      <trkpt lat="44.86355" lon="5.3569">
        <ele>1189.77</ele>
        <time>2014-09-05T09:05:38Z</time>
      </trkpt>
      <trkpt lat="44.86354" lon="5.3569">
        <ele>1189.29</ele>
        <time>2014-09-05T09:05:39Z</time>
      </trkpt>
      <trkpt lat="44.86353" lon="5.3569">
        <ele>1197.94</ele>
        <time>2014-09-05T09:05:40Z</time>
      </trkpt>
      <trkpt lat="44.86352" lon="5.35689">
        <ele>1201.3</ele>
        <time>2014-09-05T09:05:41Z</time>
      </trkpt>
      <trkpt lat="44.86351" lon="5.35689">
        <ele>1203.71</ele>
        <time>2014-09-05T09:05:42Z</time>
      </trkpt>
      <trkpt lat="44.8635" lon="5.35688">
        <ele>1181.12</ele>
        <time>2014-09-05T09:05:43Z</time>
      </trkpt>
      <trkpt lat="44.8635" lon="5.35688">
        <ele>1191.69</ele>
        <time>2014-09-05T09:05:44Z</time>
      </trkpt>
      <trkpt lat="44.86348" lon="5.35687">
        <ele>1190.73</ele>
        <time>2014-09-05T09:05:45Z</time>
      </trkpt>
      <trkpt lat="44.86347" lon="5.35687">
        <ele>1187.85</ele>
        <time>2014-09-05T09:05:46Z</time>
      </trkpt>
      <trkpt lat="44.86346" lon="5.35686">
        <ele>1208.03</ele>
        <time>2014-09-05T09:05:47Z</time>
      </trkpt>
      <trkpt lat="44.86345" lon="5.35686">
        <ele>1176.31</ele>
        <time>2014-09-05T09:05:48Z</time>
      </trkpt>
      <trkpt lat="44.86344" lon="5.35685">
        <ele>1194.09</ele>
        <time>2014-09-05T09:05:49Z</time>
      </trkpt>
      <trkpt lat="44.86343" lon="5.35684">
        <ele>1193.61</ele>
        <time>2014-09-05T09:05:50Z</time>
      </trkpt>
      <trkpt lat="44.86343" lon="5.35682">
        <ele>1191.69</ele>
        <time>2014-09-05T09:05:51Z</time>
      </trkpt>
      <trkpt lat="44.86342" lon="5.35681">
        <ele>1191.69</ele>
        <time>2014-09-05T09:05:52Z</time>
      </trkpt>
      <trkpt lat="44.86342" lon="5.3568">
        <ele>1191.69</ele>
        <time>2014-09-05T09:05:53Z</time>
      </trkpt>
      <trkpt lat="44.8634" lon="5.35679">
        <ele>1191.69</ele>
        <time>2014-09-05T09:05:54Z</time>
      </trkpt>
      <trkpt lat="44.86339" lon="5.35679">
        <ele>1192.17</ele>
        <time>2014-09-05T09:05:55Z</time>
      </trkpt>
      <trkpt lat="44.86338" lon="5.35678">
        <ele>1192.17</ele>
        <time>2014-09-05T09:05:56Z</time>
      </trkpt>
      <trkpt lat="44.86337" lon="5.35676">
        <ele>1192.65</ele>
        <time>2014-09-05T09:05:57Z</time>
      </trkpt>
      <trkpt lat="44.86324" lon="5.35665">
        <ele>1194.58</ele>
        <time>2014-09-05T09:06:08Z</time>
      </trkpt>
      <trkpt lat="44.86315" lon="5.35658">
        <ele>1195.54</ele>
        <time>2014-09-05T09:06:15Z</time>
      </trkpt>
      <trkpt lat="44.86314" lon="5.35657">
        <ele>1195.54</ele>
        <time>2014-09-05T09:06:16Z</time>
      </trkpt>
      <trkpt lat="44.86312" lon="5.35655">
        <ele>1196.5</ele>
        <time>2014-09-05T09:06:18Z</time>
      </trkpt>
      <trkpt lat="44.8631" lon="5.35654">
        <ele>1196.5</ele>
        <time>2014-09-05T09:06:20Z</time>
      </trkpt>
      <trkpt lat="44.86309" lon="5.35652">
        <ele>1196.5</ele>
        <time>2014-09-05T09:06:21Z</time>
      </trkpt>
      <trkpt lat="44.86308" lon="5.35651">
        <ele>1196.98</ele>
        <time>2014-09-05T09:06:22Z</time>
      </trkpt>
      <trkpt lat="44.86298" lon="5.35643">
        <ele>1197.94</ele>
        <time>2014-09-05T09:06:31Z</time>
      </trkpt>
      <trkpt lat="44.86297" lon="5.35643">
        <ele>1198.42</ele>
        <time>2014-09-05T09:06:32Z</time>
      </trkpt>
      <trkpt lat="44.86296" lon="5.35642">
        <ele>1198.42</ele>
        <time>2014-09-05T09:06:33Z</time>
      </trkpt>
      <trkpt lat="44.86292" lon="5.35638">
        <ele>1199.38</ele>
        <time>2014-09-05T09:06:39Z</time>
      </trkpt>
      <trkpt lat="44.86284" lon="5.35626">
        <ele>1201.3</ele>
        <time>2014-09-05T09:06:49Z</time>
      </trkpt>
      <trkpt lat="44.86278" lon="5.35618">
        <ele>1202.75</ele>
        <time>2014-09-05T09:06:57Z</time>
      </trkpt>
      <trkpt lat="44.86266" lon="5.35605">
        <ele>1204.19</ele>
        <time>2014-09-05T09:07:07Z</time>
      </trkpt>
      <trkpt lat="44.86253" lon="5.35591">
        <ele>1206.11</ele>
        <time>2014-09-05T09:07:18Z</time>
      </trkpt>
      <trkpt lat="44.86247" lon="5.35585">
        <ele>1207.07</ele>
        <time>2014-09-05T09:07:25Z</time>
      </trkpt>
      <trkpt lat="44.86237" lon="5.35576">
        <ele>1208.51</ele>
        <time>2014-09-05T09:07:33Z</time>
      </trkpt>
      <trkpt lat="44.86233" lon="5.3557">
        <ele>1209</ele>
        <time>2014-09-05T09:07:38Z</time>
      </trkpt>
      <trkpt lat="44.86232" lon="5.35569">
        <ele>1209.48</ele>
        <time>2014-09-05T09:07:39Z</time>
      </trkpt>
      <trkpt lat="44.8623" lon="5.35568">
        <ele>1209.48</ele>
        <time>2014-09-05T09:07:40Z</time>
      </trkpt>
      <trkpt lat="44.86228" lon="5.35567">
        <ele>1209.48</ele>
        <time>2014-09-05T09:07:41Z</time>
      </trkpt>
      <trkpt lat="44.86226" lon="5.35566">
        <ele>1210.44</ele>
        <time>2014-09-05T09:07:42Z</time>
      </trkpt>
      <trkpt lat="44.86224" lon="5.35564">
        <ele>1210.44</ele>
        <time>2014-09-05T09:07:43Z</time>
      </trkpt>
      <trkpt lat="44.86223" lon="5.35563">
        <ele>1210.44</ele>
        <time>2014-09-05T09:07:44Z</time>
      </trkpt>
      <trkpt lat="44.86222" lon="5.35563">
        <ele>1210.44</ele>
        <time>2014-09-05T09:07:45Z</time>
      </trkpt>
      <trkpt lat="44.86221" lon="5.35562">
        <ele>1210.44</ele>
        <time>2014-09-05T09:07:46Z</time>
      </trkpt>
      <trkpt lat="44.86215" lon="5.35555">
        <ele>1212.36</ele>
        <time>2014-09-05T09:07:55Z</time>
      </trkpt>
      <trkpt lat="44.8621" lon="5.35548">
        <ele>1213.32</ele>
        <time>2014-09-05T09:08:01Z</time>
      </trkpt>
      <trkpt lat="44.86198" lon="5.3554">
        <ele>1214.76</ele>
        <time>2014-09-05T09:08:10Z</time>
      </trkpt>
      <trkpt lat="44.8619" lon="5.35535">
        <ele>1215.72</ele>
        <time>2014-09-05T09:08:17Z</time>
      </trkpt>
      <trkpt lat="44.86189" lon="5.35535">
        <ele>1216.21</ele>
        <time>2014-09-05T09:08:18Z</time>
      </trkpt>
      <trkpt lat="44.86187" lon="5.35534">
        <ele>1215.72</ele>
        <time>2014-09-05T09:08:19Z</time>
      </trkpt>
      <trkpt lat="44.86186" lon="5.35534">
        <ele>1216.21</ele>
        <time>2014-09-05T09:08:20Z</time>
      </trkpt>
      <trkpt lat="44.86184" lon="5.35533">
        <ele>1216.69</ele>
        <time>2014-09-05T09:08:21Z</time>
      </trkpt>
      <trkpt lat="44.86183" lon="5.35532">
        <ele>1216.69</ele>
        <time>2014-09-05T09:08:22Z</time>
      </trkpt>
      <trkpt lat="44.86176" lon="5.35525">
        <ele>1217.65</ele>
        <time>2014-09-05T09:08:28Z</time>
      </trkpt>
      <trkpt lat="44.86172" lon="5.35524">
        <ele>1218.61</ele>
        <time>2014-09-05T09:08:32Z</time>
      </trkpt>
      <trkpt lat="44.86166" lon="5.35514">
        <ele>1219.57</ele>
        <time>2014-09-05T09:08:41Z</time>
      </trkpt>
      <trkpt lat="44.86164" lon="5.35513">
        <ele>1220.05</ele>
        <time>2014-09-05T09:08:44Z</time>
      </trkpt>
      <trkpt lat="44.8615" lon="5.35507">
        <ele>1222.45</ele>
        <time>2014-09-05T09:08:54Z</time>
      </trkpt>
      <trkpt lat="44.8614" lon="5.35504">
        <ele>1223.9</ele>
        <time>2014-09-05T09:09:02Z</time>
      </trkpt>
      <trkpt lat="44.8614" lon="5.35503">
        <ele>1224.38</ele>
        <time>2014-09-05T09:09:03Z</time>
      </trkpt>
      <trkpt lat="44.86138" lon="5.35502">
        <ele>1223.9</ele>
        <time>2014-09-05T09:09:04Z</time>
      </trkpt>
      <trkpt lat="44.86137" lon="5.35501">
        <ele>1224.38</ele>
        <time>2014-09-05T09:09:05Z</time>
      </trkpt>
      <trkpt lat="44.86136" lon="5.355">
        <ele>1224.38</ele>
        <time>2014-09-05T09:09:06Z</time>
      </trkpt>
      <trkpt lat="44.86135" lon="5.35499">
        <ele>1224.86</ele>
        <time>2014-09-05T09:09:07Z</time>
      </trkpt>
      <trkpt lat="44.86134" lon="5.35498">
        <ele>1224.38</ele>
        <time>2014-09-05T09:09:08Z</time>
      </trkpt>
      <trkpt lat="44.86124" lon="5.35495">
        <ele>1226.3</ele>
        <time>2014-09-05T09:09:16Z</time>
      </trkpt>
      <trkpt lat="44.86113" lon="5.35493">
        <ele>1227.26</ele>
        <time>2014-09-05T09:09:24Z</time>
      </trkpt>
      <trkpt lat="44.86112" lon="5.35493">
        <ele>1227.74</ele>
        <time>2014-09-05T09:09:25Z</time>
      </trkpt>
      <trkpt lat="44.8611" lon="5.35492">
        <ele>1227.74</ele>
        <time>2014-09-05T09:09:26Z</time>
      </trkpt>
      <trkpt lat="44.86109" lon="5.35492">
        <ele>1227.26</ele>
        <time>2014-09-05T09:09:27Z</time>
      </trkpt>
      <trkpt lat="44.861" lon="5.35488">
        <ele>1229.18</ele>
        <time>2014-09-05T09:09:34Z</time>
      </trkpt>
      <trkpt lat="44.86085" lon="5.35485">
        <ele>1230.62</ele>
        <time>2014-09-05T09:09:45Z</time>
      </trkpt>
      <trkpt lat="44.86084" lon="5.35484">
        <ele>1230.62</ele>
        <time>2014-09-05T09:09:46Z</time>
      </trkpt>
      <trkpt lat="44.86076" lon="5.35483">
        <ele>1232.07</ele>
        <time>2014-09-05T09:09:53Z</time>
      </trkpt>
      <trkpt lat="44.86063" lon="5.35479">
        <ele>1233.99</ele>
        <time>2014-09-05T09:10:03Z</time>
      </trkpt>
      <trkpt lat="44.86052" lon="5.35475">
        <ele>1234.47</ele>
        <time>2014-09-05T09:10:11Z</time>
      </trkpt>
      <trkpt lat="44.86048" lon="5.35474">
        <ele>1234.95</ele>
        <time>2014-09-05T09:10:15Z</time>
      </trkpt>
      <trkpt lat="44.86047" lon="5.35474">
        <ele>1235.91</ele>
        <time>2014-09-05T09:10:16Z</time>
      </trkpt>
      <trkpt lat="44.86035" lon="5.35471">
        <ele>1236.87</ele>
        <time>2014-09-05T09:10:24Z</time>
      </trkpt>
      <trkpt lat="44.86031" lon="5.35472">
        <ele>1237.83</ele>
        <time>2014-09-05T09:10:27Z</time>
      </trkpt>
      <trkpt lat="44.86026" lon="5.35471">
        <ele>1237.83</ele>
        <time>2014-09-05T09:10:30Z</time>
      </trkpt>
      <trkpt lat="44.86025" lon="5.35471">
        <ele>1238.32</ele>
        <time>2014-09-05T09:10:31Z</time>
      </trkpt>
      <trkpt lat="44.86023" lon="5.35472">
        <ele>1239.28</ele>
        <time>2014-09-05T09:10:33Z</time>
      </trkpt>
      <trkpt lat="44.86015" lon="5.35472">
        <ele>1240.72</ele>
        <time>2014-09-05T09:10:43Z</time>
      </trkpt>
      <trkpt lat="44.86002" lon="5.35478">
        <ele>1241.68</ele>
        <time>2014-09-05T09:10:52Z</time>
      </trkpt>
      <trkpt lat="44.85992" lon="5.35485">
        <ele>1242.64</ele>
        <time>2014-09-05T09:11:00Z</time>
      </trkpt>
      <trkpt lat="44.85991" lon="5.35485">
        <ele>1243.12</ele>
        <time>2014-09-05T09:11:01Z</time>
      </trkpt>
      <trkpt lat="44.85984" lon="5.35489">
        <ele>1243.6</ele>
        <time>2014-09-05T09:11:07Z</time>
      </trkpt>
      <trkpt lat="44.85983" lon="5.3549">
        <ele>1244.08</ele>
        <time>2014-09-05T09:11:08Z</time>
      </trkpt>
      <trkpt lat="44.85981" lon="5.3549">
        <ele>1244.08</ele>
        <time>2014-09-05T09:11:09Z</time>
      </trkpt>
      <trkpt lat="44.85974" lon="5.35492">
        <ele>1244.56</ele>
        <time>2014-09-05T09:11:14Z</time>
      </trkpt>
      <trkpt lat="44.85953" lon="5.35498">
        <ele>1246.01</ele>
        <time>2014-09-05T09:11:25Z</time>
      </trkpt>
      <trkpt lat="44.8593" lon="5.35505">
        <ele>1247.45</ele>
        <time>2014-09-05T09:11:36Z</time>
      </trkpt>
      <trkpt lat="44.8592" lon="5.35508">
        <ele>1247.45</ele>
        <time>2014-09-05T09:11:43Z</time>
      </trkpt>
      <trkpt lat="44.8591" lon="5.35508">
        <ele>1247.93</ele>
        <time>2014-09-05T09:11:51Z</time>
      </trkpt>
      <trkpt lat="44.85896" lon="5.35507">
        <ele>1248.89</ele>
        <time>2014-09-05T09:12:00Z</time>
      </trkpt>
      <trkpt lat="44.85887" lon="5.35501">
        <ele>1248.89</ele>
        <time>2014-09-05T09:12:08Z</time>
      </trkpt>
      <trkpt lat="44.8588" lon="5.35495">
        <ele>1248.89</ele>
        <time>2014-09-05T09:12:12Z</time>
      </trkpt>
      <trkpt lat="44.85878" lon="5.35493">
        <ele>1249.37</ele>
        <time>2014-09-05T09:12:13Z</time>
      </trkpt>
      <trkpt lat="44.85877" lon="5.35491">
        <ele>1248.89</ele>
        <time>2014-09-05T09:12:14Z</time>
      </trkpt>
      <trkpt lat="44.85875" lon="5.3549">
        <ele>1248.89</ele>
        <time>2014-09-05T09:12:15Z</time>
      </trkpt>
      <trkpt lat="44.85873" lon="5.35488">
        <ele>1248.89</ele>
        <time>2014-09-05T09:12:16Z</time>
      </trkpt>
      <trkpt lat="44.85871" lon="5.35486">
        <ele>1248.89</ele>
        <time>2014-09-05T09:12:17Z</time>
      </trkpt>
      <trkpt lat="44.8587" lon="5.35484">
        <ele>1248.89</ele>
        <time>2014-09-05T09:12:18Z</time>
      </trkpt>
      <trkpt lat="44.85869" lon="5.35483">
        <ele>1248.89</ele>
        <time>2014-09-05T09:12:19Z</time>
      </trkpt>
      <trkpt lat="44.85867" lon="5.35481">
        <ele>1248.89</ele>
        <time>2014-09-05T09:12:20Z</time>
      </trkpt>
      <trkpt lat="44.85867" lon="5.35478">
        <ele>1248.89</ele>
        <time>2014-09-05T09:12:21Z</time>
      </trkpt>
      <trkpt lat="44.85865" lon="5.35476">
        <ele>1247.93</ele>
        <time>2014-09-05T09:12:22Z</time>
      </trkpt>
      <trkpt lat="44.85864" lon="5.35474">
        <ele>1248.41</ele>
        <time>2014-09-05T09:12:23Z</time>
      </trkpt>
      <trkpt lat="44.85862" lon="5.35472">
        <ele>1248.41</ele>
        <time>2014-09-05T09:12:24Z</time>
      </trkpt>
      <trkpt lat="44.85845" lon="5.35458">
        <ele>1249.37</ele>
        <time>2014-09-05T09:12:32Z</time>
      </trkpt>
      <trkpt lat="44.85843" lon="5.35457">
        <ele>1248.89</ele>
        <time>2014-09-05T09:12:33Z</time>
      </trkpt>
      <trkpt lat="44.85841" lon="5.35457">
        <ele>1249.37</ele>
        <time>2014-09-05T09:12:34Z</time>
      </trkpt>
      <trkpt lat="44.85838" lon="5.35456">
        <ele>1249.37</ele>
        <time>2014-09-05T09:12:35Z</time>
      </trkpt>
      <trkpt lat="44.85835" lon="5.35453">
        <ele>1249.37</ele>
        <time>2014-09-05T09:12:36Z</time>
      </trkpt>
      <trkpt lat="44.85832" lon="5.3545">
        <ele>1249.37</ele>
        <time>2014-09-05T09:12:37Z</time>
      </trkpt>
      <trkpt lat="44.85796" lon="5.35434">
        <ele>1249.37</ele>
        <time>2014-09-05T09:12:45Z</time>
      </trkpt>
      <trkpt lat="44.8576" lon="5.35428">
        <ele>1250.33</ele>
        <time>2014-09-05T09:12:53Z</time>
      </trkpt>
      <trkpt lat="44.85732" lon="5.35421">
        <ele>1250.81</ele>
        <time>2014-09-05T09:13:01Z</time>
      </trkpt>
      <trkpt lat="44.85725" lon="5.35419">
        <ele>1250.33</ele>
        <time>2014-09-05T09:13:04Z</time>
      </trkpt>
      <trkpt lat="44.85722" lon="5.35418">
        <ele>1251.29</ele>
        <time>2014-09-05T09:13:05Z</time>
      </trkpt>
      <trkpt lat="44.8572" lon="5.35418">
        <ele>1250.81</ele>
        <time>2014-09-05T09:13:06Z</time>
      </trkpt>
      <trkpt lat="44.85719" lon="5.35417">
        <ele>1250.81</ele>
        <time>2014-09-05T09:13:07Z</time>
      </trkpt>
      <trkpt lat="44.85716" lon="5.35417">
        <ele>1250.81</ele>
        <time>2014-09-05T09:13:08Z</time>
      </trkpt>
      <trkpt lat="44.85713" lon="5.35417">
        <ele>1250.33</ele>
        <time>2014-09-05T09:13:09Z</time>
      </trkpt>
      <trkpt lat="44.8571" lon="5.35417">
        <ele>1250.81</ele>
        <time>2014-09-05T09:13:10Z</time>
      </trkpt>
      <trkpt lat="44.85708" lon="5.35417">
        <ele>1250.81</ele>
        <time>2014-09-05T09:13:11Z</time>
      </trkpt>
      <trkpt lat="44.85701" lon="5.35416">
        <ele>1250.81</ele>
        <time>2014-09-05T09:13:14Z</time>
      </trkpt>
      <trkpt lat="44.85698" lon="5.35415">
        <ele>1250.81</ele>
        <time>2014-09-05T09:13:15Z</time>
      </trkpt>
      <trkpt lat="44.85695" lon="5.35415">
        <ele>1250.81</ele>
        <time>2014-09-05T09:13:16Z</time>
      </trkpt>
      <trkpt lat="44.85693" lon="5.35414">
        <ele>1250.81</ele>
        <time>2014-09-05T09:13:17Z</time>
      </trkpt>
      <trkpt lat="44.85691" lon="5.35414">
        <ele>1250.81</ele>
        <time>2014-09-05T09:13:18Z</time>
      </trkpt>
      <trkpt lat="44.85689" lon="5.35413">
        <ele>1251.29</ele>
        <time>2014-09-05T09:13:19Z</time>
      </trkpt>
      <trkpt lat="44.85685" lon="5.35413">
        <ele>1250.81</ele>
        <time>2014-09-05T09:13:29Z</time>
      </trkpt>
      <trkpt lat="44.85685" lon="5.35413">
        <ele>1251.29</ele>
        <time>2014-09-05T09:13:48Z</time>
      </trkpt>
      <trkpt lat="44.85683" lon="5.35413">
        <ele>1250.81</ele>
        <time>2014-09-05T09:14:07Z</time>
      </trkpt>
      <trkpt lat="44.85683" lon="5.35413">
        <ele>1251.29</ele>
        <time>2014-09-05T09:14:23Z</time>
      </trkpt>
      <trkpt lat="44.85682" lon="5.35412">
        <ele>1250.81</ele>
        <time>2014-09-05T09:14:24Z</time>
      </trkpt>
      <trkpt lat="44.8568" lon="5.35412">
        <ele>1250.81</ele>
        <time>2014-09-05T09:14:25Z</time>
      </trkpt>
      <trkpt lat="44.85677" lon="5.35411">
        <ele>1250.81</ele>
        <time>2014-09-05T09:14:26Z</time>
      </trkpt>
      <trkpt lat="44.85675" lon="5.35411">
        <ele>1251.29</ele>
        <time>2014-09-05T09:14:27Z</time>
      </trkpt>
      <trkpt lat="44.85673" lon="5.3541">
        <ele>1251.29</ele>
        <time>2014-09-05T09:14:28Z</time>
      </trkpt>
      <trkpt lat="44.85671" lon="5.3541">
        <ele>1251.77</ele>
        <time>2014-09-05T09:14:29Z</time>
      </trkpt>
      <trkpt lat="44.85667" lon="5.3541">
        <ele>1251.77</ele>
        <time>2014-09-05T09:14:30Z</time>
      </trkpt>
      <trkpt lat="44.85658" lon="5.35409">
        <ele>1251.77</ele>
        <time>2014-09-05T09:14:33Z</time>
      </trkpt>
      <trkpt lat="44.85655" lon="5.35408">
        <ele>1252.25</ele>
        <time>2014-09-05T09:14:34Z</time>
      </trkpt>
      <trkpt lat="44.85653" lon="5.35408">
        <ele>1252.25</ele>
        <time>2014-09-05T09:14:35Z</time>
      </trkpt>
      <trkpt lat="44.8565" lon="5.35409">
        <ele>1252.25</ele>
        <time>2014-09-05T09:14:36Z</time>
      </trkpt>
      <trkpt lat="44.85646" lon="5.3541">
        <ele>1252.25</ele>
        <time>2014-09-05T09:14:37Z</time>
      </trkpt>
      <trkpt lat="44.85642" lon="5.35412">
        <ele>1252.25</ele>
        <time>2014-09-05T09:14:38Z</time>
      </trkpt>
      <trkpt lat="44.85637" lon="5.35413">
        <ele>1252.25</ele>
        <time>2014-09-05T09:14:39Z</time>
      </trkpt>
      <trkpt lat="44.85594" lon="5.35428">
        <ele>1252.25</ele>
        <time>2014-09-05T09:14:49Z</time>
      </trkpt>
      <trkpt lat="44.85586" lon="5.3543">
        <ele>1252.25</ele>
        <time>2014-09-05T09:14:51Z</time>
      </trkpt>
      <trkpt lat="44.85581" lon="5.35431">
        <ele>1251.77</ele>
        <time>2014-09-05T09:14:52Z</time>
      </trkpt>
      <trkpt lat="44.85577" lon="5.35432">
        <ele>1251.77</ele>
        <time>2014-09-05T09:14:53Z</time>
      </trkpt>
      <trkpt lat="44.85572" lon="5.35432">
        <ele>1251.77</ele>
        <time>2014-09-05T09:14:54Z</time>
      </trkpt>
      <trkpt lat="44.85568" lon="5.35433">
        <ele>1252.25</ele>
        <time>2014-09-05T09:14:55Z</time>
      </trkpt>
      <trkpt lat="44.85558" lon="5.35433">
        <ele>1251.77</ele>
        <time>2014-09-05T09:14:57Z</time>
      </trkpt>
      <trkpt lat="44.85553" lon="5.35433">
        <ele>1250.81</ele>
        <time>2014-09-05T09:14:58Z</time>
      </trkpt>
      <trkpt lat="44.85548" lon="5.35434">
        <ele>1250.81</ele>
        <time>2014-09-05T09:14:59Z</time>
      </trkpt>
      <trkpt lat="44.85543" lon="5.35433">
        <ele>1250.81</ele>
        <time>2014-09-05T09:15:00Z</time>
      </trkpt>
      <trkpt lat="44.85538" lon="5.35432">
        <ele>1250.81</ele>
        <time>2014-09-05T09:15:01Z</time>
      </trkpt>
      <trkpt lat="44.85533" lon="5.35431">
        <ele>1250.33</ele>
        <time>2014-09-05T09:15:02Z</time>
      </trkpt>
      <trkpt lat="44.85515" lon="5.35422">
        <ele>1248.41</ele>
        <time>2014-09-05T09:15:06Z</time>
      </trkpt>
      <trkpt lat="44.85505" lon="5.35412">
        <ele>1247.45</ele>
        <time>2014-09-05T09:15:08Z</time>
      </trkpt>
      <trkpt lat="44.85492" lon="5.35396">
        <ele>1245.53</ele>
        <time>2014-09-05T09:15:11Z</time>
      </trkpt>
      <trkpt lat="44.85487" lon="5.35391">
        <ele>1245.04</ele>
        <time>2014-09-05T09:15:12Z</time>
      </trkpt>
      <trkpt lat="44.85482" lon="5.35387">
        <ele>1245.04</ele>
        <time>2014-09-05T09:15:13Z</time>
      </trkpt>
      <trkpt lat="44.85477" lon="5.35383">
        <ele>1244.08</ele>
        <time>2014-09-05T09:15:14Z</time>
      </trkpt>
      <trkpt lat="44.8547" lon="5.35378">
        <ele>1243.6</ele>
        <time>2014-09-05T09:15:15Z</time>
      </trkpt>
      <trkpt lat="44.85455" lon="5.3537">
        <ele>1242.64</ele>
        <time>2014-09-05T09:15:17Z</time>
      </trkpt>
      <trkpt lat="44.8538" lon="5.35352">
        <ele>1242.16</ele>
        <time>2014-09-05T09:15:26Z</time>
      </trkpt>
      <trkpt lat="44.85362" lon="5.35348">
        <ele>1242.64</ele>
        <time>2014-09-05T09:15:29Z</time>
      </trkpt>
      <trkpt lat="44.85357" lon="5.35346">
        <ele>1242.16</ele>
        <time>2014-09-05T09:15:30Z</time>
      </trkpt>
      <trkpt lat="44.85352" lon="5.35344">
        <ele>1242.64</ele>
        <time>2014-09-05T09:15:31Z</time>
      </trkpt>
      <trkpt lat="44.85347" lon="5.35342">
        <ele>1242.64</ele>
        <time>2014-09-05T09:15:32Z</time>
      </trkpt>
      <trkpt lat="44.85342" lon="5.35339">
        <ele>1243.12</ele>
        <time>2014-09-05T09:15:33Z</time>
      </trkpt>
      <trkpt lat="44.8532" lon="5.35323">
        <ele>1243.6</ele>
        <time>2014-09-05T09:15:39Z</time>
      </trkpt>
      <trkpt lat="44.85292" lon="5.35304">
        <ele>1245.04</ele>
        <time>2014-09-05T09:15:46Z</time>
      </trkpt>
      <trkpt lat="44.85263" lon="5.35276">
        <ele>1246.49</ele>
        <time>2014-09-05T09:15:55Z</time>
      </trkpt>
      <trkpt lat="44.85237" lon="5.35251">
        <ele>1248.41</ele>
        <time>2014-09-05T09:16:03Z</time>
      </trkpt>
      <trkpt lat="44.85223" lon="5.35233">
        <ele>1249.37</ele>
        <time>2014-09-05T09:16:08Z</time>
      </trkpt>
      <trkpt lat="44.8522" lon="5.35229">
        <ele>1250.33</ele>
        <time>2014-09-05T09:16:09Z</time>
      </trkpt>
      <trkpt lat="44.85217" lon="5.35225">
        <ele>1250.33</ele>
        <time>2014-09-05T09:16:10Z</time>
      </trkpt>
      <trkpt lat="44.85215" lon="5.35223">
        <ele>1250.81</ele>
        <time>2014-09-05T09:16:11Z</time>
      </trkpt>
      <trkpt lat="44.85212" lon="5.35221">
        <ele>1251.29</ele>
        <time>2014-09-05T09:16:12Z</time>
      </trkpt>
      <trkpt lat="44.85211" lon="5.35219">
        <ele>1250.81</ele>
        <time>2014-09-05T09:16:13Z</time>
      </trkpt>
      <trkpt lat="44.8521" lon="5.35216">
        <ele>1251.29</ele>
        <time>2014-09-05T09:16:14Z</time>
      </trkpt>
      <trkpt lat="44.85198" lon="5.35183">
        <ele>1253.7</ele>
        <time>2014-09-05T09:16:25Z</time>
      </trkpt>
      <trkpt lat="44.85186" lon="5.35156">
        <ele>1256.1</ele>
        <time>2014-09-05T09:16:33Z</time>
      </trkpt>
      <trkpt lat="44.85166" lon="5.35129">
        <ele>1256.58</ele>
        <time>2014-09-05T09:16:42Z</time>
      </trkpt>
      <trkpt lat="44.8514" lon="5.35107">
        <ele>1258.02</ele>
        <time>2014-09-05T09:16:52Z</time>
      </trkpt>
      <trkpt lat="44.85119" lon="5.35095">
        <ele>1259.46</ele>
        <time>2014-09-05T09:17:01Z</time>
      </trkpt>
      <trkpt lat="44.85116" lon="5.35093">
        <ele>1259.46</ele>
        <time>2014-09-05T09:17:03Z</time>
      </trkpt>
      <trkpt lat="44.85115" lon="5.35087">
        <ele>1259.94</ele>
        <time>2014-09-05T09:17:06Z</time>
      </trkpt>
      <trkpt lat="44.85114" lon="5.35085">
        <ele>1260.43</ele>
        <time>2014-09-05T09:17:07Z</time>
      </trkpt>
      <trkpt lat="44.85112" lon="5.35084">
        <ele>1260.43</ele>
        <time>2014-09-05T09:17:08Z</time>
      </trkpt>
      <trkpt lat="44.85112" lon="5.35082">
        <ele>1260.43</ele>
        <time>2014-09-05T09:17:09Z</time>
      </trkpt>
      <trkpt lat="44.85093" lon="5.35064">
        <ele>1262.35</ele>
        <time>2014-09-05T09:17:20Z</time>
      </trkpt>
      <trkpt lat="44.85073" lon="5.35049">
        <ele>1263.31</ele>
        <time>2014-09-05T09:17:28Z</time>
      </trkpt>
      <trkpt lat="44.85069" lon="5.35047">
        <ele>1264.27</ele>
        <time>2014-09-05T09:17:29Z</time>
      </trkpt>
      <trkpt lat="44.85051" lon="5.35037">
        <ele>1264.75</ele>
        <time>2014-09-05T09:17:35Z</time>
      </trkpt>
      <trkpt lat="44.85049" lon="5.35036">
        <ele>1265.23</ele>
        <time>2014-09-05T09:17:36Z</time>
      </trkpt>
      <trkpt lat="44.85048" lon="5.35033">
        <ele>1265.23</ele>
        <time>2014-09-05T09:17:37Z</time>
      </trkpt>
      <trkpt lat="44.85046" lon="5.35032">
        <ele>1265.71</ele>
        <time>2014-09-05T09:17:38Z</time>
      </trkpt>
      <trkpt lat="44.85045" lon="5.3503">
        <ele>1265.71</ele>
        <time>2014-09-05T09:17:39Z</time>
      </trkpt>
      <trkpt lat="44.85033" lon="5.35016">
        <ele>1267.16</ele>
        <time>2014-09-05T09:17:47Z</time>
      </trkpt>
      <trkpt lat="44.85016" lon="5.34996">
        <ele>1268.12</ele>
        <time>2014-09-05T09:17:56Z</time>
      </trkpt>
      <trkpt lat="44.85003" lon="5.34978">
        <ele>1269.08</ele>
        <time>2014-09-05T09:18:04Z</time>
      </trkpt>
      <trkpt lat="44.84986" lon="5.34961">
        <ele>1271</ele>
        <time>2014-09-05T09:18:13Z</time>
      </trkpt>
      <trkpt lat="44.84972" lon="5.34948">
        <ele>1271</ele>
        <time>2014-09-05T09:18:21Z</time>
      </trkpt>
      <trkpt lat="44.84953" lon="5.34935">
        <ele>1272.44</ele>
        <time>2014-09-05T09:18:30Z</time>
      </trkpt>
      <trkpt lat="44.84929" lon="5.34919">
        <ele>1274.36</ele>
        <time>2014-09-05T09:18:41Z</time>
      </trkpt>
      <trkpt lat="44.84912" lon="5.34906">
        <ele>1275.81</ele>
        <time>2014-09-05T09:18:51Z</time>
      </trkpt>
      <trkpt lat="44.84891" lon="5.34897">
        <ele>1276.77</ele>
        <time>2014-09-05T09:19:00Z</time>
      </trkpt>
      <trkpt lat="44.84874" lon="5.34889">
        <ele>1278.21</ele>
        <time>2014-09-05T09:19:09Z</time>
      </trkpt>
      <trkpt lat="44.8486" lon="5.34881">
        <ele>1280.13</ele>
        <time>2014-09-05T09:19:16Z</time>
      </trkpt>
      <trkpt lat="44.84853" lon="5.34875">
        <ele>1280.61</ele>
        <time>2014-09-05T09:19:22Z</time>
      </trkpt>
      <trkpt lat="44.8485" lon="5.34871">
        <ele>1281.09</ele>
        <time>2014-09-05T09:19:25Z</time>
      </trkpt>
      <trkpt lat="44.84848" lon="5.3487">
        <ele>1281.57</ele>
        <time>2014-09-05T09:19:26Z</time>
      </trkpt>
      <trkpt lat="44.84847" lon="5.34869">
        <ele>1281.57</ele>
        <time>2014-09-05T09:19:27Z</time>
      </trkpt>
      <trkpt lat="44.84844" lon="5.34869">
        <ele>1281.57</ele>
        <time>2014-09-05T09:19:28Z</time>
      </trkpt>
      <trkpt lat="44.84842" lon="5.34868">
        <ele>1282.06</ele>
        <time>2014-09-05T09:19:29Z</time>
      </trkpt>
      <trkpt lat="44.84826" lon="5.34857">
        <ele>1283.5</ele>
        <time>2014-09-05T09:19:38Z</time>
      </trkpt>
      <trkpt lat="44.84808" lon="5.34845">
        <ele>1284.94</ele>
        <time>2014-09-05T09:19:48Z</time>
      </trkpt>
      <trkpt lat="44.84797" lon="5.34836">
        <ele>1285.9</ele>
        <time>2014-09-05T09:19:54Z</time>
      </trkpt>
      <trkpt lat="44.84795" lon="5.34834">
        <ele>1285.9</ele>
        <time>2014-09-05T09:19:55Z</time>
      </trkpt>
      <trkpt lat="44.84779" lon="5.3482">
        <ele>1287.82</ele>
        <time>2014-09-05T09:20:03Z</time>
      </trkpt>
      <trkpt lat="44.84771" lon="5.34811">
        <ele>1287.82</ele>
        <time>2014-09-05T09:20:08Z</time>
      </trkpt>
      <trkpt lat="44.84769" lon="5.34809">
        <ele>1288.3</ele>
        <time>2014-09-05T09:20:09Z</time>
      </trkpt>
      <trkpt lat="44.84768" lon="5.34807">
        <ele>1288.3</ele>
        <time>2014-09-05T09:20:10Z</time>
      </trkpt>
      <trkpt lat="44.84758" lon="5.34791">
        <ele>1290.23</ele>
        <time>2014-09-05T09:20:19Z</time>
      </trkpt>
      <trkpt lat="44.84745" lon="5.34773">
        <ele>1291.19</ele>
        <time>2014-09-05T09:20:27Z</time>
      </trkpt>
      <trkpt lat="44.84736" lon="5.34755">
        <ele>1292.63</ele>
        <time>2014-09-05T09:20:35Z</time>
      </trkpt>
      <trkpt lat="44.84727" lon="5.34732">
        <ele>1294.55</ele>
        <time>2014-09-05T09:20:45Z</time>
      </trkpt>
      <trkpt lat="44.84717" lon="5.34714">
        <ele>1295.51</ele>
        <time>2014-09-05T09:20:52Z</time>
      </trkpt>
      <trkpt lat="44.8471" lon="5.34693">
        <ele>1296.96</ele>
        <time>2014-09-05T09:21:02Z</time>
      </trkpt>
      <trkpt lat="44.847" lon="5.34674">
        <ele>1298.88</ele>
        <time>2014-09-05T09:21:12Z</time>
      </trkpt>
      <trkpt lat="44.84699" lon="5.34673">
        <ele>1298.88</ele>
        <time>2014-09-05T09:21:13Z</time>
      </trkpt>
      <trkpt lat="44.84697" lon="5.34671">
        <ele>1298.88</ele>
        <time>2014-09-05T09:21:14Z</time>
      </trkpt>
      <trkpt lat="44.84685" lon="5.34663">
        <ele>1300.32</ele>
        <time>2014-09-05T09:21:22Z</time>
      </trkpt>
      <trkpt lat="44.84674" lon="5.34655">
        <ele>1301.76</ele>
        <time>2014-09-05T09:21:30Z</time>
      </trkpt>
      <trkpt lat="44.8466" lon="5.34649">
        <ele>1302.72</ele>
        <time>2014-09-05T09:21:38Z</time>
      </trkpt>
      <trkpt lat="44.84647" lon="5.34643">
        <ele>1304.17</ele>
        <time>2014-09-05T09:21:47Z</time>
      </trkpt>
      <trkpt lat="44.84631" lon="5.34639">
        <ele>1305.13</ele>
        <time>2014-09-05T09:21:55Z</time>
      </trkpt>
      <trkpt lat="44.84619" lon="5.34636">
        <ele>1306.57</ele>
        <time>2014-09-05T09:22:05Z</time>
      </trkpt>
      <trkpt lat="44.84611" lon="5.34635">
        <ele>1307.53</ele>
        <time>2014-09-05T09:22:11Z</time>
      </trkpt>
      <trkpt lat="44.84609" lon="5.34634">
        <ele>1307.53</ele>
        <time>2014-09-05T09:22:12Z</time>
      </trkpt>
      <trkpt lat="44.84606" lon="5.34633">
        <ele>1307.53</ele>
        <time>2014-09-05T09:22:13Z</time>
      </trkpt>
      <trkpt lat="44.84594" lon="5.3463">
        <ele>1308.97</ele>
        <time>2014-09-05T09:22:19Z</time>
      </trkpt>
      <trkpt lat="44.84581" lon="5.34624">
        <ele>1309.93</ele>
        <time>2014-09-05T09:22:27Z</time>
      </trkpt>
      <trkpt lat="44.84565" lon="5.34617">
        <ele>1310.9</ele>
        <time>2014-09-05T09:22:35Z</time>
      </trkpt>
      <trkpt lat="44.84563" lon="5.34618">
        <ele>1311.38</ele>
        <time>2014-09-05T09:22:36Z</time>
      </trkpt>
      <trkpt lat="44.84561" lon="5.34618">
        <ele>1311.38</ele>
        <time>2014-09-05T09:22:37Z</time>
      </trkpt>
      <trkpt lat="44.84553" lon="5.34612">
        <ele>1312.34</ele>
        <time>2014-09-05T09:22:44Z</time>
      </trkpt>
      <trkpt lat="44.84544" lon="5.34607">
        <ele>1313.78</ele>
        <time>2014-09-05T09:22:52Z</time>
      </trkpt>
      <trkpt lat="44.84526" lon="5.34602">
        <ele>1315.22</ele>
        <time>2014-09-05T09:23:00Z</time>
      </trkpt>
      <trkpt lat="44.84525" lon="5.346">
        <ele>1316.18</ele>
        <time>2014-09-05T09:23:05Z</time>
      </trkpt>
      <trkpt lat="44.84508" lon="5.34593">
        <ele>1318.1</ele>
        <time>2014-09-05T09:23:14Z</time>
      </trkpt>
      <trkpt lat="44.84497" lon="5.34585">
        <ele>1319.55</ele>
        <time>2014-09-05T09:23:24Z</time>
      </trkpt>
      <trkpt lat="44.84485" lon="5.34575">
        <ele>1320.51</ele>
        <time>2014-09-05T09:23:32Z</time>
      </trkpt>
      <trkpt lat="44.8447" lon="5.34563">
        <ele>1321.95</ele>
        <time>2014-09-05T09:23:42Z</time>
      </trkpt>
      <trkpt lat="44.84469" lon="5.34559">
        <ele>1321.95</ele>
        <time>2014-09-05T09:23:44Z</time>
      </trkpt>
      <trkpt lat="44.84465" lon="5.34552">
        <ele>1323.39</ele>
        <time>2014-09-05T09:23:52Z</time>
      </trkpt>
      <trkpt lat="44.8446" lon="5.34547">
        <ele>1323.39</ele>
        <time>2014-09-05T09:23:55Z</time>
      </trkpt>
      <trkpt lat="44.84459" lon="5.34545">
        <ele>1323.39</ele>
        <time>2014-09-05T09:23:56Z</time>
      </trkpt>
      <trkpt lat="44.84456" lon="5.34543">
        <ele>1323.87</ele>
        <time>2014-09-05T09:23:57Z</time>
      </trkpt>
      <trkpt lat="44.84454" lon="5.3454">
        <ele>1323.87</ele>
        <time>2014-09-05T09:23:59Z</time>
      </trkpt>
      <trkpt lat="44.84447" lon="5.34531">
        <ele>1324.35</ele>
        <time>2014-09-05T09:24:05Z</time>
      </trkpt>
      <trkpt lat="44.84446" lon="5.34529">
        <ele>1324.83</ele>
        <time>2014-09-05T09:24:06Z</time>
      </trkpt>
      <trkpt lat="44.84411" lon="5.34507">
        <ele>1326.76</ele>
        <time>2014-09-05T09:24:18Z</time>
      </trkpt>
      <trkpt lat="44.84394" lon="5.34501">
        <ele>1327.72</ele>
        <time>2014-09-05T09:24:28Z</time>
      </trkpt>
      <trkpt lat="44.84388" lon="5.34501">
        <ele>1329.16</ele>
        <time>2014-09-05T09:24:36Z</time>
      </trkpt>
      <trkpt lat="44.84387" lon="5.34501">
        <ele>1329.16</ele>
        <time>2014-09-05T09:24:37Z</time>
      </trkpt>
      <trkpt lat="44.84374" lon="5.34502">
        <ele>1330.12</ele>
        <time>2014-09-05T09:24:43Z</time>
      </trkpt>
      <trkpt lat="44.84358" lon="5.34505">
        <ele>1332.04</ele>
        <time>2014-09-05T09:24:54Z</time>
      </trkpt>
      <trkpt lat="44.84346" lon="5.3451">
        <ele>1333.97</ele>
        <time>2014-09-05T09:25:04Z</time>
      </trkpt>
      <trkpt lat="44.84329" lon="5.34511">
        <ele>1335.41</ele>
        <time>2014-09-05T09:25:13Z</time>
      </trkpt>
      <trkpt lat="44.8432" lon="5.34512">
        <ele>1336.37</ele>
        <time>2014-09-05T09:25:20Z</time>
      </trkpt>
      <trkpt lat="44.84301" lon="5.34512">
        <ele>1336.85</ele>
        <time>2014-09-05T09:25:31Z</time>
      </trkpt>
      <trkpt lat="44.84302" lon="5.34511">
        <ele>1336.85</ele>
        <time>2014-09-05T09:25:41Z</time>
      </trkpt>
      <trkpt lat="44.84302" lon="5.34511">
        <ele>1337.33</ele>
        <time>2014-09-05T09:26:04Z</time>
      </trkpt>
      <trkpt lat="44.84302" lon="5.34511">
        <ele>1337.33</ele>
        <time>2014-09-05T09:26:28Z</time>
      </trkpt>
      <trkpt lat="44.84302" lon="5.34511">
        <ele>1337.33</ele>
        <time>2014-09-05T09:26:54Z</time>
      </trkpt>
      <trkpt lat="44.84302" lon="5.34511">
        <ele>1337.33</ele>
        <time>2014-09-05T09:27:18Z</time>
      </trkpt>
      <trkpt lat="44.84302" lon="5.34512">
        <ele>1337.33</ele>
        <time>2014-09-05T09:27:37Z</time>
      </trkpt>
      <trkpt lat="44.84297" lon="5.34514">
        <ele>1337.33</ele>
        <time>2014-09-05T09:27:46Z</time>
      </trkpt>
      <trkpt lat="44.84295" lon="5.34513">
        <ele>1337.81</ele>
        <time>2014-09-05T09:27:47Z</time>
      </trkpt>
      <trkpt lat="44.84293" lon="5.34513">
        <ele>1337.81</ele>
        <time>2014-09-05T09:27:48Z</time>
      </trkpt>
      <trkpt lat="44.84291" lon="5.34514">
        <ele>1337.81</ele>
        <time>2014-09-05T09:27:49Z</time>
      </trkpt>
      <trkpt lat="44.84289" lon="5.34513">
        <ele>1338.29</ele>
        <time>2014-09-05T09:27:50Z</time>
      </trkpt>
      <trkpt lat="44.84287" lon="5.34513">
        <ele>1338.29</ele>
        <time>2014-09-05T09:27:51Z</time>
      </trkpt>
      <trkpt lat="44.84285" lon="5.34513">
        <ele>1338.29</ele>
        <time>2014-09-05T09:27:52Z</time>
      </trkpt>
      <trkpt lat="44.84283" lon="5.34513">
        <ele>1338.29</ele>
        <time>2014-09-05T09:27:53Z</time>
      </trkpt>
      <trkpt lat="44.84282" lon="5.34513">
        <ele>1338.77</ele>
        <time>2014-09-05T09:27:54Z</time>
      </trkpt>
      <trkpt lat="44.84267" lon="5.34511">
        <ele>1340.22</ele>
        <time>2014-09-05T09:28:02Z</time>
      </trkpt>
      <trkpt lat="44.8426" lon="5.345">
        <ele>1342.14</ele>
        <time>2014-09-05T09:28:12Z</time>
      </trkpt>
      <trkpt lat="44.84259" lon="5.34495">
        <ele>1342.62</ele>
        <time>2014-09-05T09:28:17Z</time>
      </trkpt>
      <trkpt lat="44.84255" lon="5.34491">
        <ele>1343.58</ele>
        <time>2014-09-05T09:28:20Z</time>
      </trkpt>
      <trkpt lat="44.84251" lon="5.34488">
        <ele>1343.58</ele>
        <time>2014-09-05T09:28:22Z</time>
      </trkpt>
      <trkpt lat="44.84236" lon="5.34475">
        <ele>1345.5</ele>
        <time>2014-09-05T09:28:32Z</time>
      </trkpt>
      <trkpt lat="44.84213" lon="5.34456">
        <ele>1347.43</ele>
        <time>2014-09-05T09:28:45Z</time>
      </trkpt>
      <trkpt lat="44.84185" lon="5.34443">
        <ele>1348.39</ele>
        <time>2014-09-05T09:28:53Z</time>
      </trkpt>
      <trkpt lat="44.84181" lon="5.34438">
        <ele>1348.87</ele>
        <time>2014-09-05T09:28:56Z</time>
      </trkpt>
      <trkpt lat="44.84173" lon="5.3443">
        <ele>1350.79</ele>
        <time>2014-09-05T09:29:03Z</time>
      </trkpt>
      <trkpt lat="44.84171" lon="5.34429">
        <ele>1350.31</ele>
        <time>2014-09-05T09:29:04Z</time>
      </trkpt>
      <trkpt lat="44.84166" lon="5.34425">
        <ele>1350.79</ele>
        <time>2014-09-05T09:29:07Z</time>
      </trkpt>
      <trkpt lat="44.8416" lon="5.34422">
        <ele>1351.27</ele>
        <time>2014-09-05T09:29:10Z</time>
      </trkpt>
      <trkpt lat="44.84158" lon="5.34422">
        <ele>1351.75</ele>
        <time>2014-09-05T09:29:11Z</time>
      </trkpt>
      <trkpt lat="44.84156" lon="5.3442">
        <ele>1351.75</ele>
        <time>2014-09-05T09:29:12Z</time>
      </trkpt>
      <trkpt lat="44.84152" lon="5.34417">
        <ele>1351.75</ele>
        <time>2014-09-05T09:29:14Z</time>
      </trkpt>
      <trkpt lat="44.8415" lon="5.34417">
        <ele>1352.23</ele>
        <time>2014-09-05T09:29:15Z</time>
      </trkpt>
      <trkpt lat="44.84142" lon="5.34408">
        <ele>1353.67</ele>
        <time>2014-09-05T09:29:25Z</time>
      </trkpt>
      <trkpt lat="44.8414" lon="5.34403">
        <ele>1354.63</ele>
        <time>2014-09-05T09:29:31Z</time>
      </trkpt>
      <trkpt lat="44.84139" lon="5.34402">
        <ele>1355.12</ele>
        <time>2014-09-05T09:29:32Z</time>
      </trkpt>
      <trkpt lat="44.84113" lon="5.34393">
        <ele>1357.52</ele>
        <time>2014-09-05T09:29:42Z</time>
      </trkpt>
      <trkpt lat="44.84103" lon="5.34385">
        <ele>1358.48</ele>
        <time>2014-09-05T09:29:53Z</time>
      </trkpt>
      <trkpt lat="44.84091" lon="5.34377">
        <ele>1360.4</ele>
        <time>2014-09-05T09:30:03Z</time>
      </trkpt>
      <trkpt lat="44.8407" lon="5.34361">
        <ele>1361.84</ele>
        <time>2014-09-05T09:30:14Z</time>
      </trkpt>
      <trkpt lat="44.84053" lon="5.3434">
        <ele>1363.77</ele>
        <time>2014-09-05T09:30:23Z</time>
      </trkpt>
      <trkpt lat="44.84016" lon="5.34324">
        <ele>1365.21</ele>
        <time>2014-09-05T09:30:34Z</time>
      </trkpt>
      <trkpt lat="44.84007" lon="5.34329">
        <ele>1365.69</ele>
        <time>2014-09-05T09:30:39Z</time>
      </trkpt>
      <trkpt lat="44.84005" lon="5.34331">
        <ele>1365.69</ele>
        <time>2014-09-05T09:30:40Z</time>
      </trkpt>
      <trkpt lat="44.84004" lon="5.34333">
        <ele>1366.17</ele>
        <time>2014-09-05T09:30:41Z</time>
      </trkpt>
      <trkpt lat="44.84002" lon="5.34336">
        <ele>1365.69</ele>
        <time>2014-09-05T09:30:42Z</time>
      </trkpt>
      <trkpt lat="44.84001" lon="5.34339">
        <ele>1365.69</ele>
        <time>2014-09-05T09:30:43Z</time>
      </trkpt>
      <trkpt lat="44.83995" lon="5.34353">
        <ele>1366.65</ele>
        <time>2014-09-05T09:30:48Z</time>
      </trkpt>
      <trkpt lat="44.83997" lon="5.34363">
        <ele>1366.65</ele>
        <time>2014-09-05T09:30:51Z</time>
      </trkpt>
      <trkpt lat="44.83999" lon="5.34367">
        <ele>1366.65</ele>
        <time>2014-09-05T09:30:52Z</time>
      </trkpt>
      <trkpt lat="44.84002" lon="5.3437">
        <ele>1367.13</ele>
        <time>2014-09-05T09:30:53Z</time>
      </trkpt>
      <trkpt lat="44.84024" lon="5.3439">
        <ele>1367.13</ele>
        <time>2014-09-05T09:30:59Z</time>
      </trkpt>
      <trkpt lat="44.84053" lon="5.34422">
        <ele>1367.61</ele>
        <time>2014-09-05T09:31:08Z</time>
      </trkpt>
      <trkpt lat="44.84057" lon="5.34426">
        <ele>1367.61</ele>
        <time>2014-09-05T09:31:09Z</time>
      </trkpt>
      <trkpt lat="44.84066" lon="5.34437">
        <ele>1367.61</ele>
        <time>2014-09-05T09:31:12Z</time>
      </trkpt>
      <trkpt lat="44.84069" lon="5.34441">
        <ele>1367.61</ele>
        <time>2014-09-05T09:31:13Z</time>
      </trkpt>
      <trkpt lat="44.84073" lon="5.34445">
        <ele>1367.61</ele>
        <time>2014-09-05T09:31:14Z</time>
      </trkpt>
      <trkpt lat="44.84076" lon="5.34448">
        <ele>1367.61</ele>
        <time>2014-09-05T09:31:15Z</time>
      </trkpt>
      <trkpt lat="44.84079" lon="5.34453">
        <ele>1368.09</ele>
        <time>2014-09-05T09:31:16Z</time>
      </trkpt>
      <trkpt lat="44.84085" lon="5.34461">
        <ele>1367.61</ele>
        <time>2014-09-05T09:31:18Z</time>
      </trkpt>
      <trkpt lat="44.84106" lon="5.34488">
        <ele>1367.61</ele>
        <time>2014-09-05T09:31:24Z</time>
      </trkpt>
      <trkpt lat="44.84138" lon="5.34531">
        <ele>1368.09</ele>
        <time>2014-09-05T09:31:34Z</time>
      </trkpt>
      <trkpt lat="44.84142" lon="5.34535">
        <ele>1368.09</ele>
        <time>2014-09-05T09:31:35Z</time>
      </trkpt>
      <trkpt lat="44.84155" lon="5.34548">
        <ele>1367.61</ele>
        <time>2014-09-05T09:31:38Z</time>
      </trkpt>
      <trkpt lat="44.84196" lon="5.34597">
        <ele>1367.13</ele>
        <time>2014-09-05T09:31:48Z</time>
      </trkpt>
      <trkpt lat="44.84213" lon="5.34618">
        <ele>1367.13</ele>
        <time>2014-09-05T09:31:52Z</time>
      </trkpt>
      <trkpt lat="44.84223" lon="5.34627">
        <ele>1367.13</ele>
        <time>2014-09-05T09:31:54Z</time>
      </trkpt>
      <trkpt lat="44.84241" lon="5.34648">
        <ele>1366.17</ele>
        <time>2014-09-05T09:31:58Z</time>
      </trkpt>
      <trkpt lat="44.84244" lon="5.34655">
        <ele>1367.13</ele>
        <time>2014-09-05T09:31:59Z</time>
      </trkpt>
      <trkpt lat="44.84246" lon="5.34663">
        <ele>1366.17</ele>
        <time>2014-09-05T09:32:00Z</time>
      </trkpt>
      <trkpt lat="44.84246" lon="5.34691">
        <ele>1366.17</ele>
        <time>2014-09-05T09:32:05Z</time>
      </trkpt>
      <trkpt lat="44.84245" lon="5.34693">
        <ele>1366.65</ele>
        <time>2014-09-05T09:32:06Z</time>
      </trkpt>
      <trkpt lat="44.84241" lon="5.34694">
        <ele>1366.65</ele>
        <time>2014-09-05T09:32:07Z</time>
      </trkpt>
      <trkpt lat="44.84236" lon="5.34695">
        <ele>1366.17</ele>
        <time>2014-09-05T09:32:08Z</time>
      </trkpt>
      <trkpt lat="44.8423" lon="5.34696">
        <ele>1366.17</ele>
        <time>2014-09-05T09:32:09Z</time>
      </trkpt>
      <trkpt lat="44.84225" lon="5.34697">
        <ele>1365.69</ele>
        <time>2014-09-05T09:32:10Z</time>
      </trkpt>
      <trkpt lat="44.84195" lon="5.34704">
        <ele>1365.21</ele>
        <time>2014-09-05T09:32:15Z</time>
      </trkpt>
      <trkpt lat="44.84155" lon="5.34712">
        <ele>1364.25</ele>
        <time>2014-09-05T09:32:21Z</time>
      </trkpt>
      <trkpt lat="44.84149" lon="5.34713">
        <ele>1364.25</ele>
        <time>2014-09-05T09:32:22Z</time>
      </trkpt>
      <trkpt lat="44.84142" lon="5.34715">
        <ele>1363.77</ele>
        <time>2014-09-05T09:32:23Z</time>
      </trkpt>
      <trkpt lat="44.8412" lon="5.34715">
        <ele>1363.29</ele>
        <time>2014-09-05T09:32:26Z</time>
      </trkpt>
      <trkpt lat="44.84097" lon="5.34714">
        <ele>1362.33</ele>
        <time>2014-09-05T09:32:30Z</time>
      </trkpt>
      <trkpt lat="44.8409" lon="5.34717">
        <ele>1361.84</ele>
        <time>2014-09-05T09:32:31Z</time>
      </trkpt>
      <trkpt lat="44.84083" lon="5.34722">
        <ele>1361.36</ele>
        <time>2014-09-05T09:32:32Z</time>
      </trkpt>
      <trkpt lat="44.84071" lon="5.34736">
        <ele>1360.88</ele>
        <time>2014-09-05T09:32:34Z</time>
      </trkpt>
      <trkpt lat="44.84029" lon="5.34796">
        <ele>1357.04</ele>
        <time>2014-09-05T09:32:41Z</time>
      </trkpt>
      <trkpt lat="44.84018" lon="5.3482">
        <ele>1356.56</ele>
        <time>2014-09-05T09:32:43Z</time>
      </trkpt>
      <trkpt lat="44.84014" lon="5.34831">
        <ele>1355.6</ele>
        <time>2014-09-05T09:32:44Z</time>
      </trkpt>
      <trkpt lat="44.84011" lon="5.34842">
        <ele>1355.6</ele>
        <time>2014-09-05T09:32:45Z</time>
      </trkpt>
      <trkpt lat="44.84004" lon="5.34927">
        <ele>1352.23</ele>
        <time>2014-09-05T09:32:53Z</time>
      </trkpt>
      <trkpt lat="44.84012" lon="5.34971">
        <ele>1351.27</ele>
        <time>2014-09-05T09:32:57Z</time>
      </trkpt>
      <trkpt lat="44.84069" lon="5.35001">
        <ele>1350.31</ele>
        <time>2014-09-05T09:32:59Z</time>
      </trkpt>
      <trkpt lat="44.84077" lon="5.35027">
        <ele>1349.83</ele>
        <time>2014-09-05T09:33:01Z</time>
      </trkpt>
      <trkpt lat="44.84079" lon="5.35039">
        <ele>1348.87</ele>
        <time>2014-09-05T09:33:02Z</time>
      </trkpt>
      <trkpt lat="44.84085" lon="5.35064">
        <ele>1348.39</ele>
        <time>2014-09-05T09:33:04Z</time>
      </trkpt>
      <trkpt lat="44.84086" lon="5.3509">
        <ele>1348.39</ele>
        <time>2014-09-05T09:33:06Z</time>
      </trkpt>
      <trkpt lat="44.84084" lon="5.35102">
        <ele>1347.91</ele>
        <time>2014-09-05T09:33:07Z</time>
      </trkpt>
      <trkpt lat="44.84082" lon="5.35134">
        <ele>1347.91</ele>
        <time>2014-09-05T09:33:10Z</time>
      </trkpt>
      <trkpt lat="44.84086" lon="5.35151">
        <ele>1347.91</ele>
        <time>2014-09-05T09:33:12Z</time>
      </trkpt>
      <trkpt lat="44.84092" lon="5.35201">
        <ele>1347.43</ele>
        <time>2014-09-05T09:33:18Z</time>
      </trkpt>
      <trkpt lat="44.84091" lon="5.35208">
        <ele>1347.43</ele>
        <time>2014-09-05T09:33:19Z</time>
      </trkpt>
      <trkpt lat="44.84088" lon="5.35215">
        <ele>1347.43</ele>
        <time>2014-09-05T09:33:20Z</time>
      </trkpt>
      <trkpt lat="44.84085" lon="5.35221">
        <ele>1347.43</ele>
        <time>2014-09-05T09:33:21Z</time>
      </trkpt>
      <trkpt lat="44.84082" lon="5.35227">
        <ele>1346.94</ele>
        <time>2014-09-05T09:33:22Z</time>
      </trkpt>
      <trkpt lat="44.84078" lon="5.35232">
        <ele>1346.94</ele>
        <time>2014-09-05T09:33:23Z</time>
      </trkpt>
      <trkpt lat="44.84074" lon="5.35236">
        <ele>1346.94</ele>
        <time>2014-09-05T09:33:24Z</time>
      </trkpt>
      <trkpt lat="44.84071" lon="5.3524">
        <ele>1347.43</ele>
        <time>2014-09-05T09:33:25Z</time>
      </trkpt>
      <trkpt lat="44.8402" lon="5.35263">
        <ele>1346.94</ele>
        <time>2014-09-05T09:33:33Z</time>
      </trkpt>
      <trkpt lat="44.84003" lon="5.35266">
        <ele>1346.94</ele>
        <time>2014-09-05T09:33:35Z</time>
      </trkpt>
      <trkpt lat="44.83956" lon="5.35275">
        <ele>1345.98</ele>
        <time>2014-09-05T09:33:43Z</time>
      </trkpt>
      <trkpt lat="44.8395" lon="5.35276">
        <ele>1345.5</ele>
        <time>2014-09-05T09:33:44Z</time>
      </trkpt>
      <trkpt lat="44.83944" lon="5.35276">
        <ele>1345.5</ele>
        <time>2014-09-05T09:33:45Z</time>
      </trkpt>
      <trkpt lat="44.83916" lon="5.35276">
        <ele>1344.54</ele>
        <time>2014-09-05T09:33:49Z</time>
      </trkpt>
      <trkpt lat="44.83909" lon="5.35275">
        <ele>1344.54</ele>
        <time>2014-09-05T09:33:50Z</time>
      </trkpt>
      <trkpt lat="44.83889" lon="5.35271">
        <ele>1344.06</ele>
        <time>2014-09-05T09:33:53Z</time>
      </trkpt>
      <trkpt lat="44.83859" lon="5.3526">
        <ele>1344.06</ele>
        <time>2014-09-05T09:33:58Z</time>
      </trkpt>
      <trkpt lat="44.83854" lon="5.35259">
        <ele>1344.54</ele>
        <time>2014-09-05T09:33:59Z</time>
      </trkpt>
      <trkpt lat="44.83838" lon="5.35254">
        <ele>1344.06</ele>
        <time>2014-09-05T09:34:02Z</time>
      </trkpt>
      <trkpt lat="44.83833" lon="5.35252">
        <ele>1344.06</ele>
        <time>2014-09-05T09:34:03Z</time>
      </trkpt>
      <trkpt lat="44.83828" lon="5.3525">
        <ele>1344.06</ele>
        <time>2014-09-05T09:34:04Z</time>
      </trkpt>
      <trkpt lat="44.83814" lon="5.3524">
        <ele>1343.58</ele>
        <time>2014-09-05T09:34:07Z</time>
      </trkpt>
      <trkpt lat="44.83786" lon="5.35217">
        <ele>1342.62</ele>
        <time>2014-09-05T09:34:13Z</time>
      </trkpt>
      <trkpt lat="44.83782" lon="5.35211">
        <ele>1342.62</ele>
        <time>2014-09-05T09:34:14Z</time>
      </trkpt>
      <trkpt lat="44.83774" lon="5.352">
        <ele>1342.14</ele>
        <time>2014-09-05T09:34:16Z</time>
      </trkpt>
      <trkpt lat="44.83771" lon="5.35193">
        <ele>1342.14</ele>
        <time>2014-09-05T09:34:17Z</time>
      </trkpt>
      <trkpt lat="44.83741" lon="5.35118">
        <ele>1339.73</ele>
        <time>2014-09-05T09:34:27Z</time>
      </trkpt>
      <trkpt lat="44.83713" lon="5.35054">
        <ele>1339.25</ele>
        <time>2014-09-05T09:34:36Z</time>
      </trkpt>
      <trkpt lat="44.83711" lon="5.35046">
        <ele>1338.77</ele>
        <time>2014-09-05T09:34:37Z</time>
      </trkpt>
      <trkpt lat="44.83707" lon="5.3503">
        <ele>1337.81</ele>
        <time>2014-09-05T09:34:39Z</time>
      </trkpt>
      <trkpt lat="44.83703" lon="5.35014">
        <ele>1337.33</ele>
        <time>2014-09-05T09:34:41Z</time>
      </trkpt>
      <trkpt lat="44.83695" lon="5.34997">
        <ele>1336.37</ele>
        <time>2014-09-05T09:34:43Z</time>
      </trkpt>
      <trkpt lat="44.83682" lon="5.34979">
        <ele>1334.45</ele>
        <time>2014-09-05T09:34:46Z</time>
      </trkpt>
      <trkpt lat="44.83672" lon="5.34969">
        <ele>1333.97</ele>
        <time>2014-09-05T09:34:48Z</time>
      </trkpt>
      <trkpt lat="44.83663" lon="5.34962">
        <ele>1333.49</ele>
        <time>2014-09-05T09:34:50Z</time>
      </trkpt>
      <trkpt lat="44.83659" lon="5.34958">
        <ele>1333.49</ele>
        <time>2014-09-05T09:34:51Z</time>
      </trkpt>
      <trkpt lat="44.83657" lon="5.34953">
        <ele>1333.49</ele>
        <time>2014-09-05T09:34:52Z</time>
      </trkpt>
      <trkpt lat="44.83654" lon="5.34949">
        <ele>1333.97</ele>
        <time>2014-09-05T09:34:53Z</time>
      </trkpt>
      <trkpt lat="44.83652" lon="5.34946">
        <ele>1333.97</ele>
        <time>2014-09-05T09:34:54Z</time>
      </trkpt>
      <trkpt lat="44.83649" lon="5.34944">
        <ele>1333.97</ele>
        <time>2014-09-05T09:34:55Z</time>
      </trkpt>
      <trkpt lat="44.83648" lon="5.34942">
        <ele>1333.97</ele>
        <time>2014-09-05T09:34:56Z</time>
      </trkpt>
      <trkpt lat="44.83646" lon="5.3494">
        <ele>1333.97</ele>
        <time>2014-09-05T09:34:57Z</time>
      </trkpt>
      <trkpt lat="44.83645" lon="5.34939">
        <ele>1333.97</ele>
        <time>2014-09-05T09:34:58Z</time>
      </trkpt>
      <trkpt lat="44.83642" lon="5.34937">
        <ele>1334.45</ele>
        <time>2014-09-05T09:35:06Z</time>
      </trkpt>
      <trkpt lat="44.83642" lon="5.34937">
        <ele>1333.97</ele>
        <time>2014-09-05T09:35:18Z</time>
      </trkpt>
      <trkpt lat="44.83642" lon="5.34937">
        <ele>1333.97</ele>
        <time>2014-09-05T09:35:29Z</time>
      </trkpt>
      <trkpt lat="44.83641" lon="5.34936">
        <ele>1333.97</ele>
        <time>2014-09-05T09:35:46Z</time>
      </trkpt>
      <trkpt lat="44.83641" lon="5.34936">
        <ele>1333.97</ele>
        <time>2014-09-05T09:35:59Z</time>
      </trkpt>
      <trkpt lat="44.83642" lon="5.34935">
        <ele>1333.97</ele>
        <time>2014-09-05T09:36:09Z</time>
      </trkpt>
      <trkpt lat="44.83642" lon="5.34932">
        <ele>1334.45</ele>
        <time>2014-09-05T09:36:10Z</time>
      </trkpt>
      <trkpt lat="44.83643" lon="5.34925">
        <ele>1334.45</ele>
        <time>2014-09-05T09:36:13Z</time>
      </trkpt>
      <trkpt lat="44.83643" lon="5.34922">
        <ele>1334.45</ele>
        <time>2014-09-05T09:36:14Z</time>
      </trkpt>
      <trkpt lat="44.83643" lon="5.34919">
        <ele>1334.45</ele>
        <time>2014-09-05T09:36:15Z</time>
      </trkpt>
      <trkpt lat="44.83644" lon="5.34917">
        <ele>1334.45</ele>
        <time>2014-09-05T09:36:16Z</time>
      </trkpt>
      <trkpt lat="44.83644" lon="5.34914">
        <ele>1334.93</ele>
        <time>2014-09-05T09:36:17Z</time>
      </trkpt>
      <trkpt lat="44.83645" lon="5.34911">
        <ele>1334.93</ele>
        <time>2014-09-05T09:36:18Z</time>
      </trkpt>
      <trkpt lat="44.83647" lon="5.34904">
        <ele>1335.41</ele>
        <time>2014-09-05T09:36:25Z</time>
      </trkpt>
      <trkpt lat="44.83647" lon="5.34904">
        <ele>1335.41</ele>
        <time>2014-09-05T09:36:41Z</time>
      </trkpt>
      <trkpt lat="44.83648" lon="5.34902">
        <ele>1335.41</ele>
        <time>2014-09-05T09:36:44Z</time>
      </trkpt>
      <trkpt lat="44.83649" lon="5.349">
        <ele>1334.93</ele>
        <time>2014-09-05T09:36:45Z</time>
      </trkpt>
      <trkpt lat="44.8365" lon="5.34898">
        <ele>1335.41</ele>
        <time>2014-09-05T09:36:46Z</time>
      </trkpt>
      <trkpt lat="44.83654" lon="5.34886">
        <ele>1336.37</ele>
        <time>2014-09-05T09:36:51Z</time>
      </trkpt>
      <trkpt lat="44.83654" lon="5.34883">
        <ele>1336.37</ele>
        <time>2014-09-05T09:36:52Z</time>
      </trkpt>
      <trkpt lat="44.83653" lon="5.34881">
        <ele>1336.37</ele>
        <time>2014-09-05T09:36:53Z</time>
      </trkpt>
      <trkpt lat="44.83652" lon="5.34879">
        <ele>1336.37</ele>
        <time>2014-09-05T09:36:54Z</time>
      </trkpt>
      <trkpt lat="44.83651" lon="5.34876">
        <ele>1336.85</ele>
        <time>2014-09-05T09:36:55Z</time>
      </trkpt>
      <trkpt lat="44.8365" lon="5.34871">
        <ele>1336.85</ele>
        <time>2014-09-05T09:36:57Z</time>
      </trkpt>
      <trkpt lat="44.8365" lon="5.34868">
        <ele>1336.85</ele>
        <time>2014-09-05T09:36:58Z</time>
      </trkpt>
      <trkpt lat="44.8365" lon="5.34866">
        <ele>1337.33</ele>
        <time>2014-09-05T09:36:59Z</time>
      </trkpt>
      <trkpt lat="44.83651" lon="5.34863">
        <ele>1337.33</ele>
        <time>2014-09-05T09:37:00Z</time>
      </trkpt>
      <trkpt lat="44.83652" lon="5.34861">
        <ele>1337.33</ele>
        <time>2014-09-05T09:37:01Z</time>
      </trkpt>
      <trkpt lat="44.83653" lon="5.34859">
        <ele>1337.81</ele>
        <time>2014-09-05T09:37:02Z</time>
      </trkpt>
      <trkpt lat="44.83654" lon="5.34857">
        <ele>1337.81</ele>
        <time>2014-09-05T09:37:03Z</time>
      </trkpt>
      <trkpt lat="44.83654" lon="5.34855">
        <ele>1337.81</ele>
        <time>2014-09-05T09:37:04Z</time>
      </trkpt>
      <trkpt lat="44.83655" lon="5.3485">
        <ele>1337.81</ele>
        <time>2014-09-05T09:37:07Z</time>
      </trkpt>
      <trkpt lat="44.83654" lon="5.34843">
        <ele>1339.73</ele>
        <time>2014-09-05T09:37:16Z</time>
      </trkpt>
      <trkpt lat="44.8365" lon="5.34831">
        <ele>1341.18</ele>
        <time>2014-09-05T09:37:24Z</time>
      </trkpt>
      <trkpt lat="44.83648" lon="5.34829">
        <ele>1340.7</ele>
        <time>2014-09-05T09:37:25Z</time>
      </trkpt>
      <trkpt lat="44.83647" lon="5.34825">
        <ele>1340.7</ele>
        <time>2014-09-05T09:37:27Z</time>
      </trkpt>
      <trkpt lat="44.83647" lon="5.34822">
        <ele>1341.18</ele>
        <time>2014-09-05T09:37:28Z</time>
      </trkpt>
      <trkpt lat="44.83644" lon="5.34804">
        <ele>1342.62</ele>
        <time>2014-09-05T09:37:36Z</time>
      </trkpt>
      <trkpt lat="44.83642" lon="5.34797">
        <ele>1342.62</ele>
        <time>2014-09-05T09:37:39Z</time>
      </trkpt>
      <trkpt lat="44.83647" lon="5.34788">
        <ele>1343.58</ele>
        <time>2014-09-05T09:37:51Z</time>
      </trkpt>
      <trkpt lat="44.83648" lon="5.34787">
        <ele>1343.1</ele>
        <time>2014-09-05T09:37:53Z</time>
      </trkpt>
      <trkpt lat="44.83648" lon="5.34784">
        <ele>1343.58</ele>
        <time>2014-09-05T09:37:55Z</time>
      </trkpt>
      <trkpt lat="44.83644" lon="5.3477">
        <ele>1344.54</ele>
        <time>2014-09-05T09:38:04Z</time>
      </trkpt>
      <trkpt lat="44.83634" lon="5.34763">
        <ele>1345.5</ele>
        <time>2014-09-05T09:38:09Z</time>
      </trkpt>
      <trkpt lat="44.83633" lon="5.3476">
        <ele>1345.98</ele>
        <time>2014-09-05T09:38:11Z</time>
      </trkpt>
      <trkpt lat="44.83617" lon="5.34744">
        <ele>1346.94</ele>
        <time>2014-09-05T09:38:18Z</time>
      </trkpt>
      <trkpt lat="44.83614" lon="5.34742">
        <ele>1346.94</ele>
        <time>2014-09-05T09:38:19Z</time>
      </trkpt>
      <trkpt lat="44.8359" lon="5.34725">
        <ele>1348.39</ele>
        <time>2014-09-05T09:38:29Z</time>
      </trkpt>
      <trkpt lat="44.83582" lon="5.34716">
        <ele>1349.35</ele>
        <time>2014-09-05T09:38:34Z</time>
      </trkpt>
      <trkpt lat="44.83572" lon="5.34701">
        <ele>1350.31</ele>
        <time>2014-09-05T09:38:43Z</time>
      </trkpt>
      <trkpt lat="44.83559" lon="5.34692">
        <ele>1351.27</ele>
        <time>2014-09-05T09:38:50Z</time>
      </trkpt>
      <trkpt lat="44.83546" lon="5.34682">
        <ele>1352.23</ele>
        <time>2014-09-05T09:38:58Z</time>
      </trkpt>
      <trkpt lat="44.83539" lon="5.3467">
        <ele>1353.67</ele>
        <time>2014-09-05T09:39:05Z</time>
      </trkpt>
      <trkpt lat="44.83539" lon="5.3467">
        <ele>1354.15</ele>
        <time>2014-09-05T09:39:06Z</time>
      </trkpt>
      <trkpt lat="44.83535" lon="5.34659">
        <ele>1354.15</ele>
        <time>2014-09-05T09:39:11Z</time>
      </trkpt>
      <trkpt lat="44.8353" lon="5.34652">
        <ele>1355.12</ele>
        <time>2014-09-05T09:39:15Z</time>
      </trkpt>
      <trkpt lat="44.83517" lon="5.3464">
        <ele>1356.56</ele>
        <time>2014-09-05T09:39:24Z</time>
      </trkpt>
      <trkpt lat="44.83514" lon="5.34631">
        <ele>1357.52</ele>
        <time>2014-09-05T09:39:29Z</time>
      </trkpt>
      <trkpt lat="44.83513" lon="5.34623">
        <ele>1358.48</ele>
        <time>2014-09-05T09:39:37Z</time>
      </trkpt>
      <trkpt lat="44.83512" lon="5.34621">
        <ele>1358.48</ele>
        <time>2014-09-05T09:39:38Z</time>
      </trkpt>
      <trkpt lat="44.83511" lon="5.3462">
        <ele>1358.96</ele>
        <time>2014-09-05T09:39:39Z</time>
      </trkpt>
      <trkpt lat="44.83503" lon="5.34604">
        <ele>1359.92</ele>
        <time>2014-09-05T09:39:47Z</time>
      </trkpt>
      <trkpt lat="44.83502" lon="5.34592">
        <ele>1360.88</ele>
        <time>2014-09-05T09:39:53Z</time>
      </trkpt>
      <trkpt lat="44.83495" lon="5.34582">
        <ele>1352.23</ele>
        <time>2014-09-05T09:40:02Z</time>
      </trkpt>
      <trkpt lat="44.83495" lon="5.34582">
        <ele>1355.12</ele>
        <time>2014-09-05T09:40:03Z</time>
      </trkpt>
      <trkpt lat="44.83494" lon="5.34582">
        <ele>1364.73</ele>
        <time>2014-09-05T09:40:04Z</time>
      </trkpt>
      <trkpt lat="44.83494" lon="5.34583">
        <ele>1377.71</ele>
        <time>2014-09-05T09:40:05Z</time>
      </trkpt>
      <trkpt lat="44.83494" lon="5.34583">
        <ele>1361.84</ele>
        <time>2014-09-05T09:40:06Z</time>
      </trkpt>
      <trkpt lat="44.83494" lon="5.34583">
        <ele>1362.33</ele>
        <time>2014-09-05T09:40:07Z</time>
      </trkpt>
      <trkpt lat="44.83494" lon="5.34583">
        <ele>1353.67</ele>
        <time>2014-09-05T09:40:08Z</time>
      </trkpt>
      <trkpt lat="44.83494" lon="5.34583">
        <ele>1367.13</ele>
        <time>2014-09-05T09:40:09Z</time>
      </trkpt>
      <trkpt lat="44.83494" lon="5.34583">
        <ele>1351.27</ele>
        <time>2014-09-05T09:40:10Z</time>
      </trkpt>
      <trkpt lat="44.83494" lon="5.34583">
        <ele>1364.73</ele>
        <time>2014-09-05T09:40:11Z</time>
      </trkpt>
      <trkpt lat="44.83495" lon="5.34583">
        <ele>1361.84</ele>
        <time>2014-09-05T09:40:12Z</time>
      </trkpt>
      <trkpt lat="44.83494" lon="5.34583">
        <ele>1375.78</ele>
        <time>2014-09-05T09:40:13Z</time>
      </trkpt>
      <trkpt lat="44.83494" lon="5.34583">
        <ele>1362.81</ele>
        <time>2014-09-05T09:40:14Z</time>
      </trkpt>
      <trkpt lat="44.83494" lon="5.34583">
        <ele>1353.19</ele>
        <time>2014-09-05T09:40:18Z</time>
      </trkpt>
      <trkpt lat="44.83495" lon="5.34583">
        <ele>1363.77</ele>
        <time>2014-09-05T09:40:19Z</time>
      </trkpt>
      <trkpt lat="44.83494" lon="5.34583">
        <ele>1359.92</ele>
        <time>2014-09-05T09:40:20Z</time>
      </trkpt>
      <trkpt lat="44.83494" lon="5.34583">
        <ele>1362.33</ele>
        <time>2014-09-05T09:40:21Z</time>
      </trkpt>
      <trkpt lat="44.83491" lon="5.34581">
        <ele>1363.29</ele>
        <time>2014-09-05T09:40:30Z</time>
      </trkpt>
      <trkpt lat="44.83487" lon="5.34581">
        <ele>1364.25</ele>
        <time>2014-09-05T09:40:38Z</time>
      </trkpt>
      <trkpt lat="44.83486" lon="5.34581">
        <ele>1365.69</ele>
        <time>2014-09-05T09:40:46Z</time>
      </trkpt>
      <trkpt lat="44.83481" lon="5.34577">
        <ele>1367.61</ele>
        <time>2014-09-05T09:40:57Z</time>
      </trkpt>
      <trkpt lat="44.83474" lon="5.34575">
        <ele>1369.54</ele>
        <time>2014-09-05T09:41:03Z</time>
      </trkpt>
      <trkpt lat="44.83474" lon="5.34575">
        <ele>1370.98</ele>
        <time>2014-09-05T09:41:12Z</time>
      </trkpt>
      <trkpt lat="44.83474" lon="5.34575">
        <ele>1371.94</ele>
        <time>2014-09-05T09:41:13Z</time>
      </trkpt>
      <trkpt lat="44.83472" lon="5.34574">
        <ele>1372.42</ele>
        <time>2014-09-05T09:41:24Z</time>
      </trkpt>
      <trkpt lat="44.83468" lon="5.34571">
        <ele>1374.34</ele>
        <time>2014-09-05T09:41:33Z</time>
      </trkpt>
      <trkpt lat="44.83467" lon="5.34571">
        <ele>1376.26</ele>
        <time>2014-09-05T09:41:44Z</time>
      </trkpt>
      <trkpt lat="44.83467" lon="5.34571">
        <ele>1377.23</ele>
        <time>2014-09-05T09:41:54Z</time>
      </trkpt>
      <trkpt lat="44.83467" lon="5.34571">
        <ele>1377.23</ele>
        <time>2014-09-05T09:42:10Z</time>
      </trkpt>
      <trkpt lat="44.83461" lon="5.3457">
        <ele>1379.15</ele>
        <time>2014-09-05T09:42:19Z</time>
      </trkpt>
      <trkpt lat="44.83461" lon="5.3457">
        <ele>1380.59</ele>
        <time>2014-09-05T09:42:29Z</time>
      </trkpt>
      <trkpt lat="44.83454" lon="5.34567">
        <ele>1382.51</ele>
        <time>2014-09-05T09:42:38Z</time>
      </trkpt>
      <trkpt lat="44.83448" lon="5.34565">
        <ele>1383.96</ele>
        <time>2014-09-05T09:42:49Z</time>
      </trkpt>
      <trkpt lat="44.83447" lon="5.34565">
        <ele>1384.44</ele>
        <time>2014-09-05T09:43:01Z</time>
      </trkpt>
      <trkpt lat="44.83447" lon="5.34565">
        <ele>1381.07</ele>
        <time>2014-09-05T09:43:03Z</time>
      </trkpt>
      <trkpt lat="44.83447" lon="5.34565">
        <ele>1384.44</ele>
        <time>2014-09-05T09:43:04Z</time>
      </trkpt>
      <trkpt lat="44.83436" lon="5.34561">
        <ele>1385.88</ele>
        <time>2014-09-05T09:43:16Z</time>
      </trkpt>
      <trkpt lat="44.83431" lon="5.34559">
        <ele>1387.8</ele>
        <time>2014-09-05T09:43:25Z</time>
      </trkpt>
      <trkpt lat="44.83421" lon="5.34557">
        <ele>1389.72</ele>
        <time>2014-09-05T09:43:35Z</time>
      </trkpt>
      <trkpt lat="44.83416" lon="5.34555">
        <ele>1391.17</ele>
        <time>2014-09-05T09:43:43Z</time>
      </trkpt>
      <trkpt lat="44.83409" lon="5.34551">
        <ele>1391.65</ele>
        <time>2014-09-05T09:43:51Z</time>
      </trkpt>
      <trkpt lat="44.83406" lon="5.3455">
        <ele>1393.57</ele>
        <time>2014-09-05T09:44:00Z</time>
      </trkpt>
      <trkpt lat="44.83395" lon="5.34547">
        <ele>1394.05</ele>
        <time>2014-09-05T09:44:09Z</time>
      </trkpt>
      <trkpt lat="44.83378" lon="5.34542">
        <ele>1395.01</ele>
        <time>2014-09-05T09:44:16Z</time>
      </trkpt>
      <trkpt lat="44.83366" lon="5.34539">
        <ele>1397.41</ele>
        <time>2014-09-05T09:44:26Z</time>
      </trkpt>
      <trkpt lat="44.8336" lon="5.34536">
        <ele>1398.37</ele>
        <time>2014-09-05T09:44:35Z</time>
      </trkpt>
      <trkpt lat="44.83355" lon="5.34535">
        <ele>1399.34</ele>
        <time>2014-09-05T09:44:43Z</time>
      </trkpt>
      <trkpt lat="44.83347" lon="5.34534">
        <ele>1400.78</ele>
        <time>2014-09-05T09:44:53Z</time>
      </trkpt>
      <trkpt lat="44.83339" lon="5.34532">
        <ele>1402.22</ele>
        <time>2014-09-05T09:45:02Z</time>
      </trkpt>
      <trkpt lat="44.83331" lon="5.34528">
        <ele>1403.18</ele>
        <time>2014-09-05T09:45:12Z</time>
      </trkpt>
      <trkpt lat="44.83321" lon="5.34522">
        <ele>1404.62</ele>
        <time>2014-09-05T09:45:21Z</time>
      </trkpt>
      <trkpt lat="44.83317" lon="5.3452">
        <ele>1405.1</ele>
        <time>2014-09-05T09:45:31Z</time>
      </trkpt>
      <trkpt lat="44.83316" lon="5.34518">
        <ele>1406.55</ele>
        <time>2014-09-05T09:45:37Z</time>
      </trkpt>
      <trkpt lat="44.83314" lon="5.34511">
        <ele>1407.51</ele>
        <time>2014-09-05T09:45:46Z</time>
      </trkpt>
      <trkpt lat="44.83313" lon="5.34502">
        <ele>1408.47</ele>
        <time>2014-09-05T09:45:54Z</time>
      </trkpt>
      <trkpt lat="44.8331" lon="5.34496">
        <ele>1409.91</ele>
        <time>2014-09-05T09:46:09Z</time>
      </trkpt>
      <trkpt lat="44.83305" lon="5.34493">
        <ele>1411.83</ele>
        <time>2014-09-05T09:46:19Z</time>
      </trkpt>
      <trkpt lat="44.83303" lon="5.34491">
        <ele>1413.76</ele>
        <time>2014-09-05T09:46:29Z</time>
      </trkpt>
      <trkpt lat="44.83293" lon="5.34485">
        <ele>1415.68</ele>
        <time>2014-09-05T09:46:39Z</time>
      </trkpt>
      <trkpt lat="44.83285" lon="5.34485">
        <ele>1415.68</ele>
        <time>2014-09-05T09:46:45Z</time>
      </trkpt>
      <trkpt lat="44.83275" lon="5.34487">
        <ele>1416.64</ele>
        <time>2014-09-05T09:46:53Z</time>
      </trkpt>
      <trkpt lat="44.83263" lon="5.3449">
        <ele>1417.6</ele>
        <time>2014-09-05T09:47:02Z</time>
      </trkpt>
      <trkpt lat="44.8326" lon="5.34492">
        <ele>1418.08</ele>
        <time>2014-09-05T09:47:05Z</time>
      </trkpt>
      <trkpt lat="44.83252" lon="5.345">
        <ele>1419.04</ele>
        <time>2014-09-05T09:47:13Z</time>
      </trkpt>
      <trkpt lat="44.83245" lon="5.34502">
        <ele>1419.04</ele>
        <time>2014-09-05T09:47:24Z</time>
      </trkpt>
      <trkpt lat="44.83243" lon="5.345">
        <ele>1418.56</ele>
        <time>2014-09-05T09:47:28Z</time>
      </trkpt>
      <trkpt lat="44.8324" lon="5.34497">
        <ele>1418.08</ele>
        <time>2014-09-05T09:47:38Z</time>
      </trkpt>
      <trkpt lat="44.8324" lon="5.34497">
        <ele>1418.08</ele>
        <time>2014-09-05T09:47:56Z</time>
      </trkpt>
      <trkpt lat="44.83241" lon="5.34498">
        <ele>1418.08</ele>
        <time>2014-09-05T09:48:15Z</time>
      </trkpt>
      <trkpt lat="44.83242" lon="5.3449">
        <ele>1420</ele>
        <time>2014-09-05T09:48:22Z</time>
      </trkpt>
      <trkpt lat="44.8324" lon="5.34481">
        <ele>1420.97</ele>
        <time>2014-09-05T09:48:29Z</time>
      </trkpt>
      <trkpt lat="44.83239" lon="5.34478">
        <ele>1421.45</ele>
        <time>2014-09-05T09:48:32Z</time>
      </trkpt>
      <trkpt lat="44.83237" lon="5.34469">
        <ele>1422.89</ele>
        <time>2014-09-05T09:48:38Z</time>
      </trkpt>
      <trkpt lat="44.83234" lon="5.34466">
        <ele>1423.37</ele>
        <time>2014-09-05T09:48:41Z</time>
      </trkpt>
      <trkpt lat="44.83226" lon="5.34459">
        <ele>1424.81</ele>
        <time>2014-09-05T09:48:51Z</time>
      </trkpt>
      <trkpt lat="44.83229" lon="5.3445">
        <ele>1426.25</ele>
        <time>2014-09-05T09:49:00Z</time>
      </trkpt>
      <trkpt lat="44.83231" lon="5.34446">
        <ele>1427.21</ele>
        <time>2014-09-05T09:49:06Z</time>
      </trkpt>
      <trkpt lat="44.83231" lon="5.34446">
        <ele>1426.25</ele>
        <time>2014-09-05T09:49:19Z</time>
      </trkpt>
      <trkpt lat="44.83231" lon="5.34446">
        <ele>1426.73</ele>
        <time>2014-09-05T09:49:44Z</time>
      </trkpt>
      <trkpt lat="44.83231" lon="5.34446">
        <ele>1426.25</ele>
        <time>2014-09-05T09:50:14Z</time>
      </trkpt>
      <trkpt lat="44.83231" lon="5.34446">
        <ele>1426.25</ele>
        <time>2014-09-05T09:50:43Z</time>
      </trkpt>
      <trkpt lat="44.8323" lon="5.34446">
        <ele>1425.77</ele>
        <time>2014-09-05T09:51:12Z</time>
      </trkpt>
      <trkpt lat="44.8323" lon="5.34446">
        <ele>1426.25</ele>
        <time>2014-09-05T09:51:44Z</time>
      </trkpt>
      <trkpt lat="44.83229" lon="5.34446">
        <ele>1426.73</ele>
        <time>2014-09-05T09:52:09Z</time>
      </trkpt>
      <trkpt lat="44.83228" lon="5.34446">
        <ele>1426.25</ele>
        <time>2014-09-05T09:52:34Z</time>
      </trkpt>
      <trkpt lat="44.83228" lon="5.34446">
        <ele>1426.73</ele>
        <time>2014-09-05T09:52:56Z</time>
      </trkpt>
      <trkpt lat="44.83228" lon="5.34446">
        <ele>1426.73</ele>
        <time>2014-09-05T09:53:22Z</time>
      </trkpt>
      <trkpt lat="44.83228" lon="5.34446">
        <ele>1426.25</ele>
        <time>2014-09-05T09:53:44Z</time>
      </trkpt>
      <trkpt lat="44.83228" lon="5.34445">
        <ele>1426.73</ele>
        <time>2014-09-05T09:54:04Z</time>
      </trkpt>
      <trkpt lat="44.83228" lon="5.34445">
        <ele>1427.21</ele>
        <time>2014-09-05T09:54:30Z</time>
      </trkpt>
      <trkpt lat="44.83228" lon="5.34445">
        <ele>1427.21</ele>
        <time>2014-09-05T09:54:54Z</time>
      </trkpt>
      <trkpt lat="44.83226" lon="5.34446">
        <ele>1426.73</ele>
        <time>2014-09-05T09:55:20Z</time>
      </trkpt>
      <trkpt lat="44.83226" lon="5.34446">
        <ele>1427.7</ele>
        <time>2014-09-05T09:55:43Z</time>
      </trkpt>
      <trkpt lat="44.83226" lon="5.34446">
        <ele>1427.21</ele>
        <time>2014-09-05T09:56:07Z</time>
      </trkpt>
      <trkpt lat="44.83226" lon="5.34446">
        <ele>1426.73</ele>
        <time>2014-09-05T09:56:35Z</time>
      </trkpt>
      <trkpt lat="44.83226" lon="5.34446">
        <ele>1427.21</ele>
        <time>2014-09-05T09:57:01Z</time>
      </trkpt>
      <trkpt lat="44.83225" lon="5.34446">
        <ele>1427.7</ele>
        <time>2014-09-05T09:57:32Z</time>
      </trkpt>
      <trkpt lat="44.83225" lon="5.34446">
        <ele>1427.7</ele>
        <time>2014-09-05T09:57:59Z</time>
      </trkpt>
      <trkpt lat="44.83225" lon="5.34446">
        <ele>1427.7</ele>
        <time>2014-09-05T09:58:25Z</time>
      </trkpt>
      <trkpt lat="44.83225" lon="5.34446">
        <ele>1427.7</ele>
        <time>2014-09-05T09:58:51Z</time>
      </trkpt>
      <trkpt lat="44.83225" lon="5.34446">
        <ele>1427.7</ele>
        <time>2014-09-05T09:59:23Z</time>
      </trkpt>
      <trkpt lat="44.83225" lon="5.34446">
        <ele>1428.18</ele>
        <time>2014-09-05T09:59:50Z</time>
      </trkpt>
      <trkpt lat="44.83225" lon="5.34446">
        <ele>1428.18</ele>
        <time>2014-09-05T10:00:12Z</time>
      </trkpt>
      <trkpt lat="44.83225" lon="5.34446">
        <ele>1428.18</ele>
        <time>2014-09-05T10:00:33Z</time>
      </trkpt>
      <trkpt lat="44.83225" lon="5.34446">
        <ele>1428.18</ele>
        <time>2014-09-05T10:00:56Z</time>
      </trkpt>
      <trkpt lat="44.83225" lon="5.34447">
        <ele>1427.7</ele>
        <time>2014-09-05T10:01:06Z</time>
      </trkpt>
      <trkpt lat="44.83225" lon="5.34447">
        <ele>1428.66</ele>
        <time>2014-09-05T10:01:19Z</time>
      </trkpt>
      <trkpt lat="44.83225" lon="5.34447">
        <ele>1428.18</ele>
        <time>2014-09-05T10:01:24Z</time>
      </trkpt>
      <trkpt lat="44.83226" lon="5.34451">
        <ele>1427.7</ele>
        <time>2014-09-05T10:01:26Z</time>
      </trkpt>
      <trkpt lat="44.83226" lon="5.34456">
        <ele>1427.21</ele>
        <time>2014-09-05T10:01:29Z</time>
      </trkpt>
      <trkpt lat="44.83226" lon="5.34474">
        <ele>1424.33</ele>
        <time>2014-09-05T10:01:40Z</time>
      </trkpt>
      <trkpt lat="44.83232" lon="5.34492">
        <ele>1421.93</ele>
        <time>2014-09-05T10:01:52Z</time>
      </trkpt>
      <trkpt lat="44.83231" lon="5.34497">
        <ele>1420.97</ele>
        <time>2014-09-05T10:01:56Z</time>
      </trkpt>
      <trkpt lat="44.8323" lon="5.34503">
        <ele>1420.97</ele>
        <time>2014-09-05T10:02:00Z</time>
      </trkpt>
      <trkpt lat="44.83226" lon="5.34503">
        <ele>1419.52</ele>
        <time>2014-09-05T10:02:03Z</time>
      </trkpt>
      <trkpt lat="44.83214" lon="5.34499">
        <ele>1417.12</ele>
        <time>2014-09-05T10:02:16Z</time>
      </trkpt>
      <trkpt lat="44.83207" lon="5.34496">
        <ele>1416.16</ele>
        <time>2014-09-05T10:02:26Z</time>
      </trkpt>
      <trkpt lat="44.83205" lon="5.34498">
        <ele>1414.72</ele>
        <time>2014-09-05T10:02:36Z</time>
      </trkpt>
      <trkpt lat="44.83205" lon="5.34501">
        <ele>1412.31</ele>
        <time>2014-09-05T10:02:46Z</time>
      </trkpt>
      <trkpt lat="44.83202" lon="5.345">
        <ele>1411.35</ele>
        <time>2014-09-05T10:02:51Z</time>
      </trkpt>
      <trkpt lat="44.83201" lon="5.34499">
        <ele>1410.87</ele>
        <time>2014-09-05T10:02:53Z</time>
      </trkpt>
      <trkpt lat="44.83197" lon="5.34503">
        <ele>1408.47</ele>
        <time>2014-09-05T10:03:03Z</time>
      </trkpt>
      <trkpt lat="44.83197" lon="5.34503">
        <ele>1407.99</ele>
        <time>2014-09-05T10:03:24Z</time>
      </trkpt>
      <trkpt lat="44.83196" lon="5.34506">
        <ele>1407.03</ele>
        <time>2014-09-05T10:03:32Z</time>
      </trkpt>
      <trkpt lat="44.8319" lon="5.34512">
        <ele>1405.58</ele>
        <time>2014-09-05T10:03:41Z</time>
      </trkpt>
      <trkpt lat="44.83186" lon="5.34507">
        <ele>1403.18</ele>
        <time>2014-09-05T10:03:51Z</time>
      </trkpt>
      <trkpt lat="44.83184" lon="5.34502">
        <ele>1400.78</ele>
        <time>2014-09-05T10:03:56Z</time>
      </trkpt>
      <trkpt lat="44.83178" lon="5.34496">
        <ele>1398.37</ele>
        <time>2014-09-05T10:04:04Z</time>
      </trkpt>
      <trkpt lat="44.83176" lon="5.3449">
        <ele>1396.45</ele>
        <time>2014-09-05T10:04:11Z</time>
      </trkpt>
      <trkpt lat="44.83171" lon="5.34481">
        <ele>1393.57</ele>
        <time>2014-09-05T10:04:20Z</time>
      </trkpt>
      <trkpt lat="44.83168" lon="5.34476">
        <ele>1392.13</ele>
        <time>2014-09-05T10:04:26Z</time>
      </trkpt>
      <trkpt lat="44.83164" lon="5.34466">
        <ele>1389.72</ele>
        <time>2014-09-05T10:04:36Z</time>
      </trkpt>
      <trkpt lat="44.83161" lon="5.3446">
        <ele>1387.8</ele>
        <time>2014-09-05T10:04:50Z</time>
      </trkpt>
      <trkpt lat="44.83161" lon="5.3446">
        <ele>1388.76</ele>
        <time>2014-09-05T10:05:12Z</time>
      </trkpt>
      <trkpt lat="44.8316" lon="5.34456">
        <ele>1387.8</ele>
        <time>2014-09-05T10:05:34Z</time>
      </trkpt>
      <trkpt lat="44.83157" lon="5.34447">
        <ele>1385.88</ele>
        <time>2014-09-05T10:05:43Z</time>
      </trkpt>
      <trkpt lat="44.83155" lon="5.3444">
        <ele>1384.44</ele>
        <time>2014-09-05T10:05:50Z</time>
      </trkpt>
      <trkpt lat="44.83153" lon="5.34436">
        <ele>1383.47</ele>
        <time>2014-09-05T10:05:53Z</time>
      </trkpt>
      <trkpt lat="44.83151" lon="5.34431">
        <ele>1382.51</ele>
        <time>2014-09-05T10:06:03Z</time>
      </trkpt>
      <trkpt lat="44.83149" lon="5.34427">
        <ele>1381.07</ele>
        <time>2014-09-05T10:06:12Z</time>
      </trkpt>
      <trkpt lat="44.83145" lon="5.3442">
        <ele>1379.15</ele>
        <time>2014-09-05T10:06:23Z</time>
      </trkpt>
      <trkpt lat="44.83145" lon="5.3442">
        <ele>1377.71</ele>
        <time>2014-09-05T10:06:37Z</time>
      </trkpt>
      <trkpt lat="44.83145" lon="5.34418">
        <ele>1375.78</ele>
        <time>2014-09-05T10:06:48Z</time>
      </trkpt>
      <trkpt lat="44.8314" lon="5.34413">
        <ele>1373.86</ele>
        <time>2014-09-05T10:06:59Z</time>
      </trkpt>
      <trkpt lat="44.83135" lon="5.3441">
        <ele>1371.46</ele>
        <time>2014-09-05T10:07:13Z</time>
      </trkpt>
      <trkpt lat="44.83134" lon="5.34406">
        <ele>1370.02</ele>
        <time>2014-09-05T10:07:25Z</time>
      </trkpt>
      <trkpt lat="44.83132" lon="5.34404">
        <ele>1368.57</ele>
        <time>2014-09-05T10:07:36Z</time>
      </trkpt>
      <trkpt lat="44.83124" lon="5.34393">
        <ele>1367.13</ele>
        <time>2014-09-05T10:07:47Z</time>
      </trkpt>
      <trkpt lat="44.8312" lon="5.34381">
        <ele>1365.21</ele>
        <time>2014-09-05T10:07:57Z</time>
      </trkpt>
      <trkpt lat="44.83115" lon="5.34363">
        <ele>1364.25</ele>
        <time>2014-09-05T10:08:07Z</time>
      </trkpt>
      <trkpt lat="44.83112" lon="5.34347">
        <ele>1363.29</ele>
        <time>2014-09-05T10:08:17Z</time>
      </trkpt>
      <trkpt lat="44.83109" lon="5.34338">
        <ele>1361.84</ele>
        <time>2014-09-05T10:08:27Z</time>
      </trkpt>
      <trkpt lat="44.83105" lon="5.34331">
        <ele>1359.44</ele>
        <time>2014-09-05T10:08:39Z</time>
      </trkpt>
      <trkpt lat="44.831" lon="5.34315">
        <ele>1358</ele>
        <time>2014-09-05T10:08:51Z</time>
      </trkpt>
      <trkpt lat="44.83096" lon="5.343">
        <ele>1357.04</ele>
        <time>2014-09-05T10:09:02Z</time>
      </trkpt>
      <trkpt lat="44.83094" lon="5.34294">
        <ele>1357.04</ele>
        <time>2014-09-05T10:09:22Z</time>
      </trkpt>
      <trkpt lat="44.8309" lon="5.34277">
        <ele>1354.63</ele>
        <time>2014-09-05T10:09:28Z</time>
      </trkpt>
      <trkpt lat="44.83089" lon="5.34259">
        <ele>1353.67</ele>
        <time>2014-09-05T10:09:34Z</time>
      </trkpt>
      <trkpt lat="44.83084" lon="5.34245">
        <ele>1350.31</ele>
        <time>2014-09-05T10:09:39Z</time>
      </trkpt>
      <trkpt lat="44.83082" lon="5.34242">
        <ele>1349.83</ele>
        <time>2014-09-05T10:09:40Z</time>
      </trkpt>
      <trkpt lat="44.83075" lon="5.34231">
        <ele>1347.43</ele>
        <time>2014-09-05T10:09:44Z</time>
      </trkpt>
      <trkpt lat="44.83074" lon="5.34227">
        <ele>1347.43</ele>
        <time>2014-09-05T10:09:45Z</time>
      </trkpt>
      <trkpt lat="44.83072" lon="5.34209">
        <ele>1346.46</ele>
        <time>2014-09-05T10:09:52Z</time>
      </trkpt>
      <trkpt lat="44.83059" lon="5.34194">
        <ele>1343.1</ele>
        <time>2014-09-05T10:09:58Z</time>
      </trkpt>
      <trkpt lat="44.83052" lon="5.34183">
        <ele>1341.66</ele>
        <time>2014-09-05T10:10:02Z</time>
      </trkpt>
      <trkpt lat="44.83047" lon="5.34173">
        <ele>1340.7</ele>
        <time>2014-09-05T10:10:04Z</time>
      </trkpt>
      <trkpt lat="44.83039" lon="5.34166">
        <ele>1338.29</ele>
        <time>2014-09-05T10:10:08Z</time>
      </trkpt>
      <trkpt lat="44.83035" lon="5.34162">
        <ele>1336.85</ele>
        <time>2014-09-05T10:10:11Z</time>
      </trkpt>
      <trkpt lat="44.83028" lon="5.34151">
        <ele>1335.89</ele>
        <time>2014-09-05T10:10:21Z</time>
      </trkpt>
      <trkpt lat="44.83023" lon="5.3414">
        <ele>1334.45</ele>
        <time>2014-09-05T10:10:29Z</time>
      </trkpt>
      <trkpt lat="44.83016" lon="5.34133">
        <ele>1332.52</ele>
        <time>2014-09-05T10:10:41Z</time>
      </trkpt>
      <trkpt lat="44.83009" lon="5.34129">
        <ele>1330.12</ele>
        <time>2014-09-05T10:10:52Z</time>
      </trkpt>
      <trkpt lat="44.83003" lon="5.34126">
        <ele>1327.72</ele>
        <time>2014-09-05T10:10:58Z</time>
      </trkpt>
      <trkpt lat="44.83001" lon="5.34125">
        <ele>1326.28</ele>
        <time>2014-09-05T10:11:02Z</time>
      </trkpt>
      <trkpt lat="44.82997" lon="5.34125">
        <ele>1325.31</ele>
        <time>2014-09-05T10:11:04Z</time>
      </trkpt>
      <trkpt lat="44.8299" lon="5.34121">
        <ele>1322.91</ele>
        <time>2014-09-05T10:11:12Z</time>
      </trkpt>
      <trkpt lat="44.82987" lon="5.34116">
        <ele>1321.47</ele>
        <time>2014-09-05T10:11:17Z</time>
      </trkpt>
      <trkpt lat="44.82985" lon="5.34113">
        <ele>1321.47</ele>
        <time>2014-09-05T10:11:19Z</time>
      </trkpt>
      <trkpt lat="44.82976" lon="5.34107">
        <ele>1317.62</ele>
        <time>2014-09-05T10:11:28Z</time>
      </trkpt>
      <trkpt lat="44.82974" lon="5.34106">
        <ele>1317.62</ele>
        <time>2014-09-05T10:11:30Z</time>
      </trkpt>
      <trkpt lat="44.82967" lon="5.341">
        <ele>1315.22</ele>
        <time>2014-09-05T10:11:40Z</time>
      </trkpt>
      <trkpt lat="44.8296" lon="5.34095">
        <ele>1313.3</ele>
        <time>2014-09-05T10:11:49Z</time>
      </trkpt>
      <trkpt lat="44.82955" lon="5.34092">
        <ele>1311.86</ele>
        <time>2014-09-05T10:11:56Z</time>
      </trkpt>
      <trkpt lat="44.82946" lon="5.34088">
        <ele>1308.01</ele>
        <time>2014-09-05T10:12:08Z</time>
      </trkpt>
      <trkpt lat="44.82941" lon="5.34086">
        <ele>1305.61</ele>
        <time>2014-09-05T10:12:17Z</time>
      </trkpt>
      <trkpt lat="44.82932" lon="5.34084">
        <ele>1303.2</ele>
        <time>2014-09-05T10:12:27Z</time>
      </trkpt>
      <trkpt lat="44.82927" lon="5.34083">
        <ele>1302.24</ele>
        <time>2014-09-05T10:12:32Z</time>
      </trkpt>
      <trkpt lat="44.82916" lon="5.34076">
        <ele>1299.84</ele>
        <time>2014-09-05T10:12:44Z</time>
      </trkpt>
      <trkpt lat="44.82906" lon="5.34076">
        <ele>1299.36</ele>
        <time>2014-09-05T10:12:53Z</time>
      </trkpt>
      <trkpt lat="44.82898" lon="5.3407">
        <ele>1298.4</ele>
        <time>2014-09-05T10:13:02Z</time>
      </trkpt>
      <trkpt lat="44.82897" lon="5.34073">
        <ele>1297.44</ele>
        <time>2014-09-05T10:13:09Z</time>
      </trkpt>
      <trkpt lat="44.82905" lon="5.34082">
        <ele>1295.51</ele>
        <time>2014-09-05T10:13:18Z</time>
      </trkpt>
      <trkpt lat="44.82905" lon="5.34087">
        <ele>1294.07</ele>
        <time>2014-09-05T10:13:27Z</time>
      </trkpt>
      <trkpt lat="44.82904" lon="5.34093">
        <ele>1292.15</ele>
        <time>2014-09-05T10:13:34Z</time>
      </trkpt>
      <trkpt lat="44.82898" lon="5.3409">
        <ele>1290.71</ele>
        <time>2014-09-05T10:13:41Z</time>
      </trkpt>
      <trkpt lat="44.82889" lon="5.3409">
        <ele>1288.3</ele>
        <time>2014-09-05T10:13:51Z</time>
      </trkpt>
      <trkpt lat="44.82882" lon="5.3409">
        <ele>1286.38</ele>
        <time>2014-09-05T10:14:00Z</time>
      </trkpt>
      <trkpt lat="44.82877" lon="5.34089">
        <ele>1283.98</ele>
        <time>2014-09-05T10:14:10Z</time>
      </trkpt>
      <trkpt lat="44.82877" lon="5.34089">
        <ele>1284.46</ele>
        <time>2014-09-05T10:14:29Z</time>
      </trkpt>
      <trkpt lat="44.82877" lon="5.34089">
        <ele>1284.46</ele>
        <time>2014-09-05T10:14:33Z</time>
      </trkpt>
      <trkpt lat="44.82869" lon="5.34081">
        <ele>1283.02</ele>
        <time>2014-09-05T10:14:44Z</time>
      </trkpt>
      <trkpt lat="44.82867" lon="5.34071">
        <ele>1281.09</ele>
        <time>2014-09-05T10:14:54Z</time>
      </trkpt>
      <trkpt lat="44.82864" lon="5.34061">
        <ele>1278.69</ele>
        <time>2014-09-05T10:15:05Z</time>
      </trkpt>
      <trkpt lat="44.82863" lon="5.34054">
        <ele>1277.25</ele>
        <time>2014-09-05T10:15:11Z</time>
      </trkpt>
      <trkpt lat="44.82865" lon="5.34037">
        <ele>1276.77</ele>
        <time>2014-09-05T10:15:23Z</time>
      </trkpt>
      <trkpt lat="44.82865" lon="5.34037">
        <ele>1277.25</ele>
        <time>2014-09-05T10:15:25Z</time>
      </trkpt>
      <trkpt lat="44.82863" lon="5.34032">
        <ele>1275.81</ele>
        <time>2014-09-05T10:15:30Z</time>
      </trkpt>
      <trkpt lat="44.82859" lon="5.34029">
        <ele>1275.33</ele>
        <time>2014-09-05T10:15:34Z</time>
      </trkpt>
      <trkpt lat="44.82848" lon="5.34026">
        <ele>1272.92</ele>
        <time>2014-09-05T10:15:45Z</time>
      </trkpt>
      <trkpt lat="44.82845" lon="5.34026">
        <ele>1271.48</ele>
        <time>2014-09-05T10:15:48Z</time>
      </trkpt>
      <trkpt lat="44.82835" lon="5.34024">
        <ele>1269.08</ele>
        <time>2014-09-05T10:15:57Z</time>
      </trkpt>
      <trkpt lat="44.82822" lon="5.34021">
        <ele>1265.71</ele>
        <time>2014-09-05T10:16:10Z</time>
      </trkpt>
      <trkpt lat="44.82815" lon="5.34019">
        <ele>1263.79</ele>
        <time>2014-09-05T10:16:19Z</time>
      </trkpt>
      <trkpt lat="44.82807" lon="5.34017">
        <ele>1261.87</ele>
        <time>2014-09-05T10:16:29Z</time>
      </trkpt>
      <trkpt lat="44.82798" lon="5.34014">
        <ele>1259.94</ele>
        <time>2014-09-05T10:16:38Z</time>
      </trkpt>
      <trkpt lat="44.82789" lon="5.3401">
        <ele>1257.54</ele>
        <time>2014-09-05T10:16:48Z</time>
      </trkpt>
      <trkpt lat="44.82789" lon="5.3401">
        <ele>1257.54</ele>
        <time>2014-09-05T10:16:49Z</time>
      </trkpt>
      <trkpt lat="44.8278" lon="5.34009">
        <ele>1255.62</ele>
        <time>2014-09-05T10:16:59Z</time>
      </trkpt>
      <trkpt lat="44.82777" lon="5.34009">
        <ele>1255.14</ele>
        <time>2014-09-05T10:17:02Z</time>
      </trkpt>
      <trkpt lat="44.82765" lon="5.34006">
        <ele>1252.25</ele>
        <time>2014-09-05T10:17:13Z</time>
      </trkpt>
      <trkpt lat="44.82761" lon="5.34004">
        <ele>1251.29</ele>
        <time>2014-09-05T10:17:18Z</time>
      </trkpt>
      <trkpt lat="44.82753" lon="5.34003">
        <ele>1249.85</ele>
        <time>2014-09-05T10:17:28Z</time>
      </trkpt>
      <trkpt lat="44.82748" lon="5.34003">
        <ele>1248.41</ele>
        <time>2014-09-05T10:17:33Z</time>
      </trkpt>
      <trkpt lat="44.82736" lon="5.33998">
        <ele>1246.97</ele>
        <time>2014-09-05T10:17:44Z</time>
      </trkpt>
      <trkpt lat="44.82723" lon="5.33988">
        <ele>1246.01</ele>
        <time>2014-09-05T10:17:56Z</time>
      </trkpt>
      <trkpt lat="44.8272" lon="5.33979">
        <ele>1245.04</ele>
        <time>2014-09-05T10:18:02Z</time>
      </trkpt>
      <trkpt lat="44.82719" lon="5.3397">
        <ele>1244.08</ele>
        <time>2014-09-05T10:18:15Z</time>
      </trkpt>
      <trkpt lat="44.82719" lon="5.33968">
        <ele>1244.56</ele>
        <time>2014-09-05T10:18:36Z</time>
      </trkpt>
      <trkpt lat="44.82722" lon="5.33957">
        <ele>1243.6</ele>
        <time>2014-09-05T10:18:46Z</time>
      </trkpt>
      <trkpt lat="44.82722" lon="5.33956">
        <ele>1243.6</ele>
        <time>2014-09-05T10:19:04Z</time>
      </trkpt>
      <trkpt lat="44.82723" lon="5.33947">
        <ele>1245.04</ele>
        <time>2014-09-05T10:19:13Z</time>
      </trkpt>
      <trkpt lat="44.82723" lon="5.33943">
        <ele>1244.08</ele>
        <time>2014-09-05T10:19:25Z</time>
      </trkpt>
      <trkpt lat="44.82724" lon="5.3394">
        <ele>1243.6</ele>
        <time>2014-09-05T10:19:27Z</time>
      </trkpt>
      <trkpt lat="44.82722" lon="5.33932">
        <ele>1243.6</ele>
        <time>2014-09-05T10:19:31Z</time>
      </trkpt>
      <trkpt lat="44.8272" lon="5.33931">
        <ele>1243.6</ele>
        <time>2014-09-05T10:19:42Z</time>
      </trkpt>
      <trkpt lat="44.82718" lon="5.33931">
        <ele>1243.12</ele>
        <time>2014-09-05T10:19:58Z</time>
      </trkpt>
      <trkpt lat="44.82718" lon="5.33931">
        <ele>1243.12</ele>
        <time>2014-09-05T10:20:17Z</time>
      </trkpt>
      <trkpt lat="44.82719" lon="5.3393">
        <ele>1243.6</ele>
        <time>2014-09-05T10:20:25Z</time>
      </trkpt>
      <trkpt lat="44.82718" lon="5.33929">
        <ele>1244.08</ele>
        <time>2014-09-05T10:20:26Z</time>
      </trkpt>
      <trkpt lat="44.82706" lon="5.33931">
        <ele>1241.2</ele>
        <time>2014-09-05T10:20:37Z</time>
      </trkpt>
      <trkpt lat="44.82694" lon="5.33935">
        <ele>1238.8</ele>
        <time>2014-09-05T10:20:49Z</time>
      </trkpt>
      <trkpt lat="44.82687" lon="5.33936">
        <ele>1237.35</ele>
        <time>2014-09-05T10:20:59Z</time>
      </trkpt>
      <trkpt lat="44.82682" lon="5.33937">
        <ele>1235.43</ele>
        <time>2014-09-05T10:21:09Z</time>
      </trkpt>
      <trkpt lat="44.82674" lon="5.33936">
        <ele>1232.55</ele>
        <time>2014-09-05T10:21:17Z</time>
      </trkpt>
      <trkpt lat="44.82671" lon="5.33935">
        <ele>1232.07</ele>
        <time>2014-09-05T10:21:20Z</time>
      </trkpt>
      <trkpt lat="44.82661" lon="5.33935">
        <ele>1229.66</ele>
        <time>2014-09-05T10:21:29Z</time>
      </trkpt>
      <trkpt lat="44.82657" lon="5.33933">
        <ele>1228.7</ele>
        <time>2014-09-05T10:21:34Z</time>
      </trkpt>
      <trkpt lat="44.8265" lon="5.33929">
        <ele>1224.86</ele>
        <time>2014-09-05T10:21:44Z</time>
      </trkpt>
      <trkpt lat="44.82644" lon="5.33928">
        <ele>1223.42</ele>
        <time>2014-09-05T10:21:51Z</time>
      </trkpt>
      <trkpt lat="44.82637" lon="5.33927">
        <ele>1221.49</ele>
        <time>2014-09-05T10:21:58Z</time>
      </trkpt>
      <trkpt lat="44.82632" lon="5.33927">
        <ele>1220.53</ele>
        <time>2014-09-05T10:22:01Z</time>
      </trkpt>
      <trkpt lat="44.82623" lon="5.33925">
        <ele>1218.13</ele>
        <time>2014-09-05T10:22:10Z</time>
      </trkpt>
      <trkpt lat="44.82621" lon="5.33923">
        <ele>1214.76</ele>
        <time>2014-09-05T10:22:17Z</time>
      </trkpt>
      <trkpt lat="44.82621" lon="5.33923">
        <ele>1221.01</ele>
        <time>2014-09-05T10:22:18Z</time>
      </trkpt>
      <trkpt lat="44.82621" lon="5.33923">
        <ele>1215.24</ele>
        <time>2014-09-05T10:22:19Z</time>
      </trkpt>
      <trkpt lat="44.82621" lon="5.33923">
        <ele>1224.38</ele>
        <time>2014-09-05T10:22:20Z</time>
      </trkpt>
      <trkpt lat="44.82621" lon="5.33923">
        <ele>1220.53</ele>
        <time>2014-09-05T10:22:21Z</time>
      </trkpt>
      <trkpt lat="44.82621" lon="5.33923">
        <ele>1224.38</ele>
        <time>2014-09-05T10:22:22Z</time>
      </trkpt>
      <trkpt lat="44.82621" lon="5.33923">
        <ele>1218.13</ele>
        <time>2014-09-05T10:22:24Z</time>
      </trkpt>
      <trkpt lat="44.82621" lon="5.33923">
        <ele>1219.57</ele>
        <time>2014-09-05T10:22:25Z</time>
      </trkpt>
      <trkpt lat="44.82616" lon="5.33922">
        <ele>1216.69</ele>
        <time>2014-09-05T10:22:31Z</time>
      </trkpt>
      <trkpt lat="44.82608" lon="5.33915">
        <ele>1214.76</ele>
        <time>2014-09-05T10:22:40Z</time>
      </trkpt>
      <trkpt lat="44.82601" lon="5.33911">
        <ele>1213.32</ele>
        <time>2014-09-05T10:22:46Z</time>
      </trkpt>
      <trkpt lat="44.82584" lon="5.33911">
        <ele>1209.96</ele>
        <time>2014-09-05T10:22:58Z</time>
      </trkpt>
      <trkpt lat="44.82576" lon="5.33909">
        <ele>1208.03</ele>
        <time>2014-09-05T10:23:08Z</time>
      </trkpt>
      <trkpt lat="44.82569" lon="5.33908">
        <ele>1207.07</ele>
        <time>2014-09-05T10:23:12Z</time>
      </trkpt>
      <trkpt lat="44.82552" lon="5.33903">
        <ele>1203.23</ele>
        <time>2014-09-05T10:23:21Z</time>
      </trkpt>
      <trkpt lat="44.8255" lon="5.339">
        <ele>1202.27</ele>
        <time>2014-09-05T10:23:27Z</time>
      </trkpt>
      <trkpt lat="44.82538" lon="5.33888">
        <ele>1199.38</ele>
        <time>2014-09-05T10:23:35Z</time>
      </trkpt>
      <trkpt lat="44.82526" lon="5.33877">
        <ele>1197.46</ele>
        <time>2014-09-05T10:23:42Z</time>
      </trkpt>
      <trkpt lat="44.82519" lon="5.33871">
        <ele>1195.54</ele>
        <time>2014-09-05T10:23:51Z</time>
      </trkpt>
      <trkpt lat="44.82507" lon="5.33868">
        <ele>1192.65</ele>
        <time>2014-09-05T10:24:01Z</time>
      </trkpt>
      <trkpt lat="44.82506" lon="5.33868">
        <ele>1192.65</ele>
        <time>2014-09-05T10:24:03Z</time>
      </trkpt>
      <trkpt lat="44.82499" lon="5.33864">
        <ele>1190.73</ele>
        <time>2014-09-05T10:24:07Z</time>
      </trkpt>
      <trkpt lat="44.82491" lon="5.33858">
        <ele>1189.29</ele>
        <time>2014-09-05T10:24:13Z</time>
      </trkpt>
      <trkpt lat="44.82482" lon="5.33848">
        <ele>1187.37</ele>
        <time>2014-09-05T10:24:20Z</time>
      </trkpt>
      <trkpt lat="44.82478" lon="5.33841">
        <ele>1185.44</ele>
        <time>2014-09-05T10:24:29Z</time>
      </trkpt>
      <trkpt lat="44.82476" lon="5.33839">
        <ele>1185.44</ele>
        <time>2014-09-05T10:24:47Z</time>
      </trkpt>
      <trkpt lat="44.8247" lon="5.3383">
        <ele>1183.04</ele>
        <time>2014-09-05T10:24:57Z</time>
      </trkpt>
      <trkpt lat="44.82464" lon="5.33824">
        <ele>1180.64</ele>
        <time>2014-09-05T10:25:05Z</time>
      </trkpt>
      <trkpt lat="44.82461" lon="5.33821">
        <ele>1180.64</ele>
        <time>2014-09-05T10:25:17Z</time>
      </trkpt>
      <trkpt lat="44.82455" lon="5.33815">
        <ele>1178.71</ele>
        <time>2014-09-05T10:25:25Z</time>
      </trkpt>
      <trkpt lat="44.82449" lon="5.3381">
        <ele>1176.79</ele>
        <time>2014-09-05T10:25:35Z</time>
      </trkpt>
      <trkpt lat="44.82444" lon="5.33808">
        <ele>1173.91</ele>
        <time>2014-09-05T10:25:46Z</time>
      </trkpt>
      <trkpt lat="44.82439" lon="5.33803">
        <ele>1171.98</ele>
        <time>2014-09-05T10:25:55Z</time>
      </trkpt>
      <trkpt lat="44.82433" lon="5.33799">
        <ele>1169.1</ele>
        <time>2014-09-05T10:26:05Z</time>
      </trkpt>
      <trkpt lat="44.82429" lon="5.33794">
        <ele>1167.66</ele>
        <time>2014-09-05T10:26:17Z</time>
      </trkpt>
      <trkpt lat="44.82427" lon="5.33791">
        <ele>1166.22</ele>
        <time>2014-09-05T10:26:20Z</time>
      </trkpt>
      <trkpt lat="44.82425" lon="5.33786">
        <ele>1165.26</ele>
        <time>2014-09-05T10:26:24Z</time>
      </trkpt>
      <trkpt lat="44.82417" lon="5.3378">
        <ele>1162.85</ele>
        <time>2014-09-05T10:26:34Z</time>
      </trkpt>
      <trkpt lat="44.82409" lon="5.33777">
        <ele>1160.45</ele>
        <time>2014-09-05T10:26:45Z</time>
      </trkpt>
      <trkpt lat="44.82403" lon="5.33775">
        <ele>1158.05</ele>
        <time>2014-09-05T10:26:56Z</time>
      </trkpt>
      <trkpt lat="44.82394" lon="5.33773">
        <ele>1155.16</ele>
        <time>2014-09-05T10:27:08Z</time>
      </trkpt>
      <trkpt lat="44.82392" lon="5.33773">
        <ele>1154.2</ele>
        <time>2014-09-05T10:27:12Z</time>
      </trkpt>
      <trkpt lat="44.82385" lon="5.33769">
        <ele>1151.8</ele>
        <time>2014-09-05T10:27:22Z</time>
      </trkpt>
      <trkpt lat="44.82382" lon="5.33767">
        <ele>1148.91</ele>
        <time>2014-09-05T10:27:32Z</time>
      </trkpt>
      <trkpt lat="44.82382" lon="5.33767">
        <ele>1145.07</ele>
        <time>2014-09-05T10:27:33Z</time>
      </trkpt>
      <trkpt lat="44.82382" lon="5.33767">
        <ele>1147.47</ele>
        <time>2014-09-05T10:27:34Z</time>
      </trkpt>
      <trkpt lat="44.82382" lon="5.33767">
        <ele>1152.76</ele>
        <time>2014-09-05T10:27:35Z</time>
      </trkpt>
      <trkpt lat="44.82382" lon="5.33767">
        <ele>1147.47</ele>
        <time>2014-09-05T10:27:37Z</time>
      </trkpt>
      <trkpt lat="44.82382" lon="5.33767">
        <ele>1151.32</ele>
        <time>2014-09-05T10:27:38Z</time>
      </trkpt>
      <trkpt lat="44.82377" lon="5.33763">
        <ele>1147.95</ele>
        <time>2014-09-05T10:27:49Z</time>
      </trkpt>
      <trkpt lat="44.82371" lon="5.33758">
        <ele>1145.55</ele>
        <time>2014-09-05T10:27:59Z</time>
      </trkpt>
      <trkpt lat="44.82368" lon="5.33754">
        <ele>1144.59</ele>
        <time>2014-09-05T10:28:04Z</time>
      </trkpt>
      <trkpt lat="44.82362" lon="5.33747">
        <ele>1142.18</ele>
        <time>2014-09-05T10:28:14Z</time>
      </trkpt>
      <trkpt lat="44.82356" lon="5.33742">
        <ele>1140.26</ele>
        <time>2014-09-05T10:28:22Z</time>
      </trkpt>
      <trkpt lat="44.82351" lon="5.33731">
        <ele>1137.38</ele>
        <time>2014-09-05T10:28:34Z</time>
      </trkpt>
      <trkpt lat="44.82346" lon="5.33726">
        <ele>1135.45</ele>
        <time>2014-09-05T10:28:45Z</time>
      </trkpt>
      <trkpt lat="44.82344" lon="5.33724">
        <ele>1134.49</ele>
        <time>2014-09-05T10:28:52Z</time>
      </trkpt>
      <trkpt lat="44.82343" lon="5.33731">
        <ele>1132.09</ele>
        <time>2014-09-05T10:29:01Z</time>
      </trkpt>
      <trkpt lat="44.82341" lon="5.33732">
        <ele>1129.69</ele>
        <time>2014-09-05T10:29:11Z</time>
      </trkpt>
      <trkpt lat="44.82336" lon="5.33728">
        <ele>1127.28</ele>
        <time>2014-09-05T10:29:20Z</time>
      </trkpt>
      <trkpt lat="44.82332" lon="5.33725">
        <ele>1125.84</ele>
        <time>2014-09-05T10:29:26Z</time>
      </trkpt>
      <trkpt lat="44.8233" lon="5.33721">
        <ele>1123.92</ele>
        <time>2014-09-05T10:29:38Z</time>
      </trkpt>
      <trkpt lat="44.82324" lon="5.3372">
        <ele>1120.55</ele>
        <time>2014-09-05T10:29:49Z</time>
      </trkpt>
      <trkpt lat="44.82321" lon="5.33726">
        <ele>1118.63</ele>
        <time>2014-09-05T10:29:59Z</time>
      </trkpt>
      <trkpt lat="44.82317" lon="5.33729">
        <ele>1116.23</ele>
        <time>2014-09-05T10:30:08Z</time>
      </trkpt>
      <trkpt lat="44.82315" lon="5.33735">
        <ele>1113.34</ele>
        <time>2014-09-05T10:30:18Z</time>
      </trkpt>
      <trkpt lat="44.82314" lon="5.33745">
        <ele>1110.94</ele>
        <time>2014-09-05T10:30:28Z</time>
      </trkpt>
      <trkpt lat="44.82314" lon="5.33754">
        <ele>1108.54</ele>
        <time>2014-09-05T10:30:37Z</time>
      </trkpt>
      <trkpt lat="44.82312" lon="5.33764">
        <ele>1104.69</ele>
        <time>2014-09-05T10:30:50Z</time>
      </trkpt>
      <trkpt lat="44.82305" lon="5.33763">
        <ele>1102.29</ele>
        <time>2014-09-05T10:31:00Z</time>
      </trkpt>
      <trkpt lat="44.82301" lon="5.33767">
        <ele>1099.89</ele>
        <time>2014-09-05T10:31:09Z</time>
      </trkpt>
      <trkpt lat="44.82298" lon="5.33767">
        <ele>1097.96</ele>
        <time>2014-09-05T10:31:22Z</time>
      </trkpt>
      <trkpt lat="44.82296" lon="5.33765">
        <ele>1097</ele>
        <time>2014-09-05T10:31:25Z</time>
      </trkpt>
      <trkpt lat="44.82292" lon="5.33762">
        <ele>1095.08</ele>
        <time>2014-09-05T10:31:29Z</time>
      </trkpt>
      <trkpt lat="44.82288" lon="5.33759">
        <ele>1094.12</ele>
        <time>2014-09-05T10:31:34Z</time>
      </trkpt>
      <trkpt lat="44.8228" lon="5.33751">
        <ele>1090.75</ele>
        <time>2014-09-05T10:31:44Z</time>
      </trkpt>
      <trkpt lat="44.82276" lon="5.33761">
        <ele>1088.35</ele>
        <time>2014-09-05T10:31:53Z</time>
      </trkpt>
      <trkpt lat="44.82277" lon="5.33771">
        <ele>1085.95</ele>
        <time>2014-09-05T10:32:03Z</time>
      </trkpt>
      <trkpt lat="44.82276" lon="5.33771">
        <ele>1084.99</ele>
        <time>2014-09-05T10:32:10Z</time>
      </trkpt>
      <trkpt lat="44.82275" lon="5.3377">
        <ele>1084.5</ele>
        <time>2014-09-05T10:32:12Z</time>
      </trkpt>
      <trkpt lat="44.82267" lon="5.33757">
        <ele>1082.58</ele>
        <time>2014-09-05T10:32:17Z</time>
      </trkpt>
      <trkpt lat="44.82265" lon="5.33749">
        <ele>1082.58</ele>
        <time>2014-09-05T10:32:24Z</time>
      </trkpt>
      <trkpt lat="44.82264" lon="5.33747">
        <ele>1082.1</ele>
        <time>2014-09-05T10:32:32Z</time>
      </trkpt>
      <trkpt lat="44.82262" lon="5.33744">
        <ele>1080.66</ele>
        <time>2014-09-05T10:32:38Z</time>
      </trkpt>
      <trkpt lat="44.82257" lon="5.33752">
        <ele>1078.74</ele>
        <time>2014-09-05T10:32:47Z</time>
      </trkpt>
      <trkpt lat="44.82257" lon="5.33762">
        <ele>1075.85</ele>
        <time>2014-09-05T10:32:59Z</time>
      </trkpt>
      <trkpt lat="44.82259" lon="5.3377">
        <ele>1073.93</ele>
        <time>2014-09-05T10:33:14Z</time>
      </trkpt>
      <trkpt lat="44.8226" lon="5.33782">
        <ele>1071.53</ele>
        <time>2014-09-05T10:33:25Z</time>
      </trkpt>
      <trkpt lat="44.82254" lon="5.33781">
        <ele>1069.6</ele>
        <time>2014-09-05T10:33:36Z</time>
      </trkpt>
      <trkpt lat="44.8225" lon="5.33778">
        <ele>1066.72</ele>
        <time>2014-09-05T10:33:43Z</time>
      </trkpt>
      <trkpt lat="44.82243" lon="5.33771">
        <ele>1065.76</ele>
        <time>2014-09-05T10:33:53Z</time>
      </trkpt>
      <trkpt lat="44.82242" lon="5.33767">
        <ele>1065.76</ele>
        <time>2014-09-05T10:33:55Z</time>
      </trkpt>
      <trkpt lat="44.82245" lon="5.33745">
        <ele>1064.8</ele>
        <time>2014-09-05T10:34:04Z</time>
      </trkpt>
      <trkpt lat="44.82244" lon="5.33736">
        <ele>1064.8</ele>
        <time>2014-09-05T10:34:07Z</time>
      </trkpt>
      <trkpt lat="44.82244" lon="5.33719">
        <ele>1064.8</ele>
        <time>2014-09-05T10:34:13Z</time>
      </trkpt>
      <trkpt lat="44.82248" lon="5.33692">
        <ele>1063.84</ele>
        <time>2014-09-05T10:34:23Z</time>
      </trkpt>
      <trkpt lat="44.82248" lon="5.33686">
        <ele>1063.84</ele>
        <time>2014-09-05T10:34:29Z</time>
      </trkpt>
      <trkpt lat="44.82245" lon="5.3368">
        <ele>1064.8</ele>
        <time>2014-09-05T10:34:37Z</time>
      </trkpt>
      <trkpt lat="44.82245" lon="5.33676">
        <ele>1065.28</ele>
        <time>2014-09-05T10:34:45Z</time>
      </trkpt>
      <trkpt lat="44.82247" lon="5.33673">
        <ele>1064.8</ele>
        <time>2014-09-05T10:35:03Z</time>
      </trkpt>
      <trkpt lat="44.82254" lon="5.33663">
        <ele>1064.8</ele>
        <time>2014-09-05T10:35:13Z</time>
      </trkpt>
      <trkpt lat="44.82258" lon="5.33659">
        <ele>1063.84</ele>
        <time>2014-09-05T10:35:17Z</time>
      </trkpt>
      <trkpt lat="44.82258" lon="5.33644">
        <ele>1063.36</ele>
        <time>2014-09-05T10:35:28Z</time>
      </trkpt>
      <trkpt lat="44.82255" lon="5.33635">
        <ele>1063.36</ele>
        <time>2014-09-05T10:35:34Z</time>
      </trkpt>
      <trkpt lat="44.8225" lon="5.33622">
        <ele>1062.87</ele>
        <time>2014-09-05T10:35:41Z</time>
      </trkpt>
      <trkpt lat="44.82228" lon="5.33619">
        <ele>1061.43</ele>
        <time>2014-09-05T10:35:49Z</time>
      </trkpt>
      <trkpt lat="44.82209" lon="5.33618">
        <ele>1059.99</ele>
        <time>2014-09-05T10:35:57Z</time>
      </trkpt>
      <trkpt lat="44.8218" lon="5.33618">
        <ele>1058.55</ele>
        <time>2014-09-05T10:36:07Z</time>
      </trkpt>
      <trkpt lat="44.8216" lon="5.33617">
        <ele>1057.59</ele>
        <time>2014-09-05T10:36:14Z</time>
      </trkpt>
      <trkpt lat="44.82144" lon="5.33598">
        <ele>1055.67</ele>
        <time>2014-09-05T10:36:22Z</time>
      </trkpt>
      <trkpt lat="44.82142" lon="5.33577">
        <ele>1054.7</ele>
        <time>2014-09-05T10:36:28Z</time>
      </trkpt>
      <trkpt lat="44.82143" lon="5.33545">
        <ele>1053.26</ele>
        <time>2014-09-05T10:36:36Z</time>
      </trkpt>
      <trkpt lat="44.82146" lon="5.33537">
        <ele>1053.26</ele>
        <time>2014-09-05T10:36:39Z</time>
      </trkpt>
      <trkpt lat="44.82143" lon="5.33492">
        <ele>1052.3</ele>
        <time>2014-09-05T10:36:48Z</time>
      </trkpt>
      <trkpt lat="44.82132" lon="5.3346">
        <ele>1051.82</ele>
        <time>2014-09-05T10:36:55Z</time>
      </trkpt>
      <trkpt lat="44.82134" lon="5.33451">
        <ele>1050.86</ele>
        <time>2014-09-05T10:36:57Z</time>
      </trkpt>
      <trkpt lat="44.82135" lon="5.33445">
        <ele>1050.38</ele>
        <time>2014-09-05T10:37:00Z</time>
      </trkpt>
      <trkpt lat="44.82126" lon="5.33436">
        <ele>1050.38</ele>
        <time>2014-09-05T10:37:08Z</time>
      </trkpt>
      <trkpt lat="44.82126" lon="5.33436">
        <ele>1050.86</ele>
        <time>2014-09-05T10:37:27Z</time>
      </trkpt>
      <trkpt lat="44.82126" lon="5.33436">
        <ele>1050.86</ele>
        <time>2014-09-05T10:37:29Z</time>
      </trkpt>
      <trkpt lat="44.82123" lon="5.33432">
        <ele>1050.38</ele>
        <time>2014-09-05T10:37:31Z</time>
      </trkpt>
      <trkpt lat="44.82117" lon="5.3341">
        <ele>1049.9</ele>
        <time>2014-09-05T10:37:37Z</time>
      </trkpt>
      <trkpt lat="44.82111" lon="5.33385">
        <ele>1048.45</ele>
        <time>2014-09-05T10:37:43Z</time>
      </trkpt>
      <trkpt lat="44.82119" lon="5.3337">
        <ele>1047.01</ele>
        <time>2014-09-05T10:37:47Z</time>
      </trkpt>
      <trkpt lat="44.82124" lon="5.33358">
        <ele>1046.05</ele>
        <time>2014-09-05T10:37:50Z</time>
      </trkpt>
      <trkpt lat="44.82124" lon="5.33352">
        <ele>1045.09</ele>
        <time>2014-09-05T10:37:52Z</time>
      </trkpt>
      <trkpt lat="44.82125" lon="5.33343">
        <ele>1044.13</ele>
        <time>2014-09-05T10:37:54Z</time>
      </trkpt>
      <trkpt lat="44.82127" lon="5.33338">
        <ele>1043.65</ele>
        <time>2014-09-05T10:37:55Z</time>
      </trkpt>
      <trkpt lat="44.82128" lon="5.33325">
        <ele>1042.69</ele>
        <time>2014-09-05T10:37:58Z</time>
      </trkpt>
      <trkpt lat="44.82127" lon="5.33323">
        <ele>1041.73</ele>
        <time>2014-09-05T10:37:59Z</time>
      </trkpt>
      <trkpt lat="44.82124" lon="5.33322">
        <ele>1041.73</ele>
        <time>2014-09-05T10:38:00Z</time>
      </trkpt>
      <trkpt lat="44.82119" lon="5.33321">
        <ele>1041.73</ele>
        <time>2014-09-05T10:38:01Z</time>
      </trkpt>
      <trkpt lat="44.82114" lon="5.33321">
        <ele>1042.21</ele>
        <time>2014-09-05T10:38:02Z</time>
      </trkpt>
      <trkpt lat="44.82109" lon="5.3332">
        <ele>1041.73</ele>
        <time>2014-09-05T10:38:03Z</time>
      </trkpt>
      <trkpt lat="44.82105" lon="5.3332">
        <ele>1041.25</ele>
        <time>2014-09-05T10:38:04Z</time>
      </trkpt>
      <trkpt lat="44.82082" lon="5.33308">
        <ele>1038.84</ele>
        <time>2014-09-05T10:38:11Z</time>
      </trkpt>
      <trkpt lat="44.82074" lon="5.33292">
        <ele>1038.84</ele>
        <time>2014-09-05T10:38:15Z</time>
      </trkpt>
      <trkpt lat="44.82075" lon="5.33286">
        <ele>1038.36</ele>
        <time>2014-09-05T10:38:16Z</time>
      </trkpt>
      <trkpt lat="44.82076" lon="5.33283">
        <ele>1038.84</ele>
        <time>2014-09-05T10:38:17Z</time>
      </trkpt>
      <trkpt lat="44.82077" lon="5.33277">
        <ele>1038.84</ele>
        <time>2014-09-05T10:38:20Z</time>
      </trkpt>
      <trkpt lat="44.82069" lon="5.33262">
        <ele>1038.36</ele>
        <time>2014-09-05T10:38:25Z</time>
      </trkpt>
      <trkpt lat="44.82069" lon="5.33243">
        <ele>1037.4</ele>
        <time>2014-09-05T10:38:32Z</time>
      </trkpt>
      <trkpt lat="44.82062" lon="5.33234">
        <ele>1036.92</ele>
        <time>2014-09-05T10:38:36Z</time>
      </trkpt>
      <trkpt lat="44.82061" lon="5.33218">
        <ele>1036.92</ele>
        <time>2014-09-05T10:38:41Z</time>
      </trkpt>
      <trkpt lat="44.82065" lon="5.33199">
        <ele>1036.92</ele>
        <time>2014-09-05T10:38:47Z</time>
      </trkpt>
      <trkpt lat="44.82063" lon="5.33193">
        <ele>1036.44</ele>
        <time>2014-09-05T10:38:50Z</time>
      </trkpt>
      <trkpt lat="44.82062" lon="5.33164">
        <ele>1035.48</ele>
        <time>2014-09-05T10:38:57Z</time>
      </trkpt>
      <trkpt lat="44.82066" lon="5.3315">
        <ele>1035</ele>
        <time>2014-09-05T10:39:06Z</time>
      </trkpt>
      <trkpt lat="44.82066" lon="5.3315">
        <ele>1035</ele>
        <time>2014-09-05T10:39:07Z</time>
      </trkpt>
      <trkpt lat="44.82067" lon="5.33145">
        <ele>1035</ele>
        <time>2014-09-05T10:39:10Z</time>
      </trkpt>
      <trkpt lat="44.82063" lon="5.33126">
        <ele>1034.52</ele>
        <time>2014-09-05T10:39:17Z</time>
      </trkpt>
      <trkpt lat="44.82062" lon="5.3312">
        <ele>1035</ele>
        <time>2014-09-05T10:39:19Z</time>
      </trkpt>
      <trkpt lat="44.82062" lon="5.33105">
        <ele>1034.52</ele>
        <time>2014-09-05T10:39:23Z</time>
      </trkpt>
      <trkpt lat="44.82067" lon="5.33097">
        <ele>1034.52</ele>
        <time>2014-09-05T10:39:28Z</time>
      </trkpt>
      <trkpt lat="44.82073" lon="5.33091">
        <ele>1034.04</ele>
        <time>2014-09-05T10:39:32Z</time>
      </trkpt>
      <trkpt lat="44.82084" lon="5.33071">
        <ele>1034.52</ele>
        <time>2014-09-05T10:39:40Z</time>
      </trkpt>
      <trkpt lat="44.82097" lon="5.33066">
        <ele>1034.04</ele>
        <time>2014-09-05T10:39:50Z</time>
      </trkpt>
      <trkpt lat="44.82102" lon="5.33051">
        <ele>1033.07</ele>
        <time>2014-09-05T10:39:55Z</time>
      </trkpt>
      <trkpt lat="44.82101" lon="5.33041">
        <ele>1033.07</ele>
        <time>2014-09-05T10:39:58Z</time>
      </trkpt>
      <trkpt lat="44.82101" lon="5.33033">
        <ele>1032.59</ele>
        <time>2014-09-05T10:40:01Z</time>
      </trkpt>
      <trkpt lat="44.82095" lon="5.33026">
        <ele>1033.07</ele>
        <time>2014-09-05T10:40:03Z</time>
      </trkpt>
      <trkpt lat="44.82075" lon="5.33007">
        <ele>1032.11</ele>
        <time>2014-09-05T10:40:15Z</time>
      </trkpt>
      <trkpt lat="44.82074" lon="5.33006">
        <ele>1031.63</ele>
        <time>2014-09-05T10:40:16Z</time>
      </trkpt>
      <trkpt lat="44.82073" lon="5.33">
        <ele>1032.11</ele>
        <time>2014-09-05T10:40:17Z</time>
      </trkpt>
      <trkpt lat="44.82074" lon="5.32997">
        <ele>1032.11</ele>
        <time>2014-09-05T10:40:19Z</time>
      </trkpt>
      <trkpt lat="44.82082" lon="5.32968">
        <ele>1031.63</ele>
        <time>2014-09-05T10:40:27Z</time>
      </trkpt>
      <trkpt lat="44.82089" lon="5.3293">
        <ele>1029.23</ele>
        <time>2014-09-05T10:40:36Z</time>
      </trkpt>
      <trkpt lat="44.82096" lon="5.32896">
        <ele>1025.86</ele>
        <time>2014-09-05T10:40:42Z</time>
      </trkpt>
      <trkpt lat="44.82098" lon="5.32886">
        <ele>1024.42</ele>
        <time>2014-09-05T10:40:44Z</time>
      </trkpt>
      <trkpt lat="44.82103" lon="5.32863">
        <ele>1021.54</ele>
        <time>2014-09-05T10:40:50Z</time>
      </trkpt>
      <trkpt lat="44.82105" lon="5.32851">
        <ele>1019.62</ele>
        <time>2014-09-05T10:40:53Z</time>
      </trkpt>
      <trkpt lat="44.82103" lon="5.32847">
        <ele>1019.62</ele>
        <time>2014-09-05T10:41:00Z</time>
      </trkpt>
      <trkpt lat="44.82103" lon="5.32847">
        <ele>1020.58</ele>
        <time>2014-09-05T10:41:18Z</time>
      </trkpt>
      <trkpt lat="44.821" lon="5.32845">
        <ele>1020.1</ele>
        <time>2014-09-05T10:41:33Z</time>
      </trkpt>
      <trkpt lat="44.82093" lon="5.32843">
        <ele>1020.1</ele>
        <time>2014-09-05T10:41:48Z</time>
      </trkpt>
      <trkpt lat="44.82092" lon="5.32842">
        <ele>1020.1</ele>
        <time>2014-09-05T10:41:56Z</time>
      </trkpt>
      <trkpt lat="44.82093" lon="5.32839">
        <ele>1020.58</ele>
        <time>2014-09-05T10:41:59Z</time>
      </trkpt>
      <trkpt lat="44.82093" lon="5.32838">
        <ele>1020.58</ele>
        <time>2014-09-05T10:42:00Z</time>
      </trkpt>
      <trkpt lat="44.82095" lon="5.32838">
        <ele>1021.06</ele>
        <time>2014-09-05T10:42:01Z</time>
      </trkpt>
      <trkpt lat="44.82096" lon="5.32838">
        <ele>1021.06</ele>
        <time>2014-09-05T10:42:02Z</time>
      </trkpt>
      <trkpt lat="44.82097" lon="5.32838">
        <ele>1021.06</ele>
        <time>2014-09-05T10:42:03Z</time>
      </trkpt>
      <trkpt lat="44.82098" lon="5.32838">
        <ele>1021.54</ele>
        <time>2014-09-05T10:42:04Z</time>
      </trkpt>
      <trkpt lat="44.821" lon="5.32837">
        <ele>1022.02</ele>
        <time>2014-09-05T10:42:05Z</time>
      </trkpt>
      <trkpt lat="44.82101" lon="5.32837">
        <ele>1022.02</ele>
        <time>2014-09-05T10:42:06Z</time>
      </trkpt>
      <trkpt lat="44.82102" lon="5.32836">
        <ele>1022.02</ele>
        <time>2014-09-05T10:42:07Z</time>
      </trkpt>
      <trkpt lat="44.82104" lon="5.32836">
        <ele>1022.5</ele>
        <time>2014-09-05T10:42:08Z</time>
      </trkpt>
      <trkpt lat="44.82107" lon="5.32835">
        <ele>1022.98</ele>
        <time>2014-09-05T10:42:10Z</time>
      </trkpt>
      <trkpt lat="44.82108" lon="5.32835">
        <ele>1022.98</ele>
        <time>2014-09-05T10:42:11Z</time>
      </trkpt>
      <trkpt lat="44.82127" lon="5.32827">
        <ele>1025.86</ele>
        <time>2014-09-05T10:42:23Z</time>
      </trkpt>
      <trkpt lat="44.82141" lon="5.32824">
        <ele>1027.31</ele>
        <time>2014-09-05T10:42:32Z</time>
      </trkpt>
      <trkpt lat="44.82143" lon="5.32824">
        <ele>1027.31</ele>
        <time>2014-09-05T10:42:33Z</time>
      </trkpt>
      <trkpt lat="44.82146" lon="5.32824">
        <ele>1027.31</ele>
        <time>2014-09-05T10:42:35Z</time>
      </trkpt>
      <trkpt lat="44.82147" lon="5.32824">
        <ele>1027.79</ele>
        <time>2014-09-05T10:42:36Z</time>
      </trkpt>
      <trkpt lat="44.82149" lon="5.32824">
        <ele>1028.27</ele>
        <time>2014-09-05T10:42:37Z</time>
      </trkpt>
      <trkpt lat="44.82151" lon="5.32824">
        <ele>1027.79</ele>
        <time>2014-09-05T10:42:38Z</time>
      </trkpt>
      <trkpt lat="44.82153" lon="5.32824">
        <ele>1028.27</ele>
        <time>2014-09-05T10:42:39Z</time>
      </trkpt>
      <trkpt lat="44.82155" lon="5.32824">
        <ele>1028.75</ele>
        <time>2014-09-05T10:42:40Z</time>
      </trkpt>
      <trkpt lat="44.82156" lon="5.32824">
        <ele>1028.75</ele>
        <time>2014-09-05T10:42:41Z</time>
      </trkpt>
      <trkpt lat="44.82158" lon="5.32825">
        <ele>1028.75</ele>
        <time>2014-09-05T10:42:42Z</time>
      </trkpt>
      <trkpt lat="44.82159" lon="5.32826">
        <ele>1028.75</ele>
        <time>2014-09-05T10:42:43Z</time>
      </trkpt>
      <trkpt lat="44.82161" lon="5.32825">
        <ele>1028.75</ele>
        <time>2014-09-05T10:42:44Z</time>
      </trkpt>
      <trkpt lat="44.82162" lon="5.32825">
        <ele>1029.23</ele>
        <time>2014-09-05T10:42:45Z</time>
      </trkpt>
      <trkpt lat="44.82164" lon="5.32825">
        <ele>1029.71</ele>
        <time>2014-09-05T10:42:46Z</time>
      </trkpt>
      <trkpt lat="44.82166" lon="5.32824">
        <ele>1029.23</ele>
        <time>2014-09-05T10:42:47Z</time>
      </trkpt>
      <trkpt lat="44.82167" lon="5.32824">
        <ele>1029.71</ele>
        <time>2014-09-05T10:42:48Z</time>
      </trkpt>
      <trkpt lat="44.82169" lon="5.32823">
        <ele>1030.19</ele>
        <time>2014-09-05T10:42:49Z</time>
      </trkpt>
      <trkpt lat="44.82183" lon="5.32811">
        <ele>1031.63</ele>
        <time>2014-09-05T10:42:59Z</time>
      </trkpt>
      <trkpt lat="44.82186" lon="5.3278">
        <ele>1032.11</ele>
        <time>2014-09-05T10:43:10Z</time>
      </trkpt>
      <trkpt lat="44.82181" lon="5.32751">
        <ele>1032.59</ele>
        <time>2014-09-05T10:43:20Z</time>
      </trkpt>
      <trkpt lat="44.8218" lon="5.32742">
        <ele>1032.59</ele>
        <time>2014-09-05T10:43:36Z</time>
      </trkpt>
      <trkpt lat="44.82178" lon="5.32738">
        <ele>1032.11</ele>
        <time>2014-09-05T10:43:37Z</time>
      </trkpt>
      <trkpt lat="44.82176" lon="5.32735">
        <ele>1032.59</ele>
        <time>2014-09-05T10:43:38Z</time>
      </trkpt>
      <trkpt lat="44.82174" lon="5.32731">
        <ele>1032.11</ele>
        <time>2014-09-05T10:43:39Z</time>
      </trkpt>
      <trkpt lat="44.82171" lon="5.32728">
        <ele>1032.11</ele>
        <time>2014-09-05T10:43:40Z</time>
      </trkpt>
      <trkpt lat="44.82169" lon="5.32725">
        <ele>1032.59</ele>
        <time>2014-09-05T10:43:41Z</time>
      </trkpt>
      <trkpt lat="44.82167" lon="5.32721">
        <ele>1032.11</ele>
        <time>2014-09-05T10:43:42Z</time>
      </trkpt>
      <trkpt lat="44.82151" lon="5.32688">
        <ele>1030.67</ele>
        <time>2014-09-05T10:43:50Z</time>
      </trkpt>
      <trkpt lat="44.82143" lon="5.32683">
        <ele>1029.71</ele>
        <time>2014-09-05T10:43:52Z</time>
      </trkpt>
      <trkpt lat="44.82125" lon="5.32664">
        <ele>1027.79</ele>
        <time>2014-09-05T10:43:58Z</time>
      </trkpt>
      <trkpt lat="44.82122" lon="5.32658">
        <ele>1027.31</ele>
        <time>2014-09-05T10:43:59Z</time>
      </trkpt>
      <trkpt lat="44.82117" lon="5.32646">
        <ele>1026.34</ele>
        <time>2014-09-05T10:44:01Z</time>
      </trkpt>
      <trkpt lat="44.82113" lon="5.32639">
        <ele>1025.38</ele>
        <time>2014-09-05T10:44:02Z</time>
      </trkpt>
      <trkpt lat="44.8211" lon="5.32634">
        <ele>1025.38</ele>
        <time>2014-09-05T10:44:03Z</time>
      </trkpt>
      <trkpt lat="44.82107" lon="5.32629">
        <ele>1025.38</ele>
        <time>2014-09-05T10:44:04Z</time>
      </trkpt>
      <trkpt lat="44.82096" lon="5.32604">
        <ele>1023.94</ele>
        <time>2014-09-05T10:44:11Z</time>
      </trkpt>
      <trkpt lat="44.82096" lon="5.32598">
        <ele>1023.46</ele>
        <time>2014-09-05T10:44:12Z</time>
      </trkpt>
      <trkpt lat="44.82096" lon="5.32591">
        <ele>1023.46</ele>
        <time>2014-09-05T10:44:13Z</time>
      </trkpt>
      <trkpt lat="44.82096" lon="5.32584">
        <ele>1022.98</ele>
        <time>2014-09-05T10:44:14Z</time>
      </trkpt>
      <trkpt lat="44.82095" lon="5.32577">
        <ele>1022.02</ele>
        <time>2014-09-05T10:44:15Z</time>
      </trkpt>
      <trkpt lat="44.82094" lon="5.32569">
        <ele>1021.54</ele>
        <time>2014-09-05T10:44:16Z</time>
      </trkpt>
      <trkpt lat="44.82092" lon="5.32562">
        <ele>1021.06</ele>
        <time>2014-09-05T10:44:17Z</time>
      </trkpt>
      <trkpt lat="44.82087" lon="5.3255">
        <ele>1020.58</ele>
        <time>2014-09-05T10:44:19Z</time>
      </trkpt>
      <trkpt lat="44.82084" lon="5.32543">
        <ele>1019.62</ele>
        <time>2014-09-05T10:44:20Z</time>
      </trkpt>
      <trkpt lat="44.82071" lon="5.32521">
        <ele>1017.69</ele>
        <time>2014-09-05T10:44:24Z</time>
      </trkpt>
      <trkpt lat="44.82068" lon="5.32515">
        <ele>1016.73</ele>
        <time>2014-09-05T10:44:25Z</time>
      </trkpt>
      <trkpt lat="44.82065" lon="5.3251">
        <ele>1016.25</ele>
        <time>2014-09-05T10:44:26Z</time>
      </trkpt>
      <trkpt lat="44.82061" lon="5.32504">
        <ele>1015.77</ele>
        <time>2014-09-05T10:44:27Z</time>
      </trkpt>
      <trkpt lat="44.82057" lon="5.325">
        <ele>1014.81</ele>
        <time>2014-09-05T10:44:28Z</time>
      </trkpt>
      <trkpt lat="44.82052" lon="5.32495">
        <ele>1013.85</ele>
        <time>2014-09-05T10:44:29Z</time>
      </trkpt>
      <trkpt lat="44.82048" lon="5.32491">
        <ele>1013.37</ele>
        <time>2014-09-05T10:44:30Z</time>
      </trkpt>
      <trkpt lat="44.8204" lon="5.3248">
        <ele>1011.93</ele>
        <time>2014-09-05T10:44:32Z</time>
      </trkpt>
      <trkpt lat="44.82036" lon="5.32475">
        <ele>1011.44</ele>
        <time>2014-09-05T10:44:33Z</time>
      </trkpt>
      <trkpt lat="44.82032" lon="5.3247">
        <ele>1010.96</ele>
        <time>2014-09-05T10:44:34Z</time>
      </trkpt>
      <trkpt lat="44.82027" lon="5.32466">
        <ele>1010</ele>
        <time>2014-09-05T10:44:35Z</time>
      </trkpt>
      <trkpt lat="44.82023" lon="5.32465">
        <ele>1010</ele>
        <time>2014-09-05T10:44:36Z</time>
      </trkpt>
      <trkpt lat="44.82018" lon="5.32464">
        <ele>1009.52</ele>
        <time>2014-09-05T10:44:37Z</time>
      </trkpt>
      <trkpt lat="44.82013" lon="5.32464">
        <ele>1009.04</ele>
        <time>2014-09-05T10:44:38Z</time>
      </trkpt>
      <trkpt lat="44.81992" lon="5.32463">
        <ele>1005.68</ele>
        <time>2014-09-05T10:44:42Z</time>
      </trkpt>
      <trkpt lat="44.81988" lon="5.32461">
        <ele>1004.72</ele>
        <time>2014-09-05T10:44:44Z</time>
      </trkpt>
      <trkpt lat="44.81989" lon="5.32462">
        <ele>1004.72</ele>
        <time>2014-09-05T10:44:52Z</time>
      </trkpt>
      <trkpt lat="44.81989" lon="5.3246">
        <ele>1005.2</ele>
        <time>2014-09-05T10:45:09Z</time>
      </trkpt>
      <trkpt lat="44.81989" lon="5.32461">
        <ele>1003.75</ele>
        <time>2014-09-05T10:45:17Z</time>
      </trkpt>
      <trkpt lat="44.81988" lon="5.32461">
        <ele>1004.23</ele>
        <time>2014-09-05T10:45:21Z</time>
      </trkpt>
      <trkpt lat="44.81986" lon="5.3246">
        <ele>1003.75</ele>
        <time>2014-09-05T10:45:22Z</time>
      </trkpt>
      <trkpt lat="44.81984" lon="5.32458">
        <ele>1003.75</ele>
        <time>2014-09-05T10:45:23Z</time>
      </trkpt>
      <trkpt lat="44.81962" lon="5.32445">
        <ele>1001.35</ele>
        <time>2014-09-05T10:45:29Z</time>
      </trkpt>
      <trkpt lat="44.81958" lon="5.32443">
        <ele>1000.39</ele>
        <time>2014-09-05T10:45:30Z</time>
      </trkpt>
      <trkpt lat="44.81954" lon="5.3244">
        <ele>999.91</ele>
        <time>2014-09-05T10:45:31Z</time>
      </trkpt>
      <trkpt lat="44.81931" lon="5.32421">
        <ele>997.02</ele>
        <time>2014-09-05T10:45:36Z</time>
      </trkpt>
      <trkpt lat="44.81926" lon="5.32417">
        <ele>997.02</ele>
        <time>2014-09-05T10:45:37Z</time>
      </trkpt>
      <trkpt lat="44.81921" lon="5.32413">
        <ele>995.58</ele>
        <time>2014-09-05T10:45:38Z</time>
      </trkpt>
      <trkpt lat="44.81894" lon="5.32394">
        <ele>993.18</ele>
        <time>2014-09-05T10:45:43Z</time>
      </trkpt>
      <trkpt lat="44.81887" lon="5.32391">
        <ele>992.22</ele>
        <time>2014-09-05T10:45:44Z</time>
      </trkpt>
      <trkpt lat="44.81855" lon="5.32379">
        <ele>989.33</ele>
        <time>2014-09-05T10:45:49Z</time>
      </trkpt>
      <trkpt lat="44.81849" lon="5.32377">
        <ele>988.85</ele>
        <time>2014-09-05T10:45:50Z</time>
      </trkpt>
      <trkpt lat="44.81826" lon="5.32375">
        <ele>986.45</ele>
        <time>2014-09-05T10:45:54Z</time>
      </trkpt>
      <trkpt lat="44.81801" lon="5.32367">
        <ele>983.57</ele>
        <time>2014-09-05T10:45:59Z</time>
      </trkpt>
      <trkpt lat="44.81797" lon="5.32365">
        <ele>982.6</ele>
        <time>2014-09-05T10:46:00Z</time>
      </trkpt>
      <trkpt lat="44.81788" lon="5.32361">
        <ele>981.64</ele>
        <time>2014-09-05T10:46:02Z</time>
      </trkpt>
      <trkpt lat="44.81765" lon="5.3235">
        <ele>977.8</ele>
        <time>2014-09-05T10:46:07Z</time>
      </trkpt>
      <trkpt lat="44.8176" lon="5.32346">
        <ele>977.8</ele>
        <time>2014-09-05T10:46:08Z</time>
      </trkpt>
      <trkpt lat="44.81757" lon="5.32341">
        <ele>977.32</ele>
        <time>2014-09-05T10:46:09Z</time>
      </trkpt>
      <trkpt lat="44.81752" lon="5.32336">
        <ele>976.84</ele>
        <time>2014-09-05T10:46:10Z</time>
      </trkpt>
      <trkpt lat="44.81749" lon="5.32331">
        <ele>975.88</ele>
        <time>2014-09-05T10:46:11Z</time>
      </trkpt>
      <trkpt lat="44.81746" lon="5.32325">
        <ele>974.91</ele>
        <time>2014-09-05T10:46:12Z</time>
      </trkpt>
      <trkpt lat="44.81728" lon="5.32297">
        <ele>971.55</ele>
        <time>2014-09-05T10:46:17Z</time>
      </trkpt>
      <trkpt lat="44.81712" lon="5.3227">
        <ele>968.18</ele>
        <time>2014-09-05T10:46:21Z</time>
      </trkpt>
      <trkpt lat="44.81696" lon="5.32247">
        <ele>965.3</ele>
        <time>2014-09-05T10:46:25Z</time>
      </trkpt>
      <trkpt lat="44.81692" lon="5.32238">
        <ele>964.34</ele>
        <time>2014-09-05T10:46:27Z</time>
      </trkpt>
      <trkpt lat="44.81689" lon="5.32233">
        <ele>963.86</ele>
        <time>2014-09-05T10:46:28Z</time>
      </trkpt>
      <trkpt lat="44.81671" lon="5.32204">
        <ele>960.49</ele>
        <time>2014-09-05T10:46:33Z</time>
      </trkpt>
      <trkpt lat="44.81668" lon="5.32199">
        <ele>960.01</ele>
        <time>2014-09-05T10:46:34Z</time>
      </trkpt>
      <trkpt lat="44.81663" lon="5.32191">
        <ele>959.05</ele>
        <time>2014-09-05T10:46:36Z</time>
      </trkpt>
      <trkpt lat="44.81662" lon="5.32187">
        <ele>958.57</ele>
        <time>2014-09-05T10:46:37Z</time>
      </trkpt>
      <trkpt lat="44.81662" lon="5.32183">
        <ele>958.57</ele>
        <time>2014-09-05T10:46:38Z</time>
      </trkpt>
      <trkpt lat="44.81664" lon="5.32179">
        <ele>957.61</ele>
        <time>2014-09-05T10:46:39Z</time>
      </trkpt>
      <trkpt lat="44.81666" lon="5.32176">
        <ele>957.61</ele>
        <time>2014-09-05T10:46:40Z</time>
      </trkpt>
      <trkpt lat="44.8167" lon="5.32173">
        <ele>957.61</ele>
        <time>2014-09-05T10:46:41Z</time>
      </trkpt>
      <trkpt lat="44.81674" lon="5.3217">
        <ele>956.65</ele>
        <time>2014-09-05T10:46:42Z</time>
      </trkpt>
      <trkpt lat="44.81678" lon="5.32167">
        <ele>956.65</ele>
        <time>2014-09-05T10:46:43Z</time>
      </trkpt>
      <trkpt lat="44.81697" lon="5.32154">
        <ele>953.28</ele>
        <time>2014-09-05T10:46:47Z</time>
      </trkpt>
      <trkpt lat="44.81717" lon="5.32139">
        <ele>949.92</ele>
        <time>2014-09-05T10:46:51Z</time>
      </trkpt>
      <trkpt lat="44.81722" lon="5.32135">
        <ele>949.92</ele>
        <time>2014-09-05T10:46:52Z</time>
      </trkpt>
      <trkpt lat="44.81729" lon="5.3213">
        <ele>949.44</ele>
        <time>2014-09-05T10:46:54Z</time>
      </trkpt>
      <trkpt lat="44.81733" lon="5.32128">
        <ele>948.48</ele>
        <time>2014-09-05T10:46:55Z</time>
      </trkpt>
      <trkpt lat="44.81738" lon="5.32126">
        <ele>948.48</ele>
        <time>2014-09-05T10:46:56Z</time>
      </trkpt>
      <trkpt lat="44.81766" lon="5.32105">
        <ele>945.11</ele>
        <time>2014-09-05T10:47:01Z</time>
      </trkpt>
      <trkpt lat="44.81789" lon="5.32088">
        <ele>941.75</ele>
        <time>2014-09-05T10:47:05Z</time>
      </trkpt>
      <trkpt lat="44.81796" lon="5.32085">
        <ele>941.75</ele>
        <time>2014-09-05T10:47:06Z</time>
      </trkpt>
      <trkpt lat="44.81818" lon="5.32077">
        <ele>939.83</ele>
        <time>2014-09-05T10:47:09Z</time>
      </trkpt>
      <trkpt lat="44.81829" lon="5.32068">
        <ele>939.83</ele>
        <time>2014-09-05T10:47:13Z</time>
      </trkpt>
      <trkpt lat="44.81829" lon="5.32065">
        <ele>939.35</ele>
        <time>2014-09-05T10:47:14Z</time>
      </trkpt>
      <trkpt lat="44.81828" lon="5.32062">
        <ele>939.35</ele>
        <time>2014-09-05T10:47:15Z</time>
      </trkpt>
      <trkpt lat="44.81827" lon="5.3206">
        <ele>938.86</ele>
        <time>2014-09-05T10:47:16Z</time>
      </trkpt>
      <trkpt lat="44.81807" lon="5.32065">
        <ele>936.94</ele>
        <time>2014-09-05T10:47:23Z</time>
      </trkpt>
      <trkpt lat="44.81796" lon="5.32072">
        <ele>936.46</ele>
        <time>2014-09-05T10:47:26Z</time>
      </trkpt>
      <trkpt lat="44.81788" lon="5.32073">
        <ele>935.98</ele>
        <time>2014-09-05T10:47:28Z</time>
      </trkpt>
      <trkpt lat="44.81768" lon="5.32074">
        <ele>934.06</ele>
        <time>2014-09-05T10:47:32Z</time>
      </trkpt>
      <trkpt lat="44.81762" lon="5.32074">
        <ele>933.58</ele>
        <time>2014-09-05T10:47:33Z</time>
      </trkpt>
      <trkpt lat="44.81745" lon="5.32076">
        <ele>931.17</ele>
        <time>2014-09-05T10:47:36Z</time>
      </trkpt>
      <trkpt lat="44.81723" lon="5.32078">
        <ele>928.29</ele>
        <time>2014-09-05T10:47:40Z</time>
      </trkpt>
      <trkpt lat="44.81718" lon="5.32079">
        <ele>928.29</ele>
        <time>2014-09-05T10:47:41Z</time>
      </trkpt>
      <trkpt lat="44.81711" lon="5.3208">
        <ele>926.37</ele>
        <time>2014-09-05T10:47:43Z</time>
      </trkpt>
      <trkpt lat="44.81674" lon="5.32084">
        <ele>922.52</ele>
        <time>2014-09-05T10:47:49Z</time>
      </trkpt>
      <trkpt lat="44.81669" lon="5.32084">
        <ele>922.52</ele>
        <time>2014-09-05T10:47:50Z</time>
      </trkpt>
      <trkpt lat="44.81659" lon="5.32084">
        <ele>921.08</ele>
        <time>2014-09-05T10:47:52Z</time>
      </trkpt>
      <trkpt lat="44.8163" lon="5.32088">
        <ele>918.2</ele>
        <time>2014-09-05T10:47:57Z</time>
      </trkpt>
      <trkpt lat="44.81603" lon="5.32088">
        <ele>914.35</ele>
        <time>2014-09-05T10:48:01Z</time>
      </trkpt>
      <trkpt lat="44.81589" lon="5.32087">
        <ele>912.91</ele>
        <time>2014-09-05T10:48:03Z</time>
      </trkpt>
      <trkpt lat="44.81582" lon="5.32086">
        <ele>912.43</ele>
        <time>2014-09-05T10:48:04Z</time>
      </trkpt>
      <trkpt lat="44.81574" lon="5.32084">
        <ele>911.95</ele>
        <time>2014-09-05T10:48:05Z</time>
      </trkpt>
      <trkpt lat="44.81543" lon="5.32073">
        <ele>909.54</ele>
        <time>2014-09-05T10:48:11Z</time>
      </trkpt>
      <trkpt lat="44.81519" lon="5.32073">
        <ele>908.58</ele>
        <time>2014-09-05T10:48:19Z</time>
      </trkpt>
      <trkpt lat="44.81506" lon="5.32079">
        <ele>907.62</ele>
        <time>2014-09-05T10:48:26Z</time>
      </trkpt>
      <trkpt lat="44.81506" lon="5.32079">
        <ele>907.62</ele>
        <time>2014-09-05T10:48:35Z</time>
      </trkpt>
      <trkpt lat="44.81506" lon="5.32079">
        <ele>907.62</ele>
        <time>2014-09-05T10:48:58Z</time>
      </trkpt>
      <trkpt lat="44.81506" lon="5.32079">
        <ele>907.14</ele>
        <time>2014-09-05T10:49:17Z</time>
      </trkpt>
      <trkpt lat="44.81506" lon="5.32079">
        <ele>907.14</ele>
        <time>2014-09-05T10:49:42Z</time>
      </trkpt>
      <trkpt lat="44.81506" lon="5.32079">
        <ele>907.14</ele>
        <time>2014-09-05T10:50:06Z</time>
      </trkpt>
      <trkpt lat="44.81506" lon="5.3208">
        <ele>898.49</ele>
        <time>2014-09-05T10:50:21Z</time>
      </trkpt>
      <trkpt lat="44.81506" lon="5.3208">
        <ele>911.95</ele>
        <time>2014-09-05T10:50:22Z</time>
      </trkpt>
      <trkpt lat="44.81506" lon="5.3208">
        <ele>899.93</ele>
        <time>2014-09-05T10:50:23Z</time>
      </trkpt>
      <trkpt lat="44.81506" lon="5.3208">
        <ele>910.03</ele>
        <time>2014-09-05T10:50:24Z</time>
      </trkpt>
      <trkpt lat="44.81506" lon="5.3208">
        <ele>898.01</ele>
        <time>2014-09-05T10:50:25Z</time>
      </trkpt>
      <trkpt lat="44.81506" lon="5.3208">
        <ele>902.33</ele>
        <time>2014-09-05T10:50:26Z</time>
      </trkpt>
      <trkpt lat="44.81506" lon="5.3208">
        <ele>910.51</ele>
        <time>2014-09-05T10:50:27Z</time>
      </trkpt>
      <trkpt lat="44.81506" lon="5.3208">
        <ele>917.72</ele>
        <time>2014-09-05T10:50:28Z</time>
      </trkpt>
      <trkpt lat="44.81506" lon="5.3208">
        <ele>894.16</ele>
        <time>2014-09-05T10:50:29Z</time>
      </trkpt>
      <trkpt lat="44.81506" lon="5.3208">
        <ele>903.3</ele>
        <time>2014-09-05T10:50:30Z</time>
      </trkpt>
      <trkpt lat="44.81506" lon="5.3208">
        <ele>908.1</ele>
        <time>2014-09-05T10:50:31Z</time>
      </trkpt>
      <trkpt lat="44.81506" lon="5.3208">
        <ele>908.58</ele>
        <time>2014-09-05T10:50:32Z</time>
      </trkpt>
      <trkpt lat="44.81506" lon="5.3208">
        <ele>918.2</ele>
        <time>2014-09-05T10:50:33Z</time>
      </trkpt>
      <trkpt lat="44.81506" lon="5.3208">
        <ele>908.1</ele>
        <time>2014-09-05T10:50:37Z</time>
      </trkpt>
      <trkpt lat="44.81506" lon="5.3208">
        <ele>906.18</ele>
        <time>2014-09-05T10:50:39Z</time>
      </trkpt>
      <trkpt lat="44.81506" lon="5.3208">
        <ele>907.62</ele>
        <time>2014-09-05T10:50:41Z</time>
      </trkpt>
      <trkpt lat="44.81504" lon="5.32079">
        <ele>907.62</ele>
        <time>2014-09-05T10:50:56Z</time>
      </trkpt>
      <trkpt lat="44.81493" lon="5.32077">
        <ele>906.66</ele>
        <time>2014-09-05T10:51:02Z</time>
      </trkpt>
      <trkpt lat="44.81491" lon="5.32077">
        <ele>906.66</ele>
        <time>2014-09-05T10:51:03Z</time>
      </trkpt>
      <trkpt lat="44.8149" lon="5.32078">
        <ele>907.14</ele>
        <time>2014-09-05T10:51:04Z</time>
      </trkpt>
      <trkpt lat="44.81488" lon="5.32077">
        <ele>906.18</ele>
        <time>2014-09-05T10:51:05Z</time>
      </trkpt>
      <trkpt lat="44.81486" lon="5.32076">
        <ele>906.18</ele>
        <time>2014-09-05T10:51:06Z</time>
      </trkpt>
      <trkpt lat="44.81484" lon="5.32074">
        <ele>905.7</ele>
        <time>2014-09-05T10:51:07Z</time>
      </trkpt>
      <trkpt lat="44.81481" lon="5.32074">
        <ele>906.18</ele>
        <time>2014-09-05T10:51:08Z</time>
      </trkpt>
      <trkpt lat="44.81479" lon="5.32074">
        <ele>905.7</ele>
        <time>2014-09-05T10:51:09Z</time>
      </trkpt>
      <trkpt lat="44.81477" lon="5.32074">
        <ele>905.22</ele>
        <time>2014-09-05T10:51:10Z</time>
      </trkpt>
      <trkpt lat="44.81474" lon="5.32073">
        <ele>904.74</ele>
        <time>2014-09-05T10:51:11Z</time>
      </trkpt>
      <trkpt lat="44.81471" lon="5.32072">
        <ele>904.26</ele>
        <time>2014-09-05T10:51:12Z</time>
      </trkpt>
      <trkpt lat="44.81468" lon="5.32072">
        <ele>904.26</ele>
        <time>2014-09-05T10:51:13Z</time>
      </trkpt>
      <trkpt lat="44.81456" lon="5.32073">
        <ele>903.3</ele>
        <time>2014-09-05T10:51:16Z</time>
      </trkpt>
      <trkpt lat="44.81452" lon="5.32073">
        <ele>902.33</ele>
        <time>2014-09-05T10:51:17Z</time>
      </trkpt>
      <trkpt lat="44.81448" lon="5.32073">
        <ele>902.33</ele>
        <time>2014-09-05T10:51:18Z</time>
      </trkpt>
      <trkpt lat="44.81425" lon="5.32072">
        <ele>899.45</ele>
        <time>2014-09-05T10:51:24Z</time>
      </trkpt>
      <trkpt lat="44.81424" lon="5.3207">
        <ele>898.97</ele>
        <time>2014-09-05T10:51:25Z</time>
      </trkpt>
      <trkpt lat="44.81425" lon="5.32067">
        <ele>898.49</ele>
        <time>2014-09-05T10:51:26Z</time>
      </trkpt>
      <trkpt lat="44.81426" lon="5.32065">
        <ele>898.49</ele>
        <time>2014-09-05T10:51:27Z</time>
      </trkpt>
      <trkpt lat="44.81426" lon="5.32064">
        <ele>898.49</ele>
        <time>2014-09-05T10:51:28Z</time>
      </trkpt>
      <trkpt lat="44.81426" lon="5.32063">
        <ele>898.01</ele>
        <time>2014-09-05T10:51:29Z</time>
      </trkpt>
      <trkpt lat="44.81425" lon="5.32062">
        <ele>898.49</ele>
        <time>2014-09-05T10:51:30Z</time>
      </trkpt>
      <trkpt lat="44.81424" lon="5.32059">
        <ele>897.53</ele>
        <time>2014-09-05T10:51:31Z</time>
      </trkpt>
      <trkpt lat="44.81422" lon="5.32057">
        <ele>897.05</ele>
        <time>2014-09-05T10:51:32Z</time>
      </trkpt>
      <trkpt lat="44.81419" lon="5.32056">
        <ele>897.05</ele>
        <time>2014-09-05T10:51:33Z</time>
      </trkpt>
      <trkpt lat="44.81417" lon="5.32056">
        <ele>896.57</ele>
        <time>2014-09-05T10:51:34Z</time>
      </trkpt>
      <trkpt lat="44.81413" lon="5.32057">
        <ele>896.09</ele>
        <time>2014-09-05T10:51:35Z</time>
      </trkpt>
      <trkpt lat="44.81407" lon="5.32058">
        <ele>895.61</ele>
        <time>2014-09-05T10:51:36Z</time>
      </trkpt>
      <trkpt lat="44.81369" lon="5.32066">
        <ele>892.72</ele>
        <time>2014-09-05T10:51:44Z</time>
      </trkpt>
      <trkpt lat="44.81343" lon="5.32065">
        <ele>889.36</ele>
        <time>2014-09-05T10:51:53Z</time>
      </trkpt>
      <trkpt lat="44.8134" lon="5.32066">
        <ele>889.36</ele>
        <time>2014-09-05T10:51:54Z</time>
      </trkpt>
      <trkpt lat="44.81337" lon="5.32067">
        <ele>888.88</ele>
        <time>2014-09-05T10:51:55Z</time>
      </trkpt>
      <trkpt lat="44.81326" lon="5.32072">
        <ele>887.43</ele>
        <time>2014-09-05T10:51:58Z</time>
      </trkpt>
      <trkpt lat="44.81315" lon="5.32078">
        <ele>886.47</ele>
        <time>2014-09-05T10:52:01Z</time>
      </trkpt>
      <trkpt lat="44.81313" lon="5.32083">
        <ele>885.99</ele>
        <time>2014-09-05T10:52:02Z</time>
      </trkpt>
      <trkpt lat="44.8131" lon="5.32088">
        <ele>885.99</ele>
        <time>2014-09-05T10:52:03Z</time>
      </trkpt>
      <trkpt lat="44.81307" lon="5.32092">
        <ele>885.51</ele>
        <time>2014-09-05T10:52:04Z</time>
      </trkpt>
      <trkpt lat="44.81305" lon="5.32096">
        <ele>885.03</ele>
        <time>2014-09-05T10:52:05Z</time>
      </trkpt>
      <trkpt lat="44.81303" lon="5.32099">
        <ele>884.55</ele>
        <time>2014-09-05T10:52:06Z</time>
      </trkpt>
      <trkpt lat="44.813" lon="5.32102">
        <ele>885.03</ele>
        <time>2014-09-05T10:52:07Z</time>
      </trkpt>
      <trkpt lat="44.81298" lon="5.32104">
        <ele>883.59</ele>
        <time>2014-09-05T10:52:08Z</time>
      </trkpt>
      <trkpt lat="44.81295" lon="5.32107">
        <ele>883.59</ele>
        <time>2014-09-05T10:52:09Z</time>
      </trkpt>
      <trkpt lat="44.81293" lon="5.3211">
        <ele>883.11</ele>
        <time>2014-09-05T10:52:10Z</time>
      </trkpt>
      <trkpt lat="44.81281" lon="5.32115">
        <ele>881.19</ele>
        <time>2014-09-05T10:52:14Z</time>
      </trkpt>
      <trkpt lat="44.81277" lon="5.32114">
        <ele>880.71</ele>
        <time>2014-09-05T10:52:15Z</time>
      </trkpt>
      <trkpt lat="44.81255" lon="5.32108">
        <ele>878.78</ele>
        <time>2014-09-05T10:52:22Z</time>
      </trkpt>
      <trkpt lat="44.81236" lon="5.32096">
        <ele>875.9</ele>
        <time>2014-09-05T10:52:30Z</time>
      </trkpt>
      <trkpt lat="44.81232" lon="5.32085">
        <ele>874.94</ele>
        <time>2014-09-05T10:52:34Z</time>
      </trkpt>
      <trkpt lat="44.81231" lon="5.32083">
        <ele>874.94</ele>
        <time>2014-09-05T10:52:35Z</time>
      </trkpt>
      <trkpt lat="44.81236" lon="5.32061">
        <ele>873.01</ele>
        <time>2014-09-05T10:52:44Z</time>
      </trkpt>
      <trkpt lat="44.81251" lon="5.32033">
        <ele>870.13</ele>
        <time>2014-09-05T10:52:51Z</time>
      </trkpt>
      <trkpt lat="44.81253" lon="5.32027">
        <ele>869.65</ele>
        <time>2014-09-05T10:52:52Z</time>
      </trkpt>
      <trkpt lat="44.81254" lon="5.32021">
        <ele>870.13</ele>
        <time>2014-09-05T10:52:53Z</time>
      </trkpt>
      <trkpt lat="44.81254" lon="5.32015">
        <ele>869.65</ele>
        <time>2014-09-05T10:52:54Z</time>
      </trkpt>
      <trkpt lat="44.81254" lon="5.32009">
        <ele>869.17</ele>
        <time>2014-09-05T10:52:55Z</time>
      </trkpt>
      <trkpt lat="44.81255" lon="5.32003">
        <ele>868.69</ele>
        <time>2014-09-05T10:52:56Z</time>
      </trkpt>
      <trkpt lat="44.81256" lon="5.31996">
        <ele>868.21</ele>
        <time>2014-09-05T10:52:57Z</time>
      </trkpt>
      <trkpt lat="44.81256" lon="5.31989">
        <ele>867.73</ele>
        <time>2014-09-05T10:52:58Z</time>
      </trkpt>
      <trkpt lat="44.81256" lon="5.31984">
        <ele>867.25</ele>
        <time>2014-09-05T10:52:59Z</time>
      </trkpt>
      <trkpt lat="44.81256" lon="5.31976">
        <ele>866.29</ele>
        <time>2014-09-05T10:53:01Z</time>
      </trkpt>
      <trkpt lat="44.81264" lon="5.31948">
        <ele>863.4</ele>
        <time>2014-09-05T10:53:09Z</time>
      </trkpt>
      <trkpt lat="44.81266" lon="5.31945">
        <ele>863.4</ele>
        <time>2014-09-05T10:53:10Z</time>
      </trkpt>
      <trkpt lat="44.81272" lon="5.31934">
        <ele>862.44</ele>
        <time>2014-09-05T10:53:14Z</time>
      </trkpt>
      <trkpt lat="44.81286" lon="5.31908">
        <ele>861</ele>
        <time>2014-09-05T10:53:22Z</time>
      </trkpt>
      <trkpt lat="44.81292" lon="5.31886">
        <ele>858.59</ele>
        <time>2014-09-05T10:53:30Z</time>
      </trkpt>
      <trkpt lat="44.81293" lon="5.31883">
        <ele>857.63</ele>
        <time>2014-09-05T10:53:31Z</time>
      </trkpt>
      <trkpt lat="44.81294" lon="5.3188">
        <ele>858.11</ele>
        <time>2014-09-05T10:53:32Z</time>
      </trkpt>
      <trkpt lat="44.81297" lon="5.31876">
        <ele>857.15</ele>
        <time>2014-09-05T10:53:39Z</time>
      </trkpt>
      <trkpt lat="44.81297" lon="5.31875">
        <ele>856.67</ele>
        <time>2014-09-05T10:53:48Z</time>
      </trkpt>
      <trkpt lat="44.81296" lon="5.31876">
        <ele>856.19</ele>
        <time>2014-09-05T10:53:50Z</time>
      </trkpt>
      <trkpt lat="44.81295" lon="5.31878">
        <ele>855.71</ele>
        <time>2014-09-05T10:53:52Z</time>
      </trkpt>
      <trkpt lat="44.81295" lon="5.3188">
        <ele>855.71</ele>
        <time>2014-09-05T10:53:53Z</time>
      </trkpt>
      <trkpt lat="44.81294" lon="5.31882">
        <ele>855.71</ele>
        <time>2014-09-05T10:53:54Z</time>
      </trkpt>
      <trkpt lat="44.81287" lon="5.3189">
        <ele>854.27</ele>
        <time>2014-09-05T10:54:01Z</time>
      </trkpt>
      <trkpt lat="44.81283" lon="5.31887">
        <ele>852.83</ele>
        <time>2014-09-05T10:54:04Z</time>
      </trkpt>
      <trkpt lat="44.81282" lon="5.31888">
        <ele>852.83</ele>
        <time>2014-09-05T10:54:05Z</time>
      </trkpt>
      <trkpt lat="44.81281" lon="5.3189">
        <ele>852.35</ele>
        <time>2014-09-05T10:54:06Z</time>
      </trkpt>
      <trkpt lat="44.8128" lon="5.31892">
        <ele>851.87</ele>
        <time>2014-09-05T10:54:07Z</time>
      </trkpt>
      <trkpt lat="44.81276" lon="5.31897">
        <ele>851.87</ele>
        <time>2014-09-05T10:54:09Z</time>
      </trkpt>
      <trkpt lat="44.81273" lon="5.31899">
        <ele>851.38</ele>
        <time>2014-09-05T10:54:10Z</time>
      </trkpt>
      <trkpt lat="44.81266" lon="5.31899">
        <ele>849.94</ele>
        <time>2014-09-05T10:54:13Z</time>
      </trkpt>
      <trkpt lat="44.81263" lon="5.31901">
        <ele>849.46</ele>
        <time>2014-09-05T10:54:14Z</time>
      </trkpt>
      <trkpt lat="44.8126" lon="5.31903">
        <ele>849.46</ele>
        <time>2014-09-05T10:54:15Z</time>
      </trkpt>
      <trkpt lat="44.81233" lon="5.31932">
        <ele>846.58</ele>
        <time>2014-09-05T10:54:23Z</time>
      </trkpt>
      <trkpt lat="44.81226" lon="5.3195">
        <ele>844.66</ele>
        <time>2014-09-05T10:54:27Z</time>
      </trkpt>
      <trkpt lat="44.81223" lon="5.31953">
        <ele>844.66</ele>
        <time>2014-09-05T10:54:28Z</time>
      </trkpt>
      <trkpt lat="44.81221" lon="5.31957">
        <ele>843.69</ele>
        <time>2014-09-05T10:54:29Z</time>
      </trkpt>
      <trkpt lat="44.81218" lon="5.31961">
        <ele>843.69</ele>
        <time>2014-09-05T10:54:30Z</time>
      </trkpt>
      <trkpt lat="44.81194" lon="5.32001">
        <ele>841.77</ele>
        <time>2014-09-05T10:54:38Z</time>
      </trkpt>
      <trkpt lat="44.8118" lon="5.32034">
        <ele>838.89</ele>
        <time>2014-09-05T10:54:47Z</time>
      </trkpt>
      <trkpt lat="44.81177" lon="5.32046">
        <ele>837.45</ele>
        <time>2014-09-05T10:54:55Z</time>
      </trkpt>
      <trkpt lat="44.81176" lon="5.32042">
        <ele>836.96</ele>
        <time>2014-09-05T10:55:08Z</time>
      </trkpt>
      <trkpt lat="44.81176" lon="5.3204">
        <ele>836.48</ele>
        <time>2014-09-05T10:55:09Z</time>
      </trkpt>
      <trkpt lat="44.81176" lon="5.32036">
        <ele>836.48</ele>
        <time>2014-09-05T10:55:10Z</time>
      </trkpt>
      <trkpt lat="44.81175" lon="5.32033">
        <ele>836</ele>
        <time>2014-09-05T10:55:11Z</time>
      </trkpt>
      <trkpt lat="44.81175" lon="5.3203">
        <ele>835.52</ele>
        <time>2014-09-05T10:55:12Z</time>
      </trkpt>
      <trkpt lat="44.81175" lon="5.32025">
        <ele>835.52</ele>
        <time>2014-09-05T10:55:13Z</time>
      </trkpt>
      <trkpt lat="44.81171" lon="5.31991">
        <ele>832.64</ele>
        <time>2014-09-05T10:55:21Z</time>
      </trkpt>
      <trkpt lat="44.81178" lon="5.31959">
        <ele>830.72</ele>
        <time>2014-09-05T10:55:29Z</time>
      </trkpt>
      <trkpt lat="44.81182" lon="5.31928">
        <ele>828.31</ele>
        <time>2014-09-05T10:55:36Z</time>
      </trkpt>
      <trkpt lat="44.81181" lon="5.31925">
        <ele>828.31</ele>
        <time>2014-09-05T10:55:37Z</time>
      </trkpt>
      <trkpt lat="44.8118" lon="5.31921">
        <ele>827.35</ele>
        <time>2014-09-05T10:55:38Z</time>
      </trkpt>
      <trkpt lat="44.81179" lon="5.31918">
        <ele>827.35</ele>
        <time>2014-09-05T10:55:39Z</time>
      </trkpt>
      <trkpt lat="44.8118" lon="5.31914">
        <ele>827.35</ele>
        <time>2014-09-05T10:55:40Z</time>
      </trkpt>
      <trkpt lat="44.81181" lon="5.3191">
        <ele>826.39</ele>
        <time>2014-09-05T10:55:41Z</time>
      </trkpt>
      <trkpt lat="44.81186" lon="5.31896">
        <ele>825.91</ele>
        <time>2014-09-05T10:55:46Z</time>
      </trkpt>
      <trkpt lat="44.81188" lon="5.31896">
        <ele>825.91</ele>
        <time>2014-09-05T10:55:47Z</time>
      </trkpt>
      <trkpt lat="44.8119" lon="5.31895">
        <ele>825.43</ele>
        <time>2014-09-05T10:55:48Z</time>
      </trkpt>
      <trkpt lat="44.81191" lon="5.31891">
        <ele>824.95</ele>
        <time>2014-09-05T10:55:50Z</time>
      </trkpt>
      <trkpt lat="44.81192" lon="5.31887">
        <ele>824.47</ele>
        <time>2014-09-05T10:55:52Z</time>
      </trkpt>
      <trkpt lat="44.81193" lon="5.31882">
        <ele>823.51</ele>
        <time>2014-09-05T10:55:57Z</time>
      </trkpt>
      <trkpt lat="44.81195" lon="5.31879">
        <ele>823.51</ele>
        <time>2014-09-05T10:55:58Z</time>
      </trkpt>
      <trkpt lat="44.81197" lon="5.31876">
        <ele>823.03</ele>
        <time>2014-09-05T10:55:59Z</time>
      </trkpt>
      <trkpt lat="44.81198" lon="5.31874">
        <ele>823.03</ele>
        <time>2014-09-05T10:56:00Z</time>
      </trkpt>
      <trkpt lat="44.81199" lon="5.31864">
        <ele>823.51</ele>
        <time>2014-09-05T10:56:06Z</time>
      </trkpt>
      <trkpt lat="44.81199" lon="5.31862">
        <ele>823.51</ele>
        <time>2014-09-05T10:56:07Z</time>
      </trkpt>
      <trkpt lat="44.812" lon="5.3186">
        <ele>823.51</ele>
        <time>2014-09-05T10:56:08Z</time>
      </trkpt>
      <trkpt lat="44.81202" lon="5.31859">
        <ele>823.51</ele>
        <time>2014-09-05T10:56:09Z</time>
      </trkpt>
      <trkpt lat="44.81203" lon="5.31859">
        <ele>823.51</ele>
        <time>2014-09-05T10:56:10Z</time>
      </trkpt>
      <trkpt lat="44.81205" lon="5.31858">
        <ele>823.51</ele>
        <time>2014-09-05T10:56:11Z</time>
      </trkpt>
      <trkpt lat="44.81206" lon="5.31856">
        <ele>823.51</ele>
        <time>2014-09-05T10:56:12Z</time>
      </trkpt>
      <trkpt lat="44.81207" lon="5.31854">
        <ele>823.99</ele>
        <time>2014-09-05T10:56:13Z</time>
      </trkpt>
      <trkpt lat="44.81211" lon="5.31846">
        <ele>823.99</ele>
        <time>2014-09-05T10:56:19Z</time>
      </trkpt>
      <trkpt lat="44.81218" lon="5.31846">
        <ele>824.47</ele>
        <time>2014-09-05T10:56:25Z</time>
      </trkpt>
      <trkpt lat="44.81219" lon="5.31848">
        <ele>824.47</ele>
        <time>2014-09-05T10:56:26Z</time>
      </trkpt>
      <trkpt lat="44.81226" lon="5.31851">
        <ele>824.95</ele>
        <time>2014-09-05T10:56:31Z</time>
      </trkpt>
      <trkpt lat="44.81227" lon="5.31849">
        <ele>824.95</ele>
        <time>2014-09-05T10:56:32Z</time>
      </trkpt>
      <trkpt lat="44.81235" lon="5.31841">
        <ele>824.47</ele>
        <time>2014-09-05T10:56:36Z</time>
      </trkpt>
      <trkpt lat="44.81237" lon="5.31841">
        <ele>824.47</ele>
        <time>2014-09-05T10:56:37Z</time>
      </trkpt>
      <trkpt lat="44.81239" lon="5.31841">
        <ele>824.95</ele>
        <time>2014-09-05T10:56:38Z</time>
      </trkpt>
      <trkpt lat="44.81244" lon="5.31843">
        <ele>824.95</ele>
        <time>2014-09-05T10:56:42Z</time>
      </trkpt>
      <trkpt lat="44.81246" lon="5.31843">
        <ele>824.47</ele>
        <time>2014-09-05T10:56:43Z</time>
      </trkpt>
      <trkpt lat="44.81256" lon="5.31837">
        <ele>824.47</ele>
        <time>2014-09-05T10:56:48Z</time>
      </trkpt>
      <trkpt lat="44.81258" lon="5.31835">
        <ele>824.47</ele>
        <time>2014-09-05T10:56:49Z</time>
      </trkpt>
      <trkpt lat="44.81261" lon="5.3183">
        <ele>824.47</ele>
        <time>2014-09-05T10:56:51Z</time>
      </trkpt>
      <trkpt lat="44.81266" lon="5.31814">
        <ele>823.99</ele>
        <time>2014-09-05T10:56:56Z</time>
      </trkpt>
      <trkpt lat="44.81285" lon="5.31806">
        <ele>824.47</ele>
        <time>2014-09-05T10:57:04Z</time>
      </trkpt>
      <trkpt lat="44.81286" lon="5.31803">
        <ele>824.47</ele>
        <time>2014-09-05T10:57:05Z</time>
      </trkpt>
      <trkpt lat="44.81286" lon="5.318">
        <ele>823.99</ele>
        <time>2014-09-05T10:57:06Z</time>
      </trkpt>
      <trkpt lat="44.81288" lon="5.3179">
        <ele>823.99</ele>
        <time>2014-09-05T10:57:09Z</time>
      </trkpt>
      <trkpt lat="44.8129" lon="5.31787">
        <ele>824.47</ele>
        <time>2014-09-05T10:57:10Z</time>
      </trkpt>
      <trkpt lat="44.81292" lon="5.31785">
        <ele>823.99</ele>
        <time>2014-09-05T10:57:11Z</time>
      </trkpt>
      <trkpt lat="44.813" lon="5.3178">
        <ele>824.47</ele>
        <time>2014-09-05T10:57:15Z</time>
      </trkpt>
      <trkpt lat="44.81311" lon="5.31777">
        <ele>823.99</ele>
        <time>2014-09-05T10:57:20Z</time>
      </trkpt>
      <trkpt lat="44.81313" lon="5.31775">
        <ele>823.99</ele>
        <time>2014-09-05T10:57:21Z</time>
      </trkpt>
      <trkpt lat="44.81315" lon="5.31771">
        <ele>823.99</ele>
        <time>2014-09-05T10:57:22Z</time>
      </trkpt>
      <trkpt lat="44.81317" lon="5.3177">
        <ele>823.99</ele>
        <time>2014-09-05T10:57:23Z</time>
      </trkpt>
      <trkpt lat="44.81319" lon="5.3177">
        <ele>823.99</ele>
        <time>2014-09-05T10:57:24Z</time>
      </trkpt>
      <trkpt lat="44.81321" lon="5.3177">
        <ele>824.47</ele>
        <time>2014-09-05T10:57:25Z</time>
      </trkpt>
      <trkpt lat="44.81326" lon="5.31769">
        <ele>823.99</ele>
        <time>2014-09-05T10:57:28Z</time>
      </trkpt>
      <trkpt lat="44.81327" lon="5.31766">
        <ele>823.99</ele>
        <time>2014-09-05T10:57:29Z</time>
      </trkpt>
      <trkpt lat="44.8133" lon="5.31764">
        <ele>823.51</ele>
        <time>2014-09-05T10:57:30Z</time>
      </trkpt>
      <trkpt lat="44.81332" lon="5.31761">
        <ele>823.51</ele>
        <time>2014-09-05T10:57:31Z</time>
      </trkpt>
      <trkpt lat="44.81334" lon="5.31759">
        <ele>823.51</ele>
        <time>2014-09-05T10:57:32Z</time>
      </trkpt>
      <trkpt lat="44.81337" lon="5.31758">
        <ele>823.03</ele>
        <time>2014-09-05T10:57:33Z</time>
      </trkpt>
      <trkpt lat="44.81344" lon="5.31757">
        <ele>823.51</ele>
        <time>2014-09-05T10:57:35Z</time>
      </trkpt>
      <trkpt lat="44.81346" lon="5.31754">
        <ele>823.51</ele>
        <time>2014-09-05T10:57:36Z</time>
      </trkpt>
      <trkpt lat="44.81368" lon="5.31743">
        <ele>823.51</ele>
        <time>2014-09-05T10:57:45Z</time>
      </trkpt>
      <trkpt lat="44.81384" lon="5.31736">
        <ele>823.03</ele>
        <time>2014-09-05T10:57:54Z</time>
      </trkpt>
      <trkpt lat="44.8139" lon="5.31735">
        <ele>823.51</ele>
        <time>2014-09-05T10:58:02Z</time>
      </trkpt>
      <trkpt lat="44.81392" lon="5.31735">
        <ele>823.51</ele>
        <time>2014-09-05T10:58:09Z</time>
      </trkpt>
      <trkpt lat="44.81407" lon="5.31747">
        <ele>823.99</ele>
        <time>2014-09-05T10:58:17Z</time>
      </trkpt>
      <trkpt lat="44.81413" lon="5.31751">
        <ele>823.99</ele>
        <time>2014-09-05T10:58:22Z</time>
      </trkpt>
      <trkpt lat="44.81427" lon="5.31756">
        <ele>824.95</ele>
        <time>2014-09-05T10:58:32Z</time>
      </trkpt>
      <trkpt lat="44.81436" lon="5.3176">
        <ele>825.43</ele>
        <time>2014-09-05T10:58:40Z</time>
      </trkpt>
      <trkpt lat="44.81438" lon="5.31759">
        <ele>836.48</ele>
        <time>2014-09-05T10:58:41Z</time>
      </trkpt>
      <trkpt lat="44.81438" lon="5.31758">
        <ele>836.96</ele>
        <time>2014-09-05T10:58:42Z</time>
      </trkpt>
      <trkpt lat="44.81438" lon="5.31757">
        <ele>822.06</ele>
        <time>2014-09-05T10:58:43Z</time>
      </trkpt>
      <trkpt lat="44.81438" lon="5.31757">
        <ele>815.34</ele>
        <time>2014-09-05T10:58:44Z</time>
      </trkpt>
      <trkpt lat="44.81439" lon="5.31757">
        <ele>824.95</ele>
        <time>2014-09-05T10:58:45Z</time>
      </trkpt>
      <trkpt lat="44.81439" lon="5.31756">
        <ele>823.51</ele>
        <time>2014-09-05T10:58:46Z</time>
      </trkpt>
      <trkpt lat="44.81438" lon="5.31756">
        <ele>829.27</ele>
        <time>2014-09-05T10:58:47Z</time>
      </trkpt>
      <trkpt lat="44.81439" lon="5.31756">
        <ele>835.04</ele>
        <time>2014-09-05T10:58:48Z</time>
      </trkpt>
      <trkpt lat="44.81439" lon="5.31755">
        <ele>833.6</ele>
        <time>2014-09-05T10:58:49Z</time>
      </trkpt>
      <trkpt lat="44.81439" lon="5.31756">
        <ele>823.99</ele>
        <time>2014-09-05T10:58:50Z</time>
      </trkpt>
      <trkpt lat="44.81439" lon="5.31756">
        <ele>825.91</ele>
        <time>2014-09-05T10:58:51Z</time>
      </trkpt>
      <trkpt lat="44.81449" lon="5.31755">
        <ele>826.39</ele>
        <time>2014-09-05T10:59:01Z</time>
      </trkpt>
      <trkpt lat="44.81472" lon="5.31758">
        <ele>827.83</ele>
        <time>2014-09-05T10:59:10Z</time>
      </trkpt>
      <trkpt lat="44.8149" lon="5.3176">
        <ele>828.31</ele>
        <time>2014-09-05T10:59:17Z</time>
      </trkpt>
      <trkpt lat="44.815" lon="5.3176">
        <ele>828.31</ele>
        <time>2014-09-05T10:59:24Z</time>
      </trkpt>
      <trkpt lat="44.81502" lon="5.3176">
        <ele>828.79</ele>
        <time>2014-09-05T10:59:25Z</time>
      </trkpt>
      <trkpt lat="44.81504" lon="5.31761">
        <ele>829.27</ele>
        <time>2014-09-05T10:59:26Z</time>
      </trkpt>
      <trkpt lat="44.8152" lon="5.31764">
        <ele>828.79</ele>
        <time>2014-09-05T10:59:33Z</time>
      </trkpt>
      <trkpt lat="44.81526" lon="5.31765">
        <ele>829.27</ele>
        <time>2014-09-05T10:59:37Z</time>
      </trkpt>
      <trkpt lat="44.81535" lon="5.31765">
        <ele>829.27</ele>
        <time>2014-09-05T10:59:41Z</time>
      </trkpt>
      <trkpt lat="44.81543" lon="5.31767">
        <ele>829.27</ele>
        <time>2014-09-05T10:59:50Z</time>
      </trkpt>
      <trkpt lat="44.81548" lon="5.31768">
        <ele>829.76</ele>
        <time>2014-09-05T11:00:01Z</time>
      </trkpt>
      <trkpt lat="44.81551" lon="5.31766">
        <ele>829.76</ele>
        <time>2014-09-05T11:00:07Z</time>
      </trkpt>
      <trkpt lat="44.81567" lon="5.31757">
        <ele>829.76</ele>
        <time>2014-09-05T11:00:16Z</time>
      </trkpt>
      <trkpt lat="44.81587" lon="5.31756">
        <ele>829.76</ele>
        <time>2014-09-05T11:00:25Z</time>
      </trkpt>
      <trkpt lat="44.81607" lon="5.31772">
        <ele>830.24</ele>
        <time>2014-09-05T11:00:35Z</time>
      </trkpt>
      <trkpt lat="44.81612" lon="5.31776">
        <ele>830.72</ele>
        <time>2014-09-05T11:00:38Z</time>
      </trkpt>
      <trkpt lat="44.81617" lon="5.31775">
        <ele>829.76</ele>
        <time>2014-09-05T11:00:41Z</time>
      </trkpt>
      <trkpt lat="44.81625" lon="5.31774">
        <ele>830.24</ele>
        <time>2014-09-05T11:00:46Z</time>
      </trkpt>
      <trkpt lat="44.81636" lon="5.31778">
        <ele>829.76</ele>
        <time>2014-09-05T11:00:54Z</time>
      </trkpt>
      <trkpt lat="44.81645" lon="5.3178">
        <ele>829.27</ele>
        <time>2014-09-05T11:01:00Z</time>
      </trkpt>
      <trkpt lat="44.81649" lon="5.3179">
        <ele>829.76</ele>
        <time>2014-09-05T11:01:04Z</time>
      </trkpt>
      <trkpt lat="44.81656" lon="5.31793">
        <ele>829.76</ele>
        <time>2014-09-05T11:01:09Z</time>
      </trkpt>
      <trkpt lat="44.81662" lon="5.31797">
        <ele>829.76</ele>
        <time>2014-09-05T11:01:14Z</time>
      </trkpt>
      <trkpt lat="44.81666" lon="5.31798">
        <ele>830.24</ele>
        <time>2014-09-05T11:01:21Z</time>
      </trkpt>
      <trkpt lat="44.81676" lon="5.31798">
        <ele>829.27</ele>
        <time>2014-09-05T11:01:25Z</time>
      </trkpt>
      <trkpt lat="44.81681" lon="5.31798">
        <ele>829.76</ele>
        <time>2014-09-05T11:01:28Z</time>
      </trkpt>
      <trkpt lat="44.81692" lon="5.31804">
        <ele>829.27</ele>
        <time>2014-09-05T11:01:35Z</time>
      </trkpt>
      <trkpt lat="44.81699" lon="5.31807">
        <ele>829.27</ele>
        <time>2014-09-05T11:01:39Z</time>
      </trkpt>
      <trkpt lat="44.81706" lon="5.31812">
        <ele>829.76</ele>
        <time>2014-09-05T11:01:44Z</time>
      </trkpt>
      <trkpt lat="44.81713" lon="5.31812">
        <ele>830.24</ele>
        <time>2014-09-05T11:01:48Z</time>
      </trkpt>
      <trkpt lat="44.81728" lon="5.31817">
        <ele>830.24</ele>
        <time>2014-09-05T11:01:57Z</time>
      </trkpt>
      <trkpt lat="44.81735" lon="5.31818">
        <ele>830.24</ele>
        <time>2014-09-05T11:02:09Z</time>
      </trkpt>
      <trkpt lat="44.81736" lon="5.31818">
        <ele>830.24</ele>
        <time>2014-09-05T11:02:10Z</time>
      </trkpt>
      <trkpt lat="44.81737" lon="5.31817">
        <ele>829.76</ele>
        <time>2014-09-05T11:02:19Z</time>
      </trkpt>
      <trkpt lat="44.81736" lon="5.31815">
        <ele>830.24</ele>
        <time>2014-09-05T11:02:26Z</time>
      </trkpt>
      <trkpt lat="44.81734" lon="5.31814">
        <ele>830.24</ele>
        <time>2014-09-05T11:02:28Z</time>
      </trkpt>
      <trkpt lat="44.81725" lon="5.31801">
        <ele>830.24</ele>
        <time>2014-09-05T11:02:36Z</time>
      </trkpt>
      <trkpt lat="44.8172" lon="5.31793">
        <ele>831.2</ele>
        <time>2014-09-05T11:02:43Z</time>
      </trkpt>
      <trkpt lat="44.81716" lon="5.31786">
        <ele>831.2</ele>
        <time>2014-09-05T11:02:45Z</time>
      </trkpt>
      <trkpt lat="44.81712" lon="5.31777">
        <ele>831.2</ele>
        <time>2014-09-05T11:02:47Z</time>
      </trkpt>
      <trkpt lat="44.817" lon="5.31752">
        <ele>831.2</ele>
        <time>2014-09-05T11:02:56Z</time>
      </trkpt>
      <trkpt lat="44.81695" lon="5.31739">
        <ele>831.2</ele>
        <time>2014-09-05T11:03:04Z</time>
      </trkpt>
      <trkpt lat="44.81692" lon="5.31732">
        <ele>831.2</ele>
        <time>2014-09-05T11:03:07Z</time>
      </trkpt>
      <trkpt lat="44.81693" lon="5.31718">
        <ele>831.2</ele>
        <time>2014-09-05T11:03:14Z</time>
      </trkpt>
      <trkpt lat="44.81697" lon="5.31713">
        <ele>831.2</ele>
        <time>2014-09-05T11:03:19Z</time>
      </trkpt>
      <trkpt lat="44.81702" lon="5.31701">
        <ele>831.2</ele>
        <time>2014-09-05T11:03:23Z</time>
      </trkpt>
      <trkpt lat="44.8171" lon="5.31681">
        <ele>831.68</ele>
        <time>2014-09-05T11:03:34Z</time>
      </trkpt>
      <trkpt lat="44.81711" lon="5.31681">
        <ele>831.68</ele>
        <time>2014-09-05T11:03:35Z</time>
      </trkpt>
      <trkpt lat="44.81715" lon="5.31675">
        <ele>831.68</ele>
        <time>2014-09-05T11:03:38Z</time>
      </trkpt>
      <trkpt lat="44.81733" lon="5.31647">
        <ele>832.16</ele>
        <time>2014-09-05T11:03:47Z</time>
      </trkpt>
      <trkpt lat="44.81734" lon="5.31644">
        <ele>832.64</ele>
        <time>2014-09-05T11:03:48Z</time>
      </trkpt>
      <trkpt lat="44.81734" lon="5.31629">
        <ele>832.64</ele>
        <time>2014-09-05T11:03:58Z</time>
      </trkpt>
      <trkpt lat="44.81739" lon="5.31615">
        <ele>833.12</ele>
        <time>2014-09-05T11:04:08Z</time>
      </trkpt>
      <trkpt lat="44.81739" lon="5.31613">
        <ele>833.12</ele>
        <time>2014-09-05T11:04:12Z</time>
      </trkpt>
      <trkpt lat="44.81734" lon="5.31609">
        <ele>832.64</ele>
        <time>2014-09-05T11:04:23Z</time>
      </trkpt>
      <trkpt lat="44.81728" lon="5.31608">
        <ele>832.64</ele>
        <time>2014-09-05T11:04:26Z</time>
      </trkpt>
      <trkpt lat="44.81722" lon="5.31602">
        <ele>832.16</ele>
        <time>2014-09-05T11:04:30Z</time>
      </trkpt>
      <trkpt lat="44.81731" lon="5.31575">
        <ele>832.64</ele>
        <time>2014-09-05T11:04:39Z</time>
      </trkpt>
      <trkpt lat="44.81736" lon="5.31555">
        <ele>831.2</ele>
        <time>2014-09-05T11:04:48Z</time>
      </trkpt>
      <trkpt lat="44.81727" lon="5.31554">
        <ele>832.16</ele>
        <time>2014-09-05T11:05:00Z</time>
      </trkpt>
      <trkpt lat="44.81726" lon="5.31554">
        <ele>832.16</ele>
        <time>2014-09-05T11:05:15Z</time>
      </trkpt>
      <trkpt lat="44.81714" lon="5.31561">
        <ele>832.64</ele>
        <time>2014-09-05T11:05:22Z</time>
      </trkpt>
      <trkpt lat="44.81706" lon="5.31571">
        <ele>832.16</ele>
        <time>2014-09-05T11:05:26Z</time>
      </trkpt>
      <trkpt lat="44.81689" lon="5.3158">
        <ele>832.16</ele>
        <time>2014-09-05T11:05:36Z</time>
      </trkpt>
      <trkpt lat="44.81668" lon="5.31574">
        <ele>833.12</ele>
        <time>2014-09-05T11:05:46Z</time>
      </trkpt>
      <trkpt lat="44.81654" lon="5.3157">
        <ele>833.12</ele>
        <time>2014-09-05T11:05:54Z</time>
      </trkpt>
      <trkpt lat="44.81635" lon="5.31566">
        <ele>833.6</ele>
        <time>2014-09-05T11:06:03Z</time>
      </trkpt>
      <trkpt lat="44.81618" lon="5.31552">
        <ele>833.6</ele>
        <time>2014-09-05T11:06:13Z</time>
      </trkpt>
      <trkpt lat="44.81607" lon="5.31532">
        <ele>834.08</ele>
        <time>2014-09-05T11:06:22Z</time>
      </trkpt>
      <trkpt lat="44.81603" lon="5.31513">
        <ele>834.08</ele>
        <time>2014-09-05T11:06:31Z</time>
      </trkpt>
      <trkpt lat="44.81603" lon="5.31513">
        <ele>834.08</ele>
        <time>2014-09-05T11:06:51Z</time>
      </trkpt>
      <trkpt lat="44.81599" lon="5.31507">
        <ele>834.08</ele>
        <time>2014-09-05T11:07:02Z</time>
      </trkpt>
      <trkpt lat="44.81599" lon="5.31502">
        <ele>834.08</ele>
        <time>2014-09-05T11:07:12Z</time>
      </trkpt>
      <trkpt lat="44.81596" lon="5.31495">
        <ele>834.08</ele>
        <time>2014-09-05T11:07:23Z</time>
      </trkpt>
      <trkpt lat="44.81596" lon="5.31491">
        <ele>833.6</ele>
        <time>2014-09-05T11:07:39Z</time>
      </trkpt>
      <trkpt lat="44.81595" lon="5.31487">
        <ele>833.6</ele>
        <time>2014-09-05T11:07:42Z</time>
      </trkpt>
      <trkpt lat="44.81595" lon="5.3148">
        <ele>833.12</ele>
        <time>2014-09-05T11:07:46Z</time>
      </trkpt>
      <trkpt lat="44.81597" lon="5.31448">
        <ele>832.16</ele>
        <time>2014-09-05T11:07:55Z</time>
      </trkpt>
      <trkpt lat="44.816" lon="5.31443">
        <ele>831.68</ele>
        <time>2014-09-05T11:07:58Z</time>
      </trkpt>
      <trkpt lat="44.81599" lon="5.31436">
        <ele>831.68</ele>
        <time>2014-09-05T11:08:01Z</time>
      </trkpt>
      <trkpt lat="44.81593" lon="5.31418">
        <ele>830.72</ele>
        <time>2014-09-05T11:08:07Z</time>
      </trkpt>
      <trkpt lat="44.81592" lon="5.314">
        <ele>829.76</ele>
        <time>2014-09-05T11:08:11Z</time>
      </trkpt>
      <trkpt lat="44.81592" lon="5.31376">
        <ele>829.27</ele>
        <time>2014-09-05T11:08:18Z</time>
      </trkpt>
      <trkpt lat="44.81591" lon="5.31371">
        <ele>829.27</ele>
        <time>2014-09-05T11:08:21Z</time>
      </trkpt>
      <trkpt lat="44.8159" lon="5.31368">
        <ele>829.27</ele>
        <time>2014-09-05T11:08:22Z</time>
      </trkpt>
      <trkpt lat="44.81571" lon="5.31353">
        <ele>829.27</ele>
        <time>2014-09-05T11:08:28Z</time>
      </trkpt>
      <trkpt lat="44.8157" lon="5.31352">
        <ele>828.79</ele>
        <time>2014-09-05T11:08:29Z</time>
      </trkpt>
      <trkpt lat="44.81563" lon="5.3134">
        <ele>829.27</ele>
        <time>2014-09-05T11:08:36Z</time>
      </trkpt>
      <trkpt lat="44.81562" lon="5.31335">
        <ele>828.79</ele>
        <time>2014-09-05T11:08:39Z</time>
      </trkpt>
      <trkpt lat="44.81551" lon="5.3133">
        <ele>828.79</ele>
        <time>2014-09-05T11:08:45Z</time>
      </trkpt>
      <trkpt lat="44.8155" lon="5.31328">
        <ele>828.79</ele>
        <time>2014-09-05T11:08:46Z</time>
      </trkpt>
      <trkpt lat="44.81539" lon="5.31321">
        <ele>827.83</ele>
        <time>2014-09-05T11:08:56Z</time>
      </trkpt>
      <trkpt lat="44.81535" lon="5.31316">
        <ele>827.83</ele>
        <time>2014-09-05T11:08:59Z</time>
      </trkpt>
      <trkpt lat="44.81528" lon="5.31301">
        <ele>827.35</ele>
        <time>2014-09-05T11:09:04Z</time>
      </trkpt>
      <trkpt lat="44.81517" lon="5.31278">
        <ele>826.87</ele>
        <time>2014-09-05T11:09:13Z</time>
      </trkpt>
      <trkpt lat="44.8151" lon="5.31262">
        <ele>826.87</ele>
        <time>2014-09-05T11:09:20Z</time>
      </trkpt>
      <trkpt lat="44.81501" lon="5.31237">
        <ele>826.39</ele>
        <time>2014-09-05T11:09:30Z</time>
      </trkpt>
      <trkpt lat="44.81495" lon="5.31218">
        <ele>825.91</ele>
        <time>2014-09-05T11:09:37Z</time>
      </trkpt>
      <trkpt lat="44.81491" lon="5.31206">
        <ele>825.91</ele>
        <time>2014-09-05T11:09:42Z</time>
      </trkpt>
      <trkpt lat="44.81487" lon="5.31175">
        <ele>825.43</ele>
        <time>2014-09-05T11:09:49Z</time>
      </trkpt>
      <trkpt lat="44.81492" lon="5.31146">
        <ele>825.43</ele>
        <time>2014-09-05T11:09:56Z</time>
      </trkpt>
      <trkpt lat="44.81493" lon="5.31129">
        <ele>824.95</ele>
        <time>2014-09-05T11:10:04Z</time>
      </trkpt>
      <trkpt lat="44.81494" lon="5.31127">
        <ele>824.95</ele>
        <time>2014-09-05T11:10:06Z</time>
      </trkpt>
      <trkpt lat="44.81501" lon="5.31109">
        <ele>824.95</ele>
        <time>2014-09-05T11:10:14Z</time>
      </trkpt>
      <trkpt lat="44.81505" lon="5.31092">
        <ele>824.47</ele>
        <time>2014-09-05T11:10:23Z</time>
      </trkpt>
      <trkpt lat="44.81504" lon="5.31081">
        <ele>824.47</ele>
        <time>2014-09-05T11:10:28Z</time>
      </trkpt>
      <trkpt lat="44.81504" lon="5.31077">
        <ele>824.47</ele>
        <time>2014-09-05T11:10:30Z</time>
      </trkpt>
      <trkpt lat="44.81508" lon="5.31065">
        <ele>824.47</ele>
        <time>2014-09-05T11:10:35Z</time>
      </trkpt>
      <trkpt lat="44.81508" lon="5.31058">
        <ele>824.47</ele>
        <time>2014-09-05T11:10:38Z</time>
      </trkpt>
      <trkpt lat="44.81505" lon="5.31052">
        <ele>824.95</ele>
        <time>2014-09-05T11:10:41Z</time>
      </trkpt>
      <trkpt lat="44.81513" lon="5.3104">
        <ele>824.47</ele>
        <time>2014-09-05T11:10:45Z</time>
      </trkpt>
      <trkpt lat="44.81512" lon="5.31036">
        <ele>824.47</ele>
        <time>2014-09-05T11:10:47Z</time>
      </trkpt>
      <trkpt lat="44.81509" lon="5.31021">
        <ele>824.95</ele>
        <time>2014-09-05T11:10:53Z</time>
      </trkpt>
      <trkpt lat="44.81511" lon="5.31019">
        <ele>824.95</ele>
        <time>2014-09-05T11:10:54Z</time>
      </trkpt>
      <trkpt lat="44.81514" lon="5.31013">
        <ele>824.95</ele>
        <time>2014-09-05T11:11:00Z</time>
      </trkpt>
      <trkpt lat="44.81514" lon="5.30999">
        <ele>824.95</ele>
        <time>2014-09-05T11:11:06Z</time>
      </trkpt>
      <trkpt lat="44.81514" lon="5.30999">
        <ele>824.95</ele>
        <time>2014-09-05T11:11:07Z</time>
      </trkpt>
      <trkpt lat="44.81511" lon="5.30985">
        <ele>824.95</ele>
        <time>2014-09-05T11:11:11Z</time>
      </trkpt>
      <trkpt lat="44.8151" lon="5.30978">
        <ele>825.43</ele>
        <time>2014-09-05T11:11:14Z</time>
      </trkpt>
      <trkpt lat="44.81512" lon="5.3097">
        <ele>825.43</ele>
        <time>2014-09-05T11:11:16Z</time>
      </trkpt>
      <trkpt lat="44.81518" lon="5.30959">
        <ele>825.43</ele>
        <time>2014-09-05T11:11:22Z</time>
      </trkpt>
      <trkpt lat="44.81521" lon="5.30928">
        <ele>825.43</ele>
        <time>2014-09-05T11:11:29Z</time>
      </trkpt>
      <trkpt lat="44.81527" lon="5.30917">
        <ele>825.91</ele>
        <time>2014-09-05T11:11:34Z</time>
      </trkpt>
      <trkpt lat="44.8153" lon="5.30902">
        <ele>825.91</ele>
        <time>2014-09-05T11:11:38Z</time>
      </trkpt>
      <trkpt lat="44.8153" lon="5.30894">
        <ele>826.39</ele>
        <time>2014-09-05T11:11:41Z</time>
      </trkpt>
      <trkpt lat="44.81533" lon="5.30885">
        <ele>825.91</ele>
        <time>2014-09-05T11:11:44Z</time>
      </trkpt>
      <trkpt lat="44.81534" lon="5.30874">
        <ele>825.91</ele>
        <time>2014-09-05T11:11:47Z</time>
      </trkpt>
      <trkpt lat="44.81538" lon="5.30838">
        <ele>825.91</ele>
        <time>2014-09-05T11:11:57Z</time>
      </trkpt>
      <trkpt lat="44.81539" lon="5.30834">
        <ele>825.91</ele>
        <time>2014-09-05T11:11:58Z</time>
      </trkpt>
      <trkpt lat="44.81557" lon="5.30813">
        <ele>826.39</ele>
        <time>2014-09-05T11:12:07Z</time>
      </trkpt>
      <trkpt lat="44.81561" lon="5.30814">
        <ele>825.91</ele>
        <time>2014-09-05T11:12:11Z</time>
      </trkpt>
      <trkpt lat="44.81564" lon="5.3081">
        <ele>825.91</ele>
        <time>2014-09-05T11:12:15Z</time>
      </trkpt>
      <trkpt lat="44.81564" lon="5.30805">
        <ele>826.39</ele>
        <time>2014-09-05T11:12:17Z</time>
      </trkpt>
      <trkpt lat="44.81574" lon="5.3079">
        <ele>825.91</ele>
        <time>2014-09-05T11:12:25Z</time>
      </trkpt>
      <trkpt lat="44.81575" lon="5.30788">
        <ele>826.39</ele>
        <time>2014-09-05T11:12:26Z</time>
      </trkpt>
      <trkpt lat="44.81578" lon="5.3077">
        <ele>825.91</ele>
        <time>2014-09-05T11:12:32Z</time>
      </trkpt>
      <trkpt lat="44.8159" lon="5.30766">
        <ele>826.39</ele>
        <time>2014-09-05T11:12:37Z</time>
      </trkpt>
      <trkpt lat="44.81594" lon="5.30761">
        <ele>826.39</ele>
        <time>2014-09-05T11:12:40Z</time>
      </trkpt>
      <trkpt lat="44.81592" lon="5.30754">
        <ele>826.39</ele>
        <time>2014-09-05T11:12:43Z</time>
      </trkpt>
      <trkpt lat="44.81593" lon="5.3075">
        <ele>826.39</ele>
        <time>2014-09-05T11:12:45Z</time>
      </trkpt>
      <trkpt lat="44.81601" lon="5.3075">
        <ele>826.39</ele>
        <time>2014-09-05T11:12:50Z</time>
      </trkpt>
      <trkpt lat="44.81604" lon="5.30744">
        <ele>826.39</ele>
        <time>2014-09-05T11:12:54Z</time>
      </trkpt>
      <trkpt lat="44.81604" lon="5.3073">
        <ele>825.43</ele>
        <time>2014-09-05T11:12:59Z</time>
      </trkpt>
      <trkpt lat="44.81612" lon="5.30722">
        <ele>825.91</ele>
        <time>2014-09-05T11:13:03Z</time>
      </trkpt>
      <trkpt lat="44.81616" lon="5.30713">
        <ele>825.43</ele>
        <time>2014-09-05T11:13:08Z</time>
      </trkpt>
      <trkpt lat="44.81622" lon="5.30706">
        <ele>825.91</ele>
        <time>2014-09-05T11:13:12Z</time>
      </trkpt>
      <trkpt lat="44.81633" lon="5.30698">
        <ele>825.91</ele>
        <time>2014-09-05T11:13:19Z</time>
      </trkpt>
      <trkpt lat="44.81643" lon="5.30685">
        <ele>825.91</ele>
        <time>2014-09-05T11:13:25Z</time>
      </trkpt>
      <trkpt lat="44.81646" lon="5.30682">
        <ele>825.91</ele>
        <time>2014-09-05T11:13:26Z</time>
      </trkpt>
      <trkpt lat="44.81657" lon="5.30678">
        <ele>825.91</ele>
        <time>2014-09-05T11:13:34Z</time>
      </trkpt>
      <trkpt lat="44.81657" lon="5.30678">
        <ele>830.72</ele>
        <time>2014-09-05T11:13:41Z</time>
      </trkpt>
      <trkpt lat="44.81657" lon="5.30678">
        <ele>830.72</ele>
        <time>2014-09-05T11:13:42Z</time>
      </trkpt>
      <trkpt lat="44.81657" lon="5.30678">
        <ele>835.52</ele>
        <time>2014-09-05T11:13:43Z</time>
      </trkpt>
      <trkpt lat="44.81657" lon="5.30678">
        <ele>814.37</ele>
        <time>2014-09-05T11:13:44Z</time>
      </trkpt>
      <trkpt lat="44.81657" lon="5.30678">
        <ele>828.31</ele>
        <time>2014-09-05T11:13:45Z</time>
      </trkpt>
      <trkpt lat="44.81657" lon="5.30678">
        <ele>819.18</ele>
        <time>2014-09-05T11:13:47Z</time>
      </trkpt>
      <trkpt lat="44.81657" lon="5.30678">
        <ele>827.35</ele>
        <time>2014-09-05T11:13:48Z</time>
      </trkpt>
      <trkpt lat="44.81657" lon="5.30678">
        <ele>819.66</ele>
        <time>2014-09-05T11:13:49Z</time>
      </trkpt>
      <trkpt lat="44.81657" lon="5.30678">
        <ele>825.91</ele>
        <time>2014-09-05T11:13:50Z</time>
      </trkpt>
      <trkpt lat="44.81657" lon="5.30678">
        <ele>830.24</ele>
        <time>2014-09-05T11:13:51Z</time>
      </trkpt>
      <trkpt lat="44.81657" lon="5.30678">
        <ele>822.55</ele>
        <time>2014-09-05T11:13:52Z</time>
      </trkpt>
      <trkpt lat="44.81657" lon="5.30678">
        <ele>825.91</ele>
        <time>2014-09-05T11:13:53Z</time>
      </trkpt>
      <trkpt lat="44.81657" lon="5.30678">
        <ele>825.43</ele>
        <time>2014-09-05T11:13:55Z</time>
      </trkpt>
      <trkpt lat="44.8166" lon="5.30663">
        <ele>822.06</ele>
        <time>2014-09-05T11:14:00Z</time>
      </trkpt>
      <trkpt lat="44.81659" lon="5.30656">
        <ele>820.14</ele>
        <time>2014-09-05T11:14:02Z</time>
      </trkpt>
      <trkpt lat="44.81657" lon="5.30646">
        <ele>819.18</ele>
        <time>2014-09-05T11:14:05Z</time>
      </trkpt>
      <trkpt lat="44.81657" lon="5.30643">
        <ele>818.7</ele>
        <time>2014-09-05T11:14:06Z</time>
      </trkpt>
      <trkpt lat="44.81653" lon="5.30629">
        <ele>813.89</ele>
        <time>2014-09-05T11:14:11Z</time>
      </trkpt>
      <trkpt lat="44.81654" lon="5.30624">
        <ele>811.01</ele>
        <time>2014-09-05T11:14:14Z</time>
      </trkpt>
      <trkpt lat="44.81652" lon="5.30615">
        <ele>810.05</ele>
        <time>2014-09-05T11:14:16Z</time>
      </trkpt>
      <trkpt lat="44.81652" lon="5.30604">
        <ele>808.13</ele>
        <time>2014-09-05T11:14:18Z</time>
      </trkpt>
      <trkpt lat="44.81656" lon="5.30589">
        <ele>807.16</ele>
        <time>2014-09-05T11:14:22Z</time>
      </trkpt>
      <trkpt lat="44.81652" lon="5.30575">
        <ele>804.28</ele>
        <time>2014-09-05T11:14:26Z</time>
      </trkpt>
      <trkpt lat="44.81644" lon="5.30558">
        <ele>801.88</ele>
        <time>2014-09-05T11:14:30Z</time>
      </trkpt>
      <trkpt lat="44.81633" lon="5.30524">
        <ele>798.51</ele>
        <time>2014-09-05T11:14:36Z</time>
      </trkpt>
      <trkpt lat="44.8163" lon="5.30503">
        <ele>796.11</ele>
        <time>2014-09-05T11:14:43Z</time>
      </trkpt>
      <trkpt lat="44.81629" lon="5.30499">
        <ele>796.11</ele>
        <time>2014-09-05T11:14:44Z</time>
      </trkpt>
      <trkpt lat="44.81622" lon="5.30482">
        <ele>792.74</ele>
        <time>2014-09-05T11:14:54Z</time>
      </trkpt>
      <trkpt lat="44.81618" lon="5.30472">
        <ele>790.34</ele>
        <time>2014-09-05T11:15:02Z</time>
      </trkpt>
      <trkpt lat="44.81616" lon="5.30465">
        <ele>788.42</ele>
        <time>2014-09-05T11:15:12Z</time>
      </trkpt>
      <trkpt lat="44.81617" lon="5.30465">
        <ele>788.9</ele>
        <time>2014-09-05T11:15:16Z</time>
      </trkpt>
      <trkpt lat="44.81612" lon="5.30452">
        <ele>786.5</ele>
        <time>2014-09-05T11:15:22Z</time>
      </trkpt>
      <trkpt lat="44.81609" lon="5.30447">
        <ele>786.02</ele>
        <time>2014-09-05T11:15:24Z</time>
      </trkpt>
      <trkpt lat="44.81605" lon="5.30437">
        <ele>784.09</ele>
        <time>2014-09-05T11:15:27Z</time>
      </trkpt>
      <trkpt lat="44.81598" lon="5.30426">
        <ele>782.65</ele>
        <time>2014-09-05T11:15:31Z</time>
      </trkpt>
      <trkpt lat="44.81592" lon="5.30413">
        <ele>780.73</ele>
        <time>2014-09-05T11:15:36Z</time>
      </trkpt>
      <trkpt lat="44.81589" lon="5.30408">
        <ele>779.77</ele>
        <time>2014-09-05T11:15:41Z</time>
      </trkpt>
      <trkpt lat="44.81584" lon="5.30401">
        <ele>778.32</ele>
        <time>2014-09-05T11:15:52Z</time>
      </trkpt>
      <trkpt lat="44.81584" lon="5.30401">
        <ele>778.32</ele>
        <time>2014-09-05T11:15:55Z</time>
      </trkpt>
      <trkpt lat="44.81581" lon="5.30393">
        <ele>777.84</ele>
        <time>2014-09-05T11:15:59Z</time>
      </trkpt>
      <trkpt lat="44.81575" lon="5.30371">
        <ele>774</ele>
        <time>2014-09-05T11:16:06Z</time>
      </trkpt>
      <trkpt lat="44.81574" lon="5.30368">
        <ele>773.52</ele>
        <time>2014-09-05T11:16:07Z</time>
      </trkpt>
      <trkpt lat="44.81566" lon="5.30345">
        <ele>771.11</ele>
        <time>2014-09-05T11:16:15Z</time>
      </trkpt>
      <trkpt lat="44.81554" lon="5.30317">
        <ele>767.75</ele>
        <time>2014-09-05T11:16:23Z</time>
      </trkpt>
      <trkpt lat="44.81545" lon="5.30296">
        <ele>765.83</ele>
        <time>2014-09-05T11:16:31Z</time>
      </trkpt>
      <trkpt lat="44.81537" lon="5.30279">
        <ele>762.46</ele>
        <time>2014-09-05T11:16:36Z</time>
      </trkpt>
      <trkpt lat="44.81534" lon="5.30268">
        <ele>761.5</ele>
        <time>2014-09-05T11:16:38Z</time>
      </trkpt>
      <trkpt lat="44.81526" lon="5.30245">
        <ele>759.1</ele>
        <time>2014-09-05T11:16:42Z</time>
      </trkpt>
      <trkpt lat="44.81512" lon="5.30212">
        <ele>756.69</ele>
        <time>2014-09-05T11:16:50Z</time>
      </trkpt>
      <trkpt lat="44.81507" lon="5.30204">
        <ele>756.21</ele>
        <time>2014-09-05T11:16:58Z</time>
      </trkpt>
      <trkpt lat="44.81502" lon="5.30198">
        <ele>753.81</ele>
        <time>2014-09-05T11:17:09Z</time>
      </trkpt>
      <trkpt lat="44.815" lon="5.30196">
        <ele>753.33</ele>
        <time>2014-09-05T11:17:18Z</time>
      </trkpt>
      <trkpt lat="44.815" lon="5.30196">
        <ele>758.62</ele>
        <time>2014-09-05T11:17:19Z</time>
      </trkpt>
      <trkpt lat="44.815" lon="5.30196">
        <ele>756.69</ele>
        <time>2014-09-05T11:17:20Z</time>
      </trkpt>
      <trkpt lat="44.815" lon="5.30196">
        <ele>763.9</ele>
        <time>2014-09-05T11:17:21Z</time>
      </trkpt>
      <trkpt lat="44.815" lon="5.30196">
        <ele>748.52</ele>
        <time>2014-09-05T11:17:22Z</time>
      </trkpt>
      <trkpt lat="44.815" lon="5.30196">
        <ele>753.81</ele>
        <time>2014-09-05T11:17:23Z</time>
      </trkpt>
      <trkpt lat="44.815" lon="5.30196">
        <ele>753.33</ele>
        <time>2014-09-05T11:17:35Z</time>
      </trkpt>
      <trkpt lat="44.81498" lon="5.30195">
        <ele>752.85</ele>
        <time>2014-09-05T11:17:44Z</time>
      </trkpt>
      <trkpt lat="44.81498" lon="5.30197">
        <ele>752.37</ele>
        <time>2014-09-05T11:17:46Z</time>
      </trkpt>
      <trkpt lat="44.8149" lon="5.3021">
        <ele>750.93</ele>
        <time>2014-09-05T11:17:54Z</time>
      </trkpt>
      <trkpt lat="44.81488" lon="5.30222">
        <ele>749.97</ele>
        <time>2014-09-05T11:18:02Z</time>
      </trkpt>
      <trkpt lat="44.81486" lon="5.3023">
        <ele>748.04</ele>
        <time>2014-09-05T11:18:10Z</time>
      </trkpt>
      <trkpt lat="44.81484" lon="5.30235">
        <ele>745.64</ele>
        <time>2014-09-05T11:18:17Z</time>
      </trkpt>
      <trkpt lat="44.81484" lon="5.30237">
        <ele>745.64</ele>
        <time>2014-09-05T11:18:23Z</time>
      </trkpt>
      <trkpt lat="44.81479" lon="5.30248">
        <ele>744.2</ele>
        <time>2014-09-05T11:18:28Z</time>
      </trkpt>
      <trkpt lat="44.81471" lon="5.30261">
        <ele>741.31</ele>
        <time>2014-09-05T11:18:34Z</time>
      </trkpt>
      <trkpt lat="44.81471" lon="5.30267">
        <ele>739.39</ele>
        <time>2014-09-05T11:18:36Z</time>
      </trkpt>
      <trkpt lat="44.81472" lon="5.30276">
        <ele>737.95</ele>
        <time>2014-09-05T11:18:38Z</time>
      </trkpt>
      <trkpt lat="44.81465" lon="5.30293">
        <ele>736.51</ele>
        <time>2014-09-05T11:18:42Z</time>
      </trkpt>
      <trkpt lat="44.8146" lon="5.30318">
        <ele>732.66</ele>
        <time>2014-09-05T11:18:49Z</time>
      </trkpt>
      <trkpt lat="44.81456" lon="5.30324">
        <ele>730.74</ele>
        <time>2014-09-05T11:18:53Z</time>
      </trkpt>
      <trkpt lat="44.81453" lon="5.3034">
        <ele>728.34</ele>
        <time>2014-09-05T11:19:00Z</time>
      </trkpt>
      <trkpt lat="44.81454" lon="5.30342">
        <ele>728.34</ele>
        <time>2014-09-05T11:19:02Z</time>
      </trkpt>
      <trkpt lat="44.81453" lon="5.30349">
        <ele>727.37</ele>
        <time>2014-09-05T11:19:03Z</time>
      </trkpt>
      <trkpt lat="44.81447" lon="5.30359">
        <ele>727.86</ele>
        <time>2014-09-05T11:19:11Z</time>
      </trkpt>
      <trkpt lat="44.81443" lon="5.30364">
        <ele>728.34</ele>
        <time>2014-09-05T11:19:21Z</time>
      </trkpt>
      <trkpt lat="44.81442" lon="5.30365">
        <ele>728.34</ele>
        <time>2014-09-05T11:19:32Z</time>
      </trkpt>
      <trkpt lat="44.8144" lon="5.30371">
        <ele>729.78</ele>
        <time>2014-09-05T11:19:41Z</time>
      </trkpt>
      <trkpt lat="44.81432" lon="5.30388">
        <ele>730.26</ele>
        <time>2014-09-05T11:19:51Z</time>
      </trkpt>
      <trkpt lat="44.81427" lon="5.30393">
        <ele>731.22</ele>
        <time>2014-09-05T11:20:00Z</time>
      </trkpt>
      <trkpt lat="44.81426" lon="5.30394">
        <ele>730.74</ele>
        <time>2014-09-05T11:20:01Z</time>
      </trkpt>
      <trkpt lat="44.81407" lon="5.30414">
        <ele>730.74</ele>
        <time>2014-09-05T11:20:09Z</time>
      </trkpt>
      <trkpt lat="44.81388" lon="5.30443">
        <ele>731.22</ele>
        <time>2014-09-05T11:20:20Z</time>
      </trkpt>
      <trkpt lat="44.81368" lon="5.30468">
        <ele>730.74</ele>
        <time>2014-09-05T11:20:30Z</time>
      </trkpt>
      <trkpt lat="44.81347" lon="5.30492">
        <ele>729.78</ele>
        <time>2014-09-05T11:20:38Z</time>
      </trkpt>
      <trkpt lat="44.81332" lon="5.30516">
        <ele>725.93</ele>
        <time>2014-09-05T11:20:46Z</time>
      </trkpt>
      <trkpt lat="44.81333" lon="5.30516">
        <ele>725.93</ele>
        <time>2014-09-05T11:20:57Z</time>
      </trkpt>
      <trkpt lat="44.81333" lon="5.30516">
        <ele>726.89</ele>
        <time>2014-09-05T11:21:11Z</time>
      </trkpt>
      <trkpt lat="44.81333" lon="5.30516">
        <ele>726.89</ele>
        <time>2014-09-05T11:21:21Z</time>
      </trkpt>
      <trkpt lat="44.81331" lon="5.30523">
        <ele>725.45</ele>
        <time>2014-09-05T11:21:29Z</time>
      </trkpt>
      <trkpt lat="44.8133" lon="5.30525">
        <ele>725.45</ele>
        <time>2014-09-05T11:21:33Z</time>
      </trkpt>
      <trkpt lat="44.81324" lon="5.30542">
        <ele>723.05</ele>
        <time>2014-09-05T11:21:41Z</time>
      </trkpt>
      <trkpt lat="44.81315" lon="5.30552">
        <ele>723.53</ele>
        <time>2014-09-05T11:21:48Z</time>
      </trkpt>
      <trkpt lat="44.81304" lon="5.30561">
        <ele>725.45</ele>
        <time>2014-09-05T11:21:54Z</time>
      </trkpt>
      <trkpt lat="44.81291" lon="5.30584">
        <ele>728.34</ele>
        <time>2014-09-05T11:22:07Z</time>
      </trkpt>
      <trkpt lat="44.81285" lon="5.30596">
        <ele>729.3</ele>
        <time>2014-09-05T11:22:16Z</time>
      </trkpt>
      <trkpt lat="44.81273" lon="5.30614">
        <ele>729.3</ele>
        <time>2014-09-05T11:22:26Z</time>
      </trkpt>
      <trkpt lat="44.81271" lon="5.30617">
        <ele>729.78</ele>
        <time>2014-09-05T11:22:28Z</time>
      </trkpt>
      <trkpt lat="44.81256" lon="5.30636">
        <ele>728.82</ele>
        <time>2014-09-05T11:22:39Z</time>
      </trkpt>
      <trkpt lat="44.81252" lon="5.30643">
        <ele>728.82</ele>
        <time>2014-09-05T11:22:42Z</time>
      </trkpt>
      <trkpt lat="44.81248" lon="5.30649">
        <ele>728.34</ele>
        <time>2014-09-05T11:22:45Z</time>
      </trkpt>
      <trkpt lat="44.81241" lon="5.30657">
        <ele>728.34</ele>
        <time>2014-09-05T11:22:47Z</time>
      </trkpt>
      <trkpt lat="44.81231" lon="5.30669">
        <ele>728.34</ele>
        <time>2014-09-05T11:22:51Z</time>
      </trkpt>
      <trkpt lat="44.81222" lon="5.30682">
        <ele>727.37</ele>
        <time>2014-09-05T11:22:56Z</time>
      </trkpt>
      <trkpt lat="44.81207" lon="5.30696">
        <ele>726.89</ele>
        <time>2014-09-05T11:23:05Z</time>
      </trkpt>
      <trkpt lat="44.81197" lon="5.30706">
        <ele>729.3</ele>
        <time>2014-09-05T11:23:15Z</time>
      </trkpt>
      <trkpt lat="44.81195" lon="5.3071">
        <ele>727.86</ele>
        <time>2014-09-05T11:23:25Z</time>
      </trkpt>
      <trkpt lat="44.81194" lon="5.3071">
        <ele>726.89</ele>
        <time>2014-09-05T11:23:39Z</time>
      </trkpt>
      <trkpt lat="44.81193" lon="5.30711">
        <ele>727.86</ele>
        <time>2014-09-05T11:24:06Z</time>
      </trkpt>
      <trkpt lat="44.81193" lon="5.30712">
        <ele>726.89</ele>
        <time>2014-09-05T11:24:17Z</time>
      </trkpt>
      <trkpt lat="44.81192" lon="5.3072">
        <ele>727.37</ele>
        <time>2014-09-05T11:24:22Z</time>
      </trkpt>
      <trkpt lat="44.81181" lon="5.30748">
        <ele>726.89</ele>
        <time>2014-09-05T11:24:32Z</time>
      </trkpt>
      <trkpt lat="44.81167" lon="5.30782">
        <ele>727.86</ele>
        <time>2014-09-05T11:24:43Z</time>
      </trkpt>
      <trkpt lat="44.81161" lon="5.3079">
        <ele>727.86</ele>
        <time>2014-09-05T11:24:47Z</time>
      </trkpt>
      <trkpt lat="44.81155" lon="5.30807">
        <ele>725.93</ele>
        <time>2014-09-05T11:24:52Z</time>
      </trkpt>
      <trkpt lat="44.81147" lon="5.30822">
        <ele>723.53</ele>
        <time>2014-09-05T11:24:57Z</time>
      </trkpt>
      <trkpt lat="44.8114" lon="5.30834">
        <ele>721.61</ele>
        <time>2014-09-05T11:25:01Z</time>
      </trkpt>
      <trkpt lat="44.81135" lon="5.30846">
        <ele>719.68</ele>
        <time>2014-09-05T11:25:05Z</time>
      </trkpt>
      <trkpt lat="44.81134" lon="5.30849">
        <ele>718.72</ele>
        <time>2014-09-05T11:25:06Z</time>
      </trkpt>
      <trkpt lat="44.81135" lon="5.30853">
        <ele>717.76</ele>
        <time>2014-09-05T11:25:13Z</time>
      </trkpt>
      <trkpt lat="44.81136" lon="5.30862">
        <ele>715.84</ele>
        <time>2014-09-05T11:25:24Z</time>
      </trkpt>
      <trkpt lat="44.81136" lon="5.30865">
        <ele>714.4</ele>
        <time>2014-09-05T11:25:44Z</time>
      </trkpt>
      <trkpt lat="44.81136" lon="5.30868">
        <ele>713.92</ele>
        <time>2014-09-05T11:25:48Z</time>
      </trkpt>
      <trkpt lat="44.81131" lon="5.30883">
        <ele>711.51</ele>
        <time>2014-09-05T11:25:59Z</time>
      </trkpt>
      <trkpt lat="44.81128" lon="5.30893">
        <ele>709.11</ele>
        <time>2014-09-05T11:26:09Z</time>
      </trkpt>
      <trkpt lat="44.81127" lon="5.30905">
        <ele>706.71</ele>
        <time>2014-09-05T11:26:20Z</time>
      </trkpt>
      <trkpt lat="44.81127" lon="5.30906">
        <ele>706.71</ele>
        <time>2014-09-05T11:26:24Z</time>
      </trkpt>
      <trkpt lat="44.81121" lon="5.30918">
        <ele>705.26</ele>
        <time>2014-09-05T11:26:29Z</time>
      </trkpt>
      <trkpt lat="44.81115" lon="5.30917">
        <ele>705.26</ele>
        <time>2014-09-05T11:26:34Z</time>
      </trkpt>
      <trkpt lat="44.81111" lon="5.30938">
        <ele>703.34</ele>
        <time>2014-09-05T11:26:39Z</time>
      </trkpt>
      <trkpt lat="44.81112" lon="5.30957">
        <ele>699.98</ele>
        <time>2014-09-05T11:26:43Z</time>
      </trkpt>
      <trkpt lat="44.81113" lon="5.30967">
        <ele>699.5</ele>
        <time>2014-09-05T11:26:45Z</time>
      </trkpt>
      <trkpt lat="44.81118" lon="5.30974">
        <ele>698.53</ele>
        <time>2014-09-05T11:26:47Z</time>
      </trkpt>
      <trkpt lat="44.81123" lon="5.30976">
        <ele>697.57</ele>
        <time>2014-09-05T11:26:48Z</time>
      </trkpt>
      <trkpt lat="44.81126" lon="5.30977">
        <ele>698.05</ele>
        <time>2014-09-05T11:26:49Z</time>
      </trkpt>
      <trkpt lat="44.81128" lon="5.30979">
        <ele>698.05</ele>
        <time>2014-09-05T11:26:50Z</time>
      </trkpt>
      <trkpt lat="44.81129" lon="5.30982">
        <ele>698.53</ele>
        <time>2014-09-05T11:26:51Z</time>
      </trkpt>
      <trkpt lat="44.8113" lon="5.30984">
        <ele>698.53</ele>
        <time>2014-09-05T11:26:52Z</time>
      </trkpt>
      <trkpt lat="44.8113" lon="5.30987">
        <ele>698.53</ele>
        <time>2014-09-05T11:26:53Z</time>
      </trkpt>
      <trkpt lat="44.8113" lon="5.3099">
        <ele>698.53</ele>
        <time>2014-09-05T11:26:54Z</time>
      </trkpt>
      <trkpt lat="44.81135" lon="5.31021">
        <ele>699.98</ele>
        <time>2014-09-05T11:27:03Z</time>
      </trkpt>
      <trkpt lat="44.81138" lon="5.31032">
        <ele>699.5</ele>
        <time>2014-09-05T11:27:06Z</time>
      </trkpt>
      <trkpt lat="44.81137" lon="5.31035">
        <ele>699.98</ele>
        <time>2014-09-05T11:27:07Z</time>
      </trkpt>
      <trkpt lat="44.81135" lon="5.31037">
        <ele>699.98</ele>
        <time>2014-09-05T11:27:08Z</time>
      </trkpt>
      <trkpt lat="44.81133" lon="5.31038">
        <ele>700.46</ele>
        <time>2014-09-05T11:27:09Z</time>
      </trkpt>
      <trkpt lat="44.81131" lon="5.31039">
        <ele>700.46</ele>
        <time>2014-09-05T11:27:10Z</time>
      </trkpt>
      <trkpt lat="44.81129" lon="5.31039">
        <ele>700.46</ele>
        <time>2014-09-05T11:27:11Z</time>
      </trkpt>
      <trkpt lat="44.81112" lon="5.31049">
        <ele>701.9</ele>
        <time>2014-09-05T11:27:19Z</time>
      </trkpt>
      <trkpt lat="44.8109" lon="5.31053">
        <ele>700.46</ele>
        <time>2014-09-05T11:27:28Z</time>
      </trkpt>
      <trkpt lat="44.81059" lon="5.31055">
        <ele>699.5</ele>
        <time>2014-09-05T11:27:36Z</time>
      </trkpt>
      <trkpt lat="44.81024" lon="5.31044">
        <ele>699.02</ele>
        <time>2014-09-05T11:27:47Z</time>
      </trkpt>
      <trkpt lat="44.81009" lon="5.31042">
        <ele>697.57</ele>
        <time>2014-09-05T11:27:51Z</time>
      </trkpt>
      <trkpt lat="44.81004" lon="5.31043">
        <ele>697.57</ele>
        <time>2014-09-05T11:27:52Z</time>
      </trkpt>
      <trkpt lat="44.81" lon="5.31045">
        <ele>697.57</ele>
        <time>2014-09-05T11:27:53Z</time>
      </trkpt>
      <trkpt lat="44.80971" lon="5.31062">
        <ele>695.65</ele>
        <time>2014-09-05T11:27:59Z</time>
      </trkpt>
      <trkpt lat="44.80966" lon="5.31066">
        <ele>695.17</ele>
        <time>2014-09-05T11:28:00Z</time>
      </trkpt>
      <trkpt lat="44.80959" lon="5.31073">
        <ele>694.21</ele>
        <time>2014-09-05T11:28:02Z</time>
      </trkpt>
      <trkpt lat="44.80955" lon="5.31077">
        <ele>693.73</ele>
        <time>2014-09-05T11:28:03Z</time>
      </trkpt>
      <trkpt lat="44.80952" lon="5.3108">
        <ele>693.73</ele>
        <time>2014-09-05T11:28:04Z</time>
      </trkpt>
      <trkpt lat="44.80925" lon="5.31108">
        <ele>691.81</ele>
        <time>2014-09-05T11:28:13Z</time>
      </trkpt>
      <trkpt lat="44.80893" lon="5.31141">
        <ele>690.36</ele>
        <time>2014-09-05T11:28:23Z</time>
      </trkpt>
      <trkpt lat="44.80858" lon="5.31185">
        <ele>687.48</ele>
        <time>2014-09-05T11:28:33Z</time>
      </trkpt>
      <trkpt lat="44.80855" lon="5.31192">
        <ele>687</ele>
        <time>2014-09-05T11:28:34Z</time>
      </trkpt>
      <trkpt lat="44.80851" lon="5.31198">
        <ele>687</ele>
        <time>2014-09-05T11:28:35Z</time>
      </trkpt>
      <trkpt lat="44.80848" lon="5.31202">
        <ele>687</ele>
        <time>2014-09-05T11:28:36Z</time>
      </trkpt>
      <trkpt lat="44.80844" lon="5.31206">
        <ele>687.48</ele>
        <time>2014-09-05T11:28:37Z</time>
      </trkpt>
      <trkpt lat="44.80841" lon="5.31208">
        <ele>687.48</ele>
        <time>2014-09-05T11:28:38Z</time>
      </trkpt>
      <trkpt lat="44.80838" lon="5.31211">
        <ele>687.96</ele>
        <time>2014-09-05T11:28:39Z</time>
      </trkpt>
      <trkpt lat="44.80837" lon="5.31213">
        <ele>688.44</ele>
        <time>2014-09-05T11:28:40Z</time>
      </trkpt>
      <trkpt lat="44.80818" lon="5.31232">
        <ele>687</ele>
        <time>2014-09-05T11:28:48Z</time>
      </trkpt>
      <trkpt lat="44.80796" lon="5.31263">
        <ele>685.56</ele>
        <time>2014-09-05T11:28:56Z</time>
      </trkpt>
      <trkpt lat="44.80776" lon="5.31293">
        <ele>687</ele>
        <time>2014-09-05T11:29:05Z</time>
      </trkpt>
      <trkpt lat="44.8078" lon="5.31312">
        <ele>685.56</ele>
        <time>2014-09-05T11:29:09Z</time>
      </trkpt>
      <trkpt lat="44.80798" lon="5.3133">
        <ele>685.56</ele>
        <time>2014-09-05T11:29:16Z</time>
      </trkpt>
      <trkpt lat="44.8083" lon="5.31342">
        <ele>684.6</ele>
        <time>2014-09-05T11:29:26Z</time>
      </trkpt>
      <trkpt lat="44.80845" lon="5.31345">
        <ele>684.12</ele>
        <time>2014-09-05T11:29:30Z</time>
      </trkpt>
      <trkpt lat="44.80849" lon="5.31346">
        <ele>684.12</ele>
        <time>2014-09-05T11:29:31Z</time>
      </trkpt>
      <trkpt lat="44.80869" lon="5.31354">
        <ele>683.15</ele>
        <time>2014-09-05T11:29:37Z</time>
      </trkpt>
      <trkpt lat="44.80883" lon="5.31365">
        <ele>679.79</ele>
        <time>2014-09-05T11:29:42Z</time>
      </trkpt>
      <trkpt lat="44.80887" lon="5.31367">
        <ele>679.79</ele>
        <time>2014-09-05T11:29:43Z</time>
      </trkpt>
      <trkpt lat="44.80902" lon="5.31373">
        <ele>676.42</ele>
        <time>2014-09-05T11:29:47Z</time>
      </trkpt>
      <trkpt lat="44.80913" lon="5.31377">
        <ele>674.02</ele>
        <time>2014-09-05T11:29:51Z</time>
      </trkpt>
      <trkpt lat="44.80928" lon="5.31389">
        <ele>673.06</ele>
        <time>2014-09-05T11:29:58Z</time>
      </trkpt>
      <trkpt lat="44.80929" lon="5.31392">
        <ele>671.62</ele>
        <time>2014-09-05T11:30:08Z</time>
      </trkpt>
      <trkpt lat="44.80928" lon="5.31397">
        <ele>670.66</ele>
        <time>2014-09-05T11:30:12Z</time>
      </trkpt>
      <trkpt lat="44.80927" lon="5.31398">
        <ele>670.18</ele>
        <time>2014-09-05T11:30:22Z</time>
      </trkpt>
      <trkpt lat="44.80928" lon="5.31398">
        <ele>670.18</ele>
        <time>2014-09-05T11:30:39Z</time>
      </trkpt>
      <trkpt lat="44.80923" lon="5.31399">
        <ele>669.7</ele>
        <time>2014-09-05T11:30:47Z</time>
      </trkpt>
      <trkpt lat="44.80923" lon="5.31399">
        <ele>669.22</ele>
        <time>2014-09-05T11:31:01Z</time>
      </trkpt>
      <trkpt lat="44.80922" lon="5.31399">
        <ele>670.18</ele>
        <time>2014-09-05T11:31:05Z</time>
      </trkpt>
      <trkpt lat="44.80919" lon="5.314">
        <ele>670.18</ele>
        <time>2014-09-05T11:31:07Z</time>
      </trkpt>
      <trkpt lat="44.80918" lon="5.314">
        <ele>670.18</ele>
        <time>2014-09-05T11:31:08Z</time>
      </trkpt>
      <trkpt lat="44.80916" lon="5.31401">
        <ele>671.14</ele>
        <time>2014-09-05T11:31:09Z</time>
      </trkpt>
      <trkpt lat="44.80911" lon="5.31404">
        <ele>672.1</ele>
        <time>2014-09-05T11:31:13Z</time>
      </trkpt>
      <trkpt lat="44.80904" lon="5.3141">
        <ele>674.5</ele>
        <time>2014-09-05T11:31:19Z</time>
      </trkpt>
      <trkpt lat="44.80895" lon="5.3141">
        <ele>677.87</ele>
        <time>2014-09-05T11:31:29Z</time>
      </trkpt>
      <trkpt lat="44.80891" lon="5.31404">
        <ele>679.31</ele>
        <time>2014-09-05T11:31:40Z</time>
      </trkpt>
      <trkpt lat="44.80891" lon="5.31404">
        <ele>681.71</ele>
        <time>2014-09-05T11:31:54Z</time>
      </trkpt>
      <trkpt lat="44.80884" lon="5.31413">
        <ele>675.94</ele>
        <time>2014-09-05T11:32:05Z</time>
      </trkpt>
      <trkpt lat="44.80884" lon="5.31413">
        <ele>683.15</ele>
        <time>2014-09-05T11:32:06Z</time>
      </trkpt>
      <trkpt lat="44.80872" lon="5.31418">
        <ele>682.19</ele>
        <time>2014-09-05T11:32:12Z</time>
      </trkpt>
      <trkpt lat="44.8087" lon="5.31422">
        <ele>682.19</ele>
        <time>2014-09-05T11:32:13Z</time>
      </trkpt>
      <trkpt lat="44.80861" lon="5.31428">
        <ele>682.19</ele>
        <time>2014-09-05T11:32:17Z</time>
      </trkpt>
      <trkpt lat="44.80858" lon="5.31436">
        <ele>683.63</ele>
        <time>2014-09-05T11:32:26Z</time>
      </trkpt>
      <trkpt lat="44.80833" lon="5.31469">
        <ele>685.08</ele>
        <time>2014-09-05T11:32:36Z</time>
      </trkpt>
      <trkpt lat="44.80828" lon="5.3148">
        <ele>685.56</ele>
        <time>2014-09-05T11:32:45Z</time>
      </trkpt>
      <trkpt lat="44.80826" lon="5.3148">
        <ele>685.08</ele>
        <time>2014-09-05T11:32:48Z</time>
      </trkpt>
      <trkpt lat="44.80824" lon="5.3148">
        <ele>685.08</ele>
        <time>2014-09-05T11:32:49Z</time>
      </trkpt>
      <trkpt lat="44.80822" lon="5.3148">
        <ele>685.08</ele>
        <time>2014-09-05T11:32:50Z</time>
      </trkpt>
      <trkpt lat="44.80818" lon="5.3148">
        <ele>684.12</ele>
        <time>2014-09-05T11:32:51Z</time>
      </trkpt>
      <trkpt lat="44.80814" lon="5.31481">
        <ele>684.12</ele>
        <time>2014-09-05T11:32:52Z</time>
      </trkpt>
      <trkpt lat="44.80797" lon="5.31484">
        <ele>683.15</ele>
        <time>2014-09-05T11:32:55Z</time>
      </trkpt>
      <trkpt lat="44.8079" lon="5.31485">
        <ele>683.15</ele>
        <time>2014-09-05T11:32:56Z</time>
      </trkpt>
      <trkpt lat="44.80784" lon="5.31487">
        <ele>681.71</ele>
        <time>2014-09-05T11:32:57Z</time>
      </trkpt>
      <trkpt lat="44.80777" lon="5.31489">
        <ele>681.71</ele>
        <time>2014-09-05T11:32:58Z</time>
      </trkpt>
      <trkpt lat="44.80748" lon="5.31498">
        <ele>678.35</ele>
        <time>2014-09-05T11:33:02Z</time>
      </trkpt>
      <trkpt lat="44.80735" lon="5.31504">
        <ele>677.39</ele>
        <time>2014-09-05T11:33:04Z</time>
      </trkpt>
      <trkpt lat="44.80729" lon="5.31507">
        <ele>676.91</ele>
        <time>2014-09-05T11:33:05Z</time>
      </trkpt>
      <trkpt lat="44.80724" lon="5.31511">
        <ele>675.94</ele>
        <time>2014-09-05T11:33:06Z</time>
      </trkpt>
      <trkpt lat="44.80721" lon="5.31516">
        <ele>675.94</ele>
        <time>2014-09-05T11:33:07Z</time>
      </trkpt>
      <trkpt lat="44.80718" lon="5.31521">
        <ele>675.46</ele>
        <time>2014-09-05T11:33:08Z</time>
      </trkpt>
      <trkpt lat="44.80716" lon="5.31527">
        <ele>675.46</ele>
        <time>2014-09-05T11:33:09Z</time>
      </trkpt>
      <trkpt lat="44.80716" lon="5.31533">
        <ele>674.98</ele>
        <time>2014-09-05T11:33:10Z</time>
      </trkpt>
      <trkpt lat="44.80718" lon="5.3154">
        <ele>674.5</ele>
        <time>2014-09-05T11:33:11Z</time>
      </trkpt>
      <trkpt lat="44.80719" lon="5.31548">
        <ele>673.54</ele>
        <time>2014-09-05T11:33:12Z</time>
      </trkpt>
      <trkpt lat="44.80722" lon="5.31556">
        <ele>673.06</ele>
        <time>2014-09-05T11:33:13Z</time>
      </trkpt>
      <trkpt lat="44.80725" lon="5.31564">
        <ele>672.1</ele>
        <time>2014-09-05T11:33:14Z</time>
      </trkpt>
      <trkpt lat="44.80728" lon="5.31571">
        <ele>671.62</ele>
        <time>2014-09-05T11:33:15Z</time>
      </trkpt>
      <trkpt lat="44.80733" lon="5.31584">
        <ele>670.66</ele>
        <time>2014-09-05T11:33:17Z</time>
      </trkpt>
      <trkpt lat="44.80737" lon="5.31602">
        <ele>669.7</ele>
        <time>2014-09-05T11:33:21Z</time>
      </trkpt>
      <trkpt lat="44.80739" lon="5.31607">
        <ele>669.22</ele>
        <time>2014-09-05T11:33:22Z</time>
      </trkpt>
      <trkpt lat="44.80745" lon="5.31619">
        <ele>668.25</ele>
        <time>2014-09-05T11:33:24Z</time>
      </trkpt>
      <trkpt lat="44.80749" lon="5.31623">
        <ele>667.77</ele>
        <time>2014-09-05T11:33:25Z</time>
      </trkpt>
      <trkpt lat="44.80755" lon="5.3163">
        <ele>666.33</ele>
        <time>2014-09-05T11:33:27Z</time>
      </trkpt>
      <trkpt lat="44.80756" lon="5.31633">
        <ele>665.85</ele>
        <time>2014-09-05T11:33:28Z</time>
      </trkpt>
      <trkpt lat="44.80756" lon="5.31637">
        <ele>665.85</ele>
        <time>2014-09-05T11:33:29Z</time>
      </trkpt>
      <trkpt lat="44.80755" lon="5.31641">
        <ele>666.33</ele>
        <time>2014-09-05T11:33:30Z</time>
      </trkpt>
      <trkpt lat="44.80753" lon="5.31644">
        <ele>665.85</ele>
        <time>2014-09-05T11:33:31Z</time>
      </trkpt>
      <trkpt lat="44.80751" lon="5.31646">
        <ele>665.85</ele>
        <time>2014-09-05T11:33:32Z</time>
      </trkpt>
      <trkpt lat="44.80748" lon="5.31647">
        <ele>665.37</ele>
        <time>2014-09-05T11:33:33Z</time>
      </trkpt>
      <trkpt lat="44.80744" lon="5.31648">
        <ele>666.33</ele>
        <time>2014-09-05T11:33:34Z</time>
      </trkpt>
      <trkpt lat="44.8074" lon="5.31649">
        <ele>665.37</ele>
        <time>2014-09-05T11:33:35Z</time>
      </trkpt>
      <trkpt lat="44.80736" lon="5.31651">
        <ele>665.85</ele>
        <time>2014-09-05T11:33:36Z</time>
      </trkpt>
      <trkpt lat="44.80732" lon="5.31651">
        <ele>666.33</ele>
        <time>2014-09-05T11:33:37Z</time>
      </trkpt>
      <trkpt lat="44.80728" lon="5.31652">
        <ele>665.85</ele>
        <time>2014-09-05T11:33:38Z</time>
      </trkpt>
      <trkpt lat="44.80724" lon="5.31652">
        <ele>665.85</ele>
        <time>2014-09-05T11:33:39Z</time>
      </trkpt>
      <trkpt lat="44.80719" lon="5.31651">
        <ele>665.85</ele>
        <time>2014-09-05T11:33:40Z</time>
      </trkpt>
      <trkpt lat="44.80715" lon="5.31651">
        <ele>666.33</ele>
        <time>2014-09-05T11:33:41Z</time>
      </trkpt>
      <trkpt lat="44.80682" lon="5.31653">
        <ele>667.77</ele>
        <time>2014-09-05T11:33:50Z</time>
      </trkpt>
      <trkpt lat="44.80665" lon="5.31681">
        <ele>669.22</ele>
        <time>2014-09-05T11:33:59Z</time>
      </trkpt>
      <trkpt lat="44.80665" lon="5.31684">
        <ele>669.22</ele>
        <time>2014-09-05T11:34:05Z</time>
      </trkpt>
      <trkpt lat="44.80664" lon="5.31684">
        <ele>668.25</ele>
        <time>2014-09-05T11:34:16Z</time>
      </trkpt>
      <trkpt lat="44.80663" lon="5.31687">
        <ele>668.25</ele>
        <time>2014-09-05T11:34:21Z</time>
      </trkpt>
      <trkpt lat="44.80661" lon="5.3169">
        <ele>667.77</ele>
        <time>2014-09-05T11:34:22Z</time>
      </trkpt>
      <trkpt lat="44.8066" lon="5.31694">
        <ele>667.29</ele>
        <time>2014-09-05T11:34:23Z</time>
      </trkpt>
      <trkpt lat="44.80659" lon="5.31698">
        <ele>667.29</ele>
        <time>2014-09-05T11:34:24Z</time>
      </trkpt>
      <trkpt lat="44.80658" lon="5.31701">
        <ele>666.81</ele>
        <time>2014-09-05T11:34:25Z</time>
      </trkpt>
      <trkpt lat="44.80658" lon="5.31706">
        <ele>666.33</ele>
        <time>2014-09-05T11:34:26Z</time>
      </trkpt>
      <trkpt lat="44.80656" lon="5.31709">
        <ele>665.85</ele>
        <time>2014-09-05T11:34:27Z</time>
      </trkpt>
      <trkpt lat="44.80655" lon="5.31711">
        <ele>665.85</ele>
        <time>2014-09-05T11:34:28Z</time>
      </trkpt>
      <trkpt lat="44.80655" lon="5.31714">
        <ele>665.85</ele>
        <time>2014-09-05T11:34:29Z</time>
      </trkpt>
      <trkpt lat="44.80655" lon="5.31718">
        <ele>665.37</ele>
        <time>2014-09-05T11:34:30Z</time>
      </trkpt>
      <trkpt lat="44.80654" lon="5.31725">
        <ele>664.41</ele>
        <time>2014-09-05T11:34:32Z</time>
      </trkpt>
      <trkpt lat="44.80652" lon="5.3173">
        <ele>664.41</ele>
        <time>2014-09-05T11:34:33Z</time>
      </trkpt>
      <trkpt lat="44.8065" lon="5.31755">
        <ele>662.97</ele>
        <time>2014-09-05T11:34:37Z</time>
      </trkpt>
      <trkpt lat="44.80648" lon="5.3177">
        <ele>662.97</ele>
        <time>2014-09-05T11:34:39Z</time>
      </trkpt>
      <trkpt lat="44.80647" lon="5.31778">
        <ele>662.97</ele>
        <time>2014-09-05T11:34:40Z</time>
      </trkpt>
      <trkpt lat="44.80643" lon="5.31783">
        <ele>662.49</ele>
        <time>2014-09-05T11:34:41Z</time>
      </trkpt>
      <trkpt lat="44.80639" lon="5.31787">
        <ele>662.97</ele>
        <time>2014-09-05T11:34:42Z</time>
      </trkpt>
      <trkpt lat="44.80636" lon="5.31788">
        <ele>662.97</ele>
        <time>2014-09-05T11:34:43Z</time>
      </trkpt>
      <trkpt lat="44.80632" lon="5.3179">
        <ele>662.97</ele>
        <time>2014-09-05T11:34:44Z</time>
      </trkpt>
      <trkpt lat="44.80621" lon="5.31796">
        <ele>662.97</ele>
        <time>2014-09-05T11:34:48Z</time>
      </trkpt>
      <trkpt lat="44.80619" lon="5.31797">
        <ele>662.97</ele>
        <time>2014-09-05T11:34:49Z</time>
      </trkpt>
      <trkpt lat="44.80617" lon="5.31797">
        <ele>662.97</ele>
        <time>2014-09-05T11:34:50Z</time>
      </trkpt>
      <trkpt lat="44.80616" lon="5.31797">
        <ele>663.45</ele>
        <time>2014-09-05T11:34:51Z</time>
      </trkpt>
      <trkpt lat="44.80614" lon="5.31797">
        <ele>663.45</ele>
        <time>2014-09-05T11:34:52Z</time>
      </trkpt>
      <trkpt lat="44.80584" lon="5.3181">
        <ele>663.93</ele>
        <time>2014-09-05T11:35:01Z</time>
      </trkpt>
      <trkpt lat="44.80561" lon="5.31848">
        <ele>662.01</ele>
        <time>2014-09-05T11:35:09Z</time>
      </trkpt>
      <trkpt lat="44.80556" lon="5.31861">
        <ele>661.52</ele>
        <time>2014-09-05T11:35:11Z</time>
      </trkpt>
      <trkpt lat="44.80553" lon="5.31874">
        <ele>660.56</ele>
        <time>2014-09-05T11:35:13Z</time>
      </trkpt>
      <trkpt lat="44.80551" lon="5.3188">
        <ele>660.08</ele>
        <time>2014-09-05T11:35:14Z</time>
      </trkpt>
      <trkpt lat="44.80537" lon="5.31907">
        <ele>659.6</ele>
        <time>2014-09-05T11:35:20Z</time>
      </trkpt>
      <trkpt lat="44.80508" lon="5.31947">
        <ele>660.08</ele>
        <time>2014-09-05T11:35:30Z</time>
      </trkpt>
      <trkpt lat="44.80483" lon="5.31981">
        <ele>660.08</ele>
        <time>2014-09-05T11:35:38Z</time>
      </trkpt>
      <trkpt lat="44.80462" lon="5.32011">
        <ele>659.6</ele>
        <time>2014-09-05T11:35:47Z</time>
      </trkpt>
      <trkpt lat="44.8045" lon="5.32033">
        <ele>659.6</ele>
        <time>2014-09-05T11:35:53Z</time>
      </trkpt>
      <trkpt lat="44.8045" lon="5.32037">
        <ele>659.12</ele>
        <time>2014-09-05T11:35:54Z</time>
      </trkpt>
      <trkpt lat="44.8045" lon="5.32041">
        <ele>659.12</ele>
        <time>2014-09-05T11:35:55Z</time>
      </trkpt>
      <trkpt lat="44.80449" lon="5.32044">
        <ele>658.64</ele>
        <time>2014-09-05T11:35:56Z</time>
      </trkpt>
      <trkpt lat="44.80448" lon="5.32047">
        <ele>658.16</ele>
        <time>2014-09-05T11:35:57Z</time>
      </trkpt>
      <trkpt lat="44.80446" lon="5.32049">
        <ele>657.68</ele>
        <time>2014-09-05T11:35:58Z</time>
      </trkpt>
      <trkpt lat="44.80444" lon="5.32052">
        <ele>657.68</ele>
        <time>2014-09-05T11:35:59Z</time>
      </trkpt>
      <trkpt lat="44.80444" lon="5.32055">
        <ele>657.2</ele>
        <time>2014-09-05T11:36:00Z</time>
      </trkpt>
      <trkpt lat="44.80444" lon="5.32059">
        <ele>657.2</ele>
        <time>2014-09-05T11:36:01Z</time>
      </trkpt>
      <trkpt lat="44.80444" lon="5.32063">
        <ele>657.2</ele>
        <time>2014-09-05T11:36:02Z</time>
      </trkpt>
      <trkpt lat="44.80444" lon="5.32066">
        <ele>656.24</ele>
        <time>2014-09-05T11:36:03Z</time>
      </trkpt>
      <trkpt lat="44.80445" lon="5.3207">
        <ele>656.24</ele>
        <time>2014-09-05T11:36:04Z</time>
      </trkpt>
      <trkpt lat="44.80445" lon="5.32074">
        <ele>654.8</ele>
        <time>2014-09-05T11:36:05Z</time>
      </trkpt>
      <trkpt lat="44.80446" lon="5.32077">
        <ele>654.8</ele>
        <time>2014-09-05T11:36:06Z</time>
      </trkpt>
      <trkpt lat="44.80447" lon="5.3208">
        <ele>654.31</ele>
        <time>2014-09-05T11:36:07Z</time>
      </trkpt>
      <trkpt lat="44.80449" lon="5.32084">
        <ele>653.35</ele>
        <time>2014-09-05T11:36:08Z</time>
      </trkpt>
      <trkpt lat="44.80451" lon="5.32087">
        <ele>652.39</ele>
        <time>2014-09-05T11:36:09Z</time>
      </trkpt>
      <trkpt lat="44.80462" lon="5.32106">
        <ele>648.55</ele>
        <time>2014-09-05T11:36:14Z</time>
      </trkpt>
      <trkpt lat="44.80465" lon="5.3211">
        <ele>648.07</ele>
        <time>2014-09-05T11:36:15Z</time>
      </trkpt>
      <trkpt lat="44.80472" lon="5.3213">
        <ele>644.22</ele>
        <time>2014-09-05T11:36:19Z</time>
      </trkpt>
      <trkpt lat="44.80474" lon="5.32134">
        <ele>644.22</ele>
        <time>2014-09-05T11:36:20Z</time>
      </trkpt>
      <trkpt lat="44.80483" lon="5.32164">
        <ele>641.34</ele>
        <time>2014-09-05T11:36:27Z</time>
      </trkpt>
      <trkpt lat="44.8048" lon="5.32168">
        <ele>639.89</ele>
        <time>2014-09-05T11:36:28Z</time>
      </trkpt>
      <trkpt lat="44.80475" lon="5.32171">
        <ele>638.93</ele>
        <time>2014-09-05T11:36:29Z</time>
      </trkpt>
      <trkpt lat="44.8045" lon="5.32182">
        <ele>636.53</ele>
        <time>2014-09-05T11:36:33Z</time>
      </trkpt>
      <trkpt lat="44.80444" lon="5.32183">
        <ele>636.05</ele>
        <time>2014-09-05T11:36:34Z</time>
      </trkpt>
      <trkpt lat="44.80425" lon="5.32194">
        <ele>635.09</ele>
        <time>2014-09-05T11:36:40Z</time>
      </trkpt>
      <trkpt lat="44.80415" lon="5.32206">
        <ele>633.65</ele>
        <time>2014-09-05T11:36:43Z</time>
      </trkpt>
      <trkpt lat="44.80411" lon="5.3221">
        <ele>633.65</ele>
        <time>2014-09-05T11:36:44Z</time>
      </trkpt>
      <trkpt lat="44.80407" lon="5.32212">
        <ele>633.65</ele>
        <time>2014-09-05T11:36:45Z</time>
      </trkpt>
      <trkpt lat="44.80403" lon="5.32214">
        <ele>633.65</ele>
        <time>2014-09-05T11:36:46Z</time>
      </trkpt>
      <trkpt lat="44.80399" lon="5.32217">
        <ele>633.17</ele>
        <time>2014-09-05T11:36:47Z</time>
      </trkpt>
      <trkpt lat="44.80394" lon="5.32219">
        <ele>632.68</ele>
        <time>2014-09-05T11:36:48Z</time>
      </trkpt>
      <trkpt lat="44.8039" lon="5.3222">
        <ele>632.2</ele>
        <time>2014-09-05T11:36:49Z</time>
      </trkpt>
      <trkpt lat="44.80385" lon="5.32222">
        <ele>632.2</ele>
        <time>2014-09-05T11:36:50Z</time>
      </trkpt>
      <trkpt lat="44.80381" lon="5.32224">
        <ele>631.72</ele>
        <time>2014-09-05T11:36:51Z</time>
      </trkpt>
      <trkpt lat="44.8035" lon="5.32239">
        <ele>630.28</ele>
        <time>2014-09-05T11:36:56Z</time>
      </trkpt>
      <trkpt lat="44.80343" lon="5.32242">
        <ele>630.28</ele>
        <time>2014-09-05T11:36:57Z</time>
      </trkpt>
      <trkpt lat="44.80336" lon="5.32243">
        <ele>629.32</ele>
        <time>2014-09-05T11:36:58Z</time>
      </trkpt>
      <trkpt lat="44.80329" lon="5.32243">
        <ele>629.32</ele>
        <time>2014-09-05T11:36:59Z</time>
      </trkpt>
      <trkpt lat="44.80322" lon="5.32242">
        <ele>628.84</ele>
        <time>2014-09-05T11:37:00Z</time>
      </trkpt>
      <trkpt lat="44.80314" lon="5.32241">
        <ele>628.36</ele>
        <time>2014-09-05T11:37:01Z</time>
      </trkpt>
      <trkpt lat="44.80306" lon="5.32238">
        <ele>626.92</ele>
        <time>2014-09-05T11:37:02Z</time>
      </trkpt>
      <trkpt lat="44.80279" lon="5.32226">
        <ele>623.55</ele>
        <time>2014-09-05T11:37:06Z</time>
      </trkpt>
      <trkpt lat="44.80254" lon="5.3221">
        <ele>620.19</ele>
        <time>2014-09-05T11:37:12Z</time>
      </trkpt>
      <trkpt lat="44.80251" lon="5.32209">
        <ele>620.19</ele>
        <time>2014-09-05T11:37:13Z</time>
      </trkpt>
      <trkpt lat="44.80245" lon="5.3221">
        <ele>619.71</ele>
        <time>2014-09-05T11:37:16Z</time>
      </trkpt>
      <trkpt lat="44.80244" lon="5.32214">
        <ele>619.71</ele>
        <time>2014-09-05T11:37:17Z</time>
      </trkpt>
      <trkpt lat="44.80234" lon="5.32255">
        <ele>619.23</ele>
        <time>2014-09-05T11:37:27Z</time>
      </trkpt>
      <trkpt lat="44.80226" lon="5.32264">
        <ele>618.75</ele>
        <time>2014-09-05T11:37:34Z</time>
      </trkpt>
      <trkpt lat="44.80226" lon="5.32264">
        <ele>618.75</ele>
        <time>2014-09-05T11:37:47Z</time>
      </trkpt>
      <trkpt lat="44.80226" lon="5.32264">
        <ele>613.46</ele>
        <time>2014-09-05T11:37:50Z</time>
      </trkpt>
      <trkpt lat="44.80226" lon="5.32264">
        <ele>620.19</ele>
        <time>2014-09-05T11:37:51Z</time>
      </trkpt>
      <trkpt lat="44.80226" lon="5.32264">
        <ele>613.94</ele>
        <time>2014-09-05T11:37:52Z</time>
      </trkpt>
      <trkpt lat="44.80226" lon="5.32264">
        <ele>619.71</ele>
        <time>2014-09-05T11:37:53Z</time>
      </trkpt>
      <trkpt lat="44.80226" lon="5.32264">
        <ele>614.9</ele>
        <time>2014-09-05T11:37:56Z</time>
      </trkpt>
      <trkpt lat="44.80226" lon="5.32264">
        <ele>619.23</ele>
        <time>2014-09-05T11:37:57Z</time>
      </trkpt>
      <trkpt lat="44.80226" lon="5.32264">
        <ele>618.26</ele>
        <time>2014-09-05T11:38:10Z</time>
      </trkpt>
      <trkpt lat="44.80226" lon="5.32264">
        <ele>618.26</ele>
        <time>2014-09-05T11:38:36Z</time>
      </trkpt>
      <trkpt lat="44.80225" lon="5.32263">
        <ele>617.78</ele>
        <time>2014-09-05T11:39:08Z</time>
      </trkpt>
      <trkpt lat="44.80225" lon="5.32263">
        <ele>618.26</ele>
        <time>2014-09-05T11:39:36Z</time>
      </trkpt>
      <trkpt lat="44.80225" lon="5.32262">
        <ele>617.78</ele>
        <time>2014-09-05T11:40:07Z</time>
      </trkpt>
      <trkpt lat="44.80225" lon="5.32262">
        <ele>617.3</ele>
        <time>2014-09-05T11:40:36Z</time>
      </trkpt>
      <trkpt lat="44.80224" lon="5.32262">
        <ele>617.3</ele>
        <time>2014-09-05T11:41:02Z</time>
      </trkpt>
      <trkpt lat="44.80224" lon="5.32262">
        <ele>617.3</ele>
        <time>2014-09-05T11:41:29Z</time>
      </trkpt>
      <trkpt lat="44.80225" lon="5.32262">
        <ele>617.3</ele>
        <time>2014-09-05T11:41:56Z</time>
      </trkpt>
      <trkpt lat="44.80225" lon="5.32262">
        <ele>616.82</ele>
        <time>2014-09-05T11:42:25Z</time>
      </trkpt>
      <trkpt lat="44.80225" lon="5.32262">
        <ele>616.82</ele>
        <time>2014-09-05T11:42:52Z</time>
      </trkpt>
      <trkpt lat="44.80225" lon="5.32262">
        <ele>616.82</ele>
        <time>2014-09-05T11:43:19Z</time>
      </trkpt>
      <trkpt lat="44.80225" lon="5.32263">
        <ele>616.34</ele>
        <time>2014-09-05T11:43:48Z</time>
      </trkpt>
      <trkpt lat="44.80225" lon="5.32263">
        <ele>615.86</ele>
        <time>2014-09-05T11:44:14Z</time>
      </trkpt>
      <trkpt lat="44.80225" lon="5.32263">
        <ele>615.86</ele>
        <time>2014-09-05T11:44:45Z</time>
      </trkpt>
      <trkpt lat="44.80225" lon="5.32264">
        <ele>615.38</ele>
        <time>2014-09-05T11:45:08Z</time>
      </trkpt>
      <trkpt lat="44.80224" lon="5.32263">
        <ele>615.38</ele>
        <time>2014-09-05T11:45:40Z</time>
      </trkpt>
      <trkpt lat="44.80224" lon="5.32263">
        <ele>614.9</ele>
        <time>2014-09-05T11:46:06Z</time>
      </trkpt>
      <trkpt lat="44.80224" lon="5.32263">
        <ele>615.38</ele>
        <time>2014-09-05T11:46:36Z</time>
      </trkpt>
      <trkpt lat="44.80224" lon="5.32263">
        <ele>614.9</ele>
        <time>2014-09-05T11:47:03Z</time>
      </trkpt>
      <trkpt lat="44.80224" lon="5.32263">
        <ele>614.42</ele>
        <time>2014-09-05T11:47:27Z</time>
      </trkpt>
      <trkpt lat="44.80224" lon="5.32264">
        <ele>614.42</ele>
        <time>2014-09-05T11:47:54Z</time>
      </trkpt>
      <trkpt lat="44.80224" lon="5.32264">
        <ele>614.42</ele>
        <time>2014-09-05T11:48:25Z</time>
      </trkpt>
      <trkpt lat="44.80224" lon="5.32264">
        <ele>614.42</ele>
        <time>2014-09-05T11:48:51Z</time>
      </trkpt>
      <trkpt lat="44.80223" lon="5.32264">
        <ele>614.9</ele>
        <time>2014-09-05T11:49:20Z</time>
      </trkpt>
      <trkpt lat="44.80223" lon="5.32264">
        <ele>613.94</ele>
        <time>2014-09-05T11:49:47Z</time>
      </trkpt>
      <trkpt lat="44.80223" lon="5.32264">
        <ele>613.46</ele>
        <time>2014-09-05T11:50:20Z</time>
      </trkpt>
      <trkpt lat="44.80223" lon="5.32264">
        <ele>613.46</ele>
        <time>2014-09-05T11:50:49Z</time>
      </trkpt>
      <trkpt lat="44.80223" lon="5.32264">
        <ele>613.94</ele>
        <time>2014-09-05T11:51:13Z</time>
      </trkpt>
      <trkpt lat="44.80223" lon="5.32264">
        <ele>613.94</ele>
        <time>2014-09-05T11:51:39Z</time>
      </trkpt>
      <trkpt lat="44.80224" lon="5.32265">
        <ele>613.94</ele>
        <time>2014-09-05T11:52:11Z</time>
      </trkpt>
      <trkpt lat="44.80224" lon="5.32264">
        <ele>613.46</ele>
        <time>2014-09-05T11:52:34Z</time>
      </trkpt>
      <trkpt lat="44.80223" lon="5.32264">
        <ele>612.98</ele>
        <time>2014-09-05T11:53:07Z</time>
      </trkpt>
      <trkpt lat="44.80223" lon="5.32264">
        <ele>612.98</ele>
        <time>2014-09-05T11:53:35Z</time>
      </trkpt>
      <trkpt lat="44.80225" lon="5.32267">
        <ele>612.98</ele>
        <time>2014-09-05T11:53:43Z</time>
      </trkpt>
      <trkpt lat="44.80226" lon="5.32269">
        <ele>612.98</ele>
        <time>2014-09-05T11:53:44Z</time>
      </trkpt>
      <trkpt lat="44.80228" lon="5.32272">
        <ele>612.98</ele>
        <time>2014-09-05T11:53:46Z</time>
      </trkpt>
      <trkpt lat="44.80232" lon="5.32274">
        <ele>612.98</ele>
        <time>2014-09-05T11:53:48Z</time>
      </trkpt>
      <trkpt lat="44.80234" lon="5.32275">
        <ele>613.46</ele>
        <time>2014-09-05T11:53:49Z</time>
      </trkpt>
      <trkpt lat="44.80258" lon="5.32289">
        <ele>615.38</ele>
        <time>2014-09-05T11:54:00Z</time>
      </trkpt>
      <trkpt lat="44.8027" lon="5.32317">
        <ele>617.78</ele>
        <time>2014-09-05T11:54:10Z</time>
      </trkpt>
      <trkpt lat="44.80264" lon="5.32353">
        <ele>618.75</ele>
        <time>2014-09-05T11:54:21Z</time>
      </trkpt>
      <trkpt lat="44.80257" lon="5.32393">
        <ele>619.71</ele>
        <time>2014-09-05T11:54:32Z</time>
      </trkpt>
      <trkpt lat="44.80244" lon="5.32436">
        <ele>620.67</ele>
        <time>2014-09-05T11:54:45Z</time>
      </trkpt>
      <trkpt lat="44.80242" lon="5.32475">
        <ele>622.59</ele>
        <time>2014-09-05T11:54:56Z</time>
      </trkpt>
      <trkpt lat="44.80258" lon="5.32517">
        <ele>624.03</ele>
        <time>2014-09-05T11:55:08Z</time>
      </trkpt>
      <trkpt lat="44.80259" lon="5.32558">
        <ele>624.99</ele>
        <time>2014-09-05T11:55:17Z</time>
      </trkpt>
      <trkpt lat="44.80252" lon="5.32586">
        <ele>625.47</ele>
        <time>2014-09-05T11:55:26Z</time>
      </trkpt>
      <trkpt lat="44.80253" lon="5.32585">
        <ele>625.47</ele>
        <time>2014-09-05T11:55:40Z</time>
      </trkpt>
      <trkpt lat="44.80253" lon="5.32586">
        <ele>625.47</ele>
        <time>2014-09-05T11:55:52Z</time>
      </trkpt>
      <trkpt lat="44.80252" lon="5.32588">
        <ele>625.47</ele>
        <time>2014-09-05T11:55:53Z</time>
      </trkpt>
      <trkpt lat="44.80248" lon="5.32603">
        <ele>625.96</ele>
        <time>2014-09-05T11:55:57Z</time>
      </trkpt>
      <trkpt lat="44.80248" lon="5.32608">
        <ele>625.47</ele>
        <time>2014-09-05T11:55:58Z</time>
      </trkpt>
      <trkpt lat="44.80252" lon="5.32652">
        <ele>626.44</ele>
        <time>2014-09-05T11:56:07Z</time>
      </trkpt>
      <trkpt lat="44.80251" lon="5.32695">
        <ele>626.44</ele>
        <time>2014-09-05T11:56:14Z</time>
      </trkpt>
      <trkpt lat="44.8025" lon="5.32701">
        <ele>626.92</ele>
        <time>2014-09-05T11:56:15Z</time>
      </trkpt>
      <trkpt lat="44.80248" lon="5.32712">
        <ele>626.44</ele>
        <time>2014-09-05T11:56:17Z</time>
      </trkpt>
      <trkpt lat="44.80245" lon="5.32718">
        <ele>626.44</ele>
        <time>2014-09-05T11:56:18Z</time>
      </trkpt>
      <trkpt lat="44.80243" lon="5.32724">
        <ele>626.44</ele>
        <time>2014-09-05T11:56:19Z</time>
      </trkpt>
      <trkpt lat="44.80231" lon="5.32775">
        <ele>627.4</ele>
        <time>2014-09-05T11:56:29Z</time>
      </trkpt>
      <trkpt lat="44.80223" lon="5.32819">
        <ele>628.84</ele>
        <time>2014-09-05T11:56:38Z</time>
      </trkpt>
      <trkpt lat="44.80201" lon="5.32871">
        <ele>630.28</ele>
        <time>2014-09-05T11:56:49Z</time>
      </trkpt>
      <trkpt lat="44.80188" lon="5.32908">
        <ele>631.24</ele>
        <time>2014-09-05T11:56:57Z</time>
      </trkpt>
      <trkpt lat="44.80177" lon="5.32954">
        <ele>632.68</ele>
        <time>2014-09-05T11:57:06Z</time>
      </trkpt>
      <trkpt lat="44.80168" lon="5.33014">
        <ele>634.13</ele>
        <time>2014-09-05T11:57:18Z</time>
      </trkpt>
      <trkpt lat="44.80168" lon="5.33031">
        <ele>635.09</ele>
        <time>2014-09-05T11:57:26Z</time>
      </trkpt>
      <trkpt lat="44.80169" lon="5.33032">
        <ele>634.61</ele>
        <time>2014-09-05T11:57:39Z</time>
      </trkpt>
      <trkpt lat="44.8017" lon="5.33033">
        <ele>634.13</ele>
        <time>2014-09-05T11:57:40Z</time>
      </trkpt>
      <trkpt lat="44.80172" lon="5.33034">
        <ele>634.13</ele>
        <time>2014-09-05T11:57:41Z</time>
      </trkpt>
      <trkpt lat="44.80174" lon="5.33036">
        <ele>634.13</ele>
        <time>2014-09-05T11:57:42Z</time>
      </trkpt>
      <trkpt lat="44.80176" lon="5.33039">
        <ele>633.65</ele>
        <time>2014-09-05T11:57:43Z</time>
      </trkpt>
      <trkpt lat="44.80179" lon="5.33041">
        <ele>634.13</ele>
        <time>2014-09-05T11:57:44Z</time>
      </trkpt>
      <trkpt lat="44.80181" lon="5.33044">
        <ele>634.61</ele>
        <time>2014-09-05T11:57:45Z</time>
      </trkpt>
      <trkpt lat="44.80183" lon="5.33046">
        <ele>634.61</ele>
        <time>2014-09-05T11:57:46Z</time>
      </trkpt>
      <trkpt lat="44.80186" lon="5.33048">
        <ele>634.13</ele>
        <time>2014-09-05T11:57:47Z</time>
      </trkpt>
      <trkpt lat="44.80189" lon="5.3305">
        <ele>634.13</ele>
        <time>2014-09-05T11:57:48Z</time>
      </trkpt>
      <trkpt lat="44.80219" lon="5.33063">
        <ele>633.65</ele>
        <time>2014-09-05T11:57:59Z</time>
      </trkpt>
      <trkpt lat="44.8022" lon="5.33063">
        <ele>633.17</ele>
        <time>2014-09-05T11:58:13Z</time>
      </trkpt>
      <trkpt lat="44.8022" lon="5.33063">
        <ele>633.65</ele>
        <time>2014-09-05T11:58:26Z</time>
      </trkpt>
      <trkpt lat="44.80222" lon="5.33064">
        <ele>633.65</ele>
        <time>2014-09-05T11:58:27Z</time>
      </trkpt>
      <trkpt lat="44.80243" lon="5.33071">
        <ele>633.65</ele>
        <time>2014-09-05T11:58:34Z</time>
      </trkpt>
      <trkpt lat="44.80294" lon="5.33082">
        <ele>632.68</ele>
        <time>2014-09-05T11:58:45Z</time>
      </trkpt>
      <trkpt lat="44.80322" lon="5.33088">
        <ele>632.2</ele>
        <time>2014-09-05T11:58:50Z</time>
      </trkpt>
      <trkpt lat="44.80327" lon="5.3309">
        <ele>632.2</ele>
        <time>2014-09-05T11:58:51Z</time>
      </trkpt>
      <trkpt lat="44.80332" lon="5.33093">
        <ele>632.2</ele>
        <time>2014-09-05T11:58:52Z</time>
      </trkpt>
      <trkpt lat="44.8034" lon="5.33098">
        <ele>632.2</ele>
        <time>2014-09-05T11:58:57Z</time>
      </trkpt>
      <trkpt lat="44.8034" lon="5.33099">
        <ele>632.2</ele>
        <time>2014-09-05T11:59:12Z</time>
      </trkpt>
      <trkpt lat="44.80341" lon="5.33099">
        <ele>631.72</ele>
        <time>2014-09-05T11:59:18Z</time>
      </trkpt>
      <trkpt lat="44.80342" lon="5.33101">
        <ele>632.2</ele>
        <time>2014-09-05T11:59:19Z</time>
      </trkpt>
      <trkpt lat="44.80343" lon="5.33102">
        <ele>632.2</ele>
        <time>2014-09-05T11:59:20Z</time>
      </trkpt>
      <trkpt lat="44.80346" lon="5.33103">
        <ele>632.2</ele>
        <time>2014-09-05T11:59:21Z</time>
      </trkpt>
      <trkpt lat="44.80348" lon="5.33105">
        <ele>632.2</ele>
        <time>2014-09-05T11:59:22Z</time>
      </trkpt>
      <trkpt lat="44.80378" lon="5.33135">
        <ele>631.72</ele>
        <time>2014-09-05T11:59:32Z</time>
      </trkpt>
      <trkpt lat="44.80389" lon="5.33149">
        <ele>631.72</ele>
        <time>2014-09-05T11:59:35Z</time>
      </trkpt>
      <trkpt lat="44.80393" lon="5.33155">
        <ele>631.72</ele>
        <time>2014-09-05T11:59:36Z</time>
      </trkpt>
      <trkpt lat="44.80396" lon="5.33162">
        <ele>631.24</ele>
        <time>2014-09-05T11:59:37Z</time>
      </trkpt>
      <trkpt lat="44.80401" lon="5.33176">
        <ele>631.72</ele>
        <time>2014-09-05T11:59:39Z</time>
      </trkpt>
      <trkpt lat="44.80402" lon="5.33184">
        <ele>631.24</ele>
        <time>2014-09-05T11:59:40Z</time>
      </trkpt>
      <trkpt lat="44.80405" lon="5.33214">
        <ele>630.76</ele>
        <time>2014-09-05T11:59:44Z</time>
      </trkpt>
      <trkpt lat="44.80403" lon="5.33221">
        <ele>630.76</ele>
        <time>2014-09-05T11:59:45Z</time>
      </trkpt>
      <trkpt lat="44.804" lon="5.33227">
        <ele>630.76</ele>
        <time>2014-09-05T11:59:46Z</time>
      </trkpt>
      <trkpt lat="44.80396" lon="5.33231">
        <ele>630.76</ele>
        <time>2014-09-05T11:59:47Z</time>
      </trkpt>
      <trkpt lat="44.80391" lon="5.33235">
        <ele>630.76</ele>
        <time>2014-09-05T11:59:48Z</time>
      </trkpt>
      <trkpt lat="44.80387" lon="5.33238">
        <ele>630.76</ele>
        <time>2014-09-05T11:59:49Z</time>
      </trkpt>
      <trkpt lat="44.8034" lon="5.33262">
        <ele>631.72</ele>
        <time>2014-09-05T12:00:00Z</time>
      </trkpt>
      <trkpt lat="44.80337" lon="5.33261">
        <ele>631.72</ele>
        <time>2014-09-05T12:00:05Z</time>
      </trkpt>
      <trkpt lat="44.80337" lon="5.33262">
        <ele>631.24</ele>
        <time>2014-09-05T12:00:14Z</time>
      </trkpt>
      <trkpt lat="44.80337" lon="5.33262">
        <ele>631.24</ele>
        <time>2014-09-05T12:00:43Z</time>
      </trkpt>
      <trkpt lat="44.80337" lon="5.33263">
        <ele>631.24</ele>
        <time>2014-09-05T12:01:12Z</time>
      </trkpt>
      <trkpt lat="44.80338" lon="5.33263">
        <ele>630.76</ele>
        <time>2014-09-05T12:01:46Z</time>
      </trkpt>
      <trkpt lat="44.80338" lon="5.33263">
        <ele>630.76</ele>
        <time>2014-09-05T12:01:59Z</time>
      </trkpt>
      <trkpt lat="44.80338" lon="5.33265">
        <ele>630.76</ele>
        <time>2014-09-05T12:02:07Z</time>
      </trkpt>
      <trkpt lat="44.80336" lon="5.33266">
        <ele>630.76</ele>
        <time>2014-09-05T12:02:22Z</time>
      </trkpt>
      <trkpt lat="44.80334" lon="5.33266">
        <ele>631.24</ele>
        <time>2014-09-05T12:02:23Z</time>
      </trkpt>
      <trkpt lat="44.80332" lon="5.33267">
        <ele>631.24</ele>
        <time>2014-09-05T12:02:24Z</time>
      </trkpt>
      <trkpt lat="44.80305" lon="5.33283">
        <ele>631.24</ele>
        <time>2014-09-05T12:02:33Z</time>
      </trkpt>
      <trkpt lat="44.80281" lon="5.33304">
        <ele>631.72</ele>
        <time>2014-09-05T12:02:41Z</time>
      </trkpt>
      <trkpt lat="44.80265" lon="5.33318">
        <ele>631.24</ele>
        <time>2014-09-05T12:02:48Z</time>
      </trkpt>
      <trkpt lat="44.80263" lon="5.3332">
        <ele>631.24</ele>
        <time>2014-09-05T12:02:49Z</time>
      </trkpt>
      <trkpt lat="44.80261" lon="5.33322">
        <ele>631.24</ele>
        <time>2014-09-05T12:02:50Z</time>
      </trkpt>
      <trkpt lat="44.80256" lon="5.33328">
        <ele>631.24</ele>
        <time>2014-09-05T12:02:53Z</time>
      </trkpt>
      <trkpt lat="44.80255" lon="5.33331">
        <ele>631.24</ele>
        <time>2014-09-05T12:02:54Z</time>
      </trkpt>
      <trkpt lat="44.80256" lon="5.33334">
        <ele>631.24</ele>
        <time>2014-09-05T12:02:55Z</time>
      </trkpt>
      <trkpt lat="44.80256" lon="5.33336">
        <ele>631.72</ele>
        <time>2014-09-05T12:02:56Z</time>
      </trkpt>
      <trkpt lat="44.80255" lon="5.33337">
        <ele>631.24</ele>
        <time>2014-09-05T12:03:02Z</time>
      </trkpt>
      <trkpt lat="44.80255" lon="5.33337">
        <ele>631.24</ele>
        <time>2014-09-05T12:03:24Z</time>
      </trkpt>
      <trkpt lat="44.80255" lon="5.33337">
        <ele>630.76</ele>
        <time>2014-09-05T12:03:54Z</time>
      </trkpt>
      <trkpt lat="44.80254" lon="5.33337">
        <ele>630.28</ele>
        <time>2014-09-05T12:04:22Z</time>
      </trkpt>
      <trkpt lat="44.80254" lon="5.33337">
        <ele>630.76</ele>
        <time>2014-09-05T12:04:46Z</time>
      </trkpt>
      <trkpt lat="44.80254" lon="5.33337">
        <ele>629.8</ele>
        <time>2014-09-05T12:05:12Z</time>
      </trkpt>
      <trkpt lat="44.80254" lon="5.33337">
        <ele>630.76</ele>
        <time>2014-09-05T12:05:37Z</time>
      </trkpt>
      <trkpt lat="44.80254" lon="5.33332">
        <ele>630.76</ele>
        <time>2014-09-05T12:05:41Z</time>
      </trkpt>
      <trkpt lat="44.80254" lon="5.33331">
        <ele>630.28</ele>
        <time>2014-09-05T12:05:42Z</time>
      </trkpt>
      <trkpt lat="44.80255" lon="5.3333">
        <ele>630.76</ele>
        <time>2014-09-05T12:05:43Z</time>
      </trkpt>
      <trkpt lat="44.80256" lon="5.33328">
        <ele>630.28</ele>
        <time>2014-09-05T12:05:44Z</time>
      </trkpt>
      <trkpt lat="44.80256" lon="5.33326">
        <ele>630.28</ele>
        <time>2014-09-05T12:05:45Z</time>
      </trkpt>
      <trkpt lat="44.80259" lon="5.33318">
        <ele>630.28</ele>
        <time>2014-09-05T12:05:56Z</time>
      </trkpt>
      <trkpt lat="44.80256" lon="5.33324">
        <ele>630.76</ele>
        <time>2014-09-05T12:06:05Z</time>
      </trkpt>
      <trkpt lat="44.80253" lon="5.33326">
        <ele>630.28</ele>
        <time>2014-09-05T12:06:13Z</time>
      </trkpt>
      <trkpt lat="44.80252" lon="5.33327">
        <ele>630.28</ele>
        <time>2014-09-05T12:06:14Z</time>
      </trkpt>
      <trkpt lat="44.80252" lon="5.33329">
        <ele>630.28</ele>
        <time>2014-09-05T12:06:15Z</time>
      </trkpt>
      <trkpt lat="44.8023" lon="5.33341">
        <ele>628.84</ele>
        <time>2014-09-05T12:06:23Z</time>
      </trkpt>
      <trkpt lat="44.80221" lon="5.33343">
        <ele>628.36</ele>
        <time>2014-09-05T12:06:25Z</time>
      </trkpt>
      <trkpt lat="44.80211" lon="5.33344">
        <ele>626.92</ele>
        <time>2014-09-05T12:06:27Z</time>
      </trkpt>
      <trkpt lat="44.80205" lon="5.33344">
        <ele>626.92</ele>
        <time>2014-09-05T12:06:28Z</time>
      </trkpt>
      <trkpt lat="44.802" lon="5.33345">
        <ele>625.96</ele>
        <time>2014-09-05T12:06:29Z</time>
      </trkpt>
      <trkpt lat="44.80194" lon="5.33345">
        <ele>625.96</ele>
        <time>2014-09-05T12:06:30Z</time>
      </trkpt>
      <trkpt lat="44.80188" lon="5.33347">
        <ele>625.47</ele>
        <time>2014-09-05T12:06:31Z</time>
      </trkpt>
      <trkpt lat="44.80172" lon="5.33351">
        <ele>624.03</ele>
        <time>2014-09-05T12:06:34Z</time>
      </trkpt>
      <trkpt lat="44.80167" lon="5.33353">
        <ele>624.03</ele>
        <time>2014-09-05T12:06:35Z</time>
      </trkpt>
      <trkpt lat="44.80114" lon="5.33365">
        <ele>620.67</ele>
        <time>2014-09-05T12:06:43Z</time>
      </trkpt>
      <trkpt lat="44.80064" lon="5.33377">
        <ele>617.78</ele>
        <time>2014-09-05T12:06:49Z</time>
      </trkpt>
      <trkpt lat="44.8002" lon="5.33388">
        <ele>614.42</ele>
        <time>2014-09-05T12:06:54Z</time>
      </trkpt>
      <trkpt lat="44.80008" lon="5.33391">
        <ele>613.46</ele>
        <time>2014-09-05T12:06:56Z</time>
      </trkpt>
      <trkpt lat="44.79998" lon="5.33396">
        <ele>612.98</ele>
        <time>2014-09-05T12:07:02Z</time>
      </trkpt>
      <trkpt lat="44.79998" lon="5.33396">
        <ele>612.5</ele>
        <time>2014-09-05T12:07:22Z</time>
      </trkpt>
      <trkpt lat="44.79987" lon="5.33397">
        <ele>612.5</ele>
        <time>2014-09-05T12:07:32Z</time>
      </trkpt>
      <trkpt lat="44.79968" lon="5.33399">
        <ele>611.06</ele>
        <time>2014-09-05T12:07:37Z</time>
      </trkpt>
      <trkpt lat="44.79963" lon="5.334">
        <ele>611.06</ele>
        <time>2014-09-05T12:07:38Z</time>
      </trkpt>
      <trkpt lat="44.79959" lon="5.33402">
        <ele>611.06</ele>
        <time>2014-09-05T12:07:39Z</time>
      </trkpt>
      <trkpt lat="44.79944" lon="5.33408">
        <ele>610.09</ele>
        <time>2014-09-05T12:07:42Z</time>
      </trkpt>
      <trkpt lat="44.79938" lon="5.3341">
        <ele>610.09</ele>
        <time>2014-09-05T12:07:43Z</time>
      </trkpt>
      <trkpt lat="44.79933" lon="5.33412">
        <ele>610.09</ele>
        <time>2014-09-05T12:07:44Z</time>
      </trkpt>
      <trkpt lat="44.79927" lon="5.33415">
        <ele>609.61</ele>
        <time>2014-09-05T12:07:45Z</time>
      </trkpt>
      <trkpt lat="44.79922" lon="5.33419">
        <ele>609.61</ele>
        <time>2014-09-05T12:07:46Z</time>
      </trkpt>
      <trkpt lat="44.79916" lon="5.33424">
        <ele>609.13</ele>
        <time>2014-09-05T12:07:47Z</time>
      </trkpt>
      <trkpt lat="44.7991" lon="5.3343">
        <ele>608.65</ele>
        <time>2014-09-05T12:07:48Z</time>
      </trkpt>
      <trkpt lat="44.79905" lon="5.33436">
        <ele>608.17</ele>
        <time>2014-09-05T12:07:49Z</time>
      </trkpt>
      <trkpt lat="44.799" lon="5.33443">
        <ele>608.17</ele>
        <time>2014-09-05T12:07:50Z</time>
      </trkpt>
      <trkpt lat="44.79895" lon="5.33452">
        <ele>607.69</ele>
        <time>2014-09-05T12:07:51Z</time>
      </trkpt>
      <trkpt lat="44.7989" lon="5.33461">
        <ele>607.21</ele>
        <time>2014-09-05T12:07:52Z</time>
      </trkpt>
      <trkpt lat="44.79875" lon="5.33496">
        <ele>604.33</ele>
        <time>2014-09-05T12:07:56Z</time>
      </trkpt>
      <trkpt lat="44.79873" lon="5.33504">
        <ele>604.33</ele>
        <time>2014-09-05T12:07:57Z</time>
      </trkpt>
      <trkpt lat="44.79873" lon="5.3351">
        <ele>603.36</ele>
        <time>2014-09-05T12:07:58Z</time>
      </trkpt>
      <trkpt lat="44.79872" lon="5.33517">
        <ele>602.4</ele>
        <time>2014-09-05T12:07:59Z</time>
      </trkpt>
      <trkpt lat="44.79871" lon="5.33523">
        <ele>602.4</ele>
        <time>2014-09-05T12:08:00Z</time>
      </trkpt>
      <trkpt lat="44.79868" lon="5.33539">
        <ele>600.96</ele>
        <time>2014-09-05T12:08:02Z</time>
      </trkpt>
      <trkpt lat="44.79867" lon="5.33555">
        <ele>599.52</ele>
        <time>2014-09-05T12:08:04Z</time>
      </trkpt>
      <trkpt lat="44.79866" lon="5.33569">
        <ele>597.6</ele>
        <time>2014-09-05T12:08:06Z</time>
      </trkpt>
      <trkpt lat="44.79866" lon="5.33578">
        <ele>596.64</ele>
        <time>2014-09-05T12:08:07Z</time>
      </trkpt>
      <trkpt lat="44.79868" lon="5.33606">
        <ele>593.75</ele>
        <time>2014-09-05T12:08:10Z</time>
      </trkpt>
      <trkpt lat="44.79867" lon="5.33636">
        <ele>591.35</ele>
        <time>2014-09-05T12:08:13Z</time>
      </trkpt>
      <trkpt lat="44.79862" lon="5.33679">
        <ele>588.46</ele>
        <time>2014-09-05T12:08:17Z</time>
      </trkpt>
      <trkpt lat="44.79852" lon="5.33726">
        <ele>584.62</ele>
        <time>2014-09-05T12:08:21Z</time>
      </trkpt>
      <trkpt lat="44.79847" lon="5.33752">
        <ele>584.14</ele>
        <time>2014-09-05T12:08:23Z</time>
      </trkpt>
      <trkpt lat="44.7984" lon="5.3379">
        <ele>582.22</ele>
        <time>2014-09-05T12:08:26Z</time>
      </trkpt>
      <trkpt lat="44.79833" lon="5.33835">
        <ele>578.85</ele>
        <time>2014-09-05T12:08:30Z</time>
      </trkpt>
      <trkpt lat="44.79833" lon="5.33845">
        <ele>577.41</ele>
        <time>2014-09-05T12:08:31Z</time>
      </trkpt>
      <trkpt lat="44.79832" lon="5.33855">
        <ele>577.41</ele>
        <time>2014-09-05T12:08:32Z</time>
      </trkpt>
      <trkpt lat="44.79826" lon="5.33895">
        <ele>575.01</ele>
        <time>2014-09-05T12:08:36Z</time>
      </trkpt>
      <trkpt lat="44.7981" lon="5.33991">
        <ele>572.12</ele>
        <time>2014-09-05T12:08:45Z</time>
      </trkpt>
      <trkpt lat="44.7981" lon="5.34012">
        <ele>571.64</ele>
        <time>2014-09-05T12:08:47Z</time>
      </trkpt>
      <trkpt lat="44.7981" lon="5.34021">
        <ele>572.12</ele>
        <time>2014-09-05T12:08:48Z</time>
      </trkpt>
      <trkpt lat="44.79813" lon="5.34028">
        <ele>571.64</ele>
        <time>2014-09-05T12:08:49Z</time>
      </trkpt>
      <trkpt lat="44.79816" lon="5.34034">
        <ele>571.64</ele>
        <time>2014-09-05T12:08:50Z</time>
      </trkpt>
      <trkpt lat="44.7982" lon="5.34039">
        <ele>571.64</ele>
        <time>2014-09-05T12:08:51Z</time>
      </trkpt>
      <trkpt lat="44.79824" lon="5.34045">
        <ele>572.12</ele>
        <time>2014-09-05T12:08:52Z</time>
      </trkpt>
      <trkpt lat="44.79827" lon="5.34051">
        <ele>571.64</ele>
        <time>2014-09-05T12:08:53Z</time>
      </trkpt>
      <trkpt lat="44.79829" lon="5.34058">
        <ele>571.64</ele>
        <time>2014-09-05T12:08:54Z</time>
      </trkpt>
      <trkpt lat="44.79832" lon="5.34067">
        <ele>572.12</ele>
        <time>2014-09-05T12:08:59Z</time>
      </trkpt>
      <trkpt lat="44.79832" lon="5.34067">
        <ele>571.64</ele>
        <time>2014-09-05T12:09:14Z</time>
      </trkpt>
      <trkpt lat="44.79831" lon="5.34069">
        <ele>571.64</ele>
        <time>2014-09-05T12:09:15Z</time>
      </trkpt>
      <trkpt lat="44.79831" lon="5.34072">
        <ele>572.12</ele>
        <time>2014-09-05T12:09:16Z</time>
      </trkpt>
      <trkpt lat="44.79832" lon="5.34074">
        <ele>571.64</ele>
        <time>2014-09-05T12:09:17Z</time>
      </trkpt>
      <trkpt lat="44.79833" lon="5.34077">
        <ele>571.64</ele>
        <time>2014-09-05T12:09:24Z</time>
      </trkpt>
      <trkpt lat="44.79834" lon="5.34078">
        <ele>571.16</ele>
        <time>2014-09-05T12:09:37Z</time>
      </trkpt>
      <trkpt lat="44.79834" lon="5.34078">
        <ele>571.64</ele>
        <time>2014-09-05T12:10:03Z</time>
      </trkpt>
      <trkpt lat="44.79834" lon="5.34078">
        <ele>572.12</ele>
        <time>2014-09-05T12:10:24Z</time>
      </trkpt>
      <trkpt lat="44.79834" lon="5.34078">
        <ele>571.64</ele>
        <time>2014-09-05T12:10:34Z</time>
      </trkpt>
      <trkpt lat="44.79834" lon="5.34078">
        <ele>570.2</ele>
        <time>2014-09-05T12:10:44Z</time>
      </trkpt>
      <trkpt lat="44.79834" lon="5.34078">
        <ele>570.68</ele>
        <time>2014-09-05T12:11:13Z</time>
      </trkpt>
      <trkpt lat="44.79834" lon="5.34077">
        <ele>570.2</ele>
        <time>2014-09-05T12:11:43Z</time>
      </trkpt>
      <trkpt lat="44.79834" lon="5.34077">
        <ele>570.2</ele>
        <time>2014-09-05T12:12:12Z</time>
      </trkpt>
      <trkpt lat="44.79834" lon="5.34077">
        <ele>569.72</ele>
        <time>2014-09-05T12:12:36Z</time>
      </trkpt>
      <trkpt lat="44.79834" lon="5.34077">
        <ele>570.2</ele>
        <time>2014-09-05T12:12:58Z</time>
      </trkpt>
      <trkpt lat="44.79834" lon="5.34077">
        <ele>569.72</ele>
        <time>2014-09-05T12:13:18Z</time>
      </trkpt>
      <trkpt lat="44.79834" lon="5.34077">
        <ele>570.2</ele>
        <time>2014-09-05T12:13:42Z</time>
      </trkpt>
      <trkpt lat="44.79834" lon="5.34076">
        <ele>569.72</ele>
        <time>2014-09-05T12:14:04Z</time>
      </trkpt>
      <trkpt lat="44.79834" lon="5.34076">
        <ele>569.72</ele>
        <time>2014-09-05T12:14:29Z</time>
      </trkpt>
      <trkpt lat="44.79833" lon="5.34076">
        <ele>569.72</ele>
        <time>2014-09-05T12:14:55Z</time>
      </trkpt>
      <trkpt lat="44.79834" lon="5.34076">
        <ele>569.72</ele>
        <time>2014-09-05T12:15:22Z</time>
      </trkpt>
      <trkpt lat="44.79834" lon="5.34076">
        <ele>569.72</ele>
        <time>2014-09-05T12:15:49Z</time>
      </trkpt>
      <trkpt lat="44.79834" lon="5.34077">
        <ele>569.24</ele>
        <time>2014-09-05T12:16:14Z</time>
      </trkpt>
      <trkpt lat="44.79833" lon="5.34076">
        <ele>570.2</ele>
        <time>2014-09-05T12:16:31Z</time>
      </trkpt>
      <trkpt lat="44.79833" lon="5.34076">
        <ele>569.72</ele>
        <time>2014-09-05T12:16:51Z</time>
      </trkpt>
      <trkpt lat="44.79833" lon="5.34076">
        <ele>569.72</ele>
        <time>2014-09-05T12:17:14Z</time>
      </trkpt>
      <trkpt lat="44.79833" lon="5.34076">
        <ele>569.24</ele>
        <time>2014-09-05T12:17:40Z</time>
      </trkpt>
      <trkpt lat="44.79833" lon="5.34076">
        <ele>569.24</ele>
        <time>2014-09-05T12:18:08Z</time>
      </trkpt>
      <trkpt lat="44.79833" lon="5.34076">
        <ele>569.24</ele>
        <time>2014-09-05T12:18:35Z</time>
      </trkpt>
      <trkpt lat="44.79833" lon="5.34076">
        <ele>569.24</ele>
        <time>2014-09-05T12:19:01Z</time>
      </trkpt>
      <trkpt lat="44.79833" lon="5.34076">
        <ele>568.76</ele>
        <time>2014-09-05T12:19:32Z</time>
      </trkpt>
      <trkpt lat="44.79833" lon="5.34076">
        <ele>568.76</ele>
        <time>2014-09-05T12:19:59Z</time>
      </trkpt>
      <trkpt lat="44.79833" lon="5.34076">
        <ele>568.76</ele>
        <time>2014-09-05T12:20:30Z</time>
      </trkpt>
      <trkpt lat="44.79833" lon="5.34076">
        <ele>568.76</ele>
        <time>2014-09-05T12:20:58Z</time>
      </trkpt>
      <trkpt lat="44.79834" lon="5.34076">
        <ele>568.28</ele>
        <time>2014-09-05T12:21:23Z</time>
      </trkpt>
      <trkpt lat="44.79834" lon="5.34076">
        <ele>568.28</ele>
        <time>2014-09-05T12:21:54Z</time>
      </trkpt>
      <trkpt lat="44.79834" lon="5.34076">
        <ele>568.76</ele>
        <time>2014-09-05T12:22:24Z</time>
      </trkpt>
      <trkpt lat="44.79834" lon="5.34077">
        <ele>568.28</ele>
        <time>2014-09-05T12:22:49Z</time>
      </trkpt>
      <trkpt lat="44.79834" lon="5.34077">
        <ele>568.76</ele>
        <time>2014-09-05T12:23:17Z</time>
      </trkpt>
      <trkpt lat="44.79834" lon="5.34077">
        <ele>568.76</ele>
        <time>2014-09-05T12:23:45Z</time>
      </trkpt>
      <trkpt lat="44.79834" lon="5.34077">
        <ele>568.28</ele>
        <time>2014-09-05T12:24:12Z</time>
      </trkpt>
      <trkpt lat="44.79834" lon="5.34076">
        <ele>568.28</ele>
        <time>2014-09-05T12:24:38Z</time>
      </trkpt>
      <trkpt lat="44.79834" lon="5.34076">
        <ele>567.8</ele>
        <time>2014-09-05T12:25:05Z</time>
      </trkpt>
      <trkpt lat="44.79833" lon="5.34077">
        <ele>568.76</ele>
        <time>2014-09-05T12:25:33Z</time>
      </trkpt>
      <trkpt lat="44.79833" lon="5.34077">
        <ele>568.76</ele>
        <time>2014-09-05T12:26:02Z</time>
      </trkpt>
      <trkpt lat="44.79833" lon="5.34076">
        <ele>568.28</ele>
        <time>2014-09-05T12:26:29Z</time>
      </trkpt>
      <trkpt lat="44.79833" lon="5.34076">
        <ele>568.28</ele>
        <time>2014-09-05T12:26:57Z</time>
      </trkpt>
      <trkpt lat="44.79832" lon="5.34076">
        <ele>568.28</ele>
        <time>2014-09-05T12:27:26Z</time>
      </trkpt>
      <trkpt lat="44.79832" lon="5.34076">
        <ele>568.28</ele>
        <time>2014-09-05T12:27:45Z</time>
      </trkpt>
      <trkpt lat="44.79832" lon="5.34076">
        <ele>568.76</ele>
        <time>2014-09-05T12:28:08Z</time>
      </trkpt>
      <trkpt lat="44.79833" lon="5.34076">
        <ele>568.28</ele>
        <time>2014-09-05T12:28:38Z</time>
      </trkpt>
      <trkpt lat="44.79833" lon="5.34077">
        <ele>567.32</ele>
        <time>2014-09-05T12:29:10Z</time>
      </trkpt>
      <trkpt lat="44.79833" lon="5.34077">
        <ele>568.28</ele>
        <time>2014-09-05T12:29:38Z</time>
      </trkpt>
      <trkpt lat="44.79832" lon="5.34074">
        <ele>569.72</ele>
        <time>2014-09-05T12:30:03Z</time>
      </trkpt>
      <trkpt lat="44.79833" lon="5.34076">
        <ele>568.76</ele>
        <time>2014-09-05T12:30:13Z</time>
      </trkpt>
      <trkpt lat="44.79833" lon="5.34078">
        <ele>569.24</ele>
        <time>2014-09-05T12:30:23Z</time>
      </trkpt>
      <trkpt lat="44.79833" lon="5.34078">
        <ele>568.76</ele>
        <time>2014-09-05T12:30:45Z</time>
      </trkpt>
      <trkpt lat="44.79834" lon="5.34077">
        <ele>568.76</ele>
        <time>2014-09-05T12:31:08Z</time>
      </trkpt>
      <trkpt lat="44.79834" lon="5.34077">
        <ele>568.76</ele>
        <time>2014-09-05T12:31:33Z</time>
      </trkpt>
      <trkpt lat="44.79833" lon="5.34077">
        <ele>568.76</ele>
        <time>2014-09-05T12:31:58Z</time>
      </trkpt>
      <trkpt lat="44.79833" lon="5.34078">
        <ele>568.28</ele>
        <time>2014-09-05T12:32:27Z</time>
      </trkpt>
      <trkpt lat="44.79833" lon="5.34078">
        <ele>568.28</ele>
        <time>2014-09-05T12:32:50Z</time>
      </trkpt>
      <trkpt lat="44.79833" lon="5.34078">
        <ele>568.28</ele>
        <time>2014-09-05T12:33:18Z</time>
      </trkpt>
      <trkpt lat="44.79833" lon="5.34078">
        <ele>568.76</ele>
        <time>2014-09-05T12:33:33Z</time>
      </trkpt>
      <trkpt lat="44.79833" lon="5.34079">
        <ele>568.76</ele>
        <time>2014-09-05T12:33:42Z</time>
      </trkpt>
      <trkpt lat="44.79833" lon="5.34092">
        <ele>568.28</ele>
        <time>2014-09-05T12:33:52Z</time>
      </trkpt>
      <trkpt lat="44.79835" lon="5.34139">
        <ele>568.28</ele>
        <time>2014-09-05T12:34:01Z</time>
      </trkpt>
      <trkpt lat="44.79842" lon="5.34212">
        <ele>565.87</ele>
        <time>2014-09-05T12:34:11Z</time>
      </trkpt>
      <trkpt lat="44.79855" lon="5.34244">
        <ele>563.47</ele>
        <time>2014-09-05T12:34:15Z</time>
      </trkpt>
      <trkpt lat="44.79856" lon="5.34254">
        <ele>562.99</ele>
        <time>2014-09-05T12:34:16Z</time>
      </trkpt>
      <trkpt lat="44.79856" lon="5.34264">
        <ele>562.99</ele>
        <time>2014-09-05T12:34:17Z</time>
      </trkpt>
      <trkpt lat="44.79854" lon="5.34284">
        <ele>561.55</ele>
        <time>2014-09-05T12:34:19Z</time>
      </trkpt>
      <trkpt lat="44.79854" lon="5.34294">
        <ele>561.07</ele>
        <time>2014-09-05T12:34:20Z</time>
      </trkpt>
      <trkpt lat="44.79865" lon="5.34389">
        <ele>558.18</ele>
        <time>2014-09-05T12:34:29Z</time>
      </trkpt>
      <trkpt lat="44.79867" lon="5.34415">
        <ele>558.18</ele>
        <time>2014-09-05T12:34:32Z</time>
      </trkpt>
      <trkpt lat="44.79868" lon="5.34421">
        <ele>558.18</ele>
        <time>2014-09-05T12:34:33Z</time>
      </trkpt>
      <trkpt lat="44.79868" lon="5.34426">
        <ele>554.82</ele>
        <time>2014-09-05T12:34:34Z</time>
      </trkpt>
      <trkpt lat="44.79868" lon="5.34431">
        <ele>554.82</ele>
        <time>2014-09-05T12:34:35Z</time>
      </trkpt>
      <trkpt lat="44.79869" lon="5.34436">
        <ele>559.14</ele>
        <time>2014-09-05T12:34:36Z</time>
      </trkpt>
      <trkpt lat="44.7987" lon="5.34441">
        <ele>558.18</ele>
        <time>2014-09-05T12:34:37Z</time>
      </trkpt>
      <trkpt lat="44.7987" lon="5.34446">
        <ele>557.7</ele>
        <time>2014-09-05T12:34:38Z</time>
      </trkpt>
      <trkpt lat="44.79871" lon="5.3445">
        <ele>557.7</ele>
        <time>2014-09-05T12:34:39Z</time>
      </trkpt>
      <trkpt lat="44.79871" lon="5.34455">
        <ele>557.7</ele>
        <time>2014-09-05T12:34:40Z</time>
      </trkpt>
      <trkpt lat="44.79874" lon="5.34473">
        <ele>557.22</ele>
        <time>2014-09-05T12:34:43Z</time>
      </trkpt>
      <trkpt lat="44.79875" lon="5.34479">
        <ele>557.22</ele>
        <time>2014-09-05T12:34:44Z</time>
      </trkpt>
      <trkpt lat="44.79882" lon="5.34517">
        <ele>559.14</ele>
        <time>2014-09-05T12:34:51Z</time>
      </trkpt>
      <trkpt lat="44.79894" lon="5.3457">
        <ele>559.62</ele>
        <time>2014-09-05T12:35:01Z</time>
      </trkpt>
      <trkpt lat="44.79909" lon="5.34621">
        <ele>561.07</ele>
        <time>2014-09-05T12:35:11Z</time>
      </trkpt>
      <trkpt lat="44.79913" lon="5.34664">
        <ele>561.55</ele>
        <time>2014-09-05T12:35:20Z</time>
      </trkpt>
      <trkpt lat="44.79906" lon="5.3469">
        <ele>562.51</ele>
        <time>2014-09-05T12:35:28Z</time>
      </trkpt>
      <trkpt lat="44.79904" lon="5.34724">
        <ele>561.55</ele>
        <time>2014-09-05T12:35:38Z</time>
      </trkpt>
      <trkpt lat="44.79907" lon="5.34761">
        <ele>562.03</ele>
        <time>2014-09-05T12:35:48Z</time>
      </trkpt>
      <trkpt lat="44.79905" lon="5.34788">
        <ele>564.43</ele>
        <time>2014-09-05T12:35:59Z</time>
      </trkpt>
      <trkpt lat="44.799" lon="5.3481">
        <ele>566.83</ele>
        <time>2014-09-05T12:36:11Z</time>
      </trkpt>
      <trkpt lat="44.79898" lon="5.34815">
        <ele>567.8</ele>
        <time>2014-09-05T12:36:14Z</time>
      </trkpt>
      <trkpt lat="44.79898" lon="5.34817">
        <ele>567.8</ele>
        <time>2014-09-05T12:36:15Z</time>
      </trkpt>
      <trkpt lat="44.79898" lon="5.34818">
        <ele>568.28</ele>
        <time>2014-09-05T12:36:16Z</time>
      </trkpt>
      <trkpt lat="44.79897" lon="5.3482">
        <ele>568.28</ele>
        <time>2014-09-05T12:36:17Z</time>
      </trkpt>
      <trkpt lat="44.79897" lon="5.34821">
        <ele>568.28</ele>
        <time>2014-09-05T12:36:18Z</time>
      </trkpt>
      <trkpt lat="44.79896" lon="5.34823">
        <ele>569.24</ele>
        <time>2014-09-05T12:36:19Z</time>
      </trkpt>
      <trkpt lat="44.79895" lon="5.34831">
        <ele>570.2</ele>
        <time>2014-09-05T12:36:24Z</time>
      </trkpt>
      <trkpt lat="44.79895" lon="5.34832">
        <ele>570.2</ele>
        <time>2014-09-05T12:36:31Z</time>
      </trkpt>
      <trkpt lat="44.79896" lon="5.34835">
        <ele>570.68</ele>
        <time>2014-09-05T12:36:33Z</time>
      </trkpt>
      <trkpt lat="44.79896" lon="5.34837">
        <ele>571.16</ele>
        <time>2014-09-05T12:36:34Z</time>
      </trkpt>
      <trkpt lat="44.799" lon="5.34853">
        <ele>573.56</ele>
        <time>2014-09-05T12:36:47Z</time>
      </trkpt>
      <trkpt lat="44.79901" lon="5.34867">
        <ele>575.49</ele>
        <time>2014-09-05T12:36:59Z</time>
      </trkpt>
      <trkpt lat="44.79901" lon="5.34869">
        <ele>575.97</ele>
        <time>2014-09-05T12:37:00Z</time>
      </trkpt>
      <trkpt lat="44.79901" lon="5.3487">
        <ele>576.45</ele>
        <time>2014-09-05T12:37:01Z</time>
      </trkpt>
      <trkpt lat="44.79903" lon="5.34883">
        <ele>577.41</ele>
        <time>2014-09-05T12:37:12Z</time>
      </trkpt>
      <trkpt lat="44.79906" lon="5.34894">
        <ele>578.85</ele>
        <time>2014-09-05T12:37:23Z</time>
      </trkpt>
      <trkpt lat="44.79907" lon="5.34896">
        <ele>579.33</ele>
        <time>2014-09-05T12:37:25Z</time>
      </trkpt>
      <trkpt lat="44.79916" lon="5.34906">
        <ele>580.77</ele>
        <time>2014-09-05T12:37:36Z</time>
      </trkpt>
      <trkpt lat="44.79918" lon="5.34907">
        <ele>581.73</ele>
        <time>2014-09-05T12:37:39Z</time>
      </trkpt>
      <trkpt lat="44.79918" lon="5.34907">
        <ele>581.73</ele>
        <time>2014-09-05T12:37:50Z</time>
      </trkpt>
      <trkpt lat="44.79919" lon="5.34909">
        <ele>582.22</ele>
        <time>2014-09-05T12:38:01Z</time>
      </trkpt>
      <trkpt lat="44.79919" lon="5.3491">
        <ele>582.22</ele>
        <time>2014-09-05T12:38:02Z</time>
      </trkpt>
      <trkpt lat="44.79924" lon="5.34918">
        <ele>583.18</ele>
        <time>2014-09-05T12:38:12Z</time>
      </trkpt>
      <trkpt lat="44.79925" lon="5.34919">
        <ele>583.66</ele>
        <time>2014-09-05T12:38:14Z</time>
      </trkpt>
      <trkpt lat="44.79926" lon="5.3492">
        <ele>583.66</ele>
        <time>2014-09-05T12:38:15Z</time>
      </trkpt>
      <trkpt lat="44.79927" lon="5.34921">
        <ele>584.14</ele>
        <time>2014-09-05T12:38:16Z</time>
      </trkpt>
      <trkpt lat="44.79929" lon="5.34923">
        <ele>583.66</ele>
        <time>2014-09-05T12:38:17Z</time>
      </trkpt>
      <trkpt lat="44.7993" lon="5.34925">
        <ele>584.14</ele>
        <time>2014-09-05T12:38:18Z</time>
      </trkpt>
      <trkpt lat="44.79931" lon="5.34927">
        <ele>584.14</ele>
        <time>2014-09-05T12:38:19Z</time>
      </trkpt>
      <trkpt lat="44.79931" lon="5.34929">
        <ele>584.14</ele>
        <time>2014-09-05T12:38:20Z</time>
      </trkpt>
      <trkpt lat="44.79932" lon="5.34931">
        <ele>584.14</ele>
        <time>2014-09-05T12:38:21Z</time>
      </trkpt>
      <trkpt lat="44.79932" lon="5.34932">
        <ele>584.62</ele>
        <time>2014-09-05T12:38:22Z</time>
      </trkpt>
      <trkpt lat="44.79937" lon="5.34944">
        <ele>585.58</ele>
        <time>2014-09-05T12:38:30Z</time>
      </trkpt>
      <trkpt lat="44.79938" lon="5.34946">
        <ele>585.58</ele>
        <time>2014-09-05T12:38:31Z</time>
      </trkpt>
      <trkpt lat="44.79938" lon="5.34948">
        <ele>586.06</ele>
        <time>2014-09-05T12:38:32Z</time>
      </trkpt>
      <trkpt lat="44.79939" lon="5.34951">
        <ele>585.58</ele>
        <time>2014-09-05T12:38:34Z</time>
      </trkpt>
      <trkpt lat="44.79938" lon="5.34952">
        <ele>586.06</ele>
        <time>2014-09-05T12:38:35Z</time>
      </trkpt>
      <trkpt lat="44.79937" lon="5.34953">
        <ele>586.54</ele>
        <time>2014-09-05T12:38:36Z</time>
      </trkpt>
      <trkpt lat="44.79936" lon="5.34954">
        <ele>586.06</ele>
        <time>2014-09-05T12:38:37Z</time>
      </trkpt>
      <trkpt lat="44.79934" lon="5.34955">
        <ele>586.06</ele>
        <time>2014-09-05T12:38:38Z</time>
      </trkpt>
      <trkpt lat="44.79932" lon="5.34956">
        <ele>586.06</ele>
        <time>2014-09-05T12:38:39Z</time>
      </trkpt>
      <trkpt lat="44.79932" lon="5.34957">
        <ele>585.58</ele>
        <time>2014-09-05T12:38:40Z</time>
      </trkpt>
      <trkpt lat="44.79931" lon="5.34958">
        <ele>585.58</ele>
        <time>2014-09-05T12:38:49Z</time>
      </trkpt>
      <trkpt lat="44.7993" lon="5.34958">
        <ele>585.58</ele>
        <time>2014-09-05T12:39:03Z</time>
      </trkpt>
      <trkpt lat="44.79928" lon="5.34957">
        <ele>585.58</ele>
        <time>2014-09-05T12:39:04Z</time>
      </trkpt>
      <trkpt lat="44.79916" lon="5.34956">
        <ele>584.14</ele>
        <time>2014-09-05T12:39:08Z</time>
      </trkpt>
      <trkpt lat="44.79869" lon="5.34958">
        <ele>581.25</ele>
        <time>2014-09-05T12:39:17Z</time>
      </trkpt>
      <trkpt lat="44.79824" lon="5.34953">
        <ele>579.33</ele>
        <time>2014-09-05T12:39:25Z</time>
      </trkpt>
      <trkpt lat="44.79775" lon="5.3495">
        <ele>575.49</ele>
        <time>2014-09-05T12:39:32Z</time>
      </trkpt>
      <trkpt lat="44.79759" lon="5.34952">
        <ele>574.53</ele>
        <time>2014-09-05T12:39:34Z</time>
      </trkpt>
      <trkpt lat="44.79706" lon="5.34959">
        <ele>572.12</ele>
        <time>2014-09-05T12:39:40Z</time>
      </trkpt>
      <trkpt lat="44.79662" lon="5.34957">
        <ele>568.76</ele>
        <time>2014-09-05T12:39:45Z</time>
      </trkpt>
      <trkpt lat="44.79596" lon="5.34946">
        <ele>566.35</ele>
        <time>2014-09-05T12:39:52Z</time>
      </trkpt>
      <trkpt lat="44.79588" lon="5.34942">
        <ele>565.87</ele>
        <time>2014-09-05T12:39:53Z</time>
      </trkpt>
      <trkpt lat="44.7958" lon="5.34937">
        <ele>566.35</ele>
        <time>2014-09-05T12:39:54Z</time>
      </trkpt>
      <trkpt lat="44.79552" lon="5.34917">
        <ele>565.87</ele>
        <time>2014-09-05T12:39:58Z</time>
      </trkpt>
      <trkpt lat="44.79538" lon="5.3491">
        <ele>565.39</ele>
        <time>2014-09-05T12:40:00Z</time>
      </trkpt>
      <trkpt lat="44.79531" lon="5.34909">
        <ele>564.91</ele>
        <time>2014-09-05T12:40:01Z</time>
      </trkpt>
      <trkpt lat="44.7949" lon="5.34902">
        <ele>561.07</ele>
        <time>2014-09-05T12:40:07Z</time>
      </trkpt>
      <trkpt lat="44.79483" lon="5.34902">
        <ele>560.59</ele>
        <time>2014-09-05T12:40:08Z</time>
      </trkpt>
      <trkpt lat="44.79476" lon="5.34902">
        <ele>560.11</ele>
        <time>2014-09-05T12:40:09Z</time>
      </trkpt>
      <trkpt lat="44.79465" lon="5.349">
        <ele>558.66</ele>
        <time>2014-09-05T12:40:11Z</time>
      </trkpt>
      <trkpt lat="44.79458" lon="5.34899">
        <ele>558.18</ele>
        <time>2014-09-05T12:40:13Z</time>
      </trkpt>
      <trkpt lat="44.79438" lon="5.34892">
        <ele>556.26</ele>
        <time>2014-09-05T12:40:20Z</time>
      </trkpt>
      <trkpt lat="44.79429" lon="5.34886">
        <ele>555.78</ele>
        <time>2014-09-05T12:40:22Z</time>
      </trkpt>
      <trkpt lat="44.79392" lon="5.34858">
        <ele>552.9</ele>
        <time>2014-09-05T12:40:28Z</time>
      </trkpt>
      <trkpt lat="44.79374" lon="5.34839">
        <ele>549.53</ele>
        <time>2014-09-05T12:40:32Z</time>
      </trkpt>
      <trkpt lat="44.79361" lon="5.34832">
        <ele>546.65</ele>
        <time>2014-09-05T12:40:36Z</time>
      </trkpt>
      <trkpt lat="44.79354" lon="5.34831">
        <ele>544.72</ele>
        <time>2014-09-05T12:40:38Z</time>
      </trkpt>
      <trkpt lat="44.79345" lon="5.34832">
        <ele>543.76</ele>
        <time>2014-09-05T12:40:41Z</time>
      </trkpt>
      <trkpt lat="44.79343" lon="5.34834">
        <ele>543.28</ele>
        <time>2014-09-05T12:40:42Z</time>
      </trkpt>
      <trkpt lat="44.79342" lon="5.34838">
        <ele>543.28</ele>
        <time>2014-09-05T12:40:43Z</time>
      </trkpt>
      <trkpt lat="44.79343" lon="5.34841">
        <ele>543.28</ele>
        <time>2014-09-05T12:40:44Z</time>
      </trkpt>
      <trkpt lat="44.79343" lon="5.34845">
        <ele>543.28</ele>
        <time>2014-09-05T12:40:45Z</time>
      </trkpt>
      <trkpt lat="44.79344" lon="5.34849">
        <ele>543.28</ele>
        <time>2014-09-05T12:40:46Z</time>
      </trkpt>
      <trkpt lat="44.79345" lon="5.34854">
        <ele>543.28</ele>
        <time>2014-09-05T12:40:47Z</time>
      </trkpt>
      <trkpt lat="44.79349" lon="5.3492">
        <ele>543.28</ele>
        <time>2014-09-05T12:40:58Z</time>
      </trkpt>
      <trkpt lat="44.79351" lon="5.34973">
        <ele>544.24</ele>
        <time>2014-09-05T12:41:06Z</time>
      </trkpt>
      <trkpt lat="44.79358" lon="5.35021">
        <ele>544.72</ele>
        <time>2014-09-05T12:41:14Z</time>
      </trkpt>
      <trkpt lat="44.79379" lon="5.35087">
        <ele>546.17</ele>
        <time>2014-09-05T12:41:27Z</time>
      </trkpt>
      <trkpt lat="44.79404" lon="5.35144">
        <ele>549.05</ele>
        <time>2014-09-05T12:41:40Z</time>
      </trkpt>
      <trkpt lat="44.79405" lon="5.35177">
        <ele>550.01</ele>
        <time>2014-09-05T12:41:48Z</time>
      </trkpt>
      <trkpt lat="44.79393" lon="5.35216">
        <ele>552.41</ele>
        <time>2014-09-05T12:42:00Z</time>
      </trkpt>
      <trkpt lat="44.79384" lon="5.35248">
        <ele>553.86</ele>
        <time>2014-09-05T12:42:11Z</time>
      </trkpt>
      <trkpt lat="44.79377" lon="5.35271">
        <ele>555.78</ele>
        <time>2014-09-05T12:42:21Z</time>
      </trkpt>
      <trkpt lat="44.79369" lon="5.35298">
        <ele>557.22</ele>
        <time>2014-09-05T12:42:33Z</time>
      </trkpt>
      <trkpt lat="44.79361" lon="5.35319">
        <ele>559.62</ele>
        <time>2014-09-05T12:42:43Z</time>
      </trkpt>
      <trkpt lat="44.79357" lon="5.35332">
        <ele>560.59</ele>
        <time>2014-09-05T12:42:49Z</time>
      </trkpt>
      <trkpt lat="44.79351" lon="5.35342">
        <ele>561.55</ele>
        <time>2014-09-05T12:42:55Z</time>
      </trkpt>
      <trkpt lat="44.7935" lon="5.35344">
        <ele>561.55</ele>
        <time>2014-09-05T12:42:56Z</time>
      </trkpt>
      <trkpt lat="44.7935" lon="5.35346">
        <ele>562.03</ele>
        <time>2014-09-05T12:42:57Z</time>
      </trkpt>
      <trkpt lat="44.79347" lon="5.35358">
        <ele>562.99</ele>
        <time>2014-09-05T12:43:02Z</time>
      </trkpt>
      <trkpt lat="44.79348" lon="5.3536">
        <ele>562.51</ele>
        <time>2014-09-05T12:43:03Z</time>
      </trkpt>
      <trkpt lat="44.7935" lon="5.35362">
        <ele>562.99</ele>
        <time>2014-09-05T12:43:04Z</time>
      </trkpt>
      <trkpt lat="44.79351" lon="5.35363">
        <ele>562.99</ele>
        <time>2014-09-05T12:43:05Z</time>
      </trkpt>
      <trkpt lat="44.79353" lon="5.35364">
        <ele>563.47</ele>
        <time>2014-09-05T12:43:06Z</time>
      </trkpt>
      <trkpt lat="44.79367" lon="5.35359">
        <ele>564.43</ele>
        <time>2014-09-05T12:43:15Z</time>
      </trkpt>
      <trkpt lat="44.79374" lon="5.35356">
        <ele>564.91</ele>
        <time>2014-09-05T12:43:19Z</time>
      </trkpt>
      <trkpt lat="44.79377" lon="5.35355">
        <ele>564.91</ele>
        <time>2014-09-05T12:43:21Z</time>
      </trkpt>
      <trkpt lat="44.79379" lon="5.35354">
        <ele>564.91</ele>
        <time>2014-09-05T12:43:22Z</time>
      </trkpt>
      <trkpt lat="44.79381" lon="5.35354">
        <ele>565.39</ele>
        <time>2014-09-05T12:43:23Z</time>
      </trkpt>
      <trkpt lat="44.79383" lon="5.35353">
        <ele>565.87</ele>
        <time>2014-09-05T12:43:24Z</time>
      </trkpt>
      <trkpt lat="44.79385" lon="5.35354">
        <ele>565.87</ele>
        <time>2014-09-05T12:43:25Z</time>
      </trkpt>
      <trkpt lat="44.79387" lon="5.35354">
        <ele>565.39</ele>
        <time>2014-09-05T12:43:26Z</time>
      </trkpt>
      <trkpt lat="44.79388" lon="5.35354">
        <ele>565.87</ele>
        <time>2014-09-05T12:43:27Z</time>
      </trkpt>
      <trkpt lat="44.7939" lon="5.35354">
        <ele>566.35</ele>
        <time>2014-09-05T12:43:28Z</time>
      </trkpt>
      <trkpt lat="44.79392" lon="5.35355">
        <ele>565.87</ele>
        <time>2014-09-05T12:43:29Z</time>
      </trkpt>
      <trkpt lat="44.79406" lon="5.35356">
        <ele>567.32</ele>
        <time>2014-09-05T12:43:37Z</time>
      </trkpt>
      <trkpt lat="44.79408" lon="5.35357">
        <ele>567.32</ele>
        <time>2014-09-05T12:43:38Z</time>
      </trkpt>
      <trkpt lat="44.7941" lon="5.35358">
        <ele>567.32</ele>
        <time>2014-09-05T12:43:39Z</time>
      </trkpt>
      <trkpt lat="44.79411" lon="5.35358">
        <ele>567.8</ele>
        <time>2014-09-05T12:43:40Z</time>
      </trkpt>
      <trkpt lat="44.79413" lon="5.35358">
        <ele>567.8</ele>
        <time>2014-09-05T12:43:41Z</time>
      </trkpt>
      <trkpt lat="44.79414" lon="5.35358">
        <ele>567.8</ele>
        <time>2014-09-05T12:43:42Z</time>
      </trkpt>
      <trkpt lat="44.79416" lon="5.35357">
        <ele>567.8</ele>
        <time>2014-09-05T12:43:43Z</time>
      </trkpt>
      <trkpt lat="44.79418" lon="5.35357">
        <ele>568.28</ele>
        <time>2014-09-05T12:43:44Z</time>
      </trkpt>
      <trkpt lat="44.7943" lon="5.35355">
        <ele>569.24</ele>
        <time>2014-09-05T12:43:51Z</time>
      </trkpt>
      <trkpt lat="44.79432" lon="5.35356">
        <ele>569.24</ele>
        <time>2014-09-05T12:43:52Z</time>
      </trkpt>
      <trkpt lat="44.79442" lon="5.3536">
        <ele>570.2</ele>
        <time>2014-09-05T12:43:58Z</time>
      </trkpt>
      <trkpt lat="44.79443" lon="5.35362">
        <ele>571.16</ele>
        <time>2014-09-05T12:43:59Z</time>
      </trkpt>
      <trkpt lat="44.79454" lon="5.35386">
        <ele>572.6</ele>
        <time>2014-09-05T12:44:10Z</time>
      </trkpt>
      <trkpt lat="44.79468" lon="5.35402">
        <ele>573.56</ele>
        <time>2014-09-05T12:44:20Z</time>
      </trkpt>
      <trkpt lat="44.79472" lon="5.35425">
        <ele>575.01</ele>
        <time>2014-09-05T12:44:29Z</time>
      </trkpt>
      <trkpt lat="44.79471" lon="5.35427">
        <ele>575.49</ele>
        <time>2014-09-05T12:44:30Z</time>
      </trkpt>
      <trkpt lat="44.79467" lon="5.35456">
        <ele>577.41</ele>
        <time>2014-09-05T12:44:42Z</time>
      </trkpt>
      <trkpt lat="44.79459" lon="5.35485">
        <ele>578.85</ele>
        <time>2014-09-05T12:44:55Z</time>
      </trkpt>
      <trkpt lat="44.7946" lon="5.35514">
        <ele>580.29</ele>
        <time>2014-09-05T12:45:07Z</time>
      </trkpt>
      <trkpt lat="44.79465" lon="5.35541">
        <ele>582.22</ele>
        <time>2014-09-05T12:45:19Z</time>
      </trkpt>
      <trkpt lat="44.79468" lon="5.35567">
        <ele>583.66</ele>
        <time>2014-09-05T12:45:30Z</time>
      </trkpt>
      <trkpt lat="44.79468" lon="5.35581">
        <ele>584.62</ele>
        <time>2014-09-05T12:45:36Z</time>
      </trkpt>
      <trkpt lat="44.79468" lon="5.35583">
        <ele>585.1</ele>
        <time>2014-09-05T12:45:37Z</time>
      </trkpt>
      <trkpt lat="44.79467" lon="5.35585">
        <ele>584.62</ele>
        <time>2014-09-05T12:45:38Z</time>
      </trkpt>
      <trkpt lat="44.79458" lon="5.3561">
        <ele>587.02</ele>
        <time>2014-09-05T12:45:50Z</time>
      </trkpt>
      <trkpt lat="44.79456" lon="5.35617">
        <ele>587.02</ele>
        <time>2014-09-05T12:45:53Z</time>
      </trkpt>
      <trkpt lat="44.79456" lon="5.35619">
        <ele>587.5</ele>
        <time>2014-09-05T12:45:54Z</time>
      </trkpt>
      <trkpt lat="44.79455" lon="5.35621">
        <ele>587.5</ele>
        <time>2014-09-05T12:45:55Z</time>
      </trkpt>
      <trkpt lat="44.79454" lon="5.35624">
        <ele>587.5</ele>
        <time>2014-09-05T12:45:56Z</time>
      </trkpt>
      <trkpt lat="44.79453" lon="5.35626">
        <ele>587.5</ele>
        <time>2014-09-05T12:45:57Z</time>
      </trkpt>
      <trkpt lat="44.79453" lon="5.35628">
        <ele>587.98</ele>
        <time>2014-09-05T12:45:58Z</time>
      </trkpt>
      <trkpt lat="44.79452" lon="5.3563">
        <ele>588.46</ele>
        <time>2014-09-05T12:45:59Z</time>
      </trkpt>
      <trkpt lat="44.79448" lon="5.35653">
        <ele>589.43</ele>
        <time>2014-09-05T12:46:09Z</time>
      </trkpt>
      <trkpt lat="44.79446" lon="5.35666">
        <ele>589.91</ele>
        <time>2014-09-05T12:46:15Z</time>
      </trkpt>
      <trkpt lat="44.79446" lon="5.35668">
        <ele>589.91</ele>
        <time>2014-09-05T12:46:16Z</time>
      </trkpt>
      <trkpt lat="44.79446" lon="5.3567">
        <ele>590.39</ele>
        <time>2014-09-05T12:46:17Z</time>
      </trkpt>
      <trkpt lat="44.79445" lon="5.35672">
        <ele>590.39</ele>
        <time>2014-09-05T12:46:18Z</time>
      </trkpt>
      <trkpt lat="44.79445" lon="5.35674">
        <ele>590.87</ele>
        <time>2014-09-05T12:46:19Z</time>
      </trkpt>
      <trkpt lat="44.79444" lon="5.35676">
        <ele>590.87</ele>
        <time>2014-09-05T12:46:20Z</time>
      </trkpt>
      <trkpt lat="44.79443" lon="5.35678">
        <ele>590.87</ele>
        <time>2014-09-05T12:46:21Z</time>
      </trkpt>
      <trkpt lat="44.79443" lon="5.3568">
        <ele>591.35</ele>
        <time>2014-09-05T12:46:22Z</time>
      </trkpt>
      <trkpt lat="44.79442" lon="5.35682">
        <ele>591.35</ele>
        <time>2014-09-05T12:46:23Z</time>
      </trkpt>
      <trkpt lat="44.79442" lon="5.35684">
        <ele>591.83</ele>
        <time>2014-09-05T12:46:24Z</time>
      </trkpt>
      <trkpt lat="44.79442" lon="5.35686">
        <ele>591.35</ele>
        <time>2014-09-05T12:46:25Z</time>
      </trkpt>
      <trkpt lat="44.79441" lon="5.35689">
        <ele>591.83</ele>
        <time>2014-09-05T12:46:26Z</time>
      </trkpt>
      <trkpt lat="44.79442" lon="5.35695">
        <ele>592.31</ele>
        <time>2014-09-05T12:46:29Z</time>
      </trkpt>
      <trkpt lat="44.79442" lon="5.35704">
        <ele>592.79</ele>
        <time>2014-09-05T12:46:33Z</time>
      </trkpt>
      <trkpt lat="44.79442" lon="5.35706">
        <ele>592.79</ele>
        <time>2014-09-05T12:46:34Z</time>
      </trkpt>
      <trkpt lat="44.79442" lon="5.35713">
        <ele>593.75</ele>
        <time>2014-09-05T12:46:37Z</time>
      </trkpt>
      <trkpt lat="44.79442" lon="5.35715">
        <ele>593.75</ele>
        <time>2014-09-05T12:46:38Z</time>
      </trkpt>
      <trkpt lat="44.79442" lon="5.35717">
        <ele>594.23</ele>
        <time>2014-09-05T12:46:39Z</time>
      </trkpt>
      <trkpt lat="44.79448" lon="5.35738">
        <ele>595.19</ele>
        <time>2014-09-05T12:46:49Z</time>
      </trkpt>
      <trkpt lat="44.79448" lon="5.3574">
        <ele>595.67</ele>
        <time>2014-09-05T12:46:50Z</time>
      </trkpt>
      <trkpt lat="44.79448" lon="5.35742">
        <ele>595.67</ele>
        <time>2014-09-05T12:46:57Z</time>
      </trkpt>
      <trkpt lat="44.79448" lon="5.35742">
        <ele>595.67</ele>
        <time>2014-09-05T12:47:14Z</time>
      </trkpt>
      <trkpt lat="44.79448" lon="5.35742">
        <ele>595.67</ele>
        <time>2014-09-05T12:47:32Z</time>
      </trkpt>
      <trkpt lat="44.79451" lon="5.35749">
        <ele>596.15</ele>
        <time>2014-09-05T12:47:42Z</time>
      </trkpt>
      <trkpt lat="44.79453" lon="5.35775">
        <ele>595.19</ele>
        <time>2014-09-05T12:47:50Z</time>
      </trkpt>
      <trkpt lat="44.79452" lon="5.35781">
        <ele>594.71</ele>
        <time>2014-09-05T12:47:51Z</time>
      </trkpt>
      <trkpt lat="44.79446" lon="5.35814">
        <ele>591.35</ele>
        <time>2014-09-05T12:47:55Z</time>
      </trkpt>
      <trkpt lat="44.79443" lon="5.35822">
        <ele>590.87</ele>
        <time>2014-09-05T12:47:56Z</time>
      </trkpt>
      <trkpt lat="44.79441" lon="5.3583">
        <ele>590.87</ele>
        <time>2014-09-05T12:47:57Z</time>
      </trkpt>
      <trkpt lat="44.79433" lon="5.35843">
        <ele>589.43</ele>
        <time>2014-09-05T12:47:59Z</time>
      </trkpt>
      <trkpt lat="44.79428" lon="5.35848">
        <ele>588.46</ele>
        <time>2014-09-05T12:48:00Z</time>
      </trkpt>
      <trkpt lat="44.79422" lon="5.35854">
        <ele>588.95</ele>
        <time>2014-09-05T12:48:01Z</time>
      </trkpt>
      <trkpt lat="44.79416" lon="5.35861">
        <ele>587.98</ele>
        <time>2014-09-05T12:48:02Z</time>
      </trkpt>
      <trkpt lat="44.79412" lon="5.35868">
        <ele>587.02</ele>
        <time>2014-09-05T12:48:03Z</time>
      </trkpt>
      <trkpt lat="44.79409" lon="5.35875">
        <ele>587.02</ele>
        <time>2014-09-05T12:48:04Z</time>
      </trkpt>
      <trkpt lat="44.79407" lon="5.35883">
        <ele>586.54</ele>
        <time>2014-09-05T12:48:05Z</time>
      </trkpt>
      <trkpt lat="44.79401" lon="5.35906">
        <ele>585.1</ele>
        <time>2014-09-05T12:48:08Z</time>
      </trkpt>
      <trkpt lat="44.79398" lon="5.35914">
        <ele>584.62</ele>
        <time>2014-09-05T12:48:09Z</time>
      </trkpt>
      <trkpt lat="44.79395" lon="5.35923">
        <ele>584.62</ele>
        <time>2014-09-05T12:48:10Z</time>
      </trkpt>
      <trkpt lat="44.79395" lon="5.3593">
        <ele>583.66</ele>
        <time>2014-09-05T12:48:11Z</time>
      </trkpt>
      <trkpt lat="44.79396" lon="5.35938">
        <ele>583.66</ele>
        <time>2014-09-05T12:48:12Z</time>
      </trkpt>
      <trkpt lat="44.79397" lon="5.35945">
        <ele>582.7</ele>
        <time>2014-09-05T12:48:13Z</time>
      </trkpt>
      <trkpt lat="44.79398" lon="5.35952">
        <ele>582.7</ele>
        <time>2014-09-05T12:48:14Z</time>
      </trkpt>
      <trkpt lat="44.79397" lon="5.35958">
        <ele>582.22</ele>
        <time>2014-09-05T12:48:15Z</time>
      </trkpt>
      <trkpt lat="44.79396" lon="5.35964">
        <ele>582.22</ele>
        <time>2014-09-05T12:48:16Z</time>
      </trkpt>
      <trkpt lat="44.79395" lon="5.3597">
        <ele>582.22</ele>
        <time>2014-09-05T12:48:17Z</time>
      </trkpt>
      <trkpt lat="44.79395" lon="5.35976">
        <ele>582.22</ele>
        <time>2014-09-05T12:48:18Z</time>
      </trkpt>
      <trkpt lat="44.79395" lon="5.35982">
        <ele>581.73</ele>
        <time>2014-09-05T12:48:19Z</time>
      </trkpt>
      <trkpt lat="44.79396" lon="5.35988">
        <ele>581.73</ele>
        <time>2014-09-05T12:48:20Z</time>
      </trkpt>
      <trkpt lat="44.79395" lon="5.35994">
        <ele>581.25</ele>
        <time>2014-09-05T12:48:21Z</time>
      </trkpt>
      <trkpt lat="44.79394" lon="5.35997">
        <ele>580.77</ele>
        <time>2014-09-05T12:48:22Z</time>
      </trkpt>
      <trkpt lat="44.79393" lon="5.36001">
        <ele>580.77</ele>
        <time>2014-09-05T12:48:23Z</time>
      </trkpt>
      <trkpt lat="44.79392" lon="5.36004">
        <ele>580.29</ele>
        <time>2014-09-05T12:48:24Z</time>
      </trkpt>
      <trkpt lat="44.79391" lon="5.36007">
        <ele>580.77</ele>
        <time>2014-09-05T12:48:25Z</time>
      </trkpt>
      <trkpt lat="44.7939" lon="5.36012">
        <ele>579.81</ele>
        <time>2014-09-05T12:48:26Z</time>
      </trkpt>
      <trkpt lat="44.79389" lon="5.36017">
        <ele>579.81</ele>
        <time>2014-09-05T12:48:27Z</time>
      </trkpt>
      <trkpt lat="44.79388" lon="5.36023">
        <ele>579.33</ele>
        <time>2014-09-05T12:48:28Z</time>
      </trkpt>
      <trkpt lat="44.79387" lon="5.3603">
        <ele>579.33</ele>
        <time>2014-09-05T12:48:29Z</time>
      </trkpt>
      <trkpt lat="44.79384" lon="5.36042">
        <ele>578.85</ele>
        <time>2014-09-05T12:48:31Z</time>
      </trkpt>
      <trkpt lat="44.79384" lon="5.36048">
        <ele>578.37</ele>
        <time>2014-09-05T12:48:32Z</time>
      </trkpt>
      <trkpt lat="44.79383" lon="5.36055">
        <ele>578.37</ele>
        <time>2014-09-05T12:48:33Z</time>
      </trkpt>
      <trkpt lat="44.79382" lon="5.36061">
        <ele>577.89</ele>
        <time>2014-09-05T12:48:34Z</time>
      </trkpt>
      <trkpt lat="44.79381" lon="5.36067">
        <ele>577.89</ele>
        <time>2014-09-05T12:48:35Z</time>
      </trkpt>
      <trkpt lat="44.79373" lon="5.361">
        <ele>575.49</ele>
        <time>2014-09-05T12:48:42Z</time>
      </trkpt>
      <trkpt lat="44.79372" lon="5.36104">
        <ele>575.01</ele>
        <time>2014-09-05T12:48:43Z</time>
      </trkpt>
      <trkpt lat="44.79367" lon="5.3612">
        <ele>574.53</ele>
        <time>2014-09-05T12:48:47Z</time>
      </trkpt>
      <trkpt lat="44.79366" lon="5.36124">
        <ele>574.04</ele>
        <time>2014-09-05T12:48:48Z</time>
      </trkpt>
      <trkpt lat="44.79363" lon="5.36128">
        <ele>573.56</ele>
        <time>2014-09-05T12:48:49Z</time>
      </trkpt>
      <trkpt lat="44.79361" lon="5.36131">
        <ele>573.08</ele>
        <time>2014-09-05T12:48:50Z</time>
      </trkpt>
      <trkpt lat="44.79358" lon="5.36134">
        <ele>573.08</ele>
        <time>2014-09-05T12:48:51Z</time>
      </trkpt>
      <trkpt lat="44.79356" lon="5.36137">
        <ele>572.6</ele>
        <time>2014-09-05T12:48:52Z</time>
      </trkpt>
      <trkpt lat="44.79353" lon="5.36141">
        <ele>572.6</ele>
        <time>2014-09-05T12:48:53Z</time>
      </trkpt>
      <trkpt lat="44.79352" lon="5.36145">
        <ele>571.64</ele>
        <time>2014-09-05T12:48:54Z</time>
      </trkpt>
      <trkpt lat="44.79351" lon="5.36151">
        <ele>571.64</ele>
        <time>2014-09-05T12:48:55Z</time>
      </trkpt>
      <trkpt lat="44.79348" lon="5.36174">
        <ele>570.68</ele>
        <time>2014-09-05T12:48:59Z</time>
      </trkpt>
      <trkpt lat="44.79347" lon="5.3618">
        <ele>570.68</ele>
        <time>2014-09-05T12:49:00Z</time>
      </trkpt>
      <trkpt lat="44.79345" lon="5.36186">
        <ele>570.68</ele>
        <time>2014-09-05T12:49:01Z</time>
      </trkpt>
      <trkpt lat="44.79341" lon="5.36198">
        <ele>569.72</ele>
        <time>2014-09-05T12:49:05Z</time>
      </trkpt>
      <trkpt lat="44.79337" lon="5.36202">
        <ele>568.76</ele>
        <time>2014-09-05T12:49:11Z</time>
      </trkpt>
      <trkpt lat="44.79335" lon="5.36212">
        <ele>568.76</ele>
        <time>2014-09-05T12:49:20Z</time>
      </trkpt>
      <trkpt lat="44.79332" lon="5.36219">
        <ele>568.28</ele>
        <time>2014-09-05T12:49:25Z</time>
      </trkpt>
      <trkpt lat="44.79331" lon="5.3622">
        <ele>568.28</ele>
        <time>2014-09-05T12:49:26Z</time>
      </trkpt>
      <trkpt lat="44.7933" lon="5.36222">
        <ele>568.28</ele>
        <time>2014-09-05T12:49:27Z</time>
      </trkpt>
      <trkpt lat="44.79328" lon="5.36228">
        <ele>567.8</ele>
        <time>2014-09-05T12:49:36Z</time>
      </trkpt>
      <trkpt lat="44.79327" lon="5.3623">
        <ele>567.8</ele>
        <time>2014-09-05T12:49:37Z</time>
      </trkpt>
      <trkpt lat="44.79327" lon="5.36232">
        <ele>567.8</ele>
        <time>2014-09-05T12:49:38Z</time>
      </trkpt>
      <trkpt lat="44.79326" lon="5.36234">
        <ele>567.8</ele>
        <time>2014-09-05T12:49:39Z</time>
      </trkpt>
      <trkpt lat="44.79328" lon="5.36252">
        <ele>566.83</ele>
        <time>2014-09-05T12:49:47Z</time>
      </trkpt>
      <trkpt lat="44.79328" lon="5.36254">
        <ele>566.83</ele>
        <time>2014-09-05T12:49:48Z</time>
      </trkpt>
      <trkpt lat="44.79327" lon="5.36258">
        <ele>566.83</ele>
        <time>2014-09-05T12:49:50Z</time>
      </trkpt>
      <trkpt lat="44.79326" lon="5.3626">
        <ele>566.83</ele>
        <time>2014-09-05T12:49:51Z</time>
      </trkpt>
      <trkpt lat="44.79326" lon="5.36262">
        <ele>566.83</ele>
        <time>2014-09-05T12:49:52Z</time>
      </trkpt>
      <trkpt lat="44.79326" lon="5.36265">
        <ele>566.35</ele>
        <time>2014-09-05T12:49:53Z</time>
      </trkpt>
      <trkpt lat="44.79326" lon="5.36267">
        <ele>565.87</ele>
        <time>2014-09-05T12:49:54Z</time>
      </trkpt>
      <trkpt lat="44.79326" lon="5.3627">
        <ele>565.87</ele>
        <time>2014-09-05T12:49:55Z</time>
      </trkpt>
      <trkpt lat="44.79326" lon="5.36273">
        <ele>565.87</ele>
        <time>2014-09-05T12:49:56Z</time>
      </trkpt>
      <trkpt lat="44.79326" lon="5.36276">
        <ele>565.87</ele>
        <time>2014-09-05T12:49:57Z</time>
      </trkpt>
      <trkpt lat="44.79321" lon="5.36297">
        <ele>565.39</ele>
        <time>2014-09-05T12:50:03Z</time>
      </trkpt>
      <trkpt lat="44.79321" lon="5.36301">
        <ele>565.39</ele>
        <time>2014-09-05T12:50:04Z</time>
      </trkpt>
      <trkpt lat="44.79322" lon="5.36305">
        <ele>564.91</ele>
        <time>2014-09-05T12:50:05Z</time>
      </trkpt>
      <trkpt lat="44.79324" lon="5.36319">
        <ele>563.95</ele>
        <time>2014-09-05T12:50:08Z</time>
      </trkpt>
      <trkpt lat="44.79322" lon="5.36323">
        <ele>563.95</ele>
        <time>2014-09-05T12:50:09Z</time>
      </trkpt>
      <trkpt lat="44.79312" lon="5.36358">
        <ele>562.03</ele>
        <time>2014-09-05T12:50:17Z</time>
      </trkpt>
      <trkpt lat="44.79303" lon="5.36373">
        <ele>560.59</ele>
        <time>2014-09-05T12:50:22Z</time>
      </trkpt>
      <trkpt lat="44.79302" lon="5.36375">
        <ele>560.11</ele>
        <time>2014-09-05T12:50:23Z</time>
      </trkpt>
      <trkpt lat="44.793" lon="5.36377">
        <ele>560.11</ele>
        <time>2014-09-05T12:50:24Z</time>
      </trkpt>
      <trkpt lat="44.79298" lon="5.36379">
        <ele>560.11</ele>
        <time>2014-09-05T12:50:25Z</time>
      </trkpt>
      <trkpt lat="44.79297" lon="5.36383">
        <ele>559.62</ele>
        <time>2014-09-05T12:50:26Z</time>
      </trkpt>
      <trkpt lat="44.79295" lon="5.36386">
        <ele>559.62</ele>
        <time>2014-09-05T12:50:27Z</time>
      </trkpt>
      <trkpt lat="44.79294" lon="5.36391">
        <ele>559.62</ele>
        <time>2014-09-05T12:50:28Z</time>
      </trkpt>
      <trkpt lat="44.79292" lon="5.36396">
        <ele>559.14</ele>
        <time>2014-09-05T12:50:29Z</time>
      </trkpt>
      <trkpt lat="44.7929" lon="5.36401">
        <ele>559.62</ele>
        <time>2014-09-05T12:50:30Z</time>
      </trkpt>
      <trkpt lat="44.79288" lon="5.36405">
        <ele>559.14</ele>
        <time>2014-09-05T12:50:31Z</time>
      </trkpt>
      <trkpt lat="44.79286" lon="5.36411">
        <ele>558.66</ele>
        <time>2014-09-05T12:50:32Z</time>
      </trkpt>
      <trkpt lat="44.79284" lon="5.36415">
        <ele>559.14</ele>
        <time>2014-09-05T12:50:33Z</time>
      </trkpt>
      <trkpt lat="44.79283" lon="5.36417">
        <ele>558.66</ele>
        <time>2014-09-05T12:50:34Z</time>
      </trkpt>
      <trkpt lat="44.79281" lon="5.3642">
        <ele>558.18</ele>
        <time>2014-09-05T12:50:35Z</time>
      </trkpt>
      <trkpt lat="44.79279" lon="5.36423">
        <ele>558.18</ele>
        <time>2014-09-05T12:50:36Z</time>
      </trkpt>
      <trkpt lat="44.79277" lon="5.36428">
        <ele>557.7</ele>
        <time>2014-09-05T12:50:37Z</time>
      </trkpt>
      <trkpt lat="44.79275" lon="5.36434">
        <ele>557.22</ele>
        <time>2014-09-05T12:50:38Z</time>
      </trkpt>
      <trkpt lat="44.79274" lon="5.36441">
        <ele>557.22</ele>
        <time>2014-09-05T12:50:39Z</time>
      </trkpt>
      <trkpt lat="44.79257" lon="5.36481">
        <ele>554.82</ele>
        <time>2014-09-05T12:50:48Z</time>
      </trkpt>
      <trkpt lat="44.7925" lon="5.3649">
        <ele>553.86</ele>
        <time>2014-09-05T12:50:50Z</time>
      </trkpt>
      <trkpt lat="44.79234" lon="5.36517">
        <ele>551.93</ele>
        <time>2014-09-05T12:50:57Z</time>
      </trkpt>
      <trkpt lat="44.79234" lon="5.36526">
        <ele>550.49</ele>
        <time>2014-09-05T12:51:00Z</time>
      </trkpt>
      <trkpt lat="44.79234" lon="5.36531">
        <ele>550.01</ele>
        <time>2014-09-05T12:51:07Z</time>
      </trkpt>
      <trkpt lat="44.79234" lon="5.36536">
        <ele>549.53</ele>
        <time>2014-09-05T12:51:11Z</time>
      </trkpt>
      <trkpt lat="44.79232" lon="5.36548">
        <ele>548.09</ele>
        <time>2014-09-05T12:51:19Z</time>
      </trkpt>
      <trkpt lat="44.79231" lon="5.36553">
        <ele>552.9</ele>
        <time>2014-09-05T12:51:31Z</time>
      </trkpt>
      <trkpt lat="44.79231" lon="5.36553">
        <ele>556.74</ele>
        <time>2014-09-05T12:51:32Z</time>
      </trkpt>
      <trkpt lat="44.79231" lon="5.36553">
        <ele>548.57</ele>
        <time>2014-09-05T12:51:33Z</time>
      </trkpt>
      <trkpt lat="44.79231" lon="5.36553">
        <ele>549.05</ele>
        <time>2014-09-05T12:51:34Z</time>
      </trkpt>
      <trkpt lat="44.79231" lon="5.36553">
        <ele>546.17</ele>
        <time>2014-09-05T12:51:38Z</time>
      </trkpt>
      <trkpt lat="44.79229" lon="5.36563">
        <ele>547.13</ele>
        <time>2014-09-05T12:51:47Z</time>
      </trkpt>
      <trkpt lat="44.79222" lon="5.36577">
        <ele>545.2</ele>
        <time>2014-09-05T12:51:58Z</time>
      </trkpt>
      <trkpt lat="44.79219" lon="5.36583">
        <ele>544.24</ele>
        <time>2014-09-05T12:52:02Z</time>
      </trkpt>
      <trkpt lat="44.79218" lon="5.36584">
        <ele>544.72</ele>
        <time>2014-09-05T12:52:03Z</time>
      </trkpt>
      <trkpt lat="44.79217" lon="5.36586">
        <ele>544.24</ele>
        <time>2014-09-05T12:52:04Z</time>
      </trkpt>
      <trkpt lat="44.79213" lon="5.36596">
        <ele>542.8</ele>
        <time>2014-09-05T12:52:13Z</time>
      </trkpt>
      <trkpt lat="44.79209" lon="5.36606">
        <ele>541.36</ele>
        <time>2014-09-05T12:52:22Z</time>
      </trkpt>
      <trkpt lat="44.79207" lon="5.36611">
        <ele>540.4</ele>
        <time>2014-09-05T12:52:28Z</time>
      </trkpt>
      <trkpt lat="44.79203" lon="5.36615">
        <ele>540.4</ele>
        <time>2014-09-05T12:52:34Z</time>
      </trkpt>
      <trkpt lat="44.79199" lon="5.36623">
        <ele>539.92</ele>
        <time>2014-09-05T12:52:42Z</time>
      </trkpt>
      <trkpt lat="44.79199" lon="5.36624">
        <ele>538.96</ele>
        <time>2014-09-05T12:52:43Z</time>
      </trkpt>
      <trkpt lat="44.79195" lon="5.36629">
        <ele>538.48</ele>
        <time>2014-09-05T12:52:51Z</time>
      </trkpt>
      <trkpt lat="44.79192" lon="5.36631">
        <ele>537.99</ele>
        <time>2014-09-05T12:52:56Z</time>
      </trkpt>
      <trkpt lat="44.79188" lon="5.36635">
        <ele>537.51</ele>
        <time>2014-09-05T12:52:58Z</time>
      </trkpt>
      <trkpt lat="44.79186" lon="5.36636">
        <ele>537.03</ele>
        <time>2014-09-05T12:52:59Z</time>
      </trkpt>
      <trkpt lat="44.79183" lon="5.36636">
        <ele>537.03</ele>
        <time>2014-09-05T12:53:00Z</time>
      </trkpt>
      <trkpt lat="44.79181" lon="5.36635">
        <ele>537.51</ele>
        <time>2014-09-05T12:53:01Z</time>
      </trkpt>
      <trkpt lat="44.79179" lon="5.36635">
        <ele>537.51</ele>
        <time>2014-09-05T12:53:02Z</time>
      </trkpt>
      <trkpt lat="44.79178" lon="5.36633">
        <ele>537.51</ele>
        <time>2014-09-05T12:53:03Z</time>
      </trkpt>
      <trkpt lat="44.79176" lon="5.36632">
        <ele>537.99</ele>
        <time>2014-09-05T12:53:10Z</time>
      </trkpt>
      <trkpt lat="44.7917" lon="5.36623">
        <ele>540.88</ele>
        <time>2014-09-05T12:53:19Z</time>
      </trkpt>
      <trkpt lat="44.79168" lon="5.36617">
        <ele>542.32</ele>
        <time>2014-09-05T12:53:25Z</time>
      </trkpt>
      <trkpt lat="44.79166" lon="5.36614">
        <ele>543.28</ele>
        <time>2014-09-05T12:53:28Z</time>
      </trkpt>
      <trkpt lat="44.79165" lon="5.36612">
        <ele>543.28</ele>
        <time>2014-09-05T12:53:29Z</time>
      </trkpt>
      <trkpt lat="44.79165" lon="5.36611">
        <ele>543.28</ele>
        <time>2014-09-05T12:53:30Z</time>
      </trkpt>
      <trkpt lat="44.79164" lon="5.36607">
        <ele>543.76</ele>
        <time>2014-09-05T12:53:33Z</time>
      </trkpt>
      <trkpt lat="44.79157" lon="5.36599">
        <ele>544.24</ele>
        <time>2014-09-05T12:53:43Z</time>
      </trkpt>
      <trkpt lat="44.79156" lon="5.36596">
        <ele>543.76</ele>
        <time>2014-09-05T12:53:44Z</time>
      </trkpt>
      <trkpt lat="44.79155" lon="5.36593">
        <ele>543.76</ele>
        <time>2014-09-05T12:53:45Z</time>
      </trkpt>
      <trkpt lat="44.79155" lon="5.3659">
        <ele>543.28</ele>
        <time>2014-09-05T12:53:46Z</time>
      </trkpt>
      <trkpt lat="44.79153" lon="5.36588">
        <ele>543.76</ele>
        <time>2014-09-05T12:53:47Z</time>
      </trkpt>
      <trkpt lat="44.79153" lon="5.36585">
        <ele>543.76</ele>
        <time>2014-09-05T12:53:48Z</time>
      </trkpt>
      <trkpt lat="44.79152" lon="5.36583">
        <ele>543.28</ele>
        <time>2014-09-05T12:53:49Z</time>
      </trkpt>
      <trkpt lat="44.79149" lon="5.36573">
        <ele>542.32</ele>
        <time>2014-09-05T12:53:58Z</time>
      </trkpt>
      <trkpt lat="44.79142" lon="5.36555">
        <ele>541.36</ele>
        <time>2014-09-05T12:54:06Z</time>
      </trkpt>
      <trkpt lat="44.7913" lon="5.3653">
        <ele>540.4</ele>
        <time>2014-09-05T12:54:13Z</time>
      </trkpt>
      <trkpt lat="44.79128" lon="5.36524">
        <ele>539.92</ele>
        <time>2014-09-05T12:54:16Z</time>
      </trkpt>
      <trkpt lat="44.79126" lon="5.36522">
        <ele>539.92</ele>
        <time>2014-09-05T12:54:17Z</time>
      </trkpt>
      <trkpt lat="44.79121" lon="5.36507">
        <ele>538.48</ele>
        <time>2014-09-05T12:54:23Z</time>
      </trkpt>
      <trkpt lat="44.79118" lon="5.36502">
        <ele>538.48</ele>
        <time>2014-09-05T12:54:28Z</time>
      </trkpt>
      <trkpt lat="44.79118" lon="5.365">
        <ele>537.99</ele>
        <time>2014-09-05T12:54:29Z</time>
      </trkpt>
      <trkpt lat="44.79111" lon="5.36486">
        <ele>537.03</ele>
        <time>2014-09-05T12:54:36Z</time>
      </trkpt>
      <trkpt lat="44.79107" lon="5.36482">
        <ele>536.55</ele>
        <time>2014-09-05T12:54:43Z</time>
      </trkpt>
      <trkpt lat="44.79104" lon="5.36477">
        <ele>536.55</ele>
        <time>2014-09-05T12:54:48Z</time>
      </trkpt>
      <trkpt lat="44.79103" lon="5.3648">
        <ele>535.59</ele>
        <time>2014-09-05T12:54:56Z</time>
      </trkpt>
      <trkpt lat="44.79101" lon="5.36483">
        <ele>533.67</ele>
        <time>2014-09-05T12:55:04Z</time>
      </trkpt>
      <trkpt lat="44.791" lon="5.3648">
        <ele>533.19</ele>
        <time>2014-09-05T12:55:07Z</time>
      </trkpt>
      <trkpt lat="44.79095" lon="5.3647">
        <ele>531.75</ele>
        <time>2014-09-05T12:55:17Z</time>
      </trkpt>
      <trkpt lat="44.79093" lon="5.36467">
        <ele>531.75</ele>
        <time>2014-09-05T12:55:24Z</time>
      </trkpt>
      <trkpt lat="44.79091" lon="5.36466">
        <ele>531.75</ele>
        <time>2014-09-05T12:55:25Z</time>
      </trkpt>
      <trkpt lat="44.79081" lon="5.36457">
        <ele>531.75</ele>
        <time>2014-09-05T12:55:31Z</time>
      </trkpt>
      <trkpt lat="44.79078" lon="5.3645">
        <ele>533.19</ele>
        <time>2014-09-05T12:55:34Z</time>
      </trkpt>
      <trkpt lat="44.79074" lon="5.36446">
        <ele>533.67</ele>
        <time>2014-09-05T12:55:37Z</time>
      </trkpt>
      <trkpt lat="44.79072" lon="5.36446">
        <ele>534.15</ele>
        <time>2014-09-05T12:55:38Z</time>
      </trkpt>
      <trkpt lat="44.7907" lon="5.36446">
        <ele>533.67</ele>
        <time>2014-09-05T12:55:39Z</time>
      </trkpt>
      <trkpt lat="44.79069" lon="5.36447">
        <ele>534.15</ele>
        <time>2014-09-05T12:55:40Z</time>
      </trkpt>
      <trkpt lat="44.79067" lon="5.36448">
        <ele>534.15</ele>
        <time>2014-09-05T12:55:41Z</time>
      </trkpt>
      <trkpt lat="44.79064" lon="5.36449">
        <ele>534.63</ele>
        <time>2014-09-05T12:55:43Z</time>
      </trkpt>
      <trkpt lat="44.79062" lon="5.36448">
        <ele>535.11</ele>
        <time>2014-09-05T12:55:44Z</time>
      </trkpt>
      <trkpt lat="44.79059" lon="5.36446">
        <ele>534.15</ele>
        <time>2014-09-05T12:55:46Z</time>
      </trkpt>
      <trkpt lat="44.79059" lon="5.36443">
        <ele>534.15</ele>
        <time>2014-09-05T12:55:47Z</time>
      </trkpt>
      <trkpt lat="44.79059" lon="5.36439">
        <ele>534.15</ele>
        <time>2014-09-05T12:55:48Z</time>
      </trkpt>
      <trkpt lat="44.79056" lon="5.36421">
        <ele>532.23</ele>
        <time>2014-09-05T12:55:51Z</time>
      </trkpt>
      <trkpt lat="44.7905" lon="5.36389">
        <ele>531.75</ele>
        <time>2014-09-05T12:55:56Z</time>
      </trkpt>
      <trkpt lat="44.79042" lon="5.36393">
        <ele>530.3</ele>
        <time>2014-09-05T12:56:00Z</time>
      </trkpt>
      <trkpt lat="44.79042" lon="5.364">
        <ele>529.34</ele>
        <time>2014-09-05T12:56:01Z</time>
      </trkpt>
      <trkpt lat="44.79041" lon="5.36407">
        <ele>528.38</ele>
        <time>2014-09-05T12:56:02Z</time>
      </trkpt>
      <trkpt lat="44.79041" lon="5.36414">
        <ele>527.9</ele>
        <time>2014-09-05T12:56:03Z</time>
      </trkpt>
      <trkpt lat="44.79039" lon="5.36427">
        <ele>526.94</ele>
        <time>2014-09-05T12:56:05Z</time>
      </trkpt>
      <trkpt lat="44.79039" lon="5.36433">
        <ele>525.98</ele>
        <time>2014-09-05T12:56:06Z</time>
      </trkpt>
      <trkpt lat="44.79031" lon="5.36454">
        <ele>523.09</ele>
        <time>2014-09-05T12:56:09Z</time>
      </trkpt>
      <trkpt lat="44.7903" lon="5.36461">
        <ele>522.61</ele>
        <time>2014-09-05T12:56:10Z</time>
      </trkpt>
      <trkpt lat="44.79025" lon="5.36496">
        <ele>520.69</ele>
        <time>2014-09-05T12:56:15Z</time>
      </trkpt>
      <trkpt lat="44.79026" lon="5.36498">
        <ele>520.69</ele>
        <time>2014-09-05T12:56:16Z</time>
      </trkpt>
      <trkpt lat="44.79028" lon="5.36499">
        <ele>520.69</ele>
        <time>2014-09-05T12:56:17Z</time>
      </trkpt>
      <trkpt lat="44.7903" lon="5.36499">
        <ele>520.69</ele>
        <time>2014-09-05T12:56:18Z</time>
      </trkpt>
      <trkpt lat="44.79032" lon="5.365">
        <ele>520.21</ele>
        <time>2014-09-05T12:56:19Z</time>
      </trkpt>
      <trkpt lat="44.79045" lon="5.36505">
        <ele>519.25</ele>
        <time>2014-09-05T12:56:23Z</time>
      </trkpt>
      <trkpt lat="44.79049" lon="5.36507">
        <ele>518.77</ele>
        <time>2014-09-05T12:56:24Z</time>
      </trkpt>
      <trkpt lat="44.79054" lon="5.3651">
        <ele>517.33</ele>
        <time>2014-09-05T12:56:25Z</time>
      </trkpt>
      <trkpt lat="44.79067" lon="5.36519">
        <ele>515.88</ele>
        <time>2014-09-05T12:56:28Z</time>
      </trkpt>
      <trkpt lat="44.79069" lon="5.36522">
        <ele>515.4</ele>
        <time>2014-09-05T12:56:29Z</time>
      </trkpt>
      <trkpt lat="44.7907" lon="5.36526">
        <ele>515.4</ele>
        <time>2014-09-05T12:56:30Z</time>
      </trkpt>
      <trkpt lat="44.79074" lon="5.36544">
        <ele>514.44</ele>
        <time>2014-09-05T12:56:33Z</time>
      </trkpt>
      <trkpt lat="44.79076" lon="5.36551">
        <ele>513.48</ele>
        <time>2014-09-05T12:56:34Z</time>
      </trkpt>
      <trkpt lat="44.79078" lon="5.36558">
        <ele>513.48</ele>
        <time>2014-09-05T12:56:35Z</time>
      </trkpt>
      <trkpt lat="44.79088" lon="5.36579">
        <ele>512.52</ele>
        <time>2014-09-05T12:56:38Z</time>
      </trkpt>
      <trkpt lat="44.791" lon="5.36599">
        <ele>510.12</ele>
        <time>2014-09-05T12:56:42Z</time>
      </trkpt>
      <trkpt lat="44.79102" lon="5.36605">
        <ele>509.64</ele>
        <time>2014-09-05T12:56:43Z</time>
      </trkpt>
      <trkpt lat="44.79105" lon="5.36613">
        <ele>508.67</ele>
        <time>2014-09-05T12:56:44Z</time>
      </trkpt>
      <trkpt lat="44.79107" lon="5.36621">
        <ele>508.67</ele>
        <time>2014-09-05T12:56:45Z</time>
      </trkpt>
      <trkpt lat="44.79107" lon="5.36629">
        <ele>507.71</ele>
        <time>2014-09-05T12:56:46Z</time>
      </trkpt>
      <trkpt lat="44.79108" lon="5.36637">
        <ele>506.75</ele>
        <time>2014-09-05T12:56:47Z</time>
      </trkpt>
      <trkpt lat="44.79107" lon="5.36644">
        <ele>506.27</ele>
        <time>2014-09-05T12:56:48Z</time>
      </trkpt>
      <trkpt lat="44.79107" lon="5.3665">
        <ele>505.31</ele>
        <time>2014-09-05T12:56:49Z</time>
      </trkpt>
      <trkpt lat="44.79106" lon="5.36656">
        <ele>504.83</ele>
        <time>2014-09-05T12:56:50Z</time>
      </trkpt>
      <trkpt lat="44.79105" lon="5.36662">
        <ele>504.83</ele>
        <time>2014-09-05T12:56:51Z</time>
      </trkpt>
      <trkpt lat="44.79106" lon="5.36668">
        <ele>503.87</ele>
        <time>2014-09-05T12:56:52Z</time>
      </trkpt>
      <trkpt lat="44.79107" lon="5.36674">
        <ele>503.87</ele>
        <time>2014-09-05T12:56:53Z</time>
      </trkpt>
      <trkpt lat="44.7911" lon="5.36679">
        <ele>502.91</ele>
        <time>2014-09-05T12:56:54Z</time>
      </trkpt>
      <trkpt lat="44.79115" lon="5.36689">
        <ele>503.39</ele>
        <time>2014-09-05T12:56:56Z</time>
      </trkpt>
      <trkpt lat="44.79118" lon="5.36694">
        <ele>502.91</ele>
        <time>2014-09-05T12:56:57Z</time>
      </trkpt>
      <trkpt lat="44.7913" lon="5.36712">
        <ele>502.43</ele>
        <time>2014-09-05T12:57:01Z</time>
      </trkpt>
      <trkpt lat="44.79132" lon="5.36717">
        <ele>501.95</ele>
        <time>2014-09-05T12:57:02Z</time>
      </trkpt>
      <trkpt lat="44.79139" lon="5.36743">
        <ele>503.87</ele>
        <time>2014-09-05T12:57:08Z</time>
      </trkpt>
      <trkpt lat="44.79149" lon="5.36778">
        <ele>504.35</ele>
        <time>2014-09-05T12:57:16Z</time>
      </trkpt>
      <trkpt lat="44.7916" lon="5.36783">
        <ele>504.83</ele>
        <time>2014-09-05T12:57:19Z</time>
      </trkpt>
      <trkpt lat="44.79193" lon="5.36799">
        <ele>505.31</ele>
        <time>2014-09-05T12:57:28Z</time>
      </trkpt>
      <trkpt lat="44.79211" lon="5.36825">
        <ele>505.79</ele>
        <time>2014-09-05T12:57:34Z</time>
      </trkpt>
      <trkpt lat="44.79218" lon="5.36832">
        <ele>506.27</ele>
        <time>2014-09-05T12:57:36Z</time>
      </trkpt>
      <trkpt lat="44.79221" lon="5.36835">
        <ele>506.27</ele>
        <time>2014-09-05T12:57:37Z</time>
      </trkpt>
      <trkpt lat="44.79225" lon="5.36838">
        <ele>506.27</ele>
        <time>2014-09-05T12:57:38Z</time>
      </trkpt>
      <trkpt lat="44.79271" lon="5.36879">
        <ele>508.19</ele>
        <time>2014-09-05T12:57:51Z</time>
      </trkpt>
      <trkpt lat="44.793" lon="5.36926">
        <ele>508.67</ele>
        <time>2014-09-05T12:58:02Z</time>
      </trkpt>
      <trkpt lat="44.79323" lon="5.36968">
        <ele>509.16</ele>
        <time>2014-09-05T12:58:12Z</time>
      </trkpt>
      <trkpt lat="44.79351" lon="5.37024">
        <ele>510.12</ele>
        <time>2014-09-05T12:58:24Z</time>
      </trkpt>
      <trkpt lat="44.79363" lon="5.37047">
        <ele>510.6</ele>
        <time>2014-09-05T12:58:29Z</time>
      </trkpt>
      <trkpt lat="44.79388" lon="5.37097">
        <ele>511.56</ele>
        <time>2014-09-05T12:58:40Z</time>
      </trkpt>
      <trkpt lat="44.79406" lon="5.37135">
        <ele>512.52</ele>
        <time>2014-09-05T12:58:49Z</time>
      </trkpt>
      <trkpt lat="44.79421" lon="5.37177">
        <ele>514.92</ele>
        <time>2014-09-05T12:58:59Z</time>
      </trkpt>
      <trkpt lat="44.79435" lon="5.37218">
        <ele>516.37</ele>
        <time>2014-09-05T12:59:10Z</time>
      </trkpt>
      <trkpt lat="44.79453" lon="5.37256">
        <ele>517.81</ele>
        <time>2014-09-05T12:59:21Z</time>
      </trkpt>
      <trkpt lat="44.79471" lon="5.37293">
        <ele>519.25</ele>
        <time>2014-09-05T12:59:32Z</time>
      </trkpt>
      <trkpt lat="44.79476" lon="5.37328">
        <ele>520.69</ele>
        <time>2014-09-05T12:59:41Z</time>
      </trkpt>
      <trkpt lat="44.79472" lon="5.37368">
        <ele>520.69</ele>
        <time>2014-09-05T12:59:50Z</time>
      </trkpt>
      <trkpt lat="44.79466" lon="5.37416">
        <ele>521.17</ele>
        <time>2014-09-05T13:00:00Z</time>
      </trkpt>
      <trkpt lat="44.79469" lon="5.37491">
        <ele>521.65</ele>
        <time>2014-09-05T13:00:13Z</time>
      </trkpt>
      <trkpt lat="44.79475" lon="5.37566">
        <ele>522.13</ele>
        <time>2014-09-05T13:00:26Z</time>
      </trkpt>
      <trkpt lat="44.79496" lon="5.37609">
        <ele>524.54</ele>
        <time>2014-09-05T13:00:37Z</time>
      </trkpt>
      <trkpt lat="44.79508" lon="5.37629">
        <ele>525.02</ele>
        <time>2014-09-05T13:00:43Z</time>
      </trkpt>
      <trkpt lat="44.7951" lon="5.37633">
        <ele>525.5</ele>
        <time>2014-09-05T13:00:44Z</time>
      </trkpt>
      <trkpt lat="44.79511" lon="5.37636">
        <ele>525.98</ele>
        <time>2014-09-05T13:00:45Z</time>
      </trkpt>
      <trkpt lat="44.79518" lon="5.3769">
        <ele>527.42</ele>
        <time>2014-09-05T13:00:58Z</time>
      </trkpt>
      <trkpt lat="44.79535" lon="5.37731">
        <ele>529.34</ele>
        <time>2014-09-05T13:01:10Z</time>
      </trkpt>
      <trkpt lat="44.7955" lon="5.37762">
        <ele>530.79</ele>
        <time>2014-09-05T13:01:20Z</time>
      </trkpt>
      <trkpt lat="44.79554" lon="5.37772">
        <ele>531.27</ele>
        <time>2014-09-05T13:01:23Z</time>
      </trkpt>
      <trkpt lat="44.79555" lon="5.37776">
        <ele>531.75</ele>
        <time>2014-09-05T13:01:24Z</time>
      </trkpt>
      <trkpt lat="44.79556" lon="5.3778">
        <ele>531.27</ele>
        <time>2014-09-05T13:01:25Z</time>
      </trkpt>
      <trkpt lat="44.79556" lon="5.37784">
        <ele>531.75</ele>
        <time>2014-09-05T13:01:26Z</time>
      </trkpt>
      <trkpt lat="44.79557" lon="5.37788">
        <ele>531.75</ele>
        <time>2014-09-05T13:01:27Z</time>
      </trkpt>
      <trkpt lat="44.7956" lon="5.37824">
        <ele>533.19</ele>
        <time>2014-09-05T13:01:37Z</time>
      </trkpt>
      <trkpt lat="44.7956" lon="5.37859">
        <ele>534.63</ele>
        <time>2014-09-05T13:01:47Z</time>
      </trkpt>
      <trkpt lat="44.79565" lon="5.37908">
        <ele>535.59</ele>
        <time>2014-09-05T13:01:59Z</time>
      </trkpt>
      <trkpt lat="44.79572" lon="5.37956">
        <ele>536.07</ele>
        <time>2014-09-05T13:02:09Z</time>
      </trkpt>
      <trkpt lat="44.79577" lon="5.38004">
        <ele>536.07</ele>
        <time>2014-09-05T13:02:19Z</time>
      </trkpt>
      <trkpt lat="44.79579" lon="5.38053">
        <ele>536.07</ele>
        <time>2014-09-05T13:02:29Z</time>
      </trkpt>
      <trkpt lat="44.79578" lon="5.38085">
        <ele>536.07</ele>
        <time>2014-09-05T13:02:35Z</time>
      </trkpt>
      <trkpt lat="44.79578" lon="5.38091">
        <ele>536.07</ele>
        <time>2014-09-05T13:02:36Z</time>
      </trkpt>
      <trkpt lat="44.79594" lon="5.38154">
        <ele>537.03</ele>
        <time>2014-09-05T13:02:47Z</time>
      </trkpt>
      <trkpt lat="44.7963" lon="5.3823">
        <ele>537.51</ele>
        <time>2014-09-05T13:03:00Z</time>
      </trkpt>
      <trkpt lat="44.79649" lon="5.3827">
        <ele>537.03</ele>
        <time>2014-09-05T13:03:07Z</time>
      </trkpt>
      <trkpt lat="44.7965" lon="5.38277">
        <ele>537.03</ele>
        <time>2014-09-05T13:03:08Z</time>
      </trkpt>
      <trkpt lat="44.79651" lon="5.38284">
        <ele>537.03</ele>
        <time>2014-09-05T13:03:09Z</time>
      </trkpt>
      <trkpt lat="44.7965" lon="5.3829">
        <ele>536.55</ele>
        <time>2014-09-05T13:03:10Z</time>
      </trkpt>
      <trkpt lat="44.79646" lon="5.38294">
        <ele>536.07</ele>
        <time>2014-09-05T13:03:11Z</time>
      </trkpt>
      <trkpt lat="44.79641" lon="5.38296">
        <ele>536.07</ele>
        <time>2014-09-05T13:03:12Z</time>
      </trkpt>
      <trkpt lat="44.79636" lon="5.38295">
        <ele>536.07</ele>
        <time>2014-09-05T13:03:13Z</time>
      </trkpt>
      <trkpt lat="44.7963" lon="5.38293">
        <ele>535.11</ele>
        <time>2014-09-05T13:03:14Z</time>
      </trkpt>
      <trkpt lat="44.79624" lon="5.38292">
        <ele>535.59</ele>
        <time>2014-09-05T13:03:15Z</time>
      </trkpt>
      <trkpt lat="44.79553" lon="5.38297">
        <ele>532.23</ele>
        <time>2014-09-05T13:03:26Z</time>
      </trkpt>
      <trkpt lat="44.79534" lon="5.38296">
        <ele>532.23</ele>
        <time>2014-09-05T13:03:29Z</time>
      </trkpt>
      <trkpt lat="44.79528" lon="5.38293">
        <ele>532.71</ele>
        <time>2014-09-05T13:03:30Z</time>
      </trkpt>
      <trkpt lat="44.79523" lon="5.38288">
        <ele>532.23</ele>
        <time>2014-09-05T13:03:31Z</time>
      </trkpt>
      <trkpt lat="44.79519" lon="5.38283">
        <ele>532.71</ele>
        <time>2014-09-05T13:03:32Z</time>
      </trkpt>
      <trkpt lat="44.79515" lon="5.38277">
        <ele>532.71</ele>
        <time>2014-09-05T13:03:33Z</time>
      </trkpt>
      <trkpt lat="44.79512" lon="5.38272">
        <ele>532.71</ele>
        <time>2014-09-05T13:03:34Z</time>
      </trkpt>
      <trkpt lat="44.79509" lon="5.38266">
        <ele>532.71</ele>
        <time>2014-09-05T13:03:35Z</time>
      </trkpt>
      <trkpt lat="44.79507" lon="5.3826">
        <ele>532.71</ele>
        <time>2014-09-05T13:03:36Z</time>
      </trkpt>
      <trkpt lat="44.79504" lon="5.38253">
        <ele>533.67</ele>
        <time>2014-09-05T13:03:37Z</time>
      </trkpt>
      <trkpt lat="44.79488" lon="5.382">
        <ele>534.63</ele>
        <time>2014-09-05T13:03:46Z</time>
      </trkpt>
      <trkpt lat="44.79485" lon="5.38194">
        <ele>534.63</ele>
        <time>2014-09-05T13:03:47Z</time>
      </trkpt>
      <trkpt lat="44.79474" lon="5.38173">
        <ele>535.11</ele>
        <time>2014-09-05T13:03:51Z</time>
      </trkpt>
      <trkpt lat="44.79472" lon="5.38168">
        <ele>535.59</ele>
        <time>2014-09-05T13:03:52Z</time>
      </trkpt>
      <trkpt lat="44.7947" lon="5.38163">
        <ele>535.59</ele>
        <time>2014-09-05T13:03:53Z</time>
      </trkpt>
      <trkpt lat="44.79451" lon="5.38106">
        <ele>536.55</ele>
        <time>2014-09-05T13:04:04Z</time>
      </trkpt>
      <trkpt lat="44.79436" lon="5.38051">
        <ele>537.51</ele>
        <time>2014-09-05T13:04:15Z</time>
      </trkpt>
      <trkpt lat="44.79418" lon="5.37984">
        <ele>539.44</ele>
        <time>2014-09-05T13:04:28Z</time>
      </trkpt>
      <trkpt lat="44.79414" lon="5.37919">
        <ele>539.92</ele>
        <time>2014-09-05T13:04:40Z</time>
      </trkpt>
      <trkpt lat="44.79414" lon="5.37854">
        <ele>541.84</ele>
        <time>2014-09-05T13:04:52Z</time>
      </trkpt>
      <trkpt lat="44.79415" lon="5.37785">
        <ele>543.28</ele>
        <time>2014-09-05T13:05:05Z</time>
      </trkpt>
      <trkpt lat="44.79408" lon="5.37729">
        <ele>544.72</ele>
        <time>2014-09-05T13:05:16Z</time>
      </trkpt>
      <trkpt lat="44.79392" lon="5.37673">
        <ele>545.69</ele>
        <time>2014-09-05T13:05:27Z</time>
      </trkpt>
      <trkpt lat="44.79372" lon="5.37607">
        <ele>546.65</ele>
        <time>2014-09-05T13:05:40Z</time>
      </trkpt>
      <trkpt lat="44.79361" lon="5.37544">
        <ele>547.13</ele>
        <time>2014-09-05T13:05:52Z</time>
      </trkpt>
      <trkpt lat="44.79352" lon="5.37485">
        <ele>548.09</ele>
        <time>2014-09-05T13:06:03Z</time>
      </trkpt>
      <trkpt lat="44.79348" lon="5.37448">
        <ele>549.05</ele>
        <time>2014-09-05T13:06:09Z</time>
      </trkpt>
      <trkpt lat="44.79347" lon="5.37375">
        <ele>548.09</ele>
        <time>2014-09-05T13:06:19Z</time>
      </trkpt>
      <trkpt lat="44.79343" lon="5.3735">
        <ele>548.09</ele>
        <time>2014-09-05T13:06:22Z</time>
      </trkpt>
      <trkpt lat="44.79325" lon="5.37248">
        <ele>546.65</ele>
        <time>2014-09-05T13:06:34Z</time>
      </trkpt>
      <trkpt lat="44.79304" lon="5.37163">
        <ele>546.17</ele>
        <time>2014-09-05T13:06:44Z</time>
      </trkpt>
      <trkpt lat="44.79297" lon="5.37137">
        <ele>545.69</ele>
        <time>2014-09-05T13:06:47Z</time>
      </trkpt>
      <trkpt lat="44.79293" lon="5.37129">
        <ele>546.17</ele>
        <time>2014-09-05T13:06:48Z</time>
      </trkpt>
      <trkpt lat="44.79243" lon="5.37039">
        <ele>544.72</ele>
        <time>2014-09-05T13:07:00Z</time>
      </trkpt>
      <trkpt lat="44.79194" lon="5.36959">
        <ele>543.76</ele>
        <time>2014-09-05T13:07:11Z</time>
      </trkpt>
      <trkpt lat="44.79147" lon="5.36906">
        <ele>542.32</ele>
        <time>2014-09-05T13:07:20Z</time>
      </trkpt>
      <trkpt lat="44.79119" lon="5.36881">
        <ele>541.84</ele>
        <time>2014-09-05T13:07:25Z</time>
      </trkpt>
      <trkpt lat="44.79113" lon="5.36875">
        <ele>541.84</ele>
        <time>2014-09-05T13:07:26Z</time>
      </trkpt>
      <trkpt lat="44.79104" lon="5.36864">
        <ele>540.88</ele>
        <time>2014-09-05T13:07:28Z</time>
      </trkpt>
      <trkpt lat="44.79063" lon="5.36795">
        <ele>540.88</ele>
        <time>2014-09-05T13:07:39Z</time>
      </trkpt>
      <trkpt lat="44.79022" lon="5.3672">
        <ele>539.44</ele>
        <time>2014-09-05T13:07:51Z</time>
      </trkpt>
      <trkpt lat="44.79017" lon="5.36709">
        <ele>539.44</ele>
        <time>2014-09-05T13:07:53Z</time>
      </trkpt>
      <trkpt lat="44.79013" lon="5.36704">
        <ele>539.44</ele>
        <time>2014-09-05T13:07:54Z</time>
      </trkpt>
      <trkpt lat="44.79005" lon="5.36694">
        <ele>538.96</ele>
        <time>2014-09-05T13:07:56Z</time>
      </trkpt>
      <trkpt lat="44.79001" lon="5.3669">
        <ele>538.96</ele>
        <time>2014-09-05T13:07:57Z</time>
      </trkpt>
      <trkpt lat="44.78996" lon="5.36685">
        <ele>538.96</ele>
        <time>2014-09-05T13:07:58Z</time>
      </trkpt>
      <trkpt lat="44.7899" lon="5.36681">
        <ele>538.96</ele>
        <time>2014-09-05T13:07:59Z</time>
      </trkpt>
      <trkpt lat="44.78984" lon="5.36678">
        <ele>538.48</ele>
        <time>2014-09-05T13:08:00Z</time>
      </trkpt>
      <trkpt lat="44.78978" lon="5.36675">
        <ele>537.99</ele>
        <time>2014-09-05T13:08:01Z</time>
      </trkpt>
      <trkpt lat="44.78938" lon="5.36654">
        <ele>536.07</ele>
        <time>2014-09-05T13:08:07Z</time>
      </trkpt>
      <trkpt lat="44.7893" lon="5.36651">
        <ele>535.59</ele>
        <time>2014-09-05T13:08:08Z</time>
      </trkpt>
      <trkpt lat="44.78914" lon="5.36646">
        <ele>535.11</ele>
        <time>2014-09-05T13:08:10Z</time>
      </trkpt>
      <trkpt lat="44.78877" lon="5.36629">
        <ele>534.15</ele>
        <time>2014-09-05T13:08:15Z</time>
      </trkpt>
      <trkpt lat="44.78869" lon="5.36629">
        <ele>533.67</ele>
        <time>2014-09-05T13:08:16Z</time>
      </trkpt>
      <trkpt lat="44.78862" lon="5.3663">
        <ele>533.67</ele>
        <time>2014-09-05T13:08:17Z</time>
      </trkpt>
      <trkpt lat="44.78855" lon="5.36633">
        <ele>533.67</ele>
        <time>2014-09-05T13:08:18Z</time>
      </trkpt>
      <trkpt lat="44.78848" lon="5.36637">
        <ele>533.19</ele>
        <time>2014-09-05T13:08:19Z</time>
      </trkpt>
      <trkpt lat="44.78804" lon="5.36653">
        <ele>530.79</ele>
        <time>2014-09-05T13:08:25Z</time>
      </trkpt>
      <trkpt lat="44.78788" lon="5.36653">
        <ele>530.3</ele>
        <time>2014-09-05T13:08:27Z</time>
      </trkpt>
      <trkpt lat="44.7878" lon="5.36654">
        <ele>529.34</ele>
        <time>2014-09-05T13:08:28Z</time>
      </trkpt>
      <trkpt lat="44.78756" lon="5.36658">
        <ele>528.86</ele>
        <time>2014-09-05T13:08:31Z</time>
      </trkpt>
      <trkpt lat="44.78718" lon="5.36652">
        <ele>526.94</ele>
        <time>2014-09-05T13:08:36Z</time>
      </trkpt>
      <trkpt lat="44.7871" lon="5.36653">
        <ele>527.42</ele>
        <time>2014-09-05T13:08:37Z</time>
      </trkpt>
      <trkpt lat="44.78703" lon="5.36655">
        <ele>526.94</ele>
        <time>2014-09-05T13:08:38Z</time>
      </trkpt>
      <trkpt lat="44.78696" lon="5.36658">
        <ele>526.46</ele>
        <time>2014-09-05T13:08:39Z</time>
      </trkpt>
      <trkpt lat="44.78689" lon="5.36663">
        <ele>525.98</ele>
        <time>2014-09-05T13:08:40Z</time>
      </trkpt>
      <trkpt lat="44.78683" lon="5.3667">
        <ele>525.5</ele>
        <time>2014-09-05T13:08:41Z</time>
      </trkpt>
      <trkpt lat="44.78677" lon="5.36678">
        <ele>525.02</ele>
        <time>2014-09-05T13:08:42Z</time>
      </trkpt>
      <trkpt lat="44.78672" lon="5.36687">
        <ele>524.54</ele>
        <time>2014-09-05T13:08:43Z</time>
      </trkpt>
      <trkpt lat="44.78647" lon="5.36734">
        <ele>521.65</ele>
        <time>2014-09-05T13:08:48Z</time>
      </trkpt>
      <trkpt lat="44.78634" lon="5.36751">
        <ele>520.21</ele>
        <time>2014-09-05T13:08:50Z</time>
      </trkpt>
      <trkpt lat="44.78627" lon="5.36759">
        <ele>519.25</ele>
        <time>2014-09-05T13:08:51Z</time>
      </trkpt>
      <trkpt lat="44.7862" lon="5.36766">
        <ele>519.25</ele>
        <time>2014-09-05T13:08:52Z</time>
      </trkpt>
      <trkpt lat="44.78612" lon="5.36773">
        <ele>518.29</ele>
        <time>2014-09-05T13:08:53Z</time>
      </trkpt>
      <trkpt lat="44.78604" lon="5.36779">
        <ele>517.81</ele>
        <time>2014-09-05T13:08:54Z</time>
      </trkpt>
      <trkpt lat="44.7857" lon="5.36799">
        <ele>515.4</ele>
        <time>2014-09-05T13:08:58Z</time>
      </trkpt>
      <trkpt lat="44.78552" lon="5.36808">
        <ele>513.96</ele>
        <time>2014-09-05T13:09:00Z</time>
      </trkpt>
      <trkpt lat="44.78534" lon="5.3682">
        <ele>512.52</ele>
        <time>2014-09-05T13:09:02Z</time>
      </trkpt>
      <trkpt lat="44.78526" lon="5.36829">
        <ele>511.56</ele>
        <time>2014-09-05T13:09:03Z</time>
      </trkpt>
      <trkpt lat="44.78519" lon="5.3684">
        <ele>511.56</ele>
        <time>2014-09-05T13:09:04Z</time>
      </trkpt>
      <trkpt lat="44.78506" lon="5.36863">
        <ele>510.12</ele>
        <time>2014-09-05T13:09:06Z</time>
      </trkpt>
      <trkpt lat="44.78499" lon="5.36871">
        <ele>509.64</ele>
        <time>2014-09-05T13:09:07Z</time>
      </trkpt>
      <trkpt lat="44.78491" lon="5.36876">
        <ele>509.16</ele>
        <time>2014-09-05T13:09:08Z</time>
      </trkpt>
      <trkpt lat="44.78482" lon="5.36877">
        <ele>509.16</ele>
        <time>2014-09-05T13:09:09Z</time>
      </trkpt>
      <trkpt lat="44.78473" lon="5.36873">
        <ele>508.19</ele>
        <time>2014-09-05T13:09:10Z</time>
      </trkpt>
      <trkpt lat="44.78465" lon="5.36866">
        <ele>507.71</ele>
        <time>2014-09-05T13:09:11Z</time>
      </trkpt>
      <trkpt lat="44.78458" lon="5.36856">
        <ele>507.23</ele>
        <time>2014-09-05T13:09:12Z</time>
      </trkpt>
      <trkpt lat="44.78453" lon="5.36844">
        <ele>506.75</ele>
        <time>2014-09-05T13:09:13Z</time>
      </trkpt>
      <trkpt lat="44.78448" lon="5.36833">
        <ele>506.75</ele>
        <time>2014-09-05T13:09:14Z</time>
      </trkpt>
      <trkpt lat="44.7841" lon="5.36767">
        <ele>505.79</ele>
        <time>2014-09-05T13:09:21Z</time>
      </trkpt>
      <trkpt lat="44.78405" lon="5.36761">
        <ele>506.27</ele>
        <time>2014-09-05T13:09:22Z</time>
      </trkpt>
      <trkpt lat="44.78399" lon="5.36757">
        <ele>506.27</ele>
        <time>2014-09-05T13:09:23Z</time>
      </trkpt>
      <trkpt lat="44.78393" lon="5.36754">
        <ele>505.31</ele>
        <time>2014-09-05T13:09:24Z</time>
      </trkpt>
      <trkpt lat="44.78387" lon="5.36752">
        <ele>505.79</ele>
        <time>2014-09-05T13:09:25Z</time>
      </trkpt>
      <trkpt lat="44.78381" lon="5.36754">
        <ele>504.83</ele>
        <time>2014-09-05T13:09:26Z</time>
      </trkpt>
      <trkpt lat="44.78375" lon="5.36757">
        <ele>504.83</ele>
        <time>2014-09-05T13:09:27Z</time>
      </trkpt>
      <trkpt lat="44.7837" lon="5.36761">
        <ele>504.35</ele>
        <time>2014-09-05T13:09:28Z</time>
      </trkpt>
      <trkpt lat="44.78363" lon="5.36765">
        <ele>503.87</ele>
        <time>2014-09-05T13:09:29Z</time>
      </trkpt>
      <trkpt lat="44.78351" lon="5.36772">
        <ele>503.39</ele>
        <time>2014-09-05T13:09:31Z</time>
      </trkpt>
      <trkpt lat="44.78345" lon="5.36774">
        <ele>502.91</ele>
        <time>2014-09-05T13:09:32Z</time>
      </trkpt>
      <trkpt lat="44.78339" lon="5.36776">
        <ele>502.91</ele>
        <time>2014-09-05T13:09:33Z</time>
      </trkpt>
      <trkpt lat="44.78333" lon="5.36777">
        <ele>502.91</ele>
        <time>2014-09-05T13:09:34Z</time>
      </trkpt>
      <trkpt lat="44.78328" lon="5.36777">
        <ele>502.91</ele>
        <time>2014-09-05T13:09:35Z</time>
      </trkpt>
      <trkpt lat="44.78323" lon="5.36778">
        <ele>502.43</ele>
        <time>2014-09-05T13:09:36Z</time>
      </trkpt>
      <trkpt lat="44.78318" lon="5.36778">
        <ele>501.46</ele>
        <time>2014-09-05T13:09:37Z</time>
      </trkpt>
      <trkpt lat="44.78313" lon="5.36777">
        <ele>501.46</ele>
        <time>2014-09-05T13:09:38Z</time>
      </trkpt>
      <trkpt lat="44.78307" lon="5.36775">
        <ele>500.98</ele>
        <time>2014-09-05T13:09:39Z</time>
      </trkpt>
      <trkpt lat="44.78302" lon="5.36772">
        <ele>500.5</ele>
        <time>2014-09-05T13:09:40Z</time>
      </trkpt>
      <trkpt lat="44.78297" lon="5.36768">
        <ele>500.02</ele>
        <time>2014-09-05T13:09:41Z</time>
      </trkpt>
      <trkpt lat="44.78289" lon="5.3676">
        <ele>500.02</ele>
        <time>2014-09-05T13:09:42Z</time>
      </trkpt>
      <trkpt lat="44.78281" lon="5.36753">
        <ele>499.06</ele>
        <time>2014-09-05T13:09:43Z</time>
      </trkpt>
      <trkpt lat="44.78273" lon="5.36749">
        <ele>498.58</ele>
        <time>2014-09-05T13:09:44Z</time>
      </trkpt>
      <trkpt lat="44.78254" lon="5.36744">
        <ele>498.1</ele>
        <time>2014-09-05T13:09:46Z</time>
      </trkpt>
      <trkpt lat="44.78244" lon="5.3674">
        <ele>497.62</ele>
        <time>2014-09-05T13:09:47Z</time>
      </trkpt>
      <trkpt lat="44.78199" lon="5.36711">
        <ele>493.77</ele>
        <time>2014-09-05T13:09:52Z</time>
      </trkpt>
      <trkpt lat="44.78189" lon="5.36706">
        <ele>493.29</ele>
        <time>2014-09-05T13:09:53Z</time>
      </trkpt>
      <trkpt lat="44.78179" lon="5.36703">
        <ele>492.33</ele>
        <time>2014-09-05T13:09:54Z</time>
      </trkpt>
      <trkpt lat="44.78169" lon="5.36701">
        <ele>491.85</ele>
        <time>2014-09-05T13:09:55Z</time>
      </trkpt>
      <trkpt lat="44.78137" lon="5.36698">
        <ele>490.41</ele>
        <time>2014-09-05T13:09:58Z</time>
      </trkpt>
      <trkpt lat="44.78123" lon="5.36697">
        <ele>489.45</ele>
        <time>2014-09-05T13:10:00Z</time>
      </trkpt>
      <trkpt lat="44.78109" lon="5.36693">
        <ele>488.97</ele>
        <time>2014-09-05T13:10:03Z</time>
      </trkpt>
      <trkpt lat="44.78093" lon="5.36688">
        <ele>488.01</ele>
        <time>2014-09-05T13:10:09Z</time>
      </trkpt>
      <trkpt lat="44.78093" lon="5.36688">
        <ele>481.76</ele>
        <time>2014-09-05T13:10:16Z</time>
      </trkpt>
      <trkpt lat="44.78093" lon="5.36688">
        <ele>482.72</ele>
        <time>2014-09-05T13:10:17Z</time>
      </trkpt>
      <trkpt lat="44.78093" lon="5.36688">
        <ele>488.49</ele>
        <time>2014-09-05T13:10:18Z</time>
      </trkpt>
      <trkpt lat="44.78093" lon="5.36688">
        <ele>485.12</ele>
        <time>2014-09-05T13:10:20Z</time>
      </trkpt>
      <trkpt lat="44.78093" lon="5.36688">
        <ele>495.22</ele>
        <time>2014-09-05T13:10:21Z</time>
      </trkpt>
      <trkpt lat="44.78093" lon="5.36688">
        <ele>490.89</ele>
        <time>2014-09-05T13:10:22Z</time>
      </trkpt>
      <trkpt lat="44.78093" lon="5.36688">
        <ele>486.56</ele>
        <time>2014-09-05T13:10:23Z</time>
      </trkpt>
      <trkpt lat="44.78093" lon="5.36688">
        <ele>482.24</ele>
        <time>2014-09-05T13:10:25Z</time>
      </trkpt>
      <trkpt lat="44.78093" lon="5.36688">
        <ele>491.37</ele>
        <time>2014-09-05T13:10:26Z</time>
      </trkpt>
      <trkpt lat="44.78093" lon="5.36688">
        <ele>488.49</ele>
        <time>2014-09-05T13:10:29Z</time>
      </trkpt>
      <trkpt lat="44.78093" lon="5.36688">
        <ele>488.97</ele>
        <time>2014-09-05T13:10:30Z</time>
      </trkpt>
      <trkpt lat="44.78093" lon="5.36688">
        <ele>485.6</ele>
        <time>2014-09-05T13:10:35Z</time>
      </trkpt>
      <trkpt lat="44.78093" lon="5.36688">
        <ele>487.05</ele>
        <time>2014-09-05T13:10:36Z</time>
      </trkpt>
      <trkpt lat="44.78093" lon="5.36688">
        <ele>491.37</ele>
        <time>2014-09-05T13:10:39Z</time>
      </trkpt>
      <trkpt lat="44.78093" lon="5.36688">
        <ele>483.68</ele>
        <time>2014-09-05T13:10:40Z</time>
      </trkpt>
      <trkpt lat="44.78093" lon="5.36688">
        <ele>488.97</ele>
        <time>2014-09-05T13:10:41Z</time>
      </trkpt>
      <trkpt lat="44.78093" lon="5.36688">
        <ele>484.16</ele>
        <time>2014-09-05T13:10:42Z</time>
      </trkpt>
      <trkpt lat="44.78093" lon="5.36688">
        <ele>482.72</ele>
        <time>2014-09-05T13:10:46Z</time>
      </trkpt>
      <trkpt lat="44.78093" lon="5.36688">
        <ele>488.49</ele>
        <time>2014-09-05T13:10:48Z</time>
      </trkpt>
      <trkpt lat="44.78093" lon="5.36688">
        <ele>489.93</ele>
        <time>2014-09-05T13:10:50Z</time>
      </trkpt>
      <trkpt lat="44.78093" lon="5.36688">
        <ele>482.72</ele>
        <time>2014-09-05T13:10:51Z</time>
      </trkpt>
      <trkpt lat="44.78093" lon="5.36688">
        <ele>488.49</ele>
        <time>2014-09-05T13:10:52Z</time>
      </trkpt>
      <trkpt lat="44.78093" lon="5.36688">
        <ele>487.53</ele>
        <time>2014-09-05T13:11:12Z</time>
      </trkpt>
      <trkpt lat="44.78092" lon="5.36689">
        <ele>487.53</ele>
        <time>2014-09-05T13:11:35Z</time>
      </trkpt>
      <trkpt lat="44.78091" lon="5.36691">
        <ele>488.01</ele>
        <time>2014-09-05T13:11:36Z</time>
      </trkpt>
      <trkpt lat="44.7809" lon="5.36693">
        <ele>488.01</ele>
        <time>2014-09-05T13:11:37Z</time>
      </trkpt>
      <trkpt lat="44.78089" lon="5.36695">
        <ele>488.01</ele>
        <time>2014-09-05T13:11:38Z</time>
      </trkpt>
      <trkpt lat="44.78088" lon="5.36696">
        <ele>488.01</ele>
        <time>2014-09-05T13:11:39Z</time>
      </trkpt>
      <trkpt lat="44.78083" lon="5.36703">
        <ele>488.49</ele>
        <time>2014-09-05T13:11:47Z</time>
      </trkpt>
      <trkpt lat="44.78082" lon="5.36703">
        <ele>488.97</ele>
        <time>2014-09-05T13:11:48Z</time>
      </trkpt>
      <trkpt lat="44.78066" lon="5.36702">
        <ele>489.45</ele>
        <time>2014-09-05T13:11:57Z</time>
      </trkpt>
      <trkpt lat="44.7806" lon="5.36696">
        <ele>490.89</ele>
        <time>2014-09-05T13:12:02Z</time>
      </trkpt>
      <trkpt lat="44.78058" lon="5.36696">
        <ele>490.89</ele>
        <time>2014-09-05T13:12:03Z</time>
      </trkpt>
      <trkpt lat="44.78039" lon="5.36692">
        <ele>492.33</ele>
        <time>2014-09-05T13:12:13Z</time>
      </trkpt>
      <trkpt lat="44.78021" lon="5.36691">
        <ele>494.26</ele>
        <time>2014-09-05T13:12:23Z</time>
      </trkpt>
      <trkpt lat="44.78003" lon="5.36693">
        <ele>495.7</ele>
        <time>2014-09-05T13:12:32Z</time>
      </trkpt>
      <trkpt lat="44.78001" lon="5.36695">
        <ele>496.18</ele>
        <time>2014-09-05T13:12:34Z</time>
      </trkpt>
      <trkpt lat="44.78" lon="5.36696">
        <ele>496.66</ele>
        <time>2014-09-05T13:12:35Z</time>
      </trkpt>
      <trkpt lat="44.77998" lon="5.36697">
        <ele>496.18</ele>
        <time>2014-09-05T13:12:36Z</time>
      </trkpt>
      <trkpt lat="44.77997" lon="5.36698">
        <ele>496.66</ele>
        <time>2014-09-05T13:12:37Z</time>
      </trkpt>
      <trkpt lat="44.77995" lon="5.36699">
        <ele>496.66</ele>
        <time>2014-09-05T13:12:38Z</time>
      </trkpt>
      <trkpt lat="44.77994" lon="5.367">
        <ele>497.14</ele>
        <time>2014-09-05T13:12:39Z</time>
      </trkpt>
      <trkpt lat="44.77985" lon="5.36704">
        <ele>497.62</ele>
        <time>2014-09-05T13:12:45Z</time>
      </trkpt>
      <trkpt lat="44.77984" lon="5.36705">
        <ele>497.62</ele>
        <time>2014-09-05T13:12:46Z</time>
      </trkpt>
      <trkpt lat="44.77973" lon="5.36721">
        <ele>499.06</ele>
        <time>2014-09-05T13:12:56Z</time>
      </trkpt>
      <trkpt lat="44.77964" lon="5.3674">
        <ele>500.5</ele>
        <time>2014-09-05T13:13:06Z</time>
      </trkpt>
      <trkpt lat="44.77957" lon="5.36744">
        <ele>500.98</ele>
        <time>2014-09-05T13:13:10Z</time>
      </trkpt>
      <trkpt lat="44.77943" lon="5.36737">
        <ele>502.43</ele>
        <time>2014-09-05T13:13:19Z</time>
      </trkpt>
      <trkpt lat="44.77942" lon="5.36737">
        <ele>502.43</ele>
        <time>2014-09-05T13:13:20Z</time>
      </trkpt>
      <trkpt lat="44.77934" lon="5.36734">
        <ele>502.91</ele>
        <time>2014-09-05T13:13:25Z</time>
      </trkpt>
      <trkpt lat="44.77933" lon="5.36734">
        <ele>503.87</ele>
        <time>2014-09-05T13:13:26Z</time>
      </trkpt>
      <trkpt lat="44.77931" lon="5.36733">
        <ele>503.87</ele>
        <time>2014-09-05T13:13:27Z</time>
      </trkpt>
      <trkpt lat="44.77929" lon="5.36733">
        <ele>503.87</ele>
        <time>2014-09-05T13:13:28Z</time>
      </trkpt>
      <trkpt lat="44.77928" lon="5.36732">
        <ele>503.87</ele>
        <time>2014-09-05T13:13:29Z</time>
      </trkpt>
      <trkpt lat="44.77926" lon="5.36732">
        <ele>503.87</ele>
        <time>2014-09-05T13:13:30Z</time>
      </trkpt>
      <trkpt lat="44.77924" lon="5.36731">
        <ele>504.35</ele>
        <time>2014-09-05T13:13:31Z</time>
      </trkpt>
      <trkpt lat="44.77923" lon="5.36731">
        <ele>504.35</ele>
        <time>2014-09-05T13:13:32Z</time>
      </trkpt>
      <trkpt lat="44.77921" lon="5.3673">
        <ele>504.35</ele>
        <time>2014-09-05T13:13:33Z</time>
      </trkpt>
      <trkpt lat="44.77912" lon="5.3672">
        <ele>506.27</ele>
        <time>2014-09-05T13:13:41Z</time>
      </trkpt>
      <trkpt lat="44.77898" lon="5.36711">
        <ele>507.23</ele>
        <time>2014-09-05T13:13:50Z</time>
      </trkpt>
      <trkpt lat="44.77892" lon="5.36709">
        <ele>507.71</ele>
        <time>2014-09-05T13:13:54Z</time>
      </trkpt>
      <trkpt lat="44.7789" lon="5.36709">
        <ele>508.19</ele>
        <time>2014-09-05T13:13:55Z</time>
      </trkpt>
      <trkpt lat="44.77889" lon="5.36709">
        <ele>508.19</ele>
        <time>2014-09-05T13:13:56Z</time>
      </trkpt>
      <trkpt lat="44.77887" lon="5.36709">
        <ele>508.67</ele>
        <time>2014-09-05T13:13:57Z</time>
      </trkpt>
      <trkpt lat="44.77885" lon="5.36709">
        <ele>508.67</ele>
        <time>2014-09-05T13:13:58Z</time>
      </trkpt>
      <trkpt lat="44.77872" lon="5.36706">
        <ele>510.12</ele>
        <time>2014-09-05T13:14:07Z</time>
      </trkpt>
      <trkpt lat="44.77854" lon="5.36701">
        <ele>512.04</ele>
        <time>2014-09-05T13:14:17Z</time>
      </trkpt>
      <trkpt lat="44.77835" lon="5.36692">
        <ele>513.96</ele>
        <time>2014-09-05T13:14:30Z</time>
      </trkpt>
      <trkpt lat="44.77822" lon="5.36686">
        <ele>514.92</ele>
        <time>2014-09-05T13:14:39Z</time>
      </trkpt>
      <trkpt lat="44.77807" lon="5.36679">
        <ele>517.33</ele>
        <time>2014-09-05T13:14:50Z</time>
      </trkpt>
      <trkpt lat="44.778" lon="5.36678">
        <ele>517.81</ele>
        <time>2014-09-05T13:14:55Z</time>
      </trkpt>
      <trkpt lat="44.77799" lon="5.36677">
        <ele>518.29</ele>
        <time>2014-09-05T13:14:56Z</time>
      </trkpt>
      <trkpt lat="44.77782" lon="5.36677">
        <ele>519.25</ele>
        <time>2014-09-05T13:15:06Z</time>
      </trkpt>
      <trkpt lat="44.77781" lon="5.36678">
        <ele>519.73</ele>
        <time>2014-09-05T13:15:07Z</time>
      </trkpt>
      <trkpt lat="44.77779" lon="5.36679">
        <ele>519.73</ele>
        <time>2014-09-05T13:15:08Z</time>
      </trkpt>
      <trkpt lat="44.77778" lon="5.3668">
        <ele>519.73</ele>
        <time>2014-09-05T13:15:09Z</time>
      </trkpt>
      <trkpt lat="44.77777" lon="5.36681">
        <ele>519.25</ele>
        <time>2014-09-05T13:15:10Z</time>
      </trkpt>
      <trkpt lat="44.77776" lon="5.36682">
        <ele>519.73</ele>
        <time>2014-09-05T13:15:11Z</time>
      </trkpt>
      <trkpt lat="44.77775" lon="5.36684">
        <ele>520.21</ele>
        <time>2014-09-05T13:15:12Z</time>
      </trkpt>
      <trkpt lat="44.77774" lon="5.36686">
        <ele>519.73</ele>
        <time>2014-09-05T13:15:13Z</time>
      </trkpt>
      <trkpt lat="44.77774" lon="5.36687">
        <ele>520.21</ele>
        <time>2014-09-05T13:15:14Z</time>
      </trkpt>
      <trkpt lat="44.77774" lon="5.36689">
        <ele>520.21</ele>
        <time>2014-09-05T13:15:15Z</time>
      </trkpt>
      <trkpt lat="44.77773" lon="5.36691">
        <ele>520.21</ele>
        <time>2014-09-05T13:15:16Z</time>
      </trkpt>
      <trkpt lat="44.77772" lon="5.36696">
        <ele>521.17</ele>
        <time>2014-09-05T13:15:19Z</time>
      </trkpt>
      <trkpt lat="44.77771" lon="5.36698">
        <ele>520.69</ele>
        <time>2014-09-05T13:15:20Z</time>
      </trkpt>
      <trkpt lat="44.7777" lon="5.367">
        <ele>520.69</ele>
        <time>2014-09-05T13:15:21Z</time>
      </trkpt>
      <trkpt lat="44.77769" lon="5.36702">
        <ele>520.69</ele>
        <time>2014-09-05T13:15:22Z</time>
      </trkpt>
      <trkpt lat="44.77768" lon="5.36704">
        <ele>520.69</ele>
        <time>2014-09-05T13:15:23Z</time>
      </trkpt>
      <trkpt lat="44.77767" lon="5.36706">
        <ele>521.17</ele>
        <time>2014-09-05T13:15:24Z</time>
      </trkpt>
      <trkpt lat="44.77766" lon="5.36708">
        <ele>520.69</ele>
        <time>2014-09-05T13:15:25Z</time>
      </trkpt>
      <trkpt lat="44.77766" lon="5.3671">
        <ele>521.17</ele>
        <time>2014-09-05T13:15:26Z</time>
      </trkpt>
      <trkpt lat="44.77754" lon="5.36729">
        <ele>522.61</ele>
        <time>2014-09-05T13:15:36Z</time>
      </trkpt>
      <trkpt lat="44.77738" lon="5.36744">
        <ele>524.06</ele>
        <time>2014-09-05T13:15:47Z</time>
      </trkpt>
      <trkpt lat="44.77735" lon="5.36746">
        <ele>524.54</ele>
        <time>2014-09-05T13:15:49Z</time>
      </trkpt>
      <trkpt lat="44.77734" lon="5.36747">
        <ele>525.02</ele>
        <time>2014-09-05T13:15:50Z</time>
      </trkpt>
      <trkpt lat="44.77733" lon="5.36748">
        <ele>524.54</ele>
        <time>2014-09-05T13:15:51Z</time>
      </trkpt>
      <trkpt lat="44.7772" lon="5.36753">
        <ele>526.46</ele>
        <time>2014-09-05T13:16:00Z</time>
      </trkpt>
      <trkpt lat="44.77718" lon="5.36753">
        <ele>526.46</ele>
        <time>2014-09-05T13:16:01Z</time>
      </trkpt>
      <trkpt lat="44.77716" lon="5.36753">
        <ele>526.46</ele>
        <time>2014-09-05T13:16:02Z</time>
      </trkpt>
      <trkpt lat="44.77715" lon="5.36754">
        <ele>526.46</ele>
        <time>2014-09-05T13:16:03Z</time>
      </trkpt>
      <trkpt lat="44.77713" lon="5.36754">
        <ele>526.46</ele>
        <time>2014-09-05T13:16:04Z</time>
      </trkpt>
      <trkpt lat="44.77698" lon="5.36752">
        <ele>528.86</ele>
        <time>2014-09-05T13:16:15Z</time>
      </trkpt>
      <trkpt lat="44.77686" lon="5.3675">
        <ele>529.82</ele>
        <time>2014-09-05T13:16:24Z</time>
      </trkpt>
      <trkpt lat="44.77682" lon="5.3675">
        <ele>530.3</ele>
        <time>2014-09-05T13:16:26Z</time>
      </trkpt>
      <trkpt lat="44.77681" lon="5.36751">
        <ele>530.3</ele>
        <time>2014-09-05T13:16:27Z</time>
      </trkpt>
      <trkpt lat="44.77679" lon="5.36751">
        <ele>530.79</ele>
        <time>2014-09-05T13:16:28Z</time>
      </trkpt>
      <trkpt lat="44.77678" lon="5.36751">
        <ele>530.79</ele>
        <time>2014-09-05T13:16:29Z</time>
      </trkpt>
      <trkpt lat="44.77676" lon="5.3675">
        <ele>530.79</ele>
        <time>2014-09-05T13:16:30Z</time>
      </trkpt>
      <trkpt lat="44.77673" lon="5.3675">
        <ele>530.79</ele>
        <time>2014-09-05T13:16:31Z</time>
      </trkpt>
      <trkpt lat="44.77671" lon="5.3675">
        <ele>531.27</ele>
        <time>2014-09-05T13:16:32Z</time>
      </trkpt>
      <trkpt lat="44.7767" lon="5.36749">
        <ele>531.27</ele>
        <time>2014-09-05T13:16:33Z</time>
      </trkpt>
      <trkpt lat="44.77667" lon="5.36749">
        <ele>531.27</ele>
        <time>2014-09-05T13:16:34Z</time>
      </trkpt>
      <trkpt lat="44.77665" lon="5.36749">
        <ele>530.79</ele>
        <time>2014-09-05T13:16:35Z</time>
      </trkpt>
      <trkpt lat="44.77663" lon="5.36749">
        <ele>531.27</ele>
        <time>2014-09-05T13:16:36Z</time>
      </trkpt>
      <trkpt lat="44.77661" lon="5.36749">
        <ele>531.75</ele>
        <time>2014-09-05T13:16:37Z</time>
      </trkpt>
      <trkpt lat="44.77659" lon="5.36749">
        <ele>531.75</ele>
        <time>2014-09-05T13:16:38Z</time>
      </trkpt>
      <trkpt lat="44.77656" lon="5.3675">
        <ele>532.23</ele>
        <time>2014-09-05T13:16:40Z</time>
      </trkpt>
      <trkpt lat="44.77654" lon="5.36754">
        <ele>532.23</ele>
        <time>2014-09-05T13:16:42Z</time>
      </trkpt>
      <trkpt lat="44.7766" lon="5.36758">
        <ele>533.19</ele>
        <time>2014-09-05T13:16:49Z</time>
      </trkpt>
      <trkpt lat="44.77663" lon="5.36758">
        <ele>533.67</ele>
        <time>2014-09-05T13:16:51Z</time>
      </trkpt>
      <trkpt lat="44.77682" lon="5.36767">
        <ele>535.59</ele>
        <time>2014-09-05T13:17:04Z</time>
      </trkpt>
      <trkpt lat="44.77694" lon="5.36774">
        <ele>537.51</ele>
        <time>2014-09-05T13:17:13Z</time>
      </trkpt>
      <trkpt lat="44.77704" lon="5.36781">
        <ele>538.48</ele>
        <time>2014-09-05T13:17:21Z</time>
      </trkpt>
      <trkpt lat="44.77718" lon="5.3679">
        <ele>540.4</ele>
        <time>2014-09-05T13:17:33Z</time>
      </trkpt>
      <trkpt lat="44.7772" lon="5.36792">
        <ele>540.88</ele>
        <time>2014-09-05T13:17:35Z</time>
      </trkpt>
      <trkpt lat="44.77729" lon="5.36799">
        <ele>542.32</ele>
        <time>2014-09-05T13:17:44Z</time>
      </trkpt>
      <trkpt lat="44.77742" lon="5.36811">
        <ele>544.24</ele>
        <time>2014-09-05T13:17:55Z</time>
      </trkpt>
      <trkpt lat="44.77745" lon="5.36815">
        <ele>544.72</ele>
        <time>2014-09-05T13:17:57Z</time>
      </trkpt>
      <trkpt lat="44.77752" lon="5.3682">
        <ele>546.17</ele>
        <time>2014-09-05T13:18:04Z</time>
      </trkpt>
      <trkpt lat="44.77765" lon="5.36817">
        <ele>547.13</ele>
        <time>2014-09-05T13:18:15Z</time>
      </trkpt>
      <trkpt lat="44.77767" lon="5.36808">
        <ele>548.09</ele>
        <time>2014-09-05T13:18:20Z</time>
      </trkpt>
      <trkpt lat="44.77772" lon="5.36801">
        <ele>549.53</ele>
        <time>2014-09-05T13:18:26Z</time>
      </trkpt>
      <trkpt lat="44.77776" lon="5.36803">
        <ele>550.01</ele>
        <time>2014-09-05T13:18:29Z</time>
      </trkpt>
      <trkpt lat="44.77789" lon="5.36801">
        <ele>551.45</ele>
        <time>2014-09-05T13:18:40Z</time>
      </trkpt>
      <trkpt lat="44.77801" lon="5.36805">
        <ele>553.38</ele>
        <time>2014-09-05T13:18:51Z</time>
      </trkpt>
      <trkpt lat="44.77809" lon="5.3681">
        <ele>555.3</ele>
        <time>2014-09-05T13:18:59Z</time>
      </trkpt>
      <trkpt lat="44.77819" lon="5.36815">
        <ele>556.26</ele>
        <time>2014-09-05T13:19:09Z</time>
      </trkpt>
      <trkpt lat="44.77828" lon="5.36817">
        <ele>557.22</ele>
        <time>2014-09-05T13:19:17Z</time>
      </trkpt>
      <trkpt lat="44.77842" lon="5.36821">
        <ele>559.62</ele>
        <time>2014-09-05T13:19:28Z</time>
      </trkpt>
      <trkpt lat="44.7785" lon="5.36825">
        <ele>560.11</ele>
        <time>2014-09-05T13:19:34Z</time>
      </trkpt>
      <trkpt lat="44.77855" lon="5.3683">
        <ele>561.07</ele>
        <time>2014-09-05T13:19:38Z</time>
      </trkpt>
      <trkpt lat="44.77862" lon="5.36836">
        <ele>562.03</ele>
        <time>2014-09-05T13:19:44Z</time>
      </trkpt>
      <trkpt lat="44.77874" lon="5.36849">
        <ele>563.95</ele>
        <time>2014-09-05T13:19:54Z</time>
      </trkpt>
      <trkpt lat="44.77876" lon="5.36851">
        <ele>563.95</ele>
        <time>2014-09-05T13:19:56Z</time>
      </trkpt>
      <trkpt lat="44.7789" lon="5.36854">
        <ele>565.39</ele>
        <time>2014-09-05T13:20:06Z</time>
      </trkpt>
      <trkpt lat="44.77899" lon="5.36851">
        <ele>565.87</ele>
        <time>2014-09-05T13:20:12Z</time>
      </trkpt>
      <trkpt lat="44.77904" lon="5.36856">
        <ele>566.35</ele>
        <time>2014-09-05T13:20:16Z</time>
      </trkpt>
      <trkpt lat="44.77904" lon="5.36863">
        <ele>566.83</ele>
        <time>2014-09-05T13:20:20Z</time>
      </trkpt>
      <trkpt lat="44.77889" lon="5.36867">
        <ele>567.32</ele>
        <time>2014-09-05T13:20:30Z</time>
      </trkpt>
      <trkpt lat="44.77874" lon="5.36861">
        <ele>568.28</ele>
        <time>2014-09-05T13:20:39Z</time>
      </trkpt>
      <trkpt lat="44.77855" lon="5.36852">
        <ele>570.2</ele>
        <time>2014-09-05T13:20:50Z</time>
      </trkpt>
      <trkpt lat="44.77836" lon="5.36852">
        <ele>572.12</ele>
        <time>2014-09-05T13:21:02Z</time>
      </trkpt>
      <trkpt lat="44.77832" lon="5.36852">
        <ele>572.6</ele>
        <time>2014-09-05T13:21:04Z</time>
      </trkpt>
      <trkpt lat="44.77818" lon="5.36857">
        <ele>574.53</ele>
        <time>2014-09-05T13:21:14Z</time>
      </trkpt>
      <trkpt lat="44.77817" lon="5.36857">
        <ele>574.53</ele>
        <time>2014-09-05T13:21:15Z</time>
      </trkpt>
      <trkpt lat="44.77809" lon="5.36858">
        <ele>575.01</ele>
        <time>2014-09-05T13:21:19Z</time>
      </trkpt>
      <trkpt lat="44.77795" lon="5.36862">
        <ele>575.97</ele>
        <time>2014-09-05T13:21:29Z</time>
      </trkpt>
      <trkpt lat="44.77781" lon="5.36866">
        <ele>577.41</ele>
        <time>2014-09-05T13:21:38Z</time>
      </trkpt>
      <trkpt lat="44.77767" lon="5.36871">
        <ele>579.33</ele>
        <time>2014-09-05T13:21:48Z</time>
      </trkpt>
      <trkpt lat="44.7776" lon="5.3688">
        <ele>580.29</ele>
        <time>2014-09-05T13:21:55Z</time>
      </trkpt>
      <trkpt lat="44.77748" lon="5.36889">
        <ele>581.73</ele>
        <time>2014-09-05T13:22:05Z</time>
      </trkpt>
      <trkpt lat="44.77745" lon="5.3689">
        <ele>581.73</ele>
        <time>2014-09-05T13:22:07Z</time>
      </trkpt>
      <trkpt lat="44.77739" lon="5.3689">
        <ele>582.22</ele>
        <time>2014-09-05T13:22:12Z</time>
      </trkpt>
      <trkpt lat="44.77733" lon="5.36889">
        <ele>583.66</ele>
        <time>2014-09-05T13:22:18Z</time>
      </trkpt>
      <trkpt lat="44.77724" lon="5.36886">
        <ele>584.62</ele>
        <time>2014-09-05T13:22:25Z</time>
      </trkpt>
      <trkpt lat="44.77711" lon="5.36885">
        <ele>586.06</ele>
        <time>2014-09-05T13:22:34Z</time>
      </trkpt>
      <trkpt lat="44.777" lon="5.36883">
        <ele>587.5</ele>
        <time>2014-09-05T13:22:46Z</time>
      </trkpt>
      <trkpt lat="44.777" lon="5.36883">
        <ele>587.02</ele>
        <time>2014-09-05T13:23:05Z</time>
      </trkpt>
      <trkpt lat="44.777" lon="5.36883">
        <ele>587.5</ele>
        <time>2014-09-05T13:23:31Z</time>
      </trkpt>
      <trkpt lat="44.777" lon="5.36883">
        <ele>587.5</ele>
        <time>2014-09-05T13:23:51Z</time>
      </trkpt>
      <trkpt lat="44.77699" lon="5.36883">
        <ele>587.5</ele>
        <time>2014-09-05T13:23:53Z</time>
      </trkpt>
      <trkpt lat="44.77687" lon="5.36887">
        <ele>588.46</ele>
        <time>2014-09-05T13:24:01Z</time>
      </trkpt>
      <trkpt lat="44.77683" lon="5.36887">
        <ele>588.95</ele>
        <time>2014-09-05T13:24:10Z</time>
      </trkpt>
      <trkpt lat="44.77683" lon="5.36887">
        <ele>589.91</ele>
        <time>2014-09-05T13:24:32Z</time>
      </trkpt>
      <trkpt lat="44.77683" lon="5.36887">
        <ele>589.43</ele>
        <time>2014-09-05T13:24:49Z</time>
      </trkpt>
      <trkpt lat="44.77683" lon="5.36887">
        <ele>588.95</ele>
        <time>2014-09-05T13:25:11Z</time>
      </trkpt>
      <trkpt lat="44.77683" lon="5.36887">
        <ele>588.95</ele>
        <time>2014-09-05T13:25:35Z</time>
      </trkpt>
      <trkpt lat="44.77683" lon="5.36887">
        <ele>589.43</ele>
        <time>2014-09-05T13:26:02Z</time>
      </trkpt>
      <trkpt lat="44.77683" lon="5.36888">
        <ele>589.91</ele>
        <time>2014-09-05T13:26:26Z</time>
      </trkpt>
      <trkpt lat="44.77683" lon="5.36888">
        <ele>588.95</ele>
        <time>2014-09-05T13:26:46Z</time>
      </trkpt>
      <trkpt lat="44.77683" lon="5.36888">
        <ele>589.91</ele>
        <time>2014-09-05T13:27:05Z</time>
      </trkpt>
      <trkpt lat="44.77683" lon="5.36888">
        <ele>588.95</ele>
        <time>2014-09-05T13:27:25Z</time>
      </trkpt>
      <trkpt lat="44.77683" lon="5.36888">
        <ele>588.95</ele>
        <time>2014-09-05T13:27:48Z</time>
      </trkpt>
      <trkpt lat="44.77683" lon="5.36889">
        <ele>589.43</ele>
        <time>2014-09-05T13:28:04Z</time>
      </trkpt>
      <trkpt lat="44.77683" lon="5.36889">
        <ele>578.37</ele>
        <time>2014-09-05T13:28:22Z</time>
      </trkpt>
      <trkpt lat="44.77683" lon="5.36889">
        <ele>592.79</ele>
        <time>2014-09-05T13:28:23Z</time>
      </trkpt>
      <trkpt lat="44.77683" lon="5.36889">
        <ele>588.95</ele>
        <time>2014-09-05T13:28:24Z</time>
      </trkpt>
      <trkpt lat="44.77683" lon="5.36889">
        <ele>588.46</ele>
        <time>2014-09-05T13:28:37Z</time>
      </trkpt>
      <trkpt lat="44.77682" lon="5.36889">
        <ele>589.43</ele>
        <time>2014-09-05T13:28:39Z</time>
      </trkpt>
      <trkpt lat="44.77669" lon="5.36894">
        <ele>590.39</ele>
        <time>2014-09-05T13:28:50Z</time>
      </trkpt>
      <trkpt lat="44.77652" lon="5.36901">
        <ele>592.79</ele>
        <time>2014-09-05T13:29:02Z</time>
      </trkpt>
      <trkpt lat="44.77647" lon="5.36902">
        <ele>593.27</ele>
        <time>2014-09-05T13:29:06Z</time>
      </trkpt>
      <trkpt lat="44.77635" lon="5.3691">
        <ele>594.23</ele>
        <time>2014-09-05T13:29:16Z</time>
      </trkpt>
      <trkpt lat="44.77632" lon="5.36912">
        <ele>594.71</ele>
        <time>2014-09-05T13:29:26Z</time>
      </trkpt>
      <trkpt lat="44.77632" lon="5.36912">
        <ele>594.71</ele>
        <time>2014-09-05T13:29:43Z</time>
      </trkpt>
      <trkpt lat="44.77632" lon="5.36912">
        <ele>594.71</ele>
        <time>2014-09-05T13:29:48Z</time>
      </trkpt>
      <trkpt lat="44.77618" lon="5.36922">
        <ele>596.64</ele>
        <time>2014-09-05T13:29:59Z</time>
      </trkpt>
      <trkpt lat="44.77612" lon="5.36927">
        <ele>597.12</ele>
        <time>2014-09-05T13:30:04Z</time>
      </trkpt>
      <trkpt lat="44.77606" lon="5.36932">
        <ele>598.08</ele>
        <time>2014-09-05T13:30:09Z</time>
      </trkpt>
      <trkpt lat="44.77591" lon="5.36949">
        <ele>600.96</ele>
        <time>2014-09-05T13:30:24Z</time>
      </trkpt>
      <trkpt lat="44.77581" lon="5.3696">
        <ele>601.44</ele>
        <time>2014-09-05T13:30:33Z</time>
      </trkpt>
      <trkpt lat="44.77579" lon="5.36967">
        <ele>601.92</ele>
        <time>2014-09-05T13:30:37Z</time>
      </trkpt>
      <trkpt lat="44.77569" lon="5.36984">
        <ele>603.36</ele>
        <time>2014-09-05T13:30:49Z</time>
      </trkpt>
      <trkpt lat="44.77562" lon="5.37002">
        <ele>604.81</ele>
        <time>2014-09-05T13:30:59Z</time>
      </trkpt>
      <trkpt lat="44.7756" lon="5.3701">
        <ele>605.29</ele>
        <time>2014-09-05T13:31:04Z</time>
      </trkpt>
      <trkpt lat="44.77556" lon="5.37025">
        <ele>606.25</ele>
        <time>2014-09-05T13:31:12Z</time>
      </trkpt>
      <trkpt lat="44.77556" lon="5.37029">
        <ele>606.73</ele>
        <time>2014-09-05T13:31:14Z</time>
      </trkpt>
      <trkpt lat="44.77552" lon="5.37044">
        <ele>607.69</ele>
        <time>2014-09-05T13:31:23Z</time>
      </trkpt>
      <trkpt lat="44.77551" lon="5.37045">
        <ele>608.17</ele>
        <time>2014-09-05T13:31:24Z</time>
      </trkpt>
      <trkpt lat="44.77546" lon="5.37071">
        <ele>608.65</ele>
        <time>2014-09-05T13:31:35Z</time>
      </trkpt>
      <trkpt lat="44.77547" lon="5.37085">
        <ele>609.61</ele>
        <time>2014-09-05T13:31:41Z</time>
      </trkpt>
      <trkpt lat="44.77552" lon="5.37097">
        <ele>611.06</ele>
        <time>2014-09-05T13:31:48Z</time>
      </trkpt>
      <trkpt lat="44.77555" lon="5.37104">
        <ele>611.54</ele>
        <time>2014-09-05T13:31:51Z</time>
      </trkpt>
      <trkpt lat="44.77564" lon="5.37124">
        <ele>612.98</ele>
        <time>2014-09-05T13:32:02Z</time>
      </trkpt>
      <trkpt lat="44.77564" lon="5.37125">
        <ele>612.5</ele>
        <time>2014-09-05T13:32:03Z</time>
      </trkpt>
      <trkpt lat="44.77568" lon="5.37135">
        <ele>613.46</ele>
        <time>2014-09-05T13:32:08Z</time>
      </trkpt>
      <trkpt lat="44.77577" lon="5.37157">
        <ele>614.42</ele>
        <time>2014-09-05T13:32:18Z</time>
      </trkpt>
      <trkpt lat="44.7758" lon="5.37169">
        <ele>614.9</ele>
        <time>2014-09-05T13:32:24Z</time>
      </trkpt>
      <trkpt lat="44.7758" lon="5.37176">
        <ele>615.38</ele>
        <time>2014-09-05T13:32:27Z</time>
      </trkpt>
      <trkpt lat="44.77575" lon="5.37192">
        <ele>615.86</ele>
        <time>2014-09-05T13:32:33Z</time>
      </trkpt>
      <trkpt lat="44.77572" lon="5.37198">
        <ele>615.38</ele>
        <time>2014-09-05T13:32:41Z</time>
      </trkpt>
      <trkpt lat="44.77571" lon="5.372">
        <ele>615.86</ele>
        <time>2014-09-05T13:32:55Z</time>
      </trkpt>
      <trkpt lat="44.77562" lon="5.37205">
        <ele>615.38</ele>
        <time>2014-09-05T13:32:59Z</time>
      </trkpt>
      <trkpt lat="44.77547" lon="5.37222">
        <ele>615.86</ele>
        <time>2014-09-05T13:33:07Z</time>
      </trkpt>
      <trkpt lat="44.77551" lon="5.37266">
        <ele>617.78</ele>
        <time>2014-09-05T13:33:18Z</time>
      </trkpt>
      <trkpt lat="44.77552" lon="5.37306">
        <ele>618.75</ele>
        <time>2014-09-05T13:33:29Z</time>
      </trkpt>
      <trkpt lat="44.77559" lon="5.3734">
        <ele>620.67</ele>
        <time>2014-09-05T13:33:40Z</time>
      </trkpt>
      <trkpt lat="44.7756" lon="5.37371">
        <ele>622.11</ele>
        <time>2014-09-05T13:33:50Z</time>
      </trkpt>
      <trkpt lat="44.77563" lon="5.37408">
        <ele>623.07</ele>
        <time>2014-09-05T13:34:00Z</time>
      </trkpt>
      <trkpt lat="44.7757" lon="5.37435">
        <ele>624.03</ele>
        <time>2014-09-05T13:34:11Z</time>
      </trkpt>
      <trkpt lat="44.7757" lon="5.37435">
        <ele>624.03</ele>
        <time>2014-09-05T13:34:21Z</time>
      </trkpt>
      <trkpt lat="44.7757" lon="5.37435">
        <ele>624.03</ele>
        <time>2014-09-05T13:34:28Z</time>
      </trkpt>
      <trkpt lat="44.7757" lon="5.37438">
        <ele>624.03</ele>
        <time>2014-09-05T13:34:30Z</time>
      </trkpt>
      <trkpt lat="44.7758" lon="5.37461">
        <ele>623.55</ele>
        <time>2014-09-05T13:34:39Z</time>
      </trkpt>
      <trkpt lat="44.77579" lon="5.37471">
        <ele>623.07</ele>
        <time>2014-09-05T13:34:41Z</time>
      </trkpt>
      <trkpt lat="44.77576" lon="5.3748">
        <ele>622.59</ele>
        <time>2014-09-05T13:34:43Z</time>
      </trkpt>
      <trkpt lat="44.77577" lon="5.37514">
        <ele>620.67</ele>
        <time>2014-09-05T13:34:50Z</time>
      </trkpt>
      <trkpt lat="44.77578" lon="5.37522">
        <ele>620.67</ele>
        <time>2014-09-05T13:34:51Z</time>
      </trkpt>
      <trkpt lat="44.77577" lon="5.37529">
        <ele>620.19</ele>
        <time>2014-09-05T13:34:52Z</time>
      </trkpt>
      <trkpt lat="44.77574" lon="5.37545">
        <ele>618.75</ele>
        <time>2014-09-05T13:34:54Z</time>
      </trkpt>
      <trkpt lat="44.77575" lon="5.37554">
        <ele>618.75</ele>
        <time>2014-09-05T13:34:55Z</time>
      </trkpt>
      <trkpt lat="44.77575" lon="5.37562">
        <ele>618.26</ele>
        <time>2014-09-05T13:34:56Z</time>
      </trkpt>
      <trkpt lat="44.77576" lon="5.3757">
        <ele>618.26</ele>
        <time>2014-09-05T13:34:57Z</time>
      </trkpt>
      <trkpt lat="44.77577" lon="5.37578">
        <ele>618.26</ele>
        <time>2014-09-05T13:34:58Z</time>
      </trkpt>
      <trkpt lat="44.77576" lon="5.37585">
        <ele>617.78</ele>
        <time>2014-09-05T13:34:59Z</time>
      </trkpt>
      <trkpt lat="44.77573" lon="5.37592">
        <ele>618.26</ele>
        <time>2014-09-05T13:35:00Z</time>
      </trkpt>
      <trkpt lat="44.77566" lon="5.37609">
        <ele>618.26</ele>
        <time>2014-09-05T13:35:03Z</time>
      </trkpt>
      <trkpt lat="44.77565" lon="5.37615">
        <ele>618.26</ele>
        <time>2014-09-05T13:35:04Z</time>
      </trkpt>
      <trkpt lat="44.77565" lon="5.37621">
        <ele>618.75</ele>
        <time>2014-09-05T13:35:05Z</time>
      </trkpt>
      <trkpt lat="44.77565" lon="5.37626">
        <ele>618.75</ele>
        <time>2014-09-05T13:35:06Z</time>
      </trkpt>
      <trkpt lat="44.77567" lon="5.3763">
        <ele>619.23</ele>
        <time>2014-09-05T13:35:07Z</time>
      </trkpt>
      <trkpt lat="44.77568" lon="5.37634">
        <ele>619.23</ele>
        <time>2014-09-05T13:35:08Z</time>
      </trkpt>
      <trkpt lat="44.77574" lon="5.37663">
        <ele>621.15</ele>
        <time>2014-09-05T13:35:17Z</time>
      </trkpt>
      <trkpt lat="44.77586" lon="5.37691">
        <ele>623.07</ele>
        <time>2014-09-05T13:35:27Z</time>
      </trkpt>
      <trkpt lat="44.77584" lon="5.37697">
        <ele>623.55</ele>
        <time>2014-09-05T13:35:29Z</time>
      </trkpt>
      <trkpt lat="44.77582" lon="5.377">
        <ele>624.03</ele>
        <time>2014-09-05T13:35:30Z</time>
      </trkpt>
      <trkpt lat="44.77581" lon="5.37704">
        <ele>624.03</ele>
        <time>2014-09-05T13:35:31Z</time>
      </trkpt>
      <trkpt lat="44.77579" lon="5.37735">
        <ele>624.03</ele>
        <time>2014-09-05T13:35:39Z</time>
      </trkpt>
      <trkpt lat="44.77605" lon="5.37758">
        <ele>624.51</ele>
        <time>2014-09-05T13:35:49Z</time>
      </trkpt>
      <trkpt lat="44.77622" lon="5.37768">
        <ele>624.99</ele>
        <time>2014-09-05T13:35:57Z</time>
      </trkpt>
      <trkpt lat="44.77622" lon="5.37768">
        <ele>624.99</ele>
        <time>2014-09-05T13:36:14Z</time>
      </trkpt>
      <trkpt lat="44.77625" lon="5.37772">
        <ele>624.99</ele>
        <time>2014-09-05T13:36:17Z</time>
      </trkpt>
      <trkpt lat="44.77645" lon="5.37802">
        <ele>624.99</ele>
        <time>2014-09-05T13:36:27Z</time>
      </trkpt>
      <trkpt lat="44.77658" lon="5.3782">
        <ele>625.47</ele>
        <time>2014-09-05T13:36:32Z</time>
      </trkpt>
      <trkpt lat="44.77661" lon="5.37832">
        <ele>624.99</ele>
        <time>2014-09-05T13:36:34Z</time>
      </trkpt>
      <trkpt lat="44.77665" lon="5.37856">
        <ele>624.99</ele>
        <time>2014-09-05T13:36:38Z</time>
      </trkpt>
      <trkpt lat="44.77666" lon="5.37874">
        <ele>624.99</ele>
        <time>2014-09-05T13:36:41Z</time>
      </trkpt>
      <trkpt lat="44.77668" lon="5.37886">
        <ele>624.99</ele>
        <time>2014-09-05T13:36:43Z</time>
      </trkpt>
      <trkpt lat="44.77671" lon="5.37897">
        <ele>624.99</ele>
        <time>2014-09-05T13:36:45Z</time>
      </trkpt>
      <trkpt lat="44.77692" lon="5.37941">
        <ele>624.03</ele>
        <time>2014-09-05T13:36:54Z</time>
      </trkpt>
      <trkpt lat="44.77717" lon="5.37977">
        <ele>624.03</ele>
        <time>2014-09-05T13:37:04Z</time>
      </trkpt>
      <trkpt lat="44.77741" lon="5.38014">
        <ele>625.96</ele>
        <time>2014-09-05T13:37:14Z</time>
      </trkpt>
      <trkpt lat="44.7776" lon="5.38057">
        <ele>627.88</ele>
        <time>2014-09-05T13:37:26Z</time>
      </trkpt>
      <trkpt lat="44.77779" lon="5.38084">
        <ele>629.32</ele>
        <time>2014-09-05T13:37:37Z</time>
      </trkpt>
      <trkpt lat="44.77792" lon="5.38097">
        <ele>631.24</ele>
        <time>2014-09-05T13:37:45Z</time>
      </trkpt>
      <trkpt lat="44.77815" lon="5.38101">
        <ele>633.17</ele>
        <time>2014-09-05T13:37:56Z</time>
      </trkpt>
      <trkpt lat="44.77819" lon="5.38108">
        <ele>634.13</ele>
        <time>2014-09-05T13:38:00Z</time>
      </trkpt>
      <trkpt lat="44.77819" lon="5.3811">
        <ele>634.13</ele>
        <time>2014-09-05T13:38:01Z</time>
      </trkpt>
      <trkpt lat="44.7782" lon="5.38113">
        <ele>634.13</ele>
        <time>2014-09-05T13:38:02Z</time>
      </trkpt>
      <trkpt lat="44.7782" lon="5.38117">
        <ele>634.61</ele>
        <time>2014-09-05T13:38:04Z</time>
      </trkpt>
      <trkpt lat="44.7782" lon="5.38118">
        <ele>634.61</ele>
        <time>2014-09-05T13:38:05Z</time>
      </trkpt>
      <trkpt lat="44.7782" lon="5.3812">
        <ele>634.61</ele>
        <time>2014-09-05T13:38:06Z</time>
      </trkpt>
      <trkpt lat="44.77821" lon="5.38121">
        <ele>635.09</ele>
        <time>2014-09-05T13:38:07Z</time>
      </trkpt>
      <trkpt lat="44.77823" lon="5.3812">
        <ele>634.61</ele>
        <time>2014-09-05T13:38:10Z</time>
      </trkpt>
      <trkpt lat="44.77822" lon="5.38116">
        <ele>634.13</ele>
        <time>2014-09-05T13:38:20Z</time>
      </trkpt>
      <trkpt lat="44.7782" lon="5.38122">
        <ele>634.61</ele>
        <time>2014-09-05T13:38:23Z</time>
      </trkpt>
      <trkpt lat="44.77819" lon="5.38139">
        <ele>634.13</ele>
        <time>2014-09-05T13:38:30Z</time>
      </trkpt>
      <trkpt lat="44.77818" lon="5.38171">
        <ele>632.68</ele>
        <time>2014-09-05T13:38:37Z</time>
      </trkpt>
      <trkpt lat="44.77818" lon="5.38178">
        <ele>632.68</ele>
        <time>2014-09-05T13:38:38Z</time>
      </trkpt>
      <trkpt lat="44.77816" lon="5.38192">
        <ele>630.76</ele>
        <time>2014-09-05T13:38:40Z</time>
      </trkpt>
      <trkpt lat="44.77815" lon="5.38233">
        <ele>628.36</ele>
        <time>2014-09-05T13:38:45Z</time>
      </trkpt>
      <trkpt lat="44.77819" lon="5.38274">
        <ele>625.96</ele>
        <time>2014-09-05T13:38:51Z</time>
      </trkpt>
      <trkpt lat="44.77821" lon="5.38277">
        <ele>625.47</ele>
        <time>2014-09-05T13:38:52Z</time>
      </trkpt>
      <trkpt lat="44.77823" lon="5.38279">
        <ele>625.47</ele>
        <time>2014-09-05T13:38:53Z</time>
      </trkpt>
      <trkpt lat="44.77836" lon="5.38292">
        <ele>623.55</ele>
        <time>2014-09-05T13:38:57Z</time>
      </trkpt>
      <trkpt lat="44.77853" lon="5.3831">
        <ele>621.63</ele>
        <time>2014-09-05T13:39:01Z</time>
      </trkpt>
      <trkpt lat="44.77858" lon="5.38314">
        <ele>621.15</ele>
        <time>2014-09-05T13:39:02Z</time>
      </trkpt>
      <trkpt lat="44.77863" lon="5.38317">
        <ele>621.15</ele>
        <time>2014-09-05T13:39:03Z</time>
      </trkpt>
      <trkpt lat="44.77867" lon="5.38319">
        <ele>620.19</ele>
        <time>2014-09-05T13:39:04Z</time>
      </trkpt>
      <trkpt lat="44.77872" lon="5.38319">
        <ele>620.19</ele>
        <time>2014-09-05T13:39:05Z</time>
      </trkpt>
      <trkpt lat="44.77876" lon="5.38318">
        <ele>619.23</ele>
        <time>2014-09-05T13:39:06Z</time>
      </trkpt>
      <trkpt lat="44.77881" lon="5.38317">
        <ele>619.23</ele>
        <time>2014-09-05T13:39:07Z</time>
      </trkpt>
      <trkpt lat="44.77886" lon="5.38315">
        <ele>617.78</ele>
        <time>2014-09-05T13:39:08Z</time>
      </trkpt>
      <trkpt lat="44.7789" lon="5.38313">
        <ele>617.78</ele>
        <time>2014-09-05T13:39:09Z</time>
      </trkpt>
      <trkpt lat="44.77895" lon="5.3831">
        <ele>616.34</ele>
        <time>2014-09-05T13:39:10Z</time>
      </trkpt>
      <trkpt lat="44.77899" lon="5.38307">
        <ele>616.34</ele>
        <time>2014-09-05T13:39:11Z</time>
      </trkpt>
      <trkpt lat="44.77904" lon="5.38306">
        <ele>615.38</ele>
        <time>2014-09-05T13:39:12Z</time>
      </trkpt>
      <trkpt lat="44.77908" lon="5.38306">
        <ele>614.9</ele>
        <time>2014-09-05T13:39:13Z</time>
      </trkpt>
      <trkpt lat="44.77913" lon="5.38308">
        <ele>614.42</ele>
        <time>2014-09-05T13:39:14Z</time>
      </trkpt>
      <trkpt lat="44.77917" lon="5.3831">
        <ele>613.94</ele>
        <time>2014-09-05T13:39:15Z</time>
      </trkpt>
      <trkpt lat="44.7792" lon="5.38313">
        <ele>613.94</ele>
        <time>2014-09-05T13:39:16Z</time>
      </trkpt>
      <trkpt lat="44.77922" lon="5.38317">
        <ele>613.46</ele>
        <time>2014-09-05T13:39:17Z</time>
      </trkpt>
      <trkpt lat="44.77924" lon="5.38322">
        <ele>612.98</ele>
        <time>2014-09-05T13:39:18Z</time>
      </trkpt>
      <trkpt lat="44.77926" lon="5.38327">
        <ele>612.5</ele>
        <time>2014-09-05T13:39:19Z</time>
      </trkpt>
      <trkpt lat="44.77928" lon="5.38332">
        <ele>611.54</ele>
        <time>2014-09-05T13:39:20Z</time>
      </trkpt>
      <trkpt lat="44.77929" lon="5.38338">
        <ele>611.54</ele>
        <time>2014-09-05T13:39:21Z</time>
      </trkpt>
      <trkpt lat="44.7793" lon="5.38344">
        <ele>611.06</ele>
        <time>2014-09-05T13:39:22Z</time>
      </trkpt>
      <trkpt lat="44.77931" lon="5.3835">
        <ele>610.57</ele>
        <time>2014-09-05T13:39:23Z</time>
      </trkpt>
      <trkpt lat="44.77931" lon="5.38355">
        <ele>610.57</ele>
        <time>2014-09-05T13:39:24Z</time>
      </trkpt>
      <trkpt lat="44.77931" lon="5.38359">
        <ele>609.61</ele>
        <time>2014-09-05T13:39:25Z</time>
      </trkpt>
      <trkpt lat="44.77929" lon="5.38363">
        <ele>609.61</ele>
        <time>2014-09-05T13:39:26Z</time>
      </trkpt>
      <trkpt lat="44.77926" lon="5.38366">
        <ele>609.13</ele>
        <time>2014-09-05T13:39:27Z</time>
      </trkpt>
      <trkpt lat="44.77923" lon="5.38367">
        <ele>608.65</ele>
        <time>2014-09-05T13:39:28Z</time>
      </trkpt>
      <trkpt lat="44.7792" lon="5.38367">
        <ele>608.17</ele>
        <time>2014-09-05T13:39:29Z</time>
      </trkpt>
      <trkpt lat="44.77917" lon="5.38364">
        <ele>607.69</ele>
        <time>2014-09-05T13:39:30Z</time>
      </trkpt>
      <trkpt lat="44.77914" lon="5.3836">
        <ele>606.73</ele>
        <time>2014-09-05T13:39:31Z</time>
      </trkpt>
      <trkpt lat="44.77904" lon="5.38355">
        <ele>604.81</ele>
        <time>2014-09-05T13:39:34Z</time>
      </trkpt>
      <trkpt lat="44.77901" lon="5.38356">
        <ele>604.81</ele>
        <time>2014-09-05T13:39:35Z</time>
      </trkpt>
      <trkpt lat="44.77884" lon="5.38377">
        <ele>602.88</ele>
        <time>2014-09-05T13:39:41Z</time>
      </trkpt>
      <trkpt lat="44.77867" lon="5.38388">
        <ele>600.96</ele>
        <time>2014-09-05T13:39:48Z</time>
      </trkpt>
      <trkpt lat="44.77863" lon="5.3839">
        <ele>600.48</ele>
        <time>2014-09-05T13:39:49Z</time>
      </trkpt>
      <trkpt lat="44.7784" lon="5.38388">
        <ele>597.6</ele>
        <time>2014-09-05T13:39:56Z</time>
      </trkpt>
      <trkpt lat="44.7783" lon="5.38391">
        <ele>595.67</ele>
        <time>2014-09-05T13:39:59Z</time>
      </trkpt>
      <trkpt lat="44.77824" lon="5.38393">
        <ele>594.71</ele>
        <time>2014-09-05T13:40:01Z</time>
      </trkpt>
      <trkpt lat="44.77823" lon="5.38396">
        <ele>594.23</ele>
        <time>2014-09-05T13:40:02Z</time>
      </trkpt>
      <trkpt lat="44.77822" lon="5.38399">
        <ele>593.75</ele>
        <time>2014-09-05T13:40:03Z</time>
      </trkpt>
      <trkpt lat="44.77822" lon="5.38402">
        <ele>593.27</ele>
        <time>2014-09-05T13:40:04Z</time>
      </trkpt>
      <trkpt lat="44.77823" lon="5.38404">
        <ele>593.27</ele>
        <time>2014-09-05T13:40:05Z</time>
      </trkpt>
      <trkpt lat="44.77825" lon="5.38407">
        <ele>593.27</ele>
        <time>2014-09-05T13:40:06Z</time>
      </trkpt>
      <trkpt lat="44.77828" lon="5.38409">
        <ele>592.31</ele>
        <time>2014-09-05T13:40:07Z</time>
      </trkpt>
      <trkpt lat="44.7785" lon="5.38418">
        <ele>589.91</ele>
        <time>2014-09-05T13:40:14Z</time>
      </trkpt>
      <trkpt lat="44.77869" lon="5.38426">
        <ele>587.02</ele>
        <time>2014-09-05T13:40:20Z</time>
      </trkpt>
      <trkpt lat="44.77871" lon="5.38428">
        <ele>587.02</ele>
        <time>2014-09-05T13:40:21Z</time>
      </trkpt>
      <trkpt lat="44.77872" lon="5.38431">
        <ele>586.54</ele>
        <time>2014-09-05T13:40:22Z</time>
      </trkpt>
      <trkpt lat="44.77871" lon="5.38445">
        <ele>586.06</ele>
        <time>2014-09-05T13:40:25Z</time>
      </trkpt>
      <trkpt lat="44.77867" lon="5.38449">
        <ele>585.58</ele>
        <time>2014-09-05T13:40:26Z</time>
      </trkpt>
      <trkpt lat="44.77855" lon="5.38463">
        <ele>583.18</ele>
        <time>2014-09-05T13:40:29Z</time>
      </trkpt>
      <trkpt lat="44.77852" lon="5.38469">
        <ele>583.18</ele>
        <time>2014-09-05T13:40:30Z</time>
      </trkpt>
      <trkpt lat="44.77848" lon="5.38475">
        <ele>583.18</ele>
        <time>2014-09-05T13:40:31Z</time>
      </trkpt>
      <trkpt lat="44.77846" lon="5.38482">
        <ele>581.25</ele>
        <time>2014-09-05T13:40:32Z</time>
      </trkpt>
      <trkpt lat="44.77845" lon="5.38489">
        <ele>580.77</ele>
        <time>2014-09-05T13:40:33Z</time>
      </trkpt>
      <trkpt lat="44.77844" lon="5.38495">
        <ele>579.81</ele>
        <time>2014-09-05T13:40:34Z</time>
      </trkpt>
      <trkpt lat="44.77843" lon="5.38501">
        <ele>579.33</ele>
        <time>2014-09-05T13:40:35Z</time>
      </trkpt>
      <trkpt lat="44.77842" lon="5.38507">
        <ele>579.33</ele>
        <time>2014-09-05T13:40:36Z</time>
      </trkpt>
      <trkpt lat="44.77841" lon="5.38513">
        <ele>578.85</ele>
        <time>2014-09-05T13:40:37Z</time>
      </trkpt>
      <trkpt lat="44.77839" lon="5.38519">
        <ele>578.37</ele>
        <time>2014-09-05T13:40:38Z</time>
      </trkpt>
      <trkpt lat="44.77835" lon="5.38538">
        <ele>576.93</ele>
        <time>2014-09-05T13:40:41Z</time>
      </trkpt>
      <trkpt lat="44.77823" lon="5.38565">
        <ele>574.53</ele>
        <time>2014-09-05T13:40:48Z</time>
      </trkpt>
      <trkpt lat="44.77808" lon="5.38584">
        <ele>571.64</ele>
        <time>2014-09-05T13:40:56Z</time>
      </trkpt>
      <trkpt lat="44.77788" lon="5.38591">
        <ele>568.76</ele>
        <time>2014-09-05T13:41:02Z</time>
      </trkpt>
      <trkpt lat="44.77778" lon="5.38588">
        <ele>567.32</ele>
        <time>2014-09-05T13:41:05Z</time>
      </trkpt>
      <trkpt lat="44.77773" lon="5.38588">
        <ele>566.83</ele>
        <time>2014-09-05T13:41:06Z</time>
      </trkpt>
      <trkpt lat="44.77768" lon="5.38589">
        <ele>566.83</ele>
        <time>2014-09-05T13:41:07Z</time>
      </trkpt>
      <trkpt lat="44.77758" lon="5.38593">
        <ele>565.39</ele>
        <time>2014-09-05T13:41:09Z</time>
      </trkpt>
      <trkpt lat="44.77753" lon="5.38597">
        <ele>564.91</ele>
        <time>2014-09-05T13:41:10Z</time>
      </trkpt>
      <trkpt lat="44.77749" lon="5.38602">
        <ele>564.91</ele>
        <time>2014-09-05T13:41:11Z</time>
      </trkpt>
      <trkpt lat="44.77747" lon="5.38609">
        <ele>563.95</ele>
        <time>2014-09-05T13:41:12Z</time>
      </trkpt>
      <trkpt lat="44.77744" lon="5.38617">
        <ele>563.47</ele>
        <time>2014-09-05T13:41:13Z</time>
      </trkpt>
      <trkpt lat="44.77735" lon="5.3864">
        <ele>561.55</ele>
        <time>2014-09-05T13:41:18Z</time>
      </trkpt>
      <trkpt lat="44.77734" lon="5.3864">
        <ele>561.55</ele>
        <time>2014-09-05T13:41:26Z</time>
      </trkpt>
      <trkpt lat="44.77733" lon="5.3864">
        <ele>562.03</ele>
        <time>2014-09-05T13:41:33Z</time>
      </trkpt>
      <trkpt lat="44.7773" lon="5.38639">
        <ele>562.03</ele>
        <time>2014-09-05T13:41:35Z</time>
      </trkpt>
      <trkpt lat="44.77729" lon="5.38638">
        <ele>562.03</ele>
        <time>2014-09-05T13:41:36Z</time>
      </trkpt>
      <trkpt lat="44.77728" lon="5.38636">
        <ele>562.03</ele>
        <time>2014-09-05T13:41:37Z</time>
      </trkpt>
      <trkpt lat="44.77726" lon="5.38635">
        <ele>562.03</ele>
        <time>2014-09-05T13:41:38Z</time>
      </trkpt>
      <trkpt lat="44.77725" lon="5.38633">
        <ele>562.03</ele>
        <time>2014-09-05T13:41:39Z</time>
      </trkpt>
      <trkpt lat="44.77724" lon="5.38631">
        <ele>562.03</ele>
        <time>2014-09-05T13:41:40Z</time>
      </trkpt>
      <trkpt lat="44.77723" lon="5.38629">
        <ele>562.51</ele>
        <time>2014-09-05T13:41:41Z</time>
      </trkpt>
      <trkpt lat="44.77721" lon="5.38626">
        <ele>562.03</ele>
        <time>2014-09-05T13:41:42Z</time>
      </trkpt>
      <trkpt lat="44.77718" lon="5.38586">
        <ele>561.55</ele>
        <time>2014-09-05T13:41:50Z</time>
      </trkpt>
      <trkpt lat="44.77718" lon="5.38579">
        <ele>561.55</ele>
        <time>2014-09-05T13:41:51Z</time>
      </trkpt>
      <trkpt lat="44.77719" lon="5.38559">
        <ele>561.55</ele>
        <time>2014-09-05T13:41:55Z</time>
      </trkpt>
      <trkpt lat="44.77718" lon="5.38555">
        <ele>561.55</ele>
        <time>2014-09-05T13:41:56Z</time>
      </trkpt>
      <trkpt lat="44.77717" lon="5.3855">
        <ele>561.55</ele>
        <time>2014-09-05T13:41:57Z</time>
      </trkpt>
      <trkpt lat="44.77715" lon="5.38546">
        <ele>561.07</ele>
        <time>2014-09-05T13:41:58Z</time>
      </trkpt>
      <trkpt lat="44.77712" lon="5.38542">
        <ele>561.07</ele>
        <time>2014-09-05T13:41:59Z</time>
      </trkpt>
      <trkpt lat="44.7771" lon="5.38539">
        <ele>561.07</ele>
        <time>2014-09-05T13:42:00Z</time>
      </trkpt>
      <trkpt lat="44.77706" lon="5.38537">
        <ele>561.07</ele>
        <time>2014-09-05T13:42:01Z</time>
      </trkpt>
      <trkpt lat="44.77698" lon="5.38533">
        <ele>560.59</ele>
        <time>2014-09-05T13:42:03Z</time>
      </trkpt>
      <trkpt lat="44.77694" lon="5.38532">
        <ele>560.11</ele>
        <time>2014-09-05T13:42:04Z</time>
      </trkpt>
      <trkpt lat="44.77657" lon="5.38535">
        <ele>560.59</ele>
        <time>2014-09-05T13:42:12Z</time>
      </trkpt>
      <trkpt lat="44.77636" lon="5.38535">
        <ele>561.07</ele>
        <time>2014-09-05T13:42:19Z</time>
      </trkpt>
      <trkpt lat="44.77625" lon="5.38522">
        <ele>559.14</ele>
        <time>2014-09-05T13:42:24Z</time>
      </trkpt>
      <trkpt lat="44.77623" lon="5.38517">
        <ele>558.18</ele>
        <time>2014-09-05T13:42:25Z</time>
      </trkpt>
      <trkpt lat="44.77621" lon="5.38512">
        <ele>558.18</ele>
        <time>2014-09-05T13:42:26Z</time>
      </trkpt>
      <trkpt lat="44.77613" lon="5.3849">
        <ele>555.3</ele>
        <time>2014-09-05T13:42:30Z</time>
      </trkpt>
      <trkpt lat="44.77608" lon="5.38478">
        <ele>555.3</ele>
        <time>2014-09-05T13:42:32Z</time>
      </trkpt>
      <trkpt lat="44.77605" lon="5.38467">
        <ele>554.34</ele>
        <time>2014-09-05T13:42:34Z</time>
      </trkpt>
      <trkpt lat="44.77603" lon="5.38461">
        <ele>553.86</ele>
        <time>2014-09-05T13:42:35Z</time>
      </trkpt>
      <trkpt lat="44.77603" lon="5.38455">
        <ele>552.9</ele>
        <time>2014-09-05T13:42:36Z</time>
      </trkpt>
      <trkpt lat="44.77604" lon="5.38441">
        <ele>550.97</ele>
        <time>2014-09-05T13:42:38Z</time>
      </trkpt>
      <trkpt lat="44.77604" lon="5.38431">
        <ele>549.05</ele>
        <time>2014-09-05T13:42:39Z</time>
      </trkpt>
      <trkpt lat="44.77604" lon="5.38423">
        <ele>548.57</ele>
        <time>2014-09-05T13:42:40Z</time>
      </trkpt>
      <trkpt lat="44.77603" lon="5.38416">
        <ele>548.57</ele>
        <time>2014-09-05T13:42:41Z</time>
      </trkpt>
      <trkpt lat="44.77601" lon="5.38409">
        <ele>548.57</ele>
        <time>2014-09-05T13:42:42Z</time>
      </trkpt>
      <trkpt lat="44.77598" lon="5.38404">
        <ele>548.09</ele>
        <time>2014-09-05T13:42:43Z</time>
      </trkpt>
      <trkpt lat="44.77596" lon="5.38399">
        <ele>548.09</ele>
        <time>2014-09-05T13:42:44Z</time>
      </trkpt>
      <trkpt lat="44.77593" lon="5.38396">
        <ele>546.65</ele>
        <time>2014-09-05T13:42:45Z</time>
      </trkpt>
      <trkpt lat="44.77589" lon="5.38393">
        <ele>546.17</ele>
        <time>2014-09-05T13:42:46Z</time>
      </trkpt>
      <trkpt lat="44.77585" lon="5.38389">
        <ele>545.2</ele>
        <time>2014-09-05T13:42:47Z</time>
      </trkpt>
      <trkpt lat="44.77581" lon="5.38383">
        <ele>544.72</ele>
        <time>2014-09-05T13:42:48Z</time>
      </trkpt>
      <trkpt lat="44.77577" lon="5.38377">
        <ele>543.76</ele>
        <time>2014-09-05T13:42:49Z</time>
      </trkpt>
      <trkpt lat="44.77573" lon="5.38369">
        <ele>543.28</ele>
        <time>2014-09-05T13:42:50Z</time>
      </trkpt>
      <trkpt lat="44.77569" lon="5.38362">
        <ele>543.28</ele>
        <time>2014-09-05T13:42:51Z</time>
      </trkpt>
      <trkpt lat="44.77548" lon="5.38331">
        <ele>539.92</ele>
        <time>2014-09-05T13:42:56Z</time>
      </trkpt>
      <trkpt lat="44.77542" lon="5.38329">
        <ele>538.96</ele>
        <time>2014-09-05T13:42:57Z</time>
      </trkpt>
      <trkpt lat="44.77515" lon="5.38319">
        <ele>536.55</ele>
        <time>2014-09-05T13:43:02Z</time>
      </trkpt>
      <trkpt lat="44.77495" lon="5.38317">
        <ele>533.67</ele>
        <time>2014-09-05T13:43:07Z</time>
      </trkpt>
      <trkpt lat="44.77478" lon="5.38312">
        <ele>530.3</ele>
        <time>2014-09-05T13:43:12Z</time>
      </trkpt>
      <trkpt lat="44.77467" lon="5.38311">
        <ele>529.34</ele>
        <time>2014-09-05T13:43:14Z</time>
      </trkpt>
      <trkpt lat="44.77456" lon="5.38309">
        <ele>528.38</ele>
        <time>2014-09-05T13:43:16Z</time>
      </trkpt>
      <trkpt lat="44.77452" lon="5.38309">
        <ele>528.86</ele>
        <time>2014-09-05T13:43:17Z</time>
      </trkpt>
      <trkpt lat="44.77448" lon="5.38311">
        <ele>528.38</ele>
        <time>2014-09-05T13:43:18Z</time>
      </trkpt>
      <trkpt lat="44.77444" lon="5.38312">
        <ele>528.38</ele>
        <time>2014-09-05T13:43:19Z</time>
      </trkpt>
      <trkpt lat="44.7744" lon="5.38312">
        <ele>528.38</ele>
        <time>2014-09-05T13:43:20Z</time>
      </trkpt>
      <trkpt lat="44.77436" lon="5.38312">
        <ele>528.38</ele>
        <time>2014-09-05T13:43:21Z</time>
      </trkpt>
      <trkpt lat="44.77431" lon="5.38312">
        <ele>527.9</ele>
        <time>2014-09-05T13:43:22Z</time>
      </trkpt>
      <trkpt lat="44.77416" lon="5.38315">
        <ele>526.94</ele>
        <time>2014-09-05T13:43:25Z</time>
      </trkpt>
      <trkpt lat="44.77411" lon="5.38317">
        <ele>526.94</ele>
        <time>2014-09-05T13:43:26Z</time>
      </trkpt>
      <trkpt lat="44.77408" lon="5.38321">
        <ele>526.94</ele>
        <time>2014-09-05T13:43:27Z</time>
      </trkpt>
      <trkpt lat="44.77405" lon="5.38324">
        <ele>526.94</ele>
        <time>2014-09-05T13:43:28Z</time>
      </trkpt>
      <trkpt lat="44.77403" lon="5.38328">
        <ele>526.46</ele>
        <time>2014-09-05T13:43:29Z</time>
      </trkpt>
      <trkpt lat="44.77401" lon="5.38334">
        <ele>526.46</ele>
        <time>2014-09-05T13:43:30Z</time>
      </trkpt>
      <trkpt lat="44.77399" lon="5.38338">
        <ele>525.98</ele>
        <time>2014-09-05T13:43:31Z</time>
      </trkpt>
      <trkpt lat="44.77398" lon="5.38341">
        <ele>526.46</ele>
        <time>2014-09-05T13:43:32Z</time>
      </trkpt>
      <trkpt lat="44.77395" lon="5.38344">
        <ele>525.98</ele>
        <time>2014-09-05T13:43:33Z</time>
      </trkpt>
      <trkpt lat="44.77391" lon="5.38345">
        <ele>525.5</ele>
        <time>2014-09-05T13:43:34Z</time>
      </trkpt>
      <trkpt lat="44.77387" lon="5.38343">
        <ele>525.5</ele>
        <time>2014-09-05T13:43:35Z</time>
      </trkpt>
      <trkpt lat="44.77382" lon="5.38341">
        <ele>525.02</ele>
        <time>2014-09-05T13:43:36Z</time>
      </trkpt>
      <trkpt lat="44.77377" lon="5.3834">
        <ele>524.06</ele>
        <time>2014-09-05T13:43:37Z</time>
      </trkpt>
      <trkpt lat="44.77372" lon="5.38339">
        <ele>524.06</ele>
        <time>2014-09-05T13:43:38Z</time>
      </trkpt>
      <trkpt lat="44.77367" lon="5.38338">
        <ele>523.58</ele>
        <time>2014-09-05T13:43:39Z</time>
      </trkpt>
      <trkpt lat="44.77358" lon="5.38336">
        <ele>523.09</ele>
        <time>2014-09-05T13:43:41Z</time>
      </trkpt>
      <trkpt lat="44.77353" lon="5.38336">
        <ele>523.58</ele>
        <time>2014-09-05T13:43:42Z</time>
      </trkpt>
      <trkpt lat="44.77349" lon="5.38336">
        <ele>523.58</ele>
        <time>2014-09-05T13:43:43Z</time>
      </trkpt>
      <trkpt lat="44.77345" lon="5.38335">
        <ele>522.61</ele>
        <time>2014-09-05T13:43:44Z</time>
      </trkpt>
      <trkpt lat="44.77341" lon="5.38334">
        <ele>522.61</ele>
        <time>2014-09-05T13:43:45Z</time>
      </trkpt>
      <trkpt lat="44.77336" lon="5.38334">
        <ele>521.65</ele>
        <time>2014-09-05T13:43:46Z</time>
      </trkpt>
      <trkpt lat="44.77323" lon="5.38334">
        <ele>520.69</ele>
        <time>2014-09-05T13:43:49Z</time>
      </trkpt>
      <trkpt lat="44.7729" lon="5.38329">
        <ele>519.25</ele>
        <time>2014-09-05T13:43:58Z</time>
      </trkpt>
      <trkpt lat="44.77274" lon="5.38322">
        <ele>517.81</ele>
        <time>2014-09-05T13:44:05Z</time>
      </trkpt>
      <trkpt lat="44.77272" lon="5.38322">
        <ele>516.85</ele>
        <time>2014-09-05T13:44:06Z</time>
      </trkpt>
      <trkpt lat="44.7727" lon="5.38321">
        <ele>516.85</ele>
        <time>2014-09-05T13:44:07Z</time>
      </trkpt>
      <trkpt lat="44.77244" lon="5.38325">
        <ele>515.4</ele>
        <time>2014-09-05T13:44:14Z</time>
      </trkpt>
      <trkpt lat="44.7724" lon="5.38327">
        <ele>515.88</ele>
        <time>2014-09-05T13:44:15Z</time>
      </trkpt>
      <trkpt lat="44.77236" lon="5.38328">
        <ele>515.4</ele>
        <time>2014-09-05T13:44:16Z</time>
      </trkpt>
      <trkpt lat="44.77232" lon="5.38329">
        <ele>515.4</ele>
        <time>2014-09-05T13:44:17Z</time>
      </trkpt>
      <trkpt lat="44.77229" lon="5.38329">
        <ele>515.4</ele>
        <time>2014-09-05T13:44:18Z</time>
      </trkpt>
      <trkpt lat="44.77225" lon="5.3833">
        <ele>514.92</ele>
        <time>2014-09-05T13:44:19Z</time>
      </trkpt>
      <trkpt lat="44.77222" lon="5.38331">
        <ele>515.4</ele>
        <time>2014-09-05T13:44:20Z</time>
      </trkpt>
      <trkpt lat="44.77217" lon="5.38333">
        <ele>515.4</ele>
        <time>2014-09-05T13:44:26Z</time>
      </trkpt>
      <trkpt lat="44.77217" lon="5.38333">
        <ele>515.4</ele>
        <time>2014-09-05T13:44:42Z</time>
      </trkpt>
      <trkpt lat="44.77216" lon="5.38335">
        <ele>514.92</ele>
        <time>2014-09-05T13:45:08Z</time>
      </trkpt>
      <trkpt lat="44.77216" lon="5.38335">
        <ele>515.4</ele>
        <time>2014-09-05T13:45:30Z</time>
      </trkpt>
      <trkpt lat="44.77216" lon="5.38335">
        <ele>514.92</ele>
        <time>2014-09-05T13:45:57Z</time>
      </trkpt>
      <trkpt lat="44.77216" lon="5.38335">
        <ele>514.92</ele>
        <time>2014-09-05T13:46:24Z</time>
      </trkpt>
      <trkpt lat="44.77206" lon="5.38338">
        <ele>514.44</ele>
        <time>2014-09-05T13:46:36Z</time>
      </trkpt>
      <trkpt lat="44.77173" lon="5.38343">
        <ele>513.96</ele>
        <time>2014-09-05T13:46:45Z</time>
      </trkpt>
      <trkpt lat="44.77144" lon="5.38348">
        <ele>512.52</ele>
        <time>2014-09-05T13:46:53Z</time>
      </trkpt>
      <trkpt lat="44.77104" lon="5.38356">
        <ele>509.64</ele>
        <time>2014-09-05T13:47:02Z</time>
      </trkpt>
      <trkpt lat="44.77088" lon="5.38352">
        <ele>508.19</ele>
        <time>2014-09-05T13:47:06Z</time>
      </trkpt>
      <trkpt lat="44.77085" lon="5.38348">
        <ele>507.23</ele>
        <time>2014-09-05T13:47:07Z</time>
      </trkpt>
      <trkpt lat="44.77084" lon="5.38344">
        <ele>506.75</ele>
        <time>2014-09-05T13:47:08Z</time>
      </trkpt>
      <trkpt lat="44.77082" lon="5.38339">
        <ele>507.23</ele>
        <time>2014-09-05T13:47:09Z</time>
      </trkpt>
      <trkpt lat="44.7708" lon="5.38334">
        <ele>506.27</ele>
        <time>2014-09-05T13:47:10Z</time>
      </trkpt>
      <trkpt lat="44.77077" lon="5.38328">
        <ele>505.79</ele>
        <time>2014-09-05T13:47:11Z</time>
      </trkpt>
      <trkpt lat="44.77074" lon="5.38322">
        <ele>504.83</ele>
        <time>2014-09-05T13:47:12Z</time>
      </trkpt>
      <trkpt lat="44.77053" lon="5.38288">
        <ele>502.43</ele>
        <time>2014-09-05T13:47:17Z</time>
      </trkpt>
      <trkpt lat="44.77029" lon="5.3826">
        <ele>499.54</ele>
        <time>2014-09-05T13:47:26Z</time>
      </trkpt>
      <trkpt lat="44.77023" lon="5.38258">
        <ele>499.06</ele>
        <time>2014-09-05T13:47:29Z</time>
      </trkpt>
      <trkpt lat="44.77015" lon="5.38259">
        <ele>499.06</ele>
        <time>2014-09-05T13:47:32Z</time>
      </trkpt>
      <trkpt lat="44.77012" lon="5.38259">
        <ele>499.06</ele>
        <time>2014-09-05T13:47:33Z</time>
      </trkpt>
      <trkpt lat="44.77008" lon="5.38258">
        <ele>499.06</ele>
        <time>2014-09-05T13:47:34Z</time>
      </trkpt>
      <trkpt lat="44.76981" lon="5.38249">
        <ele>498.58</ele>
        <time>2014-09-05T13:47:40Z</time>
      </trkpt>
      <trkpt lat="44.76976" lon="5.38247">
        <ele>498.1</ele>
        <time>2014-09-05T13:47:41Z</time>
      </trkpt>
      <trkpt lat="44.76945" lon="5.38225">
        <ele>500.5</ele>
        <time>2014-09-05T13:47:51Z</time>
      </trkpt>
      <trkpt lat="44.76915" lon="5.38209">
        <ele>501.95</ele>
        <time>2014-09-05T13:48:01Z</time>
      </trkpt>
      <trkpt lat="44.76878" lon="5.38189">
        <ele>501.95</ele>
        <time>2014-09-05T13:48:10Z</time>
      </trkpt>
      <trkpt lat="44.76842" lon="5.38164">
        <ele>501.46</ele>
        <time>2014-09-05T13:48:21Z</time>
      </trkpt>
      <trkpt lat="44.76823" lon="5.38149">
        <ele>500.5</ele>
        <time>2014-09-05T13:48:27Z</time>
      </trkpt>
      <trkpt lat="44.76815" lon="5.38148">
        <ele>501.95</ele>
        <time>2014-09-05T13:48:32Z</time>
      </trkpt>
      <trkpt lat="44.76815" lon="5.38148">
        <ele>501.95</ele>
        <time>2014-09-05T13:48:58Z</time>
      </trkpt>
      <trkpt lat="44.76815" lon="5.38148">
        <ele>501.46</ele>
        <time>2014-09-05T13:49:08Z</time>
      </trkpt>
      <trkpt lat="44.76814" lon="5.38148">
        <ele>501.46</ele>
        <time>2014-09-05T13:49:09Z</time>
      </trkpt>
      <trkpt lat="44.76793" lon="5.3813">
        <ele>500.5</ele>
        <time>2014-09-05T13:49:18Z</time>
      </trkpt>
      <trkpt lat="44.76786" lon="5.38123">
        <ele>500.5</ele>
        <time>2014-09-05T13:49:20Z</time>
      </trkpt>
      <trkpt lat="44.76783" lon="5.38121">
        <ele>500.5</ele>
        <time>2014-09-05T13:49:21Z</time>
      </trkpt>
      <trkpt lat="44.76752" lon="5.381">
        <ele>500.5</ele>
        <time>2014-09-05T13:49:31Z</time>
      </trkpt>
      <trkpt lat="44.76729" lon="5.38072">
        <ele>500.5</ele>
        <time>2014-09-05T13:49:40Z</time>
      </trkpt>
      <trkpt lat="44.76705" lon="5.3804">
        <ele>501.95</ele>
        <time>2014-09-05T13:49:51Z</time>
      </trkpt>
      <trkpt lat="44.76679" lon="5.38008">
        <ele>501.46</ele>
        <time>2014-09-05T13:50:03Z</time>
      </trkpt>
      <trkpt lat="44.76674" lon="5.38005">
        <ele>501.46</ele>
        <time>2014-09-05T13:50:05Z</time>
      </trkpt>
      <trkpt lat="44.7667" lon="5.38006">
        <ele>501.46</ele>
        <time>2014-09-05T13:50:06Z</time>
      </trkpt>
      <trkpt lat="44.76666" lon="5.38008">
        <ele>500.98</ele>
        <time>2014-09-05T13:50:07Z</time>
      </trkpt>
      <trkpt lat="44.76663" lon="5.38013">
        <ele>500.5</ele>
        <time>2014-09-05T13:50:08Z</time>
      </trkpt>
      <trkpt lat="44.76659" lon="5.3802">
        <ele>499.06</ele>
        <time>2014-09-05T13:50:09Z</time>
      </trkpt>
      <trkpt lat="44.76655" lon="5.3803">
        <ele>497.62</ele>
        <time>2014-09-05T13:50:10Z</time>
      </trkpt>
      <trkpt lat="44.76651" lon="5.38041">
        <ele>495.7</ele>
        <time>2014-09-05T13:50:11Z</time>
      </trkpt>
      <trkpt lat="44.76638" lon="5.38067">
        <ele>491.85</ele>
        <time>2014-09-05T13:50:13Z</time>
      </trkpt>
      <trkpt lat="44.76624" lon="5.38096">
        <ele>487.53</ele>
        <time>2014-09-05T13:50:15Z</time>
      </trkpt>
      <trkpt lat="44.76609" lon="5.38126">
        <ele>483.2</ele>
        <time>2014-09-05T13:50:17Z</time>
      </trkpt>
      <trkpt lat="44.76595" lon="5.38155">
        <ele>478.87</ele>
        <time>2014-09-05T13:50:19Z</time>
      </trkpt>
      <trkpt lat="44.76576" lon="5.38182">
        <ele>475.03</ele>
        <time>2014-09-05T13:50:21Z</time>
      </trkpt>
      <trkpt lat="44.76556" lon="5.38207">
        <ele>472.14</ele>
        <time>2014-09-05T13:50:23Z</time>
      </trkpt>
      <trkpt lat="44.76529" lon="5.38241">
        <ele>467.82</ele>
        <time>2014-09-05T13:50:26Z</time>
      </trkpt>
      <trkpt lat="44.76513" lon="5.38263">
        <ele>466.38</ele>
        <time>2014-09-05T13:50:28Z</time>
      </trkpt>
      <trkpt lat="44.76466" lon="5.38334">
        <ele>463.01</ele>
        <time>2014-09-05T13:50:35Z</time>
      </trkpt>
      <trkpt lat="44.76428" lon="5.38379">
        <ele>459.65</ele>
        <time>2014-09-05T13:50:40Z</time>
      </trkpt>
      <trkpt lat="44.76419" lon="5.38384">
        <ele>459.17</ele>
        <time>2014-09-05T13:50:41Z</time>
      </trkpt>
      <trkpt lat="44.7641" lon="5.38387">
        <ele>458.69</ele>
        <time>2014-09-05T13:50:42Z</time>
      </trkpt>
      <trkpt lat="44.764" lon="5.38388">
        <ele>457.72</ele>
        <time>2014-09-05T13:50:43Z</time>
      </trkpt>
      <trkpt lat="44.7639" lon="5.38391">
        <ele>457.24</ele>
        <time>2014-09-05T13:50:44Z</time>
      </trkpt>
      <trkpt lat="44.76381" lon="5.38397">
        <ele>456.28</ele>
        <time>2014-09-05T13:50:45Z</time>
      </trkpt>
      <trkpt lat="44.76372" lon="5.38403">
        <ele>455.8</ele>
        <time>2014-09-05T13:50:46Z</time>
      </trkpt>
      <trkpt lat="44.76365" lon="5.38411">
        <ele>454.84</ele>
        <time>2014-09-05T13:50:47Z</time>
      </trkpt>
      <trkpt lat="44.76359" lon="5.38418">
        <ele>454.84</ele>
        <time>2014-09-05T13:50:48Z</time>
      </trkpt>
      <trkpt lat="44.76341" lon="5.38434">
        <ele>453.4</ele>
        <time>2014-09-05T13:50:51Z</time>
      </trkpt>
      <trkpt lat="44.76309" lon="5.38464">
        <ele>449.55</ele>
        <time>2014-09-05T13:50:57Z</time>
      </trkpt>
      <trkpt lat="44.76296" lon="5.38475">
        <ele>447.15</ele>
        <time>2014-09-05T13:51:01Z</time>
      </trkpt>
      <trkpt lat="44.76293" lon="5.38475">
        <ele>446.67</ele>
        <time>2014-09-05T13:51:02Z</time>
      </trkpt>
      <trkpt lat="44.76291" lon="5.38472">
        <ele>446.19</ele>
        <time>2014-09-05T13:51:03Z</time>
      </trkpt>
      <trkpt lat="44.76288" lon="5.38469">
        <ele>446.19</ele>
        <time>2014-09-05T13:51:04Z</time>
      </trkpt>
      <trkpt lat="44.76286" lon="5.38465">
        <ele>446.19</ele>
        <time>2014-09-05T13:51:05Z</time>
      </trkpt>
      <trkpt lat="44.76276" lon="5.38447">
        <ele>445.71</ele>
        <time>2014-09-05T13:51:09Z</time>
      </trkpt>
      <trkpt lat="44.76243" lon="5.38396">
        <ele>445.23</ele>
        <time>2014-09-05T13:51:22Z</time>
      </trkpt>
      <trkpt lat="44.76229" lon="5.38359">
        <ele>445.23</ele>
        <time>2014-09-05T13:51:31Z</time>
      </trkpt>
      <trkpt lat="44.7622" lon="5.38343">
        <ele>445.23</ele>
        <time>2014-09-05T13:51:35Z</time>
      </trkpt>
      <trkpt lat="44.76216" lon="5.3834">
        <ele>445.23</ele>
        <time>2014-09-05T13:51:36Z</time>
      </trkpt>
      <trkpt lat="44.76212" lon="5.38338">
        <ele>444.75</ele>
        <time>2014-09-05T13:51:37Z</time>
      </trkpt>
      <trkpt lat="44.76207" lon="5.38335">
        <ele>444.75</ele>
        <time>2014-09-05T13:51:38Z</time>
      </trkpt>
      <trkpt lat="44.76203" lon="5.38333">
        <ele>444.75</ele>
        <time>2014-09-05T13:51:39Z</time>
      </trkpt>
      <trkpt lat="44.7618" lon="5.38323">
        <ele>444.27</ele>
        <time>2014-09-05T13:51:44Z</time>
      </trkpt>
      <trkpt lat="44.76175" lon="5.3832">
        <ele>444.27</ele>
        <time>2014-09-05T13:51:45Z</time>
      </trkpt>
      <trkpt lat="44.76171" lon="5.38319">
        <ele>443.79</ele>
        <time>2014-09-05T13:51:46Z</time>
      </trkpt>
      <trkpt lat="44.76166" lon="5.38317">
        <ele>444.27</ele>
        <time>2014-09-05T13:51:47Z</time>
      </trkpt>
      <trkpt lat="44.76162" lon="5.38315">
        <ele>444.27</ele>
        <time>2014-09-05T13:51:48Z</time>
      </trkpt>
      <trkpt lat="44.76135" lon="5.3831">
        <ele>443.79</ele>
        <time>2014-09-05T13:51:54Z</time>
      </trkpt>
      <trkpt lat="44.76104" lon="5.38304">
        <ele>443.31</ele>
        <time>2014-09-05T13:52:01Z</time>
      </trkpt>
      <trkpt lat="44.76095" lon="5.38299">
        <ele>443.79</ele>
        <time>2014-09-05T13:52:07Z</time>
      </trkpt>
      <trkpt lat="44.76095" lon="5.38299">
        <ele>442.82</ele>
        <time>2014-09-05T13:52:35Z</time>
      </trkpt>
      <trkpt lat="44.76095" lon="5.38299">
        <ele>442.82</ele>
        <time>2014-09-05T13:52:57Z</time>
      </trkpt>
      <trkpt lat="44.76095" lon="5.38299">
        <ele>442.34</ele>
        <time>2014-09-05T13:53:24Z</time>
      </trkpt>
      <trkpt lat="44.76095" lon="5.383">
        <ele>442.34</ele>
        <time>2014-09-05T13:53:46Z</time>
      </trkpt>
      <trkpt lat="44.76089" lon="5.38297">
        <ele>441.86</ele>
        <time>2014-09-05T13:54:00Z</time>
      </trkpt>
      <trkpt lat="44.76068" lon="5.38276">
        <ele>442.34</ele>
        <time>2014-09-05T13:54:07Z</time>
      </trkpt>
      <trkpt lat="44.76062" lon="5.38268">
        <ele>442.34</ele>
        <time>2014-09-05T13:54:09Z</time>
      </trkpt>
      <trkpt lat="44.76053" lon="5.38255">
        <ele>442.34</ele>
        <time>2014-09-05T13:54:12Z</time>
      </trkpt>
      <trkpt lat="44.76044" lon="5.38242">
        <ele>442.82</ele>
        <time>2014-09-05T13:54:15Z</time>
      </trkpt>
      <trkpt lat="44.76041" lon="5.38237">
        <ele>442.34</ele>
        <time>2014-09-05T13:54:16Z</time>
      </trkpt>
      <trkpt lat="44.76011" lon="5.38186">
        <ele>441.86</ele>
        <time>2014-09-05T13:54:27Z</time>
      </trkpt>
      <trkpt lat="44.76001" lon="5.38174">
        <ele>442.34</ele>
        <time>2014-09-05T13:54:30Z</time>
      </trkpt>
      <trkpt lat="44.75968" lon="5.38133">
        <ele>441.86</ele>
        <time>2014-09-05T13:54:40Z</time>
      </trkpt>
      <trkpt lat="44.75947" lon="5.38108">
        <ele>441.86</ele>
        <time>2014-09-05T13:54:46Z</time>
      </trkpt>
      <trkpt lat="44.75909" lon="5.3806">
        <ele>441.86</ele>
        <time>2014-09-05T13:54:57Z</time>
      </trkpt>
      <trkpt lat="44.75885" lon="5.3802">
        <ele>440.9</ele>
        <time>2014-09-05T13:55:05Z</time>
      </trkpt>
      <trkpt lat="44.75882" lon="5.38016">
        <ele>440.9</ele>
        <time>2014-09-05T13:55:06Z</time>
      </trkpt>
      <trkpt lat="44.75879" lon="5.38012">
        <ele>441.38</ele>
        <time>2014-09-05T13:55:07Z</time>
      </trkpt>
      <trkpt lat="44.75856" lon="5.37984">
        <ele>440.9</ele>
        <time>2014-09-05T13:55:14Z</time>
      </trkpt>
      <trkpt lat="44.7583" lon="5.37958">
        <ele>440.9</ele>
        <time>2014-09-05T13:55:22Z</time>
      </trkpt>
      <trkpt lat="44.75816" lon="5.37944">
        <ele>440.9</ele>
        <time>2014-09-05T13:55:26Z</time>
      </trkpt>
      <trkpt lat="44.75775" lon="5.3789">
        <ele>440.9</ele>
        <time>2014-09-05T13:55:38Z</time>
      </trkpt>
      <trkpt lat="44.75772" lon="5.37885">
        <ele>440.9</ele>
        <time>2014-09-05T13:55:39Z</time>
      </trkpt>
      <trkpt lat="44.75736" lon="5.37829">
        <ele>440.42</ele>
        <time>2014-09-05T13:55:50Z</time>
      </trkpt>
      <trkpt lat="44.75704" lon="5.37779">
        <ele>440.9</ele>
        <time>2014-09-05T13:56:00Z</time>
      </trkpt>
      <trkpt lat="44.75701" lon="5.37773">
        <ele>440.9</ele>
        <time>2014-09-05T13:56:01Z</time>
      </trkpt>
      <trkpt lat="44.75671" lon="5.37721">
        <ele>441.86</ele>
        <time>2014-09-05T13:56:12Z</time>
      </trkpt>
      <trkpt lat="44.75645" lon="5.37681">
        <ele>442.82</ele>
        <time>2014-09-05T13:56:22Z</time>
      </trkpt>
      <trkpt lat="44.75642" lon="5.37677">
        <ele>442.82</ele>
        <time>2014-09-05T13:56:23Z</time>
      </trkpt>
      <trkpt lat="44.75615" lon="5.37637">
        <ele>445.23</ele>
        <time>2014-09-05T13:56:34Z</time>
      </trkpt>
      <trkpt lat="44.7559" lon="5.37618">
        <ele>446.19</ele>
        <time>2014-09-05T13:56:42Z</time>
      </trkpt>
      <trkpt lat="44.75573" lon="5.37602">
        <ele>446.19</ele>
        <time>2014-09-05T13:56:48Z</time>
      </trkpt>
      <trkpt lat="44.75549" lon="5.37559">
        <ele>445.71</ele>
        <time>2014-09-05T13:56:58Z</time>
      </trkpt>
      <trkpt lat="44.75542" lon="5.37551">
        <ele>445.71</ele>
        <time>2014-09-05T13:57:00Z</time>
      </trkpt>
      <trkpt lat="44.75539" lon="5.37546">
        <ele>445.23</ele>
        <time>2014-09-05T13:57:01Z</time>
      </trkpt>
      <trkpt lat="44.7552" lon="5.37524">
        <ele>444.27</ele>
        <time>2014-09-05T13:57:06Z</time>
      </trkpt>
      <trkpt lat="44.75517" lon="5.37519">
        <ele>444.75</ele>
        <time>2014-09-05T13:57:07Z</time>
      </trkpt>
      <trkpt lat="44.75513" lon="5.37514">
        <ele>444.27</ele>
        <time>2014-09-05T13:57:08Z</time>
      </trkpt>
      <trkpt lat="44.7551" lon="5.37509">
        <ele>444.75</ele>
        <time>2014-09-05T13:57:09Z</time>
      </trkpt>
      <trkpt lat="44.75507" lon="5.37503">
        <ele>443.79</ele>
        <time>2014-09-05T13:57:10Z</time>
      </trkpt>
      <trkpt lat="44.75504" lon="5.37498">
        <ele>443.79</ele>
        <time>2014-09-05T13:57:11Z</time>
      </trkpt>
      <trkpt lat="44.75484" lon="5.37466">
        <ele>442.82</ele>
        <time>2014-09-05T13:57:19Z</time>
      </trkpt>
      <trkpt lat="44.75477" lon="5.3746">
        <ele>441.86</ele>
        <time>2014-09-05T13:57:21Z</time>
      </trkpt>
      <trkpt lat="44.7546" lon="5.37448">
        <ele>438.5</ele>
        <time>2014-09-05T13:57:25Z</time>
      </trkpt>
      <trkpt lat="44.75438" lon="5.37436">
        <ele>434.65</ele>
        <time>2014-09-05T13:57:30Z</time>
      </trkpt>
      <trkpt lat="44.7542" lon="5.37425">
        <ele>432.25</ele>
        <time>2014-09-05T13:57:34Z</time>
      </trkpt>
      <trkpt lat="44.75407" lon="5.37418">
        <ele>430.33</ele>
        <time>2014-09-05T13:57:37Z</time>
      </trkpt>
      <trkpt lat="44.75403" lon="5.37416">
        <ele>429.37</ele>
        <time>2014-09-05T13:57:38Z</time>
      </trkpt>
      <trkpt lat="44.75398" lon="5.37413">
        <ele>428.4</ele>
        <time>2014-09-05T13:57:39Z</time>
      </trkpt>
      <trkpt lat="44.75393" lon="5.37411">
        <ele>427.92</ele>
        <time>2014-09-05T13:57:40Z</time>
      </trkpt>
      <trkpt lat="44.75389" lon="5.37409">
        <ele>426.96</ele>
        <time>2014-09-05T13:57:41Z</time>
      </trkpt>
      <trkpt lat="44.7538" lon="5.37405">
        <ele>426.48</ele>
        <time>2014-09-05T13:57:43Z</time>
      </trkpt>
      <trkpt lat="44.75376" lon="5.37402">
        <ele>426</ele>
        <time>2014-09-05T13:57:44Z</time>
      </trkpt>
      <trkpt lat="44.75372" lon="5.37399">
        <ele>426</ele>
        <time>2014-09-05T13:57:45Z</time>
      </trkpt>
      <trkpt lat="44.75368" lon="5.37396">
        <ele>425.04</ele>
        <time>2014-09-05T13:57:46Z</time>
      </trkpt>
      <trkpt lat="44.75364" lon="5.37392">
        <ele>424.56</ele>
        <time>2014-09-05T13:57:47Z</time>
      </trkpt>
      <trkpt lat="44.7536" lon="5.37389">
        <ele>424.56</ele>
        <time>2014-09-05T13:57:48Z</time>
      </trkpt>
      <trkpt lat="44.75356" lon="5.37385">
        <ele>423.6</ele>
        <time>2014-09-05T13:57:49Z</time>
      </trkpt>
      <trkpt lat="44.75352" lon="5.37382">
        <ele>423.6</ele>
        <time>2014-09-05T13:57:50Z</time>
      </trkpt>
      <trkpt lat="44.75348" lon="5.37377">
        <ele>423.6</ele>
        <time>2014-09-05T13:57:51Z</time>
      </trkpt>
      <trkpt lat="44.75332" lon="5.37364">
        <ele>423.6</ele>
        <time>2014-09-05T13:57:56Z</time>
      </trkpt>
      <trkpt lat="44.7533" lon="5.37365">
        <ele>424.08</ele>
        <time>2014-09-05T13:57:57Z</time>
      </trkpt>
      <trkpt lat="44.75328" lon="5.37367">
        <ele>423.12</ele>
        <time>2014-09-05T13:57:58Z</time>
      </trkpt>
      <trkpt lat="44.75327" lon="5.37371">
        <ele>423.12</ele>
        <time>2014-09-05T13:57:59Z</time>
      </trkpt>
      <trkpt lat="44.75326" lon="5.37374">
        <ele>422.64</ele>
        <time>2014-09-05T13:58:00Z</time>
      </trkpt>
      <trkpt lat="44.75324" lon="5.37378">
        <ele>422.16</ele>
        <time>2014-09-05T13:58:01Z</time>
      </trkpt>
      <trkpt lat="44.75323" lon="5.37379">
        <ele>421.68</ele>
        <time>2014-09-05T13:58:02Z</time>
      </trkpt>
      <trkpt lat="44.75322" lon="5.3738">
        <ele>422.16</ele>
        <time>2014-09-05T13:58:03Z</time>
      </trkpt>
      <trkpt lat="44.75321" lon="5.3738">
        <ele>421.68</ele>
        <time>2014-09-05T13:58:12Z</time>
      </trkpt>
      <trkpt lat="44.7532" lon="5.37381">
        <ele>421.19</ele>
        <time>2014-09-05T13:58:22Z</time>
      </trkpt>
      <trkpt lat="44.7532" lon="5.37381">
        <ele>421.19</ele>
        <time>2014-09-05T13:58:40Z</time>
      </trkpt>
      <trkpt lat="44.75319" lon="5.3738">
        <ele>420.71</ele>
        <time>2014-09-05T13:58:43Z</time>
      </trkpt>
      <trkpt lat="44.75317" lon="5.37378">
        <ele>420.71</ele>
        <time>2014-09-05T13:58:44Z</time>
      </trkpt>
      <trkpt lat="44.75315" lon="5.37377">
        <ele>420.23</ele>
        <time>2014-09-05T13:58:45Z</time>
      </trkpt>
      <trkpt lat="44.75312" lon="5.37376">
        <ele>419.75</ele>
        <time>2014-09-05T13:58:46Z</time>
      </trkpt>
      <trkpt lat="44.75309" lon="5.37374">
        <ele>420.23</ele>
        <time>2014-09-05T13:58:47Z</time>
      </trkpt>
      <trkpt lat="44.75292" lon="5.37367">
        <ele>418.79</ele>
        <time>2014-09-05T13:58:52Z</time>
      </trkpt>
      <trkpt lat="44.75264" lon="5.37343">
        <ele>417.83</ele>
        <time>2014-09-05T13:58:58Z</time>
      </trkpt>
      <trkpt lat="44.75256" lon="5.37334">
        <ele>417.35</ele>
        <time>2014-09-05T13:59:00Z</time>
      </trkpt>
      <trkpt lat="44.75251" lon="5.3733">
        <ele>417.35</ele>
        <time>2014-09-05T13:59:01Z</time>
      </trkpt>
      <trkpt lat="44.75246" lon="5.37327">
        <ele>417.83</ele>
        <time>2014-09-05T13:59:02Z</time>
      </trkpt>
      <trkpt lat="44.75242" lon="5.37324">
        <ele>416.87</ele>
        <time>2014-09-05T13:59:03Z</time>
      </trkpt>
      <trkpt lat="44.75237" lon="5.3732">
        <ele>417.35</ele>
        <time>2014-09-05T13:59:04Z</time>
      </trkpt>
      <trkpt lat="44.75232" lon="5.37316">
        <ele>417.35</ele>
        <time>2014-09-05T13:59:05Z</time>
      </trkpt>
      <trkpt lat="44.75217" lon="5.37311">
        <ele>417.35</ele>
        <time>2014-09-05T13:59:11Z</time>
      </trkpt>
      <trkpt lat="44.75216" lon="5.37311">
        <ele>416.87</ele>
        <time>2014-09-05T13:59:12Z</time>
      </trkpt>
      <trkpt lat="44.75214" lon="5.37311">
        <ele>416.87</ele>
        <time>2014-09-05T13:59:13Z</time>
      </trkpt>
      <trkpt lat="44.75212" lon="5.37312">
        <ele>416.87</ele>
        <time>2014-09-05T13:59:14Z</time>
      </trkpt>
      <trkpt lat="44.75211" lon="5.37312">
        <ele>417.35</ele>
        <time>2014-09-05T13:59:15Z</time>
      </trkpt>
      <trkpt lat="44.75208" lon="5.37312">
        <ele>417.35</ele>
        <time>2014-09-05T13:59:16Z</time>
      </trkpt>
      <trkpt lat="44.75207" lon="5.37311">
        <ele>417.35</ele>
        <time>2014-09-05T13:59:17Z</time>
      </trkpt>
      <trkpt lat="44.75205" lon="5.3731">
        <ele>416.87</ele>
        <time>2014-09-05T13:59:18Z</time>
      </trkpt>
      <trkpt lat="44.75204" lon="5.37309">
        <ele>417.35</ele>
        <time>2014-09-05T13:59:19Z</time>
      </trkpt>
      <trkpt lat="44.75203" lon="5.37308">
        <ele>417.35</ele>
        <time>2014-09-05T13:59:20Z</time>
      </trkpt>
      <trkpt lat="44.75193" lon="5.37301">
        <ele>416.87</ele>
        <time>2014-09-05T13:59:30Z</time>
      </trkpt>
      <trkpt lat="44.75192" lon="5.373">
        <ele>416.87</ele>
        <time>2014-09-05T13:59:31Z</time>
      </trkpt>
      <trkpt lat="44.75192" lon="5.37299">
        <ele>416.87</ele>
        <time>2014-09-05T13:59:32Z</time>
      </trkpt>
      <trkpt lat="44.75191" lon="5.37299">
        <ele>416.87</ele>
        <time>2014-09-05T13:59:33Z</time>
      </trkpt>
      <trkpt lat="44.7519" lon="5.37298">
        <ele>417.35</ele>
        <time>2014-09-05T13:59:34Z</time>
      </trkpt>
      <trkpt lat="44.75189" lon="5.37297">
        <ele>416.87</ele>
        <time>2014-09-05T13:59:35Z</time>
      </trkpt>
      <trkpt lat="44.75188" lon="5.37295">
        <ele>417.35</ele>
        <time>2014-09-05T13:59:37Z</time>
      </trkpt>
      <trkpt lat="44.75187" lon="5.37293">
        <ele>417.35</ele>
        <time>2014-09-05T13:59:38Z</time>
      </trkpt>
      <trkpt lat="44.75186" lon="5.37292">
        <ele>416.87</ele>
        <time>2014-09-05T13:59:39Z</time>
      </trkpt>
      <trkpt lat="44.75185" lon="5.3729">
        <ele>416.87</ele>
        <time>2014-09-05T13:59:40Z</time>
      </trkpt>
      <trkpt lat="44.75184" lon="5.37289">
        <ele>417.35</ele>
        <time>2014-09-05T13:59:41Z</time>
      </trkpt>
      <trkpt lat="44.7518" lon="5.37285">
        <ele>416.87</ele>
        <time>2014-09-05T13:59:44Z</time>
      </trkpt>
      <trkpt lat="44.75179" lon="5.37284">
        <ele>416.87</ele>
        <time>2014-09-05T13:59:45Z</time>
      </trkpt>
      <trkpt lat="44.75177" lon="5.37282">
        <ele>416.87</ele>
        <time>2014-09-05T13:59:46Z</time>
      </trkpt>
      <trkpt lat="44.75176" lon="5.3728">
        <ele>416.87</ele>
        <time>2014-09-05T13:59:47Z</time>
      </trkpt>
      <trkpt lat="44.75174" lon="5.37278">
        <ele>416.87</ele>
        <time>2014-09-05T13:59:48Z</time>
      </trkpt>
      <trkpt lat="44.75172" lon="5.37276">
        <ele>416.87</ele>
        <time>2014-09-05T13:59:49Z</time>
      </trkpt>
      <trkpt lat="44.75171" lon="5.37274">
        <ele>416.87</ele>
        <time>2014-09-05T13:59:50Z</time>
      </trkpt>
      <trkpt lat="44.75169" lon="5.37272">
        <ele>416.87</ele>
        <time>2014-09-05T13:59:51Z</time>
      </trkpt>
      <trkpt lat="44.75167" lon="5.3727">
        <ele>416.39</ele>
        <time>2014-09-05T13:59:52Z</time>
      </trkpt>
      <trkpt lat="44.75161" lon="5.37266">
        <ele>416.39</ele>
        <time>2014-09-05T13:59:56Z</time>
      </trkpt>
      <trkpt lat="44.7516" lon="5.37265">
        <ele>416.87</ele>
        <time>2014-09-05T13:59:57Z</time>
      </trkpt>
      <trkpt lat="44.75158" lon="5.37265">
        <ele>416.87</ele>
        <time>2014-09-05T13:59:58Z</time>
      </trkpt>
      <trkpt lat="44.75156" lon="5.37265">
        <ele>416.87</ele>
        <time>2014-09-05T13:59:59Z</time>
      </trkpt>
      <trkpt lat="44.75155" lon="5.37265">
        <ele>416.39</ele>
        <time>2014-09-05T14:00:00Z</time>
      </trkpt>
      <trkpt lat="44.75154" lon="5.37265">
        <ele>415.91</ele>
        <time>2014-09-05T14:00:01Z</time>
      </trkpt>
      <trkpt lat="44.75152" lon="5.37266">
        <ele>415.91</ele>
        <time>2014-09-05T14:00:03Z</time>
      </trkpt>
      <trkpt lat="44.7515" lon="5.3727">
        <ele>415.91</ele>
        <time>2014-09-05T14:00:13Z</time>
      </trkpt>
      <trkpt lat="44.7515" lon="5.37273">
        <ele>415.43</ele>
        <time>2014-09-05T14:00:15Z</time>
      </trkpt>
      <trkpt lat="44.75144" lon="5.37284">
        <ele>414.95</ele>
        <time>2014-09-05T14:00:19Z</time>
      </trkpt>
      <trkpt lat="44.75142" lon="5.37285">
        <ele>414.95</ele>
        <time>2014-09-05T14:00:20Z</time>
      </trkpt>
      <trkpt lat="44.75139" lon="5.37286">
        <ele>414.95</ele>
        <time>2014-09-05T14:00:21Z</time>
      </trkpt>
      <trkpt lat="44.75137" lon="5.37287">
        <ele>414.47</ele>
        <time>2014-09-05T14:00:22Z</time>
      </trkpt>
      <trkpt lat="44.75135" lon="5.37287">
        <ele>414.47</ele>
        <time>2014-09-05T14:00:23Z</time>
      </trkpt>
      <trkpt lat="44.7511" lon="5.373">
        <ele>413.5</ele>
        <time>2014-09-05T14:00:32Z</time>
      </trkpt>
      <trkpt lat="44.75104" lon="5.37301">
        <ele>413.02</ele>
        <time>2014-09-05T14:00:34Z</time>
      </trkpt>
      <trkpt lat="44.75102" lon="5.373">
        <ele>413.5</ele>
        <time>2014-09-05T14:00:35Z</time>
      </trkpt>
      <trkpt lat="44.75101" lon="5.37298">
        <ele>412.54</ele>
        <time>2014-09-05T14:00:36Z</time>
      </trkpt>
      <trkpt lat="44.751" lon="5.37296">
        <ele>413.5</ele>
        <time>2014-09-05T14:00:37Z</time>
      </trkpt>
      <trkpt lat="44.75098" lon="5.37294">
        <ele>413.02</ele>
        <time>2014-09-05T14:00:39Z</time>
      </trkpt>
      <trkpt lat="44.75097" lon="5.37294">
        <ele>413.5</ele>
        <time>2014-09-05T14:00:40Z</time>
      </trkpt>
      <trkpt lat="44.75097" lon="5.37295">
        <ele>413.5</ele>
        <time>2014-09-05T14:00:41Z</time>
      </trkpt>
      <trkpt lat="44.75096" lon="5.37296">
        <ele>413.02</ele>
        <time>2014-09-05T14:00:42Z</time>
      </trkpt>
      <trkpt lat="44.75096" lon="5.37298">
        <ele>413.02</ele>
        <time>2014-09-05T14:00:43Z</time>
      </trkpt>
      <trkpt lat="44.75095" lon="5.373">
        <ele>413.02</ele>
        <time>2014-09-05T14:00:44Z</time>
      </trkpt>
      <trkpt lat="44.75095" lon="5.37302">
        <ele>413.02</ele>
        <time>2014-09-05T14:00:45Z</time>
      </trkpt>
      <trkpt lat="44.75095" lon="5.37305">
        <ele>413.02</ele>
        <time>2014-09-05T14:00:46Z</time>
      </trkpt>
      <trkpt lat="44.75099" lon="5.37308">
        <ele>413.02</ele>
        <time>2014-09-05T14:00:48Z</time>
      </trkpt>
      <trkpt lat="44.75101" lon="5.37307">
        <ele>412.54</ele>
        <time>2014-09-05T14:00:49Z</time>
      </trkpt>
      <trkpt lat="44.75103" lon="5.37306">
        <ele>412.54</ele>
        <time>2014-09-05T14:00:50Z</time>
      </trkpt>
      <trkpt lat="44.75105" lon="5.37304">
        <ele>413.02</ele>
        <time>2014-09-05T14:00:51Z</time>
      </trkpt>
      <trkpt lat="44.75105" lon="5.37302">
        <ele>413.02</ele>
        <time>2014-09-05T14:00:52Z</time>
      </trkpt>
      <trkpt lat="44.75105" lon="5.37301">
        <ele>412.54</ele>
        <time>2014-09-05T14:01:00Z</time>
      </trkpt>
      <trkpt lat="44.75105" lon="5.37301">
        <ele>416.39</ele>
        <time>2014-09-05T14:01:09Z</time>
      </trkpt>
      <trkpt lat="44.75105" lon="5.37301">
        <ele>414.47</ele>
        <time>2014-09-05T14:01:10Z</time>
      </trkpt>
      <trkpt lat="44.75105" lon="5.37301">
        <ele>417.83</ele>
        <time>2014-09-05T14:01:11Z</time>
      </trkpt>
      <trkpt lat="44.75105" lon="5.37301">
        <ele>413.02</ele>
        <time>2014-09-05T14:01:12Z</time>
      </trkpt>
      <trkpt lat="44.75105" lon="5.37301">
        <ele>405.81</ele>
        <time>2014-09-05T14:01:13Z</time>
      </trkpt>
      <trkpt lat="44.75105" lon="5.37301">
        <ele>413.98</ele>
        <time>2014-09-05T14:01:14Z</time>
      </trkpt>
      <trkpt lat="44.75105" lon="5.37301">
        <ele>409.66</ele>
        <time>2014-09-05T14:01:15Z</time>
      </trkpt>
      <trkpt lat="44.75105" lon="5.37301">
        <ele>413.5</ele>
        <time>2014-09-05T14:01:19Z</time>
      </trkpt>
      <trkpt lat="44.75105" lon="5.37301">
        <ele>413.98</ele>
        <time>2014-09-05T14:01:30Z</time>
      </trkpt>
      <trkpt lat="44.75105" lon="5.37301">
        <ele>409.66</ele>
        <time>2014-09-05T14:01:31Z</time>
      </trkpt>
      <trkpt lat="44.75105" lon="5.37301">
        <ele>410.14</ele>
        <time>2014-09-05T14:01:32Z</time>
      </trkpt>
      <trkpt lat="44.75105" lon="5.37301">
        <ele>413.98</ele>
        <time>2014-09-05T14:01:33Z</time>
      </trkpt>
      <trkpt lat="44.75105" lon="5.37301">
        <ele>412.06</ele>
        <time>2014-09-05T14:01:34Z</time>
      </trkpt>
      <trkpt lat="44.75105" lon="5.37301">
        <ele>409.18</ele>
        <time>2014-09-05T14:01:36Z</time>
      </trkpt>
      <trkpt lat="44.75105" lon="5.37301">
        <ele>413.02</ele>
        <time>2014-09-05T14:01:37Z</time>
      </trkpt>
      <trkpt lat="44.75105" lon="5.37301">
        <ele>416.87</ele>
        <time>2014-09-05T14:01:44Z</time>
      </trkpt>
      <trkpt lat="44.75105" lon="5.37301">
        <ele>408.7</ele>
        <time>2014-09-05T14:01:45Z</time>
      </trkpt>
      <trkpt lat="44.75105" lon="5.37301">
        <ele>413.98</ele>
        <time>2014-09-05T14:01:46Z</time>
      </trkpt>
      <trkpt lat="44.75105" lon="5.37301">
        <ele>410.62</ele>
        <time>2014-09-05T14:01:47Z</time>
      </trkpt>
      <trkpt lat="44.75105" lon="5.37301">
        <ele>416.87</ele>
        <time>2014-09-05T14:01:52Z</time>
      </trkpt>
      <trkpt lat="44.75105" lon="5.37301">
        <ele>413.02</ele>
        <time>2014-09-05T14:01:53Z</time>
      </trkpt>
      <trkpt lat="44.75105" lon="5.37301">
        <ele>416.39</ele>
        <time>2014-09-05T14:02:02Z</time>
      </trkpt>
      <trkpt lat="44.75105" lon="5.37301">
        <ele>412.54</ele>
        <time>2014-09-05T14:02:03Z</time>
      </trkpt>
      <trkpt lat="44.75105" lon="5.37301">
        <ele>409.66</ele>
        <time>2014-09-05T14:02:06Z</time>
      </trkpt>
      <trkpt lat="44.75105" lon="5.37301">
        <ele>413.02</ele>
        <time>2014-09-05T14:02:07Z</time>
      </trkpt>
      <trkpt lat="44.75105" lon="5.37301">
        <ele>409.18</ele>
        <time>2014-09-05T14:02:09Z</time>
      </trkpt>
      <trkpt lat="44.75105" lon="5.37301">
        <ele>413.98</ele>
        <time>2014-09-05T14:02:10Z</time>
      </trkpt>
      <trkpt lat="44.75105" lon="5.37301">
        <ele>417.35</ele>
        <time>2014-09-05T14:02:15Z</time>
      </trkpt>
      <trkpt lat="44.75105" lon="5.37301">
        <ele>413.5</ele>
        <time>2014-09-05T14:02:16Z</time>
      </trkpt>
      <trkpt lat="44.75105" lon="5.37301">
        <ele>414.95</ele>
        <time>2014-09-05T14:02:36Z</time>
      </trkpt>
      <trkpt lat="44.75105" lon="5.37301">
        <ele>412.54</ele>
        <time>2014-09-05T14:02:39Z</time>
      </trkpt>
      <trkpt lat="44.75105" lon="5.37301">
        <ele>408.7</ele>
        <time>2014-09-05T14:02:43Z</time>
      </trkpt>
      <trkpt lat="44.75105" lon="5.37301">
        <ele>413.98</ele>
        <time>2014-09-05T14:02:44Z</time>
      </trkpt>
      <trkpt lat="44.75105" lon="5.37301">
        <ele>408.7</ele>
        <time>2014-09-05T14:02:59Z</time>
      </trkpt>
      <trkpt lat="44.75105" lon="5.37301">
        <ele>413.5</ele>
        <time>2014-09-05T14:03:02Z</time>
      </trkpt>
      <trkpt lat="44.75105" lon="5.37301">
        <ele>416.87</ele>
        <time>2014-09-05T14:03:03Z</time>
      </trkpt>
      <trkpt lat="44.75105" lon="5.37301">
        <ele>412.54</ele>
        <time>2014-09-05T14:03:04Z</time>
      </trkpt>
      <trkpt lat="44.75105" lon="5.37301">
        <ele>415.91</ele>
        <time>2014-09-05T14:03:07Z</time>
      </trkpt>
      <trkpt lat="44.75105" lon="5.37301">
        <ele>408.7</ele>
        <time>2014-09-05T14:03:08Z</time>
      </trkpt>
      <trkpt lat="44.75105" lon="5.37301">
        <ele>411.1</ele>
        <time>2014-09-05T14:03:09Z</time>
      </trkpt>
      <trkpt lat="44.75105" lon="5.37301">
        <ele>415.43</ele>
        <time>2014-09-05T14:03:11Z</time>
      </trkpt>
      <trkpt lat="44.75105" lon="5.37301">
        <ele>415.43</ele>
        <time>2014-09-05T14:03:12Z</time>
      </trkpt>
      <trkpt lat="44.75105" lon="5.37301">
        <ele>411.1</ele>
        <time>2014-09-05T14:03:13Z</time>
      </trkpt>
      <trkpt lat="44.75105" lon="5.37301">
        <ele>412.06</ele>
        <time>2014-09-05T14:03:14Z</time>
      </trkpt>
      <trkpt lat="44.75105" lon="5.37301">
        <ele>408.7</ele>
        <time>2014-09-05T14:03:26Z</time>
      </trkpt>
      <trkpt lat="44.75105" lon="5.37301">
        <ele>414.95</ele>
        <time>2014-09-05T14:03:28Z</time>
      </trkpt>
      <trkpt lat="44.75105" lon="5.37301">
        <ele>414.47</ele>
        <time>2014-09-05T14:03:29Z</time>
      </trkpt>
      <trkpt lat="44.75105" lon="5.37301">
        <ele>411.58</ele>
        <time>2014-09-05T14:03:30Z</time>
      </trkpt>
      <trkpt lat="44.75105" lon="5.37301">
        <ele>408.22</ele>
        <time>2014-09-05T14:03:31Z</time>
      </trkpt>
      <trkpt lat="44.75105" lon="5.37301">
        <ele>412.54</ele>
        <time>2014-09-05T14:03:32Z</time>
      </trkpt>
      <trkpt lat="44.75105" lon="5.37301">
        <ele>408.7</ele>
        <time>2014-09-05T14:03:33Z</time>
      </trkpt>
      <trkpt lat="44.75105" lon="5.37301">
        <ele>413.5</ele>
        <time>2014-09-05T14:03:36Z</time>
      </trkpt>
      <trkpt lat="44.75105" lon="5.37301">
        <ele>412.54</ele>
        <time>2014-09-05T14:03:37Z</time>
      </trkpt>
      <trkpt lat="44.75105" lon="5.37301">
        <ele>408.7</ele>
        <time>2014-09-05T14:03:45Z</time>
      </trkpt>
      <trkpt lat="44.75105" lon="5.37301">
        <ele>413.98</ele>
        <time>2014-09-05T14:03:46Z</time>
      </trkpt>
      <trkpt lat="44.75105" lon="5.37301">
        <ele>417.35</ele>
        <time>2014-09-05T14:03:49Z</time>
      </trkpt>
      <trkpt lat="44.75105" lon="5.37301">
        <ele>406.77</ele>
        <time>2014-09-05T14:03:50Z</time>
      </trkpt>
      <trkpt lat="44.75105" lon="5.37301">
        <ele>408.22</ele>
        <time>2014-09-05T14:03:51Z</time>
      </trkpt>
      <trkpt lat="44.75105" lon="5.37301">
        <ele>413.5</ele>
        <time>2014-09-05T14:03:52Z</time>
      </trkpt>
      <trkpt lat="44.75105" lon="5.37301">
        <ele>416.87</ele>
        <time>2014-09-05T14:03:54Z</time>
      </trkpt>
      <trkpt lat="44.75105" lon="5.37301">
        <ele>408.22</ele>
        <time>2014-09-05T14:03:55Z</time>
      </trkpt>
      <trkpt lat="44.75105" lon="5.37301">
        <ele>413.02</ele>
        <time>2014-09-05T14:03:56Z</time>
      </trkpt>
      <trkpt lat="44.75105" lon="5.37301">
        <ele>407.26</ele>
        <time>2014-09-05T14:04:01Z</time>
      </trkpt>
      <trkpt lat="44.75105" lon="5.37301">
        <ele>411.58</ele>
        <time>2014-09-05T14:04:02Z</time>
      </trkpt>
      <trkpt lat="44.75105" lon="5.37301">
        <ele>414.95</ele>
        <time>2014-09-05T14:04:03Z</time>
      </trkpt>
      <trkpt lat="44.75105" lon="5.37301">
        <ele>409.18</ele>
        <time>2014-09-05T14:04:04Z</time>
      </trkpt>
      <trkpt lat="44.75105" lon="5.37301">
        <ele>409.18</ele>
        <time>2014-09-05T14:04:05Z</time>
      </trkpt>
      <trkpt lat="44.75105" lon="5.37301">
        <ele>413.02</ele>
        <time>2014-09-05T14:04:07Z</time>
      </trkpt>
      <trkpt lat="44.75105" lon="5.37301">
        <ele>412.06</ele>
        <time>2014-09-05T14:04:08Z</time>
      </trkpt>
      <trkpt lat="44.75105" lon="5.37301">
        <ele>408.22</ele>
        <time>2014-09-05T14:04:16Z</time>
      </trkpt>
      <trkpt lat="44.75105" lon="5.37301">
        <ele>409.18</ele>
        <time>2014-09-05T14:04:17Z</time>
      </trkpt>
      <trkpt lat="44.75105" lon="5.37301">
        <ele>413.98</ele>
        <time>2014-09-05T14:04:19Z</time>
      </trkpt>
      <trkpt lat="44.75105" lon="5.37301">
        <ele>417.83</ele>
        <time>2014-09-05T14:04:21Z</time>
      </trkpt>
      <trkpt lat="44.75105" lon="5.37301">
        <ele>407.74</ele>
        <time>2014-09-05T14:04:22Z</time>
      </trkpt>
      <trkpt lat="44.75105" lon="5.37301">
        <ele>407.74</ele>
        <time>2014-09-05T14:04:23Z</time>
      </trkpt>
      <trkpt lat="44.75105" lon="5.37301">
        <ele>413.98</ele>
        <time>2014-09-05T14:04:25Z</time>
      </trkpt>
      <trkpt lat="44.75105" lon="5.37301">
        <ele>416.87</ele>
        <time>2014-09-05T14:04:26Z</time>
      </trkpt>
      <trkpt lat="44.75105" lon="5.37301">
        <ele>413.02</ele>
        <time>2014-09-05T14:04:27Z</time>
      </trkpt>
      <trkpt lat="44.75105" lon="5.37301">
        <ele>416.39</ele>
        <time>2014-09-05T14:04:29Z</time>
      </trkpt>
      <trkpt lat="44.75105" lon="5.37301">
        <ele>404.37</ele>
        <time>2014-09-05T14:04:30Z</time>
      </trkpt>
      <trkpt lat="44.75105" lon="5.37301">
        <ele>413.5</ele>
        <time>2014-09-05T14:04:31Z</time>
      </trkpt>
      <trkpt lat="44.75105" lon="5.37301">
        <ele>410.14</ele>
        <time>2014-09-05T14:04:34Z</time>
      </trkpt>
      <trkpt lat="44.75105" lon="5.37301">
        <ele>413.5</ele>
        <time>2014-09-05T14:04:35Z</time>
      </trkpt>
      <trkpt lat="44.75105" lon="5.37301">
        <ele>410.14</ele>
        <time>2014-09-05T14:04:38Z</time>
      </trkpt>
      <trkpt lat="44.75105" lon="5.37301">
        <ele>413.5</ele>
        <time>2014-09-05T14:04:39Z</time>
      </trkpt>
      <trkpt lat="44.75105" lon="5.37301">
        <ele>416.87</ele>
        <time>2014-09-05T14:04:40Z</time>
      </trkpt>
      <trkpt lat="44.75105" lon="5.37301">
        <ele>416.87</ele>
        <time>2014-09-05T14:04:41Z</time>
      </trkpt>
      <trkpt lat="44.75105" lon="5.37301">
        <ele>412.54</ele>
        <time>2014-09-05T14:04:42Z</time>
      </trkpt>
      <trkpt lat="44.75105" lon="5.37301">
        <ele>405.33</ele>
        <time>2014-09-05T14:04:44Z</time>
      </trkpt>
      <trkpt lat="44.75105" lon="5.37301">
        <ele>413.02</ele>
        <time>2014-09-05T14:04:45Z</time>
      </trkpt>
      <trkpt lat="44.75105" lon="5.37301">
        <ele>407.26</ele>
        <time>2014-09-05T14:04:48Z</time>
      </trkpt>
      <trkpt lat="44.75105" lon="5.37301">
        <ele>414.95</ele>
        <time>2014-09-05T14:04:49Z</time>
      </trkpt>
      <trkpt lat="44.75105" lon="5.37301">
        <ele>412.06</ele>
        <time>2014-09-05T14:04:50Z</time>
      </trkpt>
      <trkpt lat="44.75105" lon="5.37301">
        <ele>418.31</ele>
        <time>2014-09-05T14:04:51Z</time>
      </trkpt>
      <trkpt lat="44.75105" lon="5.37301">
        <ele>410.14</ele>
        <time>2014-09-05T14:04:52Z</time>
      </trkpt>
      <trkpt lat="44.75104" lon="5.37301">
        <ele>415.43</ele>
        <time>2014-09-05T14:04:55Z</time>
      </trkpt>
      <trkpt lat="44.75104" lon="5.37301">
        <ele>411.58</ele>
        <time>2014-09-05T14:04:56Z</time>
      </trkpt>
      <trkpt lat="44.75104" lon="5.37301">
        <ele>408.7</ele>
        <time>2014-09-05T14:05:00Z</time>
      </trkpt>
      <trkpt lat="44.75104" lon="5.37301">
        <ele>408.22</ele>
        <time>2014-09-05T14:05:01Z</time>
      </trkpt>
      <trkpt lat="44.75104" lon="5.37301">
        <ele>413.5</ele>
        <time>2014-09-05T14:05:02Z</time>
      </trkpt>
      <trkpt lat="44.75104" lon="5.37301">
        <ele>408.22</ele>
        <time>2014-09-05T14:05:03Z</time>
      </trkpt>
      <trkpt lat="44.75104" lon="5.37301">
        <ele>414.95</ele>
        <time>2014-09-05T14:05:04Z</time>
      </trkpt>
      <trkpt lat="44.75104" lon="5.37301">
        <ele>411.58</ele>
        <time>2014-09-05T14:05:05Z</time>
      </trkpt>
      <trkpt lat="44.75104" lon="5.37301">
        <ele>406.77</ele>
        <time>2014-09-05T14:05:24Z</time>
      </trkpt>
      <trkpt lat="44.75104" lon="5.37301">
        <ele>412.54</ele>
        <time>2014-09-05T14:05:25Z</time>
      </trkpt>
      <trkpt lat="44.75104" lon="5.37301">
        <ele>406.77</ele>
        <time>2014-09-05T14:05:29Z</time>
      </trkpt>
      <trkpt lat="44.75104" lon="5.37301">
        <ele>412.06</ele>
        <time>2014-09-05T14:05:30Z</time>
      </trkpt>
      <trkpt lat="44.75104" lon="5.37301">
        <ele>415.91</ele>
        <time>2014-09-05T14:05:33Z</time>
      </trkpt>
      <trkpt lat="44.75104" lon="5.37301">
        <ele>410.62</ele>
        <time>2014-09-05T14:05:34Z</time>
      </trkpt>
      <trkpt lat="44.75104" lon="5.37301">
        <ele>407.26</ele>
        <time>2014-09-05T14:05:35Z</time>
      </trkpt>
      <trkpt lat="44.75104" lon="5.37301">
        <ele>413.5</ele>
        <time>2014-09-05T14:05:36Z</time>
      </trkpt>
      <trkpt lat="44.75104" lon="5.37301">
        <ele>413.5</ele>
        <time>2014-09-05T14:05:37Z</time>
      </trkpt>
      <trkpt lat="44.75104" lon="5.37301">
        <ele>409.18</ele>
        <time>2014-09-05T14:05:39Z</time>
      </trkpt>
      <trkpt lat="44.75104" lon="5.37301">
        <ele>415.43</ele>
        <time>2014-09-05T14:05:40Z</time>
      </trkpt>
      <trkpt lat="44.75104" lon="5.37301">
        <ele>406.77</ele>
        <time>2014-09-05T14:05:41Z</time>
      </trkpt>
      <trkpt lat="44.75104" lon="5.37301">
        <ele>414.47</ele>
        <time>2014-09-05T14:05:43Z</time>
      </trkpt>
      <trkpt lat="44.75104" lon="5.37301">
        <ele>411.58</ele>
        <time>2014-09-05T14:05:44Z</time>
      </trkpt>
      <trkpt lat="44.75104" lon="5.37301">
        <ele>408.22</ele>
        <time>2014-09-05T14:05:51Z</time>
      </trkpt>
      <trkpt lat="44.75104" lon="5.37301">
        <ele>412.54</ele>
        <time>2014-09-05T14:05:52Z</time>
      </trkpt>
      <trkpt lat="44.75104" lon="5.37301">
        <ele>406.77</ele>
        <time>2014-09-05T14:05:54Z</time>
      </trkpt>
      <trkpt lat="44.75104" lon="5.37301">
        <ele>408.7</ele>
        <time>2014-09-05T14:05:55Z</time>
      </trkpt>
      <trkpt lat="44.75104" lon="5.37301">
        <ele>412.54</ele>
        <time>2014-09-05T14:05:56Z</time>
      </trkpt>
      <trkpt lat="44.75104" lon="5.37301">
        <ele>412.06</ele>
        <time>2014-09-05T14:05:57Z</time>
      </trkpt>
      <trkpt lat="44.75104" lon="5.37301">
        <ele>405.81</ele>
        <time>2014-09-05T14:06:01Z</time>
      </trkpt>
      <trkpt lat="44.75104" lon="5.37301">
        <ele>412.54</ele>
        <time>2014-09-05T14:06:02Z</time>
      </trkpt>
      <trkpt lat="44.75104" lon="5.37301">
        <ele>407.26</ele>
        <time>2014-09-05T14:06:04Z</time>
      </trkpt>
      <trkpt lat="44.75104" lon="5.37301">
        <ele>413.02</ele>
        <time>2014-09-05T14:06:05Z</time>
      </trkpt>
      <trkpt lat="44.75104" lon="5.37301">
        <ele>406.77</ele>
        <time>2014-09-05T14:06:07Z</time>
      </trkpt>
      <trkpt lat="44.75104" lon="5.37301">
        <ele>413.5</ele>
        <time>2014-09-05T14:06:08Z</time>
      </trkpt>
      <trkpt lat="44.75104" lon="5.37301">
        <ele>410.62</ele>
        <time>2014-09-05T14:06:13Z</time>
      </trkpt>
      <trkpt lat="44.75104" lon="5.37301">
        <ele>417.35</ele>
        <time>2014-09-05T14:06:16Z</time>
      </trkpt>
      <trkpt lat="44.75104" lon="5.37301">
        <ele>416.87</ele>
        <time>2014-09-05T14:06:17Z</time>
      </trkpt>
      <trkpt lat="44.75104" lon="5.37301">
        <ele>410.62</ele>
        <time>2014-09-05T14:06:18Z</time>
      </trkpt>
      <trkpt lat="44.75104" lon="5.37301">
        <ele>413.5</ele>
        <time>2014-09-05T14:06:19Z</time>
      </trkpt>
      <trkpt lat="44.75104" lon="5.37301">
        <ele>409.66</ele>
        <time>2014-09-05T14:06:23Z</time>
      </trkpt>
      <trkpt lat="44.75104" lon="5.37301">
        <ele>413.98</ele>
        <time>2014-09-05T14:06:24Z</time>
      </trkpt>
      <trkpt lat="44.75104" lon="5.37301">
        <ele>415.43</ele>
        <time>2014-09-05T14:06:26Z</time>
      </trkpt>
      <trkpt lat="44.75104" lon="5.37301">
        <ele>418.31</ele>
        <time>2014-09-05T14:06:27Z</time>
      </trkpt>
      <trkpt lat="44.75104" lon="5.37301">
        <ele>417.35</ele>
        <time>2014-09-05T14:06:28Z</time>
      </trkpt>
      <trkpt lat="44.75104" lon="5.37301">
        <ele>413.98</ele>
        <time>2014-09-05T14:06:30Z</time>
      </trkpt>
      <trkpt lat="44.75104" lon="5.37301">
        <ele>417.83</ele>
        <time>2014-09-05T14:06:31Z</time>
      </trkpt>
      <trkpt lat="44.75104" lon="5.37301">
        <ele>412.06</ele>
        <time>2014-09-05T14:06:32Z</time>
      </trkpt>
      <trkpt lat="44.75104" lon="5.37301">
        <ele>416.39</ele>
        <time>2014-09-05T14:06:34Z</time>
      </trkpt>
      <trkpt lat="44.75104" lon="5.37301">
        <ele>409.66</ele>
        <time>2014-09-05T14:06:35Z</time>
      </trkpt>
      <trkpt lat="44.75104" lon="5.37301">
        <ele>417.35</ele>
        <time>2014-09-05T14:06:37Z</time>
      </trkpt>
      <trkpt lat="44.75104" lon="5.37301">
        <ele>409.18</ele>
        <time>2014-09-05T14:06:38Z</time>
      </trkpt>
      <trkpt lat="44.75104" lon="5.37301">
        <ele>414.47</ele>
        <time>2014-09-05T14:06:39Z</time>
      </trkpt>
      <trkpt lat="44.75104" lon="5.37301">
        <ele>406.77</ele>
        <time>2014-09-05T14:06:41Z</time>
      </trkpt>
      <trkpt lat="44.75104" lon="5.37301">
        <ele>412.54</ele>
        <time>2014-09-05T14:06:42Z</time>
      </trkpt>
      <trkpt lat="44.75104" lon="5.37301">
        <ele>409.18</ele>
        <time>2014-09-05T14:06:43Z</time>
      </trkpt>
      <trkpt lat="44.75104" lon="5.37301">
        <ele>414.47</ele>
        <time>2014-09-05T14:06:46Z</time>
      </trkpt>
      <trkpt lat="44.75104" lon="5.37301">
        <ele>418.31</ele>
        <time>2014-09-05T14:06:47Z</time>
      </trkpt>
      <trkpt lat="44.75104" lon="5.37301">
        <ele>406.77</ele>
        <time>2014-09-05T14:06:48Z</time>
      </trkpt>
      <trkpt lat="44.75104" lon="5.37301">
        <ele>402.45</ele>
        <time>2014-09-05T14:06:49Z</time>
      </trkpt>
      <trkpt lat="44.75104" lon="5.37301">
        <ele>412.06</ele>
        <time>2014-09-05T14:06:50Z</time>
      </trkpt>
      <trkpt lat="44.75104" lon="5.37301">
        <ele>416.39</ele>
        <time>2014-09-05T14:06:51Z</time>
      </trkpt>
      <trkpt lat="44.75104" lon="5.37301">
        <ele>413.98</ele>
        <time>2014-09-05T14:06:52Z</time>
      </trkpt>
      <trkpt lat="44.75104" lon="5.37301">
        <ele>411.58</ele>
        <time>2014-09-05T14:06:58Z</time>
      </trkpt>
      <trkpt lat="44.75104" lon="5.37301">
        <ele>406.77</ele>
        <time>2014-09-05T14:07:06Z</time>
      </trkpt>
      <trkpt lat="44.75104" lon="5.37301">
        <ele>412.06</ele>
        <time>2014-09-05T14:07:07Z</time>
      </trkpt>
      <trkpt lat="44.75104" lon="5.37301">
        <ele>417.83</ele>
        <time>2014-09-05T14:07:08Z</time>
      </trkpt>
      <trkpt lat="44.75104" lon="5.37301">
        <ele>416.87</ele>
        <time>2014-09-05T14:07:09Z</time>
      </trkpt>
      <trkpt lat="44.75104" lon="5.37301">
        <ele>407.26</ele>
        <time>2014-09-05T14:07:11Z</time>
      </trkpt>
      <trkpt lat="44.75104" lon="5.37301">
        <ele>408.22</ele>
        <time>2014-09-05T14:07:12Z</time>
      </trkpt>
      <trkpt lat="44.75104" lon="5.37301">
        <ele>413.02</ele>
        <time>2014-09-05T14:07:13Z</time>
      </trkpt>
      <trkpt lat="44.75104" lon="5.37301">
        <ele>409.18</ele>
        <time>2014-09-05T14:07:15Z</time>
      </trkpt>
      <trkpt lat="44.75104" lon="5.37301">
        <ele>411.1</ele>
        <time>2014-09-05T14:07:16Z</time>
      </trkpt>
      <trkpt lat="44.75104" lon="5.37301">
        <ele>414.47</ele>
        <time>2014-09-05T14:07:19Z</time>
      </trkpt>
      <trkpt lat="44.75104" lon="5.37301">
        <ele>408.7</ele>
        <time>2014-09-05T14:07:25Z</time>
      </trkpt>
      <trkpt lat="44.75104" lon="5.37301">
        <ele>412.06</ele>
        <time>2014-09-05T14:07:29Z</time>
      </trkpt>
      <trkpt lat="44.75104" lon="5.37301">
        <ele>411.1</ele>
        <time>2014-09-05T14:07:30Z</time>
      </trkpt>
      <trkpt lat="44.75104" lon="5.37301">
        <ele>418.79</ele>
        <time>2014-09-05T14:07:33Z</time>
      </trkpt>
      <trkpt lat="44.75104" lon="5.37301">
        <ele>417.83</ele>
        <time>2014-09-05T14:07:34Z</time>
      </trkpt>
      <trkpt lat="44.75104" lon="5.37301">
        <ele>413.02</ele>
        <time>2014-09-05T14:07:35Z</time>
      </trkpt>
      <trkpt lat="44.75104" lon="5.37301">
        <ele>418.79</ele>
        <time>2014-09-05T14:07:38Z</time>
      </trkpt>
      <trkpt lat="44.75104" lon="5.37301">
        <ele>403.41</ele>
        <time>2014-09-05T14:07:39Z</time>
      </trkpt>
      <trkpt lat="44.75104" lon="5.37301">
        <ele>413.02</ele>
        <time>2014-09-05T14:07:40Z</time>
      </trkpt>
      <trkpt lat="44.75104" lon="5.37301">
        <ele>407.74</ele>
        <time>2014-09-05T14:07:41Z</time>
      </trkpt>
      <trkpt lat="44.75104" lon="5.37301">
        <ele>414.95</ele>
        <time>2014-09-05T14:07:43Z</time>
      </trkpt>
      <trkpt lat="44.75104" lon="5.37301">
        <ele>412.06</ele>
        <time>2014-09-05T14:07:44Z</time>
      </trkpt>
      <trkpt lat="44.75104" lon="5.37301">
        <ele>405.33</ele>
        <time>2014-09-05T14:07:45Z</time>
      </trkpt>
      <trkpt lat="44.75104" lon="5.37301">
        <ele>412.06</ele>
        <time>2014-09-05T14:07:46Z</time>
      </trkpt>
      <trkpt lat="44.75104" lon="5.37301">
        <ele>404.37</ele>
        <time>2014-09-05T14:07:48Z</time>
      </trkpt>
      <trkpt lat="44.75104" lon="5.37301">
        <ele>414.47</ele>
        <time>2014-09-05T14:07:49Z</time>
      </trkpt>
      <trkpt lat="44.75104" lon="5.37301">
        <ele>409.66</ele>
        <time>2014-09-05T14:07:50Z</time>
      </trkpt>
      <trkpt lat="44.75104" lon="5.37301">
        <ele>413.5</ele>
        <time>2014-09-05T14:07:51Z</time>
      </trkpt>
      <trkpt lat="44.75104" lon="5.37301">
        <ele>417.35</ele>
        <time>2014-09-05T14:07:52Z</time>
      </trkpt>
      <trkpt lat="44.75104" lon="5.37301">
        <ele>411.58</ele>
        <time>2014-09-05T14:07:53Z</time>
      </trkpt>
      <trkpt lat="44.75104" lon="5.37301">
        <ele>420.71</ele>
        <time>2014-09-05T14:07:54Z</time>
      </trkpt>
      <trkpt lat="44.75104" lon="5.37301">
        <ele>412.06</ele>
        <time>2014-09-05T14:07:55Z</time>
      </trkpt>
      <trkpt lat="44.75104" lon="5.37301">
        <ele>403.41</ele>
        <time>2014-09-05T14:07:58Z</time>
      </trkpt>
      <trkpt lat="44.75104" lon="5.37301">
        <ele>413.98</ele>
        <time>2014-09-05T14:07:59Z</time>
      </trkpt>
      <trkpt lat="44.75104" lon="5.37301">
        <ele>408.7</ele>
        <time>2014-09-05T14:08:02Z</time>
      </trkpt>
      <trkpt lat="44.75104" lon="5.37301">
        <ele>411.1</ele>
        <time>2014-09-05T14:08:03Z</time>
      </trkpt>
      <trkpt lat="44.75104" lon="5.37301">
        <ele>412.06</ele>
        <time>2014-09-05T14:08:22Z</time>
      </trkpt>
    </trkseg>
  </trk>
</gpx>